<?xml version="1.0" encoding="UTF-8" standalone="no" ?>
<gpx xmlns="http://www.topografix.com/GPX/1/1" xmlns:xsi="http://www.w3.org/2001/XMLSchema-instance" xsi:schemaLocation="http://www.topografix.com/GPX/1/1 http://www.topografix.com/GPX/1/1/gpx.xsd" version="1.1" creator="VisuGPX - https://www.visugpx.com">
  <metadata>
    <name>lundi 2016 07</name>
    <desc><![CDATA[cumul des lundi du mois de juillet 2016]]></desc>
  </metadata>
  <trk>
    <name><![CDATA[lundi 2016 07 04]]></name>
    <trkseg>
      <trkpt lat="48.85807" lon="2.34789">
        <ele>43.200000762939</ele>
        <time>2016-07-04T18:20:39.000Z</time>
      </trkpt>
      <trkpt lat="48.85775" lon="2.34779">
        <ele>39.400001525879</ele>
        <time>2016-07-04T18:20:43.000Z</time>
      </trkpt>
      <trkpt lat="48.8579" lon="2.34794">
        <ele>41</ele>
        <time>2016-07-04T18:20:48.000Z</time>
      </trkpt>
      <trkpt lat="48.85795" lon="2.34797">
        <ele>41.400001525879</ele>
        <time>2016-07-04T18:20:50.000Z</time>
      </trkpt>
      <trkpt lat="48.85775" lon="2.34795">
        <ele>39.200000762939</ele>
        <time>2016-07-04T18:20:56.000Z</time>
      </trkpt>
      <trkpt lat="48.85795" lon="2.34799">
        <ele>41.400001525879</ele>
        <time>2016-07-04T18:20:57.000Z</time>
      </trkpt>
      <trkpt lat="48.85788" lon="2.34793">
        <ele>40.799999237061</ele>
        <time>2016-07-04T18:21:02.000Z</time>
      </trkpt>
      <trkpt lat="48.85755" lon="2.3479">
        <ele>39.200000762939</ele>
        <time>2016-07-04T18:21:04.000Z</time>
      </trkpt>
      <trkpt lat="48.85804" lon="2.34801">
        <ele>42.400001525879</ele>
        <time>2016-07-04T18:21:13.000Z</time>
      </trkpt>
      <trkpt lat="48.85823" lon="2.34813">
        <ele>44.400001525879</ele>
        <time>2016-07-04T18:21:17.000Z</time>
      </trkpt>
      <trkpt lat="48.85843" lon="2.34827">
        <ele>46.400001525879</ele>
        <time>2016-07-04T18:21:21.000Z</time>
      </trkpt>
      <trkpt lat="48.8586" lon="2.3484">
        <ele>48</ele>
        <time>2016-07-04T18:21:24.000Z</time>
      </trkpt>
      <trkpt lat="48.85875" lon="2.34844">
        <ele>48</ele>
        <time>2016-07-04T18:21:26.000Z</time>
      </trkpt>
      <trkpt lat="48.85891" lon="2.34855">
        <ele>48</ele>
        <time>2016-07-04T18:21:29.000Z</time>
      </trkpt>
      <trkpt lat="48.8591" lon="2.34865">
        <ele>48</ele>
        <time>2016-07-04T18:21:32.000Z</time>
      </trkpt>
      <trkpt lat="48.85928" lon="2.34876">
        <ele>48</ele>
        <time>2016-07-04T18:21:35.000Z</time>
      </trkpt>
      <trkpt lat="48.85949" lon="2.34884">
        <ele>48.200000762939</ele>
        <time>2016-07-04T18:21:39.000Z</time>
      </trkpt>
      <trkpt lat="48.85966" lon="2.34893">
        <ele>48.400001525879</ele>
        <time>2016-07-04T18:21:42.000Z</time>
      </trkpt>
      <trkpt lat="48.85988" lon="2.34905">
        <ele>48.599998474121</ele>
        <time>2016-07-04T18:21:46.000Z</time>
      </trkpt>
      <trkpt lat="48.86009" lon="2.34915">
        <ele>48.799999237061</ele>
        <time>2016-07-04T18:21:50.000Z</time>
      </trkpt>
      <trkpt lat="48.86031" lon="2.34931">
        <ele>48.599998474121</ele>
        <time>2016-07-04T18:21:54.000Z</time>
      </trkpt>
      <trkpt lat="48.86053" lon="2.34945">
        <ele>48</ele>
        <time>2016-07-04T18:21:58.000Z</time>
      </trkpt>
      <trkpt lat="48.86063" lon="2.34952">
        <ele>47.599998474121</ele>
        <time>2016-07-04T18:22:00.000Z</time>
      </trkpt>
      <trkpt lat="48.86079" lon="2.34966">
        <ele>47</ele>
        <time>2016-07-04T18:22:03.000Z</time>
      </trkpt>
      <trkpt lat="48.86098" lon="2.34975">
        <ele>46.400001525879</ele>
        <time>2016-07-04T18:22:06.000Z</time>
      </trkpt>
      <trkpt lat="48.86117" lon="2.34981">
        <ele>46.400001525879</ele>
        <time>2016-07-04T18:22:09.000Z</time>
      </trkpt>
      <trkpt lat="48.86136" lon="2.34989">
        <ele>46.400001525879</ele>
        <time>2016-07-04T18:22:12.000Z</time>
      </trkpt>
      <trkpt lat="48.86155" lon="2.34998">
        <ele>46.599998474121</ele>
        <time>2016-07-04T18:22:15.000Z</time>
      </trkpt>
      <trkpt lat="48.86175" lon="2.35007">
        <ele>47</ele>
        <time>2016-07-04T18:22:18.000Z</time>
      </trkpt>
      <trkpt lat="48.8618" lon="2.3501">
        <ele>47</ele>
        <time>2016-07-04T18:22:19.000Z</time>
      </trkpt>
      <trkpt lat="48.86199" lon="2.35021">
        <ele>47.400001525879</ele>
        <time>2016-07-04T18:22:22.000Z</time>
      </trkpt>
      <trkpt lat="48.86219" lon="2.35034">
        <ele>47.799999237061</ele>
        <time>2016-07-04T18:22:25.000Z</time>
      </trkpt>
      <trkpt lat="48.86238" lon="2.35051">
        <ele>48.200000762939</ele>
        <time>2016-07-04T18:22:28.000Z</time>
      </trkpt>
      <trkpt lat="48.86257" lon="2.35063">
        <ele>48.599998474121</ele>
        <time>2016-07-04T18:22:31.000Z</time>
      </trkpt>
      <trkpt lat="48.86275" lon="2.35077">
        <ele>49</ele>
        <time>2016-07-04T18:22:34.000Z</time>
      </trkpt>
      <trkpt lat="48.86296" lon="2.35083">
        <ele>48.599998474121</ele>
        <time>2016-07-04T18:22:38.000Z</time>
      </trkpt>
      <trkpt lat="48.86316" lon="2.35094">
        <ele>48.400001525879</ele>
        <time>2016-07-04T18:22:42.000Z</time>
      </trkpt>
      <trkpt lat="48.86334" lon="2.35107">
        <ele>48</ele>
        <time>2016-07-04T18:22:47.000Z</time>
      </trkpt>
      <trkpt lat="48.86338" lon="2.35105">
        <ele>48</ele>
        <time>2016-07-04T18:22:51.000Z</time>
      </trkpt>
      <trkpt lat="48.86346" lon="2.35097">
        <ele>48</ele>
        <time>2016-07-04T18:23:04.000Z</time>
      </trkpt>
      <trkpt lat="48.86363" lon="2.35104">
        <ele>47.799999237061</ele>
        <time>2016-07-04T18:23:08.000Z</time>
      </trkpt>
      <trkpt lat="48.86383" lon="2.35116">
        <ele>47.599998474121</ele>
        <time>2016-07-04T18:23:12.000Z</time>
      </trkpt>
      <trkpt lat="48.86401" lon="2.35125">
        <ele>47.400001525879</ele>
        <time>2016-07-04T18:23:17.000Z</time>
      </trkpt>
      <trkpt lat="48.86418" lon="2.3514">
        <ele>47.200000762939</ele>
        <time>2016-07-04T18:23:25.000Z</time>
      </trkpt>
      <trkpt lat="48.86435" lon="2.35155">
        <ele>47</ele>
        <time>2016-07-04T18:23:30.000Z</time>
      </trkpt>
      <trkpt lat="48.86453" lon="2.35172">
        <ele>47</ele>
        <time>2016-07-04T18:23:34.000Z</time>
      </trkpt>
      <trkpt lat="48.86473" lon="2.35184">
        <ele>46.799999237061</ele>
        <time>2016-07-04T18:23:39.000Z</time>
      </trkpt>
      <trkpt lat="48.8649" lon="2.35198">
        <ele>47</ele>
        <time>2016-07-04T18:23:43.000Z</time>
      </trkpt>
      <trkpt lat="48.86505" lon="2.35214">
        <ele>47.200000762939</ele>
        <time>2016-07-04T18:23:47.000Z</time>
      </trkpt>
      <trkpt lat="48.86521" lon="2.35228">
        <ele>47.400001525879</ele>
        <time>2016-07-04T18:23:51.000Z</time>
      </trkpt>
      <trkpt lat="48.8654" lon="2.3524">
        <ele>48</ele>
        <time>2016-07-04T18:23:55.000Z</time>
      </trkpt>
      <trkpt lat="48.8656" lon="2.35258">
        <ele>48.400001525879</ele>
        <time>2016-07-04T18:23:59.000Z</time>
      </trkpt>
      <trkpt lat="48.86579" lon="2.35274">
        <ele>48.400001525879</ele>
        <time>2016-07-04T18:24:03.000Z</time>
      </trkpt>
      <trkpt lat="48.86596" lon="2.35285">
        <ele>48.400001525879</ele>
        <time>2016-07-04T18:24:07.000Z</time>
      </trkpt>
      <trkpt lat="48.86617" lon="2.35294">
        <ele>48.599998474121</ele>
        <time>2016-07-04T18:24:18.000Z</time>
      </trkpt>
      <trkpt lat="48.86636" lon="2.35305">
        <ele>49</ele>
        <time>2016-07-04T18:24:23.000Z</time>
      </trkpt>
      <trkpt lat="48.86655" lon="2.35319">
        <ele>49.400001525879</ele>
        <time>2016-07-04T18:24:27.000Z</time>
      </trkpt>
      <trkpt lat="48.86676" lon="2.35314">
        <ele>49.799999237061</ele>
        <time>2016-07-04T18:24:32.000Z</time>
      </trkpt>
      <trkpt lat="48.86688" lon="2.35307">
        <ele>50</ele>
        <time>2016-07-04T18:24:35.000Z</time>
      </trkpt>
      <trkpt lat="48.86709" lon="2.35297">
        <ele>48.799999237061</ele>
        <time>2016-07-04T18:24:40.000Z</time>
      </trkpt>
      <trkpt lat="48.86714" lon="2.35302">
        <ele>48.599998474121</ele>
        <time>2016-07-04T18:24:41.000Z</time>
      </trkpt>
      <trkpt lat="48.86732" lon="2.35317">
        <ele>47.400001525879</ele>
        <time>2016-07-04T18:24:45.000Z</time>
      </trkpt>
      <trkpt lat="48.86751" lon="2.35331">
        <ele>46.400001525879</ele>
        <time>2016-07-04T18:24:49.000Z</time>
      </trkpt>
      <trkpt lat="48.86768" lon="2.35343">
        <ele>45.200000762939</ele>
        <time>2016-07-04T18:24:53.000Z</time>
      </trkpt>
      <trkpt lat="48.86773" lon="2.35345">
        <ele>45</ele>
        <time>2016-07-04T18:24:54.000Z</time>
      </trkpt>
      <trkpt lat="48.86791" lon="2.35358">
        <ele>45.599998474121</ele>
        <time>2016-07-04T18:24:58.000Z</time>
      </trkpt>
      <trkpt lat="48.86799" lon="2.3536">
        <ele>46</ele>
        <time>2016-07-04T18:25:00.000Z</time>
      </trkpt>
      <trkpt lat="48.8682" lon="2.35363">
        <ele>46.599998474121</ele>
        <time>2016-07-04T18:25:05.000Z</time>
      </trkpt>
      <trkpt lat="48.86824" lon="2.35365">
        <ele>46.799999237061</ele>
        <time>2016-07-04T18:25:06.000Z</time>
      </trkpt>
      <trkpt lat="48.86842" lon="2.35378">
        <ele>47.400001525879</ele>
        <time>2016-07-04T18:25:10.000Z</time>
      </trkpt>
      <trkpt lat="48.86862" lon="2.35393">
        <ele>48</ele>
        <time>2016-07-04T18:25:15.000Z</time>
      </trkpt>
      <trkpt lat="48.86876" lon="2.35408">
        <ele>47.799999237061</ele>
        <time>2016-07-04T18:25:19.000Z</time>
      </trkpt>
      <trkpt lat="48.86892" lon="2.35424">
        <ele>48</ele>
        <time>2016-07-04T18:25:24.000Z</time>
      </trkpt>
      <trkpt lat="48.86905" lon="2.35414">
        <ele>47.400001525879</ele>
        <time>2016-07-04T18:25:31.000Z</time>
      </trkpt>
      <trkpt lat="48.86907" lon="2.3541">
        <ele>47.400001525879</ele>
        <time>2016-07-04T18:25:33.000Z</time>
      </trkpt>
      <trkpt lat="48.86916" lon="2.35411">
        <ele>47.200000762939</ele>
        <time>2016-07-04T18:25:37.000Z</time>
      </trkpt>
      <trkpt lat="48.86923" lon="2.35409">
        <ele>47.200000762939</ele>
        <time>2016-07-04T18:25:40.000Z</time>
      </trkpt>
      <trkpt lat="48.86937" lon="2.35417">
        <ele>47.200000762939</ele>
        <time>2016-07-04T18:25:44.000Z</time>
      </trkpt>
      <trkpt lat="48.86957" lon="2.35429">
        <ele>47.599998474121</ele>
        <time>2016-07-04T18:25:49.000Z</time>
      </trkpt>
      <trkpt lat="48.86975" lon="2.35443">
        <ele>48.200000762939</ele>
        <time>2016-07-04T18:25:54.000Z</time>
      </trkpt>
      <trkpt lat="48.86993" lon="2.35456">
        <ele>48.799999237061</ele>
        <time>2016-07-04T18:25:59.000Z</time>
      </trkpt>
      <trkpt lat="48.87013" lon="2.35472">
        <ele>49.400001525879</ele>
        <time>2016-07-04T18:26:03.000Z</time>
      </trkpt>
      <trkpt lat="48.87032" lon="2.35486">
        <ele>49.599998474121</ele>
        <time>2016-07-04T18:26:07.000Z</time>
      </trkpt>
      <trkpt lat="48.87049" lon="2.35497">
        <ele>49</ele>
        <time>2016-07-04T18:26:10.000Z</time>
      </trkpt>
      <trkpt lat="48.87064" lon="2.35506">
        <ele>48.599998474121</ele>
        <time>2016-07-04T18:26:13.000Z</time>
      </trkpt>
      <trkpt lat="48.87084" lon="2.35518">
        <ele>48</ele>
        <time>2016-07-04T18:26:17.000Z</time>
      </trkpt>
      <trkpt lat="48.87106" lon="2.35527">
        <ele>47.400001525879</ele>
        <time>2016-07-04T18:26:21.000Z</time>
      </trkpt>
      <trkpt lat="48.87121" lon="2.35538">
        <ele>47.200000762939</ele>
        <time>2016-07-04T18:26:24.000Z</time>
      </trkpt>
      <trkpt lat="48.87143" lon="2.35554">
        <ele>46.799999237061</ele>
        <time>2016-07-04T18:26:28.000Z</time>
      </trkpt>
      <trkpt lat="48.87161" lon="2.3557">
        <ele>46.599998474121</ele>
        <time>2016-07-04T18:26:31.000Z</time>
      </trkpt>
      <trkpt lat="48.87179" lon="2.35586">
        <ele>46.400001525879</ele>
        <time>2016-07-04T18:26:34.000Z</time>
      </trkpt>
      <trkpt lat="48.87191" lon="2.3559">
        <ele>46.200000762939</ele>
        <time>2016-07-04T18:26:36.000Z</time>
      </trkpt>
      <trkpt lat="48.87207" lon="2.35598">
        <ele>46.400001525879</ele>
        <time>2016-07-04T18:26:39.000Z</time>
      </trkpt>
      <trkpt lat="48.87221" lon="2.35605">
        <ele>46.400001525879</ele>
        <time>2016-07-04T18:26:42.000Z</time>
      </trkpt>
      <trkpt lat="48.8724" lon="2.35619">
        <ele>46.799999237061</ele>
        <time>2016-07-04T18:26:46.000Z</time>
      </trkpt>
      <trkpt lat="48.87259" lon="2.35632">
        <ele>47</ele>
        <time>2016-07-04T18:26:50.000Z</time>
      </trkpt>
      <trkpt lat="48.87277" lon="2.35643">
        <ele>47.200000762939</ele>
        <time>2016-07-04T18:26:54.000Z</time>
      </trkpt>
      <trkpt lat="48.87296" lon="2.35659">
        <ele>47.200000762939</ele>
        <time>2016-07-04T18:26:58.000Z</time>
      </trkpt>
      <trkpt lat="48.87315" lon="2.35673">
        <ele>47</ele>
        <time>2016-07-04T18:27:02.000Z</time>
      </trkpt>
      <trkpt lat="48.87334" lon="2.35687">
        <ele>46.799999237061</ele>
        <time>2016-07-04T18:27:06.000Z</time>
      </trkpt>
      <trkpt lat="48.87349" lon="2.35699">
        <ele>46.599998474121</ele>
        <time>2016-07-04T18:27:09.000Z</time>
      </trkpt>
      <trkpt lat="48.87367" lon="2.35713">
        <ele>46.599998474121</ele>
        <time>2016-07-04T18:27:13.000Z</time>
      </trkpt>
      <trkpt lat="48.87389" lon="2.35726">
        <ele>46.799999237061</ele>
        <time>2016-07-04T18:27:17.000Z</time>
      </trkpt>
      <trkpt lat="48.8741" lon="2.3573">
        <ele>46.799999237061</ele>
        <time>2016-07-04T18:27:22.000Z</time>
      </trkpt>
      <trkpt lat="48.87432" lon="2.35736">
        <ele>47</ele>
        <time>2016-07-04T18:27:27.000Z</time>
      </trkpt>
      <trkpt lat="48.87443" lon="2.35741">
        <ele>47.200000762939</ele>
        <time>2016-07-04T18:27:29.000Z</time>
      </trkpt>
      <trkpt lat="48.87455" lon="2.35745">
        <ele>47.200000762939</ele>
        <time>2016-07-04T18:27:33.000Z</time>
      </trkpt>
      <trkpt lat="48.87457" lon="2.3574">
        <ele>47.400001525879</ele>
        <time>2016-07-04T18:27:35.000Z</time>
      </trkpt>
      <trkpt lat="48.87457" lon="2.35734">
        <ele>47.400001525879</ele>
        <time>2016-07-04T18:27:38.000Z</time>
      </trkpt>
      <trkpt lat="48.87472" lon="2.35749">
        <ele>47.400001525879</ele>
        <time>2016-07-04T18:27:54.000Z</time>
      </trkpt>
      <trkpt lat="48.87491" lon="2.35758">
        <ele>47.799999237061</ele>
        <time>2016-07-04T18:28:02.000Z</time>
      </trkpt>
      <trkpt lat="48.87505" lon="2.35765">
        <ele>48</ele>
        <time>2016-07-04T18:28:06.000Z</time>
      </trkpt>
      <trkpt lat="48.87513" lon="2.3577">
        <ele>48.200000762939</ele>
        <time>2016-07-04T18:28:08.000Z</time>
      </trkpt>
      <trkpt lat="48.8753" lon="2.35786">
        <ele>48.599998474121</ele>
        <time>2016-07-04T18:28:13.000Z</time>
      </trkpt>
      <trkpt lat="48.8755" lon="2.35801">
        <ele>49.400001525879</ele>
        <time>2016-07-04T18:28:18.000Z</time>
      </trkpt>
      <trkpt lat="48.8757" lon="2.35817">
        <ele>50</ele>
        <time>2016-07-04T18:28:22.000Z</time>
      </trkpt>
      <trkpt lat="48.87585" lon="2.3583">
        <ele>50.400001525879</ele>
        <time>2016-07-04T18:28:26.000Z</time>
      </trkpt>
      <trkpt lat="48.87603" lon="2.35841">
        <ele>51</ele>
        <time>2016-07-04T18:28:31.000Z</time>
      </trkpt>
      <trkpt lat="48.87608" lon="2.35866">
        <ele>51</ele>
        <time>2016-07-04T18:28:39.000Z</time>
      </trkpt>
      <trkpt lat="48.87605" lon="2.35897">
        <ele>51</ele>
        <time>2016-07-04T18:28:44.000Z</time>
      </trkpt>
      <trkpt lat="48.87603" lon="2.35929">
        <ele>51</ele>
        <time>2016-07-04T18:28:47.000Z</time>
      </trkpt>
      <trkpt lat="48.87583" lon="2.35951">
        <ele>50</ele>
        <time>2016-07-04T18:28:52.000Z</time>
      </trkpt>
      <trkpt lat="48.87574" lon="2.35972">
        <ele>49.599998474121</ele>
        <time>2016-07-04T18:28:57.000Z</time>
      </trkpt>
      <trkpt lat="48.87571" lon="2.35987">
        <ele>49.200000762939</ele>
        <time>2016-07-04T18:29:02.000Z</time>
      </trkpt>
      <trkpt lat="48.87574" lon="2.36014">
        <ele>49.200000762939</ele>
        <time>2016-07-04T18:29:13.000Z</time>
      </trkpt>
      <trkpt lat="48.87582" lon="2.36033">
        <ele>50</ele>
        <time>2016-07-04T18:29:17.000Z</time>
      </trkpt>
      <trkpt lat="48.87594" lon="2.36058">
        <ele>51</ele>
        <time>2016-07-04T18:29:22.000Z</time>
      </trkpt>
      <trkpt lat="48.87592" lon="2.36089">
        <ele>50.799999237061</ele>
        <time>2016-07-04T18:29:27.000Z</time>
      </trkpt>
      <trkpt lat="48.87596" lon="2.36117">
        <ele>50.799999237061</ele>
        <time>2016-07-04T18:29:34.000Z</time>
      </trkpt>
      <trkpt lat="48.87609" lon="2.36144">
        <ele>51.400001525879</ele>
        <time>2016-07-04T18:29:40.000Z</time>
      </trkpt>
      <trkpt lat="48.87616" lon="2.36173">
        <ele>51.400001525879</ele>
        <time>2016-07-04T18:29:46.000Z</time>
      </trkpt>
      <trkpt lat="48.87628" lon="2.36203">
        <ele>51.799999237061</ele>
        <time>2016-07-04T18:29:50.000Z</time>
      </trkpt>
      <trkpt lat="48.8764" lon="2.36225">
        <ele>52.200000762939</ele>
        <time>2016-07-04T18:29:54.000Z</time>
      </trkpt>
      <trkpt lat="48.87657" lon="2.36251">
        <ele>52.599998474121</ele>
        <time>2016-07-04T18:29:58.000Z</time>
      </trkpt>
      <trkpt lat="48.87663" lon="2.36278">
        <ele>51.200000762939</ele>
        <time>2016-07-04T18:30:03.000Z</time>
      </trkpt>
      <trkpt lat="48.87671" lon="2.36304">
        <ele>50</ele>
        <time>2016-07-04T18:30:08.000Z</time>
      </trkpt>
      <trkpt lat="48.87667" lon="2.36334">
        <ele>49.200000762939</ele>
        <time>2016-07-04T18:30:19.000Z</time>
      </trkpt>
      <trkpt lat="48.87663" lon="2.36334">
        <ele>49.200000762939</ele>
        <time>2016-07-04T18:30:20.000Z</time>
      </trkpt>
      <trkpt lat="48.87671" lon="2.36344">
        <ele>48.599998474121</ele>
        <time>2016-07-04T18:30:34.000Z</time>
      </trkpt>
      <trkpt lat="48.87671" lon="2.36344">
        <ele>48.599998474121</ele>
        <time>2016-07-04T18:30:35.000Z</time>
      </trkpt>
      <trkpt lat="48.87687" lon="2.36373">
        <ele>47</ele>
        <time>2016-07-04T18:30:40.000Z</time>
      </trkpt>
      <trkpt lat="48.87701" lon="2.36389">
        <ele>47.200000762939</ele>
        <time>2016-07-04T18:30:42.000Z</time>
      </trkpt>
      <trkpt lat="48.87716" lon="2.36407">
        <ele>47.599998474121</ele>
        <time>2016-07-04T18:30:45.000Z</time>
      </trkpt>
      <trkpt lat="48.87729" lon="2.36431">
        <ele>47.400001525879</ele>
        <time>2016-07-04T18:30:50.000Z</time>
      </trkpt>
      <trkpt lat="48.87748" lon="2.36447">
        <ele>48</ele>
        <time>2016-07-04T18:30:55.000Z</time>
      </trkpt>
      <trkpt lat="48.87768" lon="2.36468">
        <ele>48.400001525879</ele>
        <time>2016-07-04T18:30:59.000Z</time>
      </trkpt>
      <trkpt lat="48.87784" lon="2.36481">
        <ele>48.599998474121</ele>
        <time>2016-07-04T18:31:03.000Z</time>
      </trkpt>
      <trkpt lat="48.87796" lon="2.36493">
        <ele>48.599998474121</ele>
        <time>2016-07-04T18:31:16.000Z</time>
      </trkpt>
      <trkpt lat="48.87791" lon="2.36495">
        <ele>48.200000762939</ele>
        <time>2016-07-04T18:31:23.000Z</time>
      </trkpt>
      <trkpt lat="48.87783" lon="2.3652">
        <ele>47.599998474121</ele>
        <time>2016-07-04T18:31:29.000Z</time>
      </trkpt>
      <trkpt lat="48.87771" lon="2.36544">
        <ele>47.599998474121</ele>
        <time>2016-07-04T18:31:36.000Z</time>
      </trkpt>
      <trkpt lat="48.87755" lon="2.36562">
        <ele>47.799999237061</ele>
        <time>2016-07-04T18:31:42.000Z</time>
      </trkpt>
      <trkpt lat="48.87738" lon="2.3658">
        <ele>48.400001525879</ele>
        <time>2016-07-04T18:31:49.000Z</time>
      </trkpt>
      <trkpt lat="48.87736" lon="2.36579">
        <ele>48.400001525879</ele>
        <time>2016-07-04T18:31:51.000Z</time>
      </trkpt>
      <trkpt lat="48.87748" lon="2.36593">
        <ele>48.599998474121</ele>
        <time>2016-07-04T18:32:02.000Z</time>
      </trkpt>
      <trkpt lat="48.87764" lon="2.36611">
        <ele>48.799999237061</ele>
        <time>2016-07-04T18:32:06.000Z</time>
      </trkpt>
      <trkpt lat="48.87781" lon="2.36624">
        <ele>49.400001525879</ele>
        <time>2016-07-04T18:32:10.000Z</time>
      </trkpt>
      <trkpt lat="48.87798" lon="2.36638">
        <ele>50.200000762939</ele>
        <time>2016-07-04T18:32:14.000Z</time>
      </trkpt>
      <trkpt lat="48.87814" lon="2.36653">
        <ele>51.200000762939</ele>
        <time>2016-07-04T18:32:19.000Z</time>
      </trkpt>
      <trkpt lat="48.87834" lon="2.36676">
        <ele>53</ele>
        <time>2016-07-04T18:32:24.000Z</time>
      </trkpt>
      <trkpt lat="48.87849" lon="2.36695">
        <ele>55</ele>
        <time>2016-07-04T18:32:28.000Z</time>
      </trkpt>
      <trkpt lat="48.87862" lon="2.36716">
        <ele>56.599998474121</ele>
        <time>2016-07-04T18:32:33.000Z</time>
      </trkpt>
      <trkpt lat="48.87877" lon="2.36744">
        <ele>58.400001525879</ele>
        <time>2016-07-04T18:32:38.000Z</time>
      </trkpt>
      <trkpt lat="48.87894" lon="2.36759">
        <ele>58.599998474121</ele>
        <time>2016-07-04T18:32:42.000Z</time>
      </trkpt>
      <trkpt lat="48.87901" lon="2.36759">
        <ele>58.400001525879</ele>
        <time>2016-07-04T18:32:44.000Z</time>
      </trkpt>
      <trkpt lat="48.87923" lon="2.36767">
        <ele>58.200000762939</ele>
        <time>2016-07-04T18:32:51.000Z</time>
      </trkpt>
      <trkpt lat="48.87938" lon="2.36789">
        <ele>58</ele>
        <time>2016-07-04T18:32:57.000Z</time>
      </trkpt>
      <trkpt lat="48.87955" lon="2.36815">
        <ele>57.200000762939</ele>
        <time>2016-07-04T18:33:08.000Z</time>
      </trkpt>
      <trkpt lat="48.87974" lon="2.36837">
        <ele>56.599998474121</ele>
        <time>2016-07-04T18:33:12.000Z</time>
      </trkpt>
      <trkpt lat="48.87991" lon="2.36856">
        <ele>56.799999237061</ele>
        <time>2016-07-04T18:33:15.000Z</time>
      </trkpt>
      <trkpt lat="48.88009" lon="2.36877">
        <ele>56.799999237061</ele>
        <time>2016-07-04T18:33:19.000Z</time>
      </trkpt>
      <trkpt lat="48.88023" lon="2.36896">
        <ele>57</ele>
        <time>2016-07-04T18:33:22.000Z</time>
      </trkpt>
      <trkpt lat="48.88039" lon="2.36918">
        <ele>57.799999237061</ele>
        <time>2016-07-04T18:33:26.000Z</time>
      </trkpt>
      <trkpt lat="48.88053" lon="2.36939">
        <ele>58.400001525879</ele>
        <time>2016-07-04T18:33:30.000Z</time>
      </trkpt>
      <trkpt lat="48.88058" lon="2.36944">
        <ele>58.599998474121</ele>
        <time>2016-07-04T18:33:31.000Z</time>
      </trkpt>
      <trkpt lat="48.88067" lon="2.36951">
        <ele>58.599998474121</ele>
        <time>2016-07-04T18:33:33.000Z</time>
      </trkpt>
      <trkpt lat="48.88087" lon="2.36964">
        <ele>58.799999237061</ele>
        <time>2016-07-04T18:33:37.000Z</time>
      </trkpt>
      <trkpt lat="48.88104" lon="2.36983">
        <ele>59.400001525879</ele>
        <time>2016-07-04T18:33:41.000Z</time>
      </trkpt>
      <trkpt lat="48.88119" lon="2.37007">
        <ele>59.799999237061</ele>
        <time>2016-07-04T18:33:45.000Z</time>
      </trkpt>
      <trkpt lat="48.88135" lon="2.3703">
        <ele>59.799999237061</ele>
        <time>2016-07-04T18:33:49.000Z</time>
      </trkpt>
      <trkpt lat="48.88148" lon="2.37047">
        <ele>59.799999237061</ele>
        <time>2016-07-04T18:33:53.000Z</time>
      </trkpt>
      <trkpt lat="48.88144" lon="2.37016">
        <ele>59.200000762939</ele>
        <time>2016-07-04T18:33:57.000Z</time>
      </trkpt>
      <trkpt lat="48.88142" lon="2.37006">
        <ele>59</ele>
        <time>2016-07-04T18:34:00.000Z</time>
      </trkpt>
      <trkpt lat="48.88136" lon="2.36989">
        <ele>58.400001525879</ele>
        <time>2016-07-04T18:34:08.000Z</time>
      </trkpt>
      <trkpt lat="48.88136" lon="2.36989">
        <ele>58.599998474121</ele>
        <time>2016-07-04T18:34:09.000Z</time>
      </trkpt>
      <trkpt lat="48.88139" lon="2.37002">
        <ele>59</ele>
        <time>2016-07-04T18:34:18.000Z</time>
      </trkpt>
      <trkpt lat="48.88152" lon="2.37028">
        <ele>59.400001525879</ele>
        <time>2016-07-04T18:34:27.000Z</time>
      </trkpt>
      <trkpt lat="48.88171" lon="2.37031">
        <ele>58.799999237061</ele>
        <time>2016-07-04T18:34:33.000Z</time>
      </trkpt>
      <trkpt lat="48.88195" lon="2.37043">
        <ele>58.599998474121</ele>
        <time>2016-07-04T18:34:38.000Z</time>
      </trkpt>
      <trkpt lat="48.88216" lon="2.37052">
        <ele>59</ele>
        <time>2016-07-04T18:34:42.000Z</time>
      </trkpt>
      <trkpt lat="48.88235" lon="2.3705">
        <ele>58.799999237061</ele>
        <time>2016-07-04T18:34:47.000Z</time>
      </trkpt>
      <trkpt lat="48.88253" lon="2.37036">
        <ele>58</ele>
        <time>2016-07-04T18:34:53.000Z</time>
      </trkpt>
      <trkpt lat="48.88272" lon="2.37038">
        <ele>58</ele>
        <time>2016-07-04T18:35:00.000Z</time>
      </trkpt>
      <trkpt lat="48.88286" lon="2.37047">
        <ele>57.400001525879</ele>
        <time>2016-07-04T18:35:06.000Z</time>
      </trkpt>
      <trkpt lat="48.88298" lon="2.37072">
        <ele>57.799999237061</ele>
        <time>2016-07-04T18:35:11.000Z</time>
      </trkpt>
      <trkpt lat="48.88309" lon="2.37084">
        <ele>57.599998474121</ele>
        <time>2016-07-04T18:35:14.000Z</time>
      </trkpt>
      <trkpt lat="48.88329" lon="2.37092">
        <ele>56.599998474121</ele>
        <time>2016-07-04T18:35:21.000Z</time>
      </trkpt>
      <trkpt lat="48.88346" lon="2.37103">
        <ele>55.799999237061</ele>
        <time>2016-07-04T18:35:27.000Z</time>
      </trkpt>
      <trkpt lat="48.88352" lon="2.37136">
        <ele>57</ele>
        <time>2016-07-04T18:35:33.000Z</time>
      </trkpt>
      <trkpt lat="48.88369" lon="2.3716">
        <ele>57</ele>
        <time>2016-07-04T18:35:37.000Z</time>
      </trkpt>
      <trkpt lat="48.88386" lon="2.37174">
        <ele>56.400001525879</ele>
        <time>2016-07-04T18:35:40.000Z</time>
      </trkpt>
      <trkpt lat="48.88401" lon="2.37189">
        <ele>56</ele>
        <time>2016-07-04T18:35:43.000Z</time>
      </trkpt>
      <trkpt lat="48.88414" lon="2.37212">
        <ele>55.599998474121</ele>
        <time>2016-07-04T18:35:46.000Z</time>
      </trkpt>
      <trkpt lat="48.88425" lon="2.37236">
        <ele>55.599998474121</ele>
        <time>2016-07-04T18:35:49.000Z</time>
      </trkpt>
      <trkpt lat="48.88438" lon="2.3726">
        <ele>55.400001525879</ele>
        <time>2016-07-04T18:35:52.000Z</time>
      </trkpt>
      <trkpt lat="48.8844" lon="2.3732">
        <ele>56.799999237061</ele>
        <time>2016-07-04T18:35:54.000Z</time>
      </trkpt>
      <trkpt lat="48.88449" lon="2.37356">
        <ele>57.200000762939</ele>
        <time>2016-07-04T18:35:57.000Z</time>
      </trkpt>
      <trkpt lat="48.88454" lon="2.37385">
        <ele>57.599998474121</ele>
        <time>2016-07-04T18:35:59.000Z</time>
      </trkpt>
      <trkpt lat="48.88455" lon="2.37393">
        <ele>57.799999237061</ele>
        <time>2016-07-04T18:36:00.000Z</time>
      </trkpt>
      <trkpt lat="48.8846" lon="2.37406">
        <ele>57.799999237061</ele>
        <time>2016-07-04T18:36:02.000Z</time>
      </trkpt>
      <trkpt lat="48.88478" lon="2.37434">
        <ele>57.599998474121</ele>
        <time>2016-07-04T18:36:05.000Z</time>
      </trkpt>
      <trkpt lat="48.88492" lon="2.3746">
        <ele>57.599998474121</ele>
        <time>2016-07-04T18:36:09.000Z</time>
      </trkpt>
      <trkpt lat="48.8851" lon="2.37487">
        <ele>57.400001525879</ele>
        <time>2016-07-04T18:36:15.000Z</time>
      </trkpt>
      <trkpt lat="48.88522" lon="2.37511">
        <ele>57.400001525879</ele>
        <time>2016-07-04T18:36:18.000Z</time>
      </trkpt>
      <trkpt lat="48.88535" lon="2.37534">
        <ele>57.400001525879</ele>
        <time>2016-07-04T18:36:21.000Z</time>
      </trkpt>
      <trkpt lat="48.88547" lon="2.37556">
        <ele>57.200000762939</ele>
        <time>2016-07-04T18:36:24.000Z</time>
      </trkpt>
      <trkpt lat="48.8856" lon="2.37576">
        <ele>57</ele>
        <time>2016-07-04T18:36:27.000Z</time>
      </trkpt>
      <trkpt lat="48.88575" lon="2.37596">
        <ele>57</ele>
        <time>2016-07-04T18:36:30.000Z</time>
      </trkpt>
      <trkpt lat="48.88586" lon="2.37618">
        <ele>57.400001525879</ele>
        <time>2016-07-04T18:36:33.000Z</time>
      </trkpt>
      <trkpt lat="48.88601" lon="2.37626">
        <ele>56.799999237061</ele>
        <time>2016-07-04T18:36:39.000Z</time>
      </trkpt>
      <trkpt lat="48.8861" lon="2.37644">
        <ele>57.200000762939</ele>
        <time>2016-07-04T18:36:43.000Z</time>
      </trkpt>
      <trkpt lat="48.8862" lon="2.37668">
        <ele>58</ele>
        <time>2016-07-04T18:36:47.000Z</time>
      </trkpt>
      <trkpt lat="48.8863" lon="2.37691">
        <ele>58.599998474121</ele>
        <time>2016-07-04T18:36:52.000Z</time>
      </trkpt>
      <trkpt lat="48.88644" lon="2.37713">
        <ele>59.599998474121</ele>
        <time>2016-07-04T18:36:56.000Z</time>
      </trkpt>
      <trkpt lat="48.88654" lon="2.37738">
        <ele>61</ele>
        <time>2016-07-04T18:37:01.000Z</time>
      </trkpt>
      <trkpt lat="48.88668" lon="2.37759">
        <ele>60.599998474121</ele>
        <time>2016-07-04T18:37:05.000Z</time>
      </trkpt>
      <trkpt lat="48.88682" lon="2.37779">
        <ele>58.799999237061</ele>
        <time>2016-07-04T18:37:09.000Z</time>
      </trkpt>
      <trkpt lat="48.88693" lon="2.37805">
        <ele>57.599998474121</ele>
        <time>2016-07-04T18:37:14.000Z</time>
      </trkpt>
      <trkpt lat="48.88702" lon="2.37829">
        <ele>56.799999237061</ele>
        <time>2016-07-04T18:37:20.000Z</time>
      </trkpt>
      <trkpt lat="48.88702" lon="2.37839">
        <ele>56.799999237061</ele>
        <time>2016-07-04T18:37:22.000Z</time>
      </trkpt>
      <trkpt lat="48.88714" lon="2.37855">
        <ele>56.799999237061</ele>
        <time>2016-07-04T18:37:28.000Z</time>
      </trkpt>
      <trkpt lat="48.88726" lon="2.3788">
        <ele>56.599998474121</ele>
        <time>2016-07-04T18:37:32.000Z</time>
      </trkpt>
      <trkpt lat="48.8874" lon="2.37909">
        <ele>56.400001525879</ele>
        <time>2016-07-04T18:37:36.000Z</time>
      </trkpt>
      <trkpt lat="48.88751" lon="2.37935">
        <ele>56.799999237061</ele>
        <time>2016-07-04T18:37:41.000Z</time>
      </trkpt>
      <trkpt lat="48.88765" lon="2.3796">
        <ele>57.200000762939</ele>
        <time>2016-07-04T18:37:46.000Z</time>
      </trkpt>
      <trkpt lat="48.88772" lon="2.37974">
        <ele>57.400001525879</ele>
        <time>2016-07-04T18:37:48.000Z</time>
      </trkpt>
      <trkpt lat="48.88788" lon="2.37974">
        <ele>56.799999237061</ele>
        <time>2016-07-04T18:37:54.000Z</time>
      </trkpt>
      <trkpt lat="48.88795" lon="2.37969">
        <ele>56.200000762939</ele>
        <time>2016-07-04T18:37:58.000Z</time>
      </trkpt>
      <trkpt lat="48.88802" lon="2.37969">
        <ele>56</ele>
        <time>2016-07-04T18:38:03.000Z</time>
      </trkpt>
      <trkpt lat="48.8881" lon="2.37964">
        <ele>55.400001525879</ele>
        <time>2016-07-04T18:38:11.000Z</time>
      </trkpt>
      <trkpt lat="48.88821" lon="2.37989">
        <ele>55.599998474121</ele>
        <time>2016-07-04T18:38:42.000Z</time>
      </trkpt>
      <trkpt lat="48.8882" lon="2.37976">
        <ele>55.200000762939</ele>
        <time>2016-07-04T18:38:51.000Z</time>
      </trkpt>
      <trkpt lat="48.88831" lon="2.38">
        <ele>55.400001525879</ele>
        <time>2016-07-04T18:39:00.000Z</time>
      </trkpt>
      <trkpt lat="48.88844" lon="2.38021">
        <ele>56</ele>
        <time>2016-07-04T18:39:05.000Z</time>
      </trkpt>
      <trkpt lat="48.8886" lon="2.38047">
        <ele>56.799999237061</ele>
        <time>2016-07-04T18:39:09.000Z</time>
      </trkpt>
      <trkpt lat="48.88873" lon="2.38071">
        <ele>57.799999237061</ele>
        <time>2016-07-04T18:39:12.000Z</time>
      </trkpt>
      <trkpt lat="48.88887" lon="2.38099">
        <ele>58.799999237061</ele>
        <time>2016-07-04T18:39:16.000Z</time>
      </trkpt>
      <trkpt lat="48.88898" lon="2.38122">
        <ele>59.400001525879</ele>
        <time>2016-07-04T18:39:19.000Z</time>
      </trkpt>
      <trkpt lat="48.88909" lon="2.38145">
        <ele>60</ele>
        <time>2016-07-04T18:39:22.000Z</time>
      </trkpt>
      <trkpt lat="48.88921" lon="2.38171">
        <ele>60.400001525879</ele>
        <time>2016-07-04T18:39:25.000Z</time>
      </trkpt>
      <trkpt lat="48.88934" lon="2.38196">
        <ele>60.799999237061</ele>
        <time>2016-07-04T18:39:28.000Z</time>
      </trkpt>
      <trkpt lat="48.88946" lon="2.38222">
        <ele>61</ele>
        <time>2016-07-04T18:39:31.000Z</time>
      </trkpt>
      <trkpt lat="48.88959" lon="2.38243">
        <ele>61</ele>
        <time>2016-07-04T18:39:34.000Z</time>
      </trkpt>
      <trkpt lat="48.88976" lon="2.38269">
        <ele>60.200000762939</ele>
        <time>2016-07-04T18:39:39.000Z</time>
      </trkpt>
      <trkpt lat="48.88991" lon="2.38288">
        <ele>59.599998474121</ele>
        <time>2016-07-04T18:39:43.000Z</time>
      </trkpt>
      <trkpt lat="48.89003" lon="2.38313">
        <ele>59</ele>
        <time>2016-07-04T18:39:47.000Z</time>
      </trkpt>
      <trkpt lat="48.89015" lon="2.38336">
        <ele>58.400001525879</ele>
        <time>2016-07-04T18:39:50.000Z</time>
      </trkpt>
      <trkpt lat="48.89016" lon="2.38341">
        <ele>58.200000762939</ele>
        <time>2016-07-04T18:39:51.000Z</time>
      </trkpt>
      <trkpt lat="48.89028" lon="2.38363">
        <ele>57.400001525879</ele>
        <time>2016-07-04T18:39:55.000Z</time>
      </trkpt>
      <trkpt lat="48.89042" lon="2.38391">
        <ele>56.799999237061</ele>
        <time>2016-07-04T18:39:59.000Z</time>
      </trkpt>
      <trkpt lat="48.89053" lon="2.38418">
        <ele>56.400001525879</ele>
        <time>2016-07-04T18:40:03.000Z</time>
      </trkpt>
      <trkpt lat="48.89064" lon="2.38443">
        <ele>56.400001525879</ele>
        <time>2016-07-04T18:40:06.000Z</time>
      </trkpt>
      <trkpt lat="48.89079" lon="2.38468">
        <ele>56.400001525879</ele>
        <time>2016-07-04T18:40:09.000Z</time>
      </trkpt>
      <trkpt lat="48.89088" lon="2.38493">
        <ele>56.400001525879</ele>
        <time>2016-07-04T18:40:12.000Z</time>
      </trkpt>
      <trkpt lat="48.89099" lon="2.38524">
        <ele>57.200000762939</ele>
        <time>2016-07-04T18:40:16.000Z</time>
      </trkpt>
      <trkpt lat="48.89102" lon="2.3853">
        <ele>57.200000762939</ele>
        <time>2016-07-04T18:40:18.000Z</time>
      </trkpt>
      <trkpt lat="48.89116" lon="2.38553">
        <ele>57.599998474121</ele>
        <time>2016-07-04T18:40:22.000Z</time>
      </trkpt>
      <trkpt lat="48.89132" lon="2.38576">
        <ele>57.799999237061</ele>
        <time>2016-07-04T18:40:27.000Z</time>
      </trkpt>
      <trkpt lat="48.89135" lon="2.3858">
        <ele>58</ele>
        <time>2016-07-04T18:40:28.000Z</time>
      </trkpt>
      <trkpt lat="48.89141" lon="2.38592">
        <ele>57.599998474121</ele>
        <time>2016-07-04T18:40:30.000Z</time>
      </trkpt>
      <trkpt lat="48.89153" lon="2.38613">
        <ele>56.599998474121</ele>
        <time>2016-07-04T18:40:33.000Z</time>
      </trkpt>
      <trkpt lat="48.89163" lon="2.38639">
        <ele>55.599998474121</ele>
        <time>2016-07-04T18:40:37.000Z</time>
      </trkpt>
      <trkpt lat="48.8917" lon="2.38655">
        <ele>55.400001525879</ele>
        <time>2016-07-04T18:40:40.000Z</time>
      </trkpt>
      <trkpt lat="48.89175" lon="2.38672">
        <ele>55</ele>
        <time>2016-07-04T18:40:44.000Z</time>
      </trkpt>
      <trkpt lat="48.89178" lon="2.38676">
        <ele>54.799999237061</ele>
        <time>2016-07-04T18:40:46.000Z</time>
      </trkpt>
      <trkpt lat="48.8919" lon="2.38682">
        <ele>54</ele>
        <time>2016-07-04T18:40:50.000Z</time>
      </trkpt>
      <trkpt lat="48.892" lon="2.38692">
        <ele>54.200000762939</ele>
        <time>2016-07-04T18:40:54.000Z</time>
      </trkpt>
      <trkpt lat="48.8921" lon="2.38718">
        <ele>54.200000762939</ele>
        <time>2016-07-04T18:41:04.000Z</time>
      </trkpt>
      <trkpt lat="48.89212" lon="2.38722">
        <ele>54.200000762939</ele>
        <time>2016-07-04T18:41:05.000Z</time>
      </trkpt>
      <trkpt lat="48.89223" lon="2.38747">
        <ele>54.400001525879</ele>
        <time>2016-07-04T18:41:10.000Z</time>
      </trkpt>
      <trkpt lat="48.89235" lon="2.38767">
        <ele>54</ele>
        <time>2016-07-04T18:41:14.000Z</time>
      </trkpt>
      <trkpt lat="48.89247" lon="2.38799">
        <ele>53.400001525879</ele>
        <time>2016-07-04T18:41:18.000Z</time>
      </trkpt>
      <trkpt lat="48.89256" lon="2.38827">
        <ele>52.799999237061</ele>
        <time>2016-07-04T18:41:25.000Z</time>
      </trkpt>
      <trkpt lat="48.89269" lon="2.38848">
        <ele>52.799999237061</ele>
        <time>2016-07-04T18:41:30.000Z</time>
      </trkpt>
      <trkpt lat="48.89283" lon="2.38873">
        <ele>52.799999237061</ele>
        <time>2016-07-04T18:41:34.000Z</time>
      </trkpt>
      <trkpt lat="48.89296" lon="2.38899">
        <ele>52.799999237061</ele>
        <time>2016-07-04T18:41:37.000Z</time>
      </trkpt>
      <trkpt lat="48.89307" lon="2.38925">
        <ele>52.799999237061</ele>
        <time>2016-07-04T18:41:41.000Z</time>
      </trkpt>
      <trkpt lat="48.89319" lon="2.38949">
        <ele>53</ele>
        <time>2016-07-04T18:41:45.000Z</time>
      </trkpt>
      <trkpt lat="48.89331" lon="2.38971">
        <ele>53.400001525879</ele>
        <time>2016-07-04T18:41:49.000Z</time>
      </trkpt>
      <trkpt lat="48.89343" lon="2.38995">
        <ele>53.599998474121</ele>
        <time>2016-07-04T18:41:51.000Z</time>
      </trkpt>
      <trkpt lat="48.89355" lon="2.39019">
        <ele>53.599998474121</ele>
        <time>2016-07-04T18:41:54.000Z</time>
      </trkpt>
      <trkpt lat="48.89367" lon="2.39041">
        <ele>53.599998474121</ele>
        <time>2016-07-04T18:41:57.000Z</time>
      </trkpt>
      <trkpt lat="48.89379" lon="2.39063">
        <ele>53.400001525879</ele>
        <time>2016-07-04T18:42:00.000Z</time>
      </trkpt>
      <trkpt lat="48.89382" lon="2.39071">
        <ele>53.400001525879</ele>
        <time>2016-07-04T18:42:01.000Z</time>
      </trkpt>
      <trkpt lat="48.89393" lon="2.39094">
        <ele>53.599998474121</ele>
        <time>2016-07-04T18:42:04.000Z</time>
      </trkpt>
      <trkpt lat="48.89407" lon="2.39116">
        <ele>54</ele>
        <time>2016-07-04T18:42:07.000Z</time>
      </trkpt>
      <trkpt lat="48.89419" lon="2.39139">
        <ele>54.400001525879</ele>
        <time>2016-07-04T18:42:10.000Z</time>
      </trkpt>
      <trkpt lat="48.89431" lon="2.39162">
        <ele>54.799999237061</ele>
        <time>2016-07-04T18:42:13.000Z</time>
      </trkpt>
      <trkpt lat="48.89443" lon="2.39191">
        <ele>54</ele>
        <time>2016-07-04T18:42:17.000Z</time>
      </trkpt>
      <trkpt lat="48.89456" lon="2.3922">
        <ele>53</ele>
        <time>2016-07-04T18:42:21.000Z</time>
      </trkpt>
      <trkpt lat="48.8947" lon="2.39248">
        <ele>52</ele>
        <time>2016-07-04T18:42:25.000Z</time>
      </trkpt>
      <trkpt lat="48.89484" lon="2.39273">
        <ele>51.799999237061</ele>
        <time>2016-07-04T18:42:30.000Z</time>
      </trkpt>
      <trkpt lat="48.89487" lon="2.39277">
        <ele>51.599998474121</ele>
        <time>2016-07-04T18:42:33.000Z</time>
      </trkpt>
      <trkpt lat="48.89484" lon="2.39271">
        <ele>51.799999237061</ele>
        <time>2016-07-04T18:42:44.000Z</time>
      </trkpt>
      <trkpt lat="48.89472" lon="2.39245">
        <ele>52.200000762939</ele>
        <time>2016-07-04T18:42:59.000Z</time>
      </trkpt>
      <trkpt lat="48.89461" lon="2.39223">
        <ele>52.799999237061</ele>
        <time>2016-07-04T18:43:03.000Z</time>
      </trkpt>
      <trkpt lat="48.89448" lon="2.39198">
        <ele>53.799999237061</ele>
        <time>2016-07-04T18:43:08.000Z</time>
      </trkpt>
      <trkpt lat="48.89437" lon="2.39174">
        <ele>54.599998474121</ele>
        <time>2016-07-04T18:43:14.000Z</time>
      </trkpt>
      <trkpt lat="48.89433" lon="2.3917">
        <ele>54.599998474121</ele>
        <time>2016-07-04T18:43:19.000Z</time>
      </trkpt>
      <trkpt lat="48.89438" lon="2.39186">
        <ele>54.200000762939</ele>
        <time>2016-07-04T18:44:14.000Z</time>
      </trkpt>
      <trkpt lat="48.89453" lon="2.39168">
        <ele>54.599998474121</ele>
        <time>2016-07-04T18:44:22.000Z</time>
      </trkpt>
      <trkpt lat="48.89471" lon="2.39154">
        <ele>54.200000762939</ele>
        <time>2016-07-04T18:44:29.000Z</time>
      </trkpt>
      <trkpt lat="48.89473" lon="2.39153">
        <ele>54</ele>
        <time>2016-07-04T18:44:31.000Z</time>
      </trkpt>
      <trkpt lat="48.89475" lon="2.39166">
        <ele>54.200000762939</ele>
        <time>2016-07-04T18:45:51.000Z</time>
      </trkpt>
      <trkpt lat="48.89486" lon="2.39191">
        <ele>53.599998474121</ele>
        <time>2016-07-04T18:46:07.000Z</time>
      </trkpt>
      <trkpt lat="48.89495" lon="2.39204">
        <ele>53.200000762939</ele>
        <time>2016-07-04T18:46:11.000Z</time>
      </trkpt>
      <trkpt lat="48.89513" lon="2.39212">
        <ele>52.599998474121</ele>
        <time>2016-07-04T18:46:18.000Z</time>
      </trkpt>
      <trkpt lat="48.89518" lon="2.39227">
        <ele>52.400001525879</ele>
        <time>2016-07-04T18:46:21.000Z</time>
      </trkpt>
      <trkpt lat="48.89529" lon="2.39253">
        <ele>51.799999237061</ele>
        <time>2016-07-04T18:46:27.000Z</time>
      </trkpt>
      <trkpt lat="48.89542" lon="2.39282">
        <ele>51.400001525879</ele>
        <time>2016-07-04T18:46:32.000Z</time>
      </trkpt>
      <trkpt lat="48.89553" lon="2.39306">
        <ele>51</ele>
        <time>2016-07-04T18:46:36.000Z</time>
      </trkpt>
      <trkpt lat="48.89564" lon="2.39331">
        <ele>50.599998474121</ele>
        <time>2016-07-04T18:46:40.000Z</time>
      </trkpt>
      <trkpt lat="48.89573" lon="2.39356">
        <ele>50.599998474121</ele>
        <time>2016-07-04T18:46:45.000Z</time>
      </trkpt>
      <trkpt lat="48.89567" lon="2.39363">
        <ele>50.799999237061</ele>
        <time>2016-07-04T18:46:48.000Z</time>
      </trkpt>
      <trkpt lat="48.89549" lon="2.39366">
        <ele>51</ele>
        <time>2016-07-04T18:46:54.000Z</time>
      </trkpt>
      <trkpt lat="48.89554" lon="2.39384">
        <ele>51</ele>
        <time>2016-07-04T18:46:58.000Z</time>
      </trkpt>
      <trkpt lat="48.89563" lon="2.39409">
        <ele>51</ele>
        <time>2016-07-04T18:47:02.000Z</time>
      </trkpt>
      <trkpt lat="48.89576" lon="2.39428">
        <ele>51.400001525879</ele>
        <time>2016-07-04T18:47:07.000Z</time>
      </trkpt>
      <trkpt lat="48.89588" lon="2.39452">
        <ele>51.799999237061</ele>
        <time>2016-07-04T18:47:12.000Z</time>
      </trkpt>
      <trkpt lat="48.896" lon="2.3948">
        <ele>52.599998474121</ele>
        <time>2016-07-04T18:47:16.000Z</time>
      </trkpt>
      <trkpt lat="48.89607" lon="2.39509">
        <ele>52.799999237061</ele>
        <time>2016-07-04T18:47:20.000Z</time>
      </trkpt>
      <trkpt lat="48.89612" lon="2.39537">
        <ele>52.599998474121</ele>
        <time>2016-07-04T18:47:24.000Z</time>
      </trkpt>
      <trkpt lat="48.89615" lon="2.39566">
        <ele>52.400001525879</ele>
        <time>2016-07-04T18:47:28.000Z</time>
      </trkpt>
      <trkpt lat="48.89618" lon="2.39587">
        <ele>52.200000762939</ele>
        <time>2016-07-04T18:47:31.000Z</time>
      </trkpt>
      <trkpt lat="48.89623" lon="2.39618">
        <ele>51.799999237061</ele>
        <time>2016-07-04T18:47:35.000Z</time>
      </trkpt>
      <trkpt lat="48.89627" lon="2.39638">
        <ele>51.599998474121</ele>
        <time>2016-07-04T18:47:38.000Z</time>
      </trkpt>
      <trkpt lat="48.89627" lon="2.39669">
        <ele>51.400001525879</ele>
        <time>2016-07-04T18:47:43.000Z</time>
      </trkpt>
      <trkpt lat="48.89629" lon="2.39697">
        <ele>52.799999237061</ele>
        <time>2016-07-04T18:47:47.000Z</time>
      </trkpt>
      <trkpt lat="48.89629" lon="2.39711">
        <ele>53</ele>
        <time>2016-07-04T18:47:49.000Z</time>
      </trkpt>
      <trkpt lat="48.89635" lon="2.39744">
        <ele>53.599998474121</ele>
        <time>2016-07-04T18:47:54.000Z</time>
      </trkpt>
      <trkpt lat="48.89637" lon="2.39765">
        <ele>53.400001525879</ele>
        <time>2016-07-04T18:47:57.000Z</time>
      </trkpt>
      <trkpt lat="48.89638" lon="2.39791">
        <ele>53.200000762939</ele>
        <time>2016-07-04T18:48:01.000Z</time>
      </trkpt>
      <trkpt lat="48.89638" lon="2.39814">
        <ele>53.599998474121</ele>
        <time>2016-07-04T18:48:04.000Z</time>
      </trkpt>
      <trkpt lat="48.89637" lon="2.39845">
        <ele>53.799999237061</ele>
        <time>2016-07-04T18:48:08.000Z</time>
      </trkpt>
      <trkpt lat="48.89638" lon="2.39876">
        <ele>54</ele>
        <time>2016-07-04T18:48:12.000Z</time>
      </trkpt>
      <trkpt lat="48.89638" lon="2.39902">
        <ele>54.200000762939</ele>
        <time>2016-07-04T18:48:15.000Z</time>
      </trkpt>
      <trkpt lat="48.89632" lon="2.39935">
        <ele>54.599998474121</ele>
        <time>2016-07-04T18:48:19.000Z</time>
      </trkpt>
      <trkpt lat="48.8963" lon="2.39942">
        <ele>54.799999237061</ele>
        <time>2016-07-04T18:48:20.000Z</time>
      </trkpt>
      <trkpt lat="48.89626" lon="2.39971">
        <ele>55.799999237061</ele>
        <time>2016-07-04T18:48:24.000Z</time>
      </trkpt>
      <trkpt lat="48.8962" lon="2.39994">
        <ele>56.599998474121</ele>
        <time>2016-07-04T18:48:28.000Z</time>
      </trkpt>
      <trkpt lat="48.89617" lon="2.40007">
        <ele>57</ele>
        <time>2016-07-04T18:48:30.000Z</time>
      </trkpt>
      <trkpt lat="48.89612" lon="2.4004">
        <ele>56.200000762939</ele>
        <time>2016-07-04T18:48:35.000Z</time>
      </trkpt>
      <trkpt lat="48.89607" lon="2.40067">
        <ele>55.400001525879</ele>
        <time>2016-07-04T18:48:39.000Z</time>
      </trkpt>
      <trkpt lat="48.89606" lon="2.40079">
        <ele>55</ele>
        <time>2016-07-04T18:48:41.000Z</time>
      </trkpt>
      <trkpt lat="48.89603" lon="2.40094">
        <ele>55.200000762939</ele>
        <time>2016-07-04T18:48:44.000Z</time>
      </trkpt>
      <trkpt lat="48.89596" lon="2.40129">
        <ele>56</ele>
        <time>2016-07-04T18:48:51.000Z</time>
      </trkpt>
      <trkpt lat="48.89594" lon="2.40157">
        <ele>56.400001525879</ele>
        <time>2016-07-04T18:48:55.000Z</time>
      </trkpt>
      <trkpt lat="48.89592" lon="2.40187">
        <ele>57.400001525879</ele>
        <time>2016-07-04T18:48:59.000Z</time>
      </trkpt>
      <trkpt lat="48.89593" lon="2.402">
        <ele>58</ele>
        <time>2016-07-04T18:49:01.000Z</time>
      </trkpt>
      <trkpt lat="48.89594" lon="2.40231">
        <ele>59</ele>
        <time>2016-07-04T18:49:06.000Z</time>
      </trkpt>
      <trkpt lat="48.89596" lon="2.40263">
        <ele>58.799999237061</ele>
        <time>2016-07-04T18:49:10.000Z</time>
      </trkpt>
      <trkpt lat="48.89595" lon="2.40291">
        <ele>58.400001525879</ele>
        <time>2016-07-04T18:49:14.000Z</time>
      </trkpt>
      <trkpt lat="48.89592" lon="2.40324">
        <ele>58.200000762939</ele>
        <time>2016-07-04T18:49:19.000Z</time>
      </trkpt>
      <trkpt lat="48.89588" lon="2.4035">
        <ele>58.599998474121</ele>
        <time>2016-07-04T18:49:23.000Z</time>
      </trkpt>
      <trkpt lat="48.89584" lon="2.4038">
        <ele>59.400001525879</ele>
        <time>2016-07-04T18:49:27.000Z</time>
      </trkpt>
      <trkpt lat="48.89581" lon="2.40411">
        <ele>58.599998474121</ele>
        <time>2016-07-04T18:49:31.000Z</time>
      </trkpt>
      <trkpt lat="48.89576" lon="2.40443">
        <ele>58.599998474121</ele>
        <time>2016-07-04T18:49:35.000Z</time>
      </trkpt>
      <trkpt lat="48.89572" lon="2.40478">
        <ele>58.400001525879</ele>
        <time>2016-07-04T18:49:39.000Z</time>
      </trkpt>
      <trkpt lat="48.89569" lon="2.40513">
        <ele>57.400001525879</ele>
        <time>2016-07-04T18:49:43.000Z</time>
      </trkpt>
      <trkpt lat="48.89568" lon="2.4053">
        <ele>56.400001525879</ele>
        <time>2016-07-04T18:49:45.000Z</time>
      </trkpt>
      <trkpt lat="48.89565" lon="2.40555">
        <ele>55.599998474121</ele>
        <time>2016-07-04T18:49:48.000Z</time>
      </trkpt>
      <trkpt lat="48.89561" lon="2.40588">
        <ele>56.200000762939</ele>
        <time>2016-07-04T18:49:52.000Z</time>
      </trkpt>
      <trkpt lat="48.89558" lon="2.40618">
        <ele>56.799999237061</ele>
        <time>2016-07-04T18:49:56.000Z</time>
      </trkpt>
      <trkpt lat="48.89556" lon="2.40645">
        <ele>56.799999237061</ele>
        <time>2016-07-04T18:50:01.000Z</time>
      </trkpt>
      <trkpt lat="48.89554" lon="2.40653">
        <ele>56.799999237061</ele>
        <time>2016-07-04T18:50:03.000Z</time>
      </trkpt>
      <trkpt lat="48.89551" lon="2.40683">
        <ele>56.799999237061</ele>
        <time>2016-07-04T18:50:10.000Z</time>
      </trkpt>
      <trkpt lat="48.89551" lon="2.40686">
        <ele>57</ele>
        <time>2016-07-04T18:50:11.000Z</time>
      </trkpt>
      <trkpt lat="48.89551" lon="2.40689">
        <ele>57</ele>
        <time>2016-07-04T18:50:12.000Z</time>
      </trkpt>
      <trkpt lat="48.89551" lon="2.40698">
        <ele>57</ele>
        <time>2016-07-04T18:50:17.000Z</time>
      </trkpt>
      <trkpt lat="48.89551" lon="2.40699">
        <ele>57</ele>
        <time>2016-07-04T18:50:18.000Z</time>
      </trkpt>
      <trkpt lat="48.89552" lon="2.40713">
        <ele>57</ele>
        <time>2016-07-04T18:51:44.000Z</time>
      </trkpt>
      <trkpt lat="48.89547" lon="2.40742">
        <ele>56.799999237061</ele>
        <time>2016-07-04T18:51:53.000Z</time>
      </trkpt>
      <trkpt lat="48.89544" lon="2.40774">
        <ele>56.599998474121</ele>
        <time>2016-07-04T18:51:59.000Z</time>
      </trkpt>
      <trkpt lat="48.8954" lon="2.40804">
        <ele>55.799999237061</ele>
        <time>2016-07-04T18:52:04.000Z</time>
      </trkpt>
      <trkpt lat="48.89538" lon="2.40832">
        <ele>55</ele>
        <time>2016-07-04T18:52:08.000Z</time>
      </trkpt>
      <trkpt lat="48.89535" lon="2.40862">
        <ele>54.799999237061</ele>
        <time>2016-07-04T18:52:12.000Z</time>
      </trkpt>
      <trkpt lat="48.89532" lon="2.40892">
        <ele>55.400001525879</ele>
        <time>2016-07-04T18:52:16.000Z</time>
      </trkpt>
      <trkpt lat="48.89529" lon="2.40921">
        <ele>55.799999237061</ele>
        <time>2016-07-04T18:52:20.000Z</time>
      </trkpt>
      <trkpt lat="48.89527" lon="2.40948">
        <ele>56</ele>
        <time>2016-07-04T18:52:24.000Z</time>
      </trkpt>
      <trkpt lat="48.89527" lon="2.40954">
        <ele>56</ele>
        <time>2016-07-04T18:52:25.000Z</time>
      </trkpt>
      <trkpt lat="48.89525" lon="2.40979">
        <ele>56</ele>
        <time>2016-07-04T18:52:29.000Z</time>
      </trkpt>
      <trkpt lat="48.89526" lon="2.4101">
        <ele>55.799999237061</ele>
        <time>2016-07-04T18:52:33.000Z</time>
      </trkpt>
      <trkpt lat="48.89524" lon="2.41044">
        <ele>55.400001525879</ele>
        <time>2016-07-04T18:52:37.000Z</time>
      </trkpt>
      <trkpt lat="48.89521" lon="2.4108">
        <ele>55.200000762939</ele>
        <time>2016-07-04T18:52:41.000Z</time>
      </trkpt>
      <trkpt lat="48.89516" lon="2.41112">
        <ele>55.400001525879</ele>
        <time>2016-07-04T18:52:45.000Z</time>
      </trkpt>
      <trkpt lat="48.89512" lon="2.41146">
        <ele>55.599998474121</ele>
        <time>2016-07-04T18:52:49.000Z</time>
      </trkpt>
      <trkpt lat="48.8951" lon="2.41164">
        <ele>55.799999237061</ele>
        <time>2016-07-04T18:52:51.000Z</time>
      </trkpt>
      <trkpt lat="48.89508" lon="2.41201">
        <ele>55.400001525879</ele>
        <time>2016-07-04T18:52:55.000Z</time>
      </trkpt>
      <trkpt lat="48.8951" lon="2.41219">
        <ele>55.200000762939</ele>
        <time>2016-07-04T18:52:57.000Z</time>
      </trkpt>
      <trkpt lat="48.89511" lon="2.41248">
        <ele>54.599998474121</ele>
        <time>2016-07-04T18:53:00.000Z</time>
      </trkpt>
      <trkpt lat="48.89513" lon="2.41277">
        <ele>54.400001525879</ele>
        <time>2016-07-04T18:53:03.000Z</time>
      </trkpt>
      <trkpt lat="48.89516" lon="2.41305">
        <ele>54.400001525879</ele>
        <time>2016-07-04T18:53:06.000Z</time>
      </trkpt>
      <trkpt lat="48.89518" lon="2.41341">
        <ele>53.799999237061</ele>
        <time>2016-07-04T18:53:10.000Z</time>
      </trkpt>
      <trkpt lat="48.8952" lon="2.41368">
        <ele>52.799999237061</ele>
        <time>2016-07-04T18:53:13.000Z</time>
      </trkpt>
      <trkpt lat="48.89524" lon="2.41396">
        <ele>51.599998474121</ele>
        <time>2016-07-04T18:53:16.000Z</time>
      </trkpt>
      <trkpt lat="48.89529" lon="2.41427">
        <ele>51.400001525879</ele>
        <time>2016-07-04T18:53:19.000Z</time>
      </trkpt>
      <trkpt lat="48.89533" lon="2.41455">
        <ele>52.400001525879</ele>
        <time>2016-07-04T18:53:22.000Z</time>
      </trkpt>
      <trkpt lat="48.89534" lon="2.41463">
        <ele>52.599998474121</ele>
        <time>2016-07-04T18:53:23.000Z</time>
      </trkpt>
      <trkpt lat="48.89537" lon="2.4148">
        <ele>53.200000762939</ele>
        <time>2016-07-04T18:53:25.000Z</time>
      </trkpt>
      <trkpt lat="48.89541" lon="2.41494">
        <ele>53.599998474121</ele>
        <time>2016-07-04T18:53:27.000Z</time>
      </trkpt>
      <trkpt lat="48.89558" lon="2.41502">
        <ele>53.599998474121</ele>
        <time>2016-07-04T18:53:31.000Z</time>
      </trkpt>
      <trkpt lat="48.89563" lon="2.41503">
        <ele>53.599998474121</ele>
        <time>2016-07-04T18:53:32.000Z</time>
      </trkpt>
      <trkpt lat="48.89584" lon="2.41505">
        <ele>53.400001525879</ele>
        <time>2016-07-04T18:53:36.000Z</time>
      </trkpt>
      <trkpt lat="48.89606" lon="2.41508">
        <ele>53.200000762939</ele>
        <time>2016-07-04T18:53:40.000Z</time>
      </trkpt>
      <trkpt lat="48.89627" lon="2.41512">
        <ele>51.799999237061</ele>
        <time>2016-07-04T18:53:44.000Z</time>
      </trkpt>
      <trkpt lat="48.89639" lon="2.41514">
        <ele>51.200000762939</ele>
        <time>2016-07-04T18:53:47.000Z</time>
      </trkpt>
      <trkpt lat="48.89646" lon="2.4154">
        <ele>50.799999237061</ele>
        <time>2016-07-04T18:53:54.000Z</time>
      </trkpt>
      <trkpt lat="48.89648" lon="2.41572">
        <ele>51.400001525879</ele>
        <time>2016-07-04T18:54:00.000Z</time>
      </trkpt>
      <trkpt lat="48.89652" lon="2.41607">
        <ele>51.400001525879</ele>
        <time>2016-07-04T18:54:05.000Z</time>
      </trkpt>
      <trkpt lat="48.89654" lon="2.41635">
        <ele>51.599998474121</ele>
        <time>2016-07-04T18:54:09.000Z</time>
      </trkpt>
      <trkpt lat="48.89657" lon="2.41664">
        <ele>51.799999237061</ele>
        <time>2016-07-04T18:54:13.000Z</time>
      </trkpt>
      <trkpt lat="48.89657" lon="2.41697">
        <ele>51.799999237061</ele>
        <time>2016-07-04T18:54:17.000Z</time>
      </trkpt>
      <trkpt lat="48.89659" lon="2.41729">
        <ele>51.599998474121</ele>
        <time>2016-07-04T18:54:21.000Z</time>
      </trkpt>
      <trkpt lat="48.89661" lon="2.4176">
        <ele>51.400001525879</ele>
        <time>2016-07-04T18:54:25.000Z</time>
      </trkpt>
      <trkpt lat="48.89663" lon="2.4179">
        <ele>50.799999237061</ele>
        <time>2016-07-04T18:54:29.000Z</time>
      </trkpt>
      <trkpt lat="48.89666" lon="2.4181">
        <ele>50.200000762939</ele>
        <time>2016-07-04T18:54:32.000Z</time>
      </trkpt>
      <trkpt lat="48.89668" lon="2.4184">
        <ele>49.599998474121</ele>
        <time>2016-07-04T18:54:36.000Z</time>
      </trkpt>
      <trkpt lat="48.89667" lon="2.41875">
        <ele>49.599998474121</ele>
        <time>2016-07-04T18:54:40.000Z</time>
      </trkpt>
      <trkpt lat="48.89667" lon="2.41912">
        <ele>49.200000762939</ele>
        <time>2016-07-04T18:54:44.000Z</time>
      </trkpt>
      <trkpt lat="48.89667" lon="2.41941">
        <ele>49</ele>
        <time>2016-07-04T18:54:47.000Z</time>
      </trkpt>
      <trkpt lat="48.89668" lon="2.41971">
        <ele>49</ele>
        <time>2016-07-04T18:54:50.000Z</time>
      </trkpt>
      <trkpt lat="48.89669" lon="2.42003">
        <ele>49</ele>
        <time>2016-07-04T18:54:53.000Z</time>
      </trkpt>
      <trkpt lat="48.89669" lon="2.42038">
        <ele>49</ele>
        <time>2016-07-04T18:54:56.000Z</time>
      </trkpt>
      <trkpt lat="48.89668" lon="2.42073">
        <ele>49</ele>
        <time>2016-07-04T18:54:59.000Z</time>
      </trkpt>
      <trkpt lat="48.89669" lon="2.42107">
        <ele>49</ele>
        <time>2016-07-04T18:55:02.000Z</time>
      </trkpt>
      <trkpt lat="48.89669" lon="2.42142">
        <ele>49</ele>
        <time>2016-07-04T18:55:05.000Z</time>
      </trkpt>
      <trkpt lat="48.89672" lon="2.42175">
        <ele>48.799999237061</ele>
        <time>2016-07-04T18:55:08.000Z</time>
      </trkpt>
      <trkpt lat="48.89673" lon="2.4221">
        <ele>48.799999237061</ele>
        <time>2016-07-04T18:55:11.000Z</time>
      </trkpt>
      <trkpt lat="48.89674" lon="2.42242">
        <ele>48.799999237061</ele>
        <time>2016-07-04T18:55:14.000Z</time>
      </trkpt>
      <trkpt lat="48.89673" lon="2.42253">
        <ele>48.799999237061</ele>
        <time>2016-07-04T18:55:15.000Z</time>
      </trkpt>
      <trkpt lat="48.89673" lon="2.42286">
        <ele>49.799999237061</ele>
        <time>2016-07-04T18:55:18.000Z</time>
      </trkpt>
      <trkpt lat="48.89673" lon="2.42321">
        <ele>50.400001525879</ele>
        <time>2016-07-04T18:55:21.000Z</time>
      </trkpt>
      <trkpt lat="48.89673" lon="2.42356">
        <ele>50.200000762939</ele>
        <time>2016-07-04T18:55:24.000Z</time>
      </trkpt>
      <trkpt lat="48.89674" lon="2.42391">
        <ele>49.599998474121</ele>
        <time>2016-07-04T18:55:27.000Z</time>
      </trkpt>
      <trkpt lat="48.89677" lon="2.42425">
        <ele>49.799999237061</ele>
        <time>2016-07-04T18:55:30.000Z</time>
      </trkpt>
      <trkpt lat="48.89676" lon="2.42458">
        <ele>50.599998474121</ele>
        <time>2016-07-04T18:55:33.000Z</time>
      </trkpt>
      <trkpt lat="48.89675" lon="2.4249">
        <ele>51.200000762939</ele>
        <time>2016-07-04T18:55:36.000Z</time>
      </trkpt>
      <trkpt lat="48.89676" lon="2.42508">
        <ele>51.200000762939</ele>
        <time>2016-07-04T18:55:38.000Z</time>
      </trkpt>
      <trkpt lat="48.89672" lon="2.42537">
        <ele>51.599998474121</ele>
        <time>2016-07-04T18:55:43.000Z</time>
      </trkpt>
      <trkpt lat="48.89661" lon="2.42548">
        <ele>52</ele>
        <time>2016-07-04T18:55:49.000Z</time>
      </trkpt>
      <trkpt lat="48.8966" lon="2.42549">
        <ele>52</ele>
        <time>2016-07-04T18:55:50.000Z</time>
      </trkpt>
      <trkpt lat="48.89659" lon="2.42549">
        <ele>52</ele>
        <time>2016-07-04T18:55:52.000Z</time>
      </trkpt>
      <trkpt lat="48.89658" lon="2.42547">
        <ele>52</ele>
        <time>2016-07-04T18:55:54.000Z</time>
      </trkpt>
      <trkpt lat="48.89655" lon="2.42543">
        <ele>52</ele>
        <time>2016-07-04T18:57:59.000Z</time>
      </trkpt>
      <trkpt lat="48.89663" lon="2.42523">
        <ele>51.599998474121</ele>
        <time>2016-07-04T18:58:30.000Z</time>
      </trkpt>
      <trkpt lat="48.89662" lon="2.42521">
        <ele>51.599998474121</ele>
        <time>2016-07-04T18:58:31.000Z</time>
      </trkpt>
      <trkpt lat="48.89663" lon="2.42503">
        <ele>51.400001525879</ele>
        <time>2016-07-04T18:58:38.000Z</time>
      </trkpt>
      <trkpt lat="48.89665" lon="2.42476">
        <ele>51.400001525879</ele>
        <time>2016-07-04T18:58:47.000Z</time>
      </trkpt>
      <trkpt lat="48.89665" lon="2.4246">
        <ele>51</ele>
        <time>2016-07-04T18:58:56.000Z</time>
      </trkpt>
      <trkpt lat="48.89664" lon="2.4249">
        <ele>51.400001525879</ele>
        <time>2016-07-04T18:59:07.000Z</time>
      </trkpt>
      <trkpt lat="48.89662" lon="2.42519">
        <ele>51.599998474121</ele>
        <time>2016-07-04T18:59:14.000Z</time>
      </trkpt>
      <trkpt lat="48.89657" lon="2.42546">
        <ele>52</ele>
        <time>2016-07-04T18:59:22.000Z</time>
      </trkpt>
      <trkpt lat="48.8966" lon="2.42573">
        <ele>52.200000762939</ele>
        <time>2016-07-04T18:59:30.000Z</time>
      </trkpt>
      <trkpt lat="48.89662" lon="2.42602">
        <ele>52.599998474121</ele>
        <time>2016-07-04T18:59:37.000Z</time>
      </trkpt>
      <trkpt lat="48.89664" lon="2.4263">
        <ele>52.799999237061</ele>
        <time>2016-07-04T18:59:44.000Z</time>
      </trkpt>
      <trkpt lat="48.89668" lon="2.42661">
        <ele>53.400001525879</ele>
        <time>2016-07-04T18:59:52.000Z</time>
      </trkpt>
      <trkpt lat="48.89671" lon="2.42692">
        <ele>53.400001525879</ele>
        <time>2016-07-04T18:59:58.000Z</time>
      </trkpt>
      <trkpt lat="48.89676" lon="2.42722">
        <ele>53.400001525879</ele>
        <time>2016-07-04T19:00:03.000Z</time>
      </trkpt>
      <trkpt lat="48.89682" lon="2.42748">
        <ele>53.200000762939</ele>
        <time>2016-07-04T19:00:07.000Z</time>
      </trkpt>
      <trkpt lat="48.89684" lon="2.42779">
        <ele>52.799999237061</ele>
        <time>2016-07-04T19:00:11.000Z</time>
      </trkpt>
      <trkpt lat="48.89687" lon="2.4281">
        <ele>52.400001525879</ele>
        <time>2016-07-04T19:00:15.000Z</time>
      </trkpt>
      <trkpt lat="48.89693" lon="2.42841">
        <ele>51.799999237061</ele>
        <time>2016-07-04T19:00:19.000Z</time>
      </trkpt>
      <trkpt lat="48.89698" lon="2.42873">
        <ele>51.599998474121</ele>
        <time>2016-07-04T19:00:23.000Z</time>
      </trkpt>
      <trkpt lat="48.89705" lon="2.42907">
        <ele>51.200000762939</ele>
        <time>2016-07-04T19:00:27.000Z</time>
      </trkpt>
      <trkpt lat="48.89711" lon="2.42935">
        <ele>51.400001525879</ele>
        <time>2016-07-04T19:00:30.000Z</time>
      </trkpt>
      <trkpt lat="48.89717" lon="2.42966">
        <ele>52.799999237061</ele>
        <time>2016-07-04T19:00:33.000Z</time>
      </trkpt>
      <trkpt lat="48.89723" lon="2.42998">
        <ele>54.200000762939</ele>
        <time>2016-07-04T19:00:36.000Z</time>
      </trkpt>
      <trkpt lat="48.8973" lon="2.4303">
        <ele>54.400001525879</ele>
        <time>2016-07-04T19:00:39.000Z</time>
      </trkpt>
      <trkpt lat="48.89738" lon="2.43065">
        <ele>54.799999237061</ele>
        <time>2016-07-04T19:00:42.000Z</time>
      </trkpt>
      <trkpt lat="48.89744" lon="2.4309">
        <ele>55.200000762939</ele>
        <time>2016-07-04T19:00:44.000Z</time>
      </trkpt>
      <trkpt lat="48.89751" lon="2.43125">
        <ele>55.400001525879</ele>
        <time>2016-07-04T19:00:47.000Z</time>
      </trkpt>
      <trkpt lat="48.89758" lon="2.43162">
        <ele>55.400001525879</ele>
        <time>2016-07-04T19:00:50.000Z</time>
      </trkpt>
      <trkpt lat="48.89765" lon="2.43197">
        <ele>54.799999237061</ele>
        <time>2016-07-04T19:00:53.000Z</time>
      </trkpt>
      <trkpt lat="48.89773" lon="2.43232">
        <ele>54.200000762939</ele>
        <time>2016-07-04T19:00:56.000Z</time>
      </trkpt>
      <trkpt lat="48.89779" lon="2.43267">
        <ele>54.400001525879</ele>
        <time>2016-07-04T19:00:59.000Z</time>
      </trkpt>
      <trkpt lat="48.89787" lon="2.43303">
        <ele>55.200000762939</ele>
        <time>2016-07-04T19:01:02.000Z</time>
      </trkpt>
      <trkpt lat="48.89794" lon="2.43338">
        <ele>55.799999237061</ele>
        <time>2016-07-04T19:01:05.000Z</time>
      </trkpt>
      <trkpt lat="48.89801" lon="2.43373">
        <ele>55.599998474121</ele>
        <time>2016-07-04T19:01:08.000Z</time>
      </trkpt>
      <trkpt lat="48.89808" lon="2.43407">
        <ele>55.599998474121</ele>
        <time>2016-07-04T19:01:11.000Z</time>
      </trkpt>
      <trkpt lat="48.89811" lon="2.4343">
        <ele>55.400001525879</ele>
        <time>2016-07-04T19:01:13.000Z</time>
      </trkpt>
      <trkpt lat="48.89813" lon="2.43462">
        <ele>55.200000762939</ele>
        <time>2016-07-04T19:01:16.000Z</time>
      </trkpt>
      <trkpt lat="48.89814" lon="2.43471">
        <ele>55.200000762939</ele>
        <time>2016-07-04T19:01:17.000Z</time>
      </trkpt>
      <trkpt lat="48.89821" lon="2.43505">
        <ele>55.400001525879</ele>
        <time>2016-07-04T19:01:21.000Z</time>
      </trkpt>
      <trkpt lat="48.89827" lon="2.43531">
        <ele>55.400001525879</ele>
        <time>2016-07-04T19:01:24.000Z</time>
      </trkpt>
      <trkpt lat="48.89836" lon="2.43562">
        <ele>55.400001525879</ele>
        <time>2016-07-04T19:01:28.000Z</time>
      </trkpt>
      <trkpt lat="48.89836" lon="2.43579">
        <ele>55.200000762939</ele>
        <time>2016-07-04T19:01:30.000Z</time>
      </trkpt>
      <trkpt lat="48.89846" lon="2.43608">
        <ele>55.200000762939</ele>
        <time>2016-07-04T19:01:34.000Z</time>
      </trkpt>
      <trkpt lat="48.89848" lon="2.43618">
        <ele>55.200000762939</ele>
        <time>2016-07-04T19:01:35.000Z</time>
      </trkpt>
      <trkpt lat="48.89853" lon="2.43652">
        <ele>55</ele>
        <time>2016-07-04T19:01:39.000Z</time>
      </trkpt>
      <trkpt lat="48.89857" lon="2.4368">
        <ele>55.200000762939</ele>
        <time>2016-07-04T19:01:42.000Z</time>
      </trkpt>
      <trkpt lat="48.89866" lon="2.43712">
        <ele>55.400001525879</ele>
        <time>2016-07-04T19:01:46.000Z</time>
      </trkpt>
      <trkpt lat="48.89868" lon="2.43721">
        <ele>55.599998474121</ele>
        <time>2016-07-04T19:01:47.000Z</time>
      </trkpt>
      <trkpt lat="48.89873" lon="2.43749">
        <ele>55.799999237061</ele>
        <time>2016-07-04T19:01:50.000Z</time>
      </trkpt>
      <trkpt lat="48.89878" lon="2.43779">
        <ele>55.400001525879</ele>
        <time>2016-07-04T19:01:53.000Z</time>
      </trkpt>
      <trkpt lat="48.89885" lon="2.4381">
        <ele>55</ele>
        <time>2016-07-04T19:01:56.000Z</time>
      </trkpt>
      <trkpt lat="48.89891" lon="2.43843">
        <ele>54.599998474121</ele>
        <time>2016-07-04T19:01:59.000Z</time>
      </trkpt>
      <trkpt lat="48.89897" lon="2.43877">
        <ele>54.599998474121</ele>
        <time>2016-07-04T19:02:02.000Z</time>
      </trkpt>
      <trkpt lat="48.89903" lon="2.43912">
        <ele>55.200000762939</ele>
        <time>2016-07-04T19:02:05.000Z</time>
      </trkpt>
      <trkpt lat="48.8991" lon="2.43944">
        <ele>55.799999237061</ele>
        <time>2016-07-04T19:02:08.000Z</time>
      </trkpt>
      <trkpt lat="48.89916" lon="2.43978">
        <ele>56.400001525879</ele>
        <time>2016-07-04T19:02:11.000Z</time>
      </trkpt>
      <trkpt lat="48.89924" lon="2.44012">
        <ele>56.599998474121</ele>
        <time>2016-07-04T19:02:14.000Z</time>
      </trkpt>
      <trkpt lat="48.89931" lon="2.44047">
        <ele>56.400001525879</ele>
        <time>2016-07-04T19:02:17.000Z</time>
      </trkpt>
      <trkpt lat="48.89938" lon="2.44082">
        <ele>56</ele>
        <time>2016-07-04T19:02:20.000Z</time>
      </trkpt>
      <trkpt lat="48.89944" lon="2.44117">
        <ele>56</ele>
        <time>2016-07-04T19:02:23.000Z</time>
      </trkpt>
      <trkpt lat="48.89951" lon="2.4415">
        <ele>55.799999237061</ele>
        <time>2016-07-04T19:02:26.000Z</time>
      </trkpt>
      <trkpt lat="48.89955" lon="2.44183">
        <ele>55.400001525879</ele>
        <time>2016-07-04T19:02:29.000Z</time>
      </trkpt>
      <trkpt lat="48.89958" lon="2.44194">
        <ele>55.200000762939</ele>
        <time>2016-07-04T19:02:30.000Z</time>
      </trkpt>
      <trkpt lat="48.89965" lon="2.44226">
        <ele>54.200000762939</ele>
        <time>2016-07-04T19:02:33.000Z</time>
      </trkpt>
      <trkpt lat="48.89973" lon="2.44256">
        <ele>53.599998474121</ele>
        <time>2016-07-04T19:02:36.000Z</time>
      </trkpt>
      <trkpt lat="48.89976" lon="2.44265">
        <ele>53.599998474121</ele>
        <time>2016-07-04T19:02:37.000Z</time>
      </trkpt>
      <trkpt lat="48.89983" lon="2.44295">
        <ele>53.400001525879</ele>
        <time>2016-07-04T19:02:40.000Z</time>
      </trkpt>
      <trkpt lat="48.89987" lon="2.44316">
        <ele>53.400001525879</ele>
        <time>2016-07-04T19:02:42.000Z</time>
      </trkpt>
      <trkpt lat="48.89993" lon="2.44345">
        <ele>53.400001525879</ele>
        <time>2016-07-04T19:02:45.000Z</time>
      </trkpt>
      <trkpt lat="48.89999" lon="2.44379">
        <ele>53.200000762939</ele>
        <time>2016-07-04T19:02:49.000Z</time>
      </trkpt>
      <trkpt lat="48.90007" lon="2.44413">
        <ele>53</ele>
        <time>2016-07-04T19:02:53.000Z</time>
      </trkpt>
      <trkpt lat="48.90012" lon="2.4444">
        <ele>53</ele>
        <time>2016-07-04T19:02:56.000Z</time>
      </trkpt>
      <trkpt lat="48.90018" lon="2.4447">
        <ele>53</ele>
        <time>2016-07-04T19:02:59.000Z</time>
      </trkpt>
      <trkpt lat="48.90023" lon="2.44498">
        <ele>53</ele>
        <time>2016-07-04T19:03:02.000Z</time>
      </trkpt>
      <trkpt lat="48.9003" lon="2.44528">
        <ele>52.200000762939</ele>
        <time>2016-07-04T19:03:05.000Z</time>
      </trkpt>
      <trkpt lat="48.90038" lon="2.44558">
        <ele>51.400001525879</ele>
        <time>2016-07-04T19:03:08.000Z</time>
      </trkpt>
      <trkpt lat="48.90046" lon="2.44588">
        <ele>50.799999237061</ele>
        <time>2016-07-04T19:03:11.000Z</time>
      </trkpt>
      <trkpt lat="48.90052" lon="2.44607">
        <ele>51</ele>
        <time>2016-07-04T19:03:13.000Z</time>
      </trkpt>
      <trkpt lat="48.90062" lon="2.44635">
        <ele>50.799999237061</ele>
        <time>2016-07-04T19:03:16.000Z</time>
      </trkpt>
      <trkpt lat="48.90068" lon="2.44665">
        <ele>50.599998474121</ele>
        <time>2016-07-04T19:03:19.000Z</time>
      </trkpt>
      <trkpt lat="48.90074" lon="2.44696">
        <ele>50.200000762939</ele>
        <time>2016-07-04T19:03:22.000Z</time>
      </trkpt>
      <trkpt lat="48.9008" lon="2.44728">
        <ele>50</ele>
        <time>2016-07-04T19:03:25.000Z</time>
      </trkpt>
      <trkpt lat="48.90088" lon="2.4476">
        <ele>50.200000762939</ele>
        <time>2016-07-04T19:03:28.000Z</time>
      </trkpt>
      <trkpt lat="48.90094" lon="2.44793">
        <ele>49.599998474121</ele>
        <time>2016-07-04T19:03:31.000Z</time>
      </trkpt>
      <trkpt lat="48.90101" lon="2.44825">
        <ele>49.200000762939</ele>
        <time>2016-07-04T19:03:34.000Z</time>
      </trkpt>
      <trkpt lat="48.90109" lon="2.44858">
        <ele>49.599998474121</ele>
        <time>2016-07-04T19:03:37.000Z</time>
      </trkpt>
      <trkpt lat="48.90116" lon="2.44892">
        <ele>50.599998474121</ele>
        <time>2016-07-04T19:03:40.000Z</time>
      </trkpt>
      <trkpt lat="48.90122" lon="2.44925">
        <ele>51.599998474121</ele>
        <time>2016-07-04T19:03:43.000Z</time>
      </trkpt>
      <trkpt lat="48.90128" lon="2.44957">
        <ele>52</ele>
        <time>2016-07-04T19:03:46.000Z</time>
      </trkpt>
      <trkpt lat="48.90134" lon="2.4499">
        <ele>52.400001525879</ele>
        <time>2016-07-04T19:03:49.000Z</time>
      </trkpt>
      <trkpt lat="48.9014" lon="2.45022">
        <ele>51.799999237061</ele>
        <time>2016-07-04T19:03:52.000Z</time>
      </trkpt>
      <trkpt lat="48.90146" lon="2.45053">
        <ele>51.400001525879</ele>
        <time>2016-07-04T19:03:55.000Z</time>
      </trkpt>
      <trkpt lat="48.90152" lon="2.45084">
        <ele>51.599998474121</ele>
        <time>2016-07-04T19:03:58.000Z</time>
      </trkpt>
      <trkpt lat="48.90158" lon="2.45115">
        <ele>51.200000762939</ele>
        <time>2016-07-04T19:04:01.000Z</time>
      </trkpt>
      <trkpt lat="48.90163" lon="2.45145">
        <ele>51</ele>
        <time>2016-07-04T19:04:04.000Z</time>
      </trkpt>
      <trkpt lat="48.90169" lon="2.45174">
        <ele>51.200000762939</ele>
        <time>2016-07-04T19:04:07.000Z</time>
      </trkpt>
      <trkpt lat="48.90175" lon="2.45202">
        <ele>51.200000762939</ele>
        <time>2016-07-04T19:04:10.000Z</time>
      </trkpt>
      <trkpt lat="48.90181" lon="2.4523">
        <ele>51.200000762939</ele>
        <time>2016-07-04T19:04:13.000Z</time>
      </trkpt>
      <trkpt lat="48.90187" lon="2.45258">
        <ele>51</ele>
        <time>2016-07-04T19:04:16.000Z</time>
      </trkpt>
      <trkpt lat="48.90192" lon="2.45287">
        <ele>51</ele>
        <time>2016-07-04T19:04:19.000Z</time>
      </trkpt>
      <trkpt lat="48.90196" lon="2.45306">
        <ele>51.200000762939</ele>
        <time>2016-07-04T19:04:21.000Z</time>
      </trkpt>
      <trkpt lat="48.90202" lon="2.45335">
        <ele>51.200000762939</ele>
        <time>2016-07-04T19:04:24.000Z</time>
      </trkpt>
      <trkpt lat="48.90207" lon="2.45363">
        <ele>51.400001525879</ele>
        <time>2016-07-04T19:04:27.000Z</time>
      </trkpt>
      <trkpt lat="48.90212" lon="2.45391">
        <ele>51.599998474121</ele>
        <time>2016-07-04T19:04:30.000Z</time>
      </trkpt>
      <trkpt lat="48.90217" lon="2.45421">
        <ele>51.599998474121</ele>
        <time>2016-07-04T19:04:33.000Z</time>
      </trkpt>
      <trkpt lat="48.90222" lon="2.45453">
        <ele>51.799999237061</ele>
        <time>2016-07-04T19:04:36.000Z</time>
      </trkpt>
      <trkpt lat="48.90226" lon="2.45479">
        <ele>52.200000762939</ele>
        <time>2016-07-04T19:04:39.000Z</time>
      </trkpt>
      <trkpt lat="48.90232" lon="2.45511">
        <ele>52.200000762939</ele>
        <time>2016-07-04T19:04:43.000Z</time>
      </trkpt>
      <trkpt lat="48.90239" lon="2.45544">
        <ele>51.599998474121</ele>
        <time>2016-07-04T19:04:47.000Z</time>
      </trkpt>
      <trkpt lat="48.90243" lon="2.45561">
        <ele>51.400001525879</ele>
        <time>2016-07-04T19:04:49.000Z</time>
      </trkpt>
      <trkpt lat="48.90251" lon="2.45593">
        <ele>51.599998474121</ele>
        <time>2016-07-04T19:04:53.000Z</time>
      </trkpt>
      <trkpt lat="48.90258" lon="2.45627">
        <ele>52.200000762939</ele>
        <time>2016-07-04T19:04:57.000Z</time>
      </trkpt>
      <trkpt lat="48.90264" lon="2.4566">
        <ele>53</ele>
        <time>2016-07-04T19:05:01.000Z</time>
      </trkpt>
      <trkpt lat="48.90271" lon="2.45691">
        <ele>53.400001525879</ele>
        <time>2016-07-04T19:05:05.000Z</time>
      </trkpt>
      <trkpt lat="48.90277" lon="2.45721">
        <ele>53.799999237061</ele>
        <time>2016-07-04T19:05:09.000Z</time>
      </trkpt>
      <trkpt lat="48.90284" lon="2.45747">
        <ele>54</ele>
        <time>2016-07-04T19:05:13.000Z</time>
      </trkpt>
      <trkpt lat="48.90291" lon="2.45777">
        <ele>54</ele>
        <time>2016-07-04T19:05:18.000Z</time>
      </trkpt>
      <trkpt lat="48.90295" lon="2.45791">
        <ele>53.799999237061</ele>
        <time>2016-07-04T19:05:21.000Z</time>
      </trkpt>
      <trkpt lat="48.90307" lon="2.45814">
        <ele>53.599998474121</ele>
        <time>2016-07-04T19:05:28.000Z</time>
      </trkpt>
      <trkpt lat="48.90308" lon="2.45817">
        <ele>53.599998474121</ele>
        <time>2016-07-04T19:05:30.000Z</time>
      </trkpt>
      <trkpt lat="48.90311" lon="2.45825">
        <ele>53.599998474121</ele>
        <time>2016-07-04T19:06:55.000Z</time>
      </trkpt>
      <trkpt lat="48.90306" lon="2.45815">
        <ele>53.599998474121</ele>
        <time>2016-07-04T19:07:59.000Z</time>
      </trkpt>
      <trkpt lat="48.90301" lon="2.45803">
        <ele>53.599998474121</ele>
        <time>2016-07-04T19:08:05.000Z</time>
      </trkpt>
      <trkpt lat="48.90299" lon="2.45801">
        <ele>53.599998474121</ele>
        <time>2016-07-04T19:08:07.000Z</time>
      </trkpt>
      <trkpt lat="48.903" lon="2.45812">
        <ele>53.400001525879</ele>
        <time>2016-07-04T19:08:20.000Z</time>
      </trkpt>
      <trkpt lat="48.903" lon="2.45813">
        <ele>53.400001525879</ele>
        <time>2016-07-04T19:08:22.000Z</time>
      </trkpt>
      <trkpt lat="48.90298" lon="2.45814">
        <ele>53.400001525879</ele>
        <time>2016-07-04T19:09:18.000Z</time>
      </trkpt>
      <trkpt lat="48.90296" lon="2.45817">
        <ele>53.200000762939</ele>
        <time>2016-07-04T19:09:23.000Z</time>
      </trkpt>
      <trkpt lat="48.90304" lon="2.45799">
        <ele>53.799999237061</ele>
        <time>2016-07-04T19:10:04.000Z</time>
      </trkpt>
      <trkpt lat="48.90306" lon="2.45796">
        <ele>54</ele>
        <time>2016-07-04T19:10:07.000Z</time>
      </trkpt>
      <trkpt lat="48.90301" lon="2.45815">
        <ele>53.400001525879</ele>
        <time>2016-07-04T19:10:35.000Z</time>
      </trkpt>
      <trkpt lat="48.90302" lon="2.45828">
        <ele>53.200000762939</ele>
        <time>2016-07-04T19:11:50.000Z</time>
      </trkpt>
      <trkpt lat="48.90305" lon="2.4586">
        <ele>52.799999237061</ele>
        <time>2016-07-04T19:11:58.000Z</time>
      </trkpt>
      <trkpt lat="48.9031" lon="2.4589">
        <ele>53.200000762939</ele>
        <time>2016-07-04T19:12:03.000Z</time>
      </trkpt>
      <trkpt lat="48.90316" lon="2.45918">
        <ele>53.599998474121</ele>
        <time>2016-07-04T19:12:07.000Z</time>
      </trkpt>
      <trkpt lat="48.90322" lon="2.45948">
        <ele>53.599998474121</ele>
        <time>2016-07-04T19:12:11.000Z</time>
      </trkpt>
      <trkpt lat="48.90328" lon="2.45978">
        <ele>53.799999237061</ele>
        <time>2016-07-04T19:12:15.000Z</time>
      </trkpt>
      <trkpt lat="48.90335" lon="2.4601">
        <ele>53.799999237061</ele>
        <time>2016-07-04T19:12:19.000Z</time>
      </trkpt>
      <trkpt lat="48.90341" lon="2.46043">
        <ele>53.400001525879</ele>
        <time>2016-07-04T19:12:23.000Z</time>
      </trkpt>
      <trkpt lat="48.90344" lon="2.46059">
        <ele>53.200000762939</ele>
        <time>2016-07-04T19:12:25.000Z</time>
      </trkpt>
      <trkpt lat="48.90349" lon="2.46086">
        <ele>53.200000762939</ele>
        <time>2016-07-04T19:12:28.000Z</time>
      </trkpt>
      <trkpt lat="48.90354" lon="2.46113">
        <ele>53</ele>
        <time>2016-07-04T19:12:31.000Z</time>
      </trkpt>
      <trkpt lat="48.90359" lon="2.4614">
        <ele>53</ele>
        <time>2016-07-04T19:12:34.000Z</time>
      </trkpt>
      <trkpt lat="48.90365" lon="2.46167">
        <ele>53</ele>
        <time>2016-07-04T19:12:37.000Z</time>
      </trkpt>
      <trkpt lat="48.90366" lon="2.46176">
        <ele>53.200000762939</ele>
        <time>2016-07-04T19:12:38.000Z</time>
      </trkpt>
      <trkpt lat="48.9037" lon="2.46203">
        <ele>53.400001525879</ele>
        <time>2016-07-04T19:12:41.000Z</time>
      </trkpt>
      <trkpt lat="48.90376" lon="2.4623">
        <ele>53.799999237061</ele>
        <time>2016-07-04T19:12:44.000Z</time>
      </trkpt>
      <trkpt lat="48.90382" lon="2.46258">
        <ele>53.799999237061</ele>
        <time>2016-07-04T19:12:47.000Z</time>
      </trkpt>
      <trkpt lat="48.90387" lon="2.46287">
        <ele>53.599998474121</ele>
        <time>2016-07-04T19:12:50.000Z</time>
      </trkpt>
      <trkpt lat="48.90394" lon="2.46314">
        <ele>53.599998474121</ele>
        <time>2016-07-04T19:12:53.000Z</time>
      </trkpt>
      <trkpt lat="48.90401" lon="2.46341">
        <ele>53.599998474121</ele>
        <time>2016-07-04T19:12:56.000Z</time>
      </trkpt>
      <trkpt lat="48.90403" lon="2.46351">
        <ele>53.599998474121</ele>
        <time>2016-07-04T19:12:57.000Z</time>
      </trkpt>
      <trkpt lat="48.90407" lon="2.46379">
        <ele>54</ele>
        <time>2016-07-04T19:13:00.000Z</time>
      </trkpt>
      <trkpt lat="48.90413" lon="2.46407">
        <ele>54</ele>
        <time>2016-07-04T19:13:03.000Z</time>
      </trkpt>
      <trkpt lat="48.9042" lon="2.46434">
        <ele>54</ele>
        <time>2016-07-04T19:13:06.000Z</time>
      </trkpt>
      <trkpt lat="48.90425" lon="2.46463">
        <ele>54</ele>
        <time>2016-07-04T19:13:09.000Z</time>
      </trkpt>
      <trkpt lat="48.90427" lon="2.46481">
        <ele>54</ele>
        <time>2016-07-04T19:13:11.000Z</time>
      </trkpt>
      <trkpt lat="48.90427" lon="2.46508">
        <ele>54.200000762939</ele>
        <time>2016-07-04T19:13:14.000Z</time>
      </trkpt>
      <trkpt lat="48.9043" lon="2.46533">
        <ele>54.400001525879</ele>
        <time>2016-07-04T19:13:17.000Z</time>
      </trkpt>
      <trkpt lat="48.9044" lon="2.46564">
        <ele>54.799999237061</ele>
        <time>2016-07-04T19:13:22.000Z</time>
      </trkpt>
      <trkpt lat="48.90447" lon="2.46594">
        <ele>54.799999237061</ele>
        <time>2016-07-04T19:13:26.000Z</time>
      </trkpt>
      <trkpt lat="48.90454" lon="2.46623">
        <ele>54.400001525879</ele>
        <time>2016-07-04T19:13:30.000Z</time>
      </trkpt>
      <trkpt lat="48.90459" lon="2.46639">
        <ele>54.400001525879</ele>
        <time>2016-07-04T19:13:32.000Z</time>
      </trkpt>
      <trkpt lat="48.90466" lon="2.46666">
        <ele>54</ele>
        <time>2016-07-04T19:13:35.000Z</time>
      </trkpt>
      <trkpt lat="48.90472" lon="2.46696">
        <ele>53.799999237061</ele>
        <time>2016-07-04T19:13:38.000Z</time>
      </trkpt>
      <trkpt lat="48.90479" lon="2.4673">
        <ele>53.400001525879</ele>
        <time>2016-07-04T19:13:42.000Z</time>
      </trkpt>
      <trkpt lat="48.90483" lon="2.46756">
        <ele>53</ele>
        <time>2016-07-04T19:13:45.000Z</time>
      </trkpt>
      <trkpt lat="48.90487" lon="2.46784">
        <ele>52.400001525879</ele>
        <time>2016-07-04T19:13:48.000Z</time>
      </trkpt>
      <trkpt lat="48.90492" lon="2.46813">
        <ele>51.799999237061</ele>
        <time>2016-07-04T19:13:51.000Z</time>
      </trkpt>
      <trkpt lat="48.90497" lon="2.46843">
        <ele>51.200000762939</ele>
        <time>2016-07-04T19:13:54.000Z</time>
      </trkpt>
      <trkpt lat="48.90502" lon="2.46873">
        <ele>51.400001525879</ele>
        <time>2016-07-04T19:13:57.000Z</time>
      </trkpt>
      <trkpt lat="48.9051" lon="2.46906">
        <ele>51.799999237061</ele>
        <time>2016-07-04T19:14:00.000Z</time>
      </trkpt>
      <trkpt lat="48.90516" lon="2.46938">
        <ele>52.200000762939</ele>
        <time>2016-07-04T19:14:03.000Z</time>
      </trkpt>
      <trkpt lat="48.90522" lon="2.46965">
        <ele>52.599998474121</ele>
        <time>2016-07-04T19:14:06.000Z</time>
      </trkpt>
      <trkpt lat="48.90527" lon="2.46994">
        <ele>52.799999237061</ele>
        <time>2016-07-04T19:14:09.000Z</time>
      </trkpt>
      <trkpt lat="48.90535" lon="2.47022">
        <ele>53.200000762939</ele>
        <time>2016-07-04T19:14:12.000Z</time>
      </trkpt>
      <trkpt lat="48.90537" lon="2.47057">
        <ele>54</ele>
        <time>2016-07-04T19:14:16.000Z</time>
      </trkpt>
      <trkpt lat="48.90539" lon="2.47065">
        <ele>54.200000762939</ele>
        <time>2016-07-04T19:14:17.000Z</time>
      </trkpt>
      <trkpt lat="48.90546" lon="2.47093">
        <ele>54.400001525879</ele>
        <time>2016-07-04T19:14:20.000Z</time>
      </trkpt>
      <trkpt lat="48.90553" lon="2.4712">
        <ele>54</ele>
        <time>2016-07-04T19:14:23.000Z</time>
      </trkpt>
      <trkpt lat="48.9056" lon="2.47149">
        <ele>53.599998474121</ele>
        <time>2016-07-04T19:14:26.000Z</time>
      </trkpt>
      <trkpt lat="48.90565" lon="2.47179">
        <ele>53</ele>
        <time>2016-07-04T19:14:29.000Z</time>
      </trkpt>
      <trkpt lat="48.90571" lon="2.47213">
        <ele>51.599998474121</ele>
        <time>2016-07-04T19:14:33.000Z</time>
      </trkpt>
      <trkpt lat="48.90579" lon="2.47239">
        <ele>51.400001525879</ele>
        <time>2016-07-04T19:14:36.000Z</time>
      </trkpt>
      <trkpt lat="48.90586" lon="2.47266">
        <ele>51.200000762939</ele>
        <time>2016-07-04T19:14:40.000Z</time>
      </trkpt>
      <trkpt lat="48.90593" lon="2.4729">
        <ele>50.799999237061</ele>
        <time>2016-07-04T19:14:46.000Z</time>
      </trkpt>
      <trkpt lat="48.90594" lon="2.47295">
        <ele>50.799999237061</ele>
        <time>2016-07-04T19:14:48.000Z</time>
      </trkpt>
      <trkpt lat="48.90599" lon="2.47308">
        <ele>50.400001525879</ele>
        <time>2016-07-04T19:15:44.000Z</time>
      </trkpt>
      <trkpt lat="48.90604" lon="2.47335">
        <ele>50.200000762939</ele>
        <time>2016-07-04T19:15:54.000Z</time>
      </trkpt>
      <trkpt lat="48.90608" lon="2.47362">
        <ele>51.400001525879</ele>
        <time>2016-07-04T19:16:03.000Z</time>
      </trkpt>
      <trkpt lat="48.90605" lon="2.4737">
        <ele>51.799999237061</ele>
        <time>2016-07-04T19:16:07.000Z</time>
      </trkpt>
      <trkpt lat="48.90602" lon="2.47375">
        <ele>52.200000762939</ele>
        <time>2016-07-04T19:16:13.000Z</time>
      </trkpt>
      <trkpt lat="48.90589" lon="2.47395">
        <ele>53.799999237061</ele>
        <time>2016-07-04T19:16:28.000Z</time>
      </trkpt>
      <trkpt lat="48.90588" lon="2.47398">
        <ele>54</ele>
        <time>2016-07-04T19:16:30.000Z</time>
      </trkpt>
      <trkpt lat="48.90594" lon="2.47384">
        <ele>53</ele>
        <time>2016-07-04T19:17:13.000Z</time>
      </trkpt>
      <trkpt lat="48.90589" lon="2.47394">
        <ele>53.799999237061</ele>
        <time>2016-07-04T19:18:19.000Z</time>
      </trkpt>
      <trkpt lat="48.90584" lon="2.47418">
        <ele>53.400001525879</ele>
        <time>2016-07-04T19:18:26.000Z</time>
      </trkpt>
      <trkpt lat="48.9059" lon="2.47445">
        <ele>53.599998474121</ele>
        <time>2016-07-04T19:18:31.000Z</time>
      </trkpt>
      <trkpt lat="48.90598" lon="2.47476">
        <ele>53.799999237061</ele>
        <time>2016-07-04T19:18:35.000Z</time>
      </trkpt>
      <trkpt lat="48.90606" lon="2.4751">
        <ele>53.799999237061</ele>
        <time>2016-07-04T19:18:39.000Z</time>
      </trkpt>
      <trkpt lat="48.90613" lon="2.47537">
        <ele>53.200000762939</ele>
        <time>2016-07-04T19:18:42.000Z</time>
      </trkpt>
      <trkpt lat="48.90617" lon="2.47569">
        <ele>52.400001525879</ele>
        <time>2016-07-04T19:18:46.000Z</time>
      </trkpt>
      <trkpt lat="48.90623" lon="2.47604">
        <ele>52</ele>
        <time>2016-07-04T19:18:50.000Z</time>
      </trkpt>
      <trkpt lat="48.90626" lon="2.47621">
        <ele>52</ele>
        <time>2016-07-04T19:18:52.000Z</time>
      </trkpt>
      <trkpt lat="48.90634" lon="2.47654">
        <ele>52</ele>
        <time>2016-07-04T19:18:56.000Z</time>
      </trkpt>
      <trkpt lat="48.9064" lon="2.47685">
        <ele>52</ele>
        <time>2016-07-04T19:19:00.000Z</time>
      </trkpt>
      <trkpt lat="48.90646" lon="2.47719">
        <ele>51.799999237061</ele>
        <time>2016-07-04T19:19:04.000Z</time>
      </trkpt>
      <trkpt lat="48.90653" lon="2.47754">
        <ele>51.599998474121</ele>
        <time>2016-07-04T19:19:08.000Z</time>
      </trkpt>
      <trkpt lat="48.90659" lon="2.47781">
        <ele>52</ele>
        <time>2016-07-04T19:19:11.000Z</time>
      </trkpt>
      <trkpt lat="48.90665" lon="2.4781">
        <ele>52.400001525879</ele>
        <time>2016-07-04T19:19:14.000Z</time>
      </trkpt>
      <trkpt lat="48.9067" lon="2.47838">
        <ele>52.799999237061</ele>
        <time>2016-07-04T19:19:17.000Z</time>
      </trkpt>
      <trkpt lat="48.90674" lon="2.47866">
        <ele>52.799999237061</ele>
        <time>2016-07-04T19:19:20.000Z</time>
      </trkpt>
      <trkpt lat="48.90678" lon="2.47893">
        <ele>52.799999237061</ele>
        <time>2016-07-04T19:19:23.000Z</time>
      </trkpt>
      <trkpt lat="48.90683" lon="2.4792">
        <ele>53</ele>
        <time>2016-07-04T19:19:26.000Z</time>
      </trkpt>
      <trkpt lat="48.90688" lon="2.47948">
        <ele>53</ele>
        <time>2016-07-04T19:19:29.000Z</time>
      </trkpt>
      <trkpt lat="48.90694" lon="2.47976">
        <ele>53</ele>
        <time>2016-07-04T19:19:32.000Z</time>
      </trkpt>
      <trkpt lat="48.90699" lon="2.48003">
        <ele>52.799999237061</ele>
        <time>2016-07-04T19:19:35.000Z</time>
      </trkpt>
      <trkpt lat="48.90705" lon="2.48031">
        <ele>52.599998474121</ele>
        <time>2016-07-04T19:19:38.000Z</time>
      </trkpt>
      <trkpt lat="48.9071" lon="2.48065">
        <ele>52.599998474121</ele>
        <time>2016-07-04T19:19:42.000Z</time>
      </trkpt>
      <trkpt lat="48.90715" lon="2.48095">
        <ele>52.200000762939</ele>
        <time>2016-07-04T19:19:45.000Z</time>
      </trkpt>
      <trkpt lat="48.90721" lon="2.48124">
        <ele>51.599998474121</ele>
        <time>2016-07-04T19:19:48.000Z</time>
      </trkpt>
      <trkpt lat="48.9073" lon="2.48152">
        <ele>51.200000762939</ele>
        <time>2016-07-04T19:19:51.000Z</time>
      </trkpt>
      <trkpt lat="48.90737" lon="2.48181">
        <ele>50.799999237061</ele>
        <time>2016-07-04T19:19:54.000Z</time>
      </trkpt>
      <trkpt lat="48.90745" lon="2.48207">
        <ele>50.799999237061</ele>
        <time>2016-07-04T19:19:57.000Z</time>
      </trkpt>
      <trkpt lat="48.90751" lon="2.48235">
        <ele>50.599998474121</ele>
        <time>2016-07-04T19:20:00.000Z</time>
      </trkpt>
      <trkpt lat="48.90756" lon="2.48263">
        <ele>50.599998474121</ele>
        <time>2016-07-04T19:20:03.000Z</time>
      </trkpt>
      <trkpt lat="48.90761" lon="2.48291">
        <ele>51.200000762939</ele>
        <time>2016-07-04T19:20:06.000Z</time>
      </trkpt>
      <trkpt lat="48.90766" lon="2.48319">
        <ele>51.799999237061</ele>
        <time>2016-07-04T19:20:09.000Z</time>
      </trkpt>
      <trkpt lat="48.90772" lon="2.48348">
        <ele>51.799999237061</ele>
        <time>2016-07-04T19:20:12.000Z</time>
      </trkpt>
      <trkpt lat="48.90779" lon="2.48378">
        <ele>51.400001525879</ele>
        <time>2016-07-04T19:20:15.000Z</time>
      </trkpt>
      <trkpt lat="48.90787" lon="2.48408">
        <ele>51.200000762939</ele>
        <time>2016-07-04T19:20:18.000Z</time>
      </trkpt>
      <trkpt lat="48.90793" lon="2.48438">
        <ele>51</ele>
        <time>2016-07-04T19:20:21.000Z</time>
      </trkpt>
      <trkpt lat="48.90798" lon="2.4847">
        <ele>50.599998474121</ele>
        <time>2016-07-04T19:20:24.000Z</time>
      </trkpt>
      <trkpt lat="48.90806" lon="2.48499">
        <ele>50.400001525879</ele>
        <time>2016-07-04T19:20:27.000Z</time>
      </trkpt>
      <trkpt lat="48.90813" lon="2.48529">
        <ele>50.200000762939</ele>
        <time>2016-07-04T19:20:30.000Z</time>
      </trkpt>
      <trkpt lat="48.90819" lon="2.48559">
        <ele>50</ele>
        <time>2016-07-04T19:20:33.000Z</time>
      </trkpt>
      <trkpt lat="48.90826" lon="2.4859">
        <ele>50</ele>
        <time>2016-07-04T19:20:36.000Z</time>
      </trkpt>
      <trkpt lat="48.90832" lon="2.4862">
        <ele>49.599998474121</ele>
        <time>2016-07-04T19:20:39.000Z</time>
      </trkpt>
      <trkpt lat="48.90839" lon="2.48653">
        <ele>49.200000762939</ele>
        <time>2016-07-04T19:20:42.000Z</time>
      </trkpt>
      <trkpt lat="48.90846" lon="2.48684">
        <ele>49</ele>
        <time>2016-07-04T19:20:45.000Z</time>
      </trkpt>
      <trkpt lat="48.90848" lon="2.48693">
        <ele>49.200000762939</ele>
        <time>2016-07-04T19:20:46.000Z</time>
      </trkpt>
      <trkpt lat="48.90853" lon="2.48722">
        <ele>49.599998474121</ele>
        <time>2016-07-04T19:20:49.000Z</time>
      </trkpt>
      <trkpt lat="48.90859" lon="2.48752">
        <ele>50</ele>
        <time>2016-07-04T19:20:52.000Z</time>
      </trkpt>
      <trkpt lat="48.90865" lon="2.4878">
        <ele>50.200000762939</ele>
        <time>2016-07-04T19:20:55.000Z</time>
      </trkpt>
      <trkpt lat="48.9087" lon="2.48808">
        <ele>50.400001525879</ele>
        <time>2016-07-04T19:20:58.000Z</time>
      </trkpt>
      <trkpt lat="48.90875" lon="2.48837">
        <ele>50.599998474121</ele>
        <time>2016-07-04T19:21:01.000Z</time>
      </trkpt>
      <trkpt lat="48.90877" lon="2.48846">
        <ele>50.599998474121</ele>
        <time>2016-07-04T19:21:02.000Z</time>
      </trkpt>
      <trkpt lat="48.90883" lon="2.48873">
        <ele>50.400001525879</ele>
        <time>2016-07-04T19:21:05.000Z</time>
      </trkpt>
      <trkpt lat="48.90888" lon="2.48901">
        <ele>50.200000762939</ele>
        <time>2016-07-04T19:21:08.000Z</time>
      </trkpt>
      <trkpt lat="48.90893" lon="2.48928">
        <ele>50.400001525879</ele>
        <time>2016-07-04T19:21:11.000Z</time>
      </trkpt>
      <trkpt lat="48.90898" lon="2.48954">
        <ele>51</ele>
        <time>2016-07-04T19:21:14.000Z</time>
      </trkpt>
      <trkpt lat="48.90905" lon="2.48987">
        <ele>51.599998474121</ele>
        <time>2016-07-04T19:21:18.000Z</time>
      </trkpt>
      <trkpt lat="48.90913" lon="2.4902">
        <ele>52.200000762939</ele>
        <time>2016-07-04T19:21:22.000Z</time>
      </trkpt>
      <trkpt lat="48.90921" lon="2.49053">
        <ele>53</ele>
        <time>2016-07-04T19:21:26.000Z</time>
      </trkpt>
      <trkpt lat="48.90928" lon="2.49079">
        <ele>53.799999237061</ele>
        <time>2016-07-04T19:21:29.000Z</time>
      </trkpt>
      <trkpt lat="48.90933" lon="2.49104">
        <ele>53.599998474121</ele>
        <time>2016-07-04T19:21:32.000Z</time>
      </trkpt>
      <trkpt lat="48.90926" lon="2.49137">
        <ele>53.200000762939</ele>
        <time>2016-07-04T19:21:36.000Z</time>
      </trkpt>
      <trkpt lat="48.90932" lon="2.49171">
        <ele>52.799999237061</ele>
        <time>2016-07-04T19:21:40.000Z</time>
      </trkpt>
      <trkpt lat="48.90941" lon="2.49202">
        <ele>52.599998474121</ele>
        <time>2016-07-04T19:21:44.000Z</time>
      </trkpt>
      <trkpt lat="48.90948" lon="2.49232">
        <ele>52.400001525879</ele>
        <time>2016-07-04T19:21:48.000Z</time>
      </trkpt>
      <trkpt lat="48.90953" lon="2.49256">
        <ele>52.200000762939</ele>
        <time>2016-07-04T19:21:51.000Z</time>
      </trkpt>
      <trkpt lat="48.9096" lon="2.49287">
        <ele>51.799999237061</ele>
        <time>2016-07-04T19:21:55.000Z</time>
      </trkpt>
      <trkpt lat="48.90967" lon="2.4932">
        <ele>51.200000762939</ele>
        <time>2016-07-04T19:21:59.000Z</time>
      </trkpt>
      <trkpt lat="48.90974" lon="2.49353">
        <ele>51</ele>
        <time>2016-07-04T19:22:03.000Z</time>
      </trkpt>
      <trkpt lat="48.90982" lon="2.49387">
        <ele>51.200000762939</ele>
        <time>2016-07-04T19:22:07.000Z</time>
      </trkpt>
      <trkpt lat="48.90988" lon="2.49421">
        <ele>52</ele>
        <time>2016-07-04T19:22:11.000Z</time>
      </trkpt>
      <trkpt lat="48.90993" lon="2.49435">
        <ele>51.799999237061</ele>
        <time>2016-07-04T19:22:13.000Z</time>
      </trkpt>
      <trkpt lat="48.91003" lon="2.49455">
        <ele>51.599998474121</ele>
        <time>2016-07-04T19:22:16.000Z</time>
      </trkpt>
      <trkpt lat="48.91011" lon="2.49486">
        <ele>51.200000762939</ele>
        <time>2016-07-04T19:22:20.000Z</time>
      </trkpt>
      <trkpt lat="48.91019" lon="2.49518">
        <ele>51.799999237061</ele>
        <time>2016-07-04T19:22:24.000Z</time>
      </trkpt>
      <trkpt lat="48.91021" lon="2.49525">
        <ele>52</ele>
        <time>2016-07-04T19:22:25.000Z</time>
      </trkpt>
      <trkpt lat="48.91018" lon="2.49556">
        <ele>53.200000762939</ele>
        <time>2016-07-04T19:22:30.000Z</time>
      </trkpt>
      <trkpt lat="48.91022" lon="2.49573">
        <ele>53.599998474121</ele>
        <time>2016-07-04T19:22:33.000Z</time>
      </trkpt>
      <trkpt lat="48.9103" lon="2.49603">
        <ele>54</ele>
        <time>2016-07-04T19:22:38.000Z</time>
      </trkpt>
      <trkpt lat="48.91038" lon="2.49634">
        <ele>54.200000762939</ele>
        <time>2016-07-04T19:22:43.000Z</time>
      </trkpt>
      <trkpt lat="48.91046" lon="2.4966">
        <ele>54.400001525879</ele>
        <time>2016-07-04T19:22:47.000Z</time>
      </trkpt>
      <trkpt lat="48.9105" lon="2.49673">
        <ele>54.200000762939</ele>
        <time>2016-07-04T19:22:49.000Z</time>
      </trkpt>
      <trkpt lat="48.9106" lon="2.49702">
        <ele>53.599998474121</ele>
        <time>2016-07-04T19:22:53.000Z</time>
      </trkpt>
      <trkpt lat="48.9107" lon="2.49725">
        <ele>53.400001525879</ele>
        <time>2016-07-04T19:22:56.000Z</time>
      </trkpt>
      <trkpt lat="48.91083" lon="2.49755">
        <ele>53.200000762939</ele>
        <time>2016-07-04T19:23:00.000Z</time>
      </trkpt>
      <trkpt lat="48.91094" lon="2.49783">
        <ele>53.400001525879</ele>
        <time>2016-07-04T19:23:04.000Z</time>
      </trkpt>
      <trkpt lat="48.91106" lon="2.49806">
        <ele>53.400001525879</ele>
        <time>2016-07-04T19:23:08.000Z</time>
      </trkpt>
      <trkpt lat="48.9112" lon="2.4983">
        <ele>53.799999237061</ele>
        <time>2016-07-04T19:23:12.000Z</time>
      </trkpt>
      <trkpt lat="48.91135" lon="2.49852">
        <ele>53.599998474121</ele>
        <time>2016-07-04T19:23:16.000Z</time>
      </trkpt>
      <trkpt lat="48.91142" lon="2.49863">
        <ele>53.599998474121</ele>
        <time>2016-07-04T19:23:18.000Z</time>
      </trkpt>
      <trkpt lat="48.91157" lon="2.49885">
        <ele>53.400001525879</ele>
        <time>2016-07-04T19:23:22.000Z</time>
      </trkpt>
      <trkpt lat="48.91171" lon="2.49904">
        <ele>53.200000762939</ele>
        <time>2016-07-04T19:23:26.000Z</time>
      </trkpt>
      <trkpt lat="48.91177" lon="2.49912">
        <ele>53</ele>
        <time>2016-07-04T19:23:28.000Z</time>
      </trkpt>
      <trkpt lat="48.91186" lon="2.49936">
        <ele>52.799999237061</ele>
        <time>2016-07-04T19:23:36.000Z</time>
      </trkpt>
      <trkpt lat="48.91192" lon="2.49944">
        <ele>52.599998474121</ele>
        <time>2016-07-04T19:23:40.000Z</time>
      </trkpt>
      <trkpt lat="48.91193" lon="2.49945">
        <ele>52.599998474121</ele>
        <time>2016-07-04T19:23:41.000Z</time>
      </trkpt>
      <trkpt lat="48.912" lon="2.49952">
        <ele>52.599998474121</ele>
        <time>2016-07-04T19:23:46.000Z</time>
      </trkpt>
      <trkpt lat="48.91202" lon="2.49953">
        <ele>52.599998474121</ele>
        <time>2016-07-04T19:23:47.000Z</time>
      </trkpt>
      <trkpt lat="48.91206" lon="2.4996">
        <ele>52.400001525879</ele>
        <time>2016-07-04T19:23:51.000Z</time>
      </trkpt>
      <trkpt lat="48.91216" lon="2.49967">
        <ele>52.400001525879</ele>
        <time>2016-07-04T19:24:00.000Z</time>
      </trkpt>
      <trkpt lat="48.91206" lon="2.49947">
        <ele>52.599998474121</ele>
        <time>2016-07-04T19:24:49.000Z</time>
      </trkpt>
      <trkpt lat="48.9119" lon="2.49927">
        <ele>52.799999237061</ele>
        <time>2016-07-04T19:24:55.000Z</time>
      </trkpt>
      <trkpt lat="48.91177" lon="2.49908">
        <ele>53.200000762939</ele>
        <time>2016-07-04T19:24:59.000Z</time>
      </trkpt>
      <trkpt lat="48.91163" lon="2.49888">
        <ele>53.400001525879</ele>
        <time>2016-07-04T19:25:03.000Z</time>
      </trkpt>
      <trkpt lat="48.91148" lon="2.49866">
        <ele>53.599998474121</ele>
        <time>2016-07-04T19:25:07.000Z</time>
      </trkpt>
      <trkpt lat="48.91135" lon="2.49842">
        <ele>53.599998474121</ele>
        <time>2016-07-04T19:25:11.000Z</time>
      </trkpt>
      <trkpt lat="48.91121" lon="2.49821">
        <ele>53.599998474121</ele>
        <time>2016-07-04T19:25:15.000Z</time>
      </trkpt>
      <trkpt lat="48.91105" lon="2.49799">
        <ele>53.200000762939</ele>
        <time>2016-07-04T19:25:19.000Z</time>
      </trkpt>
      <trkpt lat="48.91092" lon="2.49775">
        <ele>53.400001525879</ele>
        <time>2016-07-04T19:25:23.000Z</time>
      </trkpt>
      <trkpt lat="48.91082" lon="2.4975">
        <ele>53.200000762939</ele>
        <time>2016-07-04T19:25:27.000Z</time>
      </trkpt>
      <trkpt lat="48.91072" lon="2.49726">
        <ele>53.400001525879</ele>
        <time>2016-07-04T19:25:31.000Z</time>
      </trkpt>
      <trkpt lat="48.91061" lon="2.49701">
        <ele>53.599998474121</ele>
        <time>2016-07-04T19:25:35.000Z</time>
      </trkpt>
      <trkpt lat="48.91051" lon="2.49674">
        <ele>54.200000762939</ele>
        <time>2016-07-04T19:25:39.000Z</time>
      </trkpt>
      <trkpt lat="48.91041" lon="2.49645">
        <ele>54.400001525879</ele>
        <time>2016-07-04T19:25:43.000Z</time>
      </trkpt>
      <trkpt lat="48.91031" lon="2.49613">
        <ele>54.200000762939</ele>
        <time>2016-07-04T19:25:47.000Z</time>
      </trkpt>
      <trkpt lat="48.91022" lon="2.4958">
        <ele>54</ele>
        <time>2016-07-04T19:25:51.000Z</time>
      </trkpt>
      <trkpt lat="48.91013" lon="2.49548">
        <ele>53.200000762939</ele>
        <time>2016-07-04T19:25:55.000Z</time>
      </trkpt>
      <trkpt lat="48.91011" lon="2.4954">
        <ele>52.799999237061</ele>
        <time>2016-07-04T19:25:56.000Z</time>
      </trkpt>
      <trkpt lat="48.91012" lon="2.49513">
        <ele>52</ele>
        <time>2016-07-04T19:26:00.000Z</time>
      </trkpt>
      <trkpt lat="48.91008" lon="2.49498">
        <ele>51.599998474121</ele>
        <time>2016-07-04T19:26:02.000Z</time>
      </trkpt>
      <trkpt lat="48.91001" lon="2.49466">
        <ele>51.400001525879</ele>
        <time>2016-07-04T19:26:06.000Z</time>
      </trkpt>
      <trkpt lat="48.90995" lon="2.49435">
        <ele>51.799999237061</ele>
        <time>2016-07-04T19:26:10.000Z</time>
      </trkpt>
      <trkpt lat="48.90985" lon="2.49416">
        <ele>52</ele>
        <time>2016-07-04T19:26:13.000Z</time>
      </trkpt>
      <trkpt lat="48.90978" lon="2.49383">
        <ele>51.200000762939</ele>
        <time>2016-07-04T19:26:17.000Z</time>
      </trkpt>
      <trkpt lat="48.90971" lon="2.49349">
        <ele>51</ele>
        <time>2016-07-04T19:26:21.000Z</time>
      </trkpt>
      <trkpt lat="48.90963" lon="2.49315">
        <ele>51.200000762939</ele>
        <time>2016-07-04T19:26:25.000Z</time>
      </trkpt>
      <trkpt lat="48.90957" lon="2.49284">
        <ele>51.799999237061</ele>
        <time>2016-07-04T19:26:29.000Z</time>
      </trkpt>
      <trkpt lat="48.90953" lon="2.49257">
        <ele>52.200000762939</ele>
        <time>2016-07-04T19:26:33.000Z</time>
      </trkpt>
      <trkpt lat="48.90948" lon="2.49226">
        <ele>52.400001525879</ele>
        <time>2016-07-04T19:26:37.000Z</time>
      </trkpt>
      <trkpt lat="48.90941" lon="2.49196">
        <ele>52.599998474121</ele>
        <time>2016-07-04T19:26:41.000Z</time>
      </trkpt>
      <trkpt lat="48.90934" lon="2.49163">
        <ele>53</ele>
        <time>2016-07-04T19:26:45.000Z</time>
      </trkpt>
      <trkpt lat="48.90928" lon="2.49129">
        <ele>53.200000762939</ele>
        <time>2016-07-04T19:26:49.000Z</time>
      </trkpt>
      <trkpt lat="48.90927" lon="2.49121">
        <ele>53.400001525879</ele>
        <time>2016-07-04T19:26:50.000Z</time>
      </trkpt>
      <trkpt lat="48.90931" lon="2.49091">
        <ele>53.799999237061</ele>
        <time>2016-07-04T19:26:54.000Z</time>
      </trkpt>
      <trkpt lat="48.90925" lon="2.49062">
        <ele>53.200000762939</ele>
        <time>2016-07-04T19:26:58.000Z</time>
      </trkpt>
      <trkpt lat="48.90924" lon="2.49056">
        <ele>53</ele>
        <time>2016-07-04T19:26:59.000Z</time>
      </trkpt>
      <trkpt lat="48.90919" lon="2.49028">
        <ele>52.599998474121</ele>
        <time>2016-07-04T19:27:03.000Z</time>
      </trkpt>
      <trkpt lat="48.90915" lon="2.49017">
        <ele>52.200000762939</ele>
        <time>2016-07-04T19:27:05.000Z</time>
      </trkpt>
      <trkpt lat="48.90911" lon="2.49003">
        <ele>52</ele>
        <time>2016-07-04T19:27:08.000Z</time>
      </trkpt>
      <trkpt lat="48.90907" lon="2.48991">
        <ele>51.599998474121</ele>
        <time>2016-07-04T19:27:12.000Z</time>
      </trkpt>
      <trkpt lat="48.90902" lon="2.48992">
        <ele>51.599998474121</ele>
        <time>2016-07-04T19:28:15.000Z</time>
      </trkpt>
      <trkpt lat="48.90899" lon="2.48997">
        <ele>51.400001525879</ele>
        <time>2016-07-04T19:30:05.000Z</time>
      </trkpt>
      <trkpt lat="48.90906" lon="2.48988">
        <ele>51.599998474121</ele>
        <time>2016-07-04T19:31:45.000Z</time>
      </trkpt>
      <trkpt lat="48.909" lon="2.48961">
        <ele>51</ele>
        <time>2016-07-04T19:31:58.000Z</time>
      </trkpt>
      <trkpt lat="48.90893" lon="2.48935">
        <ele>50.599998474121</ele>
        <time>2016-07-04T19:32:03.000Z</time>
      </trkpt>
      <trkpt lat="48.90887" lon="2.48905">
        <ele>50.200000762939</ele>
        <time>2016-07-04T19:32:08.000Z</time>
      </trkpt>
      <trkpt lat="48.9088" lon="2.48878">
        <ele>50.400001525879</ele>
        <time>2016-07-04T19:32:12.000Z</time>
      </trkpt>
      <trkpt lat="48.90869" lon="2.4885">
        <ele>50.200000762939</ele>
        <time>2016-07-04T19:32:16.000Z</time>
      </trkpt>
      <trkpt lat="48.90864" lon="2.48822">
        <ele>50.200000762939</ele>
        <time>2016-07-04T19:32:20.000Z</time>
      </trkpt>
      <trkpt lat="48.90858" lon="2.48792">
        <ele>50</ele>
        <time>2016-07-04T19:32:24.000Z</time>
      </trkpt>
      <trkpt lat="48.90852" lon="2.48758">
        <ele>49.799999237061</ele>
        <time>2016-07-04T19:32:28.000Z</time>
      </trkpt>
      <trkpt lat="48.90847" lon="2.48725">
        <ele>49.599998474121</ele>
        <time>2016-07-04T19:32:32.000Z</time>
      </trkpt>
      <trkpt lat="48.90843" lon="2.48692">
        <ele>49.200000762939</ele>
        <time>2016-07-04T19:32:36.000Z</time>
      </trkpt>
      <trkpt lat="48.90837" lon="2.4866">
        <ele>49</ele>
        <time>2016-07-04T19:32:40.000Z</time>
      </trkpt>
      <trkpt lat="48.90832" lon="2.48628">
        <ele>49.400001525879</ele>
        <time>2016-07-04T19:32:44.000Z</time>
      </trkpt>
      <trkpt lat="48.90825" lon="2.48595">
        <ele>49.799999237061</ele>
        <time>2016-07-04T19:32:48.000Z</time>
      </trkpt>
      <trkpt lat="48.90818" lon="2.48563">
        <ele>50</ele>
        <time>2016-07-04T19:32:52.000Z</time>
      </trkpt>
      <trkpt lat="48.90815" lon="2.48548">
        <ele>50</ele>
        <time>2016-07-04T19:32:54.000Z</time>
      </trkpt>
      <trkpt lat="48.90809" lon="2.48516">
        <ele>50.200000762939</ele>
        <time>2016-07-04T19:32:58.000Z</time>
      </trkpt>
      <trkpt lat="48.90801" lon="2.48483">
        <ele>50.599998474121</ele>
        <time>2016-07-04T19:33:02.000Z</time>
      </trkpt>
      <trkpt lat="48.90794" lon="2.4845">
        <ele>50.799999237061</ele>
        <time>2016-07-04T19:33:06.000Z</time>
      </trkpt>
      <trkpt lat="48.90787" lon="2.48416">
        <ele>51</ele>
        <time>2016-07-04T19:33:10.000Z</time>
      </trkpt>
      <trkpt lat="48.90782" lon="2.4839">
        <ele>51.400001525879</ele>
        <time>2016-07-04T19:33:13.000Z</time>
      </trkpt>
      <trkpt lat="48.90778" lon="2.48363">
        <ele>51.599998474121</ele>
        <time>2016-07-04T19:33:16.000Z</time>
      </trkpt>
      <trkpt lat="48.90773" lon="2.48335">
        <ele>52</ele>
        <time>2016-07-04T19:33:19.000Z</time>
      </trkpt>
      <trkpt lat="48.90766" lon="2.48301">
        <ele>51.400001525879</ele>
        <time>2016-07-04T19:33:23.000Z</time>
      </trkpt>
      <trkpt lat="48.9076" lon="2.48275">
        <ele>50.799999237061</ele>
        <time>2016-07-04T19:33:26.000Z</time>
      </trkpt>
      <trkpt lat="48.90755" lon="2.48248">
        <ele>50.200000762939</ele>
        <time>2016-07-04T19:33:29.000Z</time>
      </trkpt>
      <trkpt lat="48.90749" lon="2.48213">
        <ele>50.799999237061</ele>
        <time>2016-07-04T19:33:33.000Z</time>
      </trkpt>
      <trkpt lat="48.90744" lon="2.48186">
        <ele>50.599998474121</ele>
        <time>2016-07-04T19:33:36.000Z</time>
      </trkpt>
      <trkpt lat="48.90737" lon="2.48151">
        <ele>50.799999237061</ele>
        <time>2016-07-04T19:33:40.000Z</time>
      </trkpt>
      <trkpt lat="48.9073" lon="2.48117">
        <ele>51.200000762939</ele>
        <time>2016-07-04T19:33:44.000Z</time>
      </trkpt>
      <trkpt lat="48.90724" lon="2.4809">
        <ele>52</ele>
        <time>2016-07-04T19:33:47.000Z</time>
      </trkpt>
      <trkpt lat="48.90716" lon="2.48057">
        <ele>52.400001525879</ele>
        <time>2016-07-04T19:33:51.000Z</time>
      </trkpt>
      <trkpt lat="48.90711" lon="2.48026">
        <ele>52.400001525879</ele>
        <time>2016-07-04T19:33:55.000Z</time>
      </trkpt>
      <trkpt lat="48.90704" lon="2.48001">
        <ele>52.799999237061</ele>
        <time>2016-07-04T19:33:58.000Z</time>
      </trkpt>
      <trkpt lat="48.90698" lon="2.47975">
        <ele>52.799999237061</ele>
        <time>2016-07-04T19:34:01.000Z</time>
      </trkpt>
      <trkpt lat="48.90691" lon="2.4794">
        <ele>53</ele>
        <time>2016-07-04T19:34:05.000Z</time>
      </trkpt>
      <trkpt lat="48.90687" lon="2.47912">
        <ele>53</ele>
        <time>2016-07-04T19:34:08.000Z</time>
      </trkpt>
      <trkpt lat="48.90681" lon="2.47877">
        <ele>52.799999237061</ele>
        <time>2016-07-04T19:34:12.000Z</time>
      </trkpt>
      <trkpt lat="48.90673" lon="2.47842">
        <ele>52.799999237061</ele>
        <time>2016-07-04T19:34:16.000Z</time>
      </trkpt>
      <trkpt lat="48.90667" lon="2.47808">
        <ele>52.400001525879</ele>
        <time>2016-07-04T19:34:20.000Z</time>
      </trkpt>
      <trkpt lat="48.90659" lon="2.47774">
        <ele>52</ele>
        <time>2016-07-04T19:34:24.000Z</time>
      </trkpt>
      <trkpt lat="48.90653" lon="2.47746">
        <ele>51.599998474121</ele>
        <time>2016-07-04T19:34:27.000Z</time>
      </trkpt>
      <trkpt lat="48.90647" lon="2.47718">
        <ele>51.799999237061</ele>
        <time>2016-07-04T19:34:30.000Z</time>
      </trkpt>
      <trkpt lat="48.9064" lon="2.47689">
        <ele>52</ele>
        <time>2016-07-04T19:34:33.000Z</time>
      </trkpt>
      <trkpt lat="48.90633" lon="2.47662">
        <ele>52</ele>
        <time>2016-07-04T19:34:36.000Z</time>
      </trkpt>
      <trkpt lat="48.90626" lon="2.47631">
        <ele>52</ele>
        <time>2016-07-04T19:34:39.000Z</time>
      </trkpt>
      <trkpt lat="48.9062" lon="2.47601">
        <ele>52</ele>
        <time>2016-07-04T19:34:42.000Z</time>
      </trkpt>
      <trkpt lat="48.90612" lon="2.4757">
        <ele>52.400001525879</ele>
        <time>2016-07-04T19:34:45.000Z</time>
      </trkpt>
      <trkpt lat="48.90606" lon="2.47537">
        <ele>53</ele>
        <time>2016-07-04T19:34:48.000Z</time>
      </trkpt>
      <trkpt lat="48.906" lon="2.47505">
        <ele>53.799999237061</ele>
        <time>2016-07-04T19:34:51.000Z</time>
      </trkpt>
      <trkpt lat="48.90594" lon="2.47474">
        <ele>53.599998474121</ele>
        <time>2016-07-04T19:34:54.000Z</time>
      </trkpt>
      <trkpt lat="48.90589" lon="2.47447">
        <ele>53.599998474121</ele>
        <time>2016-07-04T19:34:57.000Z</time>
      </trkpt>
      <trkpt lat="48.90585" lon="2.47426">
        <ele>53.400001525879</ele>
        <time>2016-07-04T19:35:00.000Z</time>
      </trkpt>
      <trkpt lat="48.90582" lon="2.47398">
        <ele>53.799999237061</ele>
        <time>2016-07-04T19:35:05.000Z</time>
      </trkpt>
      <trkpt lat="48.90594" lon="2.4738">
        <ele>52.799999237061</ele>
        <time>2016-07-04T19:35:11.000Z</time>
      </trkpt>
      <trkpt lat="48.90608" lon="2.47359">
        <ele>51.200000762939</ele>
        <time>2016-07-04T19:35:18.000Z</time>
      </trkpt>
      <trkpt lat="48.90601" lon="2.47329">
        <ele>50.400001525879</ele>
        <time>2016-07-04T19:35:23.000Z</time>
      </trkpt>
      <trkpt lat="48.90595" lon="2.47303">
        <ele>50.799999237061</ele>
        <time>2016-07-04T19:35:26.000Z</time>
      </trkpt>
      <trkpt lat="48.90587" lon="2.47275">
        <ele>51.200000762939</ele>
        <time>2016-07-04T19:35:29.000Z</time>
      </trkpt>
      <trkpt lat="48.90579" lon="2.4725">
        <ele>51.599998474121</ele>
        <time>2016-07-04T19:35:32.000Z</time>
      </trkpt>
      <trkpt lat="48.90572" lon="2.47223">
        <ele>51.599998474121</ele>
        <time>2016-07-04T19:35:35.000Z</time>
      </trkpt>
      <trkpt lat="48.90565" lon="2.47196">
        <ele>52.400001525879</ele>
        <time>2016-07-04T19:35:38.000Z</time>
      </trkpt>
      <trkpt lat="48.9056" lon="2.47165">
        <ele>53.599998474121</ele>
        <time>2016-07-04T19:35:41.000Z</time>
      </trkpt>
      <trkpt lat="48.90554" lon="2.4713">
        <ele>53.799999237061</ele>
        <time>2016-07-04T19:35:45.000Z</time>
      </trkpt>
      <trkpt lat="48.9055" lon="2.47102">
        <ele>54.200000762939</ele>
        <time>2016-07-04T19:35:48.000Z</time>
      </trkpt>
      <trkpt lat="48.90544" lon="2.47074">
        <ele>54.400001525879</ele>
        <time>2016-07-04T19:35:51.000Z</time>
      </trkpt>
      <trkpt lat="48.90538" lon="2.47047">
        <ele>53.799999237061</ele>
        <time>2016-07-04T19:35:54.000Z</time>
      </trkpt>
      <trkpt lat="48.90532" lon="2.4702">
        <ele>53.200000762939</ele>
        <time>2016-07-04T19:35:57.000Z</time>
      </trkpt>
      <trkpt lat="48.90526" lon="2.46989">
        <ele>52.799999237061</ele>
        <time>2016-07-04T19:36:01.000Z</time>
      </trkpt>
      <trkpt lat="48.90518" lon="2.46953">
        <ele>52.400001525879</ele>
        <time>2016-07-04T19:36:05.000Z</time>
      </trkpt>
      <trkpt lat="48.90511" lon="2.46924">
        <ele>52</ele>
        <time>2016-07-04T19:36:08.000Z</time>
      </trkpt>
      <trkpt lat="48.90505" lon="2.46897">
        <ele>51.799999237061</ele>
        <time>2016-07-04T19:36:11.000Z</time>
      </trkpt>
      <trkpt lat="48.90499" lon="2.46867">
        <ele>51.400001525879</ele>
        <time>2016-07-04T19:36:14.000Z</time>
      </trkpt>
      <trkpt lat="48.90494" lon="2.46837">
        <ele>51</ele>
        <time>2016-07-04T19:36:17.000Z</time>
      </trkpt>
      <trkpt lat="48.90487" lon="2.46806">
        <ele>52</ele>
        <time>2016-07-04T19:36:20.000Z</time>
      </trkpt>
      <trkpt lat="48.90483" lon="2.46772">
        <ele>52.599998474121</ele>
        <time>2016-07-04T19:36:23.000Z</time>
      </trkpt>
      <trkpt lat="48.90479" lon="2.46738">
        <ele>53.200000762939</ele>
        <time>2016-07-04T19:36:26.000Z</time>
      </trkpt>
      <trkpt lat="48.90475" lon="2.46704">
        <ele>53.799999237061</ele>
        <time>2016-07-04T19:36:29.000Z</time>
      </trkpt>
      <trkpt lat="48.90469" lon="2.46673">
        <ele>54</ele>
        <time>2016-07-04T19:36:32.000Z</time>
      </trkpt>
      <trkpt lat="48.90462" lon="2.46641">
        <ele>54.200000762939</ele>
        <time>2016-07-04T19:36:35.000Z</time>
      </trkpt>
      <trkpt lat="48.90455" lon="2.46609">
        <ele>54.400001525879</ele>
        <time>2016-07-04T19:36:38.000Z</time>
      </trkpt>
      <trkpt lat="48.90448" lon="2.46578">
        <ele>54.599998474121</ele>
        <time>2016-07-04T19:36:41.000Z</time>
      </trkpt>
      <trkpt lat="48.90442" lon="2.46548">
        <ele>54.599998474121</ele>
        <time>2016-07-04T19:36:44.000Z</time>
      </trkpt>
      <trkpt lat="48.90433" lon="2.46523">
        <ele>54.200000762939</ele>
        <time>2016-07-04T19:36:47.000Z</time>
      </trkpt>
      <trkpt lat="48.90429" lon="2.46507">
        <ele>54</ele>
        <time>2016-07-04T19:36:49.000Z</time>
      </trkpt>
      <trkpt lat="48.90426" lon="2.46478">
        <ele>54</ele>
        <time>2016-07-04T19:36:52.000Z</time>
      </trkpt>
      <trkpt lat="48.90422" lon="2.4645">
        <ele>54</ele>
        <time>2016-07-04T19:36:55.000Z</time>
      </trkpt>
      <trkpt lat="48.90416" lon="2.46422">
        <ele>54</ele>
        <time>2016-07-04T19:36:58.000Z</time>
      </trkpt>
      <trkpt lat="48.90411" lon="2.46391">
        <ele>54</ele>
        <time>2016-07-04T19:37:01.000Z</time>
      </trkpt>
      <trkpt lat="48.90405" lon="2.46358">
        <ele>53.799999237061</ele>
        <time>2016-07-04T19:37:04.000Z</time>
      </trkpt>
      <trkpt lat="48.90398" lon="2.46323">
        <ele>53.599998474121</ele>
        <time>2016-07-04T19:37:07.000Z</time>
      </trkpt>
      <trkpt lat="48.90392" lon="2.46288">
        <ele>53.599998474121</ele>
        <time>2016-07-04T19:37:10.000Z</time>
      </trkpt>
      <trkpt lat="48.90385" lon="2.46252">
        <ele>54</ele>
        <time>2016-07-04T19:37:13.000Z</time>
      </trkpt>
      <trkpt lat="48.90377" lon="2.46216">
        <ele>53.599998474121</ele>
        <time>2016-07-04T19:37:16.000Z</time>
      </trkpt>
      <trkpt lat="48.90371" lon="2.46178">
        <ele>53.200000762939</ele>
        <time>2016-07-04T19:37:19.000Z</time>
      </trkpt>
      <trkpt lat="48.90363" lon="2.46142">
        <ele>53</ele>
        <time>2016-07-04T19:37:22.000Z</time>
      </trkpt>
      <trkpt lat="48.90356" lon="2.46109">
        <ele>53</ele>
        <time>2016-07-04T19:37:25.000Z</time>
      </trkpt>
      <trkpt lat="48.90348" lon="2.46071">
        <ele>53.200000762939</ele>
        <time>2016-07-04T19:37:28.000Z</time>
      </trkpt>
      <trkpt lat="48.90342" lon="2.46033">
        <ele>53.599998474121</ele>
        <time>2016-07-04T19:37:31.000Z</time>
      </trkpt>
      <trkpt lat="48.90335" lon="2.45996">
        <ele>54</ele>
        <time>2016-07-04T19:37:34.000Z</time>
      </trkpt>
      <trkpt lat="48.90328" lon="2.4596">
        <ele>53.599998474121</ele>
        <time>2016-07-04T19:37:37.000Z</time>
      </trkpt>
      <trkpt lat="48.90321" lon="2.45925">
        <ele>53.599998474121</ele>
        <time>2016-07-04T19:37:40.000Z</time>
      </trkpt>
      <trkpt lat="48.90313" lon="2.45891">
        <ele>53.200000762939</ele>
        <time>2016-07-04T19:37:43.000Z</time>
      </trkpt>
      <trkpt lat="48.90308" lon="2.45863">
        <ele>52.799999237061</ele>
        <time>2016-07-04T19:37:46.000Z</time>
      </trkpt>
      <trkpt lat="48.90304" lon="2.45835">
        <ele>53</ele>
        <time>2016-07-04T19:37:49.000Z</time>
      </trkpt>
      <trkpt lat="48.903" lon="2.45805">
        <ele>53.599998474121</ele>
        <time>2016-07-04T19:37:53.000Z</time>
      </trkpt>
      <trkpt lat="48.90299" lon="2.45795">
        <ele>53.799999237061</ele>
        <time>2016-07-04T19:37:55.000Z</time>
      </trkpt>
      <trkpt lat="48.90296" lon="2.45779">
        <ele>54.200000762939</ele>
        <time>2016-07-04T19:38:01.000Z</time>
      </trkpt>
      <trkpt lat="48.90297" lon="2.4578">
        <ele>54.200000762939</ele>
        <time>2016-07-04T19:38:02.000Z</time>
      </trkpt>
      <trkpt lat="48.90298" lon="2.45791">
        <ele>53.799999237061</ele>
        <time>2016-07-04T19:40:08.000Z</time>
      </trkpt>
      <trkpt lat="48.90292" lon="2.45773">
        <ele>54.200000762939</ele>
        <time>2016-07-04T19:41:00.000Z</time>
      </trkpt>
      <trkpt lat="48.90286" lon="2.45743">
        <ele>54</ele>
        <time>2016-07-04T19:41:10.000Z</time>
      </trkpt>
      <trkpt lat="48.9028" lon="2.45714">
        <ele>53.599998474121</ele>
        <time>2016-07-04T19:41:16.000Z</time>
      </trkpt>
      <trkpt lat="48.90273" lon="2.45681">
        <ele>53.200000762939</ele>
        <time>2016-07-04T19:41:21.000Z</time>
      </trkpt>
      <trkpt lat="48.9027" lon="2.45667">
        <ele>53</ele>
        <time>2016-07-04T19:41:23.000Z</time>
      </trkpt>
      <trkpt lat="48.90262" lon="2.45636">
        <ele>52.400001525879</ele>
        <time>2016-07-04T19:41:27.000Z</time>
      </trkpt>
      <trkpt lat="48.90255" lon="2.45605">
        <ele>51.799999237061</ele>
        <time>2016-07-04T19:41:31.000Z</time>
      </trkpt>
      <trkpt lat="48.90249" lon="2.45575">
        <ele>51.200000762939</ele>
        <time>2016-07-04T19:41:35.000Z</time>
      </trkpt>
      <trkpt lat="48.90244" lon="2.45547">
        <ele>51.400001525879</ele>
        <time>2016-07-04T19:41:39.000Z</time>
      </trkpt>
      <trkpt lat="48.90238" lon="2.4552">
        <ele>52</ele>
        <time>2016-07-04T19:41:43.000Z</time>
      </trkpt>
      <trkpt lat="48.90232" lon="2.45492">
        <ele>52.400001525879</ele>
        <time>2016-07-04T19:41:47.000Z</time>
      </trkpt>
      <trkpt lat="48.90229" lon="2.45478">
        <ele>52.200000762939</ele>
        <time>2016-07-04T19:41:49.000Z</time>
      </trkpt>
      <trkpt lat="48.90222" lon="2.45453">
        <ele>51.799999237061</ele>
        <time>2016-07-04T19:41:53.000Z</time>
      </trkpt>
      <trkpt lat="48.90216" lon="2.45426">
        <ele>51.599998474121</ele>
        <time>2016-07-04T19:41:57.000Z</time>
      </trkpt>
      <trkpt lat="48.90211" lon="2.45399">
        <ele>51.400001525879</ele>
        <time>2016-07-04T19:42:01.000Z</time>
      </trkpt>
      <trkpt lat="48.90207" lon="2.45371">
        <ele>51.400001525879</ele>
        <time>2016-07-04T19:42:05.000Z</time>
      </trkpt>
      <trkpt lat="48.90201" lon="2.45343">
        <ele>51.200000762939</ele>
        <time>2016-07-04T19:42:09.000Z</time>
      </trkpt>
      <trkpt lat="48.90196" lon="2.45315">
        <ele>51.200000762939</ele>
        <time>2016-07-04T19:42:13.000Z</time>
      </trkpt>
      <trkpt lat="48.90189" lon="2.45286">
        <ele>51</ele>
        <time>2016-07-04T19:42:17.000Z</time>
      </trkpt>
      <trkpt lat="48.90182" lon="2.45257">
        <ele>51</ele>
        <time>2016-07-04T19:42:21.000Z</time>
      </trkpt>
      <trkpt lat="48.90176" lon="2.45227">
        <ele>51.200000762939</ele>
        <time>2016-07-04T19:42:25.000Z</time>
      </trkpt>
      <trkpt lat="48.90167" lon="2.45196">
        <ele>51.200000762939</ele>
        <time>2016-07-04T19:42:29.000Z</time>
      </trkpt>
      <trkpt lat="48.9016" lon="2.45166">
        <ele>51.400001525879</ele>
        <time>2016-07-04T19:42:33.000Z</time>
      </trkpt>
      <trkpt lat="48.90154" lon="2.45134">
        <ele>51</ele>
        <time>2016-07-04T19:42:37.000Z</time>
      </trkpt>
      <trkpt lat="48.9015" lon="2.45103">
        <ele>51.200000762939</ele>
        <time>2016-07-04T19:42:41.000Z</time>
      </trkpt>
      <trkpt lat="48.90145" lon="2.45072">
        <ele>51.400001525879</ele>
        <time>2016-07-04T19:42:45.000Z</time>
      </trkpt>
      <trkpt lat="48.90137" lon="2.45042">
        <ele>51.400001525879</ele>
        <time>2016-07-04T19:42:49.000Z</time>
      </trkpt>
      <trkpt lat="48.90132" lon="2.45008">
        <ele>51.799999237061</ele>
        <time>2016-07-04T19:42:53.000Z</time>
      </trkpt>
      <trkpt lat="48.90125" lon="2.44978">
        <ele>51.799999237061</ele>
        <time>2016-07-04T19:42:56.000Z</time>
      </trkpt>
      <trkpt lat="48.90119" lon="2.44947">
        <ele>51.599998474121</ele>
        <time>2016-07-04T19:42:59.000Z</time>
      </trkpt>
      <trkpt lat="48.90115" lon="2.44914">
        <ele>51.200000762939</ele>
        <time>2016-07-04T19:43:02.000Z</time>
      </trkpt>
      <trkpt lat="48.9011" lon="2.44881">
        <ele>50.200000762939</ele>
        <time>2016-07-04T19:43:05.000Z</time>
      </trkpt>
      <trkpt lat="48.90104" lon="2.44847">
        <ele>49.400001525879</ele>
        <time>2016-07-04T19:43:08.000Z</time>
      </trkpt>
      <trkpt lat="48.90097" lon="2.44815">
        <ele>49.400001525879</ele>
        <time>2016-07-04T19:43:11.000Z</time>
      </trkpt>
      <trkpt lat="48.9009" lon="2.44783">
        <ele>49.799999237061</ele>
        <time>2016-07-04T19:43:14.000Z</time>
      </trkpt>
      <trkpt lat="48.90084" lon="2.4475">
        <ele>50.200000762939</ele>
        <time>2016-07-04T19:43:17.000Z</time>
      </trkpt>
      <trkpt lat="48.90078" lon="2.44717">
        <ele>50</ele>
        <time>2016-07-04T19:43:20.000Z</time>
      </trkpt>
      <trkpt lat="48.90072" lon="2.44683">
        <ele>50.400001525879</ele>
        <time>2016-07-04T19:43:23.000Z</time>
      </trkpt>
      <trkpt lat="48.90065" lon="2.44652">
        <ele>50.599998474121</ele>
        <time>2016-07-04T19:43:26.000Z</time>
      </trkpt>
      <trkpt lat="48.90058" lon="2.44621">
        <ele>51</ele>
        <time>2016-07-04T19:43:29.000Z</time>
      </trkpt>
      <trkpt lat="48.90052" lon="2.44603">
        <ele>51</ele>
        <time>2016-07-04T19:43:31.000Z</time>
      </trkpt>
      <trkpt lat="48.90043" lon="2.44577">
        <ele>50.799999237061</ele>
        <time>2016-07-04T19:43:34.000Z</time>
      </trkpt>
      <trkpt lat="48.90035" lon="2.44549">
        <ele>51.599998474121</ele>
        <time>2016-07-04T19:43:37.000Z</time>
      </trkpt>
      <trkpt lat="48.90028" lon="2.44521">
        <ele>52.400001525879</ele>
        <time>2016-07-04T19:43:40.000Z</time>
      </trkpt>
      <trkpt lat="48.90021" lon="2.44491">
        <ele>53</ele>
        <time>2016-07-04T19:43:43.000Z</time>
      </trkpt>
      <trkpt lat="48.90014" lon="2.4446">
        <ele>53</ele>
        <time>2016-07-04T19:43:46.000Z</time>
      </trkpt>
      <trkpt lat="48.90007" lon="2.44428">
        <ele>53</ele>
        <time>2016-07-04T19:43:49.000Z</time>
      </trkpt>
      <trkpt lat="48.90002" lon="2.44398">
        <ele>53.200000762939</ele>
        <time>2016-07-04T19:43:52.000Z</time>
      </trkpt>
      <trkpt lat="48.89996" lon="2.44367">
        <ele>53.400001525879</ele>
        <time>2016-07-04T19:43:55.000Z</time>
      </trkpt>
      <trkpt lat="48.8999" lon="2.44336">
        <ele>53.400001525879</ele>
        <time>2016-07-04T19:43:58.000Z</time>
      </trkpt>
      <trkpt lat="48.89984" lon="2.44306">
        <ele>53.400001525879</ele>
        <time>2016-07-04T19:44:01.000Z</time>
      </trkpt>
      <trkpt lat="48.89978" lon="2.44274">
        <ele>53.599998474121</ele>
        <time>2016-07-04T19:44:04.000Z</time>
      </trkpt>
      <trkpt lat="48.89972" lon="2.44243">
        <ele>53.799999237061</ele>
        <time>2016-07-04T19:44:07.000Z</time>
      </trkpt>
      <trkpt lat="48.89967" lon="2.44215">
        <ele>54.599998474121</ele>
        <time>2016-07-04T19:44:10.000Z</time>
      </trkpt>
      <trkpt lat="48.89961" lon="2.44188">
        <ele>55.200000762939</ele>
        <time>2016-07-04T19:44:13.000Z</time>
      </trkpt>
      <trkpt lat="48.89956" lon="2.44161">
        <ele>55.799999237061</ele>
        <time>2016-07-04T19:44:16.000Z</time>
      </trkpt>
      <trkpt lat="48.89951" lon="2.44135">
        <ele>55.799999237061</ele>
        <time>2016-07-04T19:44:19.000Z</time>
      </trkpt>
      <trkpt lat="48.89946" lon="2.44107">
        <ele>56</ele>
        <time>2016-07-04T19:44:22.000Z</time>
      </trkpt>
      <trkpt lat="48.89943" lon="2.44098">
        <ele>56</ele>
        <time>2016-07-04T19:44:23.000Z</time>
      </trkpt>
      <trkpt lat="48.89938" lon="2.44078">
        <ele>56</ele>
        <time>2016-07-04T19:44:25.000Z</time>
      </trkpt>
      <trkpt lat="48.89932" lon="2.44045">
        <ele>56.200000762939</ele>
        <time>2016-07-04T19:44:28.000Z</time>
      </trkpt>
      <trkpt lat="48.8993" lon="2.44034">
        <ele>56.400001525879</ele>
        <time>2016-07-04T19:44:29.000Z</time>
      </trkpt>
      <trkpt lat="48.89923" lon="2.44001">
        <ele>56.599998474121</ele>
        <time>2016-07-04T19:44:32.000Z</time>
      </trkpt>
      <trkpt lat="48.89917" lon="2.43967">
        <ele>56</ele>
        <time>2016-07-04T19:44:35.000Z</time>
      </trkpt>
      <trkpt lat="48.8991" lon="2.43935">
        <ele>55.599998474121</ele>
        <time>2016-07-04T19:44:38.000Z</time>
      </trkpt>
      <trkpt lat="48.89905" lon="2.43903">
        <ele>55</ele>
        <time>2016-07-04T19:44:41.000Z</time>
      </trkpt>
      <trkpt lat="48.89899" lon="2.43872">
        <ele>54.400001525879</ele>
        <time>2016-07-04T19:44:44.000Z</time>
      </trkpt>
      <trkpt lat="48.89894" lon="2.43839">
        <ele>54.599998474121</ele>
        <time>2016-07-04T19:44:47.000Z</time>
      </trkpt>
      <trkpt lat="48.89887" lon="2.43806">
        <ele>55</ele>
        <time>2016-07-04T19:44:50.000Z</time>
      </trkpt>
      <trkpt lat="48.8988" lon="2.43772">
        <ele>55.400001525879</ele>
        <time>2016-07-04T19:44:53.000Z</time>
      </trkpt>
      <trkpt lat="48.89872" lon="2.43739">
        <ele>55.599998474121</ele>
        <time>2016-07-04T19:44:56.000Z</time>
      </trkpt>
      <trkpt lat="48.89865" lon="2.43708">
        <ele>55.400001525879</ele>
        <time>2016-07-04T19:44:59.000Z</time>
      </trkpt>
      <trkpt lat="48.89858" lon="2.4368">
        <ele>55.200000762939</ele>
        <time>2016-07-04T19:45:02.000Z</time>
      </trkpt>
      <trkpt lat="48.8985" lon="2.43654">
        <ele>55</ele>
        <time>2016-07-04T19:45:05.000Z</time>
      </trkpt>
      <trkpt lat="48.89849" lon="2.43646">
        <ele>55</ele>
        <time>2016-07-04T19:45:06.000Z</time>
      </trkpt>
      <trkpt lat="48.89846" lon="2.4362">
        <ele>55.200000762939</ele>
        <time>2016-07-04T19:45:09.000Z</time>
      </trkpt>
      <trkpt lat="48.8984" lon="2.43587">
        <ele>55.200000762939</ele>
        <time>2016-07-04T19:45:13.000Z</time>
      </trkpt>
      <trkpt lat="48.89838" lon="2.4358">
        <ele>55.200000762939</ele>
        <time>2016-07-04T19:45:14.000Z</time>
      </trkpt>
      <trkpt lat="48.89827" lon="2.43553">
        <ele>55.799999237061</ele>
        <time>2016-07-04T19:45:19.000Z</time>
      </trkpt>
      <trkpt lat="48.89824" lon="2.43543">
        <ele>55.599998474121</ele>
        <time>2016-07-04T19:45:21.000Z</time>
      </trkpt>
      <trkpt lat="48.89813" lon="2.43497">
        <ele>55.599998474121</ele>
        <time>2016-07-04T19:45:28.000Z</time>
      </trkpt>
      <trkpt lat="48.8981" lon="2.43466">
        <ele>55.200000762939</ele>
        <time>2016-07-04T19:45:31.000Z</time>
      </trkpt>
      <trkpt lat="48.89808" lon="2.43432">
        <ele>55.400001525879</ele>
        <time>2016-07-04T19:45:34.000Z</time>
      </trkpt>
      <trkpt lat="48.8981" lon="2.43421">
        <ele>55.400001525879</ele>
        <time>2016-07-04T19:45:35.000Z</time>
      </trkpt>
      <trkpt lat="48.8981" lon="2.43391">
        <ele>55.599998474121</ele>
        <time>2016-07-04T19:45:38.000Z</time>
      </trkpt>
      <trkpt lat="48.89805" lon="2.43361">
        <ele>55.599998474121</ele>
        <time>2016-07-04T19:45:41.000Z</time>
      </trkpt>
      <trkpt lat="48.898" lon="2.43332">
        <ele>55.599998474121</ele>
        <time>2016-07-04T19:45:44.000Z</time>
      </trkpt>
      <trkpt lat="48.89793" lon="2.43299">
        <ele>55</ele>
        <time>2016-07-04T19:45:47.000Z</time>
      </trkpt>
      <trkpt lat="48.89784" lon="2.43267">
        <ele>54.200000762939</ele>
        <time>2016-07-04T19:45:50.000Z</time>
      </trkpt>
      <trkpt lat="48.89776" lon="2.43235">
        <ele>54</ele>
        <time>2016-07-04T19:45:53.000Z</time>
      </trkpt>
      <trkpt lat="48.89769" lon="2.43203">
        <ele>54.599998474121</ele>
        <time>2016-07-04T19:45:56.000Z</time>
      </trkpt>
      <trkpt lat="48.89762" lon="2.4317">
        <ele>55.200000762939</ele>
        <time>2016-07-04T19:45:59.000Z</time>
      </trkpt>
      <trkpt lat="48.89755" lon="2.43138">
        <ele>55.400001525879</ele>
        <time>2016-07-04T19:46:02.000Z</time>
      </trkpt>
      <trkpt lat="48.89748" lon="2.43106">
        <ele>55.200000762939</ele>
        <time>2016-07-04T19:46:05.000Z</time>
      </trkpt>
      <trkpt lat="48.89743" lon="2.43075">
        <ele>55</ele>
        <time>2016-07-04T19:46:08.000Z</time>
      </trkpt>
      <trkpt lat="48.89736" lon="2.43042">
        <ele>54.400001525879</ele>
        <time>2016-07-04T19:46:11.000Z</time>
      </trkpt>
      <trkpt lat="48.8973" lon="2.43011">
        <ele>54.200000762939</ele>
        <time>2016-07-04T19:46:14.000Z</time>
      </trkpt>
      <trkpt lat="48.89723" lon="2.42977">
        <ele>53.200000762939</ele>
        <time>2016-07-04T19:46:17.000Z</time>
      </trkpt>
      <trkpt lat="48.89717" lon="2.42941">
        <ele>51.599998474121</ele>
        <time>2016-07-04T19:46:20.000Z</time>
      </trkpt>
      <trkpt lat="48.89712" lon="2.42907">
        <ele>51</ele>
        <time>2016-07-04T19:46:23.000Z</time>
      </trkpt>
      <trkpt lat="48.89706" lon="2.42874">
        <ele>51.400001525879</ele>
        <time>2016-07-04T19:46:26.000Z</time>
      </trkpt>
      <trkpt lat="48.89701" lon="2.42844">
        <ele>51.799999237061</ele>
        <time>2016-07-04T19:46:29.000Z</time>
      </trkpt>
      <trkpt lat="48.89695" lon="2.42814">
        <ele>52</ele>
        <time>2016-07-04T19:46:32.000Z</time>
      </trkpt>
      <trkpt lat="48.8969" lon="2.42784">
        <ele>52.599998474121</ele>
        <time>2016-07-04T19:46:35.000Z</time>
      </trkpt>
      <trkpt lat="48.89685" lon="2.42755">
        <ele>53</ele>
        <time>2016-07-04T19:46:38.000Z</time>
      </trkpt>
      <trkpt lat="48.89681" lon="2.42728">
        <ele>53.200000762939</ele>
        <time>2016-07-04T19:46:41.000Z</time>
      </trkpt>
      <trkpt lat="48.89675" lon="2.42701">
        <ele>53.400001525879</ele>
        <time>2016-07-04T19:46:44.000Z</time>
      </trkpt>
      <trkpt lat="48.89669" lon="2.42667">
        <ele>53.400001525879</ele>
        <time>2016-07-04T19:46:48.000Z</time>
      </trkpt>
      <trkpt lat="48.89666" lon="2.42635">
        <ele>53</ele>
        <time>2016-07-04T19:46:52.000Z</time>
      </trkpt>
      <trkpt lat="48.89665" lon="2.4262">
        <ele>52.799999237061</ele>
        <time>2016-07-04T19:46:54.000Z</time>
      </trkpt>
      <trkpt lat="48.89662" lon="2.42592">
        <ele>52.400001525879</ele>
        <time>2016-07-04T19:46:58.000Z</time>
      </trkpt>
      <trkpt lat="48.89659" lon="2.42567">
        <ele>52.200000762939</ele>
        <time>2016-07-04T19:47:02.000Z</time>
      </trkpt>
      <trkpt lat="48.89658" lon="2.4255">
        <ele>52</ele>
        <time>2016-07-04T19:47:05.000Z</time>
      </trkpt>
      <trkpt lat="48.89658" lon="2.42543">
        <ele>52</ele>
        <time>2016-07-04T19:47:07.000Z</time>
      </trkpt>
      <trkpt lat="48.89659" lon="2.42539">
        <ele>51.799999237061</ele>
        <time>2016-07-04T19:47:10.000Z</time>
      </trkpt>
      <trkpt lat="48.89659" lon="2.42542">
        <ele>51.799999237061</ele>
        <time>2016-07-04T19:48:57.000Z</time>
      </trkpt>
      <trkpt lat="48.89663" lon="2.42538">
        <ele>51.799999237061</ele>
        <time>2016-07-04T19:49:15.000Z</time>
      </trkpt>
      <trkpt lat="48.89656" lon="2.42553">
        <ele>52</ele>
        <time>2016-07-04T19:49:24.000Z</time>
      </trkpt>
      <trkpt lat="48.89664" lon="2.42538">
        <ele>51.799999237061</ele>
        <time>2016-07-04T19:49:57.000Z</time>
      </trkpt>
      <trkpt lat="48.89671" lon="2.42523">
        <ele>51.599998474121</ele>
        <time>2016-07-04T19:50:03.000Z</time>
      </trkpt>
      <trkpt lat="48.89672" lon="2.42494">
        <ele>51.200000762939</ele>
        <time>2016-07-04T19:50:09.000Z</time>
      </trkpt>
      <trkpt lat="48.89672" lon="2.42465">
        <ele>50.799999237061</ele>
        <time>2016-07-04T19:50:13.000Z</time>
      </trkpt>
      <trkpt lat="48.89671" lon="2.42435">
        <ele>50.200000762939</ele>
        <time>2016-07-04T19:50:17.000Z</time>
      </trkpt>
      <trkpt lat="48.89673" lon="2.42419">
        <ele>49.599998474121</ele>
        <time>2016-07-04T19:50:19.000Z</time>
      </trkpt>
      <trkpt lat="48.89671" lon="2.42388">
        <ele>49.799999237061</ele>
        <time>2016-07-04T19:50:23.000Z</time>
      </trkpt>
      <trkpt lat="48.8967" lon="2.42381">
        <ele>49.799999237061</ele>
        <time>2016-07-04T19:50:24.000Z</time>
      </trkpt>
      <trkpt lat="48.8967" lon="2.42349">
        <ele>50.200000762939</ele>
        <time>2016-07-04T19:50:28.000Z</time>
      </trkpt>
      <trkpt lat="48.89667" lon="2.42316">
        <ele>50.599998474121</ele>
        <time>2016-07-04T19:50:32.000Z</time>
      </trkpt>
      <trkpt lat="48.89667" lon="2.42307">
        <ele>50.599998474121</ele>
        <time>2016-07-04T19:50:33.000Z</time>
      </trkpt>
      <trkpt lat="48.89668" lon="2.42289">
        <ele>50</ele>
        <time>2016-07-04T19:50:35.000Z</time>
      </trkpt>
      <trkpt lat="48.89668" lon="2.42255">
        <ele>49.200000762939</ele>
        <time>2016-07-04T19:50:39.000Z</time>
      </trkpt>
      <trkpt lat="48.89667" lon="2.4223">
        <ele>49.200000762939</ele>
        <time>2016-07-04T19:50:42.000Z</time>
      </trkpt>
      <trkpt lat="48.89665" lon="2.42202">
        <ele>49.200000762939</ele>
        <time>2016-07-04T19:50:46.000Z</time>
      </trkpt>
      <trkpt lat="48.89665" lon="2.42173">
        <ele>49.200000762939</ele>
        <time>2016-07-04T19:50:50.000Z</time>
      </trkpt>
      <trkpt lat="48.89664" lon="2.42146">
        <ele>49.200000762939</ele>
        <time>2016-07-04T19:50:54.000Z</time>
      </trkpt>
      <trkpt lat="48.89663" lon="2.42117">
        <ele>49.200000762939</ele>
        <time>2016-07-04T19:50:58.000Z</time>
      </trkpt>
      <trkpt lat="48.89662" lon="2.42089">
        <ele>49.400001525879</ele>
        <time>2016-07-04T19:51:02.000Z</time>
      </trkpt>
      <trkpt lat="48.89662" lon="2.42065">
        <ele>49.400001525879</ele>
        <time>2016-07-04T19:51:06.000Z</time>
      </trkpt>
      <trkpt lat="48.89661" lon="2.42032">
        <ele>49.400001525879</ele>
        <time>2016-07-04T19:51:11.000Z</time>
      </trkpt>
      <trkpt lat="48.8966" lon="2.42">
        <ele>49.400001525879</ele>
        <time>2016-07-04T19:51:16.000Z</time>
      </trkpt>
      <trkpt lat="48.8966" lon="2.41969">
        <ele>49.400001525879</ele>
        <time>2016-07-04T19:51:21.000Z</time>
      </trkpt>
      <trkpt lat="48.89659" lon="2.41956">
        <ele>49.400001525879</ele>
        <time>2016-07-04T19:51:23.000Z</time>
      </trkpt>
      <trkpt lat="48.89659" lon="2.41927">
        <ele>49.400001525879</ele>
        <time>2016-07-04T19:51:27.000Z</time>
      </trkpt>
      <trkpt lat="48.89659" lon="2.4192">
        <ele>49.599998474121</ele>
        <time>2016-07-04T19:51:28.000Z</time>
      </trkpt>
      <trkpt lat="48.89658" lon="2.4189">
        <ele>50.200000762939</ele>
        <time>2016-07-04T19:51:32.000Z</time>
      </trkpt>
      <trkpt lat="48.89657" lon="2.4186">
        <ele>50.400001525879</ele>
        <time>2016-07-04T19:51:36.000Z</time>
      </trkpt>
      <trkpt lat="48.89657" lon="2.41829">
        <ele>50.400001525879</ele>
        <time>2016-07-04T19:51:40.000Z</time>
      </trkpt>
      <trkpt lat="48.89656" lon="2.418">
        <ele>51.200000762939</ele>
        <time>2016-07-04T19:51:44.000Z</time>
      </trkpt>
      <trkpt lat="48.89653" lon="2.41766">
        <ele>52</ele>
        <time>2016-07-04T19:51:49.000Z</time>
      </trkpt>
      <trkpt lat="48.89651" lon="2.41747">
        <ele>52.200000762939</ele>
        <time>2016-07-04T19:51:52.000Z</time>
      </trkpt>
      <trkpt lat="48.8965" lon="2.41727">
        <ele>52.400001525879</ele>
        <time>2016-07-04T19:51:55.000Z</time>
      </trkpt>
      <trkpt lat="48.89648" lon="2.41697">
        <ele>52.599998474121</ele>
        <time>2016-07-04T19:51:59.000Z</time>
      </trkpt>
      <trkpt lat="48.89647" lon="2.4169">
        <ele>52.599998474121</ele>
        <time>2016-07-04T19:52:00.000Z</time>
      </trkpt>
      <trkpt lat="48.89644" lon="2.41659">
        <ele>52.799999237061</ele>
        <time>2016-07-04T19:52:04.000Z</time>
      </trkpt>
      <trkpt lat="48.89644" lon="2.41626">
        <ele>52.400001525879</ele>
        <time>2016-07-04T19:52:08.000Z</time>
      </trkpt>
      <trkpt lat="48.89643" lon="2.41595">
        <ele>52.200000762939</ele>
        <time>2016-07-04T19:52:12.000Z</time>
      </trkpt>
      <trkpt lat="48.89643" lon="2.41564">
        <ele>51.400001525879</ele>
        <time>2016-07-04T19:52:16.000Z</time>
      </trkpt>
      <trkpt lat="48.89645" lon="2.41532">
        <ele>50.799999237061</ele>
        <time>2016-07-04T19:52:21.000Z</time>
      </trkpt>
      <trkpt lat="48.89646" lon="2.41522">
        <ele>50.799999237061</ele>
        <time>2016-07-04T19:52:23.000Z</time>
      </trkpt>
      <trkpt lat="48.89648" lon="2.41512">
        <ele>50.799999237061</ele>
        <time>2016-07-04T19:52:27.000Z</time>
      </trkpt>
      <trkpt lat="48.89638" lon="2.41511">
        <ele>51.400001525879</ele>
        <time>2016-07-04T19:53:06.000Z</time>
      </trkpt>
      <trkpt lat="48.8962" lon="2.41509">
        <ele>52.200000762939</ele>
        <time>2016-07-04T19:53:10.000Z</time>
      </trkpt>
      <trkpt lat="48.89606" lon="2.41509">
        <ele>53.200000762939</ele>
        <time>2016-07-04T19:53:13.000Z</time>
      </trkpt>
      <trkpt lat="48.89585" lon="2.41506">
        <ele>53.400001525879</ele>
        <time>2016-07-04T19:53:18.000Z</time>
      </trkpt>
      <trkpt lat="48.89577" lon="2.41505">
        <ele>53.599998474121</ele>
        <time>2016-07-04T19:53:20.000Z</time>
      </trkpt>
      <trkpt lat="48.8957" lon="2.41503">
        <ele>53.599998474121</ele>
        <time>2016-07-04T19:53:22.000Z</time>
      </trkpt>
      <trkpt lat="48.8956" lon="2.41497">
        <ele>53.599998474121</ele>
        <time>2016-07-04T19:53:26.000Z</time>
      </trkpt>
      <trkpt lat="48.89554" lon="2.41498">
        <ele>53.599998474121</ele>
        <time>2016-07-04T19:53:29.000Z</time>
      </trkpt>
      <trkpt lat="48.89542" lon="2.41482">
        <ele>53.200000762939</ele>
        <time>2016-07-04T19:53:37.000Z</time>
      </trkpt>
      <trkpt lat="48.89541" lon="2.41473">
        <ele>52.799999237061</ele>
        <time>2016-07-04T19:53:39.000Z</time>
      </trkpt>
      <trkpt lat="48.89536" lon="2.41441">
        <ele>51.799999237061</ele>
        <time>2016-07-04T19:53:45.000Z</time>
      </trkpt>
      <trkpt lat="48.89532" lon="2.41411">
        <ele>51.200000762939</ele>
        <time>2016-07-04T19:53:50.000Z</time>
      </trkpt>
      <trkpt lat="48.89528" lon="2.41383">
        <ele>52.200000762939</ele>
        <time>2016-07-04T19:53:54.000Z</time>
      </trkpt>
      <trkpt lat="48.89524" lon="2.41355">
        <ele>53.200000762939</ele>
        <time>2016-07-04T19:53:58.000Z</time>
      </trkpt>
      <trkpt lat="48.89523" lon="2.41324">
        <ele>54</ele>
        <time>2016-07-04T19:54:02.000Z</time>
      </trkpt>
      <trkpt lat="48.89521" lon="2.41289">
        <ele>54</ele>
        <time>2016-07-04T19:54:06.000Z</time>
      </trkpt>
      <trkpt lat="48.89518" lon="2.41259">
        <ele>54.200000762939</ele>
        <time>2016-07-04T19:54:09.000Z</time>
      </trkpt>
      <trkpt lat="48.89517" lon="2.41223">
        <ele>54.599998474121</ele>
        <time>2016-07-04T19:54:13.000Z</time>
      </trkpt>
      <trkpt lat="48.89516" lon="2.41196">
        <ele>55</ele>
        <time>2016-07-04T19:54:16.000Z</time>
      </trkpt>
      <trkpt lat="48.89517" lon="2.41187">
        <ele>55.200000762939</ele>
        <time>2016-07-04T19:54:17.000Z</time>
      </trkpt>
      <trkpt lat="48.89519" lon="2.41153">
        <ele>55.200000762939</ele>
        <time>2016-07-04T19:54:21.000Z</time>
      </trkpt>
      <trkpt lat="48.89521" lon="2.4113">
        <ele>55.200000762939</ele>
        <time>2016-07-04T19:54:24.000Z</time>
      </trkpt>
      <trkpt lat="48.89524" lon="2.41099">
        <ele>55</ele>
        <time>2016-07-04T19:54:28.000Z</time>
      </trkpt>
      <trkpt lat="48.89527" lon="2.41065">
        <ele>55.200000762939</ele>
        <time>2016-07-04T19:54:32.000Z</time>
      </trkpt>
      <trkpt lat="48.89529" lon="2.41031">
        <ele>55.599998474121</ele>
        <time>2016-07-04T19:54:36.000Z</time>
      </trkpt>
      <trkpt lat="48.8953" lon="2.40997">
        <ele>55.799999237061</ele>
        <time>2016-07-04T19:54:40.000Z</time>
      </trkpt>
      <trkpt lat="48.8953" lon="2.40967">
        <ele>55.799999237061</ele>
        <time>2016-07-04T19:54:44.000Z</time>
      </trkpt>
      <trkpt lat="48.89531" lon="2.40939">
        <ele>55.799999237061</ele>
        <time>2016-07-04T19:54:48.000Z</time>
      </trkpt>
      <trkpt lat="48.89533" lon="2.40905">
        <ele>55.799999237061</ele>
        <time>2016-07-04T19:54:52.000Z</time>
      </trkpt>
      <trkpt lat="48.89535" lon="2.40887">
        <ele>55.400001525879</ele>
        <time>2016-07-04T19:54:54.000Z</time>
      </trkpt>
      <trkpt lat="48.89537" lon="2.40853">
        <ele>54.599998474121</ele>
        <time>2016-07-04T19:54:58.000Z</time>
      </trkpt>
      <trkpt lat="48.89541" lon="2.40822">
        <ele>55.200000762939</ele>
        <time>2016-07-04T19:55:02.000Z</time>
      </trkpt>
      <trkpt lat="48.89542" lon="2.40816">
        <ele>55.599998474121</ele>
        <time>2016-07-04T19:55:03.000Z</time>
      </trkpt>
      <trkpt lat="48.89548" lon="2.40784">
        <ele>56.599998474121</ele>
        <time>2016-07-04T19:55:07.000Z</time>
      </trkpt>
      <trkpt lat="48.8955" lon="2.40755">
        <ele>57</ele>
        <time>2016-07-04T19:55:11.000Z</time>
      </trkpt>
      <trkpt lat="48.89552" lon="2.40745">
        <ele>57</ele>
        <time>2016-07-04T19:55:13.000Z</time>
      </trkpt>
      <trkpt lat="48.89557" lon="2.40717">
        <ele>57.200000762939</ele>
        <time>2016-07-04T19:55:19.000Z</time>
      </trkpt>
      <trkpt lat="48.89559" lon="2.40708">
        <ele>57.200000762939</ele>
        <time>2016-07-04T19:55:21.000Z</time>
      </trkpt>
      <trkpt lat="48.8956" lon="2.40685">
        <ele>57.200000762939</ele>
        <time>2016-07-04T19:55:27.000Z</time>
      </trkpt>
      <trkpt lat="48.8956" lon="2.40677">
        <ele>57</ele>
        <time>2016-07-04T19:55:29.000Z</time>
      </trkpt>
      <trkpt lat="48.89561" lon="2.40648">
        <ele>57</ele>
        <time>2016-07-04T19:55:37.000Z</time>
      </trkpt>
      <trkpt lat="48.89561" lon="2.40633">
        <ele>56.799999237061</ele>
        <time>2016-07-04T19:55:41.000Z</time>
      </trkpt>
      <trkpt lat="48.89545" lon="2.40617">
        <ele>56.599998474121</ele>
        <time>2016-07-04T19:55:49.000Z</time>
      </trkpt>
      <trkpt lat="48.89541" lon="2.40612">
        <ele>56.400001525879</ele>
        <time>2016-07-04T19:55:51.000Z</time>
      </trkpt>
      <trkpt lat="48.89539" lon="2.40595">
        <ele>56.400001525879</ele>
        <time>2016-07-04T19:55:55.000Z</time>
      </trkpt>
      <trkpt lat="48.89543" lon="2.40561">
        <ele>55.799999237061</ele>
        <time>2016-07-04T19:56:00.000Z</time>
      </trkpt>
      <trkpt lat="48.89545" lon="2.40543">
        <ele>55.599998474121</ele>
        <time>2016-07-04T19:56:02.000Z</time>
      </trkpt>
      <trkpt lat="48.89551" lon="2.40515">
        <ele>56</ele>
        <time>2016-07-04T19:56:05.000Z</time>
      </trkpt>
      <trkpt lat="48.89552" lon="2.40506">
        <ele>56.599998474121</ele>
        <time>2016-07-04T19:56:06.000Z</time>
      </trkpt>
      <trkpt lat="48.89554" lon="2.40474">
        <ele>57.200000762939</ele>
        <time>2016-07-04T19:56:10.000Z</time>
      </trkpt>
      <trkpt lat="48.89558" lon="2.40442">
        <ele>57.400001525879</ele>
        <time>2016-07-04T19:56:14.000Z</time>
      </trkpt>
      <trkpt lat="48.8956" lon="2.40426">
        <ele>57.400001525879</ele>
        <time>2016-07-04T19:56:16.000Z</time>
      </trkpt>
      <trkpt lat="48.89563" lon="2.40399">
        <ele>58.200000762939</ele>
        <time>2016-07-04T19:56:20.000Z</time>
      </trkpt>
      <trkpt lat="48.89564" lon="2.40385">
        <ele>58.799999237061</ele>
        <time>2016-07-04T19:56:22.000Z</time>
      </trkpt>
      <trkpt lat="48.89565" lon="2.4037">
        <ele>59.400001525879</ele>
        <time>2016-07-04T19:56:24.000Z</time>
      </trkpt>
      <trkpt lat="48.89566" lon="2.40355">
        <ele>59</ele>
        <time>2016-07-04T19:56:26.000Z</time>
      </trkpt>
      <trkpt lat="48.89568" lon="2.40328">
        <ele>58.400001525879</ele>
        <time>2016-07-04T19:56:30.000Z</time>
      </trkpt>
      <trkpt lat="48.89571" lon="2.40295">
        <ele>58.400001525879</ele>
        <time>2016-07-04T19:56:35.000Z</time>
      </trkpt>
      <trkpt lat="48.89573" lon="2.40268">
        <ele>58.799999237061</ele>
        <time>2016-07-04T19:56:39.000Z</time>
      </trkpt>
      <trkpt lat="48.89575" lon="2.40239">
        <ele>59.200000762939</ele>
        <time>2016-07-04T19:56:43.000Z</time>
      </trkpt>
      <trkpt lat="48.89578" lon="2.4021">
        <ele>59</ele>
        <time>2016-07-04T19:56:47.000Z</time>
      </trkpt>
      <trkpt lat="48.89582" lon="2.40188">
        <ele>58</ele>
        <time>2016-07-04T19:56:50.000Z</time>
      </trkpt>
      <trkpt lat="48.89584" lon="2.40157">
        <ele>56.799999237061</ele>
        <time>2016-07-04T19:56:54.000Z</time>
      </trkpt>
      <trkpt lat="48.89585" lon="2.40148">
        <ele>56.599998474121</ele>
        <time>2016-07-04T19:56:55.000Z</time>
      </trkpt>
      <trkpt lat="48.89587" lon="2.4012">
        <ele>56.200000762939</ele>
        <time>2016-07-04T19:56:59.000Z</time>
      </trkpt>
      <trkpt lat="48.89588" lon="2.40114">
        <ele>56</ele>
        <time>2016-07-04T19:57:00.000Z</time>
      </trkpt>
      <trkpt lat="48.89595" lon="2.40083">
        <ele>55.400001525879</ele>
        <time>2016-07-04T19:57:06.000Z</time>
      </trkpt>
      <trkpt lat="48.89593" lon="2.4006">
        <ele>55.599998474121</ele>
        <time>2016-07-04T19:57:10.000Z</time>
      </trkpt>
      <trkpt lat="48.89595" lon="2.40032">
        <ele>56.200000762939</ele>
        <time>2016-07-04T19:57:14.000Z</time>
      </trkpt>
      <trkpt lat="48.89595" lon="2.40005">
        <ele>56.799999237061</ele>
        <time>2016-07-04T19:57:18.000Z</time>
      </trkpt>
      <trkpt lat="48.89593" lon="2.39984">
        <ele>56.599998474121</ele>
        <time>2016-07-04T19:57:21.000Z</time>
      </trkpt>
      <trkpt lat="48.89587" lon="2.39955">
        <ele>55.400001525879</ele>
        <time>2016-07-04T19:57:26.000Z</time>
      </trkpt>
      <trkpt lat="48.89589" lon="2.39927">
        <ele>54.400001525879</ele>
        <time>2016-07-04T19:57:30.000Z</time>
      </trkpt>
      <trkpt lat="48.8959" lon="2.39919">
        <ele>54.200000762939</ele>
        <time>2016-07-04T19:57:31.000Z</time>
      </trkpt>
      <trkpt lat="48.8959" lon="2.39888">
        <ele>53.599998474121</ele>
        <time>2016-07-04T19:57:35.000Z</time>
      </trkpt>
      <trkpt lat="48.89591" lon="2.39856">
        <ele>53.200000762939</ele>
        <time>2016-07-04T19:57:39.000Z</time>
      </trkpt>
      <trkpt lat="48.8959" lon="2.39849">
        <ele>53.200000762939</ele>
        <time>2016-07-04T19:57:40.000Z</time>
      </trkpt>
      <trkpt lat="48.89589" lon="2.39827">
        <ele>52.799999237061</ele>
        <time>2016-07-04T19:57:43.000Z</time>
      </trkpt>
      <trkpt lat="48.89589" lon="2.39794">
        <ele>52.400001525879</ele>
        <time>2016-07-04T19:57:47.000Z</time>
      </trkpt>
      <trkpt lat="48.89592" lon="2.39764">
        <ele>52</ele>
        <time>2016-07-04T19:57:51.000Z</time>
      </trkpt>
      <trkpt lat="48.89591" lon="2.39744">
        <ele>52</ele>
        <time>2016-07-04T19:57:54.000Z</time>
      </trkpt>
      <trkpt lat="48.89591" lon="2.39726">
        <ele>52.400001525879</ele>
        <time>2016-07-04T19:57:57.000Z</time>
      </trkpt>
      <trkpt lat="48.89587" lon="2.39699">
        <ele>52.200000762939</ele>
        <time>2016-07-04T19:58:02.000Z</time>
      </trkpt>
      <trkpt lat="48.89581" lon="2.39673">
        <ele>52</ele>
        <time>2016-07-04T19:58:08.000Z</time>
      </trkpt>
      <trkpt lat="48.89578" lon="2.3967">
        <ele>52</ele>
        <time>2016-07-04T19:58:09.000Z</time>
      </trkpt>
      <trkpt lat="48.89575" lon="2.39671">
        <ele>52.200000762939</ele>
        <time>2016-07-04T19:58:21.000Z</time>
      </trkpt>
      <trkpt lat="48.89579" lon="2.39673">
        <ele>52</ele>
        <time>2016-07-04T19:58:25.000Z</time>
      </trkpt>
      <trkpt lat="48.8958" lon="2.39667">
        <ele>52</ele>
        <time>2016-07-04T19:59:42.000Z</time>
      </trkpt>
      <trkpt lat="48.89578" lon="2.3966">
        <ele>52</ele>
        <time>2016-07-04T20:01:05.000Z</time>
      </trkpt>
      <trkpt lat="48.89573" lon="2.39634">
        <ele>52.599998474121</ele>
        <time>2016-07-04T20:01:11.000Z</time>
      </trkpt>
      <trkpt lat="48.89567" lon="2.39604">
        <ele>53.200000762939</ele>
        <time>2016-07-04T20:01:17.000Z</time>
      </trkpt>
      <trkpt lat="48.89562" lon="2.39573">
        <ele>53.599998474121</ele>
        <time>2016-07-04T20:01:23.000Z</time>
      </trkpt>
      <trkpt lat="48.89559" lon="2.39539">
        <ele>53.799999237061</ele>
        <time>2016-07-04T20:01:28.000Z</time>
      </trkpt>
      <trkpt lat="48.89557" lon="2.39509">
        <ele>54</ele>
        <time>2016-07-04T20:01:33.000Z</time>
      </trkpt>
      <trkpt lat="48.89558" lon="2.39479">
        <ele>53.200000762939</ele>
        <time>2016-07-04T20:01:40.000Z</time>
      </trkpt>
      <trkpt lat="48.8956" lon="2.39447">
        <ele>51.799999237061</ele>
        <time>2016-07-04T20:01:44.000Z</time>
      </trkpt>
      <trkpt lat="48.8955" lon="2.39419">
        <ele>51</ele>
        <time>2016-07-04T20:01:49.000Z</time>
      </trkpt>
      <trkpt lat="48.89544" lon="2.39392">
        <ele>51</ele>
        <time>2016-07-04T20:01:53.000Z</time>
      </trkpt>
      <trkpt lat="48.89529" lon="2.39372">
        <ele>51</ele>
        <time>2016-07-04T20:01:57.000Z</time>
      </trkpt>
      <trkpt lat="48.89527" lon="2.39365">
        <ele>51</ele>
        <time>2016-07-04T20:01:59.000Z</time>
      </trkpt>
      <trkpt lat="48.89515" lon="2.39343">
        <ele>51.200000762939</ele>
        <time>2016-07-04T20:02:05.000Z</time>
      </trkpt>
      <trkpt lat="48.89504" lon="2.39319">
        <ele>51.400001525879</ele>
        <time>2016-07-04T20:02:10.000Z</time>
      </trkpt>
      <trkpt lat="48.89493" lon="2.39291">
        <ele>51.400001525879</ele>
        <time>2016-07-04T20:02:15.000Z</time>
      </trkpt>
      <trkpt lat="48.89483" lon="2.39265">
        <ele>51.799999237061</ele>
        <time>2016-07-04T20:02:19.000Z</time>
      </trkpt>
      <trkpt lat="48.89472" lon="2.39242">
        <ele>52.200000762939</ele>
        <time>2016-07-04T20:02:23.000Z</time>
      </trkpt>
      <trkpt lat="48.89464" lon="2.39226">
        <ele>52.799999237061</ele>
        <time>2016-07-04T20:02:26.000Z</time>
      </trkpt>
      <trkpt lat="48.89453" lon="2.39201">
        <ele>53.799999237061</ele>
        <time>2016-07-04T20:02:31.000Z</time>
      </trkpt>
      <trkpt lat="48.8944" lon="2.39178">
        <ele>54.599998474121</ele>
        <time>2016-07-04T20:02:37.000Z</time>
      </trkpt>
      <trkpt lat="48.89436" lon="2.39172">
        <ele>54.599998474121</ele>
        <time>2016-07-04T20:02:39.000Z</time>
      </trkpt>
      <trkpt lat="48.89425" lon="2.39148">
        <ele>54.599998474121</ele>
        <time>2016-07-04T20:02:45.000Z</time>
      </trkpt>
      <trkpt lat="48.89414" lon="2.39125">
        <ele>54.200000762939</ele>
        <time>2016-07-04T20:02:50.000Z</time>
      </trkpt>
      <trkpt lat="48.89401" lon="2.39098">
        <ele>53.799999237061</ele>
        <time>2016-07-04T20:02:55.000Z</time>
      </trkpt>
      <trkpt lat="48.89388" lon="2.39071">
        <ele>53.400001525879</ele>
        <time>2016-07-04T20:03:00.000Z</time>
      </trkpt>
      <trkpt lat="48.89375" lon="2.39049">
        <ele>53.599998474121</ele>
        <time>2016-07-04T20:03:04.000Z</time>
      </trkpt>
      <trkpt lat="48.89363" lon="2.39025">
        <ele>53.799999237061</ele>
        <time>2016-07-04T20:03:08.000Z</time>
      </trkpt>
      <trkpt lat="48.8935" lon="2.38995">
        <ele>53.799999237061</ele>
        <time>2016-07-04T20:03:12.000Z</time>
      </trkpt>
      <trkpt lat="48.89339" lon="2.3897">
        <ele>53.599998474121</ele>
        <time>2016-07-04T20:03:15.000Z</time>
      </trkpt>
      <trkpt lat="48.89335" lon="2.38963">
        <ele>53.400001525879</ele>
        <time>2016-07-04T20:03:16.000Z</time>
      </trkpt>
      <trkpt lat="48.89322" lon="2.3894">
        <ele>53.200000762939</ele>
        <time>2016-07-04T20:03:19.000Z</time>
      </trkpt>
      <trkpt lat="48.89312" lon="2.38917">
        <ele>53</ele>
        <time>2016-07-04T20:03:22.000Z</time>
      </trkpt>
      <trkpt lat="48.89296" lon="2.38892">
        <ele>52.799999237061</ele>
        <time>2016-07-04T20:03:26.000Z</time>
      </trkpt>
      <trkpt lat="48.89282" lon="2.38866">
        <ele>52.799999237061</ele>
        <time>2016-07-04T20:03:30.000Z</time>
      </trkpt>
      <trkpt lat="48.89269" lon="2.38842">
        <ele>52.799999237061</ele>
        <time>2016-07-04T20:03:34.000Z</time>
      </trkpt>
      <trkpt lat="48.89263" lon="2.38832">
        <ele>52.799999237061</ele>
        <time>2016-07-04T20:03:36.000Z</time>
      </trkpt>
      <trkpt lat="48.8925" lon="2.38812">
        <ele>53.200000762939</ele>
        <time>2016-07-04T20:03:42.000Z</time>
      </trkpt>
      <trkpt lat="48.89248" lon="2.38808">
        <ele>53.200000762939</ele>
        <time>2016-07-04T20:03:43.000Z</time>
      </trkpt>
      <trkpt lat="48.89236" lon="2.38785">
        <ele>53.599998474121</ele>
        <time>2016-07-04T20:03:47.000Z</time>
      </trkpt>
      <trkpt lat="48.89227" lon="2.38767">
        <ele>54</ele>
        <time>2016-07-04T20:03:50.000Z</time>
      </trkpt>
      <trkpt lat="48.89216" lon="2.38741">
        <ele>54.400001525879</ele>
        <time>2016-07-04T20:03:54.000Z</time>
      </trkpt>
      <trkpt lat="48.89206" lon="2.38716">
        <ele>54.200000762939</ele>
        <time>2016-07-04T20:03:58.000Z</time>
      </trkpt>
      <trkpt lat="48.89197" lon="2.38694">
        <ele>54</ele>
        <time>2016-07-04T20:04:06.000Z</time>
      </trkpt>
      <trkpt lat="48.89197" lon="2.38694">
        <ele>54</ele>
        <time>2016-07-04T20:04:07.000Z</time>
      </trkpt>
      <trkpt lat="48.89183" lon="2.38674">
        <ele>54.599998474121</ele>
        <time>2016-07-04T20:04:22.000Z</time>
      </trkpt>
      <trkpt lat="48.89167" lon="2.38657">
        <ele>55.599998474121</ele>
        <time>2016-07-04T20:04:30.000Z</time>
      </trkpt>
      <trkpt lat="48.89157" lon="2.38631">
        <ele>56</ele>
        <time>2016-07-04T20:04:36.000Z</time>
      </trkpt>
      <trkpt lat="48.89144" lon="2.38607">
        <ele>57</ele>
        <time>2016-07-04T20:04:41.000Z</time>
      </trkpt>
      <trkpt lat="48.89133" lon="2.38584">
        <ele>58</ele>
        <time>2016-07-04T20:04:46.000Z</time>
      </trkpt>
      <trkpt lat="48.89123" lon="2.38561">
        <ele>57.599998474121</ele>
        <time>2016-07-04T20:04:51.000Z</time>
      </trkpt>
      <trkpt lat="48.8911" lon="2.38536">
        <ele>57.200000762939</ele>
        <time>2016-07-04T20:04:56.000Z</time>
      </trkpt>
      <trkpt lat="48.89099" lon="2.3851">
        <ele>56.599998474121</ele>
        <time>2016-07-04T20:05:01.000Z</time>
      </trkpt>
      <trkpt lat="48.89089" lon="2.38488">
        <ele>56.200000762939</ele>
        <time>2016-07-04T20:05:05.000Z</time>
      </trkpt>
      <trkpt lat="48.89073" lon="2.38462">
        <ele>56.400001525879</ele>
        <time>2016-07-04T20:05:10.000Z</time>
      </trkpt>
      <trkpt lat="48.89062" lon="2.38441">
        <ele>56.400001525879</ele>
        <time>2016-07-04T20:05:14.000Z</time>
      </trkpt>
      <trkpt lat="48.8905" lon="2.38416">
        <ele>56.400001525879</ele>
        <time>2016-07-04T20:05:18.000Z</time>
      </trkpt>
      <trkpt lat="48.89037" lon="2.38391">
        <ele>57</ele>
        <time>2016-07-04T20:05:22.000Z</time>
      </trkpt>
      <trkpt lat="48.89023" lon="2.38366">
        <ele>57.599998474121</ele>
        <time>2016-07-04T20:05:26.000Z</time>
      </trkpt>
      <trkpt lat="48.89009" lon="2.38338">
        <ele>58.799999237061</ele>
        <time>2016-07-04T20:05:30.000Z</time>
      </trkpt>
      <trkpt lat="48.88997" lon="2.38313">
        <ele>59.400001525879</ele>
        <time>2016-07-04T20:05:34.000Z</time>
      </trkpt>
      <trkpt lat="48.88984" lon="2.38287">
        <ele>59.799999237061</ele>
        <time>2016-07-04T20:05:38.000Z</time>
      </trkpt>
      <trkpt lat="48.88971" lon="2.38262">
        <ele>60.400001525879</ele>
        <time>2016-07-04T20:05:42.000Z</time>
      </trkpt>
      <trkpt lat="48.88957" lon="2.38237">
        <ele>61</ele>
        <time>2016-07-04T20:05:46.000Z</time>
      </trkpt>
      <trkpt lat="48.88946" lon="2.38211">
        <ele>60.799999237061</ele>
        <time>2016-07-04T20:05:50.000Z</time>
      </trkpt>
      <trkpt lat="48.88936" lon="2.38185">
        <ele>60.599998474121</ele>
        <time>2016-07-04T20:05:54.000Z</time>
      </trkpt>
      <trkpt lat="48.88928" lon="2.38166">
        <ele>60.200000762939</ele>
        <time>2016-07-04T20:05:57.000Z</time>
      </trkpt>
      <trkpt lat="48.88916" lon="2.3814">
        <ele>59.599998474121</ele>
        <time>2016-07-04T20:06:01.000Z</time>
      </trkpt>
      <trkpt lat="48.88902" lon="2.38118">
        <ele>59.200000762939</ele>
        <time>2016-07-04T20:06:05.000Z</time>
      </trkpt>
      <trkpt lat="48.88899" lon="2.38112">
        <ele>59</ele>
        <time>2016-07-04T20:06:06.000Z</time>
      </trkpt>
      <trkpt lat="48.88885" lon="2.38088">
        <ele>58.200000762939</ele>
        <time>2016-07-04T20:06:10.000Z</time>
      </trkpt>
      <trkpt lat="48.88873" lon="2.38064">
        <ele>57.400001525879</ele>
        <time>2016-07-04T20:06:14.000Z</time>
      </trkpt>
      <trkpt lat="48.88866" lon="2.38045">
        <ele>56.400001525879</ele>
        <time>2016-07-04T20:06:17.000Z</time>
      </trkpt>
      <trkpt lat="48.88854" lon="2.38018">
        <ele>55.400001525879</ele>
        <time>2016-07-04T20:06:22.000Z</time>
      </trkpt>
      <trkpt lat="48.88846" lon="2.37996">
        <ele>54.400001525879</ele>
        <time>2016-07-04T20:06:26.000Z</time>
      </trkpt>
      <trkpt lat="48.8884" lon="2.37983">
        <ele>54.400001525879</ele>
        <time>2016-07-04T20:06:29.000Z</time>
      </trkpt>
      <trkpt lat="48.88827" lon="2.37962">
        <ele>54.599998474121</ele>
        <time>2016-07-04T20:06:41.000Z</time>
      </trkpt>
      <trkpt lat="48.88837" lon="2.37954">
        <ele>54.200000762939</ele>
        <time>2016-07-04T20:07:51.000Z</time>
      </trkpt>
      <trkpt lat="48.8884" lon="2.37948">
        <ele>54</ele>
        <time>2016-07-04T20:08:49.000Z</time>
      </trkpt>
      <trkpt lat="48.8885" lon="2.37929">
        <ele>53.400001525879</ele>
        <time>2016-07-04T20:09:05.000Z</time>
      </trkpt>
      <trkpt lat="48.88864" lon="2.37909">
        <ele>53.400001525879</ele>
        <time>2016-07-04T20:09:17.000Z</time>
      </trkpt>
      <trkpt lat="48.88867" lon="2.37903">
        <ele>53.799999237061</ele>
        <time>2016-07-04T20:09:19.000Z</time>
      </trkpt>
      <trkpt lat="48.88863" lon="2.3787">
        <ele>54.400001525879</ele>
        <time>2016-07-04T20:09:26.000Z</time>
      </trkpt>
      <trkpt lat="48.88851" lon="2.37843">
        <ele>54.799999237061</ele>
        <time>2016-07-04T20:09:31.000Z</time>
      </trkpt>
      <trkpt lat="48.88846" lon="2.37831">
        <ele>55</ele>
        <time>2016-07-04T20:09:33.000Z</time>
      </trkpt>
      <trkpt lat="48.88835" lon="2.37806">
        <ele>55.200000762939</ele>
        <time>2016-07-04T20:09:38.000Z</time>
      </trkpt>
      <trkpt lat="48.88823" lon="2.37781">
        <ele>55.200000762939</ele>
        <time>2016-07-04T20:09:43.000Z</time>
      </trkpt>
      <trkpt lat="48.88811" lon="2.37759">
        <ele>55.200000762939</ele>
        <time>2016-07-04T20:09:47.000Z</time>
      </trkpt>
      <trkpt lat="48.88796" lon="2.37735">
        <ele>56</ele>
        <time>2016-07-04T20:09:52.000Z</time>
      </trkpt>
      <trkpt lat="48.88782" lon="2.3771">
        <ele>57.200000762939</ele>
        <time>2016-07-04T20:09:57.000Z</time>
      </trkpt>
      <trkpt lat="48.88767" lon="2.37685">
        <ele>58.200000762939</ele>
        <time>2016-07-04T20:10:02.000Z</time>
      </trkpt>
      <trkpt lat="48.88763" lon="2.37674">
        <ele>58.599998474121</ele>
        <time>2016-07-04T20:10:04.000Z</time>
      </trkpt>
      <trkpt lat="48.88751" lon="2.37646">
        <ele>58.799999237061</ele>
        <time>2016-07-04T20:10:09.000Z</time>
      </trkpt>
      <trkpt lat="48.8874" lon="2.37618">
        <ele>58.400001525879</ele>
        <time>2016-07-04T20:10:13.000Z</time>
      </trkpt>
      <trkpt lat="48.88727" lon="2.37592">
        <ele>58.200000762939</ele>
        <time>2016-07-04T20:10:17.000Z</time>
      </trkpt>
      <trkpt lat="48.88717" lon="2.37567">
        <ele>57.599998474121</ele>
        <time>2016-07-04T20:10:21.000Z</time>
      </trkpt>
      <trkpt lat="48.88706" lon="2.37545">
        <ele>57.200000762939</ele>
        <time>2016-07-04T20:10:25.000Z</time>
      </trkpt>
      <trkpt lat="48.88696" lon="2.37526">
        <ele>56.599998474121</ele>
        <time>2016-07-04T20:10:28.000Z</time>
      </trkpt>
      <trkpt lat="48.88685" lon="2.37502">
        <ele>55.799999237061</ele>
        <time>2016-07-04T20:10:32.000Z</time>
      </trkpt>
      <trkpt lat="48.88671" lon="2.37476">
        <ele>55.200000762939</ele>
        <time>2016-07-04T20:10:37.000Z</time>
      </trkpt>
      <trkpt lat="48.8866" lon="2.3745">
        <ele>54.799999237061</ele>
        <time>2016-07-04T20:10:42.000Z</time>
      </trkpt>
      <trkpt lat="48.88655" lon="2.37442">
        <ele>54.599998474121</ele>
        <time>2016-07-04T20:10:44.000Z</time>
      </trkpt>
      <trkpt lat="48.88642" lon="2.37415">
        <ele>53.799999237061</ele>
        <time>2016-07-04T20:10:49.000Z</time>
      </trkpt>
      <trkpt lat="48.8863" lon="2.3739">
        <ele>54.799999237061</ele>
        <time>2016-07-04T20:10:53.000Z</time>
      </trkpt>
      <trkpt lat="48.88616" lon="2.37368">
        <ele>55.400001525879</ele>
        <time>2016-07-04T20:10:57.000Z</time>
      </trkpt>
      <trkpt lat="48.88603" lon="2.37345">
        <ele>56.400001525879</ele>
        <time>2016-07-04T20:11:01.000Z</time>
      </trkpt>
      <trkpt lat="48.8859" lon="2.37321">
        <ele>57</ele>
        <time>2016-07-04T20:11:05.000Z</time>
      </trkpt>
      <trkpt lat="48.88576" lon="2.37297">
        <ele>57.200000762939</ele>
        <time>2016-07-04T20:11:09.000Z</time>
      </trkpt>
      <trkpt lat="48.88573" lon="2.37291">
        <ele>57.200000762939</ele>
        <time>2016-07-04T20:11:10.000Z</time>
      </trkpt>
      <trkpt lat="48.88558" lon="2.37266">
        <ele>57.400001525879</ele>
        <time>2016-07-04T20:11:14.000Z</time>
      </trkpt>
      <trkpt lat="48.88551" lon="2.37253">
        <ele>57.599998474121</ele>
        <time>2016-07-04T20:11:16.000Z</time>
      </trkpt>
      <trkpt lat="48.88538" lon="2.37228">
        <ele>58.400001525879</ele>
        <time>2016-07-04T20:11:20.000Z</time>
      </trkpt>
      <trkpt lat="48.88533" lon="2.37218">
        <ele>58.599998474121</ele>
        <time>2016-07-04T20:11:22.000Z</time>
      </trkpt>
      <trkpt lat="48.88523" lon="2.37195">
        <ele>59.400001525879</ele>
        <time>2016-07-04T20:11:26.000Z</time>
      </trkpt>
      <trkpt lat="48.8851" lon="2.37168">
        <ele>59.599998474121</ele>
        <time>2016-07-04T20:11:30.000Z</time>
      </trkpt>
      <trkpt lat="48.88498" lon="2.37142">
        <ele>58.799999237061</ele>
        <time>2016-07-04T20:11:34.000Z</time>
      </trkpt>
      <trkpt lat="48.88486" lon="2.37118">
        <ele>57.599998474121</ele>
        <time>2016-07-04T20:11:38.000Z</time>
      </trkpt>
      <trkpt lat="48.88475" lon="2.37092">
        <ele>56.400001525879</ele>
        <time>2016-07-04T20:11:42.000Z</time>
      </trkpt>
      <trkpt lat="48.88463" lon="2.37067">
        <ele>55.599998474121</ele>
        <time>2016-07-04T20:11:46.000Z</time>
      </trkpt>
      <trkpt lat="48.8845" lon="2.37043">
        <ele>55</ele>
        <time>2016-07-04T20:11:50.000Z</time>
      </trkpt>
      <trkpt lat="48.88438" lon="2.37021">
        <ele>54.599998474121</ele>
        <time>2016-07-04T20:11:54.000Z</time>
      </trkpt>
      <trkpt lat="48.88431" lon="2.36998">
        <ele>54.599998474121</ele>
        <time>2016-07-04T20:11:57.000Z</time>
      </trkpt>
      <trkpt lat="48.88432" lon="2.36967">
        <ele>54.799999237061</ele>
        <time>2016-07-04T20:12:00.000Z</time>
      </trkpt>
      <trkpt lat="48.88434" lon="2.36958">
        <ele>54.599998474121</ele>
        <time>2016-07-04T20:12:01.000Z</time>
      </trkpt>
      <trkpt lat="48.8843" lon="2.3693">
        <ele>54.200000762939</ele>
        <time>2016-07-04T20:12:07.000Z</time>
      </trkpt>
      <trkpt lat="48.88429" lon="2.36924">
        <ele>54.200000762939</ele>
        <time>2016-07-04T20:12:09.000Z</time>
      </trkpt>
      <trkpt lat="48.88426" lon="2.36909">
        <ele>54.400001525879</ele>
        <time>2016-07-04T20:13:04.000Z</time>
      </trkpt>
      <trkpt lat="48.88417" lon="2.36883">
        <ele>56.200000762939</ele>
        <time>2016-07-04T20:13:37.000Z</time>
      </trkpt>
      <trkpt lat="48.88408" lon="2.36859">
        <ele>58</ele>
        <time>2016-07-04T20:13:56.000Z</time>
      </trkpt>
      <trkpt lat="48.88403" lon="2.36851">
        <ele>58.599998474121</ele>
        <time>2016-07-04T20:14:01.000Z</time>
      </trkpt>
      <trkpt lat="48.88399" lon="2.36851">
        <ele>58.599998474121</ele>
        <time>2016-07-04T20:14:06.000Z</time>
      </trkpt>
      <trkpt lat="48.88389" lon="2.36852">
        <ele>58.400001525879</ele>
        <time>2016-07-04T20:14:15.000Z</time>
      </trkpt>
      <trkpt lat="48.88376" lon="2.36842">
        <ele>59.200000762939</ele>
        <time>2016-07-04T20:14:20.000Z</time>
      </trkpt>
      <trkpt lat="48.88359" lon="2.36822">
        <ele>59.799999237061</ele>
        <time>2016-07-04T20:14:26.000Z</time>
      </trkpt>
      <trkpt lat="48.88344" lon="2.36801">
        <ele>59.799999237061</ele>
        <time>2016-07-04T20:14:31.000Z</time>
      </trkpt>
      <trkpt lat="48.88326" lon="2.36779">
        <ele>59.799999237061</ele>
        <time>2016-07-04T20:14:36.000Z</time>
      </trkpt>
      <trkpt lat="48.8831" lon="2.36759">
        <ele>59.599998474121</ele>
        <time>2016-07-04T20:14:40.000Z</time>
      </trkpt>
      <trkpt lat="48.88294" lon="2.36741">
        <ele>59.400001525879</ele>
        <time>2016-07-04T20:14:44.000Z</time>
      </trkpt>
      <trkpt lat="48.88275" lon="2.36718">
        <ele>59</ele>
        <time>2016-07-04T20:14:48.000Z</time>
      </trkpt>
      <trkpt lat="48.8826" lon="2.367">
        <ele>58.599998474121</ele>
        <time>2016-07-04T20:14:51.000Z</time>
      </trkpt>
      <trkpt lat="48.88243" lon="2.36676">
        <ele>58.200000762939</ele>
        <time>2016-07-04T20:14:55.000Z</time>
      </trkpt>
      <trkpt lat="48.88226" lon="2.36653">
        <ele>58</ele>
        <time>2016-07-04T20:14:59.000Z</time>
      </trkpt>
      <trkpt lat="48.88211" lon="2.36629">
        <ele>58</ele>
        <time>2016-07-04T20:15:03.000Z</time>
      </trkpt>
      <trkpt lat="48.88195" lon="2.36608">
        <ele>58.200000762939</ele>
        <time>2016-07-04T20:15:07.000Z</time>
      </trkpt>
      <trkpt lat="48.88177" lon="2.36591">
        <ele>58.200000762939</ele>
        <time>2016-07-04T20:15:11.000Z</time>
      </trkpt>
      <trkpt lat="48.88168" lon="2.36582">
        <ele>58.200000762939</ele>
        <time>2016-07-04T20:15:13.000Z</time>
      </trkpt>
      <trkpt lat="48.8816" lon="2.3656">
        <ele>58.400001525879</ele>
        <time>2016-07-04T20:15:17.000Z</time>
      </trkpt>
      <trkpt lat="48.88158" lon="2.36554">
        <ele>58.400001525879</ele>
        <time>2016-07-04T20:15:19.000Z</time>
      </trkpt>
      <trkpt lat="48.88156" lon="2.36552">
        <ele>58.400001525879</ele>
        <time>2016-07-04T20:15:21.000Z</time>
      </trkpt>
      <trkpt lat="48.88148" lon="2.36543">
        <ele>58.400001525879</ele>
        <time>2016-07-04T20:15:30.000Z</time>
      </trkpt>
      <trkpt lat="48.88134" lon="2.36532">
        <ele>58.599998474121</ele>
        <time>2016-07-04T20:15:36.000Z</time>
      </trkpt>
      <trkpt lat="48.88119" lon="2.36516">
        <ele>58.799999237061</ele>
        <time>2016-07-04T20:15:42.000Z</time>
      </trkpt>
      <trkpt lat="48.88103" lon="2.36497">
        <ele>58.799999237061</ele>
        <time>2016-07-04T20:15:47.000Z</time>
      </trkpt>
      <trkpt lat="48.88088" lon="2.36477">
        <ele>58.200000762939</ele>
        <time>2016-07-04T20:15:51.000Z</time>
      </trkpt>
      <trkpt lat="48.88073" lon="2.36456">
        <ele>57.400001525879</ele>
        <time>2016-07-04T20:15:55.000Z</time>
      </trkpt>
      <trkpt lat="48.88058" lon="2.36435">
        <ele>56.599998474121</ele>
        <time>2016-07-04T20:15:59.000Z</time>
      </trkpt>
      <trkpt lat="48.88042" lon="2.36413">
        <ele>56</ele>
        <time>2016-07-04T20:16:03.000Z</time>
      </trkpt>
      <trkpt lat="48.88026" lon="2.36391">
        <ele>55.599998474121</ele>
        <time>2016-07-04T20:16:07.000Z</time>
      </trkpt>
      <trkpt lat="48.88008" lon="2.36368">
        <ele>56.200000762939</ele>
        <time>2016-07-04T20:16:11.000Z</time>
      </trkpt>
      <trkpt lat="48.87988" lon="2.36348">
        <ele>57</ele>
        <time>2016-07-04T20:16:15.000Z</time>
      </trkpt>
      <trkpt lat="48.87974" lon="2.3633">
        <ele>57.599998474121</ele>
        <time>2016-07-04T20:16:18.000Z</time>
      </trkpt>
      <trkpt lat="48.87956" lon="2.3631">
        <ele>57.799999237061</ele>
        <time>2016-07-04T20:16:22.000Z</time>
      </trkpt>
      <trkpt lat="48.87952" lon="2.36307">
        <ele>57.799999237061</ele>
        <time>2016-07-04T20:16:23.000Z</time>
      </trkpt>
      <trkpt lat="48.87936" lon="2.36292">
        <ele>57.799999237061</ele>
        <time>2016-07-04T20:16:27.000Z</time>
      </trkpt>
      <trkpt lat="48.87921" lon="2.36273">
        <ele>56.799999237061</ele>
        <time>2016-07-04T20:16:31.000Z</time>
      </trkpt>
      <trkpt lat="48.87905" lon="2.36256">
        <ele>56</ele>
        <time>2016-07-04T20:16:35.000Z</time>
      </trkpt>
      <trkpt lat="48.87887" lon="2.36236">
        <ele>54.200000762939</ele>
        <time>2016-07-04T20:16:39.000Z</time>
      </trkpt>
      <trkpt lat="48.87881" lon="2.36232">
        <ele>53.599998474121</ele>
        <time>2016-07-04T20:16:40.000Z</time>
      </trkpt>
      <trkpt lat="48.87859" lon="2.36217">
        <ele>51.200000762939</ele>
        <time>2016-07-04T20:16:44.000Z</time>
      </trkpt>
      <trkpt lat="48.87838" lon="2.36204">
        <ele>51.200000762939</ele>
        <time>2016-07-04T20:16:47.000Z</time>
      </trkpt>
      <trkpt lat="48.87818" lon="2.36191">
        <ele>51.400001525879</ele>
        <time>2016-07-04T20:16:50.000Z</time>
      </trkpt>
      <trkpt lat="48.87799" lon="2.36178">
        <ele>51.599998474121</ele>
        <time>2016-07-04T20:16:53.000Z</time>
      </trkpt>
      <trkpt lat="48.87781" lon="2.36164">
        <ele>51.599998474121</ele>
        <time>2016-07-04T20:16:56.000Z</time>
      </trkpt>
      <trkpt lat="48.87762" lon="2.36149">
        <ele>52.200000762939</ele>
        <time>2016-07-04T20:16:59.000Z</time>
      </trkpt>
      <trkpt lat="48.87741" lon="2.36135">
        <ele>53.200000762939</ele>
        <time>2016-07-04T20:17:02.000Z</time>
      </trkpt>
      <trkpt lat="48.87719" lon="2.36121">
        <ele>54.400001525879</ele>
        <time>2016-07-04T20:17:05.000Z</time>
      </trkpt>
      <trkpt lat="48.87699" lon="2.36107">
        <ele>55.400001525879</ele>
        <time>2016-07-04T20:17:08.000Z</time>
      </trkpt>
      <trkpt lat="48.87679" lon="2.36095">
        <ele>55.200000762939</ele>
        <time>2016-07-04T20:17:11.000Z</time>
      </trkpt>
      <trkpt lat="48.87656" lon="2.36084">
        <ele>54</ele>
        <time>2016-07-04T20:17:14.000Z</time>
      </trkpt>
      <trkpt lat="48.87638" lon="2.36072">
        <ele>53.200000762939</ele>
        <time>2016-07-04T20:17:17.000Z</time>
      </trkpt>
      <trkpt lat="48.87621" lon="2.36062">
        <ele>52.599998474121</ele>
        <time>2016-07-04T20:17:20.000Z</time>
      </trkpt>
      <trkpt lat="48.87606" lon="2.36044">
        <ele>52</ele>
        <time>2016-07-04T20:17:23.000Z</time>
      </trkpt>
      <trkpt lat="48.87595" lon="2.36029">
        <ele>51</ele>
        <time>2016-07-04T20:17:26.000Z</time>
      </trkpt>
      <trkpt lat="48.87585" lon="2.36011">
        <ele>50.200000762939</ele>
        <time>2016-07-04T20:17:30.000Z</time>
      </trkpt>
      <trkpt lat="48.87569" lon="2.35993">
        <ele>49</ele>
        <time>2016-07-04T20:17:49.000Z</time>
      </trkpt>
      <trkpt lat="48.87553" lon="2.35972">
        <ele>47.799999237061</ele>
        <time>2016-07-04T20:17:53.000Z</time>
      </trkpt>
      <trkpt lat="48.8755" lon="2.35965">
        <ele>47.599998474121</ele>
        <time>2016-07-04T20:17:54.000Z</time>
      </trkpt>
      <trkpt lat="48.87537" lon="2.3594">
        <ele>46.799999237061</ele>
        <time>2016-07-04T20:17:58.000Z</time>
      </trkpt>
      <trkpt lat="48.8753" lon="2.35928">
        <ele>46.400001525879</ele>
        <time>2016-07-04T20:18:00.000Z</time>
      </trkpt>
      <trkpt lat="48.87516" lon="2.35911">
        <ele>46.200000762939</ele>
        <time>2016-07-04T20:18:03.000Z</time>
      </trkpt>
      <trkpt lat="48.8751" lon="2.35906">
        <ele>46.400001525879</ele>
        <time>2016-07-04T20:18:04.000Z</time>
      </trkpt>
      <trkpt lat="48.87505" lon="2.35902">
        <ele>46.599998474121</ele>
        <time>2016-07-04T20:18:05.000Z</time>
      </trkpt>
      <trkpt lat="48.87488" lon="2.35889">
        <ele>47.400001525879</ele>
        <time>2016-07-04T20:18:08.000Z</time>
      </trkpt>
      <trkpt lat="48.87476" lon="2.3588">
        <ele>47.799999237061</ele>
        <time>2016-07-04T20:18:10.000Z</time>
      </trkpt>
      <trkpt lat="48.87457" lon="2.35866">
        <ele>48.599998474121</ele>
        <time>2016-07-04T20:18:13.000Z</time>
      </trkpt>
      <trkpt lat="48.87439" lon="2.35854">
        <ele>49.200000762939</ele>
        <time>2016-07-04T20:18:16.000Z</time>
      </trkpt>
      <trkpt lat="48.87421" lon="2.35845">
        <ele>49</ele>
        <time>2016-07-04T20:18:19.000Z</time>
      </trkpt>
      <trkpt lat="48.87402" lon="2.35831">
        <ele>49</ele>
        <time>2016-07-04T20:18:23.000Z</time>
      </trkpt>
      <trkpt lat="48.87397" lon="2.35831">
        <ele>49</ele>
        <time>2016-07-04T20:18:24.000Z</time>
      </trkpt>
      <trkpt lat="48.87379" lon="2.35838">
        <ele>48.400001525879</ele>
        <time>2016-07-04T20:18:30.000Z</time>
      </trkpt>
      <trkpt lat="48.87378" lon="2.35838">
        <ele>48.200000762939</ele>
        <time>2016-07-04T20:18:31.000Z</time>
      </trkpt>
      <trkpt lat="48.87373" lon="2.35837">
        <ele>48.200000762939</ele>
        <time>2016-07-04T20:18:33.000Z</time>
      </trkpt>
      <trkpt lat="48.87352" lon="2.35826">
        <ele>48</ele>
        <time>2016-07-04T20:18:37.000Z</time>
      </trkpt>
      <trkpt lat="48.87335" lon="2.35817">
        <ele>47.599998474121</ele>
        <time>2016-07-04T20:18:40.000Z</time>
      </trkpt>
      <trkpt lat="48.87313" lon="2.35809">
        <ele>46.799999237061</ele>
        <time>2016-07-04T20:18:44.000Z</time>
      </trkpt>
      <trkpt lat="48.87294" lon="2.35801">
        <ele>46</ele>
        <time>2016-07-04T20:18:48.000Z</time>
      </trkpt>
      <trkpt lat="48.87272" lon="2.35789">
        <ele>45.599998474121</ele>
        <time>2016-07-04T20:18:52.000Z</time>
      </trkpt>
      <trkpt lat="48.87254" lon="2.35776">
        <ele>46.799999237061</ele>
        <time>2016-07-04T20:18:55.000Z</time>
      </trkpt>
      <trkpt lat="48.87235" lon="2.35764">
        <ele>48</ele>
        <time>2016-07-04T20:18:58.000Z</time>
      </trkpt>
      <trkpt lat="48.87216" lon="2.35748">
        <ele>49.400001525879</ele>
        <time>2016-07-04T20:19:01.000Z</time>
      </trkpt>
      <trkpt lat="48.87195" lon="2.35732">
        <ele>49.599998474121</ele>
        <time>2016-07-04T20:19:05.000Z</time>
      </trkpt>
      <trkpt lat="48.87168" lon="2.35722">
        <ele>49.200000762939</ele>
        <time>2016-07-04T20:19:08.000Z</time>
      </trkpt>
      <trkpt lat="48.87149" lon="2.35709">
        <ele>48.599998474121</ele>
        <time>2016-07-04T20:19:10.000Z</time>
      </trkpt>
      <trkpt lat="48.87124" lon="2.35702">
        <ele>47.400001525879</ele>
        <time>2016-07-04T20:19:13.000Z</time>
      </trkpt>
      <trkpt lat="48.87105" lon="2.35688">
        <ele>46.799999237061</ele>
        <time>2016-07-04T20:19:15.000Z</time>
      </trkpt>
      <trkpt lat="48.87083" lon="2.35675">
        <ele>47.400001525879</ele>
        <time>2016-07-04T20:19:18.000Z</time>
      </trkpt>
      <trkpt lat="48.87064" lon="2.35659">
        <ele>48</ele>
        <time>2016-07-04T20:19:21.000Z</time>
      </trkpt>
      <trkpt lat="48.87048" lon="2.35646">
        <ele>48.400001525879</ele>
        <time>2016-07-04T20:19:24.000Z</time>
      </trkpt>
      <trkpt lat="48.87026" lon="2.35631">
        <ele>49</ele>
        <time>2016-07-04T20:19:28.000Z</time>
      </trkpt>
      <trkpt lat="48.87005" lon="2.35619">
        <ele>49</ele>
        <time>2016-07-04T20:19:32.000Z</time>
      </trkpt>
      <trkpt lat="48.86988" lon="2.35609">
        <ele>49</ele>
        <time>2016-07-04T20:19:36.000Z</time>
      </trkpt>
      <trkpt lat="48.86974" lon="2.35605">
        <ele>49</ele>
        <time>2016-07-04T20:19:39.000Z</time>
      </trkpt>
      <trkpt lat="48.86954" lon="2.35596">
        <ele>49</ele>
        <time>2016-07-04T20:19:43.000Z</time>
      </trkpt>
      <trkpt lat="48.86947" lon="2.3559">
        <ele>49</ele>
        <time>2016-07-04T20:19:44.000Z</time>
      </trkpt>
      <trkpt lat="48.86928" lon="2.35581">
        <ele>48.799999237061</ele>
        <time>2016-07-04T20:19:50.000Z</time>
      </trkpt>
      <trkpt lat="48.86921" lon="2.35562">
        <ele>48.799999237061</ele>
        <time>2016-07-04T20:19:57.000Z</time>
      </trkpt>
      <trkpt lat="48.86922" lon="2.35558">
        <ele>48.799999237061</ele>
        <time>2016-07-04T20:19:58.000Z</time>
      </trkpt>
      <trkpt lat="48.86908" lon="2.35545">
        <ele>48.599998474121</ele>
        <time>2016-07-04T20:20:16.000Z</time>
      </trkpt>
      <trkpt lat="48.86915" lon="2.35544">
        <ele>48.799999237061</ele>
        <time>2016-07-04T20:20:32.000Z</time>
      </trkpt>
      <trkpt lat="48.86919" lon="2.35546">
        <ele>49</ele>
        <time>2016-07-04T20:20:39.000Z</time>
      </trkpt>
      <trkpt lat="48.86933" lon="2.35551">
        <ele>49.200000762939</ele>
        <time>2016-07-04T20:21:36.000Z</time>
      </trkpt>
      <trkpt lat="48.86928" lon="2.35552">
        <ele>49</ele>
        <time>2016-07-04T20:21:38.000Z</time>
      </trkpt>
      <trkpt lat="48.86906" lon="2.35542">
        <ele>48.599998474121</ele>
        <time>2016-07-04T20:21:44.000Z</time>
      </trkpt>
      <trkpt lat="48.86899" lon="2.35536">
        <ele>48.599998474121</ele>
        <time>2016-07-04T20:21:45.000Z</time>
      </trkpt>
      <trkpt lat="48.86881" lon="2.35524">
        <ele>48.200000762939</ele>
        <time>2016-07-04T20:21:48.000Z</time>
      </trkpt>
      <trkpt lat="48.86859" lon="2.35513">
        <ele>47.799999237061</ele>
        <time>2016-07-04T20:21:51.000Z</time>
      </trkpt>
      <trkpt lat="48.86837" lon="2.35502">
        <ele>46</ele>
        <time>2016-07-04T20:21:54.000Z</time>
      </trkpt>
      <trkpt lat="48.86814" lon="2.35491">
        <ele>44.400001525879</ele>
        <time>2016-07-04T20:21:57.000Z</time>
      </trkpt>
      <trkpt lat="48.8679" lon="2.35478">
        <ele>42.799999237061</ele>
        <time>2016-07-04T20:22:00.000Z</time>
      </trkpt>
      <trkpt lat="48.86766" lon="2.35463">
        <ele>42.200000762939</ele>
        <time>2016-07-04T20:22:03.000Z</time>
      </trkpt>
      <trkpt lat="48.86743" lon="2.35448">
        <ele>43.400001525879</ele>
        <time>2016-07-04T20:22:06.000Z</time>
      </trkpt>
      <trkpt lat="48.8672" lon="2.35433">
        <ele>44.400001525879</ele>
        <time>2016-07-04T20:22:09.000Z</time>
      </trkpt>
      <trkpt lat="48.86697" lon="2.35419">
        <ele>45.599998474121</ele>
        <time>2016-07-04T20:22:12.000Z</time>
      </trkpt>
      <trkpt lat="48.86674" lon="2.35407">
        <ele>46.400001525879</ele>
        <time>2016-07-04T20:22:15.000Z</time>
      </trkpt>
      <trkpt lat="48.8665" lon="2.35397">
        <ele>47</ele>
        <time>2016-07-04T20:22:18.000Z</time>
      </trkpt>
      <trkpt lat="48.86631" lon="2.35383">
        <ele>47.400001525879</ele>
        <time>2016-07-04T20:22:21.000Z</time>
      </trkpt>
      <trkpt lat="48.86626" lon="2.35379">
        <ele>47.599998474121</ele>
        <time>2016-07-04T20:22:22.000Z</time>
      </trkpt>
      <trkpt lat="48.86618" lon="2.35373">
        <ele>47.799999237061</ele>
        <time>2016-07-04T20:22:25.000Z</time>
      </trkpt>
      <trkpt lat="48.8661" lon="2.35403">
        <ele>48</ele>
        <time>2016-07-04T20:22:50.000Z</time>
      </trkpt>
      <trkpt lat="48.866" lon="2.35389">
        <ele>47.799999237061</ele>
        <time>2016-07-04T20:23:11.000Z</time>
      </trkpt>
      <trkpt lat="48.86581" lon="2.35378">
        <ele>47.200000762939</ele>
        <time>2016-07-04T20:23:18.000Z</time>
      </trkpt>
      <trkpt lat="48.86563" lon="2.35375">
        <ele>46.599998474121</ele>
        <time>2016-07-04T20:23:23.000Z</time>
      </trkpt>
      <trkpt lat="48.86546" lon="2.35358">
        <ele>46</ele>
        <time>2016-07-04T20:23:28.000Z</time>
      </trkpt>
      <trkpt lat="48.86528" lon="2.35344">
        <ele>45.599998474121</ele>
        <time>2016-07-04T20:23:33.000Z</time>
      </trkpt>
      <trkpt lat="48.86506" lon="2.35339">
        <ele>45.400001525879</ele>
        <time>2016-07-04T20:23:38.000Z</time>
      </trkpt>
      <trkpt lat="48.86489" lon="2.35326">
        <ele>45.200000762939</ele>
        <time>2016-07-04T20:23:42.000Z</time>
      </trkpt>
      <trkpt lat="48.86468" lon="2.35317">
        <ele>45.400001525879</ele>
        <time>2016-07-04T20:23:46.000Z</time>
      </trkpt>
      <trkpt lat="48.86445" lon="2.35313">
        <ele>45.400001525879</ele>
        <time>2016-07-04T20:23:50.000Z</time>
      </trkpt>
      <trkpt lat="48.86428" lon="2.35306">
        <ele>45.400001525879</ele>
        <time>2016-07-04T20:23:53.000Z</time>
      </trkpt>
      <trkpt lat="48.86409" lon="2.35298">
        <ele>45.400001525879</ele>
        <time>2016-07-04T20:23:56.000Z</time>
      </trkpt>
      <trkpt lat="48.86388" lon="2.35285">
        <ele>45.400001525879</ele>
        <time>2016-07-04T20:24:00.000Z</time>
      </trkpt>
      <trkpt lat="48.86366" lon="2.35272">
        <ele>45.599998474121</ele>
        <time>2016-07-04T20:24:05.000Z</time>
      </trkpt>
      <trkpt lat="48.86353" lon="2.35269">
        <ele>45.599998474121</ele>
        <time>2016-07-04T20:24:08.000Z</time>
      </trkpt>
      <trkpt lat="48.86335" lon="2.35262">
        <ele>46.200000762939</ele>
        <time>2016-07-04T20:24:12.000Z</time>
      </trkpt>
      <trkpt lat="48.86318" lon="2.35247">
        <ele>47</ele>
        <time>2016-07-04T20:24:15.000Z</time>
      </trkpt>
      <trkpt lat="48.86306" lon="2.35237">
        <ele>47.400001525879</ele>
        <time>2016-07-04T20:24:18.000Z</time>
      </trkpt>
      <trkpt lat="48.86288" lon="2.35226">
        <ele>48.200000762939</ele>
        <time>2016-07-04T20:24:23.000Z</time>
      </trkpt>
      <trkpt lat="48.86267" lon="2.35219">
        <ele>48.400001525879</ele>
        <time>2016-07-04T20:24:28.000Z</time>
      </trkpt>
      <trkpt lat="48.86257" lon="2.35215">
        <ele>48</ele>
        <time>2016-07-04T20:24:30.000Z</time>
      </trkpt>
      <trkpt lat="48.86242" lon="2.35207">
        <ele>47.400001525879</ele>
        <time>2016-07-04T20:24:34.000Z</time>
      </trkpt>
      <trkpt lat="48.86223" lon="2.35198">
        <ele>46.799999237061</ele>
        <time>2016-07-04T20:24:39.000Z</time>
      </trkpt>
      <trkpt lat="48.86204" lon="2.35186">
        <ele>46.200000762939</ele>
        <time>2016-07-04T20:24:44.000Z</time>
      </trkpt>
      <trkpt lat="48.86187" lon="2.35173">
        <ele>46</ele>
        <time>2016-07-04T20:24:49.000Z</time>
      </trkpt>
      <trkpt lat="48.86185" lon="2.3517">
        <ele>46</ele>
        <time>2016-07-04T20:24:50.000Z</time>
      </trkpt>
      <trkpt lat="48.86166" lon="2.3517">
        <ele>46.200000762939</ele>
        <time>2016-07-04T20:25:00.000Z</time>
      </trkpt>
      <trkpt lat="48.86148" lon="2.35154">
        <ele>46.200000762939</ele>
        <time>2016-07-04T20:25:10.000Z</time>
      </trkpt>
      <trkpt lat="48.86145" lon="2.35151">
        <ele>46</ele>
        <time>2016-07-04T20:25:11.000Z</time>
      </trkpt>
      <trkpt lat="48.86123" lon="2.35151">
        <ele>46.400001525879</ele>
        <time>2016-07-04T20:25:16.000Z</time>
      </trkpt>
      <trkpt lat="48.861" lon="2.3516">
        <ele>46.799999237061</ele>
        <time>2016-07-04T20:25:21.000Z</time>
      </trkpt>
      <trkpt lat="48.86078" lon="2.35165">
        <ele>47.400001525879</ele>
        <time>2016-07-04T20:25:26.000Z</time>
      </trkpt>
      <trkpt lat="48.86056" lon="2.35166">
        <ele>47.799999237061</ele>
        <time>2016-07-04T20:25:32.000Z</time>
      </trkpt>
      <trkpt lat="48.86035" lon="2.35165">
        <ele>48</ele>
        <time>2016-07-04T20:25:37.000Z</time>
      </trkpt>
      <trkpt lat="48.86015" lon="2.35161">
        <ele>48.200000762939</ele>
        <time>2016-07-04T20:25:43.000Z</time>
      </trkpt>
      <trkpt lat="48.86013" lon="2.35143">
        <ele>47.599998474121</ele>
        <time>2016-07-04T20:25:46.000Z</time>
      </trkpt>
      <trkpt lat="48.86018" lon="2.3511">
        <ele>45.599998474121</ele>
        <time>2016-07-04T20:25:52.000Z</time>
      </trkpt>
      <trkpt lat="48.8602" lon="2.35103">
        <ele>45.200000762939</ele>
        <time>2016-07-04T20:25:53.000Z</time>
      </trkpt>
      <trkpt lat="48.86028" lon="2.35077">
        <ele>44.200000762939</ele>
        <time>2016-07-04T20:25:58.000Z</time>
      </trkpt>
      <trkpt lat="48.86035" lon="2.35049">
        <ele>45.599998474121</ele>
        <time>2016-07-04T20:26:04.000Z</time>
      </trkpt>
      <trkpt lat="48.86042" lon="2.3502">
        <ele>46.799999237061</ele>
        <time>2016-07-04T20:26:10.000Z</time>
      </trkpt>
      <trkpt lat="48.86049" lon="2.34991">
        <ele>47.400001525879</ele>
        <time>2016-07-04T20:26:15.000Z</time>
      </trkpt>
      <trkpt lat="48.86055" lon="2.34964">
        <ele>47.599998474121</ele>
        <time>2016-07-04T20:26:22.000Z</time>
      </trkpt>
      <trkpt lat="48.86055" lon="2.34959">
        <ele>47.799999237061</ele>
        <time>2016-07-04T20:26:24.000Z</time>
      </trkpt>
      <trkpt lat="48.86045" lon="2.34932">
        <ele>48.200000762939</ele>
        <time>2016-07-04T20:26:41.000Z</time>
      </trkpt>
      <trkpt lat="48.86043" lon="2.34931">
        <ele>48.400001525879</ele>
        <time>2016-07-04T20:26:42.000Z</time>
      </trkpt>
      <trkpt lat="48.86026" lon="2.34919">
        <ele>48.799999237061</ele>
        <time>2016-07-04T20:26:49.000Z</time>
      </trkpt>
      <trkpt lat="48.8601" lon="2.34903">
        <ele>48.799999237061</ele>
        <time>2016-07-04T20:26:55.000Z</time>
      </trkpt>
      <trkpt lat="48.85991" lon="2.34892">
        <ele>48.599998474121</ele>
        <time>2016-07-04T20:27:01.000Z</time>
      </trkpt>
      <trkpt lat="48.85973" lon="2.34882">
        <ele>48.400001525879</ele>
        <time>2016-07-04T20:27:07.000Z</time>
      </trkpt>
      <trkpt lat="48.85954" lon="2.34871">
        <ele>48.200000762939</ele>
        <time>2016-07-04T20:27:14.000Z</time>
      </trkpt>
      <trkpt lat="48.85935" lon="2.34859">
        <ele>48</ele>
        <time>2016-07-04T20:27:20.000Z</time>
      </trkpt>
      <trkpt lat="48.85914" lon="2.34856">
        <ele>48</ele>
        <time>2016-07-04T20:27:25.000Z</time>
      </trkpt>
      <trkpt lat="48.85895" lon="2.34856">
        <ele>48</ele>
        <time>2016-07-04T20:27:29.000Z</time>
      </trkpt>
      <trkpt lat="48.85873" lon="2.34856">
        <ele>48</ele>
        <time>2016-07-04T20:27:35.000Z</time>
      </trkpt>
      <trkpt lat="48.85857" lon="2.34842">
        <ele>48</ele>
        <time>2016-07-04T20:27:42.000Z</time>
      </trkpt>
      <trkpt lat="48.85856" lon="2.34839">
        <ele>48</ele>
        <time>2016-07-04T20:27:43.000Z</time>
      </trkpt>
      <trkpt lat="48.85862" lon="2.3481">
        <ele>47.799999237061</ele>
        <time>2016-07-04T20:27:48.000Z</time>
      </trkpt>
      <trkpt lat="48.85874" lon="2.34785">
        <ele>47.400001525879</ele>
        <time>2016-07-04T20:27:53.000Z</time>
      </trkpt>
      <trkpt lat="48.8589" lon="2.34765">
        <ele>46.599998474121</ele>
        <time>2016-07-04T20:27:59.000Z</time>
      </trkpt>
      <trkpt lat="48.85906" lon="2.34752">
        <ele>45.400001525879</ele>
        <time>2016-07-04T20:28:03.000Z</time>
      </trkpt>
      <trkpt lat="48.85926" lon="2.34734">
        <ele>44.799999237061</ele>
        <time>2016-07-04T20:28:08.000Z</time>
      </trkpt>
      <trkpt lat="48.85944" lon="2.3472">
        <ele>45</ele>
        <time>2016-07-04T20:28:14.000Z</time>
      </trkpt>
      <trkpt lat="48.85954" lon="2.34721">
        <ele>45.200000762939</ele>
        <time>2016-07-04T20:28:33.000Z</time>
      </trkpt>
    </trkseg>
  </trk>
  <trk>
    <name><![CDATA[lundi 2016 07 11]]></name>
    <trkseg>
      <trkpt lat="48.85754" lon="2.34736">
        <ele>40.200000762939</ele>
        <time>2016-07-11T18:23:12.000Z</time>
      </trkpt>
      <trkpt lat="48.85754" lon="2.34735">
        <ele>40.200000762939</ele>
        <time>2016-07-11T18:23:13.000Z</time>
      </trkpt>
      <trkpt lat="48.8575" lon="2.34705">
        <ele>39.599998474121</ele>
        <time>2016-07-11T18:23:25.000Z</time>
      </trkpt>
      <trkpt lat="48.85748" lon="2.34701">
        <ele>39.599998474121</ele>
        <time>2016-07-11T18:23:27.000Z</time>
      </trkpt>
      <trkpt lat="48.85728" lon="2.34693">
        <ele>40.200000762939</ele>
        <time>2016-07-11T18:23:35.000Z</time>
      </trkpt>
      <trkpt lat="48.8571" lon="2.3468">
        <ele>40.599998474121</ele>
        <time>2016-07-11T18:23:40.000Z</time>
      </trkpt>
      <trkpt lat="48.85693" lon="2.34667">
        <ele>41</ele>
        <time>2016-07-11T18:23:45.000Z</time>
      </trkpt>
      <trkpt lat="48.85676" lon="2.34657">
        <ele>42.200000762939</ele>
        <time>2016-07-11T18:23:50.000Z</time>
      </trkpt>
      <trkpt lat="48.8566" lon="2.34644">
        <ele>43.599998474121</ele>
        <time>2016-07-11T18:23:55.000Z</time>
      </trkpt>
      <trkpt lat="48.8564" lon="2.34631">
        <ele>45.200000762939</ele>
        <time>2016-07-11T18:24:01.000Z</time>
      </trkpt>
      <trkpt lat="48.85622" lon="2.34625">
        <ele>46.599998474121</ele>
        <time>2016-07-11T18:24:06.000Z</time>
      </trkpt>
      <trkpt lat="48.85601" lon="2.34616">
        <ele>48</ele>
        <time>2016-07-11T18:24:11.000Z</time>
      </trkpt>
      <trkpt lat="48.85584" lon="2.34605">
        <ele>47.799999237061</ele>
        <time>2016-07-11T18:24:15.000Z</time>
      </trkpt>
      <trkpt lat="48.85567" lon="2.34603">
        <ele>47.599998474121</ele>
        <time>2016-07-11T18:24:20.000Z</time>
      </trkpt>
      <trkpt lat="48.8555" lon="2.34608">
        <ele>47.400001525879</ele>
        <time>2016-07-11T18:24:24.000Z</time>
      </trkpt>
      <trkpt lat="48.85536" lon="2.34633">
        <ele>46.599998474121</ele>
        <time>2016-07-11T18:24:30.000Z</time>
      </trkpt>
      <trkpt lat="48.85529" lon="2.34658">
        <ele>46.200000762939</ele>
        <time>2016-07-11T18:24:35.000Z</time>
      </trkpt>
      <trkpt lat="48.8552" lon="2.34683">
        <ele>43.200000762939</ele>
        <time>2016-07-11T18:24:41.000Z</time>
      </trkpt>
      <trkpt lat="48.85511" lon="2.34707">
        <ele>39.200000762939</ele>
        <time>2016-07-11T18:24:47.000Z</time>
      </trkpt>
      <trkpt lat="48.85502" lon="2.34734">
        <ele>36</ele>
        <time>2016-07-11T18:24:54.000Z</time>
      </trkpt>
      <trkpt lat="48.85489" lon="2.34756">
        <ele>38.400001525879</ele>
        <time>2016-07-11T18:25:01.000Z</time>
      </trkpt>
      <trkpt lat="48.85486" lon="2.34761">
        <ele>39.200000762939</ele>
        <time>2016-07-11T18:25:04.000Z</time>
      </trkpt>
      <trkpt lat="48.85476" lon="2.34761">
        <ele>40.400001525879</ele>
        <time>2016-07-11T18:25:10.000Z</time>
      </trkpt>
      <trkpt lat="48.85457" lon="2.34756">
        <ele>42.400001525879</ele>
        <time>2016-07-11T18:25:16.000Z</time>
      </trkpt>
      <trkpt lat="48.85439" lon="2.34748">
        <ele>44</ele>
        <time>2016-07-11T18:25:21.000Z</time>
      </trkpt>
      <trkpt lat="48.8542" lon="2.3474">
        <ele>42.599998474121</ele>
        <time>2016-07-11T18:25:26.000Z</time>
      </trkpt>
      <trkpt lat="48.854" lon="2.34728">
        <ele>41.400001525879</ele>
        <time>2016-07-11T18:25:31.000Z</time>
      </trkpt>
      <trkpt lat="48.8538" lon="2.34716">
        <ele>40.200000762939</ele>
        <time>2016-07-11T18:25:36.000Z</time>
      </trkpt>
      <trkpt lat="48.85365" lon="2.34703">
        <ele>39.400001525879</ele>
        <time>2016-07-11T18:25:40.000Z</time>
      </trkpt>
      <trkpt lat="48.85344" lon="2.3469">
        <ele>40</ele>
        <time>2016-07-11T18:25:45.000Z</time>
      </trkpt>
      <trkpt lat="48.85325" lon="2.34678">
        <ele>41.799999237061</ele>
        <time>2016-07-11T18:25:50.000Z</time>
      </trkpt>
      <trkpt lat="48.8532" lon="2.34675">
        <ele>42.200000762939</ele>
        <time>2016-07-11T18:25:53.000Z</time>
      </trkpt>
      <trkpt lat="48.85303" lon="2.34668">
        <ele>43.599998474121</ele>
        <time>2016-07-11T18:26:30.000Z</time>
      </trkpt>
      <trkpt lat="48.85283" lon="2.34658">
        <ele>45.200000762939</ele>
        <time>2016-07-11T18:26:35.000Z</time>
      </trkpt>
      <trkpt lat="48.85264" lon="2.3465">
        <ele>45.799999237061</ele>
        <time>2016-07-11T18:26:39.000Z</time>
      </trkpt>
      <trkpt lat="48.85247" lon="2.34641">
        <ele>45.200000762939</ele>
        <time>2016-07-11T18:26:43.000Z</time>
      </trkpt>
      <trkpt lat="48.85227" lon="2.34628">
        <ele>44.599998474121</ele>
        <time>2016-07-11T18:26:48.000Z</time>
      </trkpt>
      <trkpt lat="48.85207" lon="2.34618">
        <ele>44</ele>
        <time>2016-07-11T18:26:54.000Z</time>
      </trkpt>
      <trkpt lat="48.85185" lon="2.3461">
        <ele>43.799999237061</ele>
        <time>2016-07-11T18:26:59.000Z</time>
      </trkpt>
      <trkpt lat="48.85166" lon="2.34601">
        <ele>44.400001525879</ele>
        <time>2016-07-11T18:27:03.000Z</time>
      </trkpt>
      <trkpt lat="48.85146" lon="2.34592">
        <ele>44.799999237061</ele>
        <time>2016-07-11T18:27:07.000Z</time>
      </trkpt>
      <trkpt lat="48.85126" lon="2.34583">
        <ele>45.400001525879</ele>
        <time>2016-07-11T18:27:13.000Z</time>
      </trkpt>
      <trkpt lat="48.8512" lon="2.3458">
        <ele>45.400001525879</ele>
        <time>2016-07-11T18:27:14.000Z</time>
      </trkpt>
      <trkpt lat="48.8511" lon="2.34571">
        <ele>46</ele>
        <time>2016-07-11T18:27:17.000Z</time>
      </trkpt>
      <trkpt lat="48.85089" lon="2.34553">
        <ele>48</ele>
        <time>2016-07-11T18:27:20.000Z</time>
      </trkpt>
      <trkpt lat="48.85084" lon="2.34549">
        <ele>48.400001525879</ele>
        <time>2016-07-11T18:27:21.000Z</time>
      </trkpt>
      <trkpt lat="48.85081" lon="2.3455">
        <ele>48.799999237061</ele>
        <time>2016-07-11T18:27:23.000Z</time>
      </trkpt>
      <trkpt lat="48.85081" lon="2.34552">
        <ele>48.799999237061</ele>
        <time>2016-07-11T18:27:26.000Z</time>
      </trkpt>
      <trkpt lat="48.85068" lon="2.34571">
        <ele>49.400001525879</ele>
        <time>2016-07-11T18:27:37.000Z</time>
      </trkpt>
      <trkpt lat="48.85056" lon="2.34594">
        <ele>50.400001525879</ele>
        <time>2016-07-11T18:27:41.000Z</time>
      </trkpt>
      <trkpt lat="48.85047" lon="2.34622">
        <ele>49.799999237061</ele>
        <time>2016-07-11T18:27:45.000Z</time>
      </trkpt>
      <trkpt lat="48.85039" lon="2.34653">
        <ele>47.200000762939</ele>
        <time>2016-07-11T18:27:49.000Z</time>
      </trkpt>
      <trkpt lat="48.85035" lon="2.34683">
        <ele>45.799999237061</ele>
        <time>2016-07-11T18:27:52.000Z</time>
      </trkpt>
      <trkpt lat="48.8503" lon="2.3471">
        <ele>45</ele>
        <time>2016-07-11T18:27:55.000Z</time>
      </trkpt>
      <trkpt lat="48.85025" lon="2.34738">
        <ele>44.200000762939</ele>
        <time>2016-07-11T18:27:58.000Z</time>
      </trkpt>
      <trkpt lat="48.85018" lon="2.34772">
        <ele>44</ele>
        <time>2016-07-11T18:28:02.000Z</time>
      </trkpt>
      <trkpt lat="48.85013" lon="2.34787">
        <ele>44.200000762939</ele>
        <time>2016-07-11T18:28:04.000Z</time>
      </trkpt>
      <trkpt lat="48.85002" lon="2.34814">
        <ele>44.599998474121</ele>
        <time>2016-07-11T18:28:09.000Z</time>
      </trkpt>
      <trkpt lat="48.84997" lon="2.34831">
        <ele>44.400001525879</ele>
        <time>2016-07-11T18:28:12.000Z</time>
      </trkpt>
      <trkpt lat="48.84986" lon="2.34861">
        <ele>45.799999237061</ele>
        <time>2016-07-11T18:28:17.000Z</time>
      </trkpt>
      <trkpt lat="48.84977" lon="2.34888">
        <ele>47.400001525879</ele>
        <time>2016-07-11T18:28:22.000Z</time>
      </trkpt>
      <trkpt lat="48.8497" lon="2.3492">
        <ele>48.799999237061</ele>
        <time>2016-07-11T18:28:27.000Z</time>
      </trkpt>
      <trkpt lat="48.84963" lon="2.34947">
        <ele>49.200000762939</ele>
        <time>2016-07-11T18:28:31.000Z</time>
      </trkpt>
      <trkpt lat="48.8496" lon="2.34954">
        <ele>48.599998474121</ele>
        <time>2016-07-11T18:28:32.000Z</time>
      </trkpt>
      <trkpt lat="48.84949" lon="2.3498">
        <ele>46.400001525879</ele>
        <time>2016-07-11T18:28:36.000Z</time>
      </trkpt>
      <trkpt lat="48.8494" lon="2.35008">
        <ele>44.599998474121</ele>
        <time>2016-07-11T18:28:40.000Z</time>
      </trkpt>
      <trkpt lat="48.84933" lon="2.35035">
        <ele>44</ele>
        <time>2016-07-11T18:28:44.000Z</time>
      </trkpt>
      <trkpt lat="48.84929" lon="2.35058">
        <ele>43.400001525879</ele>
        <time>2016-07-11T18:28:47.000Z</time>
      </trkpt>
      <trkpt lat="48.84925" lon="2.3509">
        <ele>42.799999237061</ele>
        <time>2016-07-11T18:28:51.000Z</time>
      </trkpt>
      <trkpt lat="48.84925" lon="2.35122">
        <ele>43.200000762939</ele>
        <time>2016-07-11T18:28:55.000Z</time>
      </trkpt>
      <trkpt lat="48.84928" lon="2.35154">
        <ele>43.400001525879</ele>
        <time>2016-07-11T18:28:59.000Z</time>
      </trkpt>
      <trkpt lat="48.84929" lon="2.35186">
        <ele>42.400001525879</ele>
        <time>2016-07-11T18:29:03.000Z</time>
      </trkpt>
      <trkpt lat="48.84927" lon="2.35217">
        <ele>42</ele>
        <time>2016-07-11T18:29:07.000Z</time>
      </trkpt>
      <trkpt lat="48.84927" lon="2.35246">
        <ele>41.599998474121</ele>
        <time>2016-07-11T18:29:11.000Z</time>
      </trkpt>
      <trkpt lat="48.84927" lon="2.35254">
        <ele>41.599998474121</ele>
        <time>2016-07-11T18:29:12.000Z</time>
      </trkpt>
      <trkpt lat="48.84924" lon="2.35282">
        <ele>41.799999237061</ele>
        <time>2016-07-11T18:29:16.000Z</time>
      </trkpt>
      <trkpt lat="48.84923" lon="2.35313">
        <ele>42.200000762939</ele>
        <time>2016-07-11T18:29:20.000Z</time>
      </trkpt>
      <trkpt lat="48.84925" lon="2.35343">
        <ele>43</ele>
        <time>2016-07-11T18:29:24.000Z</time>
      </trkpt>
      <trkpt lat="48.84923" lon="2.35375">
        <ele>44.599998474121</ele>
        <time>2016-07-11T18:29:28.000Z</time>
      </trkpt>
      <trkpt lat="48.8492" lon="2.35404">
        <ele>45.400001525879</ele>
        <time>2016-07-11T18:29:32.000Z</time>
      </trkpt>
      <trkpt lat="48.8492" lon="2.35409">
        <ele>45.599998474121</ele>
        <time>2016-07-11T18:29:33.000Z</time>
      </trkpt>
      <trkpt lat="48.84928" lon="2.35429">
        <ele>45.599998474121</ele>
        <time>2016-07-11T18:29:37.000Z</time>
      </trkpt>
      <trkpt lat="48.8493" lon="2.35457">
        <ele>44.799999237061</ele>
        <time>2016-07-11T18:29:42.000Z</time>
      </trkpt>
      <trkpt lat="48.84931" lon="2.35486">
        <ele>43.799999237061</ele>
        <time>2016-07-11T18:29:46.000Z</time>
      </trkpt>
      <trkpt lat="48.8493" lon="2.35516">
        <ele>41.599998474121</ele>
        <time>2016-07-11T18:29:50.000Z</time>
      </trkpt>
      <trkpt lat="48.84931" lon="2.35546">
        <ele>38.400001525879</ele>
        <time>2016-07-11T18:29:55.000Z</time>
      </trkpt>
      <trkpt lat="48.84933" lon="2.35563">
        <ele>36.599998474121</ele>
        <time>2016-07-11T18:29:59.000Z</time>
      </trkpt>
      <trkpt lat="48.84932" lon="2.35572">
        <ele>35.599998474121</ele>
        <time>2016-07-11T18:30:01.000Z</time>
      </trkpt>
      <trkpt lat="48.84931" lon="2.35582">
        <ele>35</ele>
        <time>2016-07-11T18:30:03.000Z</time>
      </trkpt>
      <trkpt lat="48.84933" lon="2.35611">
        <ele>34</ele>
        <time>2016-07-11T18:30:08.000Z</time>
      </trkpt>
      <trkpt lat="48.84933" lon="2.35619">
        <ele>33.799999237061</ele>
        <time>2016-07-11T18:30:09.000Z</time>
      </trkpt>
      <trkpt lat="48.84933" lon="2.35626">
        <ele>33.400001525879</ele>
        <time>2016-07-11T18:30:10.000Z</time>
      </trkpt>
      <trkpt lat="48.84932" lon="2.35653">
        <ele>32.400001525879</ele>
        <time>2016-07-11T18:30:14.000Z</time>
      </trkpt>
      <trkpt lat="48.84928" lon="2.35686">
        <ele>32.200000762939</ele>
        <time>2016-07-11T18:30:19.000Z</time>
      </trkpt>
      <trkpt lat="48.84928" lon="2.35693">
        <ele>32</ele>
        <time>2016-07-11T18:30:20.000Z</time>
      </trkpt>
      <trkpt lat="48.84926" lon="2.35707">
        <ele>32</ele>
        <time>2016-07-11T18:30:22.000Z</time>
      </trkpt>
      <trkpt lat="48.84916" lon="2.35733">
        <ele>32.200000762939</ele>
        <time>2016-07-11T18:30:26.000Z</time>
      </trkpt>
      <trkpt lat="48.84904" lon="2.35755">
        <ele>33.799999237061</ele>
        <time>2016-07-11T18:30:30.000Z</time>
      </trkpt>
      <trkpt lat="48.84889" lon="2.35775">
        <ele>35.799999237061</ele>
        <time>2016-07-11T18:30:34.000Z</time>
      </trkpt>
      <trkpt lat="48.84874" lon="2.35796">
        <ele>35.400001525879</ele>
        <time>2016-07-11T18:30:38.000Z</time>
      </trkpt>
      <trkpt lat="48.84862" lon="2.35817">
        <ele>34.599998474121</ele>
        <time>2016-07-11T18:30:42.000Z</time>
      </trkpt>
      <trkpt lat="48.84844" lon="2.3584">
        <ele>33.799999237061</ele>
        <time>2016-07-11T18:30:47.000Z</time>
      </trkpt>
      <trkpt lat="48.84828" lon="2.35863">
        <ele>33.200000762939</ele>
        <time>2016-07-11T18:30:51.000Z</time>
      </trkpt>
      <trkpt lat="48.84816" lon="2.35882">
        <ele>32.799999237061</ele>
        <time>2016-07-11T18:30:54.000Z</time>
      </trkpt>
      <trkpt lat="48.84801" lon="2.35908">
        <ele>32.400001525879</ele>
        <time>2016-07-11T18:30:58.000Z</time>
      </trkpt>
      <trkpt lat="48.84786" lon="2.35929">
        <ele>32.599998474121</ele>
        <time>2016-07-11T18:31:02.000Z</time>
      </trkpt>
      <trkpt lat="48.84774" lon="2.3595">
        <ele>32.599998474121</ele>
        <time>2016-07-11T18:31:05.000Z</time>
      </trkpt>
      <trkpt lat="48.8476" lon="2.35975">
        <ele>32.799999237061</ele>
        <time>2016-07-11T18:31:09.000Z</time>
      </trkpt>
      <trkpt lat="48.84745" lon="2.35997">
        <ele>33.599998474121</ele>
        <time>2016-07-11T18:31:13.000Z</time>
      </trkpt>
      <trkpt lat="48.8473" lon="2.36017">
        <ele>33.799999237061</ele>
        <time>2016-07-11T18:31:17.000Z</time>
      </trkpt>
      <trkpt lat="48.84714" lon="2.3604">
        <ele>33.599998474121</ele>
        <time>2016-07-11T18:31:21.000Z</time>
      </trkpt>
      <trkpt lat="48.84699" lon="2.36063">
        <ele>32.799999237061</ele>
        <time>2016-07-11T18:31:25.000Z</time>
      </trkpt>
      <trkpt lat="48.84684" lon="2.36084">
        <ele>31.799999237061</ele>
        <time>2016-07-11T18:31:29.000Z</time>
      </trkpt>
      <trkpt lat="48.84669" lon="2.36107">
        <ele>30.799999237061</ele>
        <time>2016-07-11T18:31:33.000Z</time>
      </trkpt>
      <trkpt lat="48.84658" lon="2.36128">
        <ele>29.799999237061</ele>
        <time>2016-07-11T18:31:36.000Z</time>
      </trkpt>
      <trkpt lat="48.84644" lon="2.3615">
        <ele>29.799999237061</ele>
        <time>2016-07-11T18:31:39.000Z</time>
      </trkpt>
      <trkpt lat="48.84629" lon="2.36169">
        <ele>30.39999961853</ele>
        <time>2016-07-11T18:31:42.000Z</time>
      </trkpt>
      <trkpt lat="48.84615" lon="2.36188">
        <ele>31.39999961853</ele>
        <time>2016-07-11T18:31:45.000Z</time>
      </trkpt>
      <trkpt lat="48.84601" lon="2.36207">
        <ele>31.60000038147</ele>
        <time>2016-07-11T18:31:48.000Z</time>
      </trkpt>
      <trkpt lat="48.84585" lon="2.36228">
        <ele>32.200000762939</ele>
        <time>2016-07-11T18:31:51.000Z</time>
      </trkpt>
      <trkpt lat="48.84571" lon="2.36247">
        <ele>32.799999237061</ele>
        <time>2016-07-11T18:31:54.000Z</time>
      </trkpt>
      <trkpt lat="48.84556" lon="2.36266">
        <ele>32.599998474121</ele>
        <time>2016-07-11T18:31:57.000Z</time>
      </trkpt>
      <trkpt lat="48.84541" lon="2.36288">
        <ele>32.799999237061</ele>
        <time>2016-07-11T18:32:00.000Z</time>
      </trkpt>
      <trkpt lat="48.84527" lon="2.36308">
        <ele>33.799999237061</ele>
        <time>2016-07-11T18:32:03.000Z</time>
      </trkpt>
      <trkpt lat="48.84514" lon="2.36327">
        <ele>34</ele>
        <time>2016-07-11T18:32:06.000Z</time>
      </trkpt>
      <trkpt lat="48.84499" lon="2.3635">
        <ele>33.799999237061</ele>
        <time>2016-07-11T18:32:10.000Z</time>
      </trkpt>
      <trkpt lat="48.84484" lon="2.36374">
        <ele>33.400001525879</ele>
        <time>2016-07-11T18:32:14.000Z</time>
      </trkpt>
      <trkpt lat="48.84479" lon="2.36381">
        <ele>34</ele>
        <time>2016-07-11T18:32:16.000Z</time>
      </trkpt>
      <trkpt lat="48.84465" lon="2.36374">
        <ele>34.799999237061</ele>
        <time>2016-07-11T18:32:23.000Z</time>
      </trkpt>
      <trkpt lat="48.84462" lon="2.36374">
        <ele>34.799999237061</ele>
        <time>2016-07-11T18:32:24.000Z</time>
      </trkpt>
      <trkpt lat="48.84456" lon="2.36371">
        <ele>35.200000762939</ele>
        <time>2016-07-11T18:32:27.000Z</time>
      </trkpt>
      <trkpt lat="48.84447" lon="2.3637">
        <ele>35.799999237061</ele>
        <time>2016-07-11T18:32:30.000Z</time>
      </trkpt>
      <trkpt lat="48.84433" lon="2.36372">
        <ele>36.400001525879</ele>
        <time>2016-07-11T18:32:34.000Z</time>
      </trkpt>
      <trkpt lat="48.84414" lon="2.36379">
        <ele>36.799999237061</ele>
        <time>2016-07-11T18:32:39.000Z</time>
      </trkpt>
      <trkpt lat="48.84411" lon="2.36381">
        <ele>36.799999237061</ele>
        <time>2016-07-11T18:32:40.000Z</time>
      </trkpt>
      <trkpt lat="48.84398" lon="2.3639">
        <ele>36.799999237061</ele>
        <time>2016-07-11T18:32:45.000Z</time>
      </trkpt>
      <trkpt lat="48.84388" lon="2.36399">
        <ele>36.599998474121</ele>
        <time>2016-07-11T18:32:49.000Z</time>
      </trkpt>
      <trkpt lat="48.84372" lon="2.36415">
        <ele>36.400001525879</ele>
        <time>2016-07-11T18:32:55.000Z</time>
      </trkpt>
      <trkpt lat="48.8436" lon="2.36431">
        <ele>36.200000762939</ele>
        <time>2016-07-11T18:33:57.000Z</time>
      </trkpt>
      <trkpt lat="48.84354" lon="2.36456">
        <ele>37.599998474121</ele>
        <time>2016-07-11T18:34:10.000Z</time>
      </trkpt>
      <trkpt lat="48.8435" lon="2.36483">
        <ele>38.400001525879</ele>
        <time>2016-07-11T18:34:18.000Z</time>
      </trkpt>
      <trkpt lat="48.84347" lon="2.36514">
        <ele>38.400001525879</ele>
        <time>2016-07-11T18:34:26.000Z</time>
      </trkpt>
      <trkpt lat="48.84346" lon="2.36543">
        <ele>37.400001525879</ele>
        <time>2016-07-11T18:34:34.000Z</time>
      </trkpt>
      <trkpt lat="48.84331" lon="2.36561">
        <ele>37</ele>
        <time>2016-07-11T18:34:41.000Z</time>
      </trkpt>
      <trkpt lat="48.84318" lon="2.36585">
        <ele>38.400001525879</ele>
        <time>2016-07-11T18:34:48.000Z</time>
      </trkpt>
      <trkpt lat="48.84304" lon="2.36604">
        <ele>38</ele>
        <time>2016-07-11T18:34:52.000Z</time>
      </trkpt>
      <trkpt lat="48.84289" lon="2.36627">
        <ele>37.599998474121</ele>
        <time>2016-07-11T18:34:57.000Z</time>
      </trkpt>
      <trkpt lat="48.84274" lon="2.3665">
        <ele>37</ele>
        <time>2016-07-11T18:35:02.000Z</time>
      </trkpt>
      <trkpt lat="48.84258" lon="2.3667">
        <ele>36</ele>
        <time>2016-07-11T18:35:07.000Z</time>
      </trkpt>
      <trkpt lat="48.84234" lon="2.36691">
        <ele>35.200000762939</ele>
        <time>2016-07-11T18:35:11.000Z</time>
      </trkpt>
      <trkpt lat="48.84219" lon="2.36708">
        <ele>34.599998474121</ele>
        <time>2016-07-11T18:35:15.000Z</time>
      </trkpt>
      <trkpt lat="48.84203" lon="2.36728">
        <ele>34.400001525879</ele>
        <time>2016-07-11T18:35:20.000Z</time>
      </trkpt>
      <trkpt lat="48.84191" lon="2.36746">
        <ele>34</ele>
        <time>2016-07-11T18:35:26.000Z</time>
      </trkpt>
      <trkpt lat="48.84185" lon="2.36756">
        <ele>34.200000762939</ele>
        <time>2016-07-11T18:35:29.000Z</time>
      </trkpt>
      <trkpt lat="48.84178" lon="2.36767">
        <ele>34.599998474121</ele>
        <time>2016-07-11T18:35:32.000Z</time>
      </trkpt>
      <trkpt lat="48.84175" lon="2.3678">
        <ele>34.799999237061</ele>
        <time>2016-07-11T18:35:34.000Z</time>
      </trkpt>
      <trkpt lat="48.84166" lon="2.36804">
        <ele>35.400001525879</ele>
        <time>2016-07-11T18:35:40.000Z</time>
      </trkpt>
      <trkpt lat="48.84152" lon="2.36824">
        <ele>36.200000762939</ele>
        <time>2016-07-11T18:35:44.000Z</time>
      </trkpt>
      <trkpt lat="48.84136" lon="2.36848">
        <ele>35.200000762939</ele>
        <time>2016-07-11T18:35:48.000Z</time>
      </trkpt>
      <trkpt lat="48.84121" lon="2.36869">
        <ele>34.799999237061</ele>
        <time>2016-07-11T18:35:51.000Z</time>
      </trkpt>
      <trkpt lat="48.84105" lon="2.3689">
        <ele>35.200000762939</ele>
        <time>2016-07-11T18:35:54.000Z</time>
      </trkpt>
      <trkpt lat="48.84094" lon="2.36905">
        <ele>34.200000762939</ele>
        <time>2016-07-11T18:35:56.000Z</time>
      </trkpt>
      <trkpt lat="48.84077" lon="2.36927">
        <ele>33.599998474121</ele>
        <time>2016-07-11T18:35:59.000Z</time>
      </trkpt>
      <trkpt lat="48.84058" lon="2.3695">
        <ele>32.799999237061</ele>
        <time>2016-07-11T18:36:02.000Z</time>
      </trkpt>
      <trkpt lat="48.84043" lon="2.36974">
        <ele>32.799999237061</ele>
        <time>2016-07-11T18:36:05.000Z</time>
      </trkpt>
      <trkpt lat="48.84032" lon="2.36989">
        <ele>32.799999237061</ele>
        <time>2016-07-11T18:36:07.000Z</time>
      </trkpt>
      <trkpt lat="48.84014" lon="2.37009">
        <ele>33</ele>
        <time>2016-07-11T18:36:10.000Z</time>
      </trkpt>
      <trkpt lat="48.83997" lon="2.37032">
        <ele>33</ele>
        <time>2016-07-11T18:36:13.000Z</time>
      </trkpt>
      <trkpt lat="48.83988" lon="2.37048">
        <ele>33</ele>
        <time>2016-07-11T18:36:15.000Z</time>
      </trkpt>
      <trkpt lat="48.83974" lon="2.37071">
        <ele>33.400001525879</ele>
        <time>2016-07-11T18:36:18.000Z</time>
      </trkpt>
      <trkpt lat="48.83969" lon="2.37079">
        <ele>33.599998474121</ele>
        <time>2016-07-11T18:36:19.000Z</time>
      </trkpt>
      <trkpt lat="48.83955" lon="2.37096">
        <ele>34</ele>
        <time>2016-07-11T18:36:21.000Z</time>
      </trkpt>
      <trkpt lat="48.83933" lon="2.37131">
        <ele>33.799999237061</ele>
        <time>2016-07-11T18:36:25.000Z</time>
      </trkpt>
      <trkpt lat="48.83915" lon="2.37155">
        <ele>33.200000762939</ele>
        <time>2016-07-11T18:36:28.000Z</time>
      </trkpt>
      <trkpt lat="48.83896" lon="2.37182">
        <ele>32.400001525879</ele>
        <time>2016-07-11T18:36:31.000Z</time>
      </trkpt>
      <trkpt lat="48.8388" lon="2.372">
        <ele>32.200000762939</ele>
        <time>2016-07-11T18:36:33.000Z</time>
      </trkpt>
      <trkpt lat="48.83866" lon="2.37218">
        <ele>32.400001525879</ele>
        <time>2016-07-11T18:36:36.000Z</time>
      </trkpt>
      <trkpt lat="48.83845" lon="2.37245">
        <ele>33.400001525879</ele>
        <time>2016-07-11T18:36:38.000Z</time>
      </trkpt>
      <trkpt lat="48.83828" lon="2.37269">
        <ele>34</ele>
        <time>2016-07-11T18:36:41.000Z</time>
      </trkpt>
      <trkpt lat="48.83817" lon="2.37281">
        <ele>34.400001525879</ele>
        <time>2016-07-11T18:36:44.000Z</time>
      </trkpt>
      <trkpt lat="48.838" lon="2.373">
        <ele>35.599998474121</ele>
        <time>2016-07-11T18:36:47.000Z</time>
      </trkpt>
      <trkpt lat="48.83773" lon="2.3733">
        <ele>38</ele>
        <time>2016-07-11T18:36:52.000Z</time>
      </trkpt>
      <trkpt lat="48.83758" lon="2.37347">
        <ele>38.799999237061</ele>
        <time>2016-07-11T18:36:57.000Z</time>
      </trkpt>
      <trkpt lat="48.83754" lon="2.37351">
        <ele>39.200000762939</ele>
        <time>2016-07-11T18:37:00.000Z</time>
      </trkpt>
      <trkpt lat="48.83742" lon="2.37357">
        <ele>39.799999237061</ele>
        <time>2016-07-11T18:37:35.000Z</time>
      </trkpt>
      <trkpt lat="48.83728" lon="2.37378">
        <ele>40.599998474121</ele>
        <time>2016-07-11T18:37:44.000Z</time>
      </trkpt>
      <trkpt lat="48.83731" lon="2.37393">
        <ele>40.599998474121</ele>
        <time>2016-07-11T18:37:49.000Z</time>
      </trkpt>
      <trkpt lat="48.83744" lon="2.37413">
        <ele>40.400001525879</ele>
        <time>2016-07-11T18:37:58.000Z</time>
      </trkpt>
      <trkpt lat="48.8376" lon="2.37436">
        <ele>39.799999237061</ele>
        <time>2016-07-11T18:38:04.000Z</time>
      </trkpt>
      <trkpt lat="48.83763" lon="2.37441">
        <ele>39.799999237061</ele>
        <time>2016-07-11T18:38:05.000Z</time>
      </trkpt>
      <trkpt lat="48.83775" lon="2.37461">
        <ele>39.400001525879</ele>
        <time>2016-07-11T18:38:09.000Z</time>
      </trkpt>
      <trkpt lat="48.83792" lon="2.37488">
        <ele>39.200000762939</ele>
        <time>2016-07-11T18:38:13.000Z</time>
      </trkpt>
      <trkpt lat="48.83805" lon="2.37511">
        <ele>38.599998474121</ele>
        <time>2016-07-11T18:38:17.000Z</time>
      </trkpt>
      <trkpt lat="48.83818" lon="2.37536">
        <ele>38</ele>
        <time>2016-07-11T18:38:21.000Z</time>
      </trkpt>
      <trkpt lat="48.83834" lon="2.37566">
        <ele>36.599998474121</ele>
        <time>2016-07-11T18:38:26.000Z</time>
      </trkpt>
      <trkpt lat="48.83843" lon="2.37583">
        <ele>35.799999237061</ele>
        <time>2016-07-11T18:38:31.000Z</time>
      </trkpt>
      <trkpt lat="48.83845" lon="2.37592">
        <ele>36.200000762939</ele>
        <time>2016-07-11T18:38:36.000Z</time>
      </trkpt>
      <trkpt lat="48.83848" lon="2.37596">
        <ele>36.400001525879</ele>
        <time>2016-07-11T18:38:37.000Z</time>
      </trkpt>
      <trkpt lat="48.83863" lon="2.37613">
        <ele>37.400001525879</ele>
        <time>2016-07-11T18:38:43.000Z</time>
      </trkpt>
      <trkpt lat="48.83878" lon="2.37638">
        <ele>39.200000762939</ele>
        <time>2016-07-11T18:38:49.000Z</time>
      </trkpt>
      <trkpt lat="48.83892" lon="2.3766">
        <ele>40.599998474121</ele>
        <time>2016-07-11T18:38:53.000Z</time>
      </trkpt>
      <trkpt lat="48.83905" lon="2.37684">
        <ele>40.599998474121</ele>
        <time>2016-07-11T18:38:57.000Z</time>
      </trkpt>
      <trkpt lat="48.83916" lon="2.37707">
        <ele>40.400001525879</ele>
        <time>2016-07-11T18:39:00.000Z</time>
      </trkpt>
      <trkpt lat="48.83931" lon="2.37734">
        <ele>40.200000762939</ele>
        <time>2016-07-11T18:39:03.000Z</time>
      </trkpt>
      <trkpt lat="48.83938" lon="2.37742">
        <ele>40.200000762939</ele>
        <time>2016-07-11T18:39:04.000Z</time>
      </trkpt>
      <trkpt lat="48.83952" lon="2.37767">
        <ele>41.400001525879</ele>
        <time>2016-07-11T18:39:07.000Z</time>
      </trkpt>
      <trkpt lat="48.83965" lon="2.37792">
        <ele>43.200000762939</ele>
        <time>2016-07-11T18:39:10.000Z</time>
      </trkpt>
      <trkpt lat="48.83976" lon="2.37815">
        <ele>44.799999237061</ele>
        <time>2016-07-11T18:39:13.000Z</time>
      </trkpt>
      <trkpt lat="48.83987" lon="2.37838">
        <ele>46</ele>
        <time>2016-07-11T18:39:16.000Z</time>
      </trkpt>
      <trkpt lat="48.83989" lon="2.37846">
        <ele>46</ele>
        <time>2016-07-11T18:39:17.000Z</time>
      </trkpt>
      <trkpt lat="48.84002" lon="2.37873">
        <ele>46</ele>
        <time>2016-07-11T18:39:21.000Z</time>
      </trkpt>
      <trkpt lat="48.84012" lon="2.3789">
        <ele>46</ele>
        <time>2016-07-11T18:39:24.000Z</time>
      </trkpt>
      <trkpt lat="48.84023" lon="2.37918">
        <ele>46</ele>
        <time>2016-07-11T18:39:29.000Z</time>
      </trkpt>
      <trkpt lat="48.84026" lon="2.37927">
        <ele>45.599998474121</ele>
        <time>2016-07-11T18:39:31.000Z</time>
      </trkpt>
      <trkpt lat="48.84038" lon="2.37953">
        <ele>44.400001525879</ele>
        <time>2016-07-11T18:39:37.000Z</time>
      </trkpt>
      <trkpt lat="48.8404" lon="2.37965">
        <ele>44</ele>
        <time>2016-07-11T18:39:39.000Z</time>
      </trkpt>
      <trkpt lat="48.84038" lon="2.37995">
        <ele>43.400001525879</ele>
        <time>2016-07-11T18:39:44.000Z</time>
      </trkpt>
      <trkpt lat="48.84035" lon="2.38014">
        <ele>43</ele>
        <time>2016-07-11T18:39:47.000Z</time>
      </trkpt>
      <trkpt lat="48.84029" lon="2.38046">
        <ele>43</ele>
        <time>2016-07-11T18:39:52.000Z</time>
      </trkpt>
      <trkpt lat="48.84024" lon="2.38074">
        <ele>43</ele>
        <time>2016-07-11T18:39:56.000Z</time>
      </trkpt>
      <trkpt lat="48.84018" lon="2.38105">
        <ele>42.400001525879</ele>
        <time>2016-07-11T18:40:00.000Z</time>
      </trkpt>
      <trkpt lat="48.84011" lon="2.38136">
        <ele>41.799999237061</ele>
        <time>2016-07-11T18:40:04.000Z</time>
      </trkpt>
      <trkpt lat="48.84006" lon="2.38167">
        <ele>41.799999237061</ele>
        <time>2016-07-11T18:40:08.000Z</time>
      </trkpt>
      <trkpt lat="48.84001" lon="2.38195">
        <ele>40.400001525879</ele>
        <time>2016-07-11T18:40:12.000Z</time>
      </trkpt>
      <trkpt lat="48.83992" lon="2.3822">
        <ele>39.599998474121</ele>
        <time>2016-07-11T18:40:17.000Z</time>
      </trkpt>
      <trkpt lat="48.8399" lon="2.38223">
        <ele>39.599998474121</ele>
        <time>2016-07-11T18:40:18.000Z</time>
      </trkpt>
      <trkpt lat="48.83988" lon="2.38226">
        <ele>39.599998474121</ele>
        <time>2016-07-11T18:40:19.000Z</time>
      </trkpt>
      <trkpt lat="48.83987" lon="2.38236">
        <ele>39.400001525879</ele>
        <time>2016-07-11T18:40:32.000Z</time>
      </trkpt>
      <trkpt lat="48.83975" lon="2.38234">
        <ele>40.599998474121</ele>
        <time>2016-07-11T18:40:37.000Z</time>
      </trkpt>
      <trkpt lat="48.83955" lon="2.38227">
        <ele>42.400001525879</ele>
        <time>2016-07-11T18:40:42.000Z</time>
      </trkpt>
      <trkpt lat="48.83945" lon="2.38225">
        <ele>43.400001525879</ele>
        <time>2016-07-11T18:40:44.000Z</time>
      </trkpt>
      <trkpt lat="48.83927" lon="2.38221">
        <ele>43.400001525879</ele>
        <time>2016-07-11T18:40:47.000Z</time>
      </trkpt>
      <trkpt lat="48.83907" lon="2.38215">
        <ele>42.599998474121</ele>
        <time>2016-07-11T18:40:50.000Z</time>
      </trkpt>
      <trkpt lat="48.8389" lon="2.38209">
        <ele>42.200000762939</ele>
        <time>2016-07-11T18:40:53.000Z</time>
      </trkpt>
      <trkpt lat="48.83871" lon="2.38207">
        <ele>41.799999237061</ele>
        <time>2016-07-11T18:40:58.000Z</time>
      </trkpt>
      <trkpt lat="48.83852" lon="2.38215">
        <ele>41.400001525879</ele>
        <time>2016-07-11T18:41:04.000Z</time>
      </trkpt>
      <trkpt lat="48.83837" lon="2.38233">
        <ele>41.200000762939</ele>
        <time>2016-07-11T18:41:11.000Z</time>
      </trkpt>
      <trkpt lat="48.83823" lon="2.38254">
        <ele>41.400001525879</ele>
        <time>2016-07-11T18:41:20.000Z</time>
      </trkpt>
      <trkpt lat="48.83809" lon="2.38273">
        <ele>41.200000762939</ele>
        <time>2016-07-11T18:41:27.000Z</time>
      </trkpt>
      <trkpt lat="48.83796" lon="2.38292">
        <ele>41.400001525879</ele>
        <time>2016-07-11T18:41:35.000Z</time>
      </trkpt>
      <trkpt lat="48.83787" lon="2.38317">
        <ele>41.599998474121</ele>
        <time>2016-07-11T18:41:43.000Z</time>
      </trkpt>
      <trkpt lat="48.83777" lon="2.38344">
        <ele>41.799999237061</ele>
        <time>2016-07-11T18:41:49.000Z</time>
      </trkpt>
      <trkpt lat="48.83765" lon="2.38374">
        <ele>41.599998474121</ele>
        <time>2016-07-11T18:41:54.000Z</time>
      </trkpt>
      <trkpt lat="48.83753" lon="2.38401">
        <ele>41.400001525879</ele>
        <time>2016-07-11T18:41:59.000Z</time>
      </trkpt>
      <trkpt lat="48.83742" lon="2.38425">
        <ele>40.799999237061</ele>
        <time>2016-07-11T18:42:03.000Z</time>
      </trkpt>
      <trkpt lat="48.83731" lon="2.3845">
        <ele>40.599998474121</ele>
        <time>2016-07-11T18:42:07.000Z</time>
      </trkpt>
      <trkpt lat="48.8372" lon="2.38475">
        <ele>39.200000762939</ele>
        <time>2016-07-11T18:42:11.000Z</time>
      </trkpt>
      <trkpt lat="48.83708" lon="2.38499">
        <ele>37.799999237061</ele>
        <time>2016-07-11T18:42:15.000Z</time>
      </trkpt>
      <trkpt lat="48.83704" lon="2.38512">
        <ele>37.799999237061</ele>
        <time>2016-07-11T18:42:17.000Z</time>
      </trkpt>
      <trkpt lat="48.83694" lon="2.38537">
        <ele>37.200000762939</ele>
        <time>2016-07-11T18:42:21.000Z</time>
      </trkpt>
      <trkpt lat="48.83685" lon="2.38565">
        <ele>37</ele>
        <time>2016-07-11T18:42:26.000Z</time>
      </trkpt>
      <trkpt lat="48.83677" lon="2.38581">
        <ele>37.200000762939</ele>
        <time>2016-07-11T18:42:30.000Z</time>
      </trkpt>
      <trkpt lat="48.83673" lon="2.38589">
        <ele>37.200000762939</ele>
        <time>2016-07-11T18:42:32.000Z</time>
      </trkpt>
      <trkpt lat="48.83671" lon="2.38595">
        <ele>37.200000762939</ele>
        <time>2016-07-11T18:42:35.000Z</time>
      </trkpt>
      <trkpt lat="48.8367" lon="2.38606">
        <ele>37.200000762939</ele>
        <time>2016-07-11T18:42:38.000Z</time>
      </trkpt>
      <trkpt lat="48.83671" lon="2.38612">
        <ele>37</ele>
        <time>2016-07-11T18:42:42.000Z</time>
      </trkpt>
      <trkpt lat="48.83672" lon="2.38615">
        <ele>37</ele>
        <time>2016-07-11T18:42:45.000Z</time>
      </trkpt>
      <trkpt lat="48.83663" lon="2.3864">
        <ele>37</ele>
        <time>2016-07-11T18:42:57.000Z</time>
      </trkpt>
      <trkpt lat="48.83648" lon="2.38664">
        <ele>36.599998474121</ele>
        <time>2016-07-11T18:43:06.000Z</time>
      </trkpt>
      <trkpt lat="48.83643" lon="2.38677">
        <ele>36.400001525879</ele>
        <time>2016-07-11T18:43:11.000Z</time>
      </trkpt>
      <trkpt lat="48.83642" lon="2.38684">
        <ele>36.400001525879</ele>
        <time>2016-07-11T18:43:16.000Z</time>
      </trkpt>
      <trkpt lat="48.83638" lon="2.38675">
        <ele>36.400001525879</ele>
        <time>2016-07-11T18:44:34.000Z</time>
      </trkpt>
      <trkpt lat="48.83624" lon="2.38668">
        <ele>36.799999237061</ele>
        <time>2016-07-11T18:45:00.000Z</time>
      </trkpt>
      <trkpt lat="48.83613" lon="2.38675">
        <ele>36.799999237061</ele>
        <time>2016-07-11T18:45:05.000Z</time>
      </trkpt>
      <trkpt lat="48.83609" lon="2.38706">
        <ele>37</ele>
        <time>2016-07-11T18:45:13.000Z</time>
      </trkpt>
      <trkpt lat="48.83618" lon="2.38728">
        <ele>36.599998474121</ele>
        <time>2016-07-11T18:45:17.000Z</time>
      </trkpt>
      <trkpt lat="48.83621" lon="2.38733">
        <ele>36.599998474121</ele>
        <time>2016-07-11T18:45:18.000Z</time>
      </trkpt>
      <trkpt lat="48.83635" lon="2.38754">
        <ele>36.400001525879</ele>
        <time>2016-07-11T18:45:23.000Z</time>
      </trkpt>
      <trkpt lat="48.83648" lon="2.38777">
        <ele>36.400001525879</ele>
        <time>2016-07-11T18:45:29.000Z</time>
      </trkpt>
      <trkpt lat="48.83659" lon="2.38802">
        <ele>36.400001525879</ele>
        <time>2016-07-11T18:45:35.000Z</time>
      </trkpt>
      <trkpt lat="48.83657" lon="2.38809">
        <ele>36.599998474121</ele>
        <time>2016-07-11T18:45:38.000Z</time>
      </trkpt>
      <trkpt lat="48.83636" lon="2.38813">
        <ele>37.400001525879</ele>
        <time>2016-07-11T18:45:43.000Z</time>
      </trkpt>
      <trkpt lat="48.83631" lon="2.38814">
        <ele>37.599998474121</ele>
        <time>2016-07-11T18:45:44.000Z</time>
      </trkpt>
      <trkpt lat="48.8362" lon="2.38833">
        <ele>38.400001525879</ele>
        <time>2016-07-11T18:45:53.000Z</time>
      </trkpt>
      <trkpt lat="48.8365" lon="2.38878">
        <ele>37.400001525879</ele>
        <time>2016-07-11T18:46:06.000Z</time>
      </trkpt>
      <trkpt lat="48.83674" lon="2.38947">
        <ele>37.599998474121</ele>
        <time>2016-07-11T18:46:12.000Z</time>
      </trkpt>
      <trkpt lat="48.83701" lon="2.38986">
        <ele>39.400001525879</ele>
        <time>2016-07-11T18:46:13.000Z</time>
      </trkpt>
      <trkpt lat="48.83709" lon="2.39017">
        <ele>40.400001525879</ele>
        <time>2016-07-11T18:46:16.000Z</time>
      </trkpt>
      <trkpt lat="48.83709" lon="2.39017">
        <ele>40.400001525879</ele>
        <time>2016-07-11T18:46:17.000Z</time>
      </trkpt>
      <trkpt lat="48.83712" lon="2.39032">
        <ele>40.799999237061</ele>
        <time>2016-07-11T18:46:18.000Z</time>
      </trkpt>
      <trkpt lat="48.83716" lon="2.39064">
        <ele>41.599998474121</ele>
        <time>2016-07-11T18:46:22.000Z</time>
      </trkpt>
      <trkpt lat="48.83718" lon="2.3907">
        <ele>41.799999237061</ele>
        <time>2016-07-11T18:46:23.000Z</time>
      </trkpt>
      <trkpt lat="48.83723" lon="2.39089">
        <ele>42.200000762939</ele>
        <time>2016-07-11T18:46:25.000Z</time>
      </trkpt>
      <trkpt lat="48.83728" lon="2.39111">
        <ele>42.799999237061</ele>
        <time>2016-07-11T18:46:29.000Z</time>
      </trkpt>
      <trkpt lat="48.83744" lon="2.39138">
        <ele>43.400001525879</ele>
        <time>2016-07-11T18:46:32.000Z</time>
      </trkpt>
      <trkpt lat="48.8375" lon="2.39145">
        <ele>43.400001525879</ele>
        <time>2016-07-11T18:46:33.000Z</time>
      </trkpt>
      <trkpt lat="48.83759" lon="2.39159">
        <ele>43.599998474121</ele>
        <time>2016-07-11T18:46:35.000Z</time>
      </trkpt>
      <trkpt lat="48.83769" lon="2.39171">
        <ele>44</ele>
        <time>2016-07-11T18:46:37.000Z</time>
      </trkpt>
      <trkpt lat="48.83785" lon="2.39187">
        <ele>44.799999237061</ele>
        <time>2016-07-11T18:46:40.000Z</time>
      </trkpt>
      <trkpt lat="48.83791" lon="2.39193">
        <ele>45.200000762939</ele>
        <time>2016-07-11T18:46:41.000Z</time>
      </trkpt>
      <trkpt lat="48.83804" lon="2.39215">
        <ele>46</ele>
        <time>2016-07-11T18:46:44.000Z</time>
      </trkpt>
      <trkpt lat="48.83817" lon="2.39236">
        <ele>46.799999237061</ele>
        <time>2016-07-11T18:46:47.000Z</time>
      </trkpt>
      <trkpt lat="48.83825" lon="2.39251">
        <ele>47.400001525879</ele>
        <time>2016-07-11T18:46:49.000Z</time>
      </trkpt>
      <trkpt lat="48.83841" lon="2.39277">
        <ele>48.599998474121</ele>
        <time>2016-07-11T18:46:53.000Z</time>
      </trkpt>
      <trkpt lat="48.8385" lon="2.39287">
        <ele>49.200000762939</ele>
        <time>2016-07-11T18:46:55.000Z</time>
      </trkpt>
      <trkpt lat="48.83858" lon="2.39305">
        <ele>50</ele>
        <time>2016-07-11T18:46:59.000Z</time>
      </trkpt>
      <trkpt lat="48.83863" lon="2.39316">
        <ele>50.599998474121</ele>
        <time>2016-07-11T18:47:07.000Z</time>
      </trkpt>
      <trkpt lat="48.83865" lon="2.39294">
        <ele>49.799999237061</ele>
        <time>2016-07-11T18:47:37.000Z</time>
      </trkpt>
      <trkpt lat="48.83879" lon="2.39276">
        <ele>49.200000762939</ele>
        <time>2016-07-11T18:47:45.000Z</time>
      </trkpt>
      <trkpt lat="48.83893" lon="2.39249">
        <ele>48.400001525879</ele>
        <time>2016-07-11T18:47:53.000Z</time>
      </trkpt>
      <trkpt lat="48.83905" lon="2.39226">
        <ele>48.400001525879</ele>
        <time>2016-07-11T18:47:59.000Z</time>
      </trkpt>
      <trkpt lat="48.83909" lon="2.39222">
        <ele>48.400001525879</ele>
        <time>2016-07-11T18:48:12.000Z</time>
      </trkpt>
      <trkpt lat="48.83913" lon="2.39226">
        <ele>48.400001525879</ele>
        <time>2016-07-11T18:49:00.000Z</time>
      </trkpt>
      <trkpt lat="48.83917" lon="2.39255">
        <ele>49</ele>
        <time>2016-07-11T18:49:08.000Z</time>
      </trkpt>
      <trkpt lat="48.83921" lon="2.39285">
        <ele>50.200000762939</ele>
        <time>2016-07-11T18:49:13.000Z</time>
      </trkpt>
      <trkpt lat="48.83927" lon="2.39313">
        <ele>51.200000762939</ele>
        <time>2016-07-11T18:49:19.000Z</time>
      </trkpt>
      <trkpt lat="48.8393" lon="2.39343">
        <ele>52.400001525879</ele>
        <time>2016-07-11T18:49:27.000Z</time>
      </trkpt>
      <trkpt lat="48.83931" lon="2.39371">
        <ele>53.799999237061</ele>
        <time>2016-07-11T18:49:34.000Z</time>
      </trkpt>
      <trkpt lat="48.83937" lon="2.39391">
        <ele>54.799999237061</ele>
        <time>2016-07-11T18:49:41.000Z</time>
      </trkpt>
      <trkpt lat="48.83936" lon="2.39397">
        <ele>55.200000762939</ele>
        <time>2016-07-11T18:49:43.000Z</time>
      </trkpt>
      <trkpt lat="48.83936" lon="2.39406">
        <ele>55.599998474121</ele>
        <time>2016-07-11T18:49:47.000Z</time>
      </trkpt>
      <trkpt lat="48.8394" lon="2.39429">
        <ele>56.200000762939</ele>
        <time>2016-07-11T18:49:53.000Z</time>
      </trkpt>
      <trkpt lat="48.83941" lon="2.39438">
        <ele>56.200000762939</ele>
        <time>2016-07-11T18:49:57.000Z</time>
      </trkpt>
      <trkpt lat="48.83944" lon="2.39446">
        <ele>56.400001525879</ele>
        <time>2016-07-11T18:50:01.000Z</time>
      </trkpt>
      <trkpt lat="48.83946" lon="2.39478">
        <ele>56.799999237061</ele>
        <time>2016-07-11T18:50:09.000Z</time>
      </trkpt>
      <trkpt lat="48.83949" lon="2.39508">
        <ele>57.200000762939</ele>
        <time>2016-07-11T18:50:14.000Z</time>
      </trkpt>
      <trkpt lat="48.83946" lon="2.39542">
        <ele>57.599998474121</ele>
        <time>2016-07-11T18:50:21.000Z</time>
      </trkpt>
      <trkpt lat="48.83941" lon="2.39572">
        <ele>58</ele>
        <time>2016-07-11T18:50:28.000Z</time>
      </trkpt>
      <trkpt lat="48.83936" lon="2.39604">
        <ele>58.200000762939</ele>
        <time>2016-07-11T18:50:36.000Z</time>
      </trkpt>
      <trkpt lat="48.83929" lon="2.39632">
        <ele>58.400001525879</ele>
        <time>2016-07-11T18:50:41.000Z</time>
      </trkpt>
      <trkpt lat="48.83923" lon="2.39661">
        <ele>58.200000762939</ele>
        <time>2016-07-11T18:50:46.000Z</time>
      </trkpt>
      <trkpt lat="48.83912" lon="2.3969">
        <ele>57.599998474121</ele>
        <time>2016-07-11T18:50:51.000Z</time>
      </trkpt>
      <trkpt lat="48.83903" lon="2.39716">
        <ele>57.400001525879</ele>
        <time>2016-07-11T18:50:55.000Z</time>
      </trkpt>
      <trkpt lat="48.83892" lon="2.39743">
        <ele>58</ele>
        <time>2016-07-11T18:50:59.000Z</time>
      </trkpt>
      <trkpt lat="48.83881" lon="2.39774">
        <ele>59.400001525879</ele>
        <time>2016-07-11T18:51:03.000Z</time>
      </trkpt>
      <trkpt lat="48.83867" lon="2.39804">
        <ele>60.200000762939</ele>
        <time>2016-07-11T18:51:06.000Z</time>
      </trkpt>
      <trkpt lat="48.83856" lon="2.39834">
        <ele>61</ele>
        <time>2016-07-11T18:51:10.000Z</time>
      </trkpt>
      <trkpt lat="48.83848" lon="2.39859">
        <ele>59.799999237061</ele>
        <time>2016-07-11T18:51:14.000Z</time>
      </trkpt>
      <trkpt lat="48.83838" lon="2.39885">
        <ele>58.400001525879</ele>
        <time>2016-07-11T18:51:17.000Z</time>
      </trkpt>
      <trkpt lat="48.83829" lon="2.3991">
        <ele>57.400001525879</ele>
        <time>2016-07-11T18:51:19.000Z</time>
      </trkpt>
      <trkpt lat="48.83818" lon="2.39936">
        <ele>56.599998474121</ele>
        <time>2016-07-11T18:51:23.000Z</time>
      </trkpt>
      <trkpt lat="48.83808" lon="2.39962">
        <ele>55.400001525879</ele>
        <time>2016-07-11T18:51:25.000Z</time>
      </trkpt>
      <trkpt lat="48.83797" lon="2.39987">
        <ele>53.200000762939</ele>
        <time>2016-07-11T18:51:29.000Z</time>
      </trkpt>
      <trkpt lat="48.83787" lon="2.40012">
        <ele>51.200000762939</ele>
        <time>2016-07-11T18:51:31.000Z</time>
      </trkpt>
      <trkpt lat="48.83778" lon="2.40038">
        <ele>49.799999237061</ele>
        <time>2016-07-11T18:51:35.000Z</time>
      </trkpt>
      <trkpt lat="48.83769" lon="2.40063">
        <ele>48.599998474121</ele>
        <time>2016-07-11T18:51:38.000Z</time>
      </trkpt>
      <trkpt lat="48.83761" lon="2.40089">
        <ele>47.799999237061</ele>
        <time>2016-07-11T18:51:40.000Z</time>
      </trkpt>
      <trkpt lat="48.83753" lon="2.40114">
        <ele>47.400001525879</ele>
        <time>2016-07-11T18:51:44.000Z</time>
      </trkpt>
      <trkpt lat="48.83746" lon="2.4014">
        <ele>47</ele>
        <time>2016-07-11T18:51:46.000Z</time>
      </trkpt>
      <trkpt lat="48.83738" lon="2.40173">
        <ele>46</ele>
        <time>2016-07-11T18:51:50.000Z</time>
      </trkpt>
      <trkpt lat="48.83729" lon="2.40197">
        <ele>45.200000762939</ele>
        <time>2016-07-11T18:51:53.000Z</time>
      </trkpt>
      <trkpt lat="48.83716" lon="2.40237">
        <ele>45.599998474121</ele>
        <time>2016-07-11T18:51:58.000Z</time>
      </trkpt>
      <trkpt lat="48.83701" lon="2.40272">
        <ele>45.799999237061</ele>
        <time>2016-07-11T18:52:02.000Z</time>
      </trkpt>
      <trkpt lat="48.83688" lon="2.40307">
        <ele>44.599998474121</ele>
        <time>2016-07-11T18:52:06.000Z</time>
      </trkpt>
      <trkpt lat="48.83672" lon="2.40339">
        <ele>43.799999237061</ele>
        <time>2016-07-11T18:52:10.000Z</time>
      </trkpt>
      <trkpt lat="48.83667" lon="2.40348">
        <ele>43.400001525879</ele>
        <time>2016-07-11T18:52:13.000Z</time>
      </trkpt>
      <trkpt lat="48.83664" lon="2.4035">
        <ele>43.400001525879</ele>
        <time>2016-07-11T18:52:17.000Z</time>
      </trkpt>
      <trkpt lat="48.83655" lon="2.4037">
        <ele>42.599998474121</ele>
        <time>2016-07-11T18:52:33.000Z</time>
      </trkpt>
      <trkpt lat="48.83645" lon="2.404">
        <ele>42.599998474121</ele>
        <time>2016-07-11T18:52:38.000Z</time>
      </trkpt>
      <trkpt lat="48.83632" lon="2.40433">
        <ele>43</ele>
        <time>2016-07-11T18:52:41.000Z</time>
      </trkpt>
      <trkpt lat="48.83623" lon="2.40457">
        <ele>43.400001525879</ele>
        <time>2016-07-11T18:52:44.000Z</time>
      </trkpt>
      <trkpt lat="48.83615" lon="2.4049">
        <ele>43.599998474121</ele>
        <time>2016-07-11T18:52:49.000Z</time>
      </trkpt>
      <trkpt lat="48.83612" lon="2.40514">
        <ele>44.200000762939</ele>
        <time>2016-07-11T18:52:51.000Z</time>
      </trkpt>
      <trkpt lat="48.836" lon="2.40544">
        <ele>44.200000762939</ele>
        <time>2016-07-11T18:52:55.000Z</time>
      </trkpt>
      <trkpt lat="48.8359" lon="2.40576">
        <ele>44.599998474121</ele>
        <time>2016-07-11T18:52:59.000Z</time>
      </trkpt>
      <trkpt lat="48.83581" lon="2.406">
        <ele>45.799999237061</ele>
        <time>2016-07-11T18:53:02.000Z</time>
      </trkpt>
      <trkpt lat="48.83568" lon="2.40625">
        <ele>47.400001525879</ele>
        <time>2016-07-11T18:53:06.000Z</time>
      </trkpt>
      <trkpt lat="48.83564" lon="2.40629">
        <ele>47.599998474121</ele>
        <time>2016-07-11T18:53:08.000Z</time>
      </trkpt>
      <trkpt lat="48.83558" lon="2.40637">
        <ele>48</ele>
        <time>2016-07-11T18:53:11.000Z</time>
      </trkpt>
      <trkpt lat="48.83552" lon="2.4064">
        <ele>48.400001525879</ele>
        <time>2016-07-11T18:53:15.000Z</time>
      </trkpt>
      <trkpt lat="48.83541" lon="2.40643">
        <ele>48.799999237061</ele>
        <time>2016-07-11T18:53:35.000Z</time>
      </trkpt>
      <trkpt lat="48.83529" lon="2.40671">
        <ele>50.200000762939</ele>
        <time>2016-07-11T18:53:43.000Z</time>
      </trkpt>
      <trkpt lat="48.83518" lon="2.407">
        <ele>50.599998474121</ele>
        <time>2016-07-11T18:53:48.000Z</time>
      </trkpt>
      <trkpt lat="48.83508" lon="2.40729">
        <ele>51.599998474121</ele>
        <time>2016-07-11T18:53:53.000Z</time>
      </trkpt>
      <trkpt lat="48.83497" lon="2.40756">
        <ele>52.400001525879</ele>
        <time>2016-07-11T18:53:58.000Z</time>
      </trkpt>
      <trkpt lat="48.83489" lon="2.40782">
        <ele>53.400001525879</ele>
        <time>2016-07-11T18:54:03.000Z</time>
      </trkpt>
      <trkpt lat="48.83486" lon="2.4081">
        <ele>53.599998474121</ele>
        <time>2016-07-11T18:54:09.000Z</time>
      </trkpt>
      <trkpt lat="48.83485" lon="2.40842">
        <ele>53.400001525879</ele>
        <time>2016-07-11T18:54:15.000Z</time>
      </trkpt>
      <trkpt lat="48.83476" lon="2.40872">
        <ele>53</ele>
        <time>2016-07-11T18:54:20.000Z</time>
      </trkpt>
      <trkpt lat="48.83466" lon="2.40901">
        <ele>51.400001525879</ele>
        <time>2016-07-11T18:54:25.000Z</time>
      </trkpt>
      <trkpt lat="48.83457" lon="2.4093">
        <ele>50.200000762939</ele>
        <time>2016-07-11T18:54:30.000Z</time>
      </trkpt>
      <trkpt lat="48.83443" lon="2.40956">
        <ele>49.599998474121</ele>
        <time>2016-07-11T18:54:34.000Z</time>
      </trkpt>
      <trkpt lat="48.8343" lon="2.40981">
        <ele>49.200000762939</ele>
        <time>2016-07-11T18:54:39.000Z</time>
      </trkpt>
      <trkpt lat="48.8342" lon="2.41002">
        <ele>48.599998474121</ele>
        <time>2016-07-11T18:54:44.000Z</time>
      </trkpt>
      <trkpt lat="48.83411" lon="2.41029">
        <ele>48</ele>
        <time>2016-07-11T18:54:50.000Z</time>
      </trkpt>
      <trkpt lat="48.8341" lon="2.41034">
        <ele>47.799999237061</ele>
        <time>2016-07-11T18:54:51.000Z</time>
      </trkpt>
      <trkpt lat="48.83408" lon="2.41062">
        <ele>47.599998474121</ele>
        <time>2016-07-11T18:54:57.000Z</time>
      </trkpt>
      <trkpt lat="48.83412" lon="2.41089">
        <ele>47.799999237061</ele>
        <time>2016-07-11T18:55:05.000Z</time>
      </trkpt>
      <trkpt lat="48.83412" lon="2.41089">
        <ele>47.799999237061</ele>
        <time>2016-07-11T18:55:06.000Z</time>
      </trkpt>
      <trkpt lat="48.83422" lon="2.41099">
        <ele>48.200000762939</ele>
        <time>2016-07-11T18:55:18.000Z</time>
      </trkpt>
      <trkpt lat="48.83432" lon="2.41124">
        <ele>49</ele>
        <time>2016-07-11T18:55:25.000Z</time>
      </trkpt>
      <trkpt lat="48.8344" lon="2.41153">
        <ele>49.599998474121</ele>
        <time>2016-07-11T18:55:32.000Z</time>
      </trkpt>
      <trkpt lat="48.83445" lon="2.41181">
        <ele>50.400001525879</ele>
        <time>2016-07-11T18:55:38.000Z</time>
      </trkpt>
      <trkpt lat="48.83455" lon="2.4121">
        <ele>51</ele>
        <time>2016-07-11T18:55:43.000Z</time>
      </trkpt>
      <trkpt lat="48.83462" lon="2.41237">
        <ele>51.799999237061</ele>
        <time>2016-07-11T18:55:47.000Z</time>
      </trkpt>
      <trkpt lat="48.83471" lon="2.41264">
        <ele>52</ele>
        <time>2016-07-11T18:55:51.000Z</time>
      </trkpt>
      <trkpt lat="48.83478" lon="2.41291">
        <ele>52.200000762939</ele>
        <time>2016-07-11T18:55:55.000Z</time>
      </trkpt>
      <trkpt lat="48.83487" lon="2.41319">
        <ele>52.799999237061</ele>
        <time>2016-07-11T18:55:59.000Z</time>
      </trkpt>
      <trkpt lat="48.835" lon="2.41354">
        <ele>52.799999237061</ele>
        <time>2016-07-11T18:56:03.000Z</time>
      </trkpt>
      <trkpt lat="48.83503" lon="2.41368">
        <ele>52.599998474121</ele>
        <time>2016-07-11T18:56:05.000Z</time>
      </trkpt>
      <trkpt lat="48.8351" lon="2.41401">
        <ele>52.400001525879</ele>
        <time>2016-07-11T18:56:09.000Z</time>
      </trkpt>
      <trkpt lat="48.83517" lon="2.41431">
        <ele>52.599998474121</ele>
        <time>2016-07-11T18:56:13.000Z</time>
      </trkpt>
      <trkpt lat="48.83525" lon="2.41461">
        <ele>53.799999237061</ele>
        <time>2016-07-11T18:56:17.000Z</time>
      </trkpt>
      <trkpt lat="48.83533" lon="2.41492">
        <ele>55</ele>
        <time>2016-07-11T18:56:21.000Z</time>
      </trkpt>
      <trkpt lat="48.83541" lon="2.41522">
        <ele>55.599998474121</ele>
        <time>2016-07-11T18:56:25.000Z</time>
      </trkpt>
      <trkpt lat="48.83549" lon="2.4155">
        <ele>55.599998474121</ele>
        <time>2016-07-11T18:56:29.000Z</time>
      </trkpt>
      <trkpt lat="48.83556" lon="2.4157">
        <ele>55.799999237061</ele>
        <time>2016-07-11T18:56:32.000Z</time>
      </trkpt>
      <trkpt lat="48.83567" lon="2.41595">
        <ele>55.599998474121</ele>
        <time>2016-07-11T18:56:36.000Z</time>
      </trkpt>
      <trkpt lat="48.83575" lon="2.41621">
        <ele>55.200000762939</ele>
        <time>2016-07-11T18:56:41.000Z</time>
      </trkpt>
      <trkpt lat="48.83582" lon="2.41647">
        <ele>54.799999237061</ele>
        <time>2016-07-11T18:56:45.000Z</time>
      </trkpt>
      <trkpt lat="48.83585" lon="2.41652">
        <ele>54.799999237061</ele>
        <time>2016-07-11T18:56:46.000Z</time>
      </trkpt>
      <trkpt lat="48.83586" lon="2.41667">
        <ele>54.799999237061</ele>
        <time>2016-07-11T18:56:48.000Z</time>
      </trkpt>
      <trkpt lat="48.83592" lon="2.41693">
        <ele>55.200000762939</ele>
        <time>2016-07-11T18:56:52.000Z</time>
      </trkpt>
      <trkpt lat="48.836" lon="2.4172">
        <ele>55.599998474121</ele>
        <time>2016-07-11T18:56:56.000Z</time>
      </trkpt>
      <trkpt lat="48.83607" lon="2.41748">
        <ele>56</ele>
        <time>2016-07-11T18:57:00.000Z</time>
      </trkpt>
      <trkpt lat="48.83617" lon="2.41782">
        <ele>56.599998474121</ele>
        <time>2016-07-11T18:57:04.000Z</time>
      </trkpt>
      <trkpt lat="48.83618" lon="2.41789">
        <ele>56.599998474121</ele>
        <time>2016-07-11T18:57:06.000Z</time>
      </trkpt>
      <trkpt lat="48.83625" lon="2.41815">
        <ele>57</ele>
        <time>2016-07-11T18:57:10.000Z</time>
      </trkpt>
      <trkpt lat="48.83634" lon="2.41847">
        <ele>57.400001525879</ele>
        <time>2016-07-11T18:57:14.000Z</time>
      </trkpt>
      <trkpt lat="48.83642" lon="2.41876">
        <ele>57.400001525879</ele>
        <time>2016-07-11T18:57:20.000Z</time>
      </trkpt>
      <trkpt lat="48.83646" lon="2.41883">
        <ele>57.400001525879</ele>
        <time>2016-07-11T18:57:21.000Z</time>
      </trkpt>
      <trkpt lat="48.83658" lon="2.4191">
        <ele>57.599998474121</ele>
        <time>2016-07-11T18:57:27.000Z</time>
      </trkpt>
      <trkpt lat="48.83666" lon="2.41941">
        <ele>57.400001525879</ele>
        <time>2016-07-11T18:57:31.000Z</time>
      </trkpt>
      <trkpt lat="48.83668" lon="2.41948">
        <ele>57.400001525879</ele>
        <time>2016-07-11T18:57:33.000Z</time>
      </trkpt>
      <trkpt lat="48.83679" lon="2.41978">
        <ele>57.200000762939</ele>
        <time>2016-07-11T18:57:37.000Z</time>
      </trkpt>
      <trkpt lat="48.83682" lon="2.41991">
        <ele>57</ele>
        <time>2016-07-11T18:57:39.000Z</time>
      </trkpt>
      <trkpt lat="48.83692" lon="2.42024">
        <ele>56.799999237061</ele>
        <time>2016-07-11T18:57:45.000Z</time>
      </trkpt>
      <trkpt lat="48.83695" lon="2.42035">
        <ele>56.799999237061</ele>
        <time>2016-07-11T18:57:48.000Z</time>
      </trkpt>
      <trkpt lat="48.83701" lon="2.42054">
        <ele>56.799999237061</ele>
        <time>2016-07-11T18:57:53.000Z</time>
      </trkpt>
      <trkpt lat="48.83706" lon="2.4207">
        <ele>56.799999237061</ele>
        <time>2016-07-11T18:57:57.000Z</time>
      </trkpt>
      <trkpt lat="48.83714" lon="2.42099">
        <ele>56.200000762939</ele>
        <time>2016-07-11T18:58:04.000Z</time>
      </trkpt>
      <trkpt lat="48.83715" lon="2.42103">
        <ele>56.200000762939</ele>
        <time>2016-07-11T18:58:05.000Z</time>
      </trkpt>
      <trkpt lat="48.83724" lon="2.42127">
        <ele>55.799999237061</ele>
        <time>2016-07-11T18:58:11.000Z</time>
      </trkpt>
      <trkpt lat="48.83728" lon="2.4214">
        <ele>55.799999237061</ele>
        <time>2016-07-11T18:58:21.000Z</time>
      </trkpt>
      <trkpt lat="48.83723" lon="2.42145">
        <ele>55.599998474121</ele>
        <time>2016-07-11T18:58:28.000Z</time>
      </trkpt>
      <trkpt lat="48.83702" lon="2.4215">
        <ele>55.400001525879</ele>
        <time>2016-07-11T18:59:04.000Z</time>
      </trkpt>
      <trkpt lat="48.83683" lon="2.42157">
        <ele>55</ele>
        <time>2016-07-11T18:59:11.000Z</time>
      </trkpt>
      <trkpt lat="48.83665" lon="2.42165">
        <ele>55.599998474121</ele>
        <time>2016-07-11T18:59:16.000Z</time>
      </trkpt>
      <trkpt lat="48.83645" lon="2.42171">
        <ele>56</ele>
        <time>2016-07-11T18:59:21.000Z</time>
      </trkpt>
      <trkpt lat="48.83626" lon="2.42179">
        <ele>56.599998474121</ele>
        <time>2016-07-11T18:59:26.000Z</time>
      </trkpt>
      <trkpt lat="48.83608" lon="2.42188">
        <ele>56.200000762939</ele>
        <time>2016-07-11T18:59:32.000Z</time>
      </trkpt>
      <trkpt lat="48.83593" lon="2.42201">
        <ele>55.599998474121</ele>
        <time>2016-07-11T18:59:40.000Z</time>
      </trkpt>
      <trkpt lat="48.83591" lon="2.42206">
        <ele>55.400001525879</ele>
        <time>2016-07-11T18:59:42.000Z</time>
      </trkpt>
      <trkpt lat="48.83587" lon="2.42233">
        <ele>54.400001525879</ele>
        <time>2016-07-11T18:59:57.000Z</time>
      </trkpt>
      <trkpt lat="48.83599" lon="2.42254">
        <ele>53.799999237061</ele>
        <time>2016-07-11T19:00:02.000Z</time>
      </trkpt>
      <trkpt lat="48.8361" lon="2.42277">
        <ele>53</ele>
        <time>2016-07-11T19:00:07.000Z</time>
      </trkpt>
      <trkpt lat="48.83621" lon="2.42303">
        <ele>52.200000762939</ele>
        <time>2016-07-11T19:00:12.000Z</time>
      </trkpt>
      <trkpt lat="48.83634" lon="2.42328">
        <ele>51.400001525879</ele>
        <time>2016-07-11T19:00:17.000Z</time>
      </trkpt>
      <trkpt lat="48.83645" lon="2.42353">
        <ele>51.400001525879</ele>
        <time>2016-07-11T19:00:22.000Z</time>
      </trkpt>
      <trkpt lat="48.83659" lon="2.42377">
        <ele>51.599998474121</ele>
        <time>2016-07-11T19:00:26.000Z</time>
      </trkpt>
      <trkpt lat="48.83671" lon="2.42398">
        <ele>51.799999237061</ele>
        <time>2016-07-11T19:00:29.000Z</time>
      </trkpt>
      <trkpt lat="48.83687" lon="2.42423">
        <ele>52.200000762939</ele>
        <time>2016-07-11T19:00:33.000Z</time>
      </trkpt>
      <trkpt lat="48.83703" lon="2.4245">
        <ele>52.200000762939</ele>
        <time>2016-07-11T19:00:37.000Z</time>
      </trkpt>
      <trkpt lat="48.83717" lon="2.4247">
        <ele>52.400001525879</ele>
        <time>2016-07-11T19:00:40.000Z</time>
      </trkpt>
      <trkpt lat="48.8373" lon="2.4249">
        <ele>52.400001525879</ele>
        <time>2016-07-11T19:00:43.000Z</time>
      </trkpt>
      <trkpt lat="48.83743" lon="2.42509">
        <ele>52.400001525879</ele>
        <time>2016-07-11T19:00:46.000Z</time>
      </trkpt>
      <trkpt lat="48.83757" lon="2.42529">
        <ele>52.599998474121</ele>
        <time>2016-07-11T19:00:49.000Z</time>
      </trkpt>
      <trkpt lat="48.83774" lon="2.42554">
        <ele>52.599998474121</ele>
        <time>2016-07-11T19:00:53.000Z</time>
      </trkpt>
      <trkpt lat="48.8379" lon="2.42581">
        <ele>52.200000762939</ele>
        <time>2016-07-11T19:00:57.000Z</time>
      </trkpt>
      <trkpt lat="48.83802" lon="2.42605">
        <ele>51.400001525879</ele>
        <time>2016-07-11T19:01:00.000Z</time>
      </trkpt>
      <trkpt lat="48.83812" lon="2.4263">
        <ele>50.400001525879</ele>
        <time>2016-07-11T19:01:03.000Z</time>
      </trkpt>
      <trkpt lat="48.83824" lon="2.42657">
        <ele>49.599998474121</ele>
        <time>2016-07-11T19:01:06.000Z</time>
      </trkpt>
      <trkpt lat="48.83836" lon="2.42684">
        <ele>48.599998474121</ele>
        <time>2016-07-11T19:01:09.000Z</time>
      </trkpt>
      <trkpt lat="48.83848" lon="2.42712">
        <ele>47.200000762939</ele>
        <time>2016-07-11T19:01:12.000Z</time>
      </trkpt>
      <trkpt lat="48.83859" lon="2.4274">
        <ele>46.200000762939</ele>
        <time>2016-07-11T19:01:15.000Z</time>
      </trkpt>
      <trkpt lat="48.83871" lon="2.42769">
        <ele>46.200000762939</ele>
        <time>2016-07-11T19:01:18.000Z</time>
      </trkpt>
      <trkpt lat="48.83883" lon="2.42799">
        <ele>46.599998474121</ele>
        <time>2016-07-11T19:01:21.000Z</time>
      </trkpt>
      <trkpt lat="48.83891" lon="2.4283">
        <ele>47</ele>
        <time>2016-07-11T19:01:24.000Z</time>
      </trkpt>
      <trkpt lat="48.839" lon="2.4286">
        <ele>47</ele>
        <time>2016-07-11T19:01:27.000Z</time>
      </trkpt>
      <trkpt lat="48.83909" lon="2.42891">
        <ele>47</ele>
        <time>2016-07-11T19:01:30.000Z</time>
      </trkpt>
      <trkpt lat="48.83918" lon="2.42921">
        <ele>47.200000762939</ele>
        <time>2016-07-11T19:01:33.000Z</time>
      </trkpt>
      <trkpt lat="48.83928" lon="2.4295">
        <ele>47.200000762939</ele>
        <time>2016-07-11T19:01:36.000Z</time>
      </trkpt>
      <trkpt lat="48.83935" lon="2.42977">
        <ele>47</ele>
        <time>2016-07-11T19:01:39.000Z</time>
      </trkpt>
      <trkpt lat="48.83942" lon="2.43001">
        <ele>47</ele>
        <time>2016-07-11T19:01:42.000Z</time>
      </trkpt>
      <trkpt lat="48.83949" lon="2.43031">
        <ele>46.599998474121</ele>
        <time>2016-07-11T19:01:47.000Z</time>
      </trkpt>
      <trkpt lat="48.83952" lon="2.43048">
        <ele>46.599998474121</ele>
        <time>2016-07-11T19:01:52.000Z</time>
      </trkpt>
      <trkpt lat="48.8396" lon="2.43076">
        <ele>46.200000762939</ele>
        <time>2016-07-11T19:01:59.000Z</time>
      </trkpt>
      <trkpt lat="48.83963" lon="2.43089">
        <ele>46.400001525879</ele>
        <time>2016-07-11T19:02:01.000Z</time>
      </trkpt>
      <trkpt lat="48.8397" lon="2.43121">
        <ele>47</ele>
        <time>2016-07-11T19:02:06.000Z</time>
      </trkpt>
      <trkpt lat="48.83975" lon="2.43148">
        <ele>46.599998474121</ele>
        <time>2016-07-11T19:02:10.000Z</time>
      </trkpt>
      <trkpt lat="48.83981" lon="2.43175">
        <ele>46.799999237061</ele>
        <time>2016-07-11T19:02:14.000Z</time>
      </trkpt>
      <trkpt lat="48.83987" lon="2.43195">
        <ele>47.200000762939</ele>
        <time>2016-07-11T19:02:17.000Z</time>
      </trkpt>
      <trkpt lat="48.83994" lon="2.4322">
        <ele>48</ele>
        <time>2016-07-11T19:02:21.000Z</time>
      </trkpt>
      <trkpt lat="48.84004" lon="2.4325">
        <ele>48.400001525879</ele>
        <time>2016-07-11T19:02:26.000Z</time>
      </trkpt>
      <trkpt lat="48.8401" lon="2.43278">
        <ele>48.799999237061</ele>
        <time>2016-07-11T19:02:30.000Z</time>
      </trkpt>
      <trkpt lat="48.84019" lon="2.43311">
        <ele>49.599998474121</ele>
        <time>2016-07-11T19:02:34.000Z</time>
      </trkpt>
      <trkpt lat="48.84028" lon="2.43338">
        <ele>50</ele>
        <time>2016-07-11T19:02:37.000Z</time>
      </trkpt>
      <trkpt lat="48.84035" lon="2.43366">
        <ele>50.400001525879</ele>
        <time>2016-07-11T19:02:40.000Z</time>
      </trkpt>
      <trkpt lat="48.84041" lon="2.43392">
        <ele>50.799999237061</ele>
        <time>2016-07-11T19:02:43.000Z</time>
      </trkpt>
      <trkpt lat="48.84051" lon="2.43421">
        <ele>51.200000762939</ele>
        <time>2016-07-11T19:02:47.000Z</time>
      </trkpt>
      <trkpt lat="48.84049" lon="2.43452">
        <ele>51.599998474121</ele>
        <time>2016-07-11T19:02:52.000Z</time>
      </trkpt>
      <trkpt lat="48.84047" lon="2.43473">
        <ele>51.599998474121</ele>
        <time>2016-07-11T19:02:56.000Z</time>
      </trkpt>
      <trkpt lat="48.84045" lon="2.43483">
        <ele>51.599998474121</ele>
        <time>2016-07-11T19:02:58.000Z</time>
      </trkpt>
      <trkpt lat="48.84041" lon="2.43509">
        <ele>51.400001525879</ele>
        <time>2016-07-11T19:03:04.000Z</time>
      </trkpt>
      <trkpt lat="48.84033" lon="2.43507">
        <ele>51.200000762939</ele>
        <time>2016-07-11T19:04:09.000Z</time>
      </trkpt>
      <trkpt lat="48.84037" lon="2.43513">
        <ele>51.200000762939</ele>
        <time>2016-07-11T19:06:00.000Z</time>
      </trkpt>
      <trkpt lat="48.84032" lon="2.43543">
        <ele>49.799999237061</ele>
        <time>2016-07-11T19:06:08.000Z</time>
      </trkpt>
      <trkpt lat="48.84031" lon="2.43575">
        <ele>48.599998474121</ele>
        <time>2016-07-11T19:06:14.000Z</time>
      </trkpt>
      <trkpt lat="48.84031" lon="2.43602">
        <ele>48.599998474121</ele>
        <time>2016-07-11T19:06:18.000Z</time>
      </trkpt>
      <trkpt lat="48.84034" lon="2.43632">
        <ele>49.400001525879</ele>
        <time>2016-07-11T19:06:23.000Z</time>
      </trkpt>
      <trkpt lat="48.84044" lon="2.43661">
        <ele>50.400001525879</ele>
        <time>2016-07-11T19:06:29.000Z</time>
      </trkpt>
      <trkpt lat="48.84051" lon="2.43688">
        <ele>50.400001525879</ele>
        <time>2016-07-11T19:06:34.000Z</time>
      </trkpt>
      <trkpt lat="48.84049" lon="2.43719">
        <ele>50.599998474121</ele>
        <time>2016-07-11T19:06:39.000Z</time>
      </trkpt>
      <trkpt lat="48.84044" lon="2.43752">
        <ele>51</ele>
        <time>2016-07-11T19:06:44.000Z</time>
      </trkpt>
      <trkpt lat="48.8404" lon="2.43784">
        <ele>51.200000762939</ele>
        <time>2016-07-11T19:06:49.000Z</time>
      </trkpt>
      <trkpt lat="48.84038" lon="2.43816">
        <ele>51.599998474121</ele>
        <time>2016-07-11T19:06:54.000Z</time>
      </trkpt>
      <trkpt lat="48.84037" lon="2.43847">
        <ele>51.799999237061</ele>
        <time>2016-07-11T19:06:59.000Z</time>
      </trkpt>
      <trkpt lat="48.84038" lon="2.43866">
        <ele>51.799999237061</ele>
        <time>2016-07-11T19:07:02.000Z</time>
      </trkpt>
      <trkpt lat="48.84037" lon="2.43894">
        <ele>51.799999237061</ele>
        <time>2016-07-11T19:07:07.000Z</time>
      </trkpt>
      <trkpt lat="48.84034" lon="2.43927">
        <ele>52.200000762939</ele>
        <time>2016-07-11T19:07:12.000Z</time>
      </trkpt>
      <trkpt lat="48.8403" lon="2.43954">
        <ele>51.400001525879</ele>
        <time>2016-07-11T19:07:16.000Z</time>
      </trkpt>
      <trkpt lat="48.84028" lon="2.43976">
        <ele>50.799999237061</ele>
        <time>2016-07-11T19:07:18.000Z</time>
      </trkpt>
      <trkpt lat="48.84028" lon="2.43983">
        <ele>50.599998474121</ele>
        <time>2016-07-11T19:07:20.000Z</time>
      </trkpt>
      <trkpt lat="48.84025" lon="2.44013">
        <ele>50</ele>
        <time>2016-07-11T19:07:24.000Z</time>
      </trkpt>
      <trkpt lat="48.84023" lon="2.44044">
        <ele>49.400001525879</ele>
        <time>2016-07-11T19:07:27.000Z</time>
      </trkpt>
      <trkpt lat="48.84018" lon="2.44082">
        <ele>49.200000762939</ele>
        <time>2016-07-11T19:07:32.000Z</time>
      </trkpt>
      <trkpt lat="48.84015" lon="2.44112">
        <ele>49</ele>
        <time>2016-07-11T19:07:37.000Z</time>
      </trkpt>
      <trkpt lat="48.84012" lon="2.44127">
        <ele>48.799999237061</ele>
        <time>2016-07-11T19:07:38.000Z</time>
      </trkpt>
      <trkpt lat="48.84009" lon="2.44157">
        <ele>48.400001525879</ele>
        <time>2016-07-11T19:07:42.000Z</time>
      </trkpt>
      <trkpt lat="48.84006" lon="2.44187">
        <ele>48.200000762939</ele>
        <time>2016-07-11T19:07:46.000Z</time>
      </trkpt>
      <trkpt lat="48.84004" lon="2.44209">
        <ele>48.200000762939</ele>
        <time>2016-07-11T19:07:50.000Z</time>
      </trkpt>
      <trkpt lat="48.84003" lon="2.44257">
        <ele>47.799999237061</ele>
        <time>2016-07-11T19:07:55.000Z</time>
      </trkpt>
      <trkpt lat="48.84" lon="2.44284">
        <ele>48.200000762939</ele>
        <time>2016-07-11T19:07:58.000Z</time>
      </trkpt>
      <trkpt lat="48.83997" lon="2.44318">
        <ele>48.400001525879</ele>
        <time>2016-07-11T19:08:03.000Z</time>
      </trkpt>
      <trkpt lat="48.83994" lon="2.44356">
        <ele>49.200000762939</ele>
        <time>2016-07-11T19:08:07.000Z</time>
      </trkpt>
      <trkpt lat="48.83993" lon="2.44392">
        <ele>50.400001525879</ele>
        <time>2016-07-11T19:08:12.000Z</time>
      </trkpt>
      <trkpt lat="48.83993" lon="2.44419">
        <ele>51.400001525879</ele>
        <time>2016-07-11T19:08:16.000Z</time>
      </trkpt>
      <trkpt lat="48.83991" lon="2.44439">
        <ele>51.599998474121</ele>
        <time>2016-07-11T19:08:19.000Z</time>
      </trkpt>
      <trkpt lat="48.83989" lon="2.44472">
        <ele>52</ele>
        <time>2016-07-11T19:08:23.000Z</time>
      </trkpt>
      <trkpt lat="48.83981" lon="2.44514">
        <ele>52.200000762939</ele>
        <time>2016-07-11T19:08:28.000Z</time>
      </trkpt>
      <trkpt lat="48.83976" lon="2.44545">
        <ele>51.599998474121</ele>
        <time>2016-07-11T19:08:33.000Z</time>
      </trkpt>
      <trkpt lat="48.83971" lon="2.44581">
        <ele>52.200000762939</ele>
        <time>2016-07-11T19:08:37.000Z</time>
      </trkpt>
      <trkpt lat="48.8397" lon="2.44613">
        <ele>52.200000762939</ele>
        <time>2016-07-11T19:08:41.000Z</time>
      </trkpt>
      <trkpt lat="48.83968" lon="2.44649">
        <ele>52.200000762939</ele>
        <time>2016-07-11T19:08:46.000Z</time>
      </trkpt>
      <trkpt lat="48.83966" lon="2.44682">
        <ele>52.200000762939</ele>
        <time>2016-07-11T19:08:51.000Z</time>
      </trkpt>
      <trkpt lat="48.83962" lon="2.44719">
        <ele>51.400001525879</ele>
        <time>2016-07-11T19:08:57.000Z</time>
      </trkpt>
      <trkpt lat="48.83961" lon="2.44748">
        <ele>50.799999237061</ele>
        <time>2016-07-11T19:09:03.000Z</time>
      </trkpt>
      <trkpt lat="48.83959" lon="2.44777">
        <ele>50.599998474121</ele>
        <time>2016-07-11T19:09:08.000Z</time>
      </trkpt>
      <trkpt lat="48.83956" lon="2.44801">
        <ele>51</ele>
        <time>2016-07-11T19:09:14.000Z</time>
      </trkpt>
      <trkpt lat="48.83946" lon="2.44826">
        <ele>51.599998474121</ele>
        <time>2016-07-11T19:09:19.000Z</time>
      </trkpt>
      <trkpt lat="48.83936" lon="2.44847">
        <ele>52.200000762939</ele>
        <time>2016-07-11T19:09:26.000Z</time>
      </trkpt>
      <trkpt lat="48.83927" lon="2.44872">
        <ele>52.799999237061</ele>
        <time>2016-07-11T19:09:33.000Z</time>
      </trkpt>
      <trkpt lat="48.83911" lon="2.44904">
        <ele>53.400001525879</ele>
        <time>2016-07-11T19:09:39.000Z</time>
      </trkpt>
      <trkpt lat="48.839" lon="2.44926">
        <ele>53.400001525879</ele>
        <time>2016-07-11T19:09:45.000Z</time>
      </trkpt>
      <trkpt lat="48.83888" lon="2.4495">
        <ele>53.599998474121</ele>
        <time>2016-07-11T19:09:51.000Z</time>
      </trkpt>
      <trkpt lat="48.83874" lon="2.44972">
        <ele>53.799999237061</ele>
        <time>2016-07-11T19:09:56.000Z</time>
      </trkpt>
      <trkpt lat="48.8386" lon="2.44994">
        <ele>54</ele>
        <time>2016-07-11T19:10:01.000Z</time>
      </trkpt>
      <trkpt lat="48.83846" lon="2.45018">
        <ele>54</ele>
        <time>2016-07-11T19:10:06.000Z</time>
      </trkpt>
      <trkpt lat="48.83829" lon="2.45049">
        <ele>54</ele>
        <time>2016-07-11T19:10:12.000Z</time>
      </trkpt>
      <trkpt lat="48.83814" lon="2.45073">
        <ele>53.599998474121</ele>
        <time>2016-07-11T19:10:17.000Z</time>
      </trkpt>
      <trkpt lat="48.838" lon="2.45097">
        <ele>53.400001525879</ele>
        <time>2016-07-11T19:10:21.000Z</time>
      </trkpt>
      <trkpt lat="48.83787" lon="2.45122">
        <ele>53.200000762939</ele>
        <time>2016-07-11T19:10:26.000Z</time>
      </trkpt>
      <trkpt lat="48.83777" lon="2.45142">
        <ele>53</ele>
        <time>2016-07-11T19:10:32.000Z</time>
      </trkpt>
      <trkpt lat="48.83775" lon="2.45156">
        <ele>53</ele>
        <time>2016-07-11T19:10:36.000Z</time>
      </trkpt>
      <trkpt lat="48.83774" lon="2.45164">
        <ele>53</ele>
        <time>2016-07-11T19:10:40.000Z</time>
      </trkpt>
      <trkpt lat="48.83767" lon="2.45174">
        <ele>52.799999237061</ele>
        <time>2016-07-11T19:10:58.000Z</time>
      </trkpt>
      <trkpt lat="48.83763" lon="2.45193">
        <ele>52.799999237061</ele>
        <time>2016-07-11T19:11:37.000Z</time>
      </trkpt>
      <trkpt lat="48.83752" lon="2.45209">
        <ele>52.599998474121</ele>
        <time>2016-07-11T19:11:43.000Z</time>
      </trkpt>
      <trkpt lat="48.8374" lon="2.4523">
        <ele>52.400001525879</ele>
        <time>2016-07-11T19:11:48.000Z</time>
      </trkpt>
      <trkpt lat="48.83724" lon="2.4525">
        <ele>52.400001525879</ele>
        <time>2016-07-11T19:11:55.000Z</time>
      </trkpt>
      <trkpt lat="48.83706" lon="2.45273">
        <ele>52.799999237061</ele>
        <time>2016-07-11T19:12:01.000Z</time>
      </trkpt>
      <trkpt lat="48.83695" lon="2.45298">
        <ele>53.799999237061</ele>
        <time>2016-07-11T19:12:08.000Z</time>
      </trkpt>
      <trkpt lat="48.83683" lon="2.4532">
        <ele>54.599998474121</ele>
        <time>2016-07-11T19:12:14.000Z</time>
      </trkpt>
      <trkpt lat="48.83676" lon="2.45348">
        <ele>55.400001525879</ele>
        <time>2016-07-11T19:12:19.000Z</time>
      </trkpt>
      <trkpt lat="48.83673" lon="2.45376">
        <ele>55.799999237061</ele>
        <time>2016-07-11T19:12:23.000Z</time>
      </trkpt>
      <trkpt lat="48.83669" lon="2.45405">
        <ele>56</ele>
        <time>2016-07-11T19:12:27.000Z</time>
      </trkpt>
      <trkpt lat="48.83668" lon="2.45434">
        <ele>55.599998474121</ele>
        <time>2016-07-11T19:12:30.000Z</time>
      </trkpt>
      <trkpt lat="48.83666" lon="2.45466">
        <ele>54.799999237061</ele>
        <time>2016-07-11T19:12:36.000Z</time>
      </trkpt>
      <trkpt lat="48.83662" lon="2.45497">
        <ele>53.799999237061</ele>
        <time>2016-07-11T19:12:40.000Z</time>
      </trkpt>
      <trkpt lat="48.8366" lon="2.45511">
        <ele>53.799999237061</ele>
        <time>2016-07-11T19:12:44.000Z</time>
      </trkpt>
      <trkpt lat="48.83661" lon="2.45537">
        <ele>54.200000762939</ele>
        <time>2016-07-11T19:12:49.000Z</time>
      </trkpt>
      <trkpt lat="48.83671" lon="2.45562">
        <ele>54.599998474121</ele>
        <time>2016-07-11T19:12:55.000Z</time>
      </trkpt>
      <trkpt lat="48.83679" lon="2.45582">
        <ele>54.799999237061</ele>
        <time>2016-07-11T19:13:01.000Z</time>
      </trkpt>
      <trkpt lat="48.83661" lon="2.45583">
        <ele>54.599998474121</ele>
        <time>2016-07-11T19:13:09.000Z</time>
      </trkpt>
      <trkpt lat="48.83639" lon="2.45589">
        <ele>54.599998474121</ele>
        <time>2016-07-11T19:13:15.000Z</time>
      </trkpt>
      <trkpt lat="48.83621" lon="2.45592">
        <ele>54.400001525879</ele>
        <time>2016-07-11T19:13:21.000Z</time>
      </trkpt>
      <trkpt lat="48.83596" lon="2.45589">
        <ele>54.400001525879</ele>
        <time>2016-07-11T19:13:27.000Z</time>
      </trkpt>
      <trkpt lat="48.83576" lon="2.45583">
        <ele>54</ele>
        <time>2016-07-11T19:13:34.000Z</time>
      </trkpt>
      <trkpt lat="48.83555" lon="2.45581">
        <ele>54</ele>
        <time>2016-07-11T19:13:40.000Z</time>
      </trkpt>
      <trkpt lat="48.83535" lon="2.45588">
        <ele>54.200000762939</ele>
        <time>2016-07-11T19:13:45.000Z</time>
      </trkpt>
      <trkpt lat="48.83516" lon="2.45602">
        <ele>54.200000762939</ele>
        <time>2016-07-11T19:13:51.000Z</time>
      </trkpt>
      <trkpt lat="48.83498" lon="2.45616">
        <ele>54.599998474121</ele>
        <time>2016-07-11T19:13:55.000Z</time>
      </trkpt>
      <trkpt lat="48.83481" lon="2.45629">
        <ele>55</ele>
        <time>2016-07-11T19:14:01.000Z</time>
      </trkpt>
      <trkpt lat="48.83462" lon="2.45648">
        <ele>56</ele>
        <time>2016-07-11T19:14:06.000Z</time>
      </trkpt>
      <trkpt lat="48.83446" lon="2.45667">
        <ele>56.799999237061</ele>
        <time>2016-07-11T19:14:11.000Z</time>
      </trkpt>
      <trkpt lat="48.83431" lon="2.45684">
        <ele>57.599998474121</ele>
        <time>2016-07-11T19:14:16.000Z</time>
      </trkpt>
      <trkpt lat="48.83415" lon="2.45706">
        <ele>58.599998474121</ele>
        <time>2016-07-11T19:14:23.000Z</time>
      </trkpt>
      <trkpt lat="48.83401" lon="2.45723">
        <ele>59.200000762939</ele>
        <time>2016-07-11T19:14:29.000Z</time>
      </trkpt>
      <trkpt lat="48.83384" lon="2.45755">
        <ele>59.599998474121</ele>
        <time>2016-07-11T19:14:35.000Z</time>
      </trkpt>
      <trkpt lat="48.83371" lon="2.45787">
        <ele>59.400001525879</ele>
        <time>2016-07-11T19:14:41.000Z</time>
      </trkpt>
      <trkpt lat="48.83362" lon="2.45815">
        <ele>59.799999237061</ele>
        <time>2016-07-11T19:14:47.000Z</time>
      </trkpt>
      <trkpt lat="48.83353" lon="2.45839">
        <ele>59.799999237061</ele>
        <time>2016-07-11T19:14:54.000Z</time>
      </trkpt>
      <trkpt lat="48.83348" lon="2.45872">
        <ele>59.400001525879</ele>
        <time>2016-07-11T19:14:59.000Z</time>
      </trkpt>
      <trkpt lat="48.83349" lon="2.459">
        <ele>59</ele>
        <time>2016-07-11T19:15:05.000Z</time>
      </trkpt>
      <trkpt lat="48.8335" lon="2.4593">
        <ele>58.799999237061</ele>
        <time>2016-07-11T19:15:10.000Z</time>
      </trkpt>
      <trkpt lat="48.83351" lon="2.45961">
        <ele>58.400001525879</ele>
        <time>2016-07-11T19:15:15.000Z</time>
      </trkpt>
      <trkpt lat="48.83355" lon="2.45992">
        <ele>58</ele>
        <time>2016-07-11T19:15:20.000Z</time>
      </trkpt>
      <trkpt lat="48.83361" lon="2.46021">
        <ele>58</ele>
        <time>2016-07-11T19:15:25.000Z</time>
      </trkpt>
      <trkpt lat="48.83368" lon="2.46048">
        <ele>57.799999237061</ele>
        <time>2016-07-11T19:15:30.000Z</time>
      </trkpt>
      <trkpt lat="48.83378" lon="2.46073">
        <ele>57.799999237061</ele>
        <time>2016-07-11T19:15:34.000Z</time>
      </trkpt>
      <trkpt lat="48.83389" lon="2.46099">
        <ele>58</ele>
        <time>2016-07-11T19:15:40.000Z</time>
      </trkpt>
      <trkpt lat="48.83401" lon="2.46127">
        <ele>58.599998474121</ele>
        <time>2016-07-11T19:15:45.000Z</time>
      </trkpt>
      <trkpt lat="48.83415" lon="2.46145">
        <ele>58.799999237061</ele>
        <time>2016-07-11T19:15:53.000Z</time>
      </trkpt>
      <trkpt lat="48.83426" lon="2.46149">
        <ele>58.799999237061</ele>
        <time>2016-07-11T19:16:20.000Z</time>
      </trkpt>
      <trkpt lat="48.83445" lon="2.46144">
        <ele>58.400001525879</ele>
        <time>2016-07-11T19:16:26.000Z</time>
      </trkpt>
      <trkpt lat="48.83468" lon="2.46136">
        <ele>58.200000762939</ele>
        <time>2016-07-11T19:16:31.000Z</time>
      </trkpt>
      <trkpt lat="48.83486" lon="2.46126">
        <ele>58</ele>
        <time>2016-07-11T19:16:37.000Z</time>
      </trkpt>
      <trkpt lat="48.83504" lon="2.46117">
        <ele>57.799999237061</ele>
        <time>2016-07-11T19:16:42.000Z</time>
      </trkpt>
      <trkpt lat="48.83521" lon="2.46101">
        <ele>57.400001525879</ele>
        <time>2016-07-11T19:16:48.000Z</time>
      </trkpt>
      <trkpt lat="48.83527" lon="2.4607">
        <ele>57.200000762939</ele>
        <time>2016-07-11T19:16:54.000Z</time>
      </trkpt>
      <trkpt lat="48.83532" lon="2.46043">
        <ele>57.200000762939</ele>
        <time>2016-07-11T19:16:59.000Z</time>
      </trkpt>
      <trkpt lat="48.83541" lon="2.46017">
        <ele>57.400001525879</ele>
        <time>2016-07-11T19:17:04.000Z</time>
      </trkpt>
      <trkpt lat="48.83557" lon="2.46001">
        <ele>57.400001525879</ele>
        <time>2016-07-11T19:17:09.000Z</time>
      </trkpt>
      <trkpt lat="48.83575" lon="2.45986">
        <ele>57.799999237061</ele>
        <time>2016-07-11T19:17:14.000Z</time>
      </trkpt>
      <trkpt lat="48.83594" lon="2.45972">
        <ele>58</ele>
        <time>2016-07-11T19:17:20.000Z</time>
      </trkpt>
      <trkpt lat="48.83608" lon="2.45954">
        <ele>58</ele>
        <time>2016-07-11T19:17:28.000Z</time>
      </trkpt>
      <trkpt lat="48.8361" lon="2.45947">
        <ele>58</ele>
        <time>2016-07-11T19:17:32.000Z</time>
      </trkpt>
      <trkpt lat="48.83614" lon="2.45956">
        <ele>58</ele>
        <time>2016-07-11T19:17:55.000Z</time>
      </trkpt>
      <trkpt lat="48.83635" lon="2.45952">
        <ele>57.599998474121</ele>
        <time>2016-07-11T19:18:04.000Z</time>
      </trkpt>
      <trkpt lat="48.83654" lon="2.45949">
        <ele>57.200000762939</ele>
        <time>2016-07-11T19:18:10.000Z</time>
      </trkpt>
      <trkpt lat="48.83676" lon="2.4595">
        <ele>56.799999237061</ele>
        <time>2016-07-11T19:18:16.000Z</time>
      </trkpt>
      <trkpt lat="48.83695" lon="2.45951">
        <ele>56.400001525879</ele>
        <time>2016-07-11T19:18:24.000Z</time>
      </trkpt>
      <trkpt lat="48.83714" lon="2.45955">
        <ele>56.200000762939</ele>
        <time>2016-07-11T19:18:31.000Z</time>
      </trkpt>
      <trkpt lat="48.83733" lon="2.45965">
        <ele>56</ele>
        <time>2016-07-11T19:18:37.000Z</time>
      </trkpt>
      <trkpt lat="48.8375" lon="2.45978">
        <ele>56</ele>
        <time>2016-07-11T19:18:43.000Z</time>
      </trkpt>
      <trkpt lat="48.83764" lon="2.45998">
        <ele>56</ele>
        <time>2016-07-11T19:18:49.000Z</time>
      </trkpt>
      <trkpt lat="48.83777" lon="2.4602">
        <ele>56.200000762939</ele>
        <time>2016-07-11T19:18:55.000Z</time>
      </trkpt>
      <trkpt lat="48.83791" lon="2.46039">
        <ele>56.400001525879</ele>
        <time>2016-07-11T19:19:01.000Z</time>
      </trkpt>
      <trkpt lat="48.83808" lon="2.46052">
        <ele>56.599998474121</ele>
        <time>2016-07-11T19:19:09.000Z</time>
      </trkpt>
      <trkpt lat="48.83814" lon="2.46054">
        <ele>56.599998474121</ele>
        <time>2016-07-11T19:19:13.000Z</time>
      </trkpt>
      <trkpt lat="48.83832" lon="2.46063">
        <ele>56.799999237061</ele>
        <time>2016-07-11T19:19:21.000Z</time>
      </trkpt>
      <trkpt lat="48.8385" lon="2.46062">
        <ele>56.799999237061</ele>
        <time>2016-07-11T19:19:30.000Z</time>
      </trkpt>
      <trkpt lat="48.83865" lon="2.46049">
        <ele>56.599998474121</ele>
        <time>2016-07-11T19:19:42.000Z</time>
      </trkpt>
      <trkpt lat="48.83866" lon="2.46047">
        <ele>56.599998474121</ele>
        <time>2016-07-11T19:19:43.000Z</time>
      </trkpt>
      <trkpt lat="48.83872" lon="2.46038">
        <ele>56.400001525879</ele>
        <time>2016-07-11T19:19:48.000Z</time>
      </trkpt>
      <trkpt lat="48.83872" lon="2.46035">
        <ele>56.400001525879</ele>
        <time>2016-07-11T19:19:49.000Z</time>
      </trkpt>
      <trkpt lat="48.8388" lon="2.46029">
        <ele>56.400001525879</ele>
        <time>2016-07-11T19:21:22.000Z</time>
      </trkpt>
      <trkpt lat="48.83895" lon="2.46029">
        <ele>56.400001525879</ele>
        <time>2016-07-11T19:22:23.000Z</time>
      </trkpt>
      <trkpt lat="48.83913" lon="2.46043">
        <ele>56.599998474121</ele>
        <time>2016-07-11T19:22:33.000Z</time>
      </trkpt>
      <trkpt lat="48.83925" lon="2.46066">
        <ele>56.799999237061</ele>
        <time>2016-07-11T19:22:40.000Z</time>
      </trkpt>
      <trkpt lat="48.83941" lon="2.4608">
        <ele>57</ele>
        <time>2016-07-11T19:22:45.000Z</time>
      </trkpt>
      <trkpt lat="48.83958" lon="2.46095">
        <ele>56.599998474121</ele>
        <time>2016-07-11T19:22:49.000Z</time>
      </trkpt>
      <trkpt lat="48.83977" lon="2.46111">
        <ele>56</ele>
        <time>2016-07-11T19:22:53.000Z</time>
      </trkpt>
      <trkpt lat="48.83994" lon="2.46125">
        <ele>55.599998474121</ele>
        <time>2016-07-11T19:22:57.000Z</time>
      </trkpt>
      <trkpt lat="48.84011" lon="2.46137">
        <ele>55.200000762939</ele>
        <time>2016-07-11T19:23:01.000Z</time>
      </trkpt>
      <trkpt lat="48.84028" lon="2.46147">
        <ele>55.200000762939</ele>
        <time>2016-07-11T19:23:05.000Z</time>
      </trkpt>
      <trkpt lat="48.84049" lon="2.46158">
        <ele>56</ele>
        <time>2016-07-11T19:23:10.000Z</time>
      </trkpt>
      <trkpt lat="48.84068" lon="2.46168">
        <ele>56.599998474121</ele>
        <time>2016-07-11T19:23:14.000Z</time>
      </trkpt>
      <trkpt lat="48.84087" lon="2.46175">
        <ele>57.200000762939</ele>
        <time>2016-07-11T19:23:18.000Z</time>
      </trkpt>
      <trkpt lat="48.84108" lon="2.46186">
        <ele>57.799999237061</ele>
        <time>2016-07-11T19:23:23.000Z</time>
      </trkpt>
      <trkpt lat="48.84118" lon="2.46191">
        <ele>57.799999237061</ele>
        <time>2016-07-11T19:23:25.000Z</time>
      </trkpt>
      <trkpt lat="48.84138" lon="2.46206">
        <ele>58</ele>
        <time>2016-07-11T19:23:30.000Z</time>
      </trkpt>
      <trkpt lat="48.84142" lon="2.4621">
        <ele>58</ele>
        <time>2016-07-11T19:23:31.000Z</time>
      </trkpt>
      <trkpt lat="48.8416" lon="2.46224">
        <ele>58</ele>
        <time>2016-07-11T19:23:35.000Z</time>
      </trkpt>
      <trkpt lat="48.84175" lon="2.46241">
        <ele>58</ele>
        <time>2016-07-11T19:23:39.000Z</time>
      </trkpt>
      <trkpt lat="48.8419" lon="2.46261">
        <ele>58.599998474121</ele>
        <time>2016-07-11T19:23:43.000Z</time>
      </trkpt>
      <trkpt lat="48.84206" lon="2.46285">
        <ele>59.799999237061</ele>
        <time>2016-07-11T19:23:47.000Z</time>
      </trkpt>
      <trkpt lat="48.84217" lon="2.46313">
        <ele>61</ele>
        <time>2016-07-11T19:23:51.000Z</time>
      </trkpt>
      <trkpt lat="48.84229" lon="2.4634">
        <ele>62</ele>
        <time>2016-07-11T19:23:55.000Z</time>
      </trkpt>
      <trkpt lat="48.84239" lon="2.46363">
        <ele>62.400001525879</ele>
        <time>2016-07-11T19:23:59.000Z</time>
      </trkpt>
      <trkpt lat="48.84252" lon="2.46385">
        <ele>62.599998474121</ele>
        <time>2016-07-11T19:24:04.000Z</time>
      </trkpt>
      <trkpt lat="48.84254" lon="2.4639">
        <ele>62.599998474121</ele>
        <time>2016-07-11T19:24:05.000Z</time>
      </trkpt>
      <trkpt lat="48.84261" lon="2.46403">
        <ele>62.799999237061</ele>
        <time>2016-07-11T19:24:08.000Z</time>
      </trkpt>
      <trkpt lat="48.84275" lon="2.46426">
        <ele>63</ele>
        <time>2016-07-11T19:24:13.000Z</time>
      </trkpt>
      <trkpt lat="48.84283" lon="2.46443">
        <ele>62.799999237061</ele>
        <time>2016-07-11T19:24:17.000Z</time>
      </trkpt>
      <trkpt lat="48.8429" lon="2.46457">
        <ele>62.799999237061</ele>
        <time>2016-07-11T19:24:21.000Z</time>
      </trkpt>
      <trkpt lat="48.84295" lon="2.46467">
        <ele>62.599998474121</ele>
        <time>2016-07-11T19:24:24.000Z</time>
      </trkpt>
      <trkpt lat="48.84298" lon="2.46481">
        <ele>62.599998474121</ele>
        <time>2016-07-11T19:24:31.000Z</time>
      </trkpt>
      <trkpt lat="48.84309" lon="2.46504">
        <ele>62.599998474121</ele>
        <time>2016-07-11T19:24:42.000Z</time>
      </trkpt>
      <trkpt lat="48.84319" lon="2.46529">
        <ele>63.200000762939</ele>
        <time>2016-07-11T19:24:53.000Z</time>
      </trkpt>
      <trkpt lat="48.84328" lon="2.46556">
        <ele>64</ele>
        <time>2016-07-11T19:25:01.000Z</time>
      </trkpt>
      <trkpt lat="48.8434" lon="2.46578">
        <ele>64.599998474121</ele>
        <time>2016-07-11T19:25:09.000Z</time>
      </trkpt>
      <trkpt lat="48.84355" lon="2.46598">
        <ele>65.199996948242</ele>
        <time>2016-07-11T19:25:15.000Z</time>
      </trkpt>
      <trkpt lat="48.84372" lon="2.46618">
        <ele>65.400001525879</ele>
        <time>2016-07-11T19:25:21.000Z</time>
      </trkpt>
      <trkpt lat="48.84387" lon="2.46635">
        <ele>65.599998474121</ele>
        <time>2016-07-11T19:25:27.000Z</time>
      </trkpt>
      <trkpt lat="48.84403" lon="2.4665">
        <ele>65.800003051758</ele>
        <time>2016-07-11T19:25:31.000Z</time>
      </trkpt>
      <trkpt lat="48.84417" lon="2.46668">
        <ele>66</ele>
        <time>2016-07-11T19:25:35.000Z</time>
      </trkpt>
      <trkpt lat="48.84435" lon="2.46687">
        <ele>65.800003051758</ele>
        <time>2016-07-11T19:25:39.000Z</time>
      </trkpt>
      <trkpt lat="48.84451" lon="2.46708">
        <ele>65.599998474121</ele>
        <time>2016-07-11T19:25:43.000Z</time>
      </trkpt>
      <trkpt lat="48.84465" lon="2.46729">
        <ele>65.599998474121</ele>
        <time>2016-07-11T19:25:47.000Z</time>
      </trkpt>
      <trkpt lat="48.8448" lon="2.46744">
        <ele>65.599998474121</ele>
        <time>2016-07-11T19:25:50.000Z</time>
      </trkpt>
      <trkpt lat="48.84496" lon="2.4676">
        <ele>65.800003051758</ele>
        <time>2016-07-11T19:25:53.000Z</time>
      </trkpt>
      <trkpt lat="48.84511" lon="2.46777">
        <ele>66.199996948242</ele>
        <time>2016-07-11T19:25:56.000Z</time>
      </trkpt>
      <trkpt lat="48.84524" lon="2.468">
        <ele>66.599998474121</ele>
        <time>2016-07-11T19:26:00.000Z</time>
      </trkpt>
      <trkpt lat="48.84532" lon="2.46813">
        <ele>67.199996948242</ele>
        <time>2016-07-11T19:26:03.000Z</time>
      </trkpt>
      <trkpt lat="48.84538" lon="2.46819">
        <ele>67.599998474121</ele>
        <time>2016-07-11T19:26:06.000Z</time>
      </trkpt>
      <trkpt lat="48.84542" lon="2.46819">
        <ele>67.800003051758</ele>
        <time>2016-07-11T19:26:10.000Z</time>
      </trkpt>
      <trkpt lat="48.84547" lon="2.46817">
        <ele>68</ele>
        <time>2016-07-11T19:26:19.000Z</time>
      </trkpt>
      <trkpt lat="48.84565" lon="2.46809">
        <ele>68.800003051758</ele>
        <time>2016-07-11T19:26:30.000Z</time>
      </trkpt>
      <trkpt lat="48.84583" lon="2.46794">
        <ele>69.400001525879</ele>
        <time>2016-07-11T19:26:36.000Z</time>
      </trkpt>
      <trkpt lat="48.84602" lon="2.4678">
        <ele>70.199996948242</ele>
        <time>2016-07-11T19:26:41.000Z</time>
      </trkpt>
      <trkpt lat="48.84618" lon="2.46765">
        <ele>70.400001525879</ele>
        <time>2016-07-11T19:26:46.000Z</time>
      </trkpt>
      <trkpt lat="48.84637" lon="2.46777">
        <ele>70.800003051758</ele>
        <time>2016-07-11T19:26:52.000Z</time>
      </trkpt>
      <trkpt lat="48.84653" lon="2.46797">
        <ele>71.199996948242</ele>
        <time>2016-07-11T19:26:57.000Z</time>
      </trkpt>
      <trkpt lat="48.84668" lon="2.46821">
        <ele>71.599998474121</ele>
        <time>2016-07-11T19:27:02.000Z</time>
      </trkpt>
      <trkpt lat="48.84688" lon="2.46838">
        <ele>72</ele>
        <time>2016-07-11T19:27:07.000Z</time>
      </trkpt>
      <trkpt lat="48.84706" lon="2.46843">
        <ele>73</ele>
        <time>2016-07-11T19:27:12.000Z</time>
      </trkpt>
      <trkpt lat="48.84722" lon="2.46836">
        <ele>73.199996948242</ele>
        <time>2016-07-11T19:27:16.000Z</time>
      </trkpt>
      <trkpt lat="48.84723" lon="2.46835">
        <ele>73.199996948242</ele>
        <time>2016-07-11T19:27:17.000Z</time>
      </trkpt>
      <trkpt lat="48.84733" lon="2.46806">
        <ele>73.199996948242</ele>
        <time>2016-07-11T19:27:26.000Z</time>
      </trkpt>
      <trkpt lat="48.84745" lon="2.46781">
        <ele>73.400001525879</ele>
        <time>2016-07-11T19:27:31.000Z</time>
      </trkpt>
      <trkpt lat="48.84754" lon="2.46757">
        <ele>73.400001525879</ele>
        <time>2016-07-11T19:27:35.000Z</time>
      </trkpt>
      <trkpt lat="48.84766" lon="2.4673">
        <ele>73.800003051758</ele>
        <time>2016-07-11T19:27:40.000Z</time>
      </trkpt>
      <trkpt lat="48.84778" lon="2.46704">
        <ele>74</ele>
        <time>2016-07-11T19:27:45.000Z</time>
      </trkpt>
      <trkpt lat="48.84791" lon="2.4668">
        <ele>74.199996948242</ele>
        <time>2016-07-11T19:27:50.000Z</time>
      </trkpt>
      <trkpt lat="48.84801" lon="2.46656">
        <ele>73.599998474121</ele>
        <time>2016-07-11T19:27:55.000Z</time>
      </trkpt>
      <trkpt lat="48.84814" lon="2.46631">
        <ele>72.800003051758</ele>
        <time>2016-07-11T19:28:00.000Z</time>
      </trkpt>
      <trkpt lat="48.84827" lon="2.46606">
        <ele>72.599998474121</ele>
        <time>2016-07-11T19:28:06.000Z</time>
      </trkpt>
      <trkpt lat="48.84835" lon="2.4658">
        <ele>72.400001525879</ele>
        <time>2016-07-11T19:28:10.000Z</time>
      </trkpt>
      <trkpt lat="48.84843" lon="2.46552">
        <ele>72.199996948242</ele>
        <time>2016-07-11T19:28:14.000Z</time>
      </trkpt>
      <trkpt lat="48.84852" lon="2.46522">
        <ele>72.199996948242</ele>
        <time>2016-07-11T19:28:18.000Z</time>
      </trkpt>
      <trkpt lat="48.84862" lon="2.46493">
        <ele>71.800003051758</ele>
        <time>2016-07-11T19:28:22.000Z</time>
      </trkpt>
      <trkpt lat="48.8487" lon="2.46465">
        <ele>71</ele>
        <time>2016-07-11T19:28:26.000Z</time>
      </trkpt>
      <trkpt lat="48.84875" lon="2.46436">
        <ele>70</ele>
        <time>2016-07-11T19:28:30.000Z</time>
      </trkpt>
      <trkpt lat="48.84886" lon="2.46405">
        <ele>70</ele>
        <time>2016-07-11T19:28:34.000Z</time>
      </trkpt>
      <trkpt lat="48.84893" lon="2.46396">
        <ele>70.400001525879</ele>
        <time>2016-07-11T19:28:36.000Z</time>
      </trkpt>
      <trkpt lat="48.84894" lon="2.46394">
        <ele>70.400001525879</ele>
        <time>2016-07-11T19:28:37.000Z</time>
      </trkpt>
      <trkpt lat="48.84897" lon="2.46391">
        <ele>70.400001525879</ele>
        <time>2016-07-11T19:28:39.000Z</time>
      </trkpt>
      <trkpt lat="48.84892" lon="2.46385">
        <ele>70.400001525879</ele>
        <time>2016-07-11T19:28:44.000Z</time>
      </trkpt>
      <trkpt lat="48.84894" lon="2.46353">
        <ele>70.199996948242</ele>
        <time>2016-07-11T19:28:50.000Z</time>
      </trkpt>
      <trkpt lat="48.84899" lon="2.46322">
        <ele>69.800003051758</ele>
        <time>2016-07-11T19:28:55.000Z</time>
      </trkpt>
      <trkpt lat="48.849" lon="2.46289">
        <ele>69.599998474121</ele>
        <time>2016-07-11T19:29:00.000Z</time>
      </trkpt>
      <trkpt lat="48.84899" lon="2.46261">
        <ele>69.199996948242</ele>
        <time>2016-07-11T19:29:04.000Z</time>
      </trkpt>
      <trkpt lat="48.84896" lon="2.46227">
        <ele>68.400001525879</ele>
        <time>2016-07-11T19:29:09.000Z</time>
      </trkpt>
      <trkpt lat="48.84892" lon="2.46198">
        <ele>67.599998474121</ele>
        <time>2016-07-11T19:29:13.000Z</time>
      </trkpt>
      <trkpt lat="48.84889" lon="2.46172">
        <ele>67.199996948242</ele>
        <time>2016-07-11T19:29:17.000Z</time>
      </trkpt>
      <trkpt lat="48.84889" lon="2.46159">
        <ele>67.199996948242</ele>
        <time>2016-07-11T19:29:19.000Z</time>
      </trkpt>
      <trkpt lat="48.84892" lon="2.46127">
        <ele>66.800003051758</ele>
        <time>2016-07-11T19:29:23.000Z</time>
      </trkpt>
      <trkpt lat="48.84892" lon="2.46112">
        <ele>66.599998474121</ele>
        <time>2016-07-11T19:29:25.000Z</time>
      </trkpt>
      <trkpt lat="48.84895" lon="2.46084">
        <ele>66</ele>
        <time>2016-07-11T19:29:29.000Z</time>
      </trkpt>
      <trkpt lat="48.84898" lon="2.46057">
        <ele>66</ele>
        <time>2016-07-11T19:29:33.000Z</time>
      </trkpt>
      <trkpt lat="48.849" lon="2.46036">
        <ele>66</ele>
        <time>2016-07-11T19:29:37.000Z</time>
      </trkpt>
      <trkpt lat="48.84903" lon="2.46019">
        <ele>65.800003051758</ele>
        <time>2016-07-11T19:29:40.000Z</time>
      </trkpt>
      <trkpt lat="48.84908" lon="2.45988">
        <ele>65.599998474121</ele>
        <time>2016-07-11T19:29:45.000Z</time>
      </trkpt>
      <trkpt lat="48.84909" lon="2.45968">
        <ele>65.599998474121</ele>
        <time>2016-07-11T19:29:48.000Z</time>
      </trkpt>
      <trkpt lat="48.84913" lon="2.45939">
        <ele>65.199996948242</ele>
        <time>2016-07-11T19:29:52.000Z</time>
      </trkpt>
      <trkpt lat="48.84915" lon="2.45932">
        <ele>65.199996948242</ele>
        <time>2016-07-11T19:29:53.000Z</time>
      </trkpt>
      <trkpt lat="48.84916" lon="2.45919">
        <ele>65</ele>
        <time>2016-07-11T19:29:55.000Z</time>
      </trkpt>
      <trkpt lat="48.8492" lon="2.45889">
        <ele>64.800003051758</ele>
        <time>2016-07-11T19:29:59.000Z</time>
      </trkpt>
      <trkpt lat="48.84922" lon="2.45874">
        <ele>64.800003051758</ele>
        <time>2016-07-11T19:30:01.000Z</time>
      </trkpt>
      <trkpt lat="48.84925" lon="2.4584">
        <ele>64.800003051758</ele>
        <time>2016-07-11T19:30:05.000Z</time>
      </trkpt>
      <trkpt lat="48.84926" lon="2.45826">
        <ele>64.599998474121</ele>
        <time>2016-07-11T19:30:07.000Z</time>
      </trkpt>
      <trkpt lat="48.84928" lon="2.45811">
        <ele>64.400001525879</ele>
        <time>2016-07-11T19:30:09.000Z</time>
      </trkpt>
      <trkpt lat="48.84932" lon="2.45783">
        <ele>64.199996948242</ele>
        <time>2016-07-11T19:30:13.000Z</time>
      </trkpt>
      <trkpt lat="48.84936" lon="2.45754">
        <ele>64</ele>
        <time>2016-07-11T19:30:17.000Z</time>
      </trkpt>
      <trkpt lat="48.84938" lon="2.45733">
        <ele>63.799999237061</ele>
        <time>2016-07-11T19:30:20.000Z</time>
      </trkpt>
      <trkpt lat="48.84941" lon="2.45705">
        <ele>63.400001525879</ele>
        <time>2016-07-11T19:30:24.000Z</time>
      </trkpt>
      <trkpt lat="48.84942" lon="2.45699">
        <ele>63.400001525879</ele>
        <time>2016-07-11T19:30:25.000Z</time>
      </trkpt>
      <trkpt lat="48.84946" lon="2.45682">
        <ele>63.200000762939</ele>
        <time>2016-07-11T19:30:28.000Z</time>
      </trkpt>
      <trkpt lat="48.84952" lon="2.45653">
        <ele>64</ele>
        <time>2016-07-11T19:30:34.000Z</time>
      </trkpt>
      <trkpt lat="48.84954" lon="2.45629">
        <ele>64.599998474121</ele>
        <time>2016-07-11T19:30:40.000Z</time>
      </trkpt>
      <trkpt lat="48.84956" lon="2.45625">
        <ele>64.800003051758</ele>
        <time>2016-07-11T19:30:41.000Z</time>
      </trkpt>
      <trkpt lat="48.84972" lon="2.45607">
        <ele>65.800003051758</ele>
        <time>2016-07-11T19:30:46.000Z</time>
      </trkpt>
      <trkpt lat="48.84983" lon="2.45585">
        <ele>66</ele>
        <time>2016-07-11T19:30:51.000Z</time>
      </trkpt>
      <trkpt lat="48.84985" lon="2.4558">
        <ele>66.199996948242</ele>
        <time>2016-07-11T19:30:52.000Z</time>
      </trkpt>
      <trkpt lat="48.84996" lon="2.45554">
        <ele>66.599998474121</ele>
        <time>2016-07-11T19:30:57.000Z</time>
      </trkpt>
      <trkpt lat="48.85003" lon="2.45536">
        <ele>66.800003051758</ele>
        <time>2016-07-11T19:31:00.000Z</time>
      </trkpt>
      <trkpt lat="48.85012" lon="2.4551">
        <ele>66.800003051758</ele>
        <time>2016-07-11T19:31:03.000Z</time>
      </trkpt>
      <trkpt lat="48.85023" lon="2.45481">
        <ele>67.199996948242</ele>
        <time>2016-07-11T19:31:07.000Z</time>
      </trkpt>
      <trkpt lat="48.85033" lon="2.45459">
        <ele>67.599998474121</ele>
        <time>2016-07-11T19:31:10.000Z</time>
      </trkpt>
      <trkpt lat="48.85045" lon="2.45433">
        <ele>68</ele>
        <time>2016-07-11T19:31:14.000Z</time>
      </trkpt>
      <trkpt lat="48.85048" lon="2.45426">
        <ele>68.199996948242</ele>
        <time>2016-07-11T19:31:15.000Z</time>
      </trkpt>
      <trkpt lat="48.85059" lon="2.45401">
        <ele>68.400001525879</ele>
        <time>2016-07-11T19:31:18.000Z</time>
      </trkpt>
      <trkpt lat="48.8507" lon="2.45376">
        <ele>68.599998474121</ele>
        <time>2016-07-11T19:31:21.000Z</time>
      </trkpt>
      <trkpt lat="48.85082" lon="2.45349">
        <ele>68.800003051758</ele>
        <time>2016-07-11T19:31:24.000Z</time>
      </trkpt>
      <trkpt lat="48.85088" lon="2.45332">
        <ele>68.800003051758</ele>
        <time>2016-07-11T19:31:26.000Z</time>
      </trkpt>
      <trkpt lat="48.85099" lon="2.45306">
        <ele>68.599998474121</ele>
        <time>2016-07-11T19:31:29.000Z</time>
      </trkpt>
      <trkpt lat="48.85103" lon="2.45297">
        <ele>68.599998474121</ele>
        <time>2016-07-11T19:31:30.000Z</time>
      </trkpt>
      <trkpt lat="48.85115" lon="2.45273">
        <ele>68.400001525879</ele>
        <time>2016-07-11T19:31:33.000Z</time>
      </trkpt>
      <trkpt lat="48.85124" lon="2.45249">
        <ele>68.599998474121</ele>
        <time>2016-07-11T19:31:36.000Z</time>
      </trkpt>
      <trkpt lat="48.85133" lon="2.45225">
        <ele>68.400001525879</ele>
        <time>2016-07-11T19:31:39.000Z</time>
      </trkpt>
      <trkpt lat="48.85144" lon="2.45196">
        <ele>68.400001525879</ele>
        <time>2016-07-11T19:31:43.000Z</time>
      </trkpt>
      <trkpt lat="48.85146" lon="2.45188">
        <ele>68.400001525879</ele>
        <time>2016-07-11T19:31:44.000Z</time>
      </trkpt>
      <trkpt lat="48.85157" lon="2.45161">
        <ele>69.199996948242</ele>
        <time>2016-07-11T19:31:48.000Z</time>
      </trkpt>
      <trkpt lat="48.8517" lon="2.45133">
        <ele>70.400001525879</ele>
        <time>2016-07-11T19:31:52.000Z</time>
      </trkpt>
      <trkpt lat="48.85181" lon="2.45109">
        <ele>71.199996948242</ele>
        <time>2016-07-11T19:31:56.000Z</time>
      </trkpt>
      <trkpt lat="48.85186" lon="2.45097">
        <ele>71.599998474121</ele>
        <time>2016-07-11T19:31:58.000Z</time>
      </trkpt>
      <trkpt lat="48.8519" lon="2.45085">
        <ele>72</ele>
        <time>2016-07-11T19:32:00.000Z</time>
      </trkpt>
      <trkpt lat="48.852" lon="2.45059">
        <ele>73.199996948242</ele>
        <time>2016-07-11T19:32:04.000Z</time>
      </trkpt>
      <trkpt lat="48.8521" lon="2.45036">
        <ele>74.400001525879</ele>
        <time>2016-07-11T19:32:08.000Z</time>
      </trkpt>
      <trkpt lat="48.85221" lon="2.45014">
        <ele>75.199996948242</ele>
        <time>2016-07-11T19:32:12.000Z</time>
      </trkpt>
      <trkpt lat="48.85227" lon="2.45">
        <ele>75.400001525879</ele>
        <time>2016-07-11T19:32:14.000Z</time>
      </trkpt>
      <trkpt lat="48.8524" lon="2.44971">
        <ele>75.199996948242</ele>
        <time>2016-07-11T19:32:18.000Z</time>
      </trkpt>
      <trkpt lat="48.85254" lon="2.44945">
        <ele>75</ele>
        <time>2016-07-11T19:32:22.000Z</time>
      </trkpt>
      <trkpt lat="48.85262" lon="2.44936">
        <ele>75.199996948242</ele>
        <time>2016-07-11T19:32:24.000Z</time>
      </trkpt>
      <trkpt lat="48.85273" lon="2.44928">
        <ele>75.199996948242</ele>
        <time>2016-07-11T19:32:28.000Z</time>
      </trkpt>
      <trkpt lat="48.85274" lon="2.44927">
        <ele>75.199996948242</ele>
        <time>2016-07-11T19:32:29.000Z</time>
      </trkpt>
      <trkpt lat="48.85275" lon="2.44927">
        <ele>75.199996948242</ele>
        <time>2016-07-11T19:34:11.000Z</time>
      </trkpt>
      <trkpt lat="48.85286" lon="2.44901">
        <ele>74.599998474121</ele>
        <time>2016-07-11T19:34:21.000Z</time>
      </trkpt>
      <trkpt lat="48.853" lon="2.44882">
        <ele>74</ele>
        <time>2016-07-11T19:34:26.000Z</time>
      </trkpt>
      <trkpt lat="48.85314" lon="2.44862">
        <ele>73.599998474121</ele>
        <time>2016-07-11T19:34:31.000Z</time>
      </trkpt>
      <trkpt lat="48.85326" lon="2.44839">
        <ele>73.199996948242</ele>
        <time>2016-07-11T19:34:37.000Z</time>
      </trkpt>
      <trkpt lat="48.85342" lon="2.44821">
        <ele>73.400001525879</ele>
        <time>2016-07-11T19:34:42.000Z</time>
      </trkpt>
      <trkpt lat="48.85357" lon="2.44805">
        <ele>72.599998474121</ele>
        <time>2016-07-11T19:34:46.000Z</time>
      </trkpt>
      <trkpt lat="48.85372" lon="2.44787">
        <ele>71.599998474121</ele>
        <time>2016-07-11T19:34:50.000Z</time>
      </trkpt>
      <trkpt lat="48.85391" lon="2.44767">
        <ele>70.400001525879</ele>
        <time>2016-07-11T19:34:54.000Z</time>
      </trkpt>
      <trkpt lat="48.85406" lon="2.44752">
        <ele>69.599998474121</ele>
        <time>2016-07-11T19:34:57.000Z</time>
      </trkpt>
      <trkpt lat="48.85422" lon="2.44737">
        <ele>69</ele>
        <time>2016-07-11T19:35:00.000Z</time>
      </trkpt>
      <trkpt lat="48.8544" lon="2.44722">
        <ele>68.400001525879</ele>
        <time>2016-07-11T19:35:04.000Z</time>
      </trkpt>
      <trkpt lat="48.85446" lon="2.44717">
        <ele>68.199996948242</ele>
        <time>2016-07-11T19:35:06.000Z</time>
      </trkpt>
      <trkpt lat="48.85452" lon="2.44717">
        <ele>68.199996948242</ele>
        <time>2016-07-11T19:35:09.000Z</time>
      </trkpt>
      <trkpt lat="48.85466" lon="2.44711">
        <ele>68</ele>
        <time>2016-07-11T19:35:23.000Z</time>
      </trkpt>
      <trkpt lat="48.85485" lon="2.44696">
        <ele>67.800003051758</ele>
        <time>2016-07-11T19:35:27.000Z</time>
      </trkpt>
      <trkpt lat="48.85501" lon="2.44682">
        <ele>67.400001525879</ele>
        <time>2016-07-11T19:35:30.000Z</time>
      </trkpt>
      <trkpt lat="48.85517" lon="2.44667">
        <ele>67</ele>
        <time>2016-07-11T19:35:33.000Z</time>
      </trkpt>
      <trkpt lat="48.85522" lon="2.44661">
        <ele>67</ele>
        <time>2016-07-11T19:35:34.000Z</time>
      </trkpt>
      <trkpt lat="48.85539" lon="2.44642">
        <ele>67.199996948242</ele>
        <time>2016-07-11T19:35:37.000Z</time>
      </trkpt>
      <trkpt lat="48.85556" lon="2.44622">
        <ele>67.199996948242</ele>
        <time>2016-07-11T19:35:40.000Z</time>
      </trkpt>
      <trkpt lat="48.85572" lon="2.44606">
        <ele>67.199996948242</ele>
        <time>2016-07-11T19:35:43.000Z</time>
      </trkpt>
      <trkpt lat="48.85588" lon="2.44589">
        <ele>67</ele>
        <time>2016-07-11T19:35:46.000Z</time>
      </trkpt>
      <trkpt lat="48.85603" lon="2.4457">
        <ele>66.599998474121</ele>
        <time>2016-07-11T19:35:49.000Z</time>
      </trkpt>
      <trkpt lat="48.85622" lon="2.44551">
        <ele>65.800003051758</ele>
        <time>2016-07-11T19:35:53.000Z</time>
      </trkpt>
      <trkpt lat="48.85626" lon="2.44546">
        <ele>65.800003051758</ele>
        <time>2016-07-11T19:35:54.000Z</time>
      </trkpt>
      <trkpt lat="48.8564" lon="2.44524">
        <ele>65.199996948242</ele>
        <time>2016-07-11T19:35:58.000Z</time>
      </trkpt>
      <trkpt lat="48.85647" lon="2.44505">
        <ele>65</ele>
        <time>2016-07-11T19:36:01.000Z</time>
      </trkpt>
      <trkpt lat="48.85652" lon="2.44476">
        <ele>64.599998474121</ele>
        <time>2016-07-11T19:36:05.000Z</time>
      </trkpt>
      <trkpt lat="48.85657" lon="2.44449">
        <ele>64.199996948242</ele>
        <time>2016-07-11T19:36:09.000Z</time>
      </trkpt>
      <trkpt lat="48.85661" lon="2.44417">
        <ele>64</ele>
        <time>2016-07-11T19:36:14.000Z</time>
      </trkpt>
      <trkpt lat="48.85663" lon="2.44412">
        <ele>64</ele>
        <time>2016-07-11T19:36:15.000Z</time>
      </trkpt>
      <trkpt lat="48.85666" lon="2.444">
        <ele>64.199996948242</ele>
        <time>2016-07-11T19:36:17.000Z</time>
      </trkpt>
      <trkpt lat="48.8567" lon="2.44384">
        <ele>64.400001525879</ele>
        <time>2016-07-11T19:36:20.000Z</time>
      </trkpt>
      <trkpt lat="48.85678" lon="2.44355">
        <ele>64.599998474121</ele>
        <time>2016-07-11T19:36:25.000Z</time>
      </trkpt>
      <trkpt lat="48.85681" lon="2.44344">
        <ele>64.599998474121</ele>
        <time>2016-07-11T19:36:27.000Z</time>
      </trkpt>
      <trkpt lat="48.85686" lon="2.44321">
        <ele>64.599998474121</ele>
        <time>2016-07-11T19:36:31.000Z</time>
      </trkpt>
      <trkpt lat="48.85687" lon="2.44296">
        <ele>64</ele>
        <time>2016-07-11T19:36:35.000Z</time>
      </trkpt>
      <trkpt lat="48.85692" lon="2.44263">
        <ele>63.400001525879</ele>
        <time>2016-07-11T19:36:40.000Z</time>
      </trkpt>
      <trkpt lat="48.85698" lon="2.44234">
        <ele>63.200000762939</ele>
        <time>2016-07-11T19:36:44.000Z</time>
      </trkpt>
      <trkpt lat="48.85705" lon="2.44204">
        <ele>62.799999237061</ele>
        <time>2016-07-11T19:36:48.000Z</time>
      </trkpt>
      <trkpt lat="48.85712" lon="2.44173">
        <ele>62.400001525879</ele>
        <time>2016-07-11T19:36:52.000Z</time>
      </trkpt>
      <trkpt lat="48.85719" lon="2.44141">
        <ele>62.400001525879</ele>
        <time>2016-07-11T19:36:56.000Z</time>
      </trkpt>
      <trkpt lat="48.85723" lon="2.44126">
        <ele>62.599998474121</ele>
        <time>2016-07-11T19:36:58.000Z</time>
      </trkpt>
      <trkpt lat="48.85727" lon="2.44095">
        <ele>62</ele>
        <time>2016-07-11T19:37:02.000Z</time>
      </trkpt>
      <trkpt lat="48.85734" lon="2.44068">
        <ele>61.599998474121</ele>
        <time>2016-07-11T19:37:06.000Z</time>
      </trkpt>
      <trkpt lat="48.85738" lon="2.44048">
        <ele>61.599998474121</ele>
        <time>2016-07-11T19:37:09.000Z</time>
      </trkpt>
      <trkpt lat="48.85743" lon="2.44019">
        <ele>61.599998474121</ele>
        <time>2016-07-11T19:37:14.000Z</time>
      </trkpt>
      <trkpt lat="48.85744" lon="2.43988">
        <ele>61.799999237061</ele>
        <time>2016-07-11T19:37:19.000Z</time>
      </trkpt>
      <trkpt lat="48.85745" lon="2.43983">
        <ele>61.799999237061</ele>
        <time>2016-07-11T19:37:20.000Z</time>
      </trkpt>
      <trkpt lat="48.85752" lon="2.43953">
        <ele>62.599998474121</ele>
        <time>2016-07-11T19:37:25.000Z</time>
      </trkpt>
      <trkpt lat="48.85757" lon="2.43926">
        <ele>63.400001525879</ele>
        <time>2016-07-11T19:37:30.000Z</time>
      </trkpt>
      <trkpt lat="48.85763" lon="2.43899">
        <ele>64.599998474121</ele>
        <time>2016-07-11T19:37:35.000Z</time>
      </trkpt>
      <trkpt lat="48.85769" lon="2.43869">
        <ele>66.199996948242</ele>
        <time>2016-07-11T19:37:41.000Z</time>
      </trkpt>
      <trkpt lat="48.85774" lon="2.4384">
        <ele>67.800003051758</ele>
        <time>2016-07-11T19:37:46.000Z</time>
      </trkpt>
      <trkpt lat="48.85781" lon="2.43815">
        <ele>68.400001525879</ele>
        <time>2016-07-11T19:37:50.000Z</time>
      </trkpt>
      <trkpt lat="48.85787" lon="2.43789">
        <ele>68.800003051758</ele>
        <time>2016-07-11T19:37:54.000Z</time>
      </trkpt>
      <trkpt lat="48.85792" lon="2.4376">
        <ele>69.400001525879</ele>
        <time>2016-07-11T19:37:59.000Z</time>
      </trkpt>
      <trkpt lat="48.85796" lon="2.43728">
        <ele>69.599998474121</ele>
        <time>2016-07-11T19:38:05.000Z</time>
      </trkpt>
      <trkpt lat="48.85804" lon="2.43711">
        <ele>69.800003051758</ele>
        <time>2016-07-11T19:38:11.000Z</time>
      </trkpt>
      <trkpt lat="48.85814" lon="2.43695">
        <ele>70</ele>
        <time>2016-07-11T19:39:20.000Z</time>
      </trkpt>
      <trkpt lat="48.85819" lon="2.43674">
        <ele>70.199996948242</ele>
        <time>2016-07-11T19:39:28.000Z</time>
      </trkpt>
      <trkpt lat="48.85816" lon="2.43647">
        <ele>70.199996948242</ele>
        <time>2016-07-11T19:39:35.000Z</time>
      </trkpt>
      <trkpt lat="48.85815" lon="2.43619">
        <ele>70.599998474121</ele>
        <time>2016-07-11T19:39:42.000Z</time>
      </trkpt>
      <trkpt lat="48.85819" lon="2.43588">
        <ele>71</ele>
        <time>2016-07-11T19:39:49.000Z</time>
      </trkpt>
      <trkpt lat="48.85826" lon="2.43557">
        <ele>71.199996948242</ele>
        <time>2016-07-11T19:39:55.000Z</time>
      </trkpt>
      <trkpt lat="48.85828" lon="2.4353">
        <ele>71.400001525879</ele>
        <time>2016-07-11T19:40:00.000Z</time>
      </trkpt>
      <trkpt lat="48.85832" lon="2.43503">
        <ele>71.400001525879</ele>
        <time>2016-07-11T19:40:05.000Z</time>
      </trkpt>
      <trkpt lat="48.85833" lon="2.43474">
        <ele>72</ele>
        <time>2016-07-11T19:40:11.000Z</time>
      </trkpt>
      <trkpt lat="48.85834" lon="2.43443">
        <ele>72.800003051758</ele>
        <time>2016-07-11T19:40:17.000Z</time>
      </trkpt>
      <trkpt lat="48.85839" lon="2.43413">
        <ele>73.599998474121</ele>
        <time>2016-07-11T19:40:23.000Z</time>
      </trkpt>
      <trkpt lat="48.85843" lon="2.43384">
        <ele>73.400001525879</ele>
        <time>2016-07-11T19:40:29.000Z</time>
      </trkpt>
      <trkpt lat="48.85846" lon="2.43355">
        <ele>73</ele>
        <time>2016-07-11T19:40:38.000Z</time>
      </trkpt>
      <trkpt lat="48.85851" lon="2.43323">
        <ele>72.800003051758</ele>
        <time>2016-07-11T19:40:46.000Z</time>
      </trkpt>
      <trkpt lat="48.85853" lon="2.43295">
        <ele>72</ele>
        <time>2016-07-11T19:40:51.000Z</time>
      </trkpt>
      <trkpt lat="48.85851" lon="2.43264">
        <ele>71.400001525879</ele>
        <time>2016-07-11T19:40:56.000Z</time>
      </trkpt>
      <trkpt lat="48.85848" lon="2.43231">
        <ele>70.800003051758</ele>
        <time>2016-07-11T19:41:02.000Z</time>
      </trkpt>
      <trkpt lat="48.85845" lon="2.43202">
        <ele>71</ele>
        <time>2016-07-11T19:41:07.000Z</time>
      </trkpt>
      <trkpt lat="48.85845" lon="2.43171">
        <ele>71.400001525879</ele>
        <time>2016-07-11T19:41:12.000Z</time>
      </trkpt>
      <trkpt lat="48.85845" lon="2.43143">
        <ele>71.599998474121</ele>
        <time>2016-07-11T19:41:16.000Z</time>
      </trkpt>
      <trkpt lat="48.85846" lon="2.43116">
        <ele>71</ele>
        <time>2016-07-11T19:41:20.000Z</time>
      </trkpt>
      <trkpt lat="48.85843" lon="2.43085">
        <ele>70.199996948242</ele>
        <time>2016-07-11T19:41:24.000Z</time>
      </trkpt>
      <trkpt lat="48.85839" lon="2.43058">
        <ele>70.599998474121</ele>
        <time>2016-07-11T19:41:28.000Z</time>
      </trkpt>
      <trkpt lat="48.85837" lon="2.43028">
        <ele>71.199996948242</ele>
        <time>2016-07-11T19:41:33.000Z</time>
      </trkpt>
      <trkpt lat="48.85837" lon="2.42997">
        <ele>72</ele>
        <time>2016-07-11T19:41:38.000Z</time>
      </trkpt>
      <trkpt lat="48.85839" lon="2.42967">
        <ele>71.400001525879</ele>
        <time>2016-07-11T19:41:43.000Z</time>
      </trkpt>
      <trkpt lat="48.8584" lon="2.42962">
        <ele>71.400001525879</ele>
        <time>2016-07-11T19:41:44.000Z</time>
      </trkpt>
      <trkpt lat="48.85857" lon="2.42969">
        <ele>71.400001525879</ele>
        <time>2016-07-11T19:41:50.000Z</time>
      </trkpt>
      <trkpt lat="48.8586" lon="2.42972">
        <ele>71.400001525879</ele>
        <time>2016-07-11T19:41:51.000Z</time>
      </trkpt>
      <trkpt lat="48.85868" lon="2.42975">
        <ele>71.599998474121</ele>
        <time>2016-07-11T19:41:55.000Z</time>
      </trkpt>
      <trkpt lat="48.8587" lon="2.42946">
        <ele>70.800003051758</ele>
        <time>2016-07-11T19:42:02.000Z</time>
      </trkpt>
      <trkpt lat="48.85865" lon="2.42915">
        <ele>70.199996948242</ele>
        <time>2016-07-11T19:42:08.000Z</time>
      </trkpt>
      <trkpt lat="48.85863" lon="2.42884">
        <ele>69.400001525879</ele>
        <time>2016-07-11T19:42:14.000Z</time>
      </trkpt>
      <trkpt lat="48.85861" lon="2.42851">
        <ele>68.599998474121</ele>
        <time>2016-07-11T19:42:20.000Z</time>
      </trkpt>
      <trkpt lat="48.85856" lon="2.42822">
        <ele>68.199996948242</ele>
        <time>2016-07-11T19:42:25.000Z</time>
      </trkpt>
      <trkpt lat="48.85855" lon="2.42791">
        <ele>68.400001525879</ele>
        <time>2016-07-11T19:42:30.000Z</time>
      </trkpt>
      <trkpt lat="48.85854" lon="2.42759">
        <ele>69</ele>
        <time>2016-07-11T19:42:35.000Z</time>
      </trkpt>
      <trkpt lat="48.85854" lon="2.42729">
        <ele>69</ele>
        <time>2016-07-11T19:42:42.000Z</time>
      </trkpt>
      <trkpt lat="48.85864" lon="2.427">
        <ele>69</ele>
        <time>2016-07-11T19:42:48.000Z</time>
      </trkpt>
      <trkpt lat="48.85872" lon="2.42678">
        <ele>69.199996948242</ele>
        <time>2016-07-11T19:42:51.000Z</time>
      </trkpt>
      <trkpt lat="48.85879" lon="2.42652">
        <ele>69.800003051758</ele>
        <time>2016-07-11T19:42:54.000Z</time>
      </trkpt>
      <trkpt lat="48.85888" lon="2.42623">
        <ele>70.800003051758</ele>
        <time>2016-07-11T19:42:57.000Z</time>
      </trkpt>
      <trkpt lat="48.85896" lon="2.42594">
        <ele>71.599998474121</ele>
        <time>2016-07-11T19:43:00.000Z</time>
      </trkpt>
      <trkpt lat="48.85904" lon="2.42564">
        <ele>72</ele>
        <time>2016-07-11T19:43:03.000Z</time>
      </trkpt>
      <trkpt lat="48.85914" lon="2.42535">
        <ele>72.800003051758</ele>
        <time>2016-07-11T19:43:06.000Z</time>
      </trkpt>
      <trkpt lat="48.85921" lon="2.42502">
        <ele>74.599998474121</ele>
        <time>2016-07-11T19:43:10.000Z</time>
      </trkpt>
      <trkpt lat="48.85929" lon="2.42471">
        <ele>75</ele>
        <time>2016-07-11T19:43:14.000Z</time>
      </trkpt>
      <trkpt lat="48.85938" lon="2.42444">
        <ele>75.199996948242</ele>
        <time>2016-07-11T19:43:18.000Z</time>
      </trkpt>
      <trkpt lat="48.85945" lon="2.42419">
        <ele>75.400001525879</ele>
        <time>2016-07-11T19:43:22.000Z</time>
      </trkpt>
      <trkpt lat="48.85953" lon="2.42391">
        <ele>74.199996948242</ele>
        <time>2016-07-11T19:43:26.000Z</time>
      </trkpt>
      <trkpt lat="48.85963" lon="2.4236">
        <ele>73</ele>
        <time>2016-07-11T19:43:30.000Z</time>
      </trkpt>
      <trkpt lat="48.85973" lon="2.42329">
        <ele>72.199996948242</ele>
        <time>2016-07-11T19:43:34.000Z</time>
      </trkpt>
      <trkpt lat="48.85982" lon="2.42299">
        <ele>71.400001525879</ele>
        <time>2016-07-11T19:43:38.000Z</time>
      </trkpt>
      <trkpt lat="48.8599" lon="2.42267">
        <ele>70.800003051758</ele>
        <time>2016-07-11T19:43:42.000Z</time>
      </trkpt>
      <trkpt lat="48.85998" lon="2.42237">
        <ele>70.599998474121</ele>
        <time>2016-07-11T19:43:46.000Z</time>
      </trkpt>
      <trkpt lat="48.86" lon="2.4223">
        <ele>70.400001525879</ele>
        <time>2016-07-11T19:43:47.000Z</time>
      </trkpt>
      <trkpt lat="48.86005" lon="2.42216">
        <ele>70.800003051758</ele>
        <time>2016-07-11T19:43:49.000Z</time>
      </trkpt>
      <trkpt lat="48.86013" lon="2.42185">
        <ele>71.400001525879</ele>
        <time>2016-07-11T19:43:53.000Z</time>
      </trkpt>
      <trkpt lat="48.8602" lon="2.42155">
        <ele>71.800003051758</ele>
        <time>2016-07-11T19:43:57.000Z</time>
      </trkpt>
      <trkpt lat="48.86027" lon="2.42124">
        <ele>71.599998474121</ele>
        <time>2016-07-11T19:44:01.000Z</time>
      </trkpt>
      <trkpt lat="48.86035" lon="2.42099">
        <ele>71.599998474121</ele>
        <time>2016-07-11T19:44:05.000Z</time>
      </trkpt>
      <trkpt lat="48.86036" lon="2.42092">
        <ele>71.599998474121</ele>
        <time>2016-07-11T19:44:06.000Z</time>
      </trkpt>
      <trkpt lat="48.86039" lon="2.42065">
        <ele>71</ele>
        <time>2016-07-11T19:44:10.000Z</time>
      </trkpt>
      <trkpt lat="48.86044" lon="2.4204">
        <ele>70.800003051758</ele>
        <time>2016-07-11T19:44:14.000Z</time>
      </trkpt>
      <trkpt lat="48.86049" lon="2.42027">
        <ele>70.599998474121</ele>
        <time>2016-07-11T19:44:17.000Z</time>
      </trkpt>
      <trkpt lat="48.86053" lon="2.42015">
        <ele>70.800003051758</ele>
        <time>2016-07-11T19:44:42.000Z</time>
      </trkpt>
      <trkpt lat="48.8606" lon="2.41987">
        <ele>70.599998474121</ele>
        <time>2016-07-11T19:44:48.000Z</time>
      </trkpt>
      <trkpt lat="48.86066" lon="2.41955">
        <ele>70</ele>
        <time>2016-07-11T19:44:53.000Z</time>
      </trkpt>
      <trkpt lat="48.86069" lon="2.41922">
        <ele>69.800003051758</ele>
        <time>2016-07-11T19:44:58.000Z</time>
      </trkpt>
      <trkpt lat="48.86075" lon="2.41889">
        <ele>69.599998474121</ele>
        <time>2016-07-11T19:45:02.000Z</time>
      </trkpt>
      <trkpt lat="48.86084" lon="2.41856">
        <ele>70</ele>
        <time>2016-07-11T19:45:06.000Z</time>
      </trkpt>
      <trkpt lat="48.86096" lon="2.41835">
        <ele>70.599998474121</ele>
        <time>2016-07-11T19:45:09.000Z</time>
      </trkpt>
      <trkpt lat="48.8611" lon="2.41815">
        <ele>70.400001525879</ele>
        <time>2016-07-11T19:45:12.000Z</time>
      </trkpt>
      <trkpt lat="48.86122" lon="2.41793">
        <ele>69.599998474121</ele>
        <time>2016-07-11T19:45:15.000Z</time>
      </trkpt>
      <trkpt lat="48.86136" lon="2.41772">
        <ele>69</ele>
        <time>2016-07-11T19:45:18.000Z</time>
      </trkpt>
      <trkpt lat="48.86149" lon="2.41754">
        <ele>68.599998474121</ele>
        <time>2016-07-11T19:45:21.000Z</time>
      </trkpt>
      <trkpt lat="48.86166" lon="2.41733">
        <ele>68.800003051758</ele>
        <time>2016-07-11T19:45:25.000Z</time>
      </trkpt>
      <trkpt lat="48.86186" lon="2.41711">
        <ele>69.800003051758</ele>
        <time>2016-07-11T19:45:29.000Z</time>
      </trkpt>
      <trkpt lat="48.86198" lon="2.41687">
        <ele>70.599998474121</ele>
        <time>2016-07-11T19:45:32.000Z</time>
      </trkpt>
      <trkpt lat="48.86209" lon="2.41664">
        <ele>70.800003051758</ele>
        <time>2016-07-11T19:45:35.000Z</time>
      </trkpt>
      <trkpt lat="48.86228" lon="2.41637">
        <ele>70.599998474121</ele>
        <time>2016-07-11T19:45:39.000Z</time>
      </trkpt>
      <trkpt lat="48.86243" lon="2.41615">
        <ele>71.199996948242</ele>
        <time>2016-07-11T19:45:42.000Z</time>
      </trkpt>
      <trkpt lat="48.86247" lon="2.41607">
        <ele>71.400001525879</ele>
        <time>2016-07-11T19:45:43.000Z</time>
      </trkpt>
      <trkpt lat="48.86259" lon="2.41582">
        <ele>72.599998474121</ele>
        <time>2016-07-11T19:45:46.000Z</time>
      </trkpt>
      <trkpt lat="48.86271" lon="2.41557">
        <ele>73</ele>
        <time>2016-07-11T19:45:49.000Z</time>
      </trkpt>
      <trkpt lat="48.86284" lon="2.41533">
        <ele>73.599998474121</ele>
        <time>2016-07-11T19:45:52.000Z</time>
      </trkpt>
      <trkpt lat="48.86296" lon="2.41511">
        <ele>74.199996948242</ele>
        <time>2016-07-11T19:45:55.000Z</time>
      </trkpt>
      <trkpt lat="48.86301" lon="2.41506">
        <ele>74.599998474121</ele>
        <time>2016-07-11T19:45:56.000Z</time>
      </trkpt>
      <trkpt lat="48.86317" lon="2.41483">
        <ele>75</ele>
        <time>2016-07-11T19:46:00.000Z</time>
      </trkpt>
      <trkpt lat="48.86327" lon="2.41472">
        <ele>75.199996948242</ele>
        <time>2016-07-11T19:46:02.000Z</time>
      </trkpt>
      <trkpt lat="48.86344" lon="2.41448">
        <ele>75.400001525879</ele>
        <time>2016-07-11T19:46:06.000Z</time>
      </trkpt>
      <trkpt lat="48.86361" lon="2.41422">
        <ele>75.400001525879</ele>
        <time>2016-07-11T19:46:10.000Z</time>
      </trkpt>
      <trkpt lat="48.86376" lon="2.41401">
        <ele>76.800003051758</ele>
        <time>2016-07-11T19:46:14.000Z</time>
      </trkpt>
      <trkpt lat="48.86388" lon="2.41386">
        <ele>78.199996948242</ele>
        <time>2016-07-11T19:46:18.000Z</time>
      </trkpt>
      <trkpt lat="48.86391" lon="2.41381">
        <ele>78.800003051758</ele>
        <time>2016-07-11T19:46:20.000Z</time>
      </trkpt>
      <trkpt lat="48.86401" lon="2.41376">
        <ele>79.400001525879</ele>
        <time>2016-07-11T19:46:24.000Z</time>
      </trkpt>
      <trkpt lat="48.86404" lon="2.41364">
        <ele>79.199996948242</ele>
        <time>2016-07-11T19:46:29.000Z</time>
      </trkpt>
      <trkpt lat="48.86403" lon="2.41357">
        <ele>79.199996948242</ele>
        <time>2016-07-11T19:46:31.000Z</time>
      </trkpt>
      <trkpt lat="48.86402" lon="2.41348">
        <ele>79</ele>
        <time>2016-07-11T19:46:35.000Z</time>
      </trkpt>
      <trkpt lat="48.86401" lon="2.41346">
        <ele>79</ele>
        <time>2016-07-11T19:46:37.000Z</time>
      </trkpt>
      <trkpt lat="48.86396" lon="2.41345">
        <ele>79.199996948242</ele>
        <time>2016-07-11T19:47:01.000Z</time>
      </trkpt>
      <trkpt lat="48.86403" lon="2.4132">
        <ele>79</ele>
        <time>2016-07-11T19:47:24.000Z</time>
      </trkpt>
      <trkpt lat="48.86414" lon="2.41298">
        <ele>79.400001525879</ele>
        <time>2016-07-11T19:47:29.000Z</time>
      </trkpt>
      <trkpt lat="48.86428" lon="2.41279">
        <ele>80.800003051758</ele>
        <time>2016-07-11T19:47:36.000Z</time>
      </trkpt>
      <trkpt lat="48.86429" lon="2.41277">
        <ele>81</ele>
        <time>2016-07-11T19:47:37.000Z</time>
      </trkpt>
      <trkpt lat="48.86432" lon="2.41263">
        <ele>82</ele>
        <time>2016-07-11T19:47:41.000Z</time>
      </trkpt>
      <trkpt lat="48.86443" lon="2.41239">
        <ele>83</ele>
        <time>2016-07-11T19:47:48.000Z</time>
      </trkpt>
      <trkpt lat="48.86454" lon="2.41217">
        <ele>83</ele>
        <time>2016-07-11T19:47:54.000Z</time>
      </trkpt>
      <trkpt lat="48.86468" lon="2.41194">
        <ele>83</ele>
        <time>2016-07-11T19:48:01.000Z</time>
      </trkpt>
      <trkpt lat="48.86479" lon="2.4117">
        <ele>83.800003051758</ele>
        <time>2016-07-11T19:48:08.000Z</time>
      </trkpt>
      <trkpt lat="48.86485" lon="2.41143">
        <ele>83</ele>
        <time>2016-07-11T19:48:16.000Z</time>
      </trkpt>
      <trkpt lat="48.86489" lon="2.41119">
        <ele>82.599998474121</ele>
        <time>2016-07-11T19:48:35.000Z</time>
      </trkpt>
      <trkpt lat="48.86508" lon="2.41112">
        <ele>83.800003051758</ele>
        <time>2016-07-11T19:48:49.000Z</time>
      </trkpt>
      <trkpt lat="48.86525" lon="2.41121">
        <ele>84.599998474121</ele>
        <time>2016-07-11T19:48:55.000Z</time>
      </trkpt>
      <trkpt lat="48.86542" lon="2.4114">
        <ele>84.800003051758</ele>
        <time>2016-07-11T19:49:01.000Z</time>
      </trkpt>
      <trkpt lat="48.86549" lon="2.41141">
        <ele>85</ele>
        <time>2016-07-11T19:49:03.000Z</time>
      </trkpt>
      <trkpt lat="48.86567" lon="2.41137">
        <ele>85.400001525879</ele>
        <time>2016-07-11T19:49:08.000Z</time>
      </trkpt>
      <trkpt lat="48.86585" lon="2.41133">
        <ele>86.199996948242</ele>
        <time>2016-07-11T19:49:14.000Z</time>
      </trkpt>
      <trkpt lat="48.86604" lon="2.41123">
        <ele>88</ele>
        <time>2016-07-11T19:49:22.000Z</time>
      </trkpt>
      <trkpt lat="48.86623" lon="2.41116">
        <ele>89.800003051758</ele>
        <time>2016-07-11T19:49:29.000Z</time>
      </trkpt>
      <trkpt lat="48.8664" lon="2.41109">
        <ele>91.400001525879</ele>
        <time>2016-07-11T19:49:36.000Z</time>
      </trkpt>
      <trkpt lat="48.86644" lon="2.41107">
        <ele>91.599998474121</ele>
        <time>2016-07-11T19:49:38.000Z</time>
      </trkpt>
      <trkpt lat="48.86661" lon="2.41114">
        <ele>92.599998474121</ele>
        <time>2016-07-11T19:49:44.000Z</time>
      </trkpt>
      <trkpt lat="48.8668" lon="2.41113">
        <ele>93.599998474121</ele>
        <time>2016-07-11T19:49:50.000Z</time>
      </trkpt>
      <trkpt lat="48.86698" lon="2.41113">
        <ele>94.400001525879</ele>
        <time>2016-07-11T19:49:55.000Z</time>
      </trkpt>
      <trkpt lat="48.8672" lon="2.41106">
        <ele>95</ele>
        <time>2016-07-11T19:50:00.000Z</time>
      </trkpt>
      <trkpt lat="48.86738" lon="2.41105">
        <ele>96</ele>
        <time>2016-07-11T19:50:04.000Z</time>
      </trkpt>
      <trkpt lat="48.86759" lon="2.41107">
        <ele>96.800003051758</ele>
        <time>2016-07-11T19:50:09.000Z</time>
      </trkpt>
      <trkpt lat="48.8678" lon="2.41104">
        <ele>98.400001525879</ele>
        <time>2016-07-11T19:50:15.000Z</time>
      </trkpt>
      <trkpt lat="48.86799" lon="2.41102">
        <ele>100.19999694824</ele>
        <time>2016-07-11T19:50:21.000Z</time>
      </trkpt>
      <trkpt lat="48.86821" lon="2.41103">
        <ele>101</ele>
        <time>2016-07-11T19:50:27.000Z</time>
      </trkpt>
      <trkpt lat="48.8684" lon="2.41099">
        <ele>101.59999847412</ele>
        <time>2016-07-11T19:50:32.000Z</time>
      </trkpt>
      <trkpt lat="48.86861" lon="2.41101">
        <ele>102.19999694824</ele>
        <time>2016-07-11T19:50:38.000Z</time>
      </trkpt>
      <trkpt lat="48.8688" lon="2.411">
        <ele>103</ele>
        <time>2016-07-11T19:50:46.000Z</time>
      </trkpt>
      <trkpt lat="48.869" lon="2.41092">
        <ele>105.80000305176</ele>
        <time>2016-07-11T19:50:52.000Z</time>
      </trkpt>
      <trkpt lat="48.86919" lon="2.4109">
        <ele>108.19999694824</ele>
        <time>2016-07-11T19:50:58.000Z</time>
      </trkpt>
      <trkpt lat="48.86941" lon="2.41088">
        <ele>110.59999847412</ele>
        <time>2016-07-11T19:51:04.000Z</time>
      </trkpt>
      <trkpt lat="48.86962" lon="2.41081">
        <ele>112.19999694824</ele>
        <time>2016-07-11T19:51:08.000Z</time>
      </trkpt>
      <trkpt lat="48.86983" lon="2.41081">
        <ele>113.19999694824</ele>
        <time>2016-07-11T19:51:12.000Z</time>
      </trkpt>
      <trkpt lat="48.87003" lon="2.41081">
        <ele>114</ele>
        <time>2016-07-11T19:51:16.000Z</time>
      </trkpt>
      <trkpt lat="48.87025" lon="2.41076">
        <ele>115.19999694824</ele>
        <time>2016-07-11T19:51:21.000Z</time>
      </trkpt>
      <trkpt lat="48.87043" lon="2.41077">
        <ele>115.59999847412</ele>
        <time>2016-07-11T19:51:26.000Z</time>
      </trkpt>
      <trkpt lat="48.87054" lon="2.41071">
        <ele>116</ele>
        <time>2016-07-11T19:51:30.000Z</time>
      </trkpt>
      <trkpt lat="48.87063" lon="2.41064">
        <ele>116.40000152588</ele>
        <time>2016-07-11T19:51:35.000Z</time>
      </trkpt>
      <trkpt lat="48.87079" lon="2.41052">
        <ele>117</ele>
        <time>2016-07-11T19:51:44.000Z</time>
      </trkpt>
      <trkpt lat="48.87092" lon="2.41062">
        <ele>117</ele>
        <time>2016-07-11T19:51:53.000Z</time>
      </trkpt>
      <trkpt lat="48.87096" lon="2.41075">
        <ele>117</ele>
        <time>2016-07-11T19:52:05.000Z</time>
      </trkpt>
      <trkpt lat="48.87109" lon="2.41077">
        <ele>117.40000152588</ele>
        <time>2016-07-11T19:52:28.000Z</time>
      </trkpt>
      <trkpt lat="48.87106" lon="2.41086">
        <ele>117</ele>
        <time>2016-07-11T19:52:44.000Z</time>
      </trkpt>
      <trkpt lat="48.87105" lon="2.41095">
        <ele>117</ele>
        <time>2016-07-11T19:52:50.000Z</time>
      </trkpt>
      <trkpt lat="48.87121" lon="2.4109">
        <ele>118.40000152588</ele>
        <time>2016-07-11T19:53:34.000Z</time>
      </trkpt>
      <trkpt lat="48.87141" lon="2.4108">
        <ele>121.19999694824</ele>
        <time>2016-07-11T19:53:39.000Z</time>
      </trkpt>
      <trkpt lat="48.8716" lon="2.41076">
        <ele>123.59999847412</ele>
        <time>2016-07-11T19:53:45.000Z</time>
      </trkpt>
      <trkpt lat="48.87178" lon="2.41069">
        <ele>125.59999847412</ele>
        <time>2016-07-11T19:53:51.000Z</time>
      </trkpt>
      <trkpt lat="48.87197" lon="2.41071">
        <ele>125.80000305176</ele>
        <time>2016-07-11T19:53:56.000Z</time>
      </trkpt>
      <trkpt lat="48.87217" lon="2.41069">
        <ele>125.19999694824</ele>
        <time>2016-07-11T19:54:02.000Z</time>
      </trkpt>
      <trkpt lat="48.87235" lon="2.41062">
        <ele>124.19999694824</ele>
        <time>2016-07-11T19:54:07.000Z</time>
      </trkpt>
      <trkpt lat="48.87253" lon="2.41059">
        <ele>124</ele>
        <time>2016-07-11T19:54:12.000Z</time>
      </trkpt>
      <trkpt lat="48.87275" lon="2.41054">
        <ele>125.59999847412</ele>
        <time>2016-07-11T19:54:16.000Z</time>
      </trkpt>
      <trkpt lat="48.87294" lon="2.41049">
        <ele>124.59999847412</ele>
        <time>2016-07-11T19:54:21.000Z</time>
      </trkpt>
      <trkpt lat="48.87311" lon="2.4104">
        <ele>123.80000305176</ele>
        <time>2016-07-11T19:54:28.000Z</time>
      </trkpt>
      <trkpt lat="48.87319" lon="2.4104">
        <ele>123.40000152588</ele>
        <time>2016-07-11T19:54:31.000Z</time>
      </trkpt>
      <trkpt lat="48.87331" lon="2.4104">
        <ele>123</ele>
        <time>2016-07-11T19:54:37.000Z</time>
      </trkpt>
      <trkpt lat="48.87336" lon="2.41038">
        <ele>122.80000305176</ele>
        <time>2016-07-11T19:54:41.000Z</time>
      </trkpt>
      <trkpt lat="48.87325" lon="2.41014">
        <ele>124.40000152588</ele>
        <time>2016-07-11T19:54:54.000Z</time>
      </trkpt>
      <trkpt lat="48.87317" lon="2.40986">
        <ele>125.40000152588</ele>
        <time>2016-07-11T19:55:00.000Z</time>
      </trkpt>
      <trkpt lat="48.8731" lon="2.40961">
        <ele>125.59999847412</ele>
        <time>2016-07-11T19:55:06.000Z</time>
      </trkpt>
      <trkpt lat="48.873" lon="2.40933">
        <ele>125.59999847412</ele>
        <time>2016-07-11T19:55:13.000Z</time>
      </trkpt>
      <trkpt lat="48.87289" lon="2.40908">
        <ele>125.19999694824</ele>
        <time>2016-07-11T19:55:20.000Z</time>
      </trkpt>
      <trkpt lat="48.8729" lon="2.40903">
        <ele>124.80000305176</ele>
        <time>2016-07-11T19:55:21.000Z</time>
      </trkpt>
      <trkpt lat="48.87295" lon="2.40891">
        <ele>123.59999847412</ele>
        <time>2016-07-11T19:55:27.000Z</time>
      </trkpt>
      <trkpt lat="48.87295" lon="2.40889">
        <ele>123.59999847412</ele>
        <time>2016-07-11T19:55:29.000Z</time>
      </trkpt>
      <trkpt lat="48.87305" lon="2.40865">
        <ele>121.19999694824</ele>
        <time>2016-07-11T19:55:54.000Z</time>
      </trkpt>
      <trkpt lat="48.87323" lon="2.40857">
        <ele>121.19999694824</ele>
        <time>2016-07-11T19:56:00.000Z</time>
      </trkpt>
      <trkpt lat="48.87341" lon="2.40851">
        <ele>121.59999847412</ele>
        <time>2016-07-11T19:56:05.000Z</time>
      </trkpt>
      <trkpt lat="48.8736" lon="2.40848">
        <ele>121.80000305176</ele>
        <time>2016-07-11T19:56:10.000Z</time>
      </trkpt>
      <trkpt lat="48.87381" lon="2.40842">
        <ele>121.19999694824</ele>
        <time>2016-07-11T19:56:15.000Z</time>
      </trkpt>
      <trkpt lat="48.87403" lon="2.40837">
        <ele>120.40000152588</ele>
        <time>2016-07-11T19:56:20.000Z</time>
      </trkpt>
      <trkpt lat="48.87423" lon="2.4083">
        <ele>119.59999847412</ele>
        <time>2016-07-11T19:56:24.000Z</time>
      </trkpt>
      <trkpt lat="48.87443" lon="2.40823">
        <ele>119.19999694824</ele>
        <time>2016-07-11T19:56:28.000Z</time>
      </trkpt>
      <trkpt lat="48.87464" lon="2.40813">
        <ele>120</ele>
        <time>2016-07-11T19:56:32.000Z</time>
      </trkpt>
      <trkpt lat="48.87485" lon="2.40802">
        <ele>120.80000305176</ele>
        <time>2016-07-11T19:56:36.000Z</time>
      </trkpt>
      <trkpt lat="48.87506" lon="2.40791">
        <ele>121.59999847412</ele>
        <time>2016-07-11T19:56:40.000Z</time>
      </trkpt>
      <trkpt lat="48.87527" lon="2.4078">
        <ele>122.19999694824</ele>
        <time>2016-07-11T19:56:44.000Z</time>
      </trkpt>
      <trkpt lat="48.87541" lon="2.40772">
        <ele>122.40000152588</ele>
        <time>2016-07-11T19:56:47.000Z</time>
      </trkpt>
      <trkpt lat="48.87562" lon="2.40761">
        <ele>123</ele>
        <time>2016-07-11T19:56:51.000Z</time>
      </trkpt>
      <trkpt lat="48.8758" lon="2.40754">
        <ele>123.40000152588</ele>
        <time>2016-07-11T19:56:54.000Z</time>
      </trkpt>
      <trkpt lat="48.87597" lon="2.40745">
        <ele>123.80000305176</ele>
        <time>2016-07-11T19:56:57.000Z</time>
      </trkpt>
      <trkpt lat="48.87618" lon="2.40731">
        <ele>123</ele>
        <time>2016-07-11T19:57:01.000Z</time>
      </trkpt>
      <trkpt lat="48.87634" lon="2.4072">
        <ele>122</ele>
        <time>2016-07-11T19:57:04.000Z</time>
      </trkpt>
      <trkpt lat="48.87652" lon="2.40712">
        <ele>121</ele>
        <time>2016-07-11T19:57:07.000Z</time>
      </trkpt>
      <trkpt lat="48.8767" lon="2.40703">
        <ele>120.19999694824</ele>
        <time>2016-07-11T19:57:10.000Z</time>
      </trkpt>
      <trkpt lat="48.87688" lon="2.40695">
        <ele>119.40000152588</ele>
        <time>2016-07-11T19:57:14.000Z</time>
      </trkpt>
      <trkpt lat="48.87691" lon="2.40692">
        <ele>119.19999694824</ele>
        <time>2016-07-11T19:57:15.000Z</time>
      </trkpt>
      <trkpt lat="48.87699" lon="2.40685">
        <ele>118.59999847412</ele>
        <time>2016-07-11T19:57:21.000Z</time>
      </trkpt>
      <trkpt lat="48.87703" lon="2.4069">
        <ele>118.40000152588</ele>
        <time>2016-07-11T19:57:57.000Z</time>
      </trkpt>
      <trkpt lat="48.87721" lon="2.40684">
        <ele>117.19999694824</ele>
        <time>2016-07-11T19:58:04.000Z</time>
      </trkpt>
      <trkpt lat="48.87741" lon="2.4067">
        <ele>116.40000152588</ele>
        <time>2016-07-11T19:58:09.000Z</time>
      </trkpt>
      <trkpt lat="48.8776" lon="2.40651">
        <ele>115.40000152588</ele>
        <time>2016-07-11T19:58:13.000Z</time>
      </trkpt>
      <trkpt lat="48.87769" lon="2.40639">
        <ele>114.80000305176</ele>
        <time>2016-07-11T19:58:15.000Z</time>
      </trkpt>
      <trkpt lat="48.87782" lon="2.40614">
        <ele>114.40000152588</ele>
        <time>2016-07-11T19:58:18.000Z</time>
      </trkpt>
      <trkpt lat="48.87793" lon="2.40587">
        <ele>113.59999847412</ele>
        <time>2016-07-11T19:58:21.000Z</time>
      </trkpt>
      <trkpt lat="48.87801" lon="2.40559">
        <ele>112.80000305176</ele>
        <time>2016-07-11T19:58:24.000Z</time>
      </trkpt>
      <trkpt lat="48.87809" lon="2.4053">
        <ele>112</ele>
        <time>2016-07-11T19:58:27.000Z</time>
      </trkpt>
      <trkpt lat="48.87817" lon="2.40498">
        <ele>110.40000152588</ele>
        <time>2016-07-11T19:58:30.000Z</time>
      </trkpt>
      <trkpt lat="48.87825" lon="2.40466">
        <ele>111.40000152588</ele>
        <time>2016-07-11T19:58:33.000Z</time>
      </trkpt>
      <trkpt lat="48.87829" lon="2.40432">
        <ele>111</ele>
        <time>2016-07-11T19:58:36.000Z</time>
      </trkpt>
      <trkpt lat="48.87832" lon="2.40402">
        <ele>110.59999847412</ele>
        <time>2016-07-11T19:58:39.000Z</time>
      </trkpt>
      <trkpt lat="48.87837" lon="2.40369">
        <ele>110</ele>
        <time>2016-07-11T19:58:43.000Z</time>
      </trkpt>
      <trkpt lat="48.8784" lon="2.40355">
        <ele>109.80000305176</ele>
        <time>2016-07-11T19:58:45.000Z</time>
      </trkpt>
      <trkpt lat="48.87845" lon="2.4033">
        <ele>109.19999694824</ele>
        <time>2016-07-11T19:58:49.000Z</time>
      </trkpt>
      <trkpt lat="48.8785" lon="2.40301">
        <ele>107.59999847412</ele>
        <time>2016-07-11T19:58:55.000Z</time>
      </trkpt>
      <trkpt lat="48.87858" lon="2.40286">
        <ele>106.40000152588</ele>
        <time>2016-07-11T19:59:01.000Z</time>
      </trkpt>
      <trkpt lat="48.8786" lon="2.40276">
        <ele>106</ele>
        <time>2016-07-11T19:59:03.000Z</time>
      </trkpt>
      <trkpt lat="48.87868" lon="2.40247">
        <ele>104.59999847412</ele>
        <time>2016-07-11T19:59:08.000Z</time>
      </trkpt>
      <trkpt lat="48.87872" lon="2.40218">
        <ele>104.40000152588</ele>
        <time>2016-07-11T19:59:12.000Z</time>
      </trkpt>
      <trkpt lat="48.87878" lon="2.40208">
        <ele>104.19999694824</ele>
        <time>2016-07-11T19:59:14.000Z</time>
      </trkpt>
      <trkpt lat="48.87892" lon="2.40187">
        <ele>103.19999694824</ele>
        <time>2016-07-11T19:59:19.000Z</time>
      </trkpt>
      <trkpt lat="48.87895" lon="2.40181">
        <ele>102.80000305176</ele>
        <time>2016-07-11T19:59:20.000Z</time>
      </trkpt>
      <trkpt lat="48.87905" lon="2.40154">
        <ele>101.80000305176</ele>
        <time>2016-07-11T19:59:25.000Z</time>
      </trkpt>
      <trkpt lat="48.87914" lon="2.40133">
        <ele>101.59999847412</ele>
        <time>2016-07-11T19:59:29.000Z</time>
      </trkpt>
      <trkpt lat="48.87933" lon="2.40115">
        <ele>100.59999847412</ele>
        <time>2016-07-11T19:59:34.000Z</time>
      </trkpt>
      <trkpt lat="48.87951" lon="2.40099">
        <ele>100</ele>
        <time>2016-07-11T19:59:38.000Z</time>
      </trkpt>
      <trkpt lat="48.87972" lon="2.40081">
        <ele>100</ele>
        <time>2016-07-11T19:59:42.000Z</time>
      </trkpt>
      <trkpt lat="48.87983" lon="2.40073">
        <ele>100.19999694824</ele>
        <time>2016-07-11T19:59:44.000Z</time>
      </trkpt>
      <trkpt lat="48.88" lon="2.4006">
        <ele>100.59999847412</ele>
        <time>2016-07-11T19:59:47.000Z</time>
      </trkpt>
      <trkpt lat="48.88022" lon="2.40045">
        <ele>100.40000152588</ele>
        <time>2016-07-11T19:59:51.000Z</time>
      </trkpt>
      <trkpt lat="48.88038" lon="2.40031">
        <ele>99.800003051758</ele>
        <time>2016-07-11T19:59:54.000Z</time>
      </trkpt>
      <trkpt lat="48.88058" lon="2.40014">
        <ele>98.800003051758</ele>
        <time>2016-07-11T19:59:58.000Z</time>
      </trkpt>
      <trkpt lat="48.88064" lon="2.4001">
        <ele>98.599998474121</ele>
        <time>2016-07-11T19:59:59.000Z</time>
      </trkpt>
      <trkpt lat="48.88075" lon="2.40004">
        <ele>97.800003051758</ele>
        <time>2016-07-11T20:00:01.000Z</time>
      </trkpt>
      <trkpt lat="48.88091" lon="2.39999">
        <ele>96.599998474121</ele>
        <time>2016-07-11T20:00:04.000Z</time>
      </trkpt>
      <trkpt lat="48.88109" lon="2.40002">
        <ele>94.800003051758</ele>
        <time>2016-07-11T20:00:07.000Z</time>
      </trkpt>
      <trkpt lat="48.88127" lon="2.40016">
        <ele>93.400001525879</ele>
        <time>2016-07-11T20:00:10.000Z</time>
      </trkpt>
      <trkpt lat="48.88146" lon="2.40034">
        <ele>91.800003051758</ele>
        <time>2016-07-11T20:00:13.000Z</time>
      </trkpt>
      <trkpt lat="48.8816" lon="2.40046">
        <ele>90.800003051758</ele>
        <time>2016-07-11T20:00:15.000Z</time>
      </trkpt>
      <trkpt lat="48.88183" lon="2.40058">
        <ele>89.199996948242</ele>
        <time>2016-07-11T20:00:18.000Z</time>
      </trkpt>
      <trkpt lat="48.88205" lon="2.40058">
        <ele>87.800003051758</ele>
        <time>2016-07-11T20:00:21.000Z</time>
      </trkpt>
      <trkpt lat="48.8822" lon="2.40051">
        <ele>87</ele>
        <time>2016-07-11T20:00:23.000Z</time>
      </trkpt>
      <trkpt lat="48.88226" lon="2.40047">
        <ele>86.599998474121</ele>
        <time>2016-07-11T20:00:24.000Z</time>
      </trkpt>
      <trkpt lat="48.88242" lon="2.40032">
        <ele>85.400001525879</ele>
        <time>2016-07-11T20:00:27.000Z</time>
      </trkpt>
      <trkpt lat="48.88246" lon="2.40026">
        <ele>85</ele>
        <time>2016-07-11T20:00:28.000Z</time>
      </trkpt>
      <trkpt lat="48.88253" lon="2.40014">
        <ele>84.199996948242</ele>
        <time>2016-07-11T20:00:30.000Z</time>
      </trkpt>
      <trkpt lat="48.88266" lon="2.39984">
        <ele>83.599998474121</ele>
        <time>2016-07-11T20:00:34.000Z</time>
      </trkpt>
      <trkpt lat="48.88273" lon="2.39951">
        <ele>84.800003051758</ele>
        <time>2016-07-11T20:00:38.000Z</time>
      </trkpt>
      <trkpt lat="48.88276" lon="2.39924">
        <ele>86.199996948242</ele>
        <time>2016-07-11T20:00:41.000Z</time>
      </trkpt>
      <trkpt lat="48.88279" lon="2.39897">
        <ele>88.199996948242</ele>
        <time>2016-07-11T20:00:44.000Z</time>
      </trkpt>
      <trkpt lat="48.88279" lon="2.39887">
        <ele>89</ele>
        <time>2016-07-11T20:00:45.000Z</time>
      </trkpt>
      <trkpt lat="48.88281" lon="2.39852">
        <ele>91.800003051758</ele>
        <time>2016-07-11T20:00:49.000Z</time>
      </trkpt>
      <trkpt lat="48.88284" lon="2.39825">
        <ele>92.400001525879</ele>
        <time>2016-07-11T20:00:52.000Z</time>
      </trkpt>
      <trkpt lat="48.88288" lon="2.39807">
        <ele>92.199996948242</ele>
        <time>2016-07-11T20:00:54.000Z</time>
      </trkpt>
      <trkpt lat="48.88297" lon="2.39776">
        <ele>91.599998474121</ele>
        <time>2016-07-11T20:00:58.000Z</time>
      </trkpt>
      <trkpt lat="48.88307" lon="2.39751">
        <ele>89.800003051758</ele>
        <time>2016-07-11T20:01:02.000Z</time>
      </trkpt>
      <trkpt lat="48.88314" lon="2.3974">
        <ele>88.599998474121</ele>
        <time>2016-07-11T20:01:04.000Z</time>
      </trkpt>
      <trkpt lat="48.88327" lon="2.39722">
        <ele>86</ele>
        <time>2016-07-11T20:01:08.000Z</time>
      </trkpt>
      <trkpt lat="48.88336" lon="2.39716">
        <ele>84.599998474121</ele>
        <time>2016-07-11T20:01:11.000Z</time>
      </trkpt>
      <trkpt lat="48.88353" lon="2.39701">
        <ele>82.599998474121</ele>
        <time>2016-07-11T20:01:17.000Z</time>
      </trkpt>
      <trkpt lat="48.88357" lon="2.397">
        <ele>82.199996948242</ele>
        <time>2016-07-11T20:01:18.000Z</time>
      </trkpt>
      <trkpt lat="48.88369" lon="2.39698">
        <ele>81.199996948242</ele>
        <time>2016-07-11T20:01:21.000Z</time>
      </trkpt>
      <trkpt lat="48.8839" lon="2.3969">
        <ele>79.199996948242</ele>
        <time>2016-07-11T20:01:25.000Z</time>
      </trkpt>
      <trkpt lat="48.88408" lon="2.3968">
        <ele>77</ele>
        <time>2016-07-11T20:01:28.000Z</time>
      </trkpt>
      <trkpt lat="48.88428" lon="2.39668">
        <ele>74.599998474121</ele>
        <time>2016-07-11T20:01:31.000Z</time>
      </trkpt>
      <trkpt lat="48.88448" lon="2.39662">
        <ele>73</ele>
        <time>2016-07-11T20:01:34.000Z</time>
      </trkpt>
      <trkpt lat="48.88469" lon="2.39655">
        <ele>73.400001525879</ele>
        <time>2016-07-11T20:01:37.000Z</time>
      </trkpt>
      <trkpt lat="48.88495" lon="2.39652">
        <ele>73.599998474121</ele>
        <time>2016-07-11T20:01:40.000Z</time>
      </trkpt>
      <trkpt lat="48.88516" lon="2.39649">
        <ele>73.800003051758</ele>
        <time>2016-07-11T20:01:43.000Z</time>
      </trkpt>
      <trkpt lat="48.88535" lon="2.39648">
        <ele>72.199996948242</ele>
        <time>2016-07-11T20:01:46.000Z</time>
      </trkpt>
      <trkpt lat="48.88554" lon="2.39646">
        <ele>69.800003051758</ele>
        <time>2016-07-11T20:01:49.000Z</time>
      </trkpt>
      <trkpt lat="48.88574" lon="2.39646">
        <ele>67.400001525879</ele>
        <time>2016-07-11T20:01:53.000Z</time>
      </trkpt>
      <trkpt lat="48.88584" lon="2.39647">
        <ele>66.199996948242</ele>
        <time>2016-07-11T20:01:55.000Z</time>
      </trkpt>
      <trkpt lat="48.88596" lon="2.39651">
        <ele>65</ele>
        <time>2016-07-11T20:01:58.000Z</time>
      </trkpt>
      <trkpt lat="48.88604" lon="2.39652">
        <ele>64.199996948242</ele>
        <time>2016-07-11T20:02:00.000Z</time>
      </trkpt>
      <trkpt lat="48.88618" lon="2.39637">
        <ele>64.199996948242</ele>
        <time>2016-07-11T20:02:04.000Z</time>
      </trkpt>
      <trkpt lat="48.88621" lon="2.39632">
        <ele>64.199996948242</ele>
        <time>2016-07-11T20:02:06.000Z</time>
      </trkpt>
      <trkpt lat="48.88624" lon="2.39652">
        <ele>64.199996948242</ele>
        <time>2016-07-11T20:03:35.000Z</time>
      </trkpt>
      <trkpt lat="48.88639" lon="2.39656">
        <ele>64.400001525879</ele>
        <time>2016-07-11T20:03:56.000Z</time>
      </trkpt>
      <trkpt lat="48.88657" lon="2.39653">
        <ele>64.599998474121</ele>
        <time>2016-07-11T20:04:05.000Z</time>
      </trkpt>
      <trkpt lat="48.88657" lon="2.39652">
        <ele>64.599998474121</ele>
        <time>2016-07-11T20:04:06.000Z</time>
      </trkpt>
      <trkpt lat="48.88672" lon="2.39636">
        <ele>64.800003051758</ele>
        <time>2016-07-11T20:04:32.000Z</time>
      </trkpt>
      <trkpt lat="48.88689" lon="2.39624">
        <ele>65</ele>
        <time>2016-07-11T20:04:39.000Z</time>
      </trkpt>
      <trkpt lat="48.88707" lon="2.39615">
        <ele>64.599998474121</ele>
        <time>2016-07-11T20:04:45.000Z</time>
      </trkpt>
      <trkpt lat="48.88726" lon="2.39611">
        <ele>64</ele>
        <time>2016-07-11T20:04:51.000Z</time>
      </trkpt>
      <trkpt lat="48.88749" lon="2.3961">
        <ele>63.200000762939</ele>
        <time>2016-07-11T20:04:57.000Z</time>
      </trkpt>
      <trkpt lat="48.88768" lon="2.39607">
        <ele>62.400001525879</ele>
        <time>2016-07-11T20:05:02.000Z</time>
      </trkpt>
      <trkpt lat="48.88788" lon="2.396">
        <ele>61.400001525879</ele>
        <time>2016-07-11T20:05:07.000Z</time>
      </trkpt>
      <trkpt lat="48.88805" lon="2.39584">
        <ele>60.799999237061</ele>
        <time>2016-07-11T20:05:11.000Z</time>
      </trkpt>
      <trkpt lat="48.88821" lon="2.39576">
        <ele>60.200000762939</ele>
        <time>2016-07-11T20:05:19.000Z</time>
      </trkpt>
      <trkpt lat="48.88839" lon="2.39568">
        <ele>59.599998474121</ele>
        <time>2016-07-11T20:05:34.000Z</time>
      </trkpt>
      <trkpt lat="48.8886" lon="2.39558">
        <ele>59.400001525879</ele>
        <time>2016-07-11T20:05:41.000Z</time>
      </trkpt>
      <trkpt lat="48.88878" lon="2.39553">
        <ele>59</ele>
        <time>2016-07-11T20:05:47.000Z</time>
      </trkpt>
      <trkpt lat="48.88897" lon="2.39548">
        <ele>58.400001525879</ele>
        <time>2016-07-11T20:05:53.000Z</time>
      </trkpt>
      <trkpt lat="48.88916" lon="2.39545">
        <ele>57.400001525879</ele>
        <time>2016-07-11T20:06:01.000Z</time>
      </trkpt>
      <trkpt lat="48.8893" lon="2.39541">
        <ele>56.599998474121</ele>
        <time>2016-07-11T20:06:09.000Z</time>
      </trkpt>
      <trkpt lat="48.88948" lon="2.39534">
        <ele>56.400001525879</ele>
        <time>2016-07-11T20:06:36.000Z</time>
      </trkpt>
      <trkpt lat="48.88967" lon="2.39533">
        <ele>57</ele>
        <time>2016-07-11T20:06:50.000Z</time>
      </trkpt>
      <trkpt lat="48.88983" lon="2.39518">
        <ele>56.799999237061</ele>
        <time>2016-07-11T20:06:59.000Z</time>
      </trkpt>
      <trkpt lat="48.88999" lon="2.39505">
        <ele>56.200000762939</ele>
        <time>2016-07-11T20:07:05.000Z</time>
      </trkpt>
      <trkpt lat="48.89016" lon="2.39494">
        <ele>56</ele>
        <time>2016-07-11T20:07:09.000Z</time>
      </trkpt>
      <trkpt lat="48.89036" lon="2.39479">
        <ele>55.799999237061</ele>
        <time>2016-07-11T20:07:13.000Z</time>
      </trkpt>
      <trkpt lat="48.89051" lon="2.39463">
        <ele>55.799999237061</ele>
        <time>2016-07-11T20:07:16.000Z</time>
      </trkpt>
      <trkpt lat="48.89067" lon="2.39442">
        <ele>55.599998474121</ele>
        <time>2016-07-11T20:07:20.000Z</time>
      </trkpt>
      <trkpt lat="48.89082" lon="2.39423">
        <ele>55</ele>
        <time>2016-07-11T20:07:25.000Z</time>
      </trkpt>
      <trkpt lat="48.89088" lon="2.39417">
        <ele>54.799999237061</ele>
        <time>2016-07-11T20:07:27.000Z</time>
      </trkpt>
      <trkpt lat="48.89093" lon="2.39411">
        <ele>54.799999237061</ele>
        <time>2016-07-11T20:07:29.000Z</time>
      </trkpt>
      <trkpt lat="48.89106" lon="2.3939">
        <ele>55.200000762939</ele>
        <time>2016-07-11T20:07:37.000Z</time>
      </trkpt>
      <trkpt lat="48.89133" lon="2.39355">
        <ele>56.599998474121</ele>
        <time>2016-07-11T20:07:49.000Z</time>
      </trkpt>
      <trkpt lat="48.89148" lon="2.39329">
        <ele>55.599998474121</ele>
        <time>2016-07-11T20:08:00.000Z</time>
      </trkpt>
      <trkpt lat="48.89164" lon="2.3932">
        <ele>55.400001525879</ele>
        <time>2016-07-11T20:08:07.000Z</time>
      </trkpt>
      <trkpt lat="48.89185" lon="2.39327">
        <ele>55</ele>
        <time>2016-07-11T20:08:12.000Z</time>
      </trkpt>
      <trkpt lat="48.89191" lon="2.39333">
        <ele>55</ele>
        <time>2016-07-11T20:08:14.000Z</time>
      </trkpt>
      <trkpt lat="48.89193" lon="2.39336">
        <ele>55.200000762939</ele>
        <time>2016-07-11T20:08:16.000Z</time>
      </trkpt>
      <trkpt lat="48.89206" lon="2.39333">
        <ele>55</ele>
        <time>2016-07-11T20:08:26.000Z</time>
      </trkpt>
      <trkpt lat="48.89218" lon="2.39324">
        <ele>55.200000762939</ele>
        <time>2016-07-11T20:08:39.000Z</time>
      </trkpt>
      <trkpt lat="48.89225" lon="2.39318">
        <ele>55.400001525879</ele>
        <time>2016-07-11T20:08:46.000Z</time>
      </trkpt>
      <trkpt lat="48.89231" lon="2.39308">
        <ele>55.599998474121</ele>
        <time>2016-07-11T20:08:53.000Z</time>
      </trkpt>
      <trkpt lat="48.89238" lon="2.39303">
        <ele>55.599998474121</ele>
        <time>2016-07-11T20:09:25.000Z</time>
      </trkpt>
      <trkpt lat="48.89242" lon="2.39303">
        <ele>55.599998474121</ele>
        <time>2016-07-11T20:09:29.000Z</time>
      </trkpt>
      <trkpt lat="48.89261" lon="2.39302">
        <ele>54.799999237061</ele>
        <time>2016-07-11T20:09:42.000Z</time>
      </trkpt>
      <trkpt lat="48.89281" lon="2.39305">
        <ele>54.200000762939</ele>
        <time>2016-07-11T20:09:49.000Z</time>
      </trkpt>
      <trkpt lat="48.89302" lon="2.39309">
        <ele>54.200000762939</ele>
        <time>2016-07-11T20:09:54.000Z</time>
      </trkpt>
      <trkpt lat="48.89319" lon="2.39303">
        <ele>53.799999237061</ele>
        <time>2016-07-11T20:10:01.000Z</time>
      </trkpt>
      <trkpt lat="48.89334" lon="2.39283">
        <ele>53.799999237061</ele>
        <time>2016-07-11T20:10:09.000Z</time>
      </trkpt>
      <trkpt lat="48.89351" lon="2.39275">
        <ele>54</ele>
        <time>2016-07-11T20:10:16.000Z</time>
      </trkpt>
      <trkpt lat="48.89372" lon="2.39273">
        <ele>54</ele>
        <time>2016-07-11T20:10:23.000Z</time>
      </trkpt>
      <trkpt lat="48.8939" lon="2.39261">
        <ele>53.400001525879</ele>
        <time>2016-07-11T20:10:30.000Z</time>
      </trkpt>
      <trkpt lat="48.89404" lon="2.39238">
        <ele>52.599998474121</ele>
        <time>2016-07-11T20:10:37.000Z</time>
      </trkpt>
      <trkpt lat="48.8942" lon="2.39224">
        <ele>52.200000762939</ele>
        <time>2016-07-11T20:10:43.000Z</time>
      </trkpt>
      <trkpt lat="48.89435" lon="2.39206">
        <ele>53.400001525879</ele>
        <time>2016-07-11T20:10:51.000Z</time>
      </trkpt>
      <trkpt lat="48.89439" lon="2.39204">
        <ele>53.599998474121</ele>
        <time>2016-07-11T20:10:56.000Z</time>
      </trkpt>
      <trkpt lat="48.89435" lon="2.3918">
        <ele>54.200000762939</ele>
        <time>2016-07-11T20:11:20.000Z</time>
      </trkpt>
      <trkpt lat="48.89426" lon="2.39154">
        <ele>54.599998474121</ele>
        <time>2016-07-11T20:11:28.000Z</time>
      </trkpt>
      <trkpt lat="48.89413" lon="2.3913">
        <ele>54.200000762939</ele>
        <time>2016-07-11T20:11:34.000Z</time>
      </trkpt>
      <trkpt lat="48.89401" lon="2.39105">
        <ele>53.799999237061</ele>
        <time>2016-07-11T20:11:40.000Z</time>
      </trkpt>
      <trkpt lat="48.89388" lon="2.3908">
        <ele>53.400001525879</ele>
        <time>2016-07-11T20:11:46.000Z</time>
      </trkpt>
      <trkpt lat="48.89377" lon="2.39055">
        <ele>53.599998474121</ele>
        <time>2016-07-11T20:11:52.000Z</time>
      </trkpt>
      <trkpt lat="48.89363" lon="2.39035">
        <ele>53.599998474121</ele>
        <time>2016-07-11T20:11:58.000Z</time>
      </trkpt>
      <trkpt lat="48.8935" lon="2.3901">
        <ele>53.599998474121</ele>
        <time>2016-07-11T20:12:04.000Z</time>
      </trkpt>
      <trkpt lat="48.89338" lon="2.38987">
        <ele>53.400001525879</ele>
        <time>2016-07-11T20:12:09.000Z</time>
      </trkpt>
      <trkpt lat="48.89326" lon="2.38963">
        <ele>53.200000762939</ele>
        <time>2016-07-11T20:12:14.000Z</time>
      </trkpt>
      <trkpt lat="48.89314" lon="2.38939">
        <ele>53</ele>
        <time>2016-07-11T20:12:19.000Z</time>
      </trkpt>
      <trkpt lat="48.89304" lon="2.38917">
        <ele>52.799999237061</ele>
        <time>2016-07-11T20:12:24.000Z</time>
      </trkpt>
      <trkpt lat="48.89293" lon="2.38892">
        <ele>52.799999237061</ele>
        <time>2016-07-11T20:12:29.000Z</time>
      </trkpt>
      <trkpt lat="48.89281" lon="2.38865">
        <ele>52.799999237061</ele>
        <time>2016-07-11T20:12:35.000Z</time>
      </trkpt>
      <trkpt lat="48.89267" lon="2.38841">
        <ele>52.799999237061</ele>
        <time>2016-07-11T20:12:40.000Z</time>
      </trkpt>
      <trkpt lat="48.89257" lon="2.38817">
        <ele>53.200000762939</ele>
        <time>2016-07-11T20:12:46.000Z</time>
      </trkpt>
      <trkpt lat="48.89248" lon="2.38791">
        <ele>53.599998474121</ele>
        <time>2016-07-11T20:12:51.000Z</time>
      </trkpt>
      <trkpt lat="48.89236" lon="2.38767">
        <ele>54</ele>
        <time>2016-07-11T20:12:57.000Z</time>
      </trkpt>
      <trkpt lat="48.89221" lon="2.38744">
        <ele>54.400001525879</ele>
        <time>2016-07-11T20:13:02.000Z</time>
      </trkpt>
      <trkpt lat="48.89209" lon="2.3872">
        <ele>54.200000762939</ele>
        <time>2016-07-11T20:13:08.000Z</time>
      </trkpt>
      <trkpt lat="48.89198" lon="2.38695">
        <ele>54</ele>
        <time>2016-07-11T20:13:16.000Z</time>
      </trkpt>
      <trkpt lat="48.89194" lon="2.38684">
        <ele>54</ele>
        <time>2016-07-11T20:13:20.000Z</time>
      </trkpt>
      <trkpt lat="48.89192" lon="2.3868">
        <ele>54</ele>
        <time>2016-07-11T20:13:22.000Z</time>
      </trkpt>
      <trkpt lat="48.89183" lon="2.38674">
        <ele>54.400001525879</ele>
        <time>2016-07-11T20:13:27.000Z</time>
      </trkpt>
      <trkpt lat="48.89177" lon="2.3867">
        <ele>55</ele>
        <time>2016-07-11T20:13:31.000Z</time>
      </trkpt>
      <trkpt lat="48.89175" lon="2.38667">
        <ele>55</ele>
        <time>2016-07-11T20:13:33.000Z</time>
      </trkpt>
      <trkpt lat="48.89173" lon="2.38664">
        <ele>55.200000762939</ele>
        <time>2016-07-11T20:13:35.000Z</time>
      </trkpt>
      <trkpt lat="48.89165" lon="2.38653">
        <ele>55.599998474121</ele>
        <time>2016-07-11T20:13:42.000Z</time>
      </trkpt>
      <trkpt lat="48.89165" lon="2.38651">
        <ele>55.599998474121</ele>
        <time>2016-07-11T20:13:43.000Z</time>
      </trkpt>
      <trkpt lat="48.89157" lon="2.38628">
        <ele>56</ele>
        <time>2016-07-11T20:14:22.000Z</time>
      </trkpt>
      <trkpt lat="48.89144" lon="2.38604">
        <ele>57.200000762939</ele>
        <time>2016-07-11T20:14:31.000Z</time>
      </trkpt>
      <trkpt lat="48.89134" lon="2.38581">
        <ele>58</ele>
        <time>2016-07-11T20:14:37.000Z</time>
      </trkpt>
      <trkpt lat="48.89124" lon="2.38557">
        <ele>57.599998474121</ele>
        <time>2016-07-11T20:14:43.000Z</time>
      </trkpt>
      <trkpt lat="48.8911" lon="2.38534">
        <ele>57.200000762939</ele>
        <time>2016-07-11T20:14:49.000Z</time>
      </trkpt>
      <trkpt lat="48.891" lon="2.3851">
        <ele>56.599998474121</ele>
        <time>2016-07-11T20:14:54.000Z</time>
      </trkpt>
      <trkpt lat="48.89085" lon="2.38492">
        <ele>56.400001525879</ele>
        <time>2016-07-11T20:14:58.000Z</time>
      </trkpt>
      <trkpt lat="48.89071" lon="2.38469">
        <ele>56.599998474121</ele>
        <time>2016-07-11T20:15:04.000Z</time>
      </trkpt>
      <trkpt lat="48.89057" lon="2.38445">
        <ele>56.599998474121</ele>
        <time>2016-07-11T20:15:09.000Z</time>
      </trkpt>
      <trkpt lat="48.89047" lon="2.38419">
        <ele>56.400001525879</ele>
        <time>2016-07-11T20:15:13.000Z</time>
      </trkpt>
      <trkpt lat="48.89034" lon="2.38391">
        <ele>57</ele>
        <time>2016-07-11T20:15:18.000Z</time>
      </trkpt>
      <trkpt lat="48.89019" lon="2.38366">
        <ele>57.799999237061</ele>
        <time>2016-07-11T20:15:23.000Z</time>
      </trkpt>
      <trkpt lat="48.89007" lon="2.3834">
        <ele>58.799999237061</ele>
        <time>2016-07-11T20:15:28.000Z</time>
      </trkpt>
      <trkpt lat="48.88993" lon="2.38316">
        <ele>59.599998474121</ele>
        <time>2016-07-11T20:15:33.000Z</time>
      </trkpt>
      <trkpt lat="48.8899" lon="2.38306">
        <ele>59.799999237061</ele>
        <time>2016-07-11T20:15:35.000Z</time>
      </trkpt>
      <trkpt lat="48.88978" lon="2.38281">
        <ele>60.200000762939</ele>
        <time>2016-07-11T20:15:40.000Z</time>
      </trkpt>
      <trkpt lat="48.88967" lon="2.38256">
        <ele>60.599998474121</ele>
        <time>2016-07-11T20:15:45.000Z</time>
      </trkpt>
      <trkpt lat="48.88964" lon="2.38246">
        <ele>60.799999237061</ele>
        <time>2016-07-11T20:15:47.000Z</time>
      </trkpt>
      <trkpt lat="48.88954" lon="2.38219">
        <ele>60.599998474121</ele>
        <time>2016-07-11T20:15:52.000Z</time>
      </trkpt>
      <trkpt lat="48.88941" lon="2.38193">
        <ele>60.599998474121</ele>
        <time>2016-07-11T20:15:57.000Z</time>
      </trkpt>
      <trkpt lat="48.88929" lon="2.38168">
        <ele>60.200000762939</ele>
        <time>2016-07-11T20:16:02.000Z</time>
      </trkpt>
      <trkpt lat="48.88928" lon="2.38162">
        <ele>60</ele>
        <time>2016-07-11T20:16:03.000Z</time>
      </trkpt>
      <trkpt lat="48.88919" lon="2.38138">
        <ele>59.400001525879</ele>
        <time>2016-07-11T20:16:08.000Z</time>
      </trkpt>
      <trkpt lat="48.88909" lon="2.38116">
        <ele>58.799999237061</ele>
        <time>2016-07-11T20:16:13.000Z</time>
      </trkpt>
      <trkpt lat="48.88896" lon="2.38097">
        <ele>58.400001525879</ele>
        <time>2016-07-11T20:16:16.000Z</time>
      </trkpt>
      <trkpt lat="48.88884" lon="2.38075">
        <ele>57.599998474121</ele>
        <time>2016-07-11T20:16:21.000Z</time>
      </trkpt>
      <trkpt lat="48.88873" lon="2.3805">
        <ele>56.599998474121</ele>
        <time>2016-07-11T20:16:26.000Z</time>
      </trkpt>
      <trkpt lat="48.88862" lon="2.38026">
        <ele>55.400001525879</ele>
        <time>2016-07-11T20:16:31.000Z</time>
      </trkpt>
      <trkpt lat="48.8885" lon="2.38002">
        <ele>54.599998474121</ele>
        <time>2016-07-11T20:16:37.000Z</time>
      </trkpt>
      <trkpt lat="48.88839" lon="2.37978">
        <ele>54.400001525879</ele>
        <time>2016-07-11T20:16:45.000Z</time>
      </trkpt>
      <trkpt lat="48.88835" lon="2.37972">
        <ele>54.400001525879</ele>
        <time>2016-07-11T20:16:49.000Z</time>
      </trkpt>
      <trkpt lat="48.88839" lon="2.37955">
        <ele>54.200000762939</ele>
        <time>2016-07-11T20:16:58.000Z</time>
      </trkpt>
      <trkpt lat="48.88853" lon="2.37938">
        <ele>53.400001525879</ele>
        <time>2016-07-11T20:17:08.000Z</time>
      </trkpt>
      <trkpt lat="48.88853" lon="2.37935">
        <ele>53.400001525879</ele>
        <time>2016-07-11T20:17:11.000Z</time>
      </trkpt>
      <trkpt lat="48.88865" lon="2.37911">
        <ele>53.599998474121</ele>
        <time>2016-07-11T20:17:26.000Z</time>
      </trkpt>
      <trkpt lat="48.88871" lon="2.37885">
        <ele>54.400001525879</ele>
        <time>2016-07-11T20:17:32.000Z</time>
      </trkpt>
      <trkpt lat="48.88861" lon="2.37862">
        <ele>54.400001525879</ele>
        <time>2016-07-11T20:17:38.000Z</time>
      </trkpt>
      <trkpt lat="48.88846" lon="2.37843">
        <ele>54.799999237061</ele>
        <time>2016-07-11T20:17:44.000Z</time>
      </trkpt>
      <trkpt lat="48.88833" lon="2.37819">
        <ele>55.200000762939</ele>
        <time>2016-07-11T20:17:49.000Z</time>
      </trkpt>
      <trkpt lat="48.88821" lon="2.3779">
        <ele>55.400001525879</ele>
        <time>2016-07-11T20:17:54.000Z</time>
      </trkpt>
      <trkpt lat="48.88811" lon="2.37766">
        <ele>55.400001525879</ele>
        <time>2016-07-11T20:17:58.000Z</time>
      </trkpt>
      <trkpt lat="48.888" lon="2.37742">
        <ele>55.599998474121</ele>
        <time>2016-07-11T20:18:02.000Z</time>
      </trkpt>
      <trkpt lat="48.88789" lon="2.37719">
        <ele>56.599998474121</ele>
        <time>2016-07-11T20:18:06.000Z</time>
      </trkpt>
      <trkpt lat="48.88778" lon="2.37692">
        <ele>57.799999237061</ele>
        <time>2016-07-11T20:18:11.000Z</time>
      </trkpt>
      <trkpt lat="48.88766" lon="2.37667">
        <ele>58.799999237061</ele>
        <time>2016-07-11T20:18:16.000Z</time>
      </trkpt>
      <trkpt lat="48.88755" lon="2.37645">
        <ele>58.799999237061</ele>
        <time>2016-07-11T20:18:20.000Z</time>
      </trkpt>
      <trkpt lat="48.88744" lon="2.37621">
        <ele>58.400001525879</ele>
        <time>2016-07-11T20:18:24.000Z</time>
      </trkpt>
      <trkpt lat="48.88733" lon="2.37599">
        <ele>58.200000762939</ele>
        <time>2016-07-11T20:18:28.000Z</time>
      </trkpt>
      <trkpt lat="48.88727" lon="2.37587">
        <ele>58</ele>
        <time>2016-07-11T20:18:30.000Z</time>
      </trkpt>
      <trkpt lat="48.88714" lon="2.37565">
        <ele>57.599998474121</ele>
        <time>2016-07-11T20:18:33.000Z</time>
      </trkpt>
      <trkpt lat="48.88701" lon="2.37537">
        <ele>57</ele>
        <time>2016-07-11T20:18:37.000Z</time>
      </trkpt>
      <trkpt lat="48.88689" lon="2.37513">
        <ele>56.400001525879</ele>
        <time>2016-07-11T20:18:41.000Z</time>
      </trkpt>
      <trkpt lat="48.88678" lon="2.37486">
        <ele>55.599998474121</ele>
        <time>2016-07-11T20:18:46.000Z</time>
      </trkpt>
      <trkpt lat="48.88667" lon="2.37462">
        <ele>55</ele>
        <time>2016-07-11T20:18:50.000Z</time>
      </trkpt>
      <trkpt lat="48.88656" lon="2.3744">
        <ele>54.400001525879</ele>
        <time>2016-07-11T20:18:54.000Z</time>
      </trkpt>
      <trkpt lat="48.8865" lon="2.37432">
        <ele>54.200000762939</ele>
        <time>2016-07-11T20:18:56.000Z</time>
      </trkpt>
      <trkpt lat="48.88639" lon="2.37409">
        <ele>54</ele>
        <time>2016-07-11T20:19:00.000Z</time>
      </trkpt>
      <trkpt lat="48.88626" lon="2.37384">
        <ele>55</ele>
        <time>2016-07-11T20:19:04.000Z</time>
      </trkpt>
      <trkpt lat="48.88613" lon="2.37358">
        <ele>55.799999237061</ele>
        <time>2016-07-11T20:19:08.000Z</time>
      </trkpt>
      <trkpt lat="48.88599" lon="2.37335">
        <ele>56.799999237061</ele>
        <time>2016-07-11T20:19:12.000Z</time>
      </trkpt>
      <trkpt lat="48.88586" lon="2.37309">
        <ele>57</ele>
        <time>2016-07-11T20:19:16.000Z</time>
      </trkpt>
      <trkpt lat="48.88584" lon="2.37302">
        <ele>57.200000762939</ele>
        <time>2016-07-11T20:19:17.000Z</time>
      </trkpt>
      <trkpt lat="48.88573" lon="2.37278">
        <ele>57.400001525879</ele>
        <time>2016-07-11T20:19:21.000Z</time>
      </trkpt>
      <trkpt lat="48.8856" lon="2.37254">
        <ele>57.799999237061</ele>
        <time>2016-07-11T20:19:25.000Z</time>
      </trkpt>
      <trkpt lat="48.88547" lon="2.37232">
        <ele>58.400001525879</ele>
        <time>2016-07-11T20:19:29.000Z</time>
      </trkpt>
      <trkpt lat="48.88533" lon="2.37209">
        <ele>59.200000762939</ele>
        <time>2016-07-11T20:19:33.000Z</time>
      </trkpt>
      <trkpt lat="48.88521" lon="2.37184">
        <ele>59.799999237061</ele>
        <time>2016-07-11T20:19:37.000Z</time>
      </trkpt>
      <trkpt lat="48.88507" lon="2.37161">
        <ele>59.599998474121</ele>
        <time>2016-07-11T20:19:41.000Z</time>
      </trkpt>
      <trkpt lat="48.88495" lon="2.37136">
        <ele>58.599998474121</ele>
        <time>2016-07-11T20:19:45.000Z</time>
      </trkpt>
      <trkpt lat="48.8848" lon="2.37112">
        <ele>57.200000762939</ele>
        <time>2016-07-11T20:19:49.000Z</time>
      </trkpt>
      <trkpt lat="48.88467" lon="2.37092">
        <ele>56</ele>
        <time>2016-07-11T20:19:52.000Z</time>
      </trkpt>
      <trkpt lat="48.88456" lon="2.37068">
        <ele>55.200000762939</ele>
        <time>2016-07-11T20:19:55.000Z</time>
      </trkpt>
      <trkpt lat="48.88444" lon="2.37042">
        <ele>54.799999237061</ele>
        <time>2016-07-11T20:19:59.000Z</time>
      </trkpt>
      <trkpt lat="48.88434" lon="2.37019">
        <ele>54.599998474121</ele>
        <time>2016-07-11T20:20:03.000Z</time>
      </trkpt>
      <trkpt lat="48.88429" lon="2.36991">
        <ele>54.799999237061</ele>
        <time>2016-07-11T20:20:07.000Z</time>
      </trkpt>
      <trkpt lat="48.8843" lon="2.36962">
        <ele>54.599998474121</ele>
        <time>2016-07-11T20:20:10.000Z</time>
      </trkpt>
      <trkpt lat="48.88428" lon="2.3695">
        <ele>54.599998474121</ele>
        <time>2016-07-11T20:20:13.000Z</time>
      </trkpt>
      <trkpt lat="48.88424" lon="2.36933">
        <ele>54.400001525879</ele>
        <time>2016-07-11T20:20:18.000Z</time>
      </trkpt>
      <trkpt lat="48.88423" lon="2.36931">
        <ele>54.400001525879</ele>
        <time>2016-07-11T20:20:19.000Z</time>
      </trkpt>
      <trkpt lat="48.8842" lon="2.36926">
        <ele>54.400001525879</ele>
        <time>2016-07-11T20:20:21.000Z</time>
      </trkpt>
      <trkpt lat="48.88407" lon="2.369">
        <ele>55.200000762939</ele>
        <time>2016-07-11T20:20:43.000Z</time>
      </trkpt>
      <trkpt lat="48.88408" lon="2.36884">
        <ele>56.200000762939</ele>
        <time>2016-07-11T20:21:21.000Z</time>
      </trkpt>
      <trkpt lat="48.88407" lon="2.36873">
        <ele>57</ele>
        <time>2016-07-11T20:21:26.000Z</time>
      </trkpt>
      <trkpt lat="48.88407" lon="2.36844">
        <ele>59</ele>
        <time>2016-07-11T20:21:35.000Z</time>
      </trkpt>
      <trkpt lat="48.88403" lon="2.36836">
        <ele>59.599998474121</ele>
        <time>2016-07-11T20:21:42.000Z</time>
      </trkpt>
      <trkpt lat="48.884" lon="2.36833">
        <ele>60</ele>
        <time>2016-07-11T20:21:45.000Z</time>
      </trkpt>
      <trkpt lat="48.88403" lon="2.36825">
        <ele>60</ele>
        <time>2016-07-11T20:21:49.000Z</time>
      </trkpt>
      <trkpt lat="48.88405" lon="2.36796">
        <ele>59.599998474121</ele>
        <time>2016-07-11T20:21:58.000Z</time>
      </trkpt>
      <trkpt lat="48.88406" lon="2.36789">
        <ele>59.599998474121</ele>
        <time>2016-07-11T20:22:00.000Z</time>
      </trkpt>
      <trkpt lat="48.88408" lon="2.36756">
        <ele>60.200000762939</ele>
        <time>2016-07-11T20:22:07.000Z</time>
      </trkpt>
      <trkpt lat="48.88407" lon="2.36728">
        <ele>60.200000762939</ele>
        <time>2016-07-11T20:22:13.000Z</time>
      </trkpt>
      <trkpt lat="48.88397" lon="2.36702">
        <ele>59.799999237061</ele>
        <time>2016-07-11T20:22:19.000Z</time>
      </trkpt>
      <trkpt lat="48.88382" lon="2.36681">
        <ele>59.400001525879</ele>
        <time>2016-07-11T20:22:24.000Z</time>
      </trkpt>
      <trkpt lat="48.88371" lon="2.36658">
        <ele>59.200000762939</ele>
        <time>2016-07-11T20:22:30.000Z</time>
      </trkpt>
      <trkpt lat="48.88361" lon="2.36634">
        <ele>60</ele>
        <time>2016-07-11T20:22:36.000Z</time>
      </trkpt>
      <trkpt lat="48.88349" lon="2.36614">
        <ele>60.400001525879</ele>
        <time>2016-07-11T20:22:42.000Z</time>
      </trkpt>
      <trkpt lat="48.88337" lon="2.36592">
        <ele>60.599998474121</ele>
        <time>2016-07-11T20:22:48.000Z</time>
      </trkpt>
      <trkpt lat="48.88325" lon="2.36572">
        <ele>60.599998474121</ele>
        <time>2016-07-11T20:22:55.000Z</time>
      </trkpt>
      <trkpt lat="48.88323" lon="2.36564">
        <ele>60.799999237061</ele>
        <time>2016-07-11T20:22:58.000Z</time>
      </trkpt>
      <trkpt lat="48.88328" lon="2.36545">
        <ele>61.400001525879</ele>
        <time>2016-07-11T20:23:20.000Z</time>
      </trkpt>
      <trkpt lat="48.88316" lon="2.36522">
        <ele>61.200000762939</ele>
        <time>2016-07-11T20:23:24.000Z</time>
      </trkpt>
      <trkpt lat="48.88301" lon="2.36498">
        <ele>61</ele>
        <time>2016-07-11T20:23:28.000Z</time>
      </trkpt>
      <trkpt lat="48.88287" lon="2.36474">
        <ele>60.400001525879</ele>
        <time>2016-07-11T20:23:32.000Z</time>
      </trkpt>
      <trkpt lat="48.88273" lon="2.36449">
        <ele>60</ele>
        <time>2016-07-11T20:23:37.000Z</time>
      </trkpt>
      <trkpt lat="48.88258" lon="2.36426">
        <ele>60</ele>
        <time>2016-07-11T20:23:42.000Z</time>
      </trkpt>
      <trkpt lat="48.88247" lon="2.36401">
        <ele>60.400001525879</ele>
        <time>2016-07-11T20:23:47.000Z</time>
      </trkpt>
      <trkpt lat="48.88236" lon="2.36377">
        <ele>60.799999237061</ele>
        <time>2016-07-11T20:23:52.000Z</time>
      </trkpt>
      <trkpt lat="48.8823" lon="2.36364">
        <ele>61.200000762939</ele>
        <time>2016-07-11T20:23:55.000Z</time>
      </trkpt>
      <trkpt lat="48.88226" lon="2.36356">
        <ele>61.599998474121</ele>
        <time>2016-07-11T20:23:57.000Z</time>
      </trkpt>
      <trkpt lat="48.88222" lon="2.36348">
        <ele>61.799999237061</ele>
        <time>2016-07-11T20:23:59.000Z</time>
      </trkpt>
      <trkpt lat="48.88219" lon="2.36341">
        <ele>62</ele>
        <time>2016-07-11T20:24:01.000Z</time>
      </trkpt>
      <trkpt lat="48.8821" lon="2.36317">
        <ele>61.799999237061</ele>
        <time>2016-07-11T20:24:08.000Z</time>
      </trkpt>
      <trkpt lat="48.88206" lon="2.36311">
        <ele>61.799999237061</ele>
        <time>2016-07-11T20:24:10.000Z</time>
      </trkpt>
      <trkpt lat="48.88191" lon="2.36294">
        <ele>61.200000762939</ele>
        <time>2016-07-11T20:24:16.000Z</time>
      </trkpt>
      <trkpt lat="48.88177" lon="2.36273">
        <ele>60.799999237061</ele>
        <time>2016-07-11T20:24:22.000Z</time>
      </trkpt>
      <trkpt lat="48.88165" lon="2.36252">
        <ele>60.400001525879</ele>
        <time>2016-07-11T20:24:27.000Z</time>
      </trkpt>
      <trkpt lat="48.88154" lon="2.36227">
        <ele>59.400001525879</ele>
        <time>2016-07-11T20:24:32.000Z</time>
      </trkpt>
      <trkpt lat="48.88143" lon="2.36199">
        <ele>58.200000762939</ele>
        <time>2016-07-11T20:24:37.000Z</time>
      </trkpt>
      <trkpt lat="48.88132" lon="2.36176">
        <ele>57</ele>
        <time>2016-07-11T20:24:41.000Z</time>
      </trkpt>
      <trkpt lat="48.88123" lon="2.36152">
        <ele>56.200000762939</ele>
        <time>2016-07-11T20:24:45.000Z</time>
      </trkpt>
      <trkpt lat="48.8811" lon="2.36124">
        <ele>56.400001525879</ele>
        <time>2016-07-11T20:24:50.000Z</time>
      </trkpt>
      <trkpt lat="48.881" lon="2.36102">
        <ele>55.799999237061</ele>
        <time>2016-07-11T20:24:54.000Z</time>
      </trkpt>
      <trkpt lat="48.88086" lon="2.36075">
        <ele>54.599998474121</ele>
        <time>2016-07-11T20:24:59.000Z</time>
      </trkpt>
      <trkpt lat="48.88078" lon="2.36058">
        <ele>54.200000762939</ele>
        <time>2016-07-11T20:25:02.000Z</time>
      </trkpt>
      <trkpt lat="48.88068" lon="2.36031">
        <ele>54.599998474121</ele>
        <time>2016-07-11T20:25:07.000Z</time>
      </trkpt>
      <trkpt lat="48.88065" lon="2.36026">
        <ele>54.799999237061</ele>
        <time>2016-07-11T20:25:08.000Z</time>
      </trkpt>
      <trkpt lat="48.88054" lon="2.36001">
        <ele>55.200000762939</ele>
        <time>2016-07-11T20:25:14.000Z</time>
      </trkpt>
      <trkpt lat="48.88045" lon="2.35976">
        <ele>56</ele>
        <time>2016-07-11T20:25:19.000Z</time>
      </trkpt>
      <trkpt lat="48.88033" lon="2.35951">
        <ele>56.200000762939</ele>
        <time>2016-07-11T20:25:24.000Z</time>
      </trkpt>
      <trkpt lat="48.88022" lon="2.35926">
        <ele>57</ele>
        <time>2016-07-11T20:25:29.000Z</time>
      </trkpt>
      <trkpt lat="48.88008" lon="2.359">
        <ele>59</ele>
        <time>2016-07-11T20:25:34.000Z</time>
      </trkpt>
      <trkpt lat="48.87994" lon="2.3588">
        <ele>60.200000762939</ele>
        <time>2016-07-11T20:25:38.000Z</time>
      </trkpt>
      <trkpt lat="48.87989" lon="2.3587">
        <ele>60.799999237061</ele>
        <time>2016-07-11T20:25:40.000Z</time>
      </trkpt>
      <trkpt lat="48.87982" lon="2.35864">
        <ele>61.400001525879</ele>
        <time>2016-07-11T20:25:46.000Z</time>
      </trkpt>
      <trkpt lat="48.87978" lon="2.35869">
        <ele>61.200000762939</ele>
        <time>2016-07-11T20:25:49.000Z</time>
      </trkpt>
      <trkpt lat="48.87983" lon="2.35892">
        <ele>59.200000762939</ele>
        <time>2016-07-11T20:26:04.000Z</time>
      </trkpt>
      <trkpt lat="48.87989" lon="2.35923">
        <ele>56.400001525879</ele>
        <time>2016-07-11T20:26:09.000Z</time>
      </trkpt>
      <trkpt lat="48.87995" lon="2.35951">
        <ele>54.200000762939</ele>
        <time>2016-07-11T20:26:13.000Z</time>
      </trkpt>
      <trkpt lat="48.88005" lon="2.35983">
        <ele>52</ele>
        <time>2016-07-11T20:26:17.000Z</time>
      </trkpt>
      <trkpt lat="48.88015" lon="2.36011">
        <ele>51</ele>
        <time>2016-07-11T20:26:20.000Z</time>
      </trkpt>
      <trkpt lat="48.88024" lon="2.36039">
        <ele>50.599998474121</ele>
        <time>2016-07-11T20:26:23.000Z</time>
      </trkpt>
      <trkpt lat="48.88032" lon="2.36066">
        <ele>50.799999237061</ele>
        <time>2016-07-11T20:26:26.000Z</time>
      </trkpt>
      <trkpt lat="48.88039" lon="2.36092">
        <ele>51.200000762939</ele>
        <time>2016-07-11T20:26:29.000Z</time>
      </trkpt>
      <trkpt lat="48.88048" lon="2.36124">
        <ele>52.799999237061</ele>
        <time>2016-07-11T20:26:33.000Z</time>
      </trkpt>
      <trkpt lat="48.88055" lon="2.36152">
        <ele>54</ele>
        <time>2016-07-11T20:26:37.000Z</time>
      </trkpt>
      <trkpt lat="48.88058" lon="2.36169">
        <ele>55</ele>
        <time>2016-07-11T20:26:40.000Z</time>
      </trkpt>
      <trkpt lat="48.88062" lon="2.36185">
        <ele>55.799999237061</ele>
        <time>2016-07-11T20:26:43.000Z</time>
      </trkpt>
      <trkpt lat="48.88065" lon="2.362">
        <ele>56.799999237061</ele>
        <time>2016-07-11T20:26:48.000Z</time>
      </trkpt>
      <trkpt lat="48.88074" lon="2.36226">
        <ele>58.599998474121</ele>
        <time>2016-07-11T20:26:54.000Z</time>
      </trkpt>
      <trkpt lat="48.88084" lon="2.36254">
        <ele>60.200000762939</ele>
        <time>2016-07-11T20:27:00.000Z</time>
      </trkpt>
      <trkpt lat="48.88093" lon="2.36281">
        <ele>60</ele>
        <time>2016-07-11T20:27:05.000Z</time>
      </trkpt>
      <trkpt lat="48.88102" lon="2.36309">
        <ele>60.200000762939</ele>
        <time>2016-07-11T20:27:10.000Z</time>
      </trkpt>
      <trkpt lat="48.88111" lon="2.36336">
        <ele>60</ele>
        <time>2016-07-11T20:27:15.000Z</time>
      </trkpt>
      <trkpt lat="48.8812" lon="2.36363">
        <ele>59.799999237061</ele>
        <time>2016-07-11T20:27:21.000Z</time>
      </trkpt>
      <trkpt lat="48.88129" lon="2.36391">
        <ele>59.599998474121</ele>
        <time>2016-07-11T20:27:27.000Z</time>
      </trkpt>
      <trkpt lat="48.88139" lon="2.36416">
        <ele>59.400001525879</ele>
        <time>2016-07-11T20:27:33.000Z</time>
      </trkpt>
      <trkpt lat="48.88137" lon="2.36444">
        <ele>59</ele>
        <time>2016-07-11T20:27:38.000Z</time>
      </trkpt>
      <trkpt lat="48.88126" lon="2.3647">
        <ele>59</ele>
        <time>2016-07-11T20:27:43.000Z</time>
      </trkpt>
      <trkpt lat="48.88117" lon="2.3649">
        <ele>59</ele>
        <time>2016-07-11T20:27:49.000Z</time>
      </trkpt>
      <trkpt lat="48.88118" lon="2.36495">
        <ele>59</ele>
        <time>2016-07-11T20:27:53.000Z</time>
      </trkpt>
      <trkpt lat="48.88101" lon="2.36485">
        <ele>58.799999237061</ele>
        <time>2016-07-11T20:28:04.000Z</time>
      </trkpt>
      <trkpt lat="48.88084" lon="2.36468">
        <ele>58</ele>
        <time>2016-07-11T20:28:10.000Z</time>
      </trkpt>
      <trkpt lat="48.88066" lon="2.36453">
        <ele>57</ele>
        <time>2016-07-11T20:28:15.000Z</time>
      </trkpt>
      <trkpt lat="48.8805" lon="2.36439">
        <ele>56.200000762939</ele>
        <time>2016-07-11T20:28:19.000Z</time>
      </trkpt>
      <trkpt lat="48.88035" lon="2.36422">
        <ele>55.599998474121</ele>
        <time>2016-07-11T20:28:23.000Z</time>
      </trkpt>
      <trkpt lat="48.88017" lon="2.36405">
        <ele>55.200000762939</ele>
        <time>2016-07-11T20:28:27.000Z</time>
      </trkpt>
      <trkpt lat="48.88002" lon="2.36388">
        <ele>55.799999237061</ele>
        <time>2016-07-11T20:28:31.000Z</time>
      </trkpt>
      <trkpt lat="48.87986" lon="2.3637">
        <ele>56.599998474121</ele>
        <time>2016-07-11T20:28:35.000Z</time>
      </trkpt>
      <trkpt lat="48.8797" lon="2.36351">
        <ele>57.200000762939</ele>
        <time>2016-07-11T20:28:39.000Z</time>
      </trkpt>
      <trkpt lat="48.87954" lon="2.36333">
        <ele>57.799999237061</ele>
        <time>2016-07-11T20:28:43.000Z</time>
      </trkpt>
      <trkpt lat="48.87937" lon="2.36313">
        <ele>57.799999237061</ele>
        <time>2016-07-11T20:28:47.000Z</time>
      </trkpt>
      <trkpt lat="48.87922" lon="2.36289">
        <ele>57</ele>
        <time>2016-07-11T20:28:51.000Z</time>
      </trkpt>
      <trkpt lat="48.87908" lon="2.3627">
        <ele>56</ele>
        <time>2016-07-11T20:28:55.000Z</time>
      </trkpt>
      <trkpt lat="48.87896" lon="2.36252">
        <ele>55.400001525879</ele>
        <time>2016-07-11T20:28:59.000Z</time>
      </trkpt>
      <trkpt lat="48.87887" lon="2.36238">
        <ele>54.200000762939</ele>
        <time>2016-07-11T20:29:03.000Z</time>
      </trkpt>
      <trkpt lat="48.87885" lon="2.36234">
        <ele>53.799999237061</ele>
        <time>2016-07-11T20:29:04.000Z</time>
      </trkpt>
      <trkpt lat="48.8787" lon="2.36214">
        <ele>51.799999237061</ele>
        <time>2016-07-11T20:29:09.000Z</time>
      </trkpt>
      <trkpt lat="48.87862" lon="2.36208">
        <ele>51</ele>
        <time>2016-07-11T20:29:11.000Z</time>
      </trkpt>
      <trkpt lat="48.87845" lon="2.36197">
        <ele>50.599998474121</ele>
        <time>2016-07-11T20:29:15.000Z</time>
      </trkpt>
      <trkpt lat="48.87826" lon="2.36185">
        <ele>50.599998474121</ele>
        <time>2016-07-11T20:29:19.000Z</time>
      </trkpt>
      <trkpt lat="48.87806" lon="2.36171">
        <ele>50.799999237061</ele>
        <time>2016-07-11T20:29:23.000Z</time>
      </trkpt>
      <trkpt lat="48.87796" lon="2.36163">
        <ele>50.799999237061</ele>
        <time>2016-07-11T20:29:25.000Z</time>
      </trkpt>
      <trkpt lat="48.87776" lon="2.36151">
        <ele>51.599998474121</ele>
        <time>2016-07-11T20:29:29.000Z</time>
      </trkpt>
      <trkpt lat="48.87766" lon="2.36144">
        <ele>52</ele>
        <time>2016-07-11T20:29:31.000Z</time>
      </trkpt>
      <trkpt lat="48.87747" lon="2.36129">
        <ele>52.799999237061</ele>
        <time>2016-07-11T20:29:35.000Z</time>
      </trkpt>
      <trkpt lat="48.87727" lon="2.36115">
        <ele>53.599998474121</ele>
        <time>2016-07-11T20:29:39.000Z</time>
      </trkpt>
      <trkpt lat="48.87709" lon="2.3611">
        <ele>54.799999237061</ele>
        <time>2016-07-11T20:29:42.000Z</time>
      </trkpt>
      <trkpt lat="48.87688" lon="2.36102">
        <ele>56</ele>
        <time>2016-07-11T20:29:46.000Z</time>
      </trkpt>
      <trkpt lat="48.87683" lon="2.36099">
        <ele>55.599998474121</ele>
        <time>2016-07-11T20:29:47.000Z</time>
      </trkpt>
      <trkpt lat="48.87662" lon="2.36087">
        <ele>54.400001525879</ele>
        <time>2016-07-11T20:29:51.000Z</time>
      </trkpt>
      <trkpt lat="48.8764" lon="2.36074">
        <ele>53.200000762939</ele>
        <time>2016-07-11T20:29:55.000Z</time>
      </trkpt>
      <trkpt lat="48.87618" lon="2.3606">
        <ele>52.400001525879</ele>
        <time>2016-07-11T20:29:59.000Z</time>
      </trkpt>
      <trkpt lat="48.87608" lon="2.36054">
        <ele>52</ele>
        <time>2016-07-11T20:30:01.000Z</time>
      </trkpt>
      <trkpt lat="48.87594" lon="2.36041">
        <ele>51</ele>
        <time>2016-07-11T20:30:04.000Z</time>
      </trkpt>
      <trkpt lat="48.87579" lon="2.36018">
        <ele>49.799999237061</ele>
        <time>2016-07-11T20:30:09.000Z</time>
      </trkpt>
      <trkpt lat="48.87566" lon="2.35997">
        <ele>48.599998474121</ele>
        <time>2016-07-11T20:30:13.000Z</time>
      </trkpt>
      <trkpt lat="48.87554" lon="2.35976">
        <ele>47.799999237061</ele>
        <time>2016-07-11T20:30:17.000Z</time>
      </trkpt>
      <trkpt lat="48.87541" lon="2.35953">
        <ele>47</ele>
        <time>2016-07-11T20:30:22.000Z</time>
      </trkpt>
      <trkpt lat="48.87539" lon="2.35948">
        <ele>47</ele>
        <time>2016-07-11T20:30:23.000Z</time>
      </trkpt>
      <trkpt lat="48.87534" lon="2.35937">
        <ele>46.599998474121</ele>
        <time>2016-07-11T20:30:25.000Z</time>
      </trkpt>
      <trkpt lat="48.87521" lon="2.35917">
        <ele>46</ele>
        <time>2016-07-11T20:30:29.000Z</time>
      </trkpt>
      <trkpt lat="48.8751" lon="2.35909">
        <ele>46.400001525879</ele>
        <time>2016-07-11T20:30:31.000Z</time>
      </trkpt>
      <trkpt lat="48.87491" lon="2.35896">
        <ele>47</ele>
        <time>2016-07-11T20:30:35.000Z</time>
      </trkpt>
      <trkpt lat="48.87471" lon="2.35878">
        <ele>48</ele>
        <time>2016-07-11T20:30:39.000Z</time>
      </trkpt>
      <trkpt lat="48.87453" lon="2.35866">
        <ele>48.599998474121</ele>
        <time>2016-07-11T20:30:42.000Z</time>
      </trkpt>
      <trkpt lat="48.87436" lon="2.35856">
        <ele>49</ele>
        <time>2016-07-11T20:30:45.000Z</time>
      </trkpt>
      <trkpt lat="48.87415" lon="2.35843">
        <ele>49</ele>
        <time>2016-07-11T20:30:49.000Z</time>
      </trkpt>
      <trkpt lat="48.87397" lon="2.35835">
        <ele>48.799999237061</ele>
        <time>2016-07-11T20:30:56.000Z</time>
      </trkpt>
      <trkpt lat="48.87396" lon="2.35836">
        <ele>48.799999237061</ele>
        <time>2016-07-11T20:30:58.000Z</time>
      </trkpt>
      <trkpt lat="48.87385" lon="2.35826">
        <ele>48.599998474121</ele>
        <time>2016-07-11T20:31:37.000Z</time>
      </trkpt>
      <trkpt lat="48.87367" lon="2.35822">
        <ele>48.200000762939</ele>
        <time>2016-07-11T20:31:45.000Z</time>
      </trkpt>
      <trkpt lat="48.87346" lon="2.35807">
        <ele>47.799999237061</ele>
        <time>2016-07-11T20:31:51.000Z</time>
      </trkpt>
      <trkpt lat="48.87325" lon="2.35797">
        <ele>48</ele>
        <time>2016-07-11T20:31:56.000Z</time>
      </trkpt>
      <trkpt lat="48.87303" lon="2.35789">
        <ele>47.400001525879</ele>
        <time>2016-07-11T20:32:01.000Z</time>
      </trkpt>
      <trkpt lat="48.87285" lon="2.35781">
        <ele>46.799999237061</ele>
        <time>2016-07-11T20:32:05.000Z</time>
      </trkpt>
      <trkpt lat="48.87267" lon="2.35773">
        <ele>46.599998474121</ele>
        <time>2016-07-11T20:32:09.000Z</time>
      </trkpt>
      <trkpt lat="48.87246" lon="2.35761">
        <ele>47.799999237061</ele>
        <time>2016-07-11T20:32:14.000Z</time>
      </trkpt>
      <trkpt lat="48.87228" lon="2.3575">
        <ele>49</ele>
        <time>2016-07-11T20:32:18.000Z</time>
      </trkpt>
      <trkpt lat="48.87209" lon="2.35736">
        <ele>49.200000762939</ele>
        <time>2016-07-11T20:32:22.000Z</time>
      </trkpt>
      <trkpt lat="48.872" lon="2.35728">
        <ele>49.200000762939</ele>
        <time>2016-07-11T20:32:24.000Z</time>
      </trkpt>
      <trkpt lat="48.87182" lon="2.35716">
        <ele>49.200000762939</ele>
        <time>2016-07-11T20:32:28.000Z</time>
      </trkpt>
      <trkpt lat="48.87175" lon="2.35711">
        <ele>49</ele>
        <time>2016-07-11T20:32:30.000Z</time>
      </trkpt>
      <trkpt lat="48.87155" lon="2.35697">
        <ele>48.400001525879</ele>
        <time>2016-07-11T20:32:35.000Z</time>
      </trkpt>
      <trkpt lat="48.87144" lon="2.3569">
        <ele>48</ele>
        <time>2016-07-11T20:32:38.000Z</time>
      </trkpt>
      <trkpt lat="48.87132" lon="2.35681">
        <ele>47.799999237061</ele>
        <time>2016-07-11T20:32:41.000Z</time>
      </trkpt>
      <trkpt lat="48.87114" lon="2.35676">
        <ele>47.200000762939</ele>
        <time>2016-07-11T20:32:45.000Z</time>
      </trkpt>
      <trkpt lat="48.87092" lon="2.35667">
        <ele>47.200000762939</ele>
        <time>2016-07-11T20:32:50.000Z</time>
      </trkpt>
      <trkpt lat="48.87072" lon="2.35653">
        <ele>47.799999237061</ele>
        <time>2016-07-11T20:32:55.000Z</time>
      </trkpt>
      <trkpt lat="48.87055" lon="2.35641">
        <ele>48.200000762939</ele>
        <time>2016-07-11T20:32:59.000Z</time>
      </trkpt>
      <trkpt lat="48.87036" lon="2.35629">
        <ele>48.599998474121</ele>
        <time>2016-07-11T20:33:03.000Z</time>
      </trkpt>
      <trkpt lat="48.87018" lon="2.3562">
        <ele>49</ele>
        <time>2016-07-11T20:33:07.000Z</time>
      </trkpt>
      <trkpt lat="48.86999" lon="2.35608">
        <ele>49</ele>
        <time>2016-07-11T20:33:11.000Z</time>
      </trkpt>
      <trkpt lat="48.86985" lon="2.35601">
        <ele>49</ele>
        <time>2016-07-11T20:33:14.000Z</time>
      </trkpt>
      <trkpt lat="48.86978" lon="2.35596">
        <ele>49</ele>
        <time>2016-07-11T20:33:16.000Z</time>
      </trkpt>
      <trkpt lat="48.86966" lon="2.35587">
        <ele>49</ele>
        <time>2016-07-11T20:33:19.000Z</time>
      </trkpt>
      <trkpt lat="48.86944" lon="2.35578">
        <ele>49</ele>
        <time>2016-07-11T20:33:24.000Z</time>
      </trkpt>
      <trkpt lat="48.86941" lon="2.35576">
        <ele>49</ele>
        <time>2016-07-11T20:33:25.000Z</time>
      </trkpt>
      <trkpt lat="48.86934" lon="2.35569">
        <ele>49</ele>
        <time>2016-07-11T20:33:29.000Z</time>
      </trkpt>
      <trkpt lat="48.86932" lon="2.35556">
        <ele>49.200000762939</ele>
        <time>2016-07-11T20:33:33.000Z</time>
      </trkpt>
      <trkpt lat="48.86932" lon="2.35552">
        <ele>49.200000762939</ele>
        <time>2016-07-11T20:33:34.000Z</time>
      </trkpt>
      <trkpt lat="48.86914" lon="2.35553">
        <ele>48.799999237061</ele>
        <time>2016-07-11T20:33:50.000Z</time>
      </trkpt>
      <trkpt lat="48.86912" lon="2.35555">
        <ele>48.599998474121</ele>
        <time>2016-07-11T20:33:52.000Z</time>
      </trkpt>
      <trkpt lat="48.86911" lon="2.35555">
        <ele>48.599998474121</ele>
        <time>2016-07-11T20:33:54.000Z</time>
      </trkpt>
      <trkpt lat="48.86891" lon="2.35551">
        <ele>48.200000762939</ele>
        <time>2016-07-11T20:34:08.000Z</time>
      </trkpt>
      <trkpt lat="48.86874" lon="2.3554">
        <ele>48</ele>
        <time>2016-07-11T20:34:13.000Z</time>
      </trkpt>
      <trkpt lat="48.86854" lon="2.35529">
        <ele>47.400001525879</ele>
        <time>2016-07-11T20:34:19.000Z</time>
      </trkpt>
      <trkpt lat="48.86834" lon="2.35517">
        <ele>45.599998474121</ele>
        <time>2016-07-11T20:34:24.000Z</time>
      </trkpt>
      <trkpt lat="48.86813" lon="2.35507">
        <ele>43.799999237061</ele>
        <time>2016-07-11T20:34:29.000Z</time>
      </trkpt>
      <trkpt lat="48.86796" lon="2.35497">
        <ele>42.200000762939</ele>
        <time>2016-07-11T20:34:33.000Z</time>
      </trkpt>
      <trkpt lat="48.86778" lon="2.35485">
        <ele>41.200000762939</ele>
        <time>2016-07-11T20:34:37.000Z</time>
      </trkpt>
      <trkpt lat="48.8676" lon="2.35474">
        <ele>41.599998474121</ele>
        <time>2016-07-11T20:34:41.000Z</time>
      </trkpt>
      <trkpt lat="48.86742" lon="2.35462">
        <ele>42.400001525879</ele>
        <time>2016-07-11T20:34:45.000Z</time>
      </trkpt>
      <trkpt lat="48.86737" lon="2.35461">
        <ele>42.599998474121</ele>
        <time>2016-07-11T20:34:46.000Z</time>
      </trkpt>
      <trkpt lat="48.86718" lon="2.35448">
        <ele>43.400001525879</ele>
        <time>2016-07-11T20:34:50.000Z</time>
      </trkpt>
      <trkpt lat="48.86701" lon="2.35436">
        <ele>44.200000762939</ele>
        <time>2016-07-11T20:34:54.000Z</time>
      </trkpt>
      <trkpt lat="48.86682" lon="2.35426">
        <ele>45.200000762939</ele>
        <time>2016-07-11T20:34:58.000Z</time>
      </trkpt>
      <trkpt lat="48.86664" lon="2.35415">
        <ele>46.599998474121</ele>
        <time>2016-07-11T20:35:02.000Z</time>
      </trkpt>
      <trkpt lat="48.86644" lon="2.35403">
        <ele>47</ele>
        <time>2016-07-11T20:35:07.000Z</time>
      </trkpt>
      <trkpt lat="48.86626" lon="2.35389">
        <ele>47.599998474121</ele>
        <time>2016-07-11T20:35:12.000Z</time>
      </trkpt>
      <trkpt lat="48.8662" lon="2.35384">
        <ele>47.599998474121</ele>
        <time>2016-07-11T20:35:14.000Z</time>
      </trkpt>
      <trkpt lat="48.86608" lon="2.35373">
        <ele>48</ele>
        <time>2016-07-11T20:35:20.000Z</time>
      </trkpt>
      <trkpt lat="48.86605" lon="2.35376">
        <ele>48</ele>
        <time>2016-07-11T20:35:22.000Z</time>
      </trkpt>
      <trkpt lat="48.86589" lon="2.35375">
        <ele>47.400001525879</ele>
        <time>2016-07-11T20:36:02.000Z</time>
      </trkpt>
      <trkpt lat="48.86569" lon="2.35376">
        <ele>46.599998474121</ele>
        <time>2016-07-11T20:36:12.000Z</time>
      </trkpt>
      <trkpt lat="48.86551" lon="2.35367">
        <ele>46.400001525879</ele>
        <time>2016-07-11T20:36:18.000Z</time>
      </trkpt>
      <trkpt lat="48.86533" lon="2.35354">
        <ele>46</ele>
        <time>2016-07-11T20:36:23.000Z</time>
      </trkpt>
      <trkpt lat="48.86513" lon="2.35342">
        <ele>45.599998474121</ele>
        <time>2016-07-11T20:36:28.000Z</time>
      </trkpt>
      <trkpt lat="48.86494" lon="2.35333">
        <ele>45.200000762939</ele>
        <time>2016-07-11T20:36:34.000Z</time>
      </trkpt>
      <trkpt lat="48.86489" lon="2.35336">
        <ele>45.200000762939</ele>
        <time>2016-07-11T20:36:38.000Z</time>
      </trkpt>
      <trkpt lat="48.86484" lon="2.35349">
        <ele>45.799999237061</ele>
        <time>2016-07-11T20:36:44.000Z</time>
      </trkpt>
      <trkpt lat="48.86485" lon="2.3535">
        <ele>46</ele>
        <time>2016-07-11T20:36:45.000Z</time>
      </trkpt>
      <trkpt lat="48.86491" lon="2.35346">
        <ele>45.799999237061</ele>
        <time>2016-07-11T20:36:49.000Z</time>
      </trkpt>
      <trkpt lat="48.86495" lon="2.35339">
        <ele>45.400001525879</ele>
        <time>2016-07-11T20:37:15.000Z</time>
      </trkpt>
      <trkpt lat="48.8649" lon="2.35343">
        <ele>45.599998474121</ele>
        <time>2016-07-11T20:37:25.000Z</time>
      </trkpt>
      <trkpt lat="48.86481" lon="2.35343">
        <ele>45.599998474121</ele>
        <time>2016-07-11T20:37:42.000Z</time>
      </trkpt>
      <trkpt lat="48.86482" lon="2.35332">
        <ele>45</ele>
        <time>2016-07-11T20:38:20.000Z</time>
      </trkpt>
      <trkpt lat="48.86464" lon="2.3532">
        <ele>45.200000762939</ele>
        <time>2016-07-11T20:38:28.000Z</time>
      </trkpt>
      <trkpt lat="48.86444" lon="2.3531">
        <ele>45.599998474121</ele>
        <time>2016-07-11T20:38:34.000Z</time>
      </trkpt>
      <trkpt lat="48.86425" lon="2.35296">
        <ele>45.599998474121</ele>
        <time>2016-07-11T20:38:40.000Z</time>
      </trkpt>
      <trkpt lat="48.86407" lon="2.35285">
        <ele>45.799999237061</ele>
        <time>2016-07-11T20:38:45.000Z</time>
      </trkpt>
      <trkpt lat="48.86387" lon="2.35278">
        <ele>45.599998474121</ele>
        <time>2016-07-11T20:38:50.000Z</time>
      </trkpt>
      <trkpt lat="48.86367" lon="2.35268">
        <ele>45.599998474121</ele>
        <time>2016-07-11T20:38:55.000Z</time>
      </trkpt>
      <trkpt lat="48.86348" lon="2.35258">
        <ele>46</ele>
        <time>2016-07-11T20:39:00.000Z</time>
      </trkpt>
      <trkpt lat="48.8633" lon="2.35247">
        <ele>46.599998474121</ele>
        <time>2016-07-11T20:39:06.000Z</time>
      </trkpt>
      <trkpt lat="48.86312" lon="2.35238">
        <ele>47.200000762939</ele>
        <time>2016-07-11T20:39:15.000Z</time>
      </trkpt>
      <trkpt lat="48.86292" lon="2.3523">
        <ele>48</ele>
        <time>2016-07-11T20:39:23.000Z</time>
      </trkpt>
      <trkpt lat="48.86275" lon="2.3522">
        <ele>48.599998474121</ele>
        <time>2016-07-11T20:39:29.000Z</time>
      </trkpt>
      <trkpt lat="48.86258" lon="2.3521">
        <ele>48.200000762939</ele>
        <time>2016-07-11T20:39:35.000Z</time>
      </trkpt>
      <trkpt lat="48.86239" lon="2.35203">
        <ele>47.400001525879</ele>
        <time>2016-07-11T20:39:40.000Z</time>
      </trkpt>
      <trkpt lat="48.86214" lon="2.35189">
        <ele>46.599998474121</ele>
        <time>2016-07-11T20:39:43.000Z</time>
      </trkpt>
      <trkpt lat="48.86195" lon="2.35177">
        <ele>46</ele>
        <time>2016-07-11T20:39:47.000Z</time>
      </trkpt>
      <trkpt lat="48.86177" lon="2.35168">
        <ele>46</ele>
        <time>2016-07-11T20:39:54.000Z</time>
      </trkpt>
      <trkpt lat="48.8616" lon="2.35154">
        <ele>46</ele>
        <time>2016-07-11T20:40:01.000Z</time>
      </trkpt>
      <trkpt lat="48.86142" lon="2.3515">
        <ele>46</ele>
        <time>2016-07-11T20:40:07.000Z</time>
      </trkpt>
      <trkpt lat="48.86123" lon="2.35147">
        <ele>46.200000762939</ele>
        <time>2016-07-11T20:40:13.000Z</time>
      </trkpt>
      <trkpt lat="48.86104" lon="2.35135">
        <ele>46</ele>
        <time>2016-07-11T20:40:18.000Z</time>
      </trkpt>
      <trkpt lat="48.86086" lon="2.35127">
        <ele>45.599998474121</ele>
        <time>2016-07-11T20:40:24.000Z</time>
      </trkpt>
      <trkpt lat="48.86067" lon="2.35121">
        <ele>45.400001525879</ele>
        <time>2016-07-11T20:40:29.000Z</time>
      </trkpt>
      <trkpt lat="48.86049" lon="2.35113">
        <ele>45.200000762939</ele>
        <time>2016-07-11T20:40:35.000Z</time>
      </trkpt>
      <trkpt lat="48.8603" lon="2.35105">
        <ele>45</ele>
        <time>2016-07-11T20:40:41.000Z</time>
      </trkpt>
      <trkpt lat="48.86027" lon="2.351">
        <ele>44.799999237061</ele>
        <time>2016-07-11T20:40:43.000Z</time>
      </trkpt>
      <trkpt lat="48.86021" lon="2.35089">
        <ele>44.400001525879</ele>
        <time>2016-07-11T20:40:47.000Z</time>
      </trkpt>
      <trkpt lat="48.86023" lon="2.35061">
        <ele>45</ele>
        <time>2016-07-11T20:40:53.000Z</time>
      </trkpt>
      <trkpt lat="48.86026" lon="2.35047">
        <ele>45.599998474121</ele>
        <time>2016-07-11T20:40:56.000Z</time>
      </trkpt>
      <trkpt lat="48.86032" lon="2.35016">
        <ele>47.200000762939</ele>
        <time>2016-07-11T20:41:02.000Z</time>
      </trkpt>
      <trkpt lat="48.86037" lon="2.34985">
        <ele>47.799999237061</ele>
        <time>2016-07-11T20:41:09.000Z</time>
      </trkpt>
      <trkpt lat="48.8604" lon="2.34957">
        <ele>48</ele>
        <time>2016-07-11T20:41:17.000Z</time>
      </trkpt>
      <trkpt lat="48.86037" lon="2.3493">
        <ele>48.400001525879</ele>
        <time>2016-07-11T20:41:24.000Z</time>
      </trkpt>
      <trkpt lat="48.86039" lon="2.34928">
        <ele>48.400001525879</ele>
        <time>2016-07-11T20:41:25.000Z</time>
      </trkpt>
      <trkpt lat="48.86051" lon="2.34919">
        <ele>48.200000762939</ele>
        <time>2016-07-11T20:41:30.000Z</time>
      </trkpt>
      <trkpt lat="48.86056" lon="2.34908">
        <ele>48.200000762939</ele>
        <time>2016-07-11T20:41:37.000Z</time>
      </trkpt>
      <trkpt lat="48.86062" lon="2.34904">
        <ele>48</ele>
        <time>2016-07-11T20:42:43.000Z</time>
      </trkpt>
      <trkpt lat="48.86066" lon="2.34876">
        <ele>47.400001525879</ele>
        <time>2016-07-11T20:42:51.000Z</time>
      </trkpt>
      <trkpt lat="48.8607" lon="2.34857">
        <ele>47</ele>
        <time>2016-07-11T20:42:57.000Z</time>
      </trkpt>
      <trkpt lat="48.86055" lon="2.34845">
        <ele>47.200000762939</ele>
        <time>2016-07-11T20:43:04.000Z</time>
      </trkpt>
      <trkpt lat="48.86037" lon="2.34837">
        <ele>47.599998474121</ele>
        <time>2016-07-11T20:43:11.000Z</time>
      </trkpt>
      <trkpt lat="48.8602" lon="2.34828">
        <ele>47.799999237061</ele>
        <time>2016-07-11T20:43:19.000Z</time>
      </trkpt>
      <trkpt lat="48.86018" lon="2.34825">
        <ele>47.799999237061</ele>
        <time>2016-07-11T20:43:21.000Z</time>
      </trkpt>
      <trkpt lat="48.86019" lon="2.34797">
        <ele>46.799999237061</ele>
        <time>2016-07-11T20:43:28.000Z</time>
      </trkpt>
      <trkpt lat="48.8602" lon="2.34768">
        <ele>45.799999237061</ele>
        <time>2016-07-11T20:43:34.000Z</time>
      </trkpt>
      <trkpt lat="48.86019" lon="2.3474">
        <ele>45.200000762939</ele>
        <time>2016-07-11T20:43:41.000Z</time>
      </trkpt>
      <trkpt lat="48.86017" lon="2.34737">
        <ele>45.200000762939</ele>
        <time>2016-07-11T20:43:43.000Z</time>
      </trkpt>
      <trkpt lat="48.86" lon="2.34728">
        <ele>45.400001525879</ele>
        <time>2016-07-11T20:43:52.000Z</time>
      </trkpt>
      <trkpt lat="48.8598" lon="2.3472">
        <ele>45.400001525879</ele>
        <time>2016-07-11T20:44:00.000Z</time>
      </trkpt>
      <trkpt lat="48.85976" lon="2.34721">
        <ele>45.400001525879</ele>
        <time>2016-07-11T20:44:03.000Z</time>
      </trkpt>
      <trkpt lat="48.85975" lon="2.34734">
        <ele>45</ele>
        <time>2016-07-11T20:44:09.000Z</time>
      </trkpt>
      <trkpt lat="48.85975" lon="2.34736">
        <ele>44.799999237061</ele>
        <time>2016-07-11T20:44:10.000Z</time>
      </trkpt>
      <trkpt lat="48.8598" lon="2.3475">
        <ele>44.599998474121</ele>
        <time>2016-07-11T20:44:31.000Z</time>
      </trkpt>
    </trkseg>
  </trk>
  <trk>
    <name><![CDATA[lundi 2016 07 18]]></name>
    <trkseg>
      <trkpt lat="48.85703" lon="2.34687">
        <ele>40.799999237061</ele>
        <time>2016-07-18T18:25:28.000Z</time>
      </trkpt>
      <trkpt lat="48.85686" lon="2.34676">
        <ele>41.200000762939</ele>
        <time>2016-07-18T18:25:37.000Z</time>
      </trkpt>
      <trkpt lat="48.85667" lon="2.34665">
        <ele>42.799999237061</ele>
        <time>2016-07-18T18:25:45.000Z</time>
      </trkpt>
      <trkpt lat="48.8565" lon="2.34653">
        <ele>44.400001525879</ele>
        <time>2016-07-18T18:25:52.000Z</time>
      </trkpt>
      <trkpt lat="48.85636" lon="2.3464">
        <ele>45.400001525879</ele>
        <time>2016-07-18T18:25:59.000Z</time>
      </trkpt>
      <trkpt lat="48.85639" lon="2.34618">
        <ele>45.200000762939</ele>
        <time>2016-07-18T18:26:07.000Z</time>
      </trkpt>
      <trkpt lat="48.85647" lon="2.34593">
        <ele>47.599998474121</ele>
        <time>2016-07-18T18:26:12.000Z</time>
      </trkpt>
      <trkpt lat="48.85655" lon="2.3457">
        <ele>49</ele>
        <time>2016-07-18T18:26:16.000Z</time>
      </trkpt>
      <trkpt lat="48.85664" lon="2.34546">
        <ele>48.799999237061</ele>
        <time>2016-07-18T18:26:20.000Z</time>
      </trkpt>
      <trkpt lat="48.85668" lon="2.34517">
        <ele>48.200000762939</ele>
        <time>2016-07-18T18:26:24.000Z</time>
      </trkpt>
      <trkpt lat="48.85678" lon="2.34487">
        <ele>47.599998474121</ele>
        <time>2016-07-18T18:26:28.000Z</time>
      </trkpt>
      <trkpt lat="48.85684" lon="2.34456">
        <ele>48.599998474121</ele>
        <time>2016-07-18T18:26:32.000Z</time>
      </trkpt>
      <trkpt lat="48.8569" lon="2.34428">
        <ele>49.599998474121</ele>
        <time>2016-07-18T18:26:36.000Z</time>
      </trkpt>
      <trkpt lat="48.85694" lon="2.34398">
        <ele>47.599998474121</ele>
        <time>2016-07-18T18:26:40.000Z</time>
      </trkpt>
      <trkpt lat="48.85694" lon="2.34368">
        <ele>44</ele>
        <time>2016-07-18T18:26:45.000Z</time>
      </trkpt>
      <trkpt lat="48.85694" lon="2.34354">
        <ele>42.200000762939</ele>
        <time>2016-07-18T18:26:48.000Z</time>
      </trkpt>
      <trkpt lat="48.85678" lon="2.34336">
        <ele>40.799999237061</ele>
        <time>2016-07-18T18:26:53.000Z</time>
      </trkpt>
      <trkpt lat="48.85666" lon="2.34325">
        <ele>40.400001525879</ele>
        <time>2016-07-18T18:26:56.000Z</time>
      </trkpt>
      <trkpt lat="48.85648" lon="2.34309">
        <ele>40.799999237061</ele>
        <time>2016-07-18T18:27:00.000Z</time>
      </trkpt>
      <trkpt lat="48.85643" lon="2.34306">
        <ele>40.799999237061</ele>
        <time>2016-07-18T18:27:01.000Z</time>
      </trkpt>
      <trkpt lat="48.85624" lon="2.34293">
        <ele>41.200000762939</ele>
        <time>2016-07-18T18:27:05.000Z</time>
      </trkpt>
      <trkpt lat="48.85605" lon="2.34276">
        <ele>41.599998474121</ele>
        <time>2016-07-18T18:27:09.000Z</time>
      </trkpt>
      <trkpt lat="48.8559" lon="2.3426">
        <ele>41.200000762939</ele>
        <time>2016-07-18T18:27:13.000Z</time>
      </trkpt>
      <trkpt lat="48.85588" lon="2.34254">
        <ele>41.200000762939</ele>
        <time>2016-07-18T18:27:14.000Z</time>
      </trkpt>
      <trkpt lat="48.85596" lon="2.34229">
        <ele>42.400001525879</ele>
        <time>2016-07-18T18:27:19.000Z</time>
      </trkpt>
      <trkpt lat="48.8561" lon="2.34215">
        <ele>45</ele>
        <time>2016-07-18T18:27:23.000Z</time>
      </trkpt>
      <trkpt lat="48.85617" lon="2.34207">
        <ele>45.599998474121</ele>
        <time>2016-07-18T18:27:25.000Z</time>
      </trkpt>
      <trkpt lat="48.85633" lon="2.34188">
        <ele>47</ele>
        <time>2016-07-18T18:27:29.000Z</time>
      </trkpt>
      <trkpt lat="48.85648" lon="2.3417">
        <ele>48.799999237061</ele>
        <time>2016-07-18T18:27:33.000Z</time>
      </trkpt>
      <trkpt lat="48.85667" lon="2.34155">
        <ele>48.599998474121</ele>
        <time>2016-07-18T18:27:37.000Z</time>
      </trkpt>
      <trkpt lat="48.85681" lon="2.34133">
        <ele>45.599998474121</ele>
        <time>2016-07-18T18:27:44.000Z</time>
      </trkpt>
      <trkpt lat="48.85685" lon="2.34123">
        <ele>44.200000762939</ele>
        <time>2016-07-18T18:27:46.000Z</time>
      </trkpt>
      <trkpt lat="48.85669" lon="2.34097">
        <ele>42</ele>
        <time>2016-07-18T18:27:52.000Z</time>
      </trkpt>
      <trkpt lat="48.85663" lon="2.3409">
        <ele>41.400001525879</ele>
        <time>2016-07-18T18:27:54.000Z</time>
      </trkpt>
      <trkpt lat="48.85661" lon="2.34088">
        <ele>41.200000762939</ele>
        <time>2016-07-18T18:27:55.000Z</time>
      </trkpt>
      <trkpt lat="48.85654" lon="2.34084">
        <ele>41</ele>
        <time>2016-07-18T18:27:58.000Z</time>
      </trkpt>
      <trkpt lat="48.85638" lon="2.34071">
        <ele>42</ele>
        <time>2016-07-18T18:28:06.000Z</time>
      </trkpt>
      <trkpt lat="48.85624" lon="2.34053">
        <ele>43.799999237061</ele>
        <time>2016-07-18T18:28:18.000Z</time>
      </trkpt>
      <trkpt lat="48.85625" lon="2.34051">
        <ele>44</ele>
        <time>2016-07-18T18:28:19.000Z</time>
      </trkpt>
      <trkpt lat="48.85631" lon="2.34042">
        <ele>44.200000762939</ele>
        <time>2016-07-18T18:28:24.000Z</time>
      </trkpt>
      <trkpt lat="48.85647" lon="2.34021">
        <ele>42.200000762939</ele>
        <time>2016-07-18T18:28:31.000Z</time>
      </trkpt>
      <trkpt lat="48.85664" lon="2.33997">
        <ele>37.599998474121</ele>
        <time>2016-07-18T18:28:36.000Z</time>
      </trkpt>
      <trkpt lat="48.8568" lon="2.33973">
        <ele>35.599998474121</ele>
        <time>2016-07-18T18:28:40.000Z</time>
      </trkpt>
      <trkpt lat="48.85696" lon="2.33948">
        <ele>35.799999237061</ele>
        <time>2016-07-18T18:28:44.000Z</time>
      </trkpt>
      <trkpt lat="48.85711" lon="2.33923">
        <ele>35.200000762939</ele>
        <time>2016-07-18T18:28:48.000Z</time>
      </trkpt>
      <trkpt lat="48.85723" lon="2.33902">
        <ele>33</ele>
        <time>2016-07-18T18:28:51.000Z</time>
      </trkpt>
      <trkpt lat="48.85735" lon="2.33879">
        <ele>31.39999961853</ele>
        <time>2016-07-18T18:28:54.000Z</time>
      </trkpt>
      <trkpt lat="48.85747" lon="2.33857">
        <ele>32.200000762939</ele>
        <time>2016-07-18T18:28:57.000Z</time>
      </trkpt>
      <trkpt lat="48.85761" lon="2.33829">
        <ele>33.400001525879</ele>
        <time>2016-07-18T18:29:01.000Z</time>
      </trkpt>
      <trkpt lat="48.85768" lon="2.33809">
        <ele>33.200000762939</ele>
        <time>2016-07-18T18:29:04.000Z</time>
      </trkpt>
      <trkpt lat="48.85773" lon="2.3378">
        <ele>33.799999237061</ele>
        <time>2016-07-18T18:29:08.000Z</time>
      </trkpt>
      <trkpt lat="48.85779" lon="2.33749">
        <ele>34.599998474121</ele>
        <time>2016-07-18T18:29:12.000Z</time>
      </trkpt>
      <trkpt lat="48.85783" lon="2.33725">
        <ele>34.200000762939</ele>
        <time>2016-07-18T18:29:15.000Z</time>
      </trkpt>
      <trkpt lat="48.85788" lon="2.33691">
        <ele>33.799999237061</ele>
        <time>2016-07-18T18:29:19.000Z</time>
      </trkpt>
      <trkpt lat="48.85796" lon="2.33659">
        <ele>30.60000038147</ele>
        <time>2016-07-18T18:29:23.000Z</time>
      </trkpt>
      <trkpt lat="48.85799" lon="2.33642">
        <ele>31.200000762939</ele>
        <time>2016-07-18T18:29:25.000Z</time>
      </trkpt>
      <trkpt lat="48.858" lon="2.33615">
        <ele>33</ele>
        <time>2016-07-18T18:29:28.000Z</time>
      </trkpt>
      <trkpt lat="48.858" lon="2.33607">
        <ele>33.400001525879</ele>
        <time>2016-07-18T18:29:29.000Z</time>
      </trkpt>
      <trkpt lat="48.85799" lon="2.3359">
        <ele>32.799999237061</ele>
        <time>2016-07-18T18:29:31.000Z</time>
      </trkpt>
      <trkpt lat="48.85797" lon="2.33566">
        <ele>33</ele>
        <time>2016-07-18T18:29:34.000Z</time>
      </trkpt>
      <trkpt lat="48.85798" lon="2.33532">
        <ele>33.799999237061</ele>
        <time>2016-07-18T18:29:38.000Z</time>
      </trkpt>
      <trkpt lat="48.85798" lon="2.33524">
        <ele>33.799999237061</ele>
        <time>2016-07-18T18:29:39.000Z</time>
      </trkpt>
      <trkpt lat="48.858" lon="2.3351">
        <ele>38.400001525879</ele>
        <time>2016-07-18T18:29:41.000Z</time>
      </trkpt>
      <trkpt lat="48.85807" lon="2.33479">
        <ele>43.200000762939</ele>
        <time>2016-07-18T18:29:46.000Z</time>
      </trkpt>
      <trkpt lat="48.8581" lon="2.33461">
        <ele>43.400001525879</ele>
        <time>2016-07-18T18:29:49.000Z</time>
      </trkpt>
      <trkpt lat="48.8582" lon="2.33432">
        <ele>44.799999237061</ele>
        <time>2016-07-18T18:29:54.000Z</time>
      </trkpt>
      <trkpt lat="48.85827" lon="2.33408">
        <ele>46</ele>
        <time>2016-07-18T18:29:58.000Z</time>
      </trkpt>
      <trkpt lat="48.85835" lon="2.3338">
        <ele>45.799999237061</ele>
        <time>2016-07-18T18:30:03.000Z</time>
      </trkpt>
      <trkpt lat="48.85838" lon="2.33368">
        <ele>45.200000762939</ele>
        <time>2016-07-18T18:30:05.000Z</time>
      </trkpt>
      <trkpt lat="48.85845" lon="2.33341">
        <ele>43.799999237061</ele>
        <time>2016-07-18T18:30:09.000Z</time>
      </trkpt>
      <trkpt lat="48.85854" lon="2.33316">
        <ele>43</ele>
        <time>2016-07-18T18:30:13.000Z</time>
      </trkpt>
      <trkpt lat="48.85863" lon="2.33291">
        <ele>42.599998474121</ele>
        <time>2016-07-18T18:30:18.000Z</time>
      </trkpt>
      <trkpt lat="48.85866" lon="2.33287">
        <ele>42.599998474121</ele>
        <time>2016-07-18T18:30:19.000Z</time>
      </trkpt>
      <trkpt lat="48.8587" lon="2.3328">
        <ele>42.599998474121</ele>
        <time>2016-07-18T18:30:21.000Z</time>
      </trkpt>
      <trkpt lat="48.85873" lon="2.33265">
        <ele>42.400001525879</ele>
        <time>2016-07-18T18:30:46.000Z</time>
      </trkpt>
      <trkpt lat="48.85868" lon="2.33253">
        <ele>41.599998474121</ele>
        <time>2016-07-18T18:30:55.000Z</time>
      </trkpt>
      <trkpt lat="48.85875" lon="2.3323">
        <ele>40.599998474121</ele>
        <time>2016-07-18T18:31:21.000Z</time>
      </trkpt>
      <trkpt lat="48.85875" lon="2.33228">
        <ele>40.599998474121</ele>
        <time>2016-07-18T18:31:22.000Z</time>
      </trkpt>
      <trkpt lat="48.85877" lon="2.33214">
        <ele>40.799999237061</ele>
        <time>2016-07-18T18:31:26.000Z</time>
      </trkpt>
      <trkpt lat="48.85885" lon="2.33187">
        <ele>40.400001525879</ele>
        <time>2016-07-18T18:31:31.000Z</time>
      </trkpt>
      <trkpt lat="48.85894" lon="2.33163">
        <ele>39</ele>
        <time>2016-07-18T18:31:35.000Z</time>
      </trkpt>
      <trkpt lat="48.85899" lon="2.33145">
        <ele>39.200000762939</ele>
        <time>2016-07-18T18:31:38.000Z</time>
      </trkpt>
      <trkpt lat="48.85908" lon="2.33114">
        <ele>39.799999237061</ele>
        <time>2016-07-18T18:31:43.000Z</time>
      </trkpt>
      <trkpt lat="48.85916" lon="2.33089">
        <ele>40.400001525879</ele>
        <time>2016-07-18T18:31:47.000Z</time>
      </trkpt>
      <trkpt lat="48.85923" lon="2.33063">
        <ele>40</ele>
        <time>2016-07-18T18:31:51.000Z</time>
      </trkpt>
      <trkpt lat="48.85932" lon="2.33037">
        <ele>39.799999237061</ele>
        <time>2016-07-18T18:31:55.000Z</time>
      </trkpt>
      <trkpt lat="48.85941" lon="2.33009">
        <ele>39.799999237061</ele>
        <time>2016-07-18T18:31:59.000Z</time>
      </trkpt>
      <trkpt lat="48.85949" lon="2.32981">
        <ele>40.799999237061</ele>
        <time>2016-07-18T18:32:03.000Z</time>
      </trkpt>
      <trkpt lat="48.85957" lon="2.32951">
        <ele>42.200000762939</ele>
        <time>2016-07-18T18:32:08.000Z</time>
      </trkpt>
      <trkpt lat="48.85964" lon="2.32921">
        <ele>42.599998474121</ele>
        <time>2016-07-18T18:32:13.000Z</time>
      </trkpt>
      <trkpt lat="48.85972" lon="2.32895">
        <ele>42.799999237061</ele>
        <time>2016-07-18T18:32:17.000Z</time>
      </trkpt>
      <trkpt lat="48.85979" lon="2.32865">
        <ele>43</ele>
        <time>2016-07-18T18:32:21.000Z</time>
      </trkpt>
      <trkpt lat="48.85986" lon="2.32835">
        <ele>41</ele>
        <time>2016-07-18T18:32:25.000Z</time>
      </trkpt>
      <trkpt lat="48.85997" lon="2.3281">
        <ele>39.599998474121</ele>
        <time>2016-07-18T18:32:29.000Z</time>
      </trkpt>
      <trkpt lat="48.8601" lon="2.32792">
        <ele>39.400001525879</ele>
        <time>2016-07-18T18:32:34.000Z</time>
      </trkpt>
      <trkpt lat="48.86023" lon="2.32769">
        <ele>39.799999237061</ele>
        <time>2016-07-18T18:32:41.000Z</time>
      </trkpt>
      <trkpt lat="48.86028" lon="2.32756">
        <ele>39.799999237061</ele>
        <time>2016-07-18T18:32:43.000Z</time>
      </trkpt>
      <trkpt lat="48.8604" lon="2.32733">
        <ele>39.200000762939</ele>
        <time>2016-07-18T18:32:46.000Z</time>
      </trkpt>
      <trkpt lat="48.86052" lon="2.32704">
        <ele>39.799999237061</ele>
        <time>2016-07-18T18:32:49.000Z</time>
      </trkpt>
      <trkpt lat="48.86061" lon="2.32676">
        <ele>39</ele>
        <time>2016-07-18T18:32:52.000Z</time>
      </trkpt>
      <trkpt lat="48.86069" lon="2.32648">
        <ele>37.200000762939</ele>
        <time>2016-07-18T18:32:55.000Z</time>
      </trkpt>
      <trkpt lat="48.86077" lon="2.32621">
        <ele>35.599998474121</ele>
        <time>2016-07-18T18:32:58.000Z</time>
      </trkpt>
      <trkpt lat="48.86084" lon="2.32595">
        <ele>35</ele>
        <time>2016-07-18T18:33:01.000Z</time>
      </trkpt>
      <trkpt lat="48.86091" lon="2.32562">
        <ele>32.799999237061</ele>
        <time>2016-07-18T18:33:05.000Z</time>
      </trkpt>
      <trkpt lat="48.86102" lon="2.32531">
        <ele>33.599998474121</ele>
        <time>2016-07-18T18:33:09.000Z</time>
      </trkpt>
      <trkpt lat="48.86112" lon="2.325">
        <ele>34.599998474121</ele>
        <time>2016-07-18T18:33:13.000Z</time>
      </trkpt>
      <trkpt lat="48.86121" lon="2.32469">
        <ele>35</ele>
        <time>2016-07-18T18:33:17.000Z</time>
      </trkpt>
      <trkpt lat="48.86125" lon="2.32454">
        <ele>35.200000762939</ele>
        <time>2016-07-18T18:33:19.000Z</time>
      </trkpt>
      <trkpt lat="48.86136" lon="2.32422">
        <ele>34.200000762939</ele>
        <time>2016-07-18T18:33:23.000Z</time>
      </trkpt>
      <trkpt lat="48.86145" lon="2.32393">
        <ele>34.400001525879</ele>
        <time>2016-07-18T18:33:27.000Z</time>
      </trkpt>
      <trkpt lat="48.86153" lon="2.32366">
        <ele>34.799999237061</ele>
        <time>2016-07-18T18:33:31.000Z</time>
      </trkpt>
      <trkpt lat="48.86158" lon="2.32338">
        <ele>35</ele>
        <time>2016-07-18T18:33:35.000Z</time>
      </trkpt>
      <trkpt lat="48.86164" lon="2.3231">
        <ele>33.599998474121</ele>
        <time>2016-07-18T18:33:39.000Z</time>
      </trkpt>
      <trkpt lat="48.86173" lon="2.32279">
        <ele>33.400001525879</ele>
        <time>2016-07-18T18:33:43.000Z</time>
      </trkpt>
      <trkpt lat="48.86181" lon="2.32249">
        <ele>33.599998474121</ele>
        <time>2016-07-18T18:33:47.000Z</time>
      </trkpt>
      <trkpt lat="48.8619" lon="2.3222">
        <ele>35</ele>
        <time>2016-07-18T18:33:51.000Z</time>
      </trkpt>
      <trkpt lat="48.86198" lon="2.32193">
        <ele>36.400001525879</ele>
        <time>2016-07-18T18:33:55.000Z</time>
      </trkpt>
      <trkpt lat="48.86208" lon="2.32161">
        <ele>36.599998474121</ele>
        <time>2016-07-18T18:33:59.000Z</time>
      </trkpt>
      <trkpt lat="48.86217" lon="2.32134">
        <ele>37.200000762939</ele>
        <time>2016-07-18T18:34:03.000Z</time>
      </trkpt>
      <trkpt lat="48.86225" lon="2.32106">
        <ele>37.799999237061</ele>
        <time>2016-07-18T18:34:07.000Z</time>
      </trkpt>
      <trkpt lat="48.86234" lon="2.32077">
        <ele>37.400001525879</ele>
        <time>2016-07-18T18:34:11.000Z</time>
      </trkpt>
      <trkpt lat="48.86242" lon="2.32049">
        <ele>35.400001525879</ele>
        <time>2016-07-18T18:34:15.000Z</time>
      </trkpt>
      <trkpt lat="48.86249" lon="2.32021">
        <ele>34.400001525879</ele>
        <time>2016-07-18T18:34:19.000Z</time>
      </trkpt>
      <trkpt lat="48.86258" lon="2.31992">
        <ele>32.799999237061</ele>
        <time>2016-07-18T18:34:23.000Z</time>
      </trkpt>
      <trkpt lat="48.86268" lon="2.31962">
        <ele>32.200000762939</ele>
        <time>2016-07-18T18:34:27.000Z</time>
      </trkpt>
      <trkpt lat="48.86277" lon="2.31938">
        <ele>32.200000762939</ele>
        <time>2016-07-18T18:34:30.000Z</time>
      </trkpt>
      <trkpt lat="48.86287" lon="2.31914">
        <ele>31.799999237061</ele>
        <time>2016-07-18T18:34:33.000Z</time>
      </trkpt>
      <trkpt lat="48.86293" lon="2.31885">
        <ele>31</ele>
        <time>2016-07-18T18:34:36.000Z</time>
      </trkpt>
      <trkpt lat="48.86301" lon="2.31855">
        <ele>30.60000038147</ele>
        <time>2016-07-18T18:34:40.000Z</time>
      </trkpt>
      <trkpt lat="48.86308" lon="2.31828">
        <ele>37.200000762939</ele>
        <time>2016-07-18T18:34:44.000Z</time>
      </trkpt>
      <trkpt lat="48.86314" lon="2.31798">
        <ele>40.200000762939</ele>
        <time>2016-07-18T18:34:48.000Z</time>
      </trkpt>
      <trkpt lat="48.86318" lon="2.31764">
        <ele>44.599998474121</ele>
        <time>2016-07-18T18:34:52.000Z</time>
      </trkpt>
      <trkpt lat="48.86318" lon="2.31729">
        <ele>46.200000762939</ele>
        <time>2016-07-18T18:34:56.000Z</time>
      </trkpt>
      <trkpt lat="48.86319" lon="2.31701">
        <ele>41.400001525879</ele>
        <time>2016-07-18T18:34:59.000Z</time>
      </trkpt>
      <trkpt lat="48.86318" lon="2.31665">
        <ele>24.799999237061</ele>
        <time>2016-07-18T18:35:03.000Z</time>
      </trkpt>
      <trkpt lat="48.86319" lon="2.3163">
        <ele>26</ele>
        <time>2016-07-18T18:35:07.000Z</time>
      </trkpt>
      <trkpt lat="48.86317" lon="2.31596">
        <ele>28.60000038147</ele>
        <time>2016-07-18T18:35:11.000Z</time>
      </trkpt>
      <trkpt lat="48.86317" lon="2.31588">
        <ele>29</ele>
        <time>2016-07-18T18:35:12.000Z</time>
      </trkpt>
      <trkpt lat="48.86318" lon="2.31555">
        <ele>27.60000038147</ele>
        <time>2016-07-18T18:35:16.000Z</time>
      </trkpt>
      <trkpt lat="48.86318" lon="2.31548">
        <ele>27.39999961853</ele>
        <time>2016-07-18T18:35:17.000Z</time>
      </trkpt>
      <trkpt lat="48.86317" lon="2.31517">
        <ele>31.200000762939</ele>
        <time>2016-07-18T18:35:22.000Z</time>
      </trkpt>
      <trkpt lat="48.86317" lon="2.31495">
        <ele>34.400001525879</ele>
        <time>2016-07-18T18:35:26.000Z</time>
      </trkpt>
      <trkpt lat="48.86317" lon="2.31484">
        <ele>33.599998474121</ele>
        <time>2016-07-18T18:35:28.000Z</time>
      </trkpt>
      <trkpt lat="48.86315" lon="2.31461">
        <ele>31.799999237061</ele>
        <time>2016-07-18T18:35:32.000Z</time>
      </trkpt>
      <trkpt lat="48.86314" lon="2.31432">
        <ele>32.599998474121</ele>
        <time>2016-07-18T18:35:37.000Z</time>
      </trkpt>
      <trkpt lat="48.86314" lon="2.31414">
        <ele>33.400001525879</ele>
        <time>2016-07-18T18:35:40.000Z</time>
      </trkpt>
      <trkpt lat="48.86314" lon="2.31399">
        <ele>34.200000762939</ele>
        <time>2016-07-18T18:35:43.000Z</time>
      </trkpt>
      <trkpt lat="48.86314" lon="2.3139">
        <ele>34.599998474121</ele>
        <time>2016-07-18T18:35:45.000Z</time>
      </trkpt>
      <trkpt lat="48.86323" lon="2.31364">
        <ele>34.799999237061</ele>
        <time>2016-07-18T18:35:51.000Z</time>
      </trkpt>
      <trkpt lat="48.86322" lon="2.3133">
        <ele>32.400001525879</ele>
        <time>2016-07-18T18:35:57.000Z</time>
      </trkpt>
      <trkpt lat="48.8632" lon="2.31301">
        <ele>32.400001525879</ele>
        <time>2016-07-18T18:36:00.000Z</time>
      </trkpt>
      <trkpt lat="48.86316" lon="2.31269">
        <ele>32</ele>
        <time>2016-07-18T18:36:04.000Z</time>
      </trkpt>
      <trkpt lat="48.86313" lon="2.31241">
        <ele>31.60000038147</ele>
        <time>2016-07-18T18:36:07.000Z</time>
      </trkpt>
      <trkpt lat="48.86311" lon="2.31213">
        <ele>32</ele>
        <time>2016-07-18T18:36:10.000Z</time>
      </trkpt>
      <trkpt lat="48.86311" lon="2.31204">
        <ele>32.200000762939</ele>
        <time>2016-07-18T18:36:11.000Z</time>
      </trkpt>
      <trkpt lat="48.86308" lon="2.31169">
        <ele>32</ele>
        <time>2016-07-18T18:36:15.000Z</time>
      </trkpt>
      <trkpt lat="48.86306" lon="2.3114">
        <ele>33.400001525879</ele>
        <time>2016-07-18T18:36:18.000Z</time>
      </trkpt>
      <trkpt lat="48.86304" lon="2.31105">
        <ele>35.200000762939</ele>
        <time>2016-07-18T18:36:22.000Z</time>
      </trkpt>
      <trkpt lat="48.86302" lon="2.31076">
        <ele>35.799999237061</ele>
        <time>2016-07-18T18:36:26.000Z</time>
      </trkpt>
      <trkpt lat="48.86301" lon="2.31045">
        <ele>37.799999237061</ele>
        <time>2016-07-18T18:36:30.000Z</time>
      </trkpt>
      <trkpt lat="48.863" lon="2.31009">
        <ele>38.400001525879</ele>
        <time>2016-07-18T18:36:34.000Z</time>
      </trkpt>
      <trkpt lat="48.86299" lon="2.30974">
        <ele>38.599998474121</ele>
        <time>2016-07-18T18:36:38.000Z</time>
      </trkpt>
      <trkpt lat="48.86299" lon="2.30948">
        <ele>39.200000762939</ele>
        <time>2016-07-18T18:36:41.000Z</time>
      </trkpt>
      <trkpt lat="48.86299" lon="2.30912">
        <ele>41.799999237061</ele>
        <time>2016-07-18T18:36:45.000Z</time>
      </trkpt>
      <trkpt lat="48.86298" lon="2.30877">
        <ele>40.200000762939</ele>
        <time>2016-07-18T18:36:49.000Z</time>
      </trkpt>
      <trkpt lat="48.86297" lon="2.30849">
        <ele>39.400001525879</ele>
        <time>2016-07-18T18:36:52.000Z</time>
      </trkpt>
      <trkpt lat="48.86295" lon="2.30821">
        <ele>38.799999237061</ele>
        <time>2016-07-18T18:36:55.000Z</time>
      </trkpt>
      <trkpt lat="48.86295" lon="2.30811">
        <ele>38.200000762939</ele>
        <time>2016-07-18T18:36:56.000Z</time>
      </trkpt>
      <trkpt lat="48.86295" lon="2.30783">
        <ele>36.599998474121</ele>
        <time>2016-07-18T18:36:59.000Z</time>
      </trkpt>
      <trkpt lat="48.86293" lon="2.30756">
        <ele>36.799999237061</ele>
        <time>2016-07-18T18:37:02.000Z</time>
      </trkpt>
      <trkpt lat="48.86292" lon="2.30728">
        <ele>37.200000762939</ele>
        <time>2016-07-18T18:37:05.000Z</time>
      </trkpt>
      <trkpt lat="48.8629" lon="2.30701">
        <ele>36.799999237061</ele>
        <time>2016-07-18T18:37:08.000Z</time>
      </trkpt>
      <trkpt lat="48.86288" lon="2.30666">
        <ele>35.400001525879</ele>
        <time>2016-07-18T18:37:12.000Z</time>
      </trkpt>
      <trkpt lat="48.86288" lon="2.30648">
        <ele>35</ele>
        <time>2016-07-18T18:37:14.000Z</time>
      </trkpt>
      <trkpt lat="48.86288" lon="2.30621">
        <ele>35</ele>
        <time>2016-07-18T18:37:17.000Z</time>
      </trkpt>
      <trkpt lat="48.86289" lon="2.30593">
        <ele>34.799999237061</ele>
        <time>2016-07-18T18:37:21.000Z</time>
      </trkpt>
      <trkpt lat="48.86289" lon="2.30589">
        <ele>34.400001525879</ele>
        <time>2016-07-18T18:37:22.000Z</time>
      </trkpt>
      <trkpt lat="48.86291" lon="2.30559">
        <ele>33.799999237061</ele>
        <time>2016-07-18T18:37:29.000Z</time>
      </trkpt>
      <trkpt lat="48.8629" lon="2.30553">
        <ele>34.200000762939</ele>
        <time>2016-07-18T18:37:30.000Z</time>
      </trkpt>
      <trkpt lat="48.86287" lon="2.30528">
        <ele>35.200000762939</ele>
        <time>2016-07-18T18:37:34.000Z</time>
      </trkpt>
      <trkpt lat="48.86285" lon="2.30505">
        <ele>35.799999237061</ele>
        <time>2016-07-18T18:37:38.000Z</time>
      </trkpt>
      <trkpt lat="48.86284" lon="2.30493">
        <ele>36.400001525879</ele>
        <time>2016-07-18T18:37:40.000Z</time>
      </trkpt>
      <trkpt lat="48.86284" lon="2.30477">
        <ele>38</ele>
        <time>2016-07-18T18:37:43.000Z</time>
      </trkpt>
      <trkpt lat="48.86283" lon="2.30444">
        <ele>41.200000762939</ele>
        <time>2016-07-18T18:37:49.000Z</time>
      </trkpt>
      <trkpt lat="48.86282" lon="2.30428">
        <ele>43</ele>
        <time>2016-07-18T18:37:52.000Z</time>
      </trkpt>
      <trkpt lat="48.86281" lon="2.30405">
        <ele>44</ele>
        <time>2016-07-18T18:37:56.000Z</time>
      </trkpt>
      <trkpt lat="48.86278" lon="2.30394">
        <ele>44</ele>
        <time>2016-07-18T18:37:58.000Z</time>
      </trkpt>
      <trkpt lat="48.86272" lon="2.30368">
        <ele>44.400001525879</ele>
        <time>2016-07-18T18:38:04.000Z</time>
      </trkpt>
      <trkpt lat="48.86268" lon="2.30352">
        <ele>43.799999237061</ele>
        <time>2016-07-18T18:38:08.000Z</time>
      </trkpt>
      <trkpt lat="48.86267" lon="2.30346">
        <ele>43.599998474121</ele>
        <time>2016-07-18T18:38:10.000Z</time>
      </trkpt>
      <trkpt lat="48.86263" lon="2.30326">
        <ele>43</ele>
        <time>2016-07-18T18:38:19.000Z</time>
      </trkpt>
      <trkpt lat="48.86258" lon="2.30328">
        <ele>43</ele>
        <time>2016-07-18T18:39:30.000Z</time>
      </trkpt>
      <trkpt lat="48.86248" lon="2.30305">
        <ele>43.599998474121</ele>
        <time>2016-07-18T18:39:45.000Z</time>
      </trkpt>
      <trkpt lat="48.86247" lon="2.30276">
        <ele>42.200000762939</ele>
        <time>2016-07-18T18:39:53.000Z</time>
      </trkpt>
      <trkpt lat="48.86249" lon="2.30244">
        <ele>40.599998474121</ele>
        <time>2016-07-18T18:40:01.000Z</time>
      </trkpt>
      <trkpt lat="48.8625" lon="2.30213">
        <ele>38.799999237061</ele>
        <time>2016-07-18T18:40:08.000Z</time>
      </trkpt>
      <trkpt lat="48.86251" lon="2.30184">
        <ele>37.200000762939</ele>
        <time>2016-07-18T18:40:13.000Z</time>
      </trkpt>
      <trkpt lat="48.86249" lon="2.30156">
        <ele>35.799999237061</ele>
        <time>2016-07-18T18:40:18.000Z</time>
      </trkpt>
      <trkpt lat="48.86245" lon="2.30123">
        <ele>36.400001525879</ele>
        <time>2016-07-18T18:40:23.000Z</time>
      </trkpt>
      <trkpt lat="48.86242" lon="2.30091">
        <ele>38.400001525879</ele>
        <time>2016-07-18T18:40:28.000Z</time>
      </trkpt>
      <trkpt lat="48.86237" lon="2.30062">
        <ele>38.599998474121</ele>
        <time>2016-07-18T18:40:32.000Z</time>
      </trkpt>
      <trkpt lat="48.86237" lon="2.30033">
        <ele>37.799999237061</ele>
        <time>2016-07-18T18:40:36.000Z</time>
      </trkpt>
      <trkpt lat="48.86236" lon="2.30003">
        <ele>36.599998474121</ele>
        <time>2016-07-18T18:40:40.000Z</time>
      </trkpt>
      <trkpt lat="48.86233" lon="2.2997">
        <ele>35.200000762939</ele>
        <time>2016-07-18T18:40:44.000Z</time>
      </trkpt>
      <trkpt lat="48.86227" lon="2.29937">
        <ele>32.799999237061</ele>
        <time>2016-07-18T18:40:48.000Z</time>
      </trkpt>
      <trkpt lat="48.86224" lon="2.29928">
        <ele>32</ele>
        <time>2016-07-18T18:40:49.000Z</time>
      </trkpt>
      <trkpt lat="48.86217" lon="2.29902">
        <ele>30.200000762939</ele>
        <time>2016-07-18T18:40:52.000Z</time>
      </trkpt>
      <trkpt lat="48.86214" lon="2.29885">
        <ele>30</ele>
        <time>2016-07-18T18:40:54.000Z</time>
      </trkpt>
      <trkpt lat="48.86211" lon="2.29869">
        <ele>29.60000038147</ele>
        <time>2016-07-18T18:40:56.000Z</time>
      </trkpt>
      <trkpt lat="48.86203" lon="2.29837">
        <ele>29.39999961853</ele>
        <time>2016-07-18T18:41:00.000Z</time>
      </trkpt>
      <trkpt lat="48.86193" lon="2.29808">
        <ele>30.60000038147</ele>
        <time>2016-07-18T18:41:04.000Z</time>
      </trkpt>
      <trkpt lat="48.86183" lon="2.29778">
        <ele>31.799999237061</ele>
        <time>2016-07-18T18:41:08.000Z</time>
      </trkpt>
      <trkpt lat="48.86173" lon="2.29752">
        <ele>32.799999237061</ele>
        <time>2016-07-18T18:41:12.000Z</time>
      </trkpt>
      <trkpt lat="48.86166" lon="2.29733">
        <ele>33</ele>
        <time>2016-07-18T18:41:15.000Z</time>
      </trkpt>
      <trkpt lat="48.86156" lon="2.29707">
        <ele>33</ele>
        <time>2016-07-18T18:41:19.000Z</time>
      </trkpt>
      <trkpt lat="48.86147" lon="2.29681">
        <ele>32.799999237061</ele>
        <time>2016-07-18T18:41:23.000Z</time>
      </trkpt>
      <trkpt lat="48.86138" lon="2.29656">
        <ele>32.799999237061</ele>
        <time>2016-07-18T18:41:27.000Z</time>
      </trkpt>
      <trkpt lat="48.86125" lon="2.29633">
        <ele>33.599998474121</ele>
        <time>2016-07-18T18:41:31.000Z</time>
      </trkpt>
      <trkpt lat="48.86113" lon="2.2961">
        <ele>34.200000762939</ele>
        <time>2016-07-18T18:41:35.000Z</time>
      </trkpt>
      <trkpt lat="48.861" lon="2.29589">
        <ele>35.200000762939</ele>
        <time>2016-07-18T18:41:39.000Z</time>
      </trkpt>
      <trkpt lat="48.86087" lon="2.29568">
        <ele>36</ele>
        <time>2016-07-18T18:41:43.000Z</time>
      </trkpt>
      <trkpt lat="48.86083" lon="2.29564">
        <ele>36.200000762939</ele>
        <time>2016-07-18T18:41:44.000Z</time>
      </trkpt>
      <trkpt lat="48.86069" lon="2.29546">
        <ele>36.799999237061</ele>
        <time>2016-07-18T18:41:48.000Z</time>
      </trkpt>
      <trkpt lat="48.86055" lon="2.29527">
        <ele>37.400001525879</ele>
        <time>2016-07-18T18:41:52.000Z</time>
      </trkpt>
      <trkpt lat="48.86047" lon="2.29514">
        <ele>37.599998474121</ele>
        <time>2016-07-18T18:41:55.000Z</time>
      </trkpt>
      <trkpt lat="48.86033" lon="2.2949">
        <ele>37.799999237061</ele>
        <time>2016-07-18T18:42:01.000Z</time>
      </trkpt>
      <trkpt lat="48.86019" lon="2.29468">
        <ele>37.599998474121</ele>
        <time>2016-07-18T18:42:07.000Z</time>
      </trkpt>
      <trkpt lat="48.86016" lon="2.29464">
        <ele>37.799999237061</ele>
        <time>2016-07-18T18:42:08.000Z</time>
      </trkpt>
      <trkpt lat="48.86004" lon="2.29447">
        <ele>37.799999237061</ele>
        <time>2016-07-18T18:42:12.000Z</time>
      </trkpt>
      <trkpt lat="48.8599" lon="2.29426">
        <ele>38</ele>
        <time>2016-07-18T18:42:17.000Z</time>
      </trkpt>
      <trkpt lat="48.85976" lon="2.29406">
        <ele>38.200000762939</ele>
        <time>2016-07-18T18:42:21.000Z</time>
      </trkpt>
      <trkpt lat="48.8596" lon="2.29381">
        <ele>38.799999237061</ele>
        <time>2016-07-18T18:42:25.000Z</time>
      </trkpt>
      <trkpt lat="48.85947" lon="2.29356">
        <ele>39.200000762939</ele>
        <time>2016-07-18T18:42:28.000Z</time>
      </trkpt>
      <trkpt lat="48.85932" lon="2.2933">
        <ele>39</ele>
        <time>2016-07-18T18:42:31.000Z</time>
      </trkpt>
      <trkpt lat="48.85915" lon="2.29303">
        <ele>38.400001525879</ele>
        <time>2016-07-18T18:42:34.000Z</time>
      </trkpt>
      <trkpt lat="48.85903" lon="2.29283">
        <ele>37.599998474121</ele>
        <time>2016-07-18T18:42:36.000Z</time>
      </trkpt>
      <trkpt lat="48.85889" lon="2.29257">
        <ele>36.599998474121</ele>
        <time>2016-07-18T18:42:39.000Z</time>
      </trkpt>
      <trkpt lat="48.85867" lon="2.29242">
        <ele>36.799999237061</ele>
        <time>2016-07-18T18:42:43.000Z</time>
      </trkpt>
      <trkpt lat="48.85857" lon="2.29228">
        <ele>36</ele>
        <time>2016-07-18T18:42:46.000Z</time>
      </trkpt>
      <trkpt lat="48.85843" lon="2.29204">
        <ele>35.799999237061</ele>
        <time>2016-07-18T18:42:51.000Z</time>
      </trkpt>
      <trkpt lat="48.85829" lon="2.29185">
        <ele>36</ele>
        <time>2016-07-18T18:42:55.000Z</time>
      </trkpt>
      <trkpt lat="48.85814" lon="2.29164">
        <ele>36.200000762939</ele>
        <time>2016-07-18T18:42:59.000Z</time>
      </trkpt>
      <trkpt lat="48.85797" lon="2.29141">
        <ele>36.400001525879</ele>
        <time>2016-07-18T18:43:03.000Z</time>
      </trkpt>
      <trkpt lat="48.8578" lon="2.29118">
        <ele>36.599998474121</ele>
        <time>2016-07-18T18:43:07.000Z</time>
      </trkpt>
      <trkpt lat="48.85762" lon="2.29094">
        <ele>35.799999237061</ele>
        <time>2016-07-18T18:43:11.000Z</time>
      </trkpt>
      <trkpt lat="48.85744" lon="2.29071">
        <ele>35.400001525879</ele>
        <time>2016-07-18T18:43:15.000Z</time>
      </trkpt>
      <trkpt lat="48.85727" lon="2.29048">
        <ele>36.200000762939</ele>
        <time>2016-07-18T18:43:19.000Z</time>
      </trkpt>
      <trkpt lat="48.8571" lon="2.29029">
        <ele>37</ele>
        <time>2016-07-18T18:43:23.000Z</time>
      </trkpt>
      <trkpt lat="48.85692" lon="2.29014">
        <ele>37.799999237061</ele>
        <time>2016-07-18T18:43:27.000Z</time>
      </trkpt>
      <trkpt lat="48.85674" lon="2.28999">
        <ele>36.799999237061</ele>
        <time>2016-07-18T18:43:31.000Z</time>
      </trkpt>
      <trkpt lat="48.85656" lon="2.28987">
        <ele>35</ele>
        <time>2016-07-18T18:43:35.000Z</time>
      </trkpt>
      <trkpt lat="48.85638" lon="2.28979">
        <ele>33.200000762939</ele>
        <time>2016-07-18T18:43:39.000Z</time>
      </trkpt>
      <trkpt lat="48.8562" lon="2.28971">
        <ele>31.39999961853</ele>
        <time>2016-07-18T18:43:43.000Z</time>
      </trkpt>
      <trkpt lat="48.85601" lon="2.28964">
        <ele>30.799999237061</ele>
        <time>2016-07-18T18:43:47.000Z</time>
      </trkpt>
      <trkpt lat="48.85582" lon="2.28956">
        <ele>33</ele>
        <time>2016-07-18T18:43:51.000Z</time>
      </trkpt>
      <trkpt lat="48.85563" lon="2.28948">
        <ele>35.200000762939</ele>
        <time>2016-07-18T18:43:55.000Z</time>
      </trkpt>
      <trkpt lat="48.85546" lon="2.2894">
        <ele>37</ele>
        <time>2016-07-18T18:43:59.000Z</time>
      </trkpt>
      <trkpt lat="48.85539" lon="2.28936">
        <ele>37.799999237061</ele>
        <time>2016-07-18T18:44:01.000Z</time>
      </trkpt>
      <trkpt lat="48.85525" lon="2.28929">
        <ele>39</ele>
        <time>2016-07-18T18:44:05.000Z</time>
      </trkpt>
      <trkpt lat="48.85519" lon="2.28926">
        <ele>39.400001525879</ele>
        <time>2016-07-18T18:44:07.000Z</time>
      </trkpt>
      <trkpt lat="48.85503" lon="2.28911">
        <ele>40.200000762939</ele>
        <time>2016-07-18T18:44:13.000Z</time>
      </trkpt>
      <trkpt lat="48.85489" lon="2.28898">
        <ele>40.400001525879</ele>
        <time>2016-07-18T18:44:19.000Z</time>
      </trkpt>
      <trkpt lat="48.85485" lon="2.28896">
        <ele>40.599998474121</ele>
        <time>2016-07-18T18:44:22.000Z</time>
      </trkpt>
      <trkpt lat="48.85482" lon="2.28892">
        <ele>40.599998474121</ele>
        <time>2016-07-18T18:44:26.000Z</time>
      </trkpt>
      <trkpt lat="48.85481" lon="2.2889">
        <ele>40.599998474121</ele>
        <time>2016-07-18T18:44:27.000Z</time>
      </trkpt>
      <trkpt lat="48.85478" lon="2.28885">
        <ele>40.599998474121</ele>
        <time>2016-07-18T18:44:32.000Z</time>
      </trkpt>
      <trkpt lat="48.85469" lon="2.28869">
        <ele>40.599998474121</ele>
        <time>2016-07-18T18:45:27.000Z</time>
      </trkpt>
      <trkpt lat="48.85452" lon="2.28858">
        <ele>41.200000762939</ele>
        <time>2016-07-18T18:45:35.000Z</time>
      </trkpt>
      <trkpt lat="48.85437" lon="2.28837">
        <ele>41.200000762939</ele>
        <time>2016-07-18T18:45:40.000Z</time>
      </trkpt>
      <trkpt lat="48.85433" lon="2.28831">
        <ele>41</ele>
        <time>2016-07-18T18:45:41.000Z</time>
      </trkpt>
      <trkpt lat="48.85417" lon="2.28803">
        <ele>40.200000762939</ele>
        <time>2016-07-18T18:45:45.000Z</time>
      </trkpt>
      <trkpt lat="48.85405" lon="2.28778">
        <ele>38.799999237061</ele>
        <time>2016-07-18T18:45:48.000Z</time>
      </trkpt>
      <trkpt lat="48.85385" lon="2.28757">
        <ele>38.400001525879</ele>
        <time>2016-07-18T18:45:51.000Z</time>
      </trkpt>
      <trkpt lat="48.8537" lon="2.28735">
        <ele>38</ele>
        <time>2016-07-18T18:45:54.000Z</time>
      </trkpt>
      <trkpt lat="48.85354" lon="2.28714">
        <ele>38.200000762939</ele>
        <time>2016-07-18T18:45:57.000Z</time>
      </trkpt>
      <trkpt lat="48.85343" lon="2.28689">
        <ele>37.200000762939</ele>
        <time>2016-07-18T18:46:00.000Z</time>
      </trkpt>
      <trkpt lat="48.85327" lon="2.28668">
        <ele>36.599998474121</ele>
        <time>2016-07-18T18:46:03.000Z</time>
      </trkpt>
      <trkpt lat="48.85312" lon="2.2865">
        <ele>36.599998474121</ele>
        <time>2016-07-18T18:46:06.000Z</time>
      </trkpt>
      <trkpt lat="48.85295" lon="2.28635">
        <ele>37</ele>
        <time>2016-07-18T18:46:09.000Z</time>
      </trkpt>
      <trkpt lat="48.85281" lon="2.28619">
        <ele>37</ele>
        <time>2016-07-18T18:46:12.000Z</time>
      </trkpt>
      <trkpt lat="48.85258" lon="2.28603">
        <ele>38.599998474121</ele>
        <time>2016-07-18T18:46:16.000Z</time>
      </trkpt>
      <trkpt lat="48.85238" lon="2.28585">
        <ele>40.400001525879</ele>
        <time>2016-07-18T18:46:20.000Z</time>
      </trkpt>
      <trkpt lat="48.8522" lon="2.28564">
        <ele>39.799999237061</ele>
        <time>2016-07-18T18:46:24.000Z</time>
      </trkpt>
      <trkpt lat="48.85208" lon="2.2854">
        <ele>37.599998474121</ele>
        <time>2016-07-18T18:46:28.000Z</time>
      </trkpt>
      <trkpt lat="48.85193" lon="2.28517">
        <ele>35.799999237061</ele>
        <time>2016-07-18T18:46:32.000Z</time>
      </trkpt>
      <trkpt lat="48.85178" lon="2.28491">
        <ele>33.200000762939</ele>
        <time>2016-07-18T18:46:36.000Z</time>
      </trkpt>
      <trkpt lat="48.85163" lon="2.28467">
        <ele>33.200000762939</ele>
        <time>2016-07-18T18:46:40.000Z</time>
      </trkpt>
      <trkpt lat="48.85151" lon="2.28439">
        <ele>32.599998474121</ele>
        <time>2016-07-18T18:46:44.000Z</time>
      </trkpt>
      <trkpt lat="48.85139" lon="2.28418">
        <ele>32.200000762939</ele>
        <time>2016-07-18T18:46:47.000Z</time>
      </trkpt>
      <trkpt lat="48.85124" lon="2.28401">
        <ele>32.400001525879</ele>
        <time>2016-07-18T18:46:50.000Z</time>
      </trkpt>
      <trkpt lat="48.8511" lon="2.28383">
        <ele>32.400001525879</ele>
        <time>2016-07-18T18:46:53.000Z</time>
      </trkpt>
      <trkpt lat="48.85096" lon="2.28364">
        <ele>32.799999237061</ele>
        <time>2016-07-18T18:46:56.000Z</time>
      </trkpt>
      <trkpt lat="48.85082" lon="2.28345">
        <ele>33.599998474121</ele>
        <time>2016-07-18T18:46:59.000Z</time>
      </trkpt>
      <trkpt lat="48.85067" lon="2.28319">
        <ele>33.599998474121</ele>
        <time>2016-07-18T18:47:03.000Z</time>
      </trkpt>
      <trkpt lat="48.85048" lon="2.28299">
        <ele>34</ele>
        <time>2016-07-18T18:47:07.000Z</time>
      </trkpt>
      <trkpt lat="48.85039" lon="2.28289">
        <ele>34</ele>
        <time>2016-07-18T18:47:09.000Z</time>
      </trkpt>
      <trkpt lat="48.85022" lon="2.28271">
        <ele>34.400001525879</ele>
        <time>2016-07-18T18:47:13.000Z</time>
      </trkpt>
      <trkpt lat="48.85008" lon="2.28252">
        <ele>33.200000762939</ele>
        <time>2016-07-18T18:47:17.000Z</time>
      </trkpt>
      <trkpt lat="48.84992" lon="2.2823">
        <ele>32.400001525879</ele>
        <time>2016-07-18T18:47:22.000Z</time>
      </trkpt>
      <trkpt lat="48.84975" lon="2.28208">
        <ele>32</ele>
        <time>2016-07-18T18:47:27.000Z</time>
      </trkpt>
      <trkpt lat="48.84961" lon="2.2819">
        <ele>31.60000038147</ele>
        <time>2016-07-18T18:47:32.000Z</time>
      </trkpt>
      <trkpt lat="48.84957" lon="2.28179">
        <ele>31.200000762939</ele>
        <time>2016-07-18T18:47:35.000Z</time>
      </trkpt>
      <trkpt lat="48.84954" lon="2.28174">
        <ele>31</ele>
        <time>2016-07-18T18:47:37.000Z</time>
      </trkpt>
      <trkpt lat="48.84953" lon="2.28151">
        <ele>30.60000038147</ele>
        <time>2016-07-18T18:47:51.000Z</time>
      </trkpt>
      <trkpt lat="48.84955" lon="2.28149">
        <ele>30.60000038147</ele>
        <time>2016-07-18T18:47:52.000Z</time>
      </trkpt>
      <trkpt lat="48.84964" lon="2.2813">
        <ele>30.60000038147</ele>
        <time>2016-07-18T18:47:57.000Z</time>
      </trkpt>
      <trkpt lat="48.84977" lon="2.28109">
        <ele>29.799999237061</ele>
        <time>2016-07-18T18:48:03.000Z</time>
      </trkpt>
      <trkpt lat="48.84989" lon="2.28088">
        <ele>28</ele>
        <time>2016-07-18T18:48:08.000Z</time>
      </trkpt>
      <trkpt lat="48.85004" lon="2.28064">
        <ele>26.60000038147</ele>
        <time>2016-07-18T18:48:13.000Z</time>
      </trkpt>
      <trkpt lat="48.85017" lon="2.28044">
        <ele>27.200000762939</ele>
        <time>2016-07-18T18:48:17.000Z</time>
      </trkpt>
      <trkpt lat="48.8503" lon="2.28023">
        <ele>29</ele>
        <time>2016-07-18T18:48:21.000Z</time>
      </trkpt>
      <trkpt lat="48.85043" lon="2.28003">
        <ele>29.799999237061</ele>
        <time>2016-07-18T18:48:25.000Z</time>
      </trkpt>
      <trkpt lat="48.85056" lon="2.27981">
        <ele>30</ele>
        <time>2016-07-18T18:48:29.000Z</time>
      </trkpt>
      <trkpt lat="48.8507" lon="2.27958">
        <ele>31.200000762939</ele>
        <time>2016-07-18T18:48:33.000Z</time>
      </trkpt>
      <trkpt lat="48.85084" lon="2.27934">
        <ele>31.799999237061</ele>
        <time>2016-07-18T18:48:37.000Z</time>
      </trkpt>
      <trkpt lat="48.851" lon="2.27911">
        <ele>32.200000762939</ele>
        <time>2016-07-18T18:48:41.000Z</time>
      </trkpt>
      <trkpt lat="48.85116" lon="2.27889">
        <ele>34</ele>
        <time>2016-07-18T18:48:45.000Z</time>
      </trkpt>
      <trkpt lat="48.85127" lon="2.27875">
        <ele>35.200000762939</ele>
        <time>2016-07-18T18:48:48.000Z</time>
      </trkpt>
      <trkpt lat="48.85132" lon="2.27867">
        <ele>36</ele>
        <time>2016-07-18T18:48:50.000Z</time>
      </trkpt>
      <trkpt lat="48.85135" lon="2.27862">
        <ele>36.400001525879</ele>
        <time>2016-07-18T18:48:53.000Z</time>
      </trkpt>
      <trkpt lat="48.85134" lon="2.27844">
        <ele>36.799999237061</ele>
        <time>2016-07-18T18:49:39.000Z</time>
      </trkpt>
      <trkpt lat="48.85127" lon="2.27818">
        <ele>37</ele>
        <time>2016-07-18T18:49:52.000Z</time>
      </trkpt>
      <trkpt lat="48.8511" lon="2.27795">
        <ele>37</ele>
        <time>2016-07-18T18:49:57.000Z</time>
      </trkpt>
      <trkpt lat="48.85094" lon="2.27774">
        <ele>37</ele>
        <time>2016-07-18T18:50:01.000Z</time>
      </trkpt>
      <trkpt lat="48.85078" lon="2.2775">
        <ele>37</ele>
        <time>2016-07-18T18:50:05.000Z</time>
      </trkpt>
      <trkpt lat="48.8506" lon="2.27726">
        <ele>38.599998474121</ele>
        <time>2016-07-18T18:50:09.000Z</time>
      </trkpt>
      <trkpt lat="48.85042" lon="2.27703">
        <ele>40.599998474121</ele>
        <time>2016-07-18T18:50:13.000Z</time>
      </trkpt>
      <trkpt lat="48.85026" lon="2.2768">
        <ele>42.599998474121</ele>
        <time>2016-07-18T18:50:17.000Z</time>
      </trkpt>
      <trkpt lat="48.85013" lon="2.27653">
        <ele>44.400001525879</ele>
        <time>2016-07-18T18:50:21.000Z</time>
      </trkpt>
      <trkpt lat="48.85008" lon="2.27629">
        <ele>44.400001525879</ele>
        <time>2016-07-18T18:50:24.000Z</time>
      </trkpt>
      <trkpt lat="48.84992" lon="2.2761">
        <ele>45.200000762939</ele>
        <time>2016-07-18T18:50:28.000Z</time>
      </trkpt>
      <trkpt lat="48.84981" lon="2.27595">
        <ele>45.599998474121</ele>
        <time>2016-07-18T18:50:31.000Z</time>
      </trkpt>
      <trkpt lat="48.84966" lon="2.27575">
        <ele>46.200000762939</ele>
        <time>2016-07-18T18:50:35.000Z</time>
      </trkpt>
      <trkpt lat="48.84961" lon="2.27571">
        <ele>46.400001525879</ele>
        <time>2016-07-18T18:50:36.000Z</time>
      </trkpt>
      <trkpt lat="48.84944" lon="2.2755">
        <ele>47</ele>
        <time>2016-07-18T18:50:40.000Z</time>
      </trkpt>
      <trkpt lat="48.84929" lon="2.27529">
        <ele>46.799999237061</ele>
        <time>2016-07-18T18:50:44.000Z</time>
      </trkpt>
      <trkpt lat="48.84916" lon="2.27513">
        <ele>46.400001525879</ele>
        <time>2016-07-18T18:50:48.000Z</time>
      </trkpt>
      <trkpt lat="48.84897" lon="2.27504">
        <ele>46.200000762939</ele>
        <time>2016-07-18T18:50:53.000Z</time>
      </trkpt>
      <trkpt lat="48.84883" lon="2.27496">
        <ele>46</ele>
        <time>2016-07-18T18:50:56.000Z</time>
      </trkpt>
      <trkpt lat="48.84864" lon="2.27479">
        <ele>45.400001525879</ele>
        <time>2016-07-18T18:51:00.000Z</time>
      </trkpt>
      <trkpt lat="48.84846" lon="2.27463">
        <ele>44.599998474121</ele>
        <time>2016-07-18T18:51:04.000Z</time>
      </trkpt>
      <trkpt lat="48.84826" lon="2.27447">
        <ele>43.799999237061</ele>
        <time>2016-07-18T18:51:08.000Z</time>
      </trkpt>
      <trkpt lat="48.84806" lon="2.27437">
        <ele>43.200000762939</ele>
        <time>2016-07-18T18:51:12.000Z</time>
      </trkpt>
      <trkpt lat="48.84786" lon="2.27419">
        <ele>42.400001525879</ele>
        <time>2016-07-18T18:51:16.000Z</time>
      </trkpt>
      <trkpt lat="48.84767" lon="2.27407">
        <ele>41.799999237061</ele>
        <time>2016-07-18T18:51:19.000Z</time>
      </trkpt>
      <trkpt lat="48.84749" lon="2.27387">
        <ele>41.599998474121</ele>
        <time>2016-07-18T18:51:22.000Z</time>
      </trkpt>
      <trkpt lat="48.8473" lon="2.27365">
        <ele>41.200000762939</ele>
        <time>2016-07-18T18:51:26.000Z</time>
      </trkpt>
      <trkpt lat="48.84712" lon="2.27344">
        <ele>40.799999237061</ele>
        <time>2016-07-18T18:51:30.000Z</time>
      </trkpt>
      <trkpt lat="48.84696" lon="2.27328">
        <ele>40.400001525879</ele>
        <time>2016-07-18T18:51:33.000Z</time>
      </trkpt>
      <trkpt lat="48.84676" lon="2.27311">
        <ele>39.599998474121</ele>
        <time>2016-07-18T18:51:37.000Z</time>
      </trkpt>
      <trkpt lat="48.84656" lon="2.27291">
        <ele>38.799999237061</ele>
        <time>2016-07-18T18:51:41.000Z</time>
      </trkpt>
      <trkpt lat="48.8464" lon="2.27274">
        <ele>38</ele>
        <time>2016-07-18T18:51:44.000Z</time>
      </trkpt>
      <trkpt lat="48.84624" lon="2.27259">
        <ele>37.200000762939</ele>
        <time>2016-07-18T18:51:47.000Z</time>
      </trkpt>
      <trkpt lat="48.84619" lon="2.27254">
        <ele>37</ele>
        <time>2016-07-18T18:51:48.000Z</time>
      </trkpt>
      <trkpt lat="48.846" lon="2.27235">
        <ele>37</ele>
        <time>2016-07-18T18:51:52.000Z</time>
      </trkpt>
      <trkpt lat="48.84585" lon="2.27217">
        <ele>38.400001525879</ele>
        <time>2016-07-18T18:51:55.000Z</time>
      </trkpt>
      <trkpt lat="48.84571" lon="2.27198">
        <ele>40</ele>
        <time>2016-07-18T18:51:58.000Z</time>
      </trkpt>
      <trkpt lat="48.84566" lon="2.27192">
        <ele>40.400001525879</ele>
        <time>2016-07-18T18:51:59.000Z</time>
      </trkpt>
      <trkpt lat="48.84551" lon="2.27176">
        <ele>41.599998474121</ele>
        <time>2016-07-18T18:52:02.000Z</time>
      </trkpt>
      <trkpt lat="48.84535" lon="2.27162">
        <ele>42.400001525879</ele>
        <time>2016-07-18T18:52:05.000Z</time>
      </trkpt>
      <trkpt lat="48.84518" lon="2.27145">
        <ele>41.799999237061</ele>
        <time>2016-07-18T18:52:08.000Z</time>
      </trkpt>
      <trkpt lat="48.84503" lon="2.27129">
        <ele>42.599998474121</ele>
        <time>2016-07-18T18:52:11.000Z</time>
      </trkpt>
      <trkpt lat="48.84487" lon="2.27112">
        <ele>43.400001525879</ele>
        <time>2016-07-18T18:52:14.000Z</time>
      </trkpt>
      <trkpt lat="48.8447" lon="2.27095">
        <ele>44.200000762939</ele>
        <time>2016-07-18T18:52:17.000Z</time>
      </trkpt>
      <trkpt lat="48.84453" lon="2.27078">
        <ele>45</ele>
        <time>2016-07-18T18:52:20.000Z</time>
      </trkpt>
      <trkpt lat="48.84435" lon="2.27061">
        <ele>45.799999237061</ele>
        <time>2016-07-18T18:52:23.000Z</time>
      </trkpt>
      <trkpt lat="48.84414" lon="2.27046">
        <ele>46.200000762939</ele>
        <time>2016-07-18T18:52:26.000Z</time>
      </trkpt>
      <trkpt lat="48.8439" lon="2.27034">
        <ele>46.599998474121</ele>
        <time>2016-07-18T18:52:29.000Z</time>
      </trkpt>
      <trkpt lat="48.84371" lon="2.27016">
        <ele>46.799999237061</ele>
        <time>2016-07-18T18:52:32.000Z</time>
      </trkpt>
      <trkpt lat="48.84351" lon="2.26999">
        <ele>46.599998474121</ele>
        <time>2016-07-18T18:52:35.000Z</time>
      </trkpt>
      <trkpt lat="48.84333" lon="2.26983">
        <ele>45.599998474121</ele>
        <time>2016-07-18T18:52:38.000Z</time>
      </trkpt>
      <trkpt lat="48.84319" lon="2.26949">
        <ele>45.400001525879</ele>
        <time>2016-07-18T18:52:42.000Z</time>
      </trkpt>
      <trkpt lat="48.84305" lon="2.26931">
        <ele>44.599998474121</ele>
        <time>2016-07-18T18:52:45.000Z</time>
      </trkpt>
      <trkpt lat="48.8429" lon="2.26911">
        <ele>44</ele>
        <time>2016-07-18T18:52:48.000Z</time>
      </trkpt>
      <trkpt lat="48.84273" lon="2.26891">
        <ele>44.200000762939</ele>
        <time>2016-07-18T18:52:51.000Z</time>
      </trkpt>
      <trkpt lat="48.8427" lon="2.26884">
        <ele>44.200000762939</ele>
        <time>2016-07-18T18:52:52.000Z</time>
      </trkpt>
      <trkpt lat="48.84258" lon="2.26864">
        <ele>43.400001525879</ele>
        <time>2016-07-18T18:52:55.000Z</time>
      </trkpt>
      <trkpt lat="48.84249" lon="2.26831">
        <ele>43</ele>
        <time>2016-07-18T18:52:58.000Z</time>
      </trkpt>
      <trkpt lat="48.8424" lon="2.26815">
        <ele>43.200000762939</ele>
        <time>2016-07-18T18:53:00.000Z</time>
      </trkpt>
      <trkpt lat="48.84226" lon="2.26789">
        <ele>43.599998474121</ele>
        <time>2016-07-18T18:53:03.000Z</time>
      </trkpt>
      <trkpt lat="48.8421" lon="2.26763">
        <ele>43.200000762939</ele>
        <time>2016-07-18T18:53:06.000Z</time>
      </trkpt>
      <trkpt lat="48.84194" lon="2.2674">
        <ele>43</ele>
        <time>2016-07-18T18:53:09.000Z</time>
      </trkpt>
      <trkpt lat="48.84178" lon="2.26718">
        <ele>43.599998474121</ele>
        <time>2016-07-18T18:53:12.000Z</time>
      </trkpt>
      <trkpt lat="48.84165" lon="2.26695">
        <ele>44</ele>
        <time>2016-07-18T18:53:15.000Z</time>
      </trkpt>
      <trkpt lat="48.84151" lon="2.26674">
        <ele>44.200000762939</ele>
        <time>2016-07-18T18:53:18.000Z</time>
      </trkpt>
      <trkpt lat="48.84142" lon="2.2664">
        <ele>44.799999237061</ele>
        <time>2016-07-18T18:53:22.000Z</time>
      </trkpt>
      <trkpt lat="48.84131" lon="2.26614">
        <ele>44.799999237061</ele>
        <time>2016-07-18T18:53:26.000Z</time>
      </trkpt>
      <trkpt lat="48.8413" lon="2.26574">
        <ele>44.799999237061</ele>
        <time>2016-07-18T18:53:31.000Z</time>
      </trkpt>
      <trkpt lat="48.84114" lon="2.26554">
        <ele>44.799999237061</ele>
        <time>2016-07-18T18:53:36.000Z</time>
      </trkpt>
      <trkpt lat="48.84111" lon="2.26552">
        <ele>45</ele>
        <time>2016-07-18T18:53:37.000Z</time>
      </trkpt>
      <trkpt lat="48.84106" lon="2.26547">
        <ele>45</ele>
        <time>2016-07-18T18:53:41.000Z</time>
      </trkpt>
      <trkpt lat="48.84105" lon="2.26545">
        <ele>45</ele>
        <time>2016-07-18T18:53:44.000Z</time>
      </trkpt>
      <trkpt lat="48.84106" lon="2.26544">
        <ele>45</ele>
        <time>2016-07-18T18:55:41.000Z</time>
      </trkpt>
      <trkpt lat="48.84106" lon="2.26545">
        <ele>45</ele>
        <time>2016-07-18T18:57:25.000Z</time>
      </trkpt>
      <trkpt lat="48.84092" lon="2.26534">
        <ele>45.599998474121</ele>
        <time>2016-07-18T18:58:03.000Z</time>
      </trkpt>
      <trkpt lat="48.8408" lon="2.26511">
        <ele>46.200000762939</ele>
        <time>2016-07-18T18:58:09.000Z</time>
      </trkpt>
      <trkpt lat="48.84067" lon="2.26491">
        <ele>46.599998474121</ele>
        <time>2016-07-18T18:58:14.000Z</time>
      </trkpt>
      <trkpt lat="48.84053" lon="2.26465">
        <ele>46</ele>
        <time>2016-07-18T18:58:19.000Z</time>
      </trkpt>
      <trkpt lat="48.84037" lon="2.26441">
        <ele>45.599998474121</ele>
        <time>2016-07-18T18:58:23.000Z</time>
      </trkpt>
      <trkpt lat="48.84024" lon="2.26421">
        <ele>45.400001525879</ele>
        <time>2016-07-18T18:58:26.000Z</time>
      </trkpt>
      <trkpt lat="48.84009" lon="2.26399">
        <ele>45.200000762939</ele>
        <time>2016-07-18T18:58:29.000Z</time>
      </trkpt>
      <trkpt lat="48.83994" lon="2.26376">
        <ele>45.200000762939</ele>
        <time>2016-07-18T18:58:32.000Z</time>
      </trkpt>
      <trkpt lat="48.83978" lon="2.26354">
        <ele>45.400001525879</ele>
        <time>2016-07-18T18:58:35.000Z</time>
      </trkpt>
      <trkpt lat="48.83961" lon="2.26331">
        <ele>45.400001525879</ele>
        <time>2016-07-18T18:58:38.000Z</time>
      </trkpt>
      <trkpt lat="48.83948" lon="2.26305">
        <ele>46</ele>
        <time>2016-07-18T18:58:41.000Z</time>
      </trkpt>
      <trkpt lat="48.83936" lon="2.26275">
        <ele>46.599998474121</ele>
        <time>2016-07-18T18:58:44.000Z</time>
      </trkpt>
      <trkpt lat="48.83928" lon="2.26241">
        <ele>46.599998474121</ele>
        <time>2016-07-18T18:58:47.000Z</time>
      </trkpt>
      <trkpt lat="48.83919" lon="2.26215">
        <ele>45.599998474121</ele>
        <time>2016-07-18T18:58:50.000Z</time>
      </trkpt>
      <trkpt lat="48.83911" lon="2.26189">
        <ele>44.599998474121</ele>
        <time>2016-07-18T18:58:53.000Z</time>
      </trkpt>
      <trkpt lat="48.83903" lon="2.26164">
        <ele>43.599998474121</ele>
        <time>2016-07-18T18:58:56.000Z</time>
      </trkpt>
      <trkpt lat="48.839" lon="2.26128">
        <ele>44.799999237061</ele>
        <time>2016-07-18T18:59:00.000Z</time>
      </trkpt>
      <trkpt lat="48.83891" lon="2.26094">
        <ele>45.599998474121</ele>
        <time>2016-07-18T18:59:04.000Z</time>
      </trkpt>
      <trkpt lat="48.83884" lon="2.26068">
        <ele>45.799999237061</ele>
        <time>2016-07-18T18:59:07.000Z</time>
      </trkpt>
      <trkpt lat="48.83876" lon="2.26044">
        <ele>45.599998474121</ele>
        <time>2016-07-18T18:59:10.000Z</time>
      </trkpt>
      <trkpt lat="48.83864" lon="2.26012">
        <ele>45.200000762939</ele>
        <time>2016-07-18T18:59:14.000Z</time>
      </trkpt>
      <trkpt lat="48.83854" lon="2.25981">
        <ele>44.599998474121</ele>
        <time>2016-07-18T18:59:18.000Z</time>
      </trkpt>
      <trkpt lat="48.83844" lon="2.25948">
        <ele>43.599998474121</ele>
        <time>2016-07-18T18:59:22.000Z</time>
      </trkpt>
      <trkpt lat="48.83833" lon="2.25916">
        <ele>43</ele>
        <time>2016-07-18T18:59:26.000Z</time>
      </trkpt>
      <trkpt lat="48.83819" lon="2.25887">
        <ele>43</ele>
        <time>2016-07-18T18:59:30.000Z</time>
      </trkpt>
      <trkpt lat="48.83816" lon="2.25879">
        <ele>43</ele>
        <time>2016-07-18T18:59:31.000Z</time>
      </trkpt>
      <trkpt lat="48.83807" lon="2.25847">
        <ele>43.200000762939</ele>
        <time>2016-07-18T18:59:35.000Z</time>
      </trkpt>
      <trkpt lat="48.83804" lon="2.25819">
        <ele>42.599998474121</ele>
        <time>2016-07-18T18:59:38.000Z</time>
      </trkpt>
      <trkpt lat="48.83801" lon="2.25792">
        <ele>41</ele>
        <time>2016-07-18T18:59:41.000Z</time>
      </trkpt>
      <trkpt lat="48.83807" lon="2.25763">
        <ele>39.799999237061</ele>
        <time>2016-07-18T18:59:45.000Z</time>
      </trkpt>
      <trkpt lat="48.83816" lon="2.25749">
        <ele>39.599998474121</ele>
        <time>2016-07-18T18:59:47.000Z</time>
      </trkpt>
      <trkpt lat="48.83829" lon="2.25728">
        <ele>39</ele>
        <time>2016-07-18T18:59:52.000Z</time>
      </trkpt>
      <trkpt lat="48.83835" lon="2.25715">
        <ele>39.200000762939</ele>
        <time>2016-07-18T18:59:57.000Z</time>
      </trkpt>
      <trkpt lat="48.83837" lon="2.25696">
        <ele>39.400001525879</ele>
        <time>2016-07-18T19:00:15.000Z</time>
      </trkpt>
      <trkpt lat="48.83837" lon="2.25668">
        <ele>39.799999237061</ele>
        <time>2016-07-18T19:00:22.000Z</time>
      </trkpt>
      <trkpt lat="48.83829" lon="2.25641">
        <ele>39.400001525879</ele>
        <time>2016-07-18T19:00:27.000Z</time>
      </trkpt>
      <trkpt lat="48.83828" lon="2.25608">
        <ele>39.400001525879</ele>
        <time>2016-07-18T19:00:32.000Z</time>
      </trkpt>
      <trkpt lat="48.83834" lon="2.25576">
        <ele>39.799999237061</ele>
        <time>2016-07-18T19:00:37.000Z</time>
      </trkpt>
      <trkpt lat="48.83847" lon="2.25555">
        <ele>40.200000762939</ele>
        <time>2016-07-18T19:00:41.000Z</time>
      </trkpt>
      <trkpt lat="48.83856" lon="2.25531">
        <ele>39.799999237061</ele>
        <time>2016-07-18T19:00:45.000Z</time>
      </trkpt>
      <trkpt lat="48.8386" lon="2.25504">
        <ele>39.400001525879</ele>
        <time>2016-07-18T19:00:50.000Z</time>
      </trkpt>
      <trkpt lat="48.83864" lon="2.25473">
        <ele>39.200000762939</ele>
        <time>2016-07-18T19:00:56.000Z</time>
      </trkpt>
      <trkpt lat="48.83868" lon="2.25444">
        <ele>39.200000762939</ele>
        <time>2016-07-18T19:01:03.000Z</time>
      </trkpt>
      <trkpt lat="48.83873" lon="2.25417">
        <ele>39.200000762939</ele>
        <time>2016-07-18T19:01:09.000Z</time>
      </trkpt>
      <trkpt lat="48.83874" lon="2.25389">
        <ele>39.599998474121</ele>
        <time>2016-07-18T19:01:15.000Z</time>
      </trkpt>
      <trkpt lat="48.83866" lon="2.2536">
        <ele>39.799999237061</ele>
        <time>2016-07-18T19:01:21.000Z</time>
      </trkpt>
      <trkpt lat="48.83862" lon="2.25329">
        <ele>40.200000762939</ele>
        <time>2016-07-18T19:01:26.000Z</time>
      </trkpt>
      <trkpt lat="48.8386" lon="2.253">
        <ele>39.799999237061</ele>
        <time>2016-07-18T19:01:30.000Z</time>
      </trkpt>
      <trkpt lat="48.83862" lon="2.25273">
        <ele>39.599998474121</ele>
        <time>2016-07-18T19:01:34.000Z</time>
      </trkpt>
      <trkpt lat="48.83867" lon="2.25245">
        <ele>39.400001525879</ele>
        <time>2016-07-18T19:01:38.000Z</time>
      </trkpt>
      <trkpt lat="48.83872" lon="2.25218">
        <ele>40.200000762939</ele>
        <time>2016-07-18T19:01:42.000Z</time>
      </trkpt>
      <trkpt lat="48.83877" lon="2.25189">
        <ele>41.200000762939</ele>
        <time>2016-07-18T19:01:46.000Z</time>
      </trkpt>
      <trkpt lat="48.8388" lon="2.25161">
        <ele>42.200000762939</ele>
        <time>2016-07-18T19:01:50.000Z</time>
      </trkpt>
      <trkpt lat="48.8388" lon="2.25154">
        <ele>42.400001525879</ele>
        <time>2016-07-18T19:01:51.000Z</time>
      </trkpt>
      <trkpt lat="48.83882" lon="2.25134">
        <ele>43</ele>
        <time>2016-07-18T19:01:54.000Z</time>
      </trkpt>
      <trkpt lat="48.83884" lon="2.25122">
        <ele>43.400001525879</ele>
        <time>2016-07-18T19:01:56.000Z</time>
      </trkpt>
      <trkpt lat="48.83889" lon="2.25106">
        <ele>44</ele>
        <time>2016-07-18T19:02:00.000Z</time>
      </trkpt>
      <trkpt lat="48.8389" lon="2.25087">
        <ele>44.400001525879</ele>
        <time>2016-07-18T19:02:06.000Z</time>
      </trkpt>
      <trkpt lat="48.83895" lon="2.25059">
        <ele>45.200000762939</ele>
        <time>2016-07-18T19:02:13.000Z</time>
      </trkpt>
      <trkpt lat="48.83903" lon="2.25031">
        <ele>45.200000762939</ele>
        <time>2016-07-18T19:02:18.000Z</time>
      </trkpt>
      <trkpt lat="48.83907" lon="2.25004">
        <ele>44.400001525879</ele>
        <time>2016-07-18T19:02:23.000Z</time>
      </trkpt>
      <trkpt lat="48.83914" lon="2.24972">
        <ele>43.400001525879</ele>
        <time>2016-07-18T19:02:28.000Z</time>
      </trkpt>
      <trkpt lat="48.83922" lon="2.24941">
        <ele>43.200000762939</ele>
        <time>2016-07-18T19:02:32.000Z</time>
      </trkpt>
      <trkpt lat="48.83924" lon="2.24913">
        <ele>42.799999237061</ele>
        <time>2016-07-18T19:02:36.000Z</time>
      </trkpt>
      <trkpt lat="48.8393" lon="2.24884">
        <ele>43</ele>
        <time>2016-07-18T19:02:40.000Z</time>
      </trkpt>
      <trkpt lat="48.83934" lon="2.24855">
        <ele>43.400001525879</ele>
        <time>2016-07-18T19:02:44.000Z</time>
      </trkpt>
      <trkpt lat="48.83946" lon="2.24825">
        <ele>44</ele>
        <time>2016-07-18T19:02:48.000Z</time>
      </trkpt>
      <trkpt lat="48.83959" lon="2.24802">
        <ele>43.799999237061</ele>
        <time>2016-07-18T19:02:51.000Z</time>
      </trkpt>
      <trkpt lat="48.83963" lon="2.24773">
        <ele>43.799999237061</ele>
        <time>2016-07-18T19:02:54.000Z</time>
      </trkpt>
      <trkpt lat="48.83966" lon="2.24748">
        <ele>44</ele>
        <time>2016-07-18T19:02:57.000Z</time>
      </trkpt>
      <trkpt lat="48.83973" lon="2.24722">
        <ele>43.799999237061</ele>
        <time>2016-07-18T19:03:01.000Z</time>
      </trkpt>
      <trkpt lat="48.83974" lon="2.24715">
        <ele>43.599998474121</ele>
        <time>2016-07-18T19:03:03.000Z</time>
      </trkpt>
      <trkpt lat="48.83975" lon="2.24712">
        <ele>43.599998474121</ele>
        <time>2016-07-18T19:03:05.000Z</time>
      </trkpt>
      <trkpt lat="48.83978" lon="2.24693">
        <ele>43.400001525879</ele>
        <time>2016-07-18T19:03:12.000Z</time>
      </trkpt>
      <trkpt lat="48.83979" lon="2.24688">
        <ele>43.400001525879</ele>
        <time>2016-07-18T19:03:13.000Z</time>
      </trkpt>
      <trkpt lat="48.83983" lon="2.24659">
        <ele>43</ele>
        <time>2016-07-18T19:03:18.000Z</time>
      </trkpt>
      <trkpt lat="48.83988" lon="2.24633">
        <ele>42.200000762939</ele>
        <time>2016-07-18T19:03:22.000Z</time>
      </trkpt>
      <trkpt lat="48.83989" lon="2.24627">
        <ele>42.200000762939</ele>
        <time>2016-07-18T19:03:23.000Z</time>
      </trkpt>
      <trkpt lat="48.83994" lon="2.24605">
        <ele>41.599998474121</ele>
        <time>2016-07-18T19:03:27.000Z</time>
      </trkpt>
      <trkpt lat="48.83998" lon="2.24578">
        <ele>41</ele>
        <time>2016-07-18T19:03:31.000Z</time>
      </trkpt>
      <trkpt lat="48.83999" lon="2.24546">
        <ele>40.799999237061</ele>
        <time>2016-07-18T19:03:36.000Z</time>
      </trkpt>
      <trkpt lat="48.84001" lon="2.24513">
        <ele>41.200000762939</ele>
        <time>2016-07-18T19:03:40.000Z</time>
      </trkpt>
      <trkpt lat="48.84002" lon="2.24482">
        <ele>41.599998474121</ele>
        <time>2016-07-18T19:03:46.000Z</time>
      </trkpt>
      <trkpt lat="48.84006" lon="2.24452">
        <ele>42</ele>
        <time>2016-07-18T19:03:51.000Z</time>
      </trkpt>
      <trkpt lat="48.84006" lon="2.24447">
        <ele>42</ele>
        <time>2016-07-18T19:03:52.000Z</time>
      </trkpt>
      <trkpt lat="48.8402" lon="2.24417">
        <ele>42.799999237061</ele>
        <time>2016-07-18T19:03:56.000Z</time>
      </trkpt>
      <trkpt lat="48.84025" lon="2.24406">
        <ele>43.200000762939</ele>
        <time>2016-07-18T19:03:57.000Z</time>
      </trkpt>
      <trkpt lat="48.84032" lon="2.24376">
        <ele>43.799999237061</ele>
        <time>2016-07-18T19:04:01.000Z</time>
      </trkpt>
      <trkpt lat="48.84036" lon="2.24345">
        <ele>44.400001525879</ele>
        <time>2016-07-18T19:04:06.000Z</time>
      </trkpt>
      <trkpt lat="48.84036" lon="2.24339">
        <ele>44.200000762939</ele>
        <time>2016-07-18T19:04:07.000Z</time>
      </trkpt>
      <trkpt lat="48.84045" lon="2.2431">
        <ele>43</ele>
        <time>2016-07-18T19:04:12.000Z</time>
      </trkpt>
      <trkpt lat="48.84046" lon="2.243">
        <ele>42.799999237061</ele>
        <time>2016-07-18T19:04:14.000Z</time>
      </trkpt>
      <trkpt lat="48.84047" lon="2.24284">
        <ele>42.400001525879</ele>
        <time>2016-07-18T19:04:17.000Z</time>
      </trkpt>
      <trkpt lat="48.84052" lon="2.24261">
        <ele>41.799999237061</ele>
        <time>2016-07-18T19:04:21.000Z</time>
      </trkpt>
      <trkpt lat="48.84056" lon="2.2423">
        <ele>41.599998474121</ele>
        <time>2016-07-18T19:04:26.000Z</time>
      </trkpt>
      <trkpt lat="48.84061" lon="2.24199">
        <ele>41.599998474121</ele>
        <time>2016-07-18T19:04:32.000Z</time>
      </trkpt>
      <trkpt lat="48.84066" lon="2.2417">
        <ele>42.799999237061</ele>
        <time>2016-07-18T19:04:37.000Z</time>
      </trkpt>
      <trkpt lat="48.84074" lon="2.24145">
        <ele>43.200000762939</ele>
        <time>2016-07-18T19:04:41.000Z</time>
      </trkpt>
      <trkpt lat="48.84085" lon="2.24119">
        <ele>43.200000762939</ele>
        <time>2016-07-18T19:04:45.000Z</time>
      </trkpt>
      <trkpt lat="48.84094" lon="2.24095">
        <ele>43</ele>
        <time>2016-07-18T19:04:49.000Z</time>
      </trkpt>
      <trkpt lat="48.84103" lon="2.24068">
        <ele>42.599998474121</ele>
        <time>2016-07-18T19:04:53.000Z</time>
      </trkpt>
      <trkpt lat="48.84109" lon="2.24049">
        <ele>41.799999237061</ele>
        <time>2016-07-18T19:04:56.000Z</time>
      </trkpt>
      <trkpt lat="48.84113" lon="2.24021">
        <ele>40.799999237061</ele>
        <time>2016-07-18T19:05:00.000Z</time>
      </trkpt>
      <trkpt lat="48.84117" lon="2.24">
        <ele>40</ele>
        <time>2016-07-18T19:05:03.000Z</time>
      </trkpt>
      <trkpt lat="48.84122" lon="2.2397">
        <ele>39.599998474121</ele>
        <time>2016-07-18T19:05:08.000Z</time>
      </trkpt>
      <trkpt lat="48.84125" lon="2.23943">
        <ele>39.200000762939</ele>
        <time>2016-07-18T19:05:15.000Z</time>
      </trkpt>
      <trkpt lat="48.84127" lon="2.23939">
        <ele>39</ele>
        <time>2016-07-18T19:05:17.000Z</time>
      </trkpt>
      <trkpt lat="48.84127" lon="2.23932">
        <ele>39</ele>
        <time>2016-07-18T19:05:18.000Z</time>
      </trkpt>
      <trkpt lat="48.84141" lon="2.23906">
        <ele>40.200000762939</ele>
        <time>2016-07-18T19:05:32.000Z</time>
      </trkpt>
      <trkpt lat="48.84148" lon="2.23903">
        <ele>40.599998474121</ele>
        <time>2016-07-18T19:06:26.000Z</time>
      </trkpt>
      <trkpt lat="48.84169" lon="2.23891">
        <ele>41.200000762939</ele>
        <time>2016-07-18T19:06:36.000Z</time>
      </trkpt>
      <trkpt lat="48.84189" lon="2.23887">
        <ele>41.400001525879</ele>
        <time>2016-07-18T19:06:42.000Z</time>
      </trkpt>
      <trkpt lat="48.84206" lon="2.23881">
        <ele>41</ele>
        <time>2016-07-18T19:06:47.000Z</time>
      </trkpt>
      <trkpt lat="48.84224" lon="2.23875">
        <ele>40.599998474121</ele>
        <time>2016-07-18T19:06:53.000Z</time>
      </trkpt>
      <trkpt lat="48.84244" lon="2.23866">
        <ele>40.599998474121</ele>
        <time>2016-07-18T19:06:58.000Z</time>
      </trkpt>
      <trkpt lat="48.84262" lon="2.23855">
        <ele>40.799999237061</ele>
        <time>2016-07-18T19:07:03.000Z</time>
      </trkpt>
      <trkpt lat="48.84281" lon="2.23848">
        <ele>41</ele>
        <time>2016-07-18T19:07:08.000Z</time>
      </trkpt>
      <trkpt lat="48.84298" lon="2.23839">
        <ele>41</ele>
        <time>2016-07-18T19:07:12.000Z</time>
      </trkpt>
      <trkpt lat="48.84319" lon="2.23829">
        <ele>41.599998474121</ele>
        <time>2016-07-18T19:07:17.000Z</time>
      </trkpt>
      <trkpt lat="48.8434" lon="2.23817">
        <ele>41.599998474121</ele>
        <time>2016-07-18T19:07:22.000Z</time>
      </trkpt>
      <trkpt lat="48.84358" lon="2.23802">
        <ele>41.799999237061</ele>
        <time>2016-07-18T19:07:26.000Z</time>
      </trkpt>
      <trkpt lat="48.84379" lon="2.23789">
        <ele>42</ele>
        <time>2016-07-18T19:07:31.000Z</time>
      </trkpt>
      <trkpt lat="48.84397" lon="2.23781">
        <ele>42.400001525879</ele>
        <time>2016-07-18T19:07:35.000Z</time>
      </trkpt>
      <trkpt lat="48.84418" lon="2.23773">
        <ele>43.200000762939</ele>
        <time>2016-07-18T19:07:39.000Z</time>
      </trkpt>
      <trkpt lat="48.84439" lon="2.2377">
        <ele>44</ele>
        <time>2016-07-18T19:07:43.000Z</time>
      </trkpt>
      <trkpt lat="48.84457" lon="2.23761">
        <ele>43.599998474121</ele>
        <time>2016-07-18T19:07:47.000Z</time>
      </trkpt>
      <trkpt lat="48.84476" lon="2.2375">
        <ele>43.200000762939</ele>
        <time>2016-07-18T19:07:51.000Z</time>
      </trkpt>
      <trkpt lat="48.84484" lon="2.23742">
        <ele>42.799999237061</ele>
        <time>2016-07-18T19:07:53.000Z</time>
      </trkpt>
      <trkpt lat="48.84501" lon="2.23724">
        <ele>41.599998474121</ele>
        <time>2016-07-18T19:07:56.000Z</time>
      </trkpt>
      <trkpt lat="48.8452" lon="2.23716">
        <ele>42.200000762939</ele>
        <time>2016-07-18T19:08:00.000Z</time>
      </trkpt>
      <trkpt lat="48.84539" lon="2.23707">
        <ele>42.200000762939</ele>
        <time>2016-07-18T19:08:04.000Z</time>
      </trkpt>
      <trkpt lat="48.84557" lon="2.23697">
        <ele>42.200000762939</ele>
        <time>2016-07-18T19:08:08.000Z</time>
      </trkpt>
      <trkpt lat="48.84564" lon="2.23689">
        <ele>41.599998474121</ele>
        <time>2016-07-18T19:08:10.000Z</time>
      </trkpt>
      <trkpt lat="48.84586" lon="2.23694">
        <ele>40.599998474121</ele>
        <time>2016-07-18T19:08:15.000Z</time>
      </trkpt>
      <trkpt lat="48.84607" lon="2.23689">
        <ele>39.599998474121</ele>
        <time>2016-07-18T19:08:20.000Z</time>
      </trkpt>
      <trkpt lat="48.8462" lon="2.23685">
        <ele>39.400001525879</ele>
        <time>2016-07-18T19:08:23.000Z</time>
      </trkpt>
      <trkpt lat="48.84638" lon="2.23682">
        <ele>39</ele>
        <time>2016-07-18T19:08:27.000Z</time>
      </trkpt>
      <trkpt lat="48.84643" lon="2.23681">
        <ele>39</ele>
        <time>2016-07-18T19:08:28.000Z</time>
      </trkpt>
      <trkpt lat="48.84664" lon="2.2368">
        <ele>38.799999237061</ele>
        <time>2016-07-18T19:08:32.000Z</time>
      </trkpt>
      <trkpt lat="48.84683" lon="2.23679">
        <ele>38.400001525879</ele>
        <time>2016-07-18T19:08:36.000Z</time>
      </trkpt>
      <trkpt lat="48.84688" lon="2.23679">
        <ele>38.400001525879</ele>
        <time>2016-07-18T19:08:37.000Z</time>
      </trkpt>
      <trkpt lat="48.84708" lon="2.23686">
        <ele>38.200000762939</ele>
        <time>2016-07-18T19:08:41.000Z</time>
      </trkpt>
      <trkpt lat="48.84728" lon="2.23691">
        <ele>37.799999237061</ele>
        <time>2016-07-18T19:08:45.000Z</time>
      </trkpt>
      <trkpt lat="48.8475" lon="2.23699">
        <ele>37.799999237061</ele>
        <time>2016-07-18T19:08:49.000Z</time>
      </trkpt>
      <trkpt lat="48.84773" lon="2.23705">
        <ele>37.599998474121</ele>
        <time>2016-07-18T19:08:53.000Z</time>
      </trkpt>
      <trkpt lat="48.84795" lon="2.23712">
        <ele>36.799999237061</ele>
        <time>2016-07-18T19:08:57.000Z</time>
      </trkpt>
      <trkpt lat="48.84815" lon="2.23721">
        <ele>36.200000762939</ele>
        <time>2016-07-18T19:09:01.000Z</time>
      </trkpt>
      <trkpt lat="48.84835" lon="2.23725">
        <ele>35.599998474121</ele>
        <time>2016-07-18T19:09:05.000Z</time>
      </trkpt>
      <trkpt lat="48.84854" lon="2.23729">
        <ele>35.400001525879</ele>
        <time>2016-07-18T19:09:09.000Z</time>
      </trkpt>
      <trkpt lat="48.84874" lon="2.23735">
        <ele>35.200000762939</ele>
        <time>2016-07-18T19:09:13.000Z</time>
      </trkpt>
      <trkpt lat="48.84893" lon="2.23741">
        <ele>35.200000762939</ele>
        <time>2016-07-18T19:09:17.000Z</time>
      </trkpt>
      <trkpt lat="48.84914" lon="2.23746">
        <ele>35</ele>
        <time>2016-07-18T19:09:21.000Z</time>
      </trkpt>
      <trkpt lat="48.84934" lon="2.23751">
        <ele>35.200000762939</ele>
        <time>2016-07-18T19:09:25.000Z</time>
      </trkpt>
      <trkpt lat="48.84954" lon="2.23756">
        <ele>35.400001525879</ele>
        <time>2016-07-18T19:09:29.000Z</time>
      </trkpt>
      <trkpt lat="48.84972" lon="2.23762">
        <ele>35.799999237061</ele>
        <time>2016-07-18T19:09:33.000Z</time>
      </trkpt>
      <trkpt lat="48.84993" lon="2.23769">
        <ele>36.200000762939</ele>
        <time>2016-07-18T19:09:38.000Z</time>
      </trkpt>
      <trkpt lat="48.85014" lon="2.23776">
        <ele>36.799999237061</ele>
        <time>2016-07-18T19:09:43.000Z</time>
      </trkpt>
      <trkpt lat="48.85027" lon="2.23781">
        <ele>37</ele>
        <time>2016-07-18T19:09:46.000Z</time>
      </trkpt>
      <trkpt lat="48.85045" lon="2.2379">
        <ele>36.799999237061</ele>
        <time>2016-07-18T19:09:51.000Z</time>
      </trkpt>
      <trkpt lat="48.8506" lon="2.23794">
        <ele>36.599998474121</ele>
        <time>2016-07-18T19:09:57.000Z</time>
      </trkpt>
      <trkpt lat="48.8507" lon="2.23813">
        <ele>36.400001525879</ele>
        <time>2016-07-18T19:10:19.000Z</time>
      </trkpt>
      <trkpt lat="48.8507" lon="2.23819">
        <ele>36.400001525879</ele>
        <time>2016-07-18T19:10:24.000Z</time>
      </trkpt>
      <trkpt lat="48.85069" lon="2.23812">
        <ele>36.400001525879</ele>
        <time>2016-07-18T19:10:58.000Z</time>
      </trkpt>
      <trkpt lat="48.85085" lon="2.23821">
        <ele>36.200000762939</ele>
        <time>2016-07-18T19:11:16.000Z</time>
      </trkpt>
      <trkpt lat="48.85104" lon="2.23829">
        <ele>36</ele>
        <time>2016-07-18T19:11:26.000Z</time>
      </trkpt>
      <trkpt lat="48.85106" lon="2.2383">
        <ele>36</ele>
        <time>2016-07-18T19:11:29.000Z</time>
      </trkpt>
      <trkpt lat="48.85105" lon="2.23823">
        <ele>35.799999237061</ele>
        <time>2016-07-18T19:13:09.000Z</time>
      </trkpt>
      <trkpt lat="48.85114" lon="2.23834">
        <ele>36.599998474121</ele>
        <time>2016-07-18T19:14:08.000Z</time>
      </trkpt>
      <trkpt lat="48.85131" lon="2.2385">
        <ele>38.200000762939</ele>
        <time>2016-07-18T19:14:16.000Z</time>
      </trkpt>
      <trkpt lat="48.85147" lon="2.23865">
        <ele>39.599998474121</ele>
        <time>2016-07-18T19:14:22.000Z</time>
      </trkpt>
      <trkpt lat="48.85164" lon="2.23879">
        <ele>40.799999237061</ele>
        <time>2016-07-18T19:14:29.000Z</time>
      </trkpt>
      <trkpt lat="48.85182" lon="2.2389">
        <ele>42</ele>
        <time>2016-07-18T19:14:36.000Z</time>
      </trkpt>
      <trkpt lat="48.852" lon="2.23891">
        <ele>42.599998474121</ele>
        <time>2016-07-18T19:14:42.000Z</time>
      </trkpt>
      <trkpt lat="48.8522" lon="2.23884">
        <ele>42.799999237061</ele>
        <time>2016-07-18T19:14:48.000Z</time>
      </trkpt>
      <trkpt lat="48.85241" lon="2.23878">
        <ele>43</ele>
        <time>2016-07-18T19:14:54.000Z</time>
      </trkpt>
      <trkpt lat="48.85261" lon="2.23878">
        <ele>44.200000762939</ele>
        <time>2016-07-18T19:15:00.000Z</time>
      </trkpt>
      <trkpt lat="48.85278" lon="2.23885">
        <ele>45.400001525879</ele>
        <time>2016-07-18T19:15:07.000Z</time>
      </trkpt>
      <trkpt lat="48.85289" lon="2.23883">
        <ele>45</ele>
        <time>2016-07-18T19:15:26.000Z</time>
      </trkpt>
      <trkpt lat="48.85308" lon="2.23888">
        <ele>45.200000762939</ele>
        <time>2016-07-18T19:15:31.000Z</time>
      </trkpt>
      <trkpt lat="48.85328" lon="2.23896">
        <ele>45.400001525879</ele>
        <time>2016-07-18T19:15:36.000Z</time>
      </trkpt>
      <trkpt lat="48.85351" lon="2.23894">
        <ele>45.799999237061</ele>
        <time>2016-07-18T19:15:41.000Z</time>
      </trkpt>
      <trkpt lat="48.85372" lon="2.23891">
        <ele>46.200000762939</ele>
        <time>2016-07-18T19:15:46.000Z</time>
      </trkpt>
      <trkpt lat="48.85391" lon="2.23887">
        <ele>46.400001525879</ele>
        <time>2016-07-18T19:15:50.000Z</time>
      </trkpt>
      <trkpt lat="48.85413" lon="2.23885">
        <ele>46.599998474121</ele>
        <time>2016-07-18T19:15:54.000Z</time>
      </trkpt>
      <trkpt lat="48.85433" lon="2.2389">
        <ele>46.400001525879</ele>
        <time>2016-07-18T19:15:58.000Z</time>
      </trkpt>
      <trkpt lat="48.85453" lon="2.23896">
        <ele>46.200000762939</ele>
        <time>2016-07-18T19:16:02.000Z</time>
      </trkpt>
      <trkpt lat="48.85458" lon="2.23897">
        <ele>46.200000762939</ele>
        <time>2016-07-18T19:16:03.000Z</time>
      </trkpt>
      <trkpt lat="48.85479" lon="2.23895">
        <ele>45.799999237061</ele>
        <time>2016-07-18T19:16:07.000Z</time>
      </trkpt>
      <trkpt lat="48.85498" lon="2.23893">
        <ele>45.599998474121</ele>
        <time>2016-07-18T19:16:11.000Z</time>
      </trkpt>
      <trkpt lat="48.85518" lon="2.23893">
        <ele>45.599998474121</ele>
        <time>2016-07-18T19:16:15.000Z</time>
      </trkpt>
      <trkpt lat="48.85534" lon="2.23894">
        <ele>45.599998474121</ele>
        <time>2016-07-18T19:16:18.000Z</time>
      </trkpt>
      <trkpt lat="48.85555" lon="2.2388">
        <ele>45.599998474121</ele>
        <time>2016-07-18T19:16:22.000Z</time>
      </trkpt>
      <trkpt lat="48.85575" lon="2.23868">
        <ele>45</ele>
        <time>2016-07-18T19:16:25.000Z</time>
      </trkpt>
      <trkpt lat="48.85595" lon="2.23857">
        <ele>44</ele>
        <time>2016-07-18T19:16:28.000Z</time>
      </trkpt>
      <trkpt lat="48.85613" lon="2.23851">
        <ele>43.200000762939</ele>
        <time>2016-07-18T19:16:31.000Z</time>
      </trkpt>
      <trkpt lat="48.85637" lon="2.23849">
        <ele>42.599998474121</ele>
        <time>2016-07-18T19:16:35.000Z</time>
      </trkpt>
      <trkpt lat="48.85657" lon="2.23852">
        <ele>42.400001525879</ele>
        <time>2016-07-18T19:16:38.000Z</time>
      </trkpt>
      <trkpt lat="48.85679" lon="2.23849">
        <ele>42.200000762939</ele>
        <time>2016-07-18T19:16:42.000Z</time>
      </trkpt>
      <trkpt lat="48.85693" lon="2.23846">
        <ele>41.799999237061</ele>
        <time>2016-07-18T19:16:45.000Z</time>
      </trkpt>
      <trkpt lat="48.85714" lon="2.23839">
        <ele>41.400001525879</ele>
        <time>2016-07-18T19:16:49.000Z</time>
      </trkpt>
      <trkpt lat="48.85737" lon="2.23828">
        <ele>41</ele>
        <time>2016-07-18T19:16:53.000Z</time>
      </trkpt>
      <trkpt lat="48.85755" lon="2.23814">
        <ele>40.599998474121</ele>
        <time>2016-07-18T19:16:56.000Z</time>
      </trkpt>
      <trkpt lat="48.85771" lon="2.23798">
        <ele>39.599998474121</ele>
        <time>2016-07-18T19:16:59.000Z</time>
      </trkpt>
      <trkpt lat="48.85788" lon="2.23781">
        <ele>39</ele>
        <time>2016-07-18T19:17:02.000Z</time>
      </trkpt>
      <trkpt lat="48.85804" lon="2.23763">
        <ele>38.200000762939</ele>
        <time>2016-07-18T19:17:05.000Z</time>
      </trkpt>
      <trkpt lat="48.85823" lon="2.23747">
        <ele>37.200000762939</ele>
        <time>2016-07-18T19:17:08.000Z</time>
      </trkpt>
      <trkpt lat="48.85842" lon="2.23734">
        <ele>36.400001525879</ele>
        <time>2016-07-18T19:17:11.000Z</time>
      </trkpt>
      <trkpt lat="48.85861" lon="2.23723">
        <ele>35.400001525879</ele>
        <time>2016-07-18T19:17:14.000Z</time>
      </trkpt>
      <trkpt lat="48.8588" lon="2.23718">
        <ele>35.400001525879</ele>
        <time>2016-07-18T19:17:17.000Z</time>
      </trkpt>
      <trkpt lat="48.85899" lon="2.23717">
        <ele>35.400001525879</ele>
        <time>2016-07-18T19:17:20.000Z</time>
      </trkpt>
      <trkpt lat="48.85917" lon="2.23716">
        <ele>35.400001525879</ele>
        <time>2016-07-18T19:17:23.000Z</time>
      </trkpt>
      <trkpt lat="48.8594" lon="2.23716">
        <ele>35.599998474121</ele>
        <time>2016-07-18T19:17:27.000Z</time>
      </trkpt>
      <trkpt lat="48.85961" lon="2.23719">
        <ele>35.799999237061</ele>
        <time>2016-07-18T19:17:31.000Z</time>
      </trkpt>
      <trkpt lat="48.85982" lon="2.23723">
        <ele>36.200000762939</ele>
        <time>2016-07-18T19:17:35.000Z</time>
      </trkpt>
      <trkpt lat="48.86005" lon="2.23729">
        <ele>36.599998474121</ele>
        <time>2016-07-18T19:17:39.000Z</time>
      </trkpt>
      <trkpt lat="48.86026" lon="2.23735">
        <ele>37</ele>
        <time>2016-07-18T19:17:43.000Z</time>
      </trkpt>
      <trkpt lat="48.86048" lon="2.23741">
        <ele>36.799999237061</ele>
        <time>2016-07-18T19:17:47.000Z</time>
      </trkpt>
      <trkpt lat="48.86067" lon="2.2375">
        <ele>36.599998474121</ele>
        <time>2016-07-18T19:17:51.000Z</time>
      </trkpt>
      <trkpt lat="48.86083" lon="2.23763">
        <ele>36.599998474121</ele>
        <time>2016-07-18T19:17:55.000Z</time>
      </trkpt>
      <trkpt lat="48.86092" lon="2.23774">
        <ele>36.799999237061</ele>
        <time>2016-07-18T19:17:59.000Z</time>
      </trkpt>
      <trkpt lat="48.86093" lon="2.23766">
        <ele>36.400001525879</ele>
        <time>2016-07-18T19:18:35.000Z</time>
      </trkpt>
      <trkpt lat="48.86077" lon="2.23754">
        <ele>36.400001525879</ele>
        <time>2016-07-18T19:18:40.000Z</time>
      </trkpt>
      <trkpt lat="48.86058" lon="2.23742">
        <ele>36.400001525879</ele>
        <time>2016-07-18T19:18:45.000Z</time>
      </trkpt>
      <trkpt lat="48.86037" lon="2.23735">
        <ele>36.599998474121</ele>
        <time>2016-07-18T19:18:49.000Z</time>
      </trkpt>
      <trkpt lat="48.86013" lon="2.2373">
        <ele>36.599998474121</ele>
        <time>2016-07-18T19:18:53.000Z</time>
      </trkpt>
      <trkpt lat="48.8599" lon="2.23726">
        <ele>36.400001525879</ele>
        <time>2016-07-18T19:18:57.000Z</time>
      </trkpt>
      <trkpt lat="48.85968" lon="2.23721">
        <ele>36</ele>
        <time>2016-07-18T19:19:01.000Z</time>
      </trkpt>
      <trkpt lat="48.85946" lon="2.23719">
        <ele>35.799999237061</ele>
        <time>2016-07-18T19:19:05.000Z</time>
      </trkpt>
      <trkpt lat="48.85922" lon="2.23719">
        <ele>35.799999237061</ele>
        <time>2016-07-18T19:19:09.000Z</time>
      </trkpt>
      <trkpt lat="48.85903" lon="2.23721">
        <ele>35.799999237061</ele>
        <time>2016-07-18T19:19:12.000Z</time>
      </trkpt>
      <trkpt lat="48.85886" lon="2.23722">
        <ele>35.599998474121</ele>
        <time>2016-07-18T19:19:15.000Z</time>
      </trkpt>
      <trkpt lat="48.85871" lon="2.23736">
        <ele>36.599998474121</ele>
        <time>2016-07-18T19:19:19.000Z</time>
      </trkpt>
      <trkpt lat="48.85866" lon="2.23748">
        <ele>37.200000762939</ele>
        <time>2016-07-18T19:19:21.000Z</time>
      </trkpt>
      <trkpt lat="48.85854" lon="2.23772">
        <ele>39</ele>
        <time>2016-07-18T19:19:26.000Z</time>
      </trkpt>
      <trkpt lat="48.85848" lon="2.23788">
        <ele>40</ele>
        <time>2016-07-18T19:19:29.000Z</time>
      </trkpt>
      <trkpt lat="48.85835" lon="2.23808">
        <ele>41.599998474121</ele>
        <time>2016-07-18T19:19:33.000Z</time>
      </trkpt>
      <trkpt lat="48.85821" lon="2.23827">
        <ele>42</ele>
        <time>2016-07-18T19:19:37.000Z</time>
      </trkpt>
      <trkpt lat="48.85805" lon="2.23851">
        <ele>42.599998474121</ele>
        <time>2016-07-18T19:19:42.000Z</time>
      </trkpt>
      <trkpt lat="48.85802" lon="2.23855">
        <ele>42.599998474121</ele>
        <time>2016-07-18T19:19:43.000Z</time>
      </trkpt>
      <trkpt lat="48.85787" lon="2.23872">
        <ele>42.799999237061</ele>
        <time>2016-07-18T19:19:47.000Z</time>
      </trkpt>
      <trkpt lat="48.85783" lon="2.23879">
        <ele>43</ele>
        <time>2016-07-18T19:19:48.000Z</time>
      </trkpt>
      <trkpt lat="48.85769" lon="2.23899">
        <ele>43.599998474121</ele>
        <time>2016-07-18T19:19:52.000Z</time>
      </trkpt>
      <trkpt lat="48.85753" lon="2.23922">
        <ele>44.200000762939</ele>
        <time>2016-07-18T19:19:57.000Z</time>
      </trkpt>
      <trkpt lat="48.85736" lon="2.23944">
        <ele>44.400001525879</ele>
        <time>2016-07-18T19:20:02.000Z</time>
      </trkpt>
      <trkpt lat="48.8572" lon="2.23967">
        <ele>44.400001525879</ele>
        <time>2016-07-18T19:20:07.000Z</time>
      </trkpt>
      <trkpt lat="48.85714" lon="2.23973">
        <ele>44.200000762939</ele>
        <time>2016-07-18T19:20:09.000Z</time>
      </trkpt>
      <trkpt lat="48.85699" lon="2.23994">
        <ele>44</ele>
        <time>2016-07-18T19:20:15.000Z</time>
      </trkpt>
      <trkpt lat="48.85684" lon="2.24015">
        <ele>44.599998474121</ele>
        <time>2016-07-18T19:20:20.000Z</time>
      </trkpt>
      <trkpt lat="48.85681" lon="2.24016">
        <ele>44.799999237061</ele>
        <time>2016-07-18T19:20:21.000Z</time>
      </trkpt>
      <trkpt lat="48.85666" lon="2.24039">
        <ele>45.799999237061</ele>
        <time>2016-07-18T19:20:27.000Z</time>
      </trkpt>
      <trkpt lat="48.85653" lon="2.2406">
        <ele>46.200000762939</ele>
        <time>2016-07-18T19:20:32.000Z</time>
      </trkpt>
      <trkpt lat="48.8564" lon="2.24086">
        <ele>46</ele>
        <time>2016-07-18T19:20:37.000Z</time>
      </trkpt>
      <trkpt lat="48.85632" lon="2.24101">
        <ele>46.200000762939</ele>
        <time>2016-07-18T19:20:40.000Z</time>
      </trkpt>
      <trkpt lat="48.85621" lon="2.24123">
        <ele>46.599998474121</ele>
        <time>2016-07-18T19:20:45.000Z</time>
      </trkpt>
      <trkpt lat="48.85607" lon="2.24143">
        <ele>46.799999237061</ele>
        <time>2016-07-18T19:20:50.000Z</time>
      </trkpt>
      <trkpt lat="48.85592" lon="2.24163">
        <ele>46.799999237061</ele>
        <time>2016-07-18T19:20:55.000Z</time>
      </trkpt>
      <trkpt lat="48.85573" lon="2.24183">
        <ele>46.799999237061</ele>
        <time>2016-07-18T19:21:00.000Z</time>
      </trkpt>
      <trkpt lat="48.85562" lon="2.24191">
        <ele>46.799999237061</ele>
        <time>2016-07-18T19:21:03.000Z</time>
      </trkpt>
      <trkpt lat="48.85555" lon="2.24195">
        <ele>46.799999237061</ele>
        <time>2016-07-18T19:21:05.000Z</time>
      </trkpt>
      <trkpt lat="48.85536" lon="2.24209">
        <ele>47.200000762939</ele>
        <time>2016-07-18T19:21:11.000Z</time>
      </trkpt>
      <trkpt lat="48.85518" lon="2.24222">
        <ele>47.599998474121</ele>
        <time>2016-07-18T19:21:17.000Z</time>
      </trkpt>
      <trkpt lat="48.85507" lon="2.2423">
        <ele>48.200000762939</ele>
        <time>2016-07-18T19:21:22.000Z</time>
      </trkpt>
      <trkpt lat="48.85498" lon="2.24232">
        <ele>48.400001525879</ele>
        <time>2016-07-18T19:21:28.000Z</time>
      </trkpt>
      <trkpt lat="48.85494" lon="2.24234">
        <ele>48.599998474121</ele>
        <time>2016-07-18T19:21:33.000Z</time>
      </trkpt>
      <trkpt lat="48.85492" lon="2.24225">
        <ele>48.400001525879</ele>
        <time>2016-07-18T19:22:56.000Z</time>
      </trkpt>
      <trkpt lat="48.85494" lon="2.2423">
        <ele>48.400001525879</ele>
        <time>2016-07-18T19:23:06.000Z</time>
      </trkpt>
      <trkpt lat="48.85485" lon="2.24239">
        <ele>48.799999237061</ele>
        <time>2016-07-18T19:24:15.000Z</time>
      </trkpt>
      <trkpt lat="48.85468" lon="2.24252">
        <ele>49.400001525879</ele>
        <time>2016-07-18T19:24:25.000Z</time>
      </trkpt>
      <trkpt lat="48.85451" lon="2.24269">
        <ele>49.799999237061</ele>
        <time>2016-07-18T19:24:31.000Z</time>
      </trkpt>
      <trkpt lat="48.85436" lon="2.24285">
        <ele>50.400001525879</ele>
        <time>2016-07-18T19:24:36.000Z</time>
      </trkpt>
      <trkpt lat="48.85421" lon="2.24303">
        <ele>50.599998474121</ele>
        <time>2016-07-18T19:24:41.000Z</time>
      </trkpt>
      <trkpt lat="48.85404" lon="2.24324">
        <ele>50.599998474121</ele>
        <time>2016-07-18T19:24:46.000Z</time>
      </trkpt>
      <trkpt lat="48.8539" lon="2.24342">
        <ele>50.200000762939</ele>
        <time>2016-07-18T19:24:51.000Z</time>
      </trkpt>
      <trkpt lat="48.85375" lon="2.24364">
        <ele>50.200000762939</ele>
        <time>2016-07-18T19:24:56.000Z</time>
      </trkpt>
      <trkpt lat="48.85359" lon="2.24388">
        <ele>50.599998474121</ele>
        <time>2016-07-18T19:25:01.000Z</time>
      </trkpt>
      <trkpt lat="48.85346" lon="2.24409">
        <ele>50.799999237061</ele>
        <time>2016-07-18T19:25:05.000Z</time>
      </trkpt>
      <trkpt lat="48.85334" lon="2.24434">
        <ele>51.200000762939</ele>
        <time>2016-07-18T19:25:09.000Z</time>
      </trkpt>
      <trkpt lat="48.85322" lon="2.2446">
        <ele>51.599998474121</ele>
        <time>2016-07-18T19:25:13.000Z</time>
      </trkpt>
      <trkpt lat="48.85312" lon="2.24486">
        <ele>51.799999237061</ele>
        <time>2016-07-18T19:25:17.000Z</time>
      </trkpt>
      <trkpt lat="48.85302" lon="2.2451">
        <ele>51.799999237061</ele>
        <time>2016-07-18T19:25:20.000Z</time>
      </trkpt>
      <trkpt lat="48.85293" lon="2.24537">
        <ele>51.799999237061</ele>
        <time>2016-07-18T19:25:24.000Z</time>
      </trkpt>
      <trkpt lat="48.85288" lon="2.24549">
        <ele>51.799999237061</ele>
        <time>2016-07-18T19:25:26.000Z</time>
      </trkpt>
      <trkpt lat="48.8528" lon="2.24581">
        <ele>52</ele>
        <time>2016-07-18T19:25:30.000Z</time>
      </trkpt>
      <trkpt lat="48.85275" lon="2.24613">
        <ele>52</ele>
        <time>2016-07-18T19:25:34.000Z</time>
      </trkpt>
      <trkpt lat="48.85272" lon="2.24647">
        <ele>52</ele>
        <time>2016-07-18T19:25:38.000Z</time>
      </trkpt>
      <trkpt lat="48.85271" lon="2.2468">
        <ele>52.200000762939</ele>
        <time>2016-07-18T19:25:42.000Z</time>
      </trkpt>
      <trkpt lat="48.85273" lon="2.24709">
        <ele>52.599998474121</ele>
        <time>2016-07-18T19:25:46.000Z</time>
      </trkpt>
      <trkpt lat="48.85276" lon="2.24736">
        <ele>53</ele>
        <time>2016-07-18T19:25:51.000Z</time>
      </trkpt>
      <trkpt lat="48.85283" lon="2.24764">
        <ele>53.200000762939</ele>
        <time>2016-07-18T19:25:57.000Z</time>
      </trkpt>
      <trkpt lat="48.85288" lon="2.24781">
        <ele>53.400001525879</ele>
        <time>2016-07-18T19:26:02.000Z</time>
      </trkpt>
      <trkpt lat="48.85292" lon="2.24788">
        <ele>53.400001525879</ele>
        <time>2016-07-18T19:26:05.000Z</time>
      </trkpt>
      <trkpt lat="48.85304" lon="2.2481">
        <ele>53.799999237061</ele>
        <time>2016-07-18T19:26:11.000Z</time>
      </trkpt>
      <trkpt lat="48.85306" lon="2.24813">
        <ele>53.799999237061</ele>
        <time>2016-07-18T19:26:12.000Z</time>
      </trkpt>
      <trkpt lat="48.85311" lon="2.2482">
        <ele>54</ele>
        <time>2016-07-18T19:26:14.000Z</time>
      </trkpt>
      <trkpt lat="48.85324" lon="2.24841">
        <ele>54</ele>
        <time>2016-07-18T19:26:19.000Z</time>
      </trkpt>
      <trkpt lat="48.85337" lon="2.24864">
        <ele>54.200000762939</ele>
        <time>2016-07-18T19:26:24.000Z</time>
      </trkpt>
      <trkpt lat="48.85351" lon="2.24888">
        <ele>54.200000762939</ele>
        <time>2016-07-18T19:26:29.000Z</time>
      </trkpt>
      <trkpt lat="48.85365" lon="2.24912">
        <ele>54</ele>
        <time>2016-07-18T19:26:34.000Z</time>
      </trkpt>
      <trkpt lat="48.85376" lon="2.24933">
        <ele>53.799999237061</ele>
        <time>2016-07-18T19:26:38.000Z</time>
      </trkpt>
      <trkpt lat="48.85391" lon="2.24951">
        <ele>53.599998474121</ele>
        <time>2016-07-18T19:26:42.000Z</time>
      </trkpt>
      <trkpt lat="48.85405" lon="2.24971">
        <ele>53.400001525879</ele>
        <time>2016-07-18T19:26:46.000Z</time>
      </trkpt>
      <trkpt lat="48.8542" lon="2.24991">
        <ele>53.200000762939</ele>
        <time>2016-07-18T19:26:50.000Z</time>
      </trkpt>
      <trkpt lat="48.85434" lon="2.25011">
        <ele>53.200000762939</ele>
        <time>2016-07-18T19:26:54.000Z</time>
      </trkpt>
      <trkpt lat="48.85441" lon="2.25021">
        <ele>53.200000762939</ele>
        <time>2016-07-18T19:26:56.000Z</time>
      </trkpt>
      <trkpt lat="48.85452" lon="2.25042">
        <ele>53.200000762939</ele>
        <time>2016-07-18T19:27:00.000Z</time>
      </trkpt>
      <trkpt lat="48.85463" lon="2.25064">
        <ele>53</ele>
        <time>2016-07-18T19:27:04.000Z</time>
      </trkpt>
      <trkpt lat="48.85481" lon="2.25088">
        <ele>52.799999237061</ele>
        <time>2016-07-18T19:27:08.000Z</time>
      </trkpt>
      <trkpt lat="48.8549" lon="2.25099">
        <ele>52.599998474121</ele>
        <time>2016-07-18T19:27:10.000Z</time>
      </trkpt>
      <trkpt lat="48.85509" lon="2.2512">
        <ele>52.400001525879</ele>
        <time>2016-07-18T19:27:14.000Z</time>
      </trkpt>
      <trkpt lat="48.85525" lon="2.25137">
        <ele>52.400001525879</ele>
        <time>2016-07-18T19:27:17.000Z</time>
      </trkpt>
      <trkpt lat="48.85542" lon="2.25158">
        <ele>52.200000762939</ele>
        <time>2016-07-18T19:27:21.000Z</time>
      </trkpt>
      <trkpt lat="48.85557" lon="2.25176">
        <ele>52.200000762939</ele>
        <time>2016-07-18T19:27:24.000Z</time>
      </trkpt>
      <trkpt lat="48.85573" lon="2.25193">
        <ele>52.200000762939</ele>
        <time>2016-07-18T19:27:27.000Z</time>
      </trkpt>
      <trkpt lat="48.85589" lon="2.25208">
        <ele>52.200000762939</ele>
        <time>2016-07-18T19:27:30.000Z</time>
      </trkpt>
      <trkpt lat="48.85598" lon="2.2522">
        <ele>52.400001525879</ele>
        <time>2016-07-18T19:27:32.000Z</time>
      </trkpt>
      <trkpt lat="48.85616" lon="2.25235">
        <ele>52.599998474121</ele>
        <time>2016-07-18T19:27:35.000Z</time>
      </trkpt>
      <trkpt lat="48.85633" lon="2.25248">
        <ele>52.799999237061</ele>
        <time>2016-07-18T19:27:38.000Z</time>
      </trkpt>
      <trkpt lat="48.85652" lon="2.25268">
        <ele>52</ele>
        <time>2016-07-18T19:27:42.000Z</time>
      </trkpt>
      <trkpt lat="48.85671" lon="2.25287">
        <ele>51</ele>
        <time>2016-07-18T19:27:46.000Z</time>
      </trkpt>
      <trkpt lat="48.85682" lon="2.25299">
        <ele>50.400001525879</ele>
        <time>2016-07-18T19:27:49.000Z</time>
      </trkpt>
      <trkpt lat="48.85695" lon="2.25315">
        <ele>50</ele>
        <time>2016-07-18T19:27:53.000Z</time>
      </trkpt>
      <trkpt lat="48.85702" lon="2.25326">
        <ele>49.799999237061</ele>
        <time>2016-07-18T19:27:55.000Z</time>
      </trkpt>
      <trkpt lat="48.85716" lon="2.25348">
        <ele>49.799999237061</ele>
        <time>2016-07-18T19:27:59.000Z</time>
      </trkpt>
      <trkpt lat="48.85728" lon="2.25369">
        <ele>50</ele>
        <time>2016-07-18T19:28:03.000Z</time>
      </trkpt>
      <trkpt lat="48.85739" lon="2.25392">
        <ele>50.599998474121</ele>
        <time>2016-07-18T19:28:07.000Z</time>
      </trkpt>
      <trkpt lat="48.85751" lon="2.25421">
        <ele>50.799999237061</ele>
        <time>2016-07-18T19:28:12.000Z</time>
      </trkpt>
      <trkpt lat="48.85759" lon="2.2544">
        <ele>50.400001525879</ele>
        <time>2016-07-18T19:28:15.000Z</time>
      </trkpt>
      <trkpt lat="48.85773" lon="2.25467">
        <ele>49.799999237061</ele>
        <time>2016-07-18T19:28:20.000Z</time>
      </trkpt>
      <trkpt lat="48.85785" lon="2.25494">
        <ele>49.400001525879</ele>
        <time>2016-07-18T19:28:25.000Z</time>
      </trkpt>
      <trkpt lat="48.85792" lon="2.25511">
        <ele>49.599998474121</ele>
        <time>2016-07-18T19:28:28.000Z</time>
      </trkpt>
      <trkpt lat="48.85799" lon="2.25539">
        <ele>49.599998474121</ele>
        <time>2016-07-18T19:28:33.000Z</time>
      </trkpt>
      <trkpt lat="48.858" lon="2.25543">
        <ele>49.599998474121</ele>
        <time>2016-07-18T19:28:34.000Z</time>
      </trkpt>
      <trkpt lat="48.85809" lon="2.25567">
        <ele>49.400001525879</ele>
        <time>2016-07-18T19:28:39.000Z</time>
      </trkpt>
      <trkpt lat="48.85815" lon="2.25587">
        <ele>49.599998474121</ele>
        <time>2016-07-18T19:28:44.000Z</time>
      </trkpt>
      <trkpt lat="48.85816" lon="2.25592">
        <ele>49.599998474121</ele>
        <time>2016-07-18T19:28:46.000Z</time>
      </trkpt>
      <trkpt lat="48.85824" lon="2.25603">
        <ele>50</ele>
        <time>2016-07-18T19:29:54.000Z</time>
      </trkpt>
      <trkpt lat="48.85829" lon="2.25629">
        <ele>50.400001525879</ele>
        <time>2016-07-18T19:30:01.000Z</time>
      </trkpt>
      <trkpt lat="48.85834" lon="2.25659">
        <ele>50.200000762939</ele>
        <time>2016-07-18T19:30:08.000Z</time>
      </trkpt>
      <trkpt lat="48.85837" lon="2.2567">
        <ele>50.599998474121</ele>
        <time>2016-07-18T19:30:12.000Z</time>
      </trkpt>
      <trkpt lat="48.85852" lon="2.25682">
        <ele>52.400001525879</ele>
        <time>2016-07-18T19:30:19.000Z</time>
      </trkpt>
      <trkpt lat="48.85858" lon="2.25708">
        <ele>53.599998474121</ele>
        <time>2016-07-18T19:30:25.000Z</time>
      </trkpt>
      <trkpt lat="48.85867" lon="2.25732">
        <ele>54.200000762939</ele>
        <time>2016-07-18T19:30:32.000Z</time>
      </trkpt>
      <trkpt lat="48.85878" lon="2.25752">
        <ele>54.200000762939</ele>
        <time>2016-07-18T19:30:38.000Z</time>
      </trkpt>
      <trkpt lat="48.85896" lon="2.25758">
        <ele>53.599998474121</ele>
        <time>2016-07-18T19:30:43.000Z</time>
      </trkpt>
      <trkpt lat="48.85917" lon="2.25764">
        <ele>52.799999237061</ele>
        <time>2016-07-18T19:30:48.000Z</time>
      </trkpt>
      <trkpt lat="48.85939" lon="2.25769">
        <ele>52</ele>
        <time>2016-07-18T19:30:53.000Z</time>
      </trkpt>
      <trkpt lat="48.85959" lon="2.25771">
        <ele>51.799999237061</ele>
        <time>2016-07-18T19:30:57.000Z</time>
      </trkpt>
      <trkpt lat="48.85977" lon="2.2577">
        <ele>51.599998474121</ele>
        <time>2016-07-18T19:31:01.000Z</time>
      </trkpt>
      <trkpt lat="48.85998" lon="2.25769">
        <ele>51.200000762939</ele>
        <time>2016-07-18T19:31:05.000Z</time>
      </trkpt>
      <trkpt lat="48.8602" lon="2.25773">
        <ele>51</ele>
        <time>2016-07-18T19:31:09.000Z</time>
      </trkpt>
      <trkpt lat="48.86042" lon="2.2578">
        <ele>51</ele>
        <time>2016-07-18T19:31:13.000Z</time>
      </trkpt>
      <trkpt lat="48.86061" lon="2.25784">
        <ele>51</ele>
        <time>2016-07-18T19:31:16.000Z</time>
      </trkpt>
      <trkpt lat="48.8608" lon="2.25789">
        <ele>51.200000762939</ele>
        <time>2016-07-18T19:31:19.000Z</time>
      </trkpt>
      <trkpt lat="48.86102" lon="2.25793">
        <ele>51.400001525879</ele>
        <time>2016-07-18T19:31:22.000Z</time>
      </trkpt>
      <trkpt lat="48.86122" lon="2.25796">
        <ele>50.599998474121</ele>
        <time>2016-07-18T19:31:25.000Z</time>
      </trkpt>
      <trkpt lat="48.86143" lon="2.25798">
        <ele>49.599998474121</ele>
        <time>2016-07-18T19:31:28.000Z</time>
      </trkpt>
      <trkpt lat="48.86163" lon="2.25798">
        <ele>48.599998474121</ele>
        <time>2016-07-18T19:31:31.000Z</time>
      </trkpt>
      <trkpt lat="48.86176" lon="2.25799">
        <ele>48.200000762939</ele>
        <time>2016-07-18T19:31:33.000Z</time>
      </trkpt>
      <trkpt lat="48.86194" lon="2.25805">
        <ele>47.599998474121</ele>
        <time>2016-07-18T19:31:36.000Z</time>
      </trkpt>
      <trkpt lat="48.86212" lon="2.25808">
        <ele>47.599998474121</ele>
        <time>2016-07-18T19:31:39.000Z</time>
      </trkpt>
      <trkpt lat="48.86218" lon="2.25808">
        <ele>47.599998474121</ele>
        <time>2016-07-18T19:31:40.000Z</time>
      </trkpt>
      <trkpt lat="48.86239" lon="2.25805">
        <ele>47.599998474121</ele>
        <time>2016-07-18T19:31:44.000Z</time>
      </trkpt>
      <trkpt lat="48.86252" lon="2.25811">
        <ele>47.400001525879</ele>
        <time>2016-07-18T19:31:48.000Z</time>
      </trkpt>
      <trkpt lat="48.86261" lon="2.25811">
        <ele>47.599998474121</ele>
        <time>2016-07-18T19:31:53.000Z</time>
      </trkpt>
      <trkpt lat="48.86275" lon="2.258">
        <ele>48</ele>
        <time>2016-07-18T19:32:29.000Z</time>
      </trkpt>
      <trkpt lat="48.86293" lon="2.25803">
        <ele>48.200000762939</ele>
        <time>2016-07-18T19:32:36.000Z</time>
      </trkpt>
      <trkpt lat="48.86314" lon="2.25802">
        <ele>48.400001525879</ele>
        <time>2016-07-18T19:32:41.000Z</time>
      </trkpt>
      <trkpt lat="48.86337" lon="2.25806">
        <ele>48.400001525879</ele>
        <time>2016-07-18T19:32:45.000Z</time>
      </trkpt>
      <trkpt lat="48.86356" lon="2.25811">
        <ele>47.599998474121</ele>
        <time>2016-07-18T19:32:48.000Z</time>
      </trkpt>
      <trkpt lat="48.86374" lon="2.25819">
        <ele>47.400001525879</ele>
        <time>2016-07-18T19:32:51.000Z</time>
      </trkpt>
      <trkpt lat="48.86392" lon="2.25828">
        <ele>47.200000762939</ele>
        <time>2016-07-18T19:32:54.000Z</time>
      </trkpt>
      <trkpt lat="48.8641" lon="2.2584">
        <ele>46.799999237061</ele>
        <time>2016-07-18T19:32:57.000Z</time>
      </trkpt>
      <trkpt lat="48.86428" lon="2.25854">
        <ele>46.599998474121</ele>
        <time>2016-07-18T19:33:00.000Z</time>
      </trkpt>
      <trkpt lat="48.86446" lon="2.25868">
        <ele>46.400001525879</ele>
        <time>2016-07-18T19:33:03.000Z</time>
      </trkpt>
      <trkpt lat="48.86463" lon="2.25883">
        <ele>46.400001525879</ele>
        <time>2016-07-18T19:33:06.000Z</time>
      </trkpt>
      <trkpt lat="48.86473" lon="2.25892">
        <ele>46.400001525879</ele>
        <time>2016-07-18T19:33:08.000Z</time>
      </trkpt>
      <trkpt lat="48.86482" lon="2.25905">
        <ele>46.400001525879</ele>
        <time>2016-07-18T19:33:10.000Z</time>
      </trkpt>
      <trkpt lat="48.86499" lon="2.25929">
        <ele>46.400001525879</ele>
        <time>2016-07-18T19:33:14.000Z</time>
      </trkpt>
      <trkpt lat="48.86516" lon="2.25951">
        <ele>46.599998474121</ele>
        <time>2016-07-18T19:33:18.000Z</time>
      </trkpt>
      <trkpt lat="48.86533" lon="2.25974">
        <ele>46.599998474121</ele>
        <time>2016-07-18T19:33:22.000Z</time>
      </trkpt>
      <trkpt lat="48.86543" lon="2.2599">
        <ele>46.400001525879</ele>
        <time>2016-07-18T19:33:25.000Z</time>
      </trkpt>
      <trkpt lat="48.86557" lon="2.26011">
        <ele>47</ele>
        <time>2016-07-18T19:33:29.000Z</time>
      </trkpt>
      <trkpt lat="48.86573" lon="2.26034">
        <ele>47.599998474121</ele>
        <time>2016-07-18T19:33:34.000Z</time>
      </trkpt>
      <trkpt lat="48.86583" lon="2.26051">
        <ele>48.200000762939</ele>
        <time>2016-07-18T19:33:38.000Z</time>
      </trkpt>
      <trkpt lat="48.86596" lon="2.26067">
        <ele>48.599998474121</ele>
        <time>2016-07-18T19:33:43.000Z</time>
      </trkpt>
      <trkpt lat="48.86601" lon="2.26076">
        <ele>49</ele>
        <time>2016-07-18T19:33:46.000Z</time>
      </trkpt>
      <trkpt lat="48.86611" lon="2.26087">
        <ele>49.400001525879</ele>
        <time>2016-07-18T19:33:50.000Z</time>
      </trkpt>
      <trkpt lat="48.86625" lon="2.26106">
        <ele>50.200000762939</ele>
        <time>2016-07-18T19:33:55.000Z</time>
      </trkpt>
      <trkpt lat="48.86638" lon="2.26127">
        <ele>51</ele>
        <time>2016-07-18T19:34:00.000Z</time>
      </trkpt>
      <trkpt lat="48.86654" lon="2.26144">
        <ele>51.799999237061</ele>
        <time>2016-07-18T19:34:05.000Z</time>
      </trkpt>
      <trkpt lat="48.8667" lon="2.26161">
        <ele>52.400001525879</ele>
        <time>2016-07-18T19:34:10.000Z</time>
      </trkpt>
      <trkpt lat="48.86678" lon="2.26169">
        <ele>52.200000762939</ele>
        <time>2016-07-18T19:34:13.000Z</time>
      </trkpt>
      <trkpt lat="48.86694" lon="2.26184">
        <ele>51.799999237061</ele>
        <time>2016-07-18T19:34:18.000Z</time>
      </trkpt>
      <trkpt lat="48.8671" lon="2.26196">
        <ele>51</ele>
        <time>2016-07-18T19:34:22.000Z</time>
      </trkpt>
      <trkpt lat="48.8673" lon="2.26207">
        <ele>50</ele>
        <time>2016-07-18T19:34:26.000Z</time>
      </trkpt>
      <trkpt lat="48.8675" lon="2.26218">
        <ele>49</ele>
        <time>2016-07-18T19:34:31.000Z</time>
      </trkpt>
      <trkpt lat="48.86769" lon="2.26234">
        <ele>48</ele>
        <time>2016-07-18T19:34:36.000Z</time>
      </trkpt>
      <trkpt lat="48.86786" lon="2.2625">
        <ele>48.599998474121</ele>
        <time>2016-07-18T19:34:40.000Z</time>
      </trkpt>
      <trkpt lat="48.86794" lon="2.26259">
        <ele>49.200000762939</ele>
        <time>2016-07-18T19:34:42.000Z</time>
      </trkpt>
      <trkpt lat="48.86808" lon="2.2628">
        <ele>50.400001525879</ele>
        <time>2016-07-18T19:34:46.000Z</time>
      </trkpt>
      <trkpt lat="48.86821" lon="2.26307">
        <ele>51.400001525879</ele>
        <time>2016-07-18T19:34:51.000Z</time>
      </trkpt>
      <trkpt lat="48.86829" lon="2.26323">
        <ele>51.799999237061</ele>
        <time>2016-07-18T19:34:54.000Z</time>
      </trkpt>
      <trkpt lat="48.86837" lon="2.26353">
        <ele>51.599998474121</ele>
        <time>2016-07-18T19:34:59.000Z</time>
      </trkpt>
      <trkpt lat="48.86839" lon="2.26366">
        <ele>51.200000762939</ele>
        <time>2016-07-18T19:35:01.000Z</time>
      </trkpt>
      <trkpt lat="48.86842" lon="2.26393">
        <ele>50.599998474121</ele>
        <time>2016-07-18T19:35:05.000Z</time>
      </trkpt>
      <trkpt lat="48.86846" lon="2.2642">
        <ele>50.400001525879</ele>
        <time>2016-07-18T19:35:09.000Z</time>
      </trkpt>
      <trkpt lat="48.86849" lon="2.26453">
        <ele>48</ele>
        <time>2016-07-18T19:35:14.000Z</time>
      </trkpt>
      <trkpt lat="48.86848" lon="2.26483">
        <ele>45.799999237061</ele>
        <time>2016-07-18T19:35:19.000Z</time>
      </trkpt>
      <trkpt lat="48.86842" lon="2.2651">
        <ele>45.599998474121</ele>
        <time>2016-07-18T19:35:24.000Z</time>
      </trkpt>
      <trkpt lat="48.86841" lon="2.26518">
        <ele>45.799999237061</ele>
        <time>2016-07-18T19:35:26.000Z</time>
      </trkpt>
      <trkpt lat="48.86839" lon="2.26529">
        <ele>45.799999237061</ele>
        <time>2016-07-18T19:36:53.000Z</time>
      </trkpt>
      <trkpt lat="48.86826" lon="2.26549">
        <ele>46.400001525879</ele>
        <time>2016-07-18T19:37:04.000Z</time>
      </trkpt>
      <trkpt lat="48.8681" lon="2.26565">
        <ele>46.400001525879</ele>
        <time>2016-07-18T19:37:12.000Z</time>
      </trkpt>
      <trkpt lat="48.8679" lon="2.2657">
        <ele>46.799999237061</ele>
        <time>2016-07-18T19:37:19.000Z</time>
      </trkpt>
      <trkpt lat="48.86773" lon="2.26562">
        <ele>47.400001525879</ele>
        <time>2016-07-18T19:37:25.000Z</time>
      </trkpt>
      <trkpt lat="48.86758" lon="2.26547">
        <ele>47.599998474121</ele>
        <time>2016-07-18T19:37:29.000Z</time>
      </trkpt>
      <trkpt lat="48.8674" lon="2.26532">
        <ele>47.799999237061</ele>
        <time>2016-07-18T19:37:34.000Z</time>
      </trkpt>
      <trkpt lat="48.86722" lon="2.26518">
        <ele>47.799999237061</ele>
        <time>2016-07-18T19:37:39.000Z</time>
      </trkpt>
      <trkpt lat="48.86702" lon="2.26503">
        <ele>48</ele>
        <time>2016-07-18T19:37:44.000Z</time>
      </trkpt>
      <trkpt lat="48.86685" lon="2.26485">
        <ele>47.200000762939</ele>
        <time>2016-07-18T19:37:49.000Z</time>
      </trkpt>
      <trkpt lat="48.86669" lon="2.26468">
        <ele>46.200000762939</ele>
        <time>2016-07-18T19:37:53.000Z</time>
      </trkpt>
      <trkpt lat="48.86655" lon="2.26451">
        <ele>45.200000762939</ele>
        <time>2016-07-18T19:37:57.000Z</time>
      </trkpt>
      <trkpt lat="48.86643" lon="2.26426">
        <ele>43.400001525879</ele>
        <time>2016-07-18T19:38:02.000Z</time>
      </trkpt>
      <trkpt lat="48.86632" lon="2.26401">
        <ele>42.599998474121</ele>
        <time>2016-07-18T19:38:07.000Z</time>
      </trkpt>
      <trkpt lat="48.86619" lon="2.26376">
        <ele>42.400001525879</ele>
        <time>2016-07-18T19:38:12.000Z</time>
      </trkpt>
      <trkpt lat="48.86606" lon="2.26358">
        <ele>42.400001525879</ele>
        <time>2016-07-18T19:38:16.000Z</time>
      </trkpt>
      <trkpt lat="48.86589" lon="2.2634">
        <ele>43</ele>
        <time>2016-07-18T19:38:21.000Z</time>
      </trkpt>
      <trkpt lat="48.86578" lon="2.26329">
        <ele>43.400001525879</ele>
        <time>2016-07-18T19:38:24.000Z</time>
      </trkpt>
      <trkpt lat="48.86561" lon="2.26318">
        <ele>44.599998474121</ele>
        <time>2016-07-18T19:38:29.000Z</time>
      </trkpt>
      <trkpt lat="48.86556" lon="2.26315">
        <ele>45</ele>
        <time>2016-07-18T19:38:31.000Z</time>
      </trkpt>
      <trkpt lat="48.86555" lon="2.26322">
        <ele>44.799999237061</ele>
        <time>2016-07-18T19:38:38.000Z</time>
      </trkpt>
      <trkpt lat="48.8656" lon="2.26323">
        <ele>44.400001525879</ele>
        <time>2016-07-18T19:38:41.000Z</time>
      </trkpt>
      <trkpt lat="48.86573" lon="2.2632">
        <ele>44</ele>
        <time>2016-07-18T19:40:10.000Z</time>
      </trkpt>
      <trkpt lat="48.86554" lon="2.26316">
        <ele>45</ele>
        <time>2016-07-18T19:40:33.000Z</time>
      </trkpt>
      <trkpt lat="48.86533" lon="2.26309">
        <ele>46.200000762939</ele>
        <time>2016-07-18T19:40:40.000Z</time>
      </trkpt>
      <trkpt lat="48.86513" lon="2.26301">
        <ele>47</ele>
        <time>2016-07-18T19:40:46.000Z</time>
      </trkpt>
      <trkpt lat="48.86495" lon="2.26294">
        <ele>47.200000762939</ele>
        <time>2016-07-18T19:40:51.000Z</time>
      </trkpt>
      <trkpt lat="48.86478" lon="2.26285">
        <ele>47.599998474121</ele>
        <time>2016-07-18T19:40:56.000Z</time>
      </trkpt>
      <trkpt lat="48.86463" lon="2.2627">
        <ele>48.200000762939</ele>
        <time>2016-07-18T19:41:01.000Z</time>
      </trkpt>
      <trkpt lat="48.86446" lon="2.26252">
        <ele>48.799999237061</ele>
        <time>2016-07-18T19:41:06.000Z</time>
      </trkpt>
      <trkpt lat="48.86431" lon="2.26236">
        <ele>48.799999237061</ele>
        <time>2016-07-18T19:41:11.000Z</time>
      </trkpt>
      <trkpt lat="48.86416" lon="2.26221">
        <ele>48.599998474121</ele>
        <time>2016-07-18T19:41:16.000Z</time>
      </trkpt>
      <trkpt lat="48.864" lon="2.26207">
        <ele>48.599998474121</ele>
        <time>2016-07-18T19:41:21.000Z</time>
      </trkpt>
      <trkpt lat="48.86382" lon="2.26194">
        <ele>48.400001525879</ele>
        <time>2016-07-18T19:41:26.000Z</time>
      </trkpt>
      <trkpt lat="48.86363" lon="2.26187">
        <ele>48.200000762939</ele>
        <time>2016-07-18T19:41:31.000Z</time>
      </trkpt>
      <trkpt lat="48.86344" lon="2.26185">
        <ele>48.799999237061</ele>
        <time>2016-07-18T19:41:36.000Z</time>
      </trkpt>
      <trkpt lat="48.86326" lon="2.2619">
        <ele>49.799999237061</ele>
        <time>2016-07-18T19:41:41.000Z</time>
      </trkpt>
      <trkpt lat="48.86306" lon="2.26196">
        <ele>50.799999237061</ele>
        <time>2016-07-18T19:41:48.000Z</time>
      </trkpt>
      <trkpt lat="48.86285" lon="2.26202">
        <ele>52.200000762939</ele>
        <time>2016-07-18T19:41:54.000Z</time>
      </trkpt>
      <trkpt lat="48.86264" lon="2.26208">
        <ele>52.599998474121</ele>
        <time>2016-07-18T19:41:59.000Z</time>
      </trkpt>
      <trkpt lat="48.86244" lon="2.26203">
        <ele>51.599998474121</ele>
        <time>2016-07-18T19:42:04.000Z</time>
      </trkpt>
      <trkpt lat="48.86224" lon="2.26192">
        <ele>50.400001525879</ele>
        <time>2016-07-18T19:42:09.000Z</time>
      </trkpt>
      <trkpt lat="48.86206" lon="2.26179">
        <ele>49.200000762939</ele>
        <time>2016-07-18T19:42:14.000Z</time>
      </trkpt>
      <trkpt lat="48.862" lon="2.26174">
        <ele>48.799999237061</ele>
        <time>2016-07-18T19:42:17.000Z</time>
      </trkpt>
      <trkpt lat="48.86189" lon="2.26166">
        <ele>48</ele>
        <time>2016-07-18T19:42:46.000Z</time>
      </trkpt>
      <trkpt lat="48.86184" lon="2.26162">
        <ele>48.200000762939</ele>
        <time>2016-07-18T19:44:02.000Z</time>
      </trkpt>
      <trkpt lat="48.8617" lon="2.26143">
        <ele>48.599998474121</ele>
        <time>2016-07-18T19:44:08.000Z</time>
      </trkpt>
      <trkpt lat="48.86157" lon="2.26122">
        <ele>49.200000762939</ele>
        <time>2016-07-18T19:44:13.000Z</time>
      </trkpt>
      <trkpt lat="48.86142" lon="2.26099">
        <ele>49.599998474121</ele>
        <time>2016-07-18T19:44:18.000Z</time>
      </trkpt>
      <trkpt lat="48.86126" lon="2.26077">
        <ele>50.200000762939</ele>
        <time>2016-07-18T19:44:23.000Z</time>
      </trkpt>
      <trkpt lat="48.86111" lon="2.26061">
        <ele>50.799999237061</ele>
        <time>2016-07-18T19:44:27.000Z</time>
      </trkpt>
      <trkpt lat="48.86097" lon="2.26041">
        <ele>50.799999237061</ele>
        <time>2016-07-18T19:44:31.000Z</time>
      </trkpt>
      <trkpt lat="48.8608" lon="2.26022">
        <ele>50.599998474121</ele>
        <time>2016-07-18T19:44:35.000Z</time>
      </trkpt>
      <trkpt lat="48.8606" lon="2.26006">
        <ele>50.400001525879</ele>
        <time>2016-07-18T19:44:39.000Z</time>
      </trkpt>
      <trkpt lat="48.86039" lon="2.25992">
        <ele>50.200000762939</ele>
        <time>2016-07-18T19:44:43.000Z</time>
      </trkpt>
      <trkpt lat="48.86021" lon="2.25984">
        <ele>50.200000762939</ele>
        <time>2016-07-18T19:44:46.000Z</time>
      </trkpt>
      <trkpt lat="48.86004" lon="2.25975">
        <ele>50.200000762939</ele>
        <time>2016-07-18T19:44:49.000Z</time>
      </trkpt>
      <trkpt lat="48.85986" lon="2.25967">
        <ele>50.599998474121</ele>
        <time>2016-07-18T19:44:52.000Z</time>
      </trkpt>
      <trkpt lat="48.85964" lon="2.25955">
        <ele>51</ele>
        <time>2016-07-18T19:44:56.000Z</time>
      </trkpt>
      <trkpt lat="48.85941" lon="2.25948">
        <ele>51.400001525879</ele>
        <time>2016-07-18T19:45:00.000Z</time>
      </trkpt>
      <trkpt lat="48.85921" lon="2.25936">
        <ele>51.599998474121</ele>
        <time>2016-07-18T19:45:04.000Z</time>
      </trkpt>
      <trkpt lat="48.859" lon="2.25923">
        <ele>51.599998474121</ele>
        <time>2016-07-18T19:45:08.000Z</time>
      </trkpt>
      <trkpt lat="48.8588" lon="2.25909">
        <ele>51.599998474121</ele>
        <time>2016-07-18T19:45:12.000Z</time>
      </trkpt>
      <trkpt lat="48.85872" lon="2.25903">
        <ele>51.599998474121</ele>
        <time>2016-07-18T19:45:14.000Z</time>
      </trkpt>
      <trkpt lat="48.85861" lon="2.25893">
        <ele>51.799999237061</ele>
        <time>2016-07-18T19:45:17.000Z</time>
      </trkpt>
      <trkpt lat="48.85851" lon="2.25887">
        <ele>52</ele>
        <time>2016-07-18T19:45:20.000Z</time>
      </trkpt>
      <trkpt lat="48.85846" lon="2.2591">
        <ele>52</ele>
        <time>2016-07-18T19:45:29.000Z</time>
      </trkpt>
      <trkpt lat="48.85846" lon="2.25932">
        <ele>51.799999237061</ele>
        <time>2016-07-18T19:45:36.000Z</time>
      </trkpt>
      <trkpt lat="48.85848" lon="2.25963">
        <ele>51.799999237061</ele>
        <time>2016-07-18T19:45:44.000Z</time>
      </trkpt>
      <trkpt lat="48.8585" lon="2.25992">
        <ele>51.799999237061</ele>
        <time>2016-07-18T19:45:50.000Z</time>
      </trkpt>
      <trkpt lat="48.85848" lon="2.26022">
        <ele>51.400001525879</ele>
        <time>2016-07-18T19:45:55.000Z</time>
      </trkpt>
      <trkpt lat="48.85846" lon="2.26052">
        <ele>51</ele>
        <time>2016-07-18T19:46:01.000Z</time>
      </trkpt>
      <trkpt lat="48.85842" lon="2.2608">
        <ele>51.200000762939</ele>
        <time>2016-07-18T19:46:29.000Z</time>
      </trkpt>
      <trkpt lat="48.85832" lon="2.26106">
        <ele>50.599998474121</ele>
        <time>2016-07-18T19:46:38.000Z</time>
      </trkpt>
      <trkpt lat="48.85825" lon="2.26131">
        <ele>50.200000762939</ele>
        <time>2016-07-18T19:46:42.000Z</time>
      </trkpt>
      <trkpt lat="48.85817" lon="2.26162">
        <ele>52.200000762939</ele>
        <time>2016-07-18T19:46:47.000Z</time>
      </trkpt>
      <trkpt lat="48.8581" lon="2.26192">
        <ele>52.799999237061</ele>
        <time>2016-07-18T19:46:52.000Z</time>
      </trkpt>
      <trkpt lat="48.85803" lon="2.26218">
        <ele>53.200000762939</ele>
        <time>2016-07-18T19:46:56.000Z</time>
      </trkpt>
      <trkpt lat="48.85801" lon="2.26224">
        <ele>53.200000762939</ele>
        <time>2016-07-18T19:46:57.000Z</time>
      </trkpt>
      <trkpt lat="48.85793" lon="2.26254">
        <ele>54</ele>
        <time>2016-07-18T19:47:02.000Z</time>
      </trkpt>
      <trkpt lat="48.85787" lon="2.26281">
        <ele>54.400001525879</ele>
        <time>2016-07-18T19:47:08.000Z</time>
      </trkpt>
      <trkpt lat="48.85786" lon="2.26284">
        <ele>54.400001525879</ele>
        <time>2016-07-18T19:47:09.000Z</time>
      </trkpt>
      <trkpt lat="48.85782" lon="2.26291">
        <ele>54.400001525879</ele>
        <time>2016-07-18T19:47:12.000Z</time>
      </trkpt>
      <trkpt lat="48.85775" lon="2.26313">
        <ele>54.200000762939</ele>
        <time>2016-07-18T19:47:17.000Z</time>
      </trkpt>
      <trkpt lat="48.85767" lon="2.2634">
        <ele>54.400001525879</ele>
        <time>2016-07-18T19:47:22.000Z</time>
      </trkpt>
      <trkpt lat="48.85757" lon="2.26367">
        <ele>55</ele>
        <time>2016-07-18T19:47:27.000Z</time>
      </trkpt>
      <trkpt lat="48.85749" lon="2.26397">
        <ele>56.200000762939</ele>
        <time>2016-07-18T19:47:32.000Z</time>
      </trkpt>
      <trkpt lat="48.8574" lon="2.26426">
        <ele>57.799999237061</ele>
        <time>2016-07-18T19:47:37.000Z</time>
      </trkpt>
      <trkpt lat="48.85734" lon="2.26454">
        <ele>58.799999237061</ele>
        <time>2016-07-18T19:47:43.000Z</time>
      </trkpt>
      <trkpt lat="48.85731" lon="2.26468">
        <ele>58.799999237061</ele>
        <time>2016-07-18T19:48:32.000Z</time>
      </trkpt>
      <trkpt lat="48.85724" lon="2.26493">
        <ele>58.599998474121</ele>
        <time>2016-07-18T19:48:38.000Z</time>
      </trkpt>
      <trkpt lat="48.85719" lon="2.26526">
        <ele>60.400001525879</ele>
        <time>2016-07-18T19:48:44.000Z</time>
      </trkpt>
      <trkpt lat="48.85711" lon="2.26555">
        <ele>61</ele>
        <time>2016-07-18T19:48:50.000Z</time>
      </trkpt>
      <trkpt lat="48.85702" lon="2.26585">
        <ele>61.200000762939</ele>
        <time>2016-07-18T19:48:55.000Z</time>
      </trkpt>
      <trkpt lat="48.85696" lon="2.26615">
        <ele>61.400001525879</ele>
        <time>2016-07-18T19:48:59.000Z</time>
      </trkpt>
      <trkpt lat="48.85696" lon="2.26645">
        <ele>61.799999237061</ele>
        <time>2016-07-18T19:49:03.000Z</time>
      </trkpt>
      <trkpt lat="48.85704" lon="2.26674">
        <ele>61.400001525879</ele>
        <time>2016-07-18T19:49:07.000Z</time>
      </trkpt>
      <trkpt lat="48.85717" lon="2.26704">
        <ele>60.799999237061</ele>
        <time>2016-07-18T19:49:11.000Z</time>
      </trkpt>
      <trkpt lat="48.8573" lon="2.26734">
        <ele>60.599998474121</ele>
        <time>2016-07-18T19:49:15.000Z</time>
      </trkpt>
      <trkpt lat="48.85742" lon="2.26765">
        <ele>60</ele>
        <time>2016-07-18T19:49:19.000Z</time>
      </trkpt>
      <trkpt lat="48.85751" lon="2.2679">
        <ele>59.200000762939</ele>
        <time>2016-07-18T19:49:22.000Z</time>
      </trkpt>
      <trkpt lat="48.85761" lon="2.26812">
        <ele>58.200000762939</ele>
        <time>2016-07-18T19:49:25.000Z</time>
      </trkpt>
      <trkpt lat="48.85763" lon="2.2682">
        <ele>58</ele>
        <time>2016-07-18T19:49:26.000Z</time>
      </trkpt>
      <trkpt lat="48.85773" lon="2.26849">
        <ele>57.200000762939</ele>
        <time>2016-07-18T19:49:30.000Z</time>
      </trkpt>
      <trkpt lat="48.85781" lon="2.26878">
        <ele>57.200000762939</ele>
        <time>2016-07-18T19:49:34.000Z</time>
      </trkpt>
      <trkpt lat="48.85789" lon="2.26907">
        <ele>57.200000762939</ele>
        <time>2016-07-18T19:49:38.000Z</time>
      </trkpt>
      <trkpt lat="48.85798" lon="2.26937">
        <ele>56.799999237061</ele>
        <time>2016-07-18T19:49:42.000Z</time>
      </trkpt>
      <trkpt lat="48.85809" lon="2.26961">
        <ele>56.400001525879</ele>
        <time>2016-07-18T19:49:46.000Z</time>
      </trkpt>
      <trkpt lat="48.85819" lon="2.2699">
        <ele>56.200000762939</ele>
        <time>2016-07-18T19:49:50.000Z</time>
      </trkpt>
      <trkpt lat="48.85827" lon="2.27018">
        <ele>56.799999237061</ele>
        <time>2016-07-18T19:49:54.000Z</time>
      </trkpt>
      <trkpt lat="48.8583" lon="2.27037">
        <ele>57.599998474121</ele>
        <time>2016-07-18T19:49:59.000Z</time>
      </trkpt>
      <trkpt lat="48.85827" lon="2.27066">
        <ele>58.400001525879</ele>
        <time>2016-07-18T19:50:06.000Z</time>
      </trkpt>
      <trkpt lat="48.85826" lon="2.27094">
        <ele>58.799999237061</ele>
        <time>2016-07-18T19:50:12.000Z</time>
      </trkpt>
      <trkpt lat="48.85824" lon="2.27122">
        <ele>59.400001525879</ele>
        <time>2016-07-18T19:50:17.000Z</time>
      </trkpt>
      <trkpt lat="48.85821" lon="2.2715">
        <ele>58.799999237061</ele>
        <time>2016-07-18T19:50:22.000Z</time>
      </trkpt>
      <trkpt lat="48.85817" lon="2.2718">
        <ele>59.200000762939</ele>
        <time>2016-07-18T19:50:28.000Z</time>
      </trkpt>
      <trkpt lat="48.85819" lon="2.2721">
        <ele>61</ele>
        <time>2016-07-18T19:50:33.000Z</time>
      </trkpt>
      <trkpt lat="48.85818" lon="2.2724">
        <ele>63.200000762939</ele>
        <time>2016-07-18T19:50:39.000Z</time>
      </trkpt>
      <trkpt lat="48.8581" lon="2.2727">
        <ele>64</ele>
        <time>2016-07-18T19:50:46.000Z</time>
      </trkpt>
      <trkpt lat="48.85809" lon="2.27302">
        <ele>65.400001525879</ele>
        <time>2016-07-18T19:50:52.000Z</time>
      </trkpt>
      <trkpt lat="48.8581" lon="2.27332">
        <ele>67.199996948242</ele>
        <time>2016-07-18T19:50:58.000Z</time>
      </trkpt>
      <trkpt lat="48.8581" lon="2.27362">
        <ele>68.599998474121</ele>
        <time>2016-07-18T19:51:03.000Z</time>
      </trkpt>
      <trkpt lat="48.85809" lon="2.27392">
        <ele>69</ele>
        <time>2016-07-18T19:51:08.000Z</time>
      </trkpt>
      <trkpt lat="48.85812" lon="2.2742">
        <ele>69.199996948242</ele>
        <time>2016-07-18T19:51:14.000Z</time>
      </trkpt>
      <trkpt lat="48.85815" lon="2.27424">
        <ele>69.199996948242</ele>
        <time>2016-07-18T19:51:17.000Z</time>
      </trkpt>
      <trkpt lat="48.85825" lon="2.27441">
        <ele>68.800003051758</ele>
        <time>2016-07-18T19:51:38.000Z</time>
      </trkpt>
      <trkpt lat="48.85831" lon="2.27471">
        <ele>68</ele>
        <time>2016-07-18T19:51:45.000Z</time>
      </trkpt>
      <trkpt lat="48.85827" lon="2.27481">
        <ele>67.599998474121</ele>
        <time>2016-07-18T19:51:49.000Z</time>
      </trkpt>
      <trkpt lat="48.85805" lon="2.27474">
        <ele>67.400001525879</ele>
        <time>2016-07-18T19:51:54.000Z</time>
      </trkpt>
      <trkpt lat="48.85784" lon="2.27469">
        <ele>67</ele>
        <time>2016-07-18T19:51:59.000Z</time>
      </trkpt>
      <trkpt lat="48.85764" lon="2.27469">
        <ele>66.199996948242</ele>
        <time>2016-07-18T19:52:03.000Z</time>
      </trkpt>
      <trkpt lat="48.85741" lon="2.2747">
        <ele>65.199996948242</ele>
        <time>2016-07-18T19:52:07.000Z</time>
      </trkpt>
      <trkpt lat="48.85722" lon="2.2747">
        <ele>64.400001525879</ele>
        <time>2016-07-18T19:52:10.000Z</time>
      </trkpt>
      <trkpt lat="48.85704" lon="2.2747">
        <ele>63.799999237061</ele>
        <time>2016-07-18T19:52:13.000Z</time>
      </trkpt>
      <trkpt lat="48.85686" lon="2.2747">
        <ele>63</ele>
        <time>2016-07-18T19:52:16.000Z</time>
      </trkpt>
      <trkpt lat="48.85676" lon="2.27471">
        <ele>62.200000762939</ele>
        <time>2016-07-18T19:52:18.000Z</time>
      </trkpt>
      <trkpt lat="48.8566" lon="2.27474">
        <ele>61</ele>
        <time>2016-07-18T19:52:22.000Z</time>
      </trkpt>
      <trkpt lat="48.85655" lon="2.27472">
        <ele>60.799999237061</ele>
        <time>2016-07-18T19:52:24.000Z</time>
      </trkpt>
      <trkpt lat="48.8564" lon="2.27476">
        <ele>60.200000762939</ele>
        <time>2016-07-18T19:52:44.000Z</time>
      </trkpt>
      <trkpt lat="48.85621" lon="2.27487">
        <ele>59.400001525879</ele>
        <time>2016-07-18T19:52:49.000Z</time>
      </trkpt>
      <trkpt lat="48.85599" lon="2.27498">
        <ele>58.799999237061</ele>
        <time>2016-07-18T19:52:53.000Z</time>
      </trkpt>
      <trkpt lat="48.8558" lon="2.27503">
        <ele>57.799999237061</ele>
        <time>2016-07-18T19:52:56.000Z</time>
      </trkpt>
      <trkpt lat="48.85556" lon="2.2751">
        <ele>57</ele>
        <time>2016-07-18T19:53:00.000Z</time>
      </trkpt>
      <trkpt lat="48.85538" lon="2.27515">
        <ele>56.200000762939</ele>
        <time>2016-07-18T19:53:03.000Z</time>
      </trkpt>
      <trkpt lat="48.85519" lon="2.27525">
        <ele>54.599998474121</ele>
        <time>2016-07-18T19:53:07.000Z</time>
      </trkpt>
      <trkpt lat="48.85501" lon="2.27532">
        <ele>53.200000762939</ele>
        <time>2016-07-18T19:53:10.000Z</time>
      </trkpt>
      <trkpt lat="48.85482" lon="2.27535">
        <ele>51.599998474121</ele>
        <time>2016-07-18T19:53:13.000Z</time>
      </trkpt>
      <trkpt lat="48.85461" lon="2.27538">
        <ele>50.400001525879</ele>
        <time>2016-07-18T19:53:16.000Z</time>
      </trkpt>
      <trkpt lat="48.85438" lon="2.27542">
        <ele>49</ele>
        <time>2016-07-18T19:53:20.000Z</time>
      </trkpt>
      <trkpt lat="48.85418" lon="2.27551">
        <ele>47.799999237061</ele>
        <time>2016-07-18T19:53:23.000Z</time>
      </trkpt>
      <trkpt lat="48.85399" lon="2.27556">
        <ele>46.599998474121</ele>
        <time>2016-07-18T19:53:26.000Z</time>
      </trkpt>
      <trkpt lat="48.85378" lon="2.2756">
        <ele>45.200000762939</ele>
        <time>2016-07-18T19:53:30.000Z</time>
      </trkpt>
      <trkpt lat="48.85356" lon="2.27565">
        <ele>43.599998474121</ele>
        <time>2016-07-18T19:53:35.000Z</time>
      </trkpt>
      <trkpt lat="48.85333" lon="2.27567">
        <ele>42.599998474121</ele>
        <time>2016-07-18T19:53:39.000Z</time>
      </trkpt>
      <trkpt lat="48.85323" lon="2.27571">
        <ele>42</ele>
        <time>2016-07-18T19:53:41.000Z</time>
      </trkpt>
      <trkpt lat="48.85316" lon="2.27578">
        <ele>41.599998474121</ele>
        <time>2016-07-18T19:53:43.000Z</time>
      </trkpt>
      <trkpt lat="48.85297" lon="2.27583">
        <ele>40.400001525879</ele>
        <time>2016-07-18T19:53:47.000Z</time>
      </trkpt>
      <trkpt lat="48.85292" lon="2.27583">
        <ele>40.200000762939</ele>
        <time>2016-07-18T19:53:48.000Z</time>
      </trkpt>
      <trkpt lat="48.85276" lon="2.27587">
        <ele>39.200000762939</ele>
        <time>2016-07-18T19:53:51.000Z</time>
      </trkpt>
      <trkpt lat="48.85262" lon="2.27612">
        <ele>39.799999237061</ele>
        <time>2016-07-18T19:53:55.000Z</time>
      </trkpt>
      <trkpt lat="48.85258" lon="2.27618">
        <ele>40</ele>
        <time>2016-07-18T19:53:56.000Z</time>
      </trkpt>
      <trkpt lat="48.85244" lon="2.27634">
        <ele>40.599998474121</ele>
        <time>2016-07-18T19:54:03.000Z</time>
      </trkpt>
      <trkpt lat="48.85262" lon="2.27638">
        <ele>40</ele>
        <time>2016-07-18T19:54:20.000Z</time>
      </trkpt>
      <trkpt lat="48.85274" lon="2.27613">
        <ele>39.400001525879</ele>
        <time>2016-07-18T19:54:29.000Z</time>
      </trkpt>
      <trkpt lat="48.85275" lon="2.27612">
        <ele>39.599998474121</ele>
        <time>2016-07-18T19:54:30.000Z</time>
      </trkpt>
      <trkpt lat="48.85285" lon="2.27605">
        <ele>40</ele>
        <time>2016-07-18T19:54:44.000Z</time>
      </trkpt>
      <trkpt lat="48.85283" lon="2.27602">
        <ele>39.799999237061</ele>
        <time>2016-07-18T19:54:48.000Z</time>
      </trkpt>
      <trkpt lat="48.85281" lon="2.27596">
        <ele>39.599998474121</ele>
        <time>2016-07-18T19:54:53.000Z</time>
      </trkpt>
      <trkpt lat="48.85284" lon="2.27587">
        <ele>39.799999237061</ele>
        <time>2016-07-18T19:55:04.000Z</time>
      </trkpt>
      <trkpt lat="48.8529" lon="2.27596">
        <ele>40</ele>
        <time>2016-07-18T19:55:35.000Z</time>
      </trkpt>
      <trkpt lat="48.85289" lon="2.276">
        <ele>40</ele>
        <time>2016-07-18T19:55:38.000Z</time>
      </trkpt>
      <trkpt lat="48.85295" lon="2.27613">
        <ele>40.400001525879</ele>
        <time>2016-07-18T19:56:00.000Z</time>
      </trkpt>
      <trkpt lat="48.8531" lon="2.27631">
        <ele>41.400001525879</ele>
        <time>2016-07-18T19:56:07.000Z</time>
      </trkpt>
      <trkpt lat="48.85324" lon="2.27656">
        <ele>42.400001525879</ele>
        <time>2016-07-18T19:56:14.000Z</time>
      </trkpt>
      <trkpt lat="48.85334" lon="2.27686">
        <ele>43.599998474121</ele>
        <time>2016-07-18T19:56:20.000Z</time>
      </trkpt>
      <trkpt lat="48.85346" lon="2.27711">
        <ele>44.599998474121</ele>
        <time>2016-07-18T19:56:27.000Z</time>
      </trkpt>
      <trkpt lat="48.85357" lon="2.27736">
        <ele>45.799999237061</ele>
        <time>2016-07-18T19:56:36.000Z</time>
      </trkpt>
      <trkpt lat="48.85372" lon="2.27755">
        <ele>47.799999237061</ele>
        <time>2016-07-18T19:56:44.000Z</time>
      </trkpt>
      <trkpt lat="48.85387" lon="2.27769">
        <ele>49.599998474121</ele>
        <time>2016-07-18T19:56:50.000Z</time>
      </trkpt>
      <trkpt lat="48.85398" lon="2.27791">
        <ele>50.400001525879</ele>
        <time>2016-07-18T19:56:57.000Z</time>
      </trkpt>
      <trkpt lat="48.85414" lon="2.27808">
        <ele>52.200000762939</ele>
        <time>2016-07-18T19:57:05.000Z</time>
      </trkpt>
      <trkpt lat="48.85426" lon="2.27828">
        <ele>53.400001525879</ele>
        <time>2016-07-18T19:57:15.000Z</time>
      </trkpt>
      <trkpt lat="48.85434" lon="2.27832">
        <ele>54.200000762939</ele>
        <time>2016-07-18T19:57:22.000Z</time>
      </trkpt>
      <trkpt lat="48.85445" lon="2.27855">
        <ele>54.599998474121</ele>
        <time>2016-07-18T19:57:35.000Z</time>
      </trkpt>
      <trkpt lat="48.85456" lon="2.27881">
        <ele>55.200000762939</ele>
        <time>2016-07-18T19:57:44.000Z</time>
      </trkpt>
      <trkpt lat="48.85464" lon="2.27907">
        <ele>55.200000762939</ele>
        <time>2016-07-18T19:57:50.000Z</time>
      </trkpt>
      <trkpt lat="48.85466" lon="2.27936">
        <ele>54.200000762939</ele>
        <time>2016-07-18T19:57:56.000Z</time>
      </trkpt>
      <trkpt lat="48.85468" lon="2.27963">
        <ele>54.200000762939</ele>
        <time>2016-07-18T19:58:00.000Z</time>
      </trkpt>
      <trkpt lat="48.85468" lon="2.27995">
        <ele>54.200000762939</ele>
        <time>2016-07-18T19:58:05.000Z</time>
      </trkpt>
      <trkpt lat="48.85466" lon="2.28023">
        <ele>52.200000762939</ele>
        <time>2016-07-18T19:58:10.000Z</time>
      </trkpt>
      <trkpt lat="48.85464" lon="2.28052">
        <ele>53.200000762939</ele>
        <time>2016-07-18T19:58:15.000Z</time>
      </trkpt>
      <trkpt lat="48.85471" lon="2.2808">
        <ele>54.400001525879</ele>
        <time>2016-07-18T19:58:20.000Z</time>
      </trkpt>
      <trkpt lat="48.85477" lon="2.28112">
        <ele>50.200000762939</ele>
        <time>2016-07-18T19:58:24.000Z</time>
      </trkpt>
      <trkpt lat="48.85482" lon="2.28142">
        <ele>45.799999237061</ele>
        <time>2016-07-18T19:58:28.000Z</time>
      </trkpt>
      <trkpt lat="48.85485" lon="2.28151">
        <ele>44.400001525879</ele>
        <time>2016-07-18T19:58:30.000Z</time>
      </trkpt>
      <trkpt lat="48.85496" lon="2.2818">
        <ele>42.599998474121</ele>
        <time>2016-07-18T19:58:37.000Z</time>
      </trkpt>
      <trkpt lat="48.85506" lon="2.28204">
        <ele>42.400001525879</ele>
        <time>2016-07-18T19:58:43.000Z</time>
      </trkpt>
      <trkpt lat="48.85517" lon="2.28226">
        <ele>42.200000762939</ele>
        <time>2016-07-18T19:58:51.000Z</time>
      </trkpt>
      <trkpt lat="48.85529" lon="2.28246">
        <ele>42.200000762939</ele>
        <time>2016-07-18T19:59:00.000Z</time>
      </trkpt>
      <trkpt lat="48.8553" lon="2.28247">
        <ele>42.400001525879</ele>
        <time>2016-07-18T19:59:01.000Z</time>
      </trkpt>
      <trkpt lat="48.85531" lon="2.2823">
        <ele>42.799999237061</ele>
        <time>2016-07-18T19:59:07.000Z</time>
      </trkpt>
      <trkpt lat="48.85543" lon="2.28208">
        <ele>43.799999237061</ele>
        <time>2016-07-18T19:59:14.000Z</time>
      </trkpt>
      <trkpt lat="48.85559" lon="2.28194">
        <ele>45.799999237061</ele>
        <time>2016-07-18T19:59:21.000Z</time>
      </trkpt>
      <trkpt lat="48.85561" lon="2.28195">
        <ele>46</ele>
        <time>2016-07-18T19:59:22.000Z</time>
      </trkpt>
      <trkpt lat="48.85576" lon="2.28212">
        <ele>46</ele>
        <time>2016-07-18T19:59:29.000Z</time>
      </trkpt>
      <trkpt lat="48.85579" lon="2.28215">
        <ele>46</ele>
        <time>2016-07-18T19:59:30.000Z</time>
      </trkpt>
      <trkpt lat="48.85592" lon="2.28239">
        <ele>45.599998474121</ele>
        <time>2016-07-18T19:59:35.000Z</time>
      </trkpt>
      <trkpt lat="48.85607" lon="2.28263">
        <ele>45.400001525879</ele>
        <time>2016-07-18T19:59:41.000Z</time>
      </trkpt>
      <trkpt lat="48.85621" lon="2.28283">
        <ele>47.200000762939</ele>
        <time>2016-07-18T19:59:47.000Z</time>
      </trkpt>
      <trkpt lat="48.8564" lon="2.28298">
        <ele>50</ele>
        <time>2016-07-18T19:59:53.000Z</time>
      </trkpt>
      <trkpt lat="48.8566" lon="2.28305">
        <ele>53.400001525879</ele>
        <time>2016-07-18T19:59:59.000Z</time>
      </trkpt>
      <trkpt lat="48.85668" lon="2.2831">
        <ele>54.799999237061</ele>
        <time>2016-07-18T20:00:02.000Z</time>
      </trkpt>
      <trkpt lat="48.85659" lon="2.28336">
        <ele>51</ele>
        <time>2016-07-18T20:00:09.000Z</time>
      </trkpt>
      <trkpt lat="48.85656" lon="2.28364">
        <ele>45.200000762939</ele>
        <time>2016-07-18T20:00:12.000Z</time>
      </trkpt>
      <trkpt lat="48.85662" lon="2.28392">
        <ele>41.799999237061</ele>
        <time>2016-07-18T20:00:18.000Z</time>
      </trkpt>
      <trkpt lat="48.85668" lon="2.28398">
        <ele>41.799999237061</ele>
        <time>2016-07-18T20:00:24.000Z</time>
      </trkpt>
      <trkpt lat="48.85675" lon="2.28412">
        <ele>41.599998474121</ele>
        <time>2016-07-18T20:00:30.000Z</time>
      </trkpt>
      <trkpt lat="48.8569" lon="2.28436">
        <ele>43.200000762939</ele>
        <time>2016-07-18T20:00:41.000Z</time>
      </trkpt>
      <trkpt lat="48.85702" lon="2.28461">
        <ele>45.599998474121</ele>
        <time>2016-07-18T20:00:52.000Z</time>
      </trkpt>
      <trkpt lat="48.85706" lon="2.28462">
        <ele>46</ele>
        <time>2016-07-18T20:00:56.000Z</time>
      </trkpt>
      <trkpt lat="48.85718" lon="2.28473">
        <ele>47.599998474121</ele>
        <time>2016-07-18T20:01:00.000Z</time>
      </trkpt>
      <trkpt lat="48.8572" lon="2.28473">
        <ele>47.799999237061</ele>
        <time>2016-07-18T20:01:02.000Z</time>
      </trkpt>
      <trkpt lat="48.85736" lon="2.28458">
        <ele>49</ele>
        <time>2016-07-18T20:01:35.000Z</time>
      </trkpt>
      <trkpt lat="48.85736" lon="2.28444">
        <ele>50.599998474121</ele>
        <time>2016-07-18T20:01:41.000Z</time>
      </trkpt>
      <trkpt lat="48.85745" lon="2.2844">
        <ele>53.200000762939</ele>
        <time>2016-07-18T20:01:55.000Z</time>
      </trkpt>
      <trkpt lat="48.85745" lon="2.2843">
        <ele>54.200000762939</ele>
        <time>2016-07-18T20:02:00.000Z</time>
      </trkpt>
      <trkpt lat="48.8575" lon="2.28433">
        <ele>55.200000762939</ele>
        <time>2016-07-18T20:02:03.000Z</time>
      </trkpt>
      <trkpt lat="48.85761" lon="2.28439">
        <ele>57.400001525879</ele>
        <time>2016-07-18T20:02:12.000Z</time>
      </trkpt>
      <trkpt lat="48.8577" lon="2.28449">
        <ele>58.599998474121</ele>
        <time>2016-07-18T20:02:16.000Z</time>
      </trkpt>
      <trkpt lat="48.85775" lon="2.28457">
        <ele>58.599998474121</ele>
        <time>2016-07-18T20:02:21.000Z</time>
      </trkpt>
      <trkpt lat="48.85759" lon="2.28432">
        <ele>57.400001525879</ele>
        <time>2016-07-18T20:02:26.000Z</time>
      </trkpt>
      <trkpt lat="48.85753" lon="2.2842">
        <ele>57.200000762939</ele>
        <time>2016-07-18T20:02:28.000Z</time>
      </trkpt>
      <trkpt lat="48.85755" lon="2.28411">
        <ele>58.799999237061</ele>
        <time>2016-07-18T20:02:36.000Z</time>
      </trkpt>
      <trkpt lat="48.85767" lon="2.284">
        <ele>63.599998474121</ele>
        <time>2016-07-18T20:02:45.000Z</time>
      </trkpt>
      <trkpt lat="48.85772" lon="2.28395">
        <ele>65.199996948242</ele>
        <time>2016-07-18T20:02:56.000Z</time>
      </trkpt>
      <trkpt lat="48.85775" lon="2.28406">
        <ele>64</ele>
        <time>2016-07-18T20:03:12.000Z</time>
      </trkpt>
      <trkpt lat="48.85778" lon="2.28398">
        <ele>65.199996948242</ele>
        <time>2016-07-18T20:03:33.000Z</time>
      </trkpt>
      <trkpt lat="48.85774" lon="2.28383">
        <ele>67</ele>
        <time>2016-07-18T20:03:51.000Z</time>
      </trkpt>
      <trkpt lat="48.85769" lon="2.28378">
        <ele>67</ele>
        <time>2016-07-18T20:04:01.000Z</time>
      </trkpt>
      <trkpt lat="48.85772" lon="2.28388">
        <ele>66.199996948242</ele>
        <time>2016-07-18T20:04:42.000Z</time>
      </trkpt>
      <trkpt lat="48.85787" lon="2.28405">
        <ele>64.800003051758</ele>
        <time>2016-07-18T20:05:04.000Z</time>
      </trkpt>
      <trkpt lat="48.85805" lon="2.28418">
        <ele>64.400001525879</ele>
        <time>2016-07-18T20:05:09.000Z</time>
      </trkpt>
      <trkpt lat="48.85822" lon="2.28431">
        <ele>64.800003051758</ele>
        <time>2016-07-18T20:05:13.000Z</time>
      </trkpt>
      <trkpt lat="48.85839" lon="2.28442">
        <ele>65.199996948242</ele>
        <time>2016-07-18T20:05:17.000Z</time>
      </trkpt>
      <trkpt lat="48.8586" lon="2.2845">
        <ele>66</ele>
        <time>2016-07-18T20:05:23.000Z</time>
      </trkpt>
      <trkpt lat="48.85876" lon="2.28462">
        <ele>67</ele>
        <time>2016-07-18T20:05:29.000Z</time>
      </trkpt>
      <trkpt lat="48.85886" lon="2.28466">
        <ele>67.599998474121</ele>
        <time>2016-07-18T20:05:33.000Z</time>
      </trkpt>
      <trkpt lat="48.85905" lon="2.28479">
        <ele>68.800003051758</ele>
        <time>2016-07-18T20:05:39.000Z</time>
      </trkpt>
      <trkpt lat="48.85922" lon="2.28494">
        <ele>69.599998474121</ele>
        <time>2016-07-18T20:05:45.000Z</time>
      </trkpt>
      <trkpt lat="48.85939" lon="2.28506">
        <ele>70.800003051758</ele>
        <time>2016-07-18T20:05:49.000Z</time>
      </trkpt>
      <trkpt lat="48.85953" lon="2.28524">
        <ele>71.199996948242</ele>
        <time>2016-07-18T20:05:53.000Z</time>
      </trkpt>
      <trkpt lat="48.85967" lon="2.28546">
        <ele>71.400001525879</ele>
        <time>2016-07-18T20:05:58.000Z</time>
      </trkpt>
      <trkpt lat="48.85987" lon="2.28559">
        <ele>72</ele>
        <time>2016-07-18T20:06:04.000Z</time>
      </trkpt>
      <trkpt lat="48.86008" lon="2.28571">
        <ele>72.599998474121</ele>
        <time>2016-07-18T20:06:07.000Z</time>
      </trkpt>
      <trkpt lat="48.86026" lon="2.28587">
        <ele>72.800003051758</ele>
        <time>2016-07-18T20:06:11.000Z</time>
      </trkpt>
      <trkpt lat="48.86042" lon="2.28599">
        <ele>72.599998474121</ele>
        <time>2016-07-18T20:06:15.000Z</time>
      </trkpt>
      <trkpt lat="48.86062" lon="2.2861">
        <ele>72.800003051758</ele>
        <time>2016-07-18T20:06:21.000Z</time>
      </trkpt>
      <trkpt lat="48.86076" lon="2.28621">
        <ele>72.599998474121</ele>
        <time>2016-07-18T20:06:25.000Z</time>
      </trkpt>
      <trkpt lat="48.86095" lon="2.28637">
        <ele>72.400001525879</ele>
        <time>2016-07-18T20:06:30.000Z</time>
      </trkpt>
      <trkpt lat="48.86113" lon="2.2865">
        <ele>72</ele>
        <time>2016-07-18T20:06:34.000Z</time>
      </trkpt>
      <trkpt lat="48.86133" lon="2.28661">
        <ele>71.199996948242</ele>
        <time>2016-07-18T20:06:38.000Z</time>
      </trkpt>
      <trkpt lat="48.86152" lon="2.28665">
        <ele>70.800003051758</ele>
        <time>2016-07-18T20:06:42.000Z</time>
      </trkpt>
      <trkpt lat="48.86164" lon="2.28659">
        <ele>71.400001525879</ele>
        <time>2016-07-18T20:06:45.000Z</time>
      </trkpt>
      <trkpt lat="48.86176" lon="2.28656">
        <ele>71.599998474121</ele>
        <time>2016-07-18T20:06:48.000Z</time>
      </trkpt>
      <trkpt lat="48.86194" lon="2.28667">
        <ele>70.400001525879</ele>
        <time>2016-07-18T20:06:54.000Z</time>
      </trkpt>
      <trkpt lat="48.86202" lon="2.28679">
        <ele>69.400001525879</ele>
        <time>2016-07-18T20:06:57.000Z</time>
      </trkpt>
      <trkpt lat="48.86215" lon="2.28699">
        <ele>67.599998474121</ele>
        <time>2016-07-18T20:07:02.000Z</time>
      </trkpt>
      <trkpt lat="48.86227" lon="2.28721">
        <ele>65.800003051758</ele>
        <time>2016-07-18T20:07:07.000Z</time>
      </trkpt>
      <trkpt lat="48.86237" lon="2.28743">
        <ele>64</ele>
        <time>2016-07-18T20:07:13.000Z</time>
      </trkpt>
      <trkpt lat="48.86253" lon="2.28759">
        <ele>63.200000762939</ele>
        <time>2016-07-18T20:07:21.000Z</time>
      </trkpt>
      <trkpt lat="48.86258" lon="2.28759">
        <ele>62.799999237061</ele>
        <time>2016-07-18T20:07:27.000Z</time>
      </trkpt>
      <trkpt lat="48.86258" lon="2.28769">
        <ele>63</ele>
        <time>2016-07-18T20:08:06.000Z</time>
      </trkpt>
      <trkpt lat="48.86258" lon="2.28772">
        <ele>63</ele>
        <time>2016-07-18T20:09:47.000Z</time>
      </trkpt>
      <trkpt lat="48.86262" lon="2.28774">
        <ele>62.799999237061</ele>
        <time>2016-07-18T20:10:07.000Z</time>
      </trkpt>
      <trkpt lat="48.86259" lon="2.28778">
        <ele>63</ele>
        <time>2016-07-18T20:10:11.000Z</time>
      </trkpt>
      <trkpt lat="48.8626" lon="2.28781">
        <ele>63</ele>
        <time>2016-07-18T20:11:19.000Z</time>
      </trkpt>
      <trkpt lat="48.86271" lon="2.28784">
        <ele>62.599998474121</ele>
        <time>2016-07-18T20:11:26.000Z</time>
      </trkpt>
      <trkpt lat="48.86278" lon="2.28784">
        <ele>62.799999237061</ele>
        <time>2016-07-18T20:11:30.000Z</time>
      </trkpt>
      <trkpt lat="48.86294" lon="2.28801">
        <ele>64.199996948242</ele>
        <time>2016-07-18T20:11:38.000Z</time>
      </trkpt>
      <trkpt lat="48.86303" lon="2.28816">
        <ele>65</ele>
        <time>2016-07-18T20:11:45.000Z</time>
      </trkpt>
      <trkpt lat="48.86319" lon="2.28813">
        <ele>66.199996948242</ele>
        <time>2016-07-18T20:12:11.000Z</time>
      </trkpt>
      <trkpt lat="48.8632" lon="2.28807">
        <ele>66.199996948242</ele>
        <time>2016-07-18T20:12:16.000Z</time>
      </trkpt>
      <trkpt lat="48.86319" lon="2.28778">
        <ele>65.400001525879</ele>
        <time>2016-07-18T20:12:44.000Z</time>
      </trkpt>
      <trkpt lat="48.86334" lon="2.28758">
        <ele>65.400001525879</ele>
        <time>2016-07-18T20:12:50.000Z</time>
      </trkpt>
      <trkpt lat="48.86353" lon="2.28767">
        <ele>66.599998474121</ele>
        <time>2016-07-18T20:12:56.000Z</time>
      </trkpt>
      <trkpt lat="48.86371" lon="2.2878">
        <ele>68.199996948242</ele>
        <time>2016-07-18T20:13:02.000Z</time>
      </trkpt>
      <trkpt lat="48.86389" lon="2.2879">
        <ele>69.599998474121</ele>
        <time>2016-07-18T20:13:08.000Z</time>
      </trkpt>
      <trkpt lat="48.86407" lon="2.28801">
        <ele>71</ele>
        <time>2016-07-18T20:13:14.000Z</time>
      </trkpt>
      <trkpt lat="48.86428" lon="2.28814">
        <ele>72.800003051758</ele>
        <time>2016-07-18T20:13:20.000Z</time>
      </trkpt>
      <trkpt lat="48.86444" lon="2.28829">
        <ele>73.800003051758</ele>
        <time>2016-07-18T20:13:24.000Z</time>
      </trkpt>
      <trkpt lat="48.86461" lon="2.28845">
        <ele>73.400001525879</ele>
        <time>2016-07-18T20:13:29.000Z</time>
      </trkpt>
      <trkpt lat="48.86479" lon="2.2886">
        <ele>73</ele>
        <time>2016-07-18T20:13:34.000Z</time>
      </trkpt>
      <trkpt lat="48.86495" lon="2.28873">
        <ele>72.599998474121</ele>
        <time>2016-07-18T20:13:38.000Z</time>
      </trkpt>
      <trkpt lat="48.86514" lon="2.28888">
        <ele>72.199996948242</ele>
        <time>2016-07-18T20:13:43.000Z</time>
      </trkpt>
      <trkpt lat="48.86532" lon="2.289">
        <ele>72.199996948242</ele>
        <time>2016-07-18T20:13:48.000Z</time>
      </trkpt>
      <trkpt lat="48.8655" lon="2.28911">
        <ele>72.599998474121</ele>
        <time>2016-07-18T20:13:52.000Z</time>
      </trkpt>
      <trkpt lat="48.8657" lon="2.28925">
        <ele>72.599998474121</ele>
        <time>2016-07-18T20:13:57.000Z</time>
      </trkpt>
      <trkpt lat="48.86588" lon="2.28936">
        <ele>72.400001525879</ele>
        <time>2016-07-18T20:14:01.000Z</time>
      </trkpt>
      <trkpt lat="48.86599" lon="2.28941">
        <ele>72.400001525879</ele>
        <time>2016-07-18T20:14:04.000Z</time>
      </trkpt>
      <trkpt lat="48.86608" lon="2.28947">
        <ele>72.599998474121</ele>
        <time>2016-07-18T20:14:06.000Z</time>
      </trkpt>
      <trkpt lat="48.86626" lon="2.28957">
        <ele>73.199996948242</ele>
        <time>2016-07-18T20:14:10.000Z</time>
      </trkpt>
      <trkpt lat="48.86644" lon="2.2897">
        <ele>74</ele>
        <time>2016-07-18T20:14:15.000Z</time>
      </trkpt>
      <trkpt lat="48.86652" lon="2.28972">
        <ele>74.400001525879</ele>
        <time>2016-07-18T20:14:16.000Z</time>
      </trkpt>
      <trkpt lat="48.86671" lon="2.28978">
        <ele>75.599998474121</ele>
        <time>2016-07-18T20:14:20.000Z</time>
      </trkpt>
      <trkpt lat="48.86678" lon="2.28989">
        <ele>75.599998474121</ele>
        <time>2016-07-18T20:14:25.000Z</time>
      </trkpt>
      <trkpt lat="48.86678" lon="2.28989">
        <ele>75.599998474121</ele>
        <time>2016-07-18T20:14:26.000Z</time>
      </trkpt>
      <trkpt lat="48.86686" lon="2.28995">
        <ele>75.800003051758</ele>
        <time>2016-07-18T20:14:43.000Z</time>
      </trkpt>
      <trkpt lat="48.86705" lon="2.29005">
        <ele>75</ele>
        <time>2016-07-18T20:14:49.000Z</time>
      </trkpt>
      <trkpt lat="48.86724" lon="2.2902">
        <ele>73.400001525879</ele>
        <time>2016-07-18T20:14:53.000Z</time>
      </trkpt>
      <trkpt lat="48.86729" lon="2.29026">
        <ele>73</ele>
        <time>2016-07-18T20:14:54.000Z</time>
      </trkpt>
      <trkpt lat="48.86747" lon="2.29041">
        <ele>71.599998474121</ele>
        <time>2016-07-18T20:14:58.000Z</time>
      </trkpt>
      <trkpt lat="48.86765" lon="2.29059">
        <ele>70.199996948242</ele>
        <time>2016-07-18T20:15:02.000Z</time>
      </trkpt>
      <trkpt lat="48.86783" lon="2.29075">
        <ele>69.199996948242</ele>
        <time>2016-07-18T20:15:06.000Z</time>
      </trkpt>
      <trkpt lat="48.86793" lon="2.29083">
        <ele>69.199996948242</ele>
        <time>2016-07-18T20:15:08.000Z</time>
      </trkpt>
      <trkpt lat="48.86813" lon="2.29094">
        <ele>69.599998474121</ele>
        <time>2016-07-18T20:15:12.000Z</time>
      </trkpt>
      <trkpt lat="48.86834" lon="2.29106">
        <ele>70.199996948242</ele>
        <time>2016-07-18T20:15:16.000Z</time>
      </trkpt>
      <trkpt lat="48.86847" lon="2.29113">
        <ele>70.599998474121</ele>
        <time>2016-07-18T20:15:19.000Z</time>
      </trkpt>
      <trkpt lat="48.86865" lon="2.29123">
        <ele>71</ele>
        <time>2016-07-18T20:15:23.000Z</time>
      </trkpt>
      <trkpt lat="48.86869" lon="2.29127">
        <ele>71.199996948242</ele>
        <time>2016-07-18T20:15:24.000Z</time>
      </trkpt>
      <trkpt lat="48.86886" lon="2.29141">
        <ele>72</ele>
        <time>2016-07-18T20:15:28.000Z</time>
      </trkpt>
      <trkpt lat="48.86891" lon="2.29145">
        <ele>72.199996948242</ele>
        <time>2016-07-18T20:15:29.000Z</time>
      </trkpt>
      <trkpt lat="48.8691" lon="2.29159">
        <ele>72.800003051758</ele>
        <time>2016-07-18T20:15:33.000Z</time>
      </trkpt>
      <trkpt lat="48.86919" lon="2.29166">
        <ele>73</ele>
        <time>2016-07-18T20:15:35.000Z</time>
      </trkpt>
      <trkpt lat="48.86939" lon="2.29181">
        <ele>72.800003051758</ele>
        <time>2016-07-18T20:15:39.000Z</time>
      </trkpt>
      <trkpt lat="48.8696" lon="2.29197">
        <ele>72.599998474121</ele>
        <time>2016-07-18T20:15:43.000Z</time>
      </trkpt>
      <trkpt lat="48.86979" lon="2.29208">
        <ele>72.400001525879</ele>
        <time>2016-07-18T20:15:47.000Z</time>
      </trkpt>
      <trkpt lat="48.86999" lon="2.29219">
        <ele>72.599998474121</ele>
        <time>2016-07-18T20:15:51.000Z</time>
      </trkpt>
      <trkpt lat="48.87018" lon="2.2923">
        <ele>72.800003051758</ele>
        <time>2016-07-18T20:15:55.000Z</time>
      </trkpt>
      <trkpt lat="48.87038" lon="2.29245">
        <ele>73</ele>
        <time>2016-07-18T20:15:59.000Z</time>
      </trkpt>
      <trkpt lat="48.87058" lon="2.29255">
        <ele>73.599998474121</ele>
        <time>2016-07-18T20:16:03.000Z</time>
      </trkpt>
      <trkpt lat="48.87078" lon="2.29267">
        <ele>74.400001525879</ele>
        <time>2016-07-18T20:16:07.000Z</time>
      </trkpt>
      <trkpt lat="48.87096" lon="2.29281">
        <ele>74.800003051758</ele>
        <time>2016-07-18T20:16:11.000Z</time>
      </trkpt>
      <trkpt lat="48.87112" lon="2.29299">
        <ele>74.199996948242</ele>
        <time>2016-07-18T20:16:15.000Z</time>
      </trkpt>
      <trkpt lat="48.87131" lon="2.29317">
        <ele>72.199996948242</ele>
        <time>2016-07-18T20:16:19.000Z</time>
      </trkpt>
      <trkpt lat="48.87146" lon="2.29334">
        <ele>70.599998474121</ele>
        <time>2016-07-18T20:16:22.000Z</time>
      </trkpt>
      <trkpt lat="48.87164" lon="2.29346">
        <ele>69.199996948242</ele>
        <time>2016-07-18T20:16:25.000Z</time>
      </trkpt>
      <trkpt lat="48.8718" lon="2.2936">
        <ele>67.800003051758</ele>
        <time>2016-07-18T20:16:28.000Z</time>
      </trkpt>
      <trkpt lat="48.872" lon="2.29374">
        <ele>66.800003051758</ele>
        <time>2016-07-18T20:16:31.000Z</time>
      </trkpt>
      <trkpt lat="48.87214" lon="2.29385">
        <ele>66.400001525879</ele>
        <time>2016-07-18T20:16:34.000Z</time>
      </trkpt>
      <trkpt lat="48.87227" lon="2.29393">
        <ele>66</ele>
        <time>2016-07-18T20:16:37.000Z</time>
      </trkpt>
      <trkpt lat="48.87233" lon="2.29412">
        <ele>65.599998474121</ele>
        <time>2016-07-18T20:16:42.000Z</time>
      </trkpt>
      <trkpt lat="48.87233" lon="2.29413">
        <ele>65.400001525879</ele>
        <time>2016-07-18T20:16:43.000Z</time>
      </trkpt>
      <trkpt lat="48.87237" lon="2.29434">
        <ele>65</ele>
        <time>2016-07-18T20:17:11.000Z</time>
      </trkpt>
      <trkpt lat="48.87241" lon="2.29464">
        <ele>64.199996948242</ele>
        <time>2016-07-18T20:17:16.000Z</time>
      </trkpt>
      <trkpt lat="48.87243" lon="2.29495">
        <ele>64</ele>
        <time>2016-07-18T20:17:21.000Z</time>
      </trkpt>
      <trkpt lat="48.87235" lon="2.29509">
        <ele>64</ele>
        <time>2016-07-18T20:17:25.000Z</time>
      </trkpt>
      <trkpt lat="48.87229" lon="2.29509">
        <ele>64.199996948242</ele>
        <time>2016-07-18T20:17:30.000Z</time>
      </trkpt>
      <trkpt lat="48.87226" lon="2.29538">
        <ele>63.799999237061</ele>
        <time>2016-07-18T20:18:06.000Z</time>
      </trkpt>
      <trkpt lat="48.87233" lon="2.29566">
        <ele>63.400001525879</ele>
        <time>2016-07-18T20:18:12.000Z</time>
      </trkpt>
      <trkpt lat="48.87241" lon="2.29591">
        <ele>63.400001525879</ele>
        <time>2016-07-18T20:18:17.000Z</time>
      </trkpt>
      <trkpt lat="48.87246" lon="2.29613">
        <ele>64.199996948242</ele>
        <time>2016-07-18T20:18:24.000Z</time>
      </trkpt>
      <trkpt lat="48.87253" lon="2.29628">
        <ele>64.599998474121</ele>
        <time>2016-07-18T20:18:28.000Z</time>
      </trkpt>
      <trkpt lat="48.87258" lon="2.29639">
        <ele>64.599998474121</ele>
        <time>2016-07-18T20:19:05.000Z</time>
      </trkpt>
      <trkpt lat="48.87271" lon="2.29661">
        <ele>65</ele>
        <time>2016-07-18T20:19:14.000Z</time>
      </trkpt>
      <trkpt lat="48.87281" lon="2.29679">
        <ele>65.199996948242</ele>
        <time>2016-07-18T20:19:25.000Z</time>
      </trkpt>
      <trkpt lat="48.87285" lon="2.29676">
        <ele>64.800003051758</ele>
        <time>2016-07-18T20:19:28.000Z</time>
      </trkpt>
      <trkpt lat="48.87287" lon="2.29682">
        <ele>65</ele>
        <time>2016-07-18T20:20:17.000Z</time>
      </trkpt>
      <trkpt lat="48.87281" lon="2.29709">
        <ele>67</ele>
        <time>2016-07-18T20:20:25.000Z</time>
      </trkpt>
      <trkpt lat="48.87271" lon="2.29736">
        <ele>69.400001525879</ele>
        <time>2016-07-18T20:20:31.000Z</time>
      </trkpt>
      <trkpt lat="48.87265" lon="2.29764">
        <ele>69.400001525879</ele>
        <time>2016-07-18T20:20:36.000Z</time>
      </trkpt>
      <trkpt lat="48.87259" lon="2.29794">
        <ele>68.400001525879</ele>
        <time>2016-07-18T20:20:42.000Z</time>
      </trkpt>
      <trkpt lat="48.87255" lon="2.29822">
        <ele>67.800003051758</ele>
        <time>2016-07-18T20:20:50.000Z</time>
      </trkpt>
      <trkpt lat="48.87254" lon="2.29856">
        <ele>66.400001525879</ele>
        <time>2016-07-18T20:20:56.000Z</time>
      </trkpt>
      <trkpt lat="48.87249" lon="2.29886">
        <ele>65.199996948242</ele>
        <time>2016-07-18T20:21:01.000Z</time>
      </trkpt>
      <trkpt lat="48.87243" lon="2.29912">
        <ele>63.799999237061</ele>
        <time>2016-07-18T20:21:07.000Z</time>
      </trkpt>
      <trkpt lat="48.8724" lon="2.29913">
        <ele>63.799999237061</ele>
        <time>2016-07-18T20:21:10.000Z</time>
      </trkpt>
      <trkpt lat="48.87238" lon="2.29919">
        <ele>63.799999237061</ele>
        <time>2016-07-18T20:21:14.000Z</time>
      </trkpt>
      <trkpt lat="48.87236" lon="2.29946">
        <ele>63.400001525879</ele>
        <time>2016-07-18T20:21:21.000Z</time>
      </trkpt>
      <trkpt lat="48.87231" lon="2.29977">
        <ele>62.400001525879</ele>
        <time>2016-07-18T20:21:27.000Z</time>
      </trkpt>
      <trkpt lat="48.87226" lon="2.30005">
        <ele>61.799999237061</ele>
        <time>2016-07-18T20:21:32.000Z</time>
      </trkpt>
      <trkpt lat="48.87213" lon="2.3003">
        <ele>61.599998474121</ele>
        <time>2016-07-18T20:21:38.000Z</time>
      </trkpt>
      <trkpt lat="48.87209" lon="2.30061">
        <ele>59.799999237061</ele>
        <time>2016-07-18T20:21:46.000Z</time>
      </trkpt>
      <trkpt lat="48.87183" lon="2.30075">
        <ele>57.400001525879</ele>
        <time>2016-07-18T20:21:52.000Z</time>
      </trkpt>
      <trkpt lat="48.87178" lon="2.30083">
        <ele>57.200000762939</ele>
        <time>2016-07-18T20:21:54.000Z</time>
      </trkpt>
      <trkpt lat="48.87169" lon="2.30094">
        <ele>57.200000762939</ele>
        <time>2016-07-18T20:21:58.000Z</time>
      </trkpt>
      <trkpt lat="48.87162" lon="2.30122">
        <ele>56.599998474121</ele>
        <time>2016-07-18T20:22:04.000Z</time>
      </trkpt>
      <trkpt lat="48.87159" lon="2.30153">
        <ele>54.799999237061</ele>
        <time>2016-07-18T20:22:09.000Z</time>
      </trkpt>
      <trkpt lat="48.87152" lon="2.30185">
        <ele>53.599998474121</ele>
        <time>2016-07-18T20:22:14.000Z</time>
      </trkpt>
      <trkpt lat="48.87145" lon="2.30213">
        <ele>53.599998474121</ele>
        <time>2016-07-18T20:22:19.000Z</time>
      </trkpt>
      <trkpt lat="48.87135" lon="2.30232">
        <ele>53.599998474121</ele>
        <time>2016-07-18T20:22:27.000Z</time>
      </trkpt>
      <trkpt lat="48.87132" lon="2.30246">
        <ele>53.599998474121</ele>
        <time>2016-07-18T20:22:34.000Z</time>
      </trkpt>
      <trkpt lat="48.87125" lon="2.30251">
        <ele>53.599998474121</ele>
        <time>2016-07-18T20:22:48.000Z</time>
      </trkpt>
      <trkpt lat="48.87124" lon="2.30258">
        <ele>53.799999237061</ele>
        <time>2016-07-18T20:22:51.000Z</time>
      </trkpt>
      <trkpt lat="48.87122" lon="2.30266">
        <ele>53.799999237061</ele>
        <time>2016-07-18T20:22:55.000Z</time>
      </trkpt>
      <trkpt lat="48.87122" lon="2.30267">
        <ele>53.799999237061</ele>
        <time>2016-07-18T20:22:56.000Z</time>
      </trkpt>
      <trkpt lat="48.87114" lon="2.30292">
        <ele>54.200000762939</ele>
        <time>2016-07-18T20:23:40.000Z</time>
      </trkpt>
      <trkpt lat="48.87111" lon="2.3032">
        <ele>54.799999237061</ele>
        <time>2016-07-18T20:23:48.000Z</time>
      </trkpt>
      <trkpt lat="48.871" lon="2.30343">
        <ele>55</ele>
        <time>2016-07-18T20:23:55.000Z</time>
      </trkpt>
      <trkpt lat="48.87092" lon="2.30369">
        <ele>55</ele>
        <time>2016-07-18T20:24:00.000Z</time>
      </trkpt>
      <trkpt lat="48.87085" lon="2.30395">
        <ele>55</ele>
        <time>2016-07-18T20:24:04.000Z</time>
      </trkpt>
      <trkpt lat="48.87079" lon="2.30422">
        <ele>55</ele>
        <time>2016-07-18T20:24:08.000Z</time>
      </trkpt>
      <trkpt lat="48.8707" lon="2.30452">
        <ele>54</ele>
        <time>2016-07-18T20:24:13.000Z</time>
      </trkpt>
      <trkpt lat="48.87058" lon="2.3048">
        <ele>52.400001525879</ele>
        <time>2016-07-18T20:24:18.000Z</time>
      </trkpt>
      <trkpt lat="48.8705" lon="2.30506">
        <ele>51.200000762939</ele>
        <time>2016-07-18T20:24:23.000Z</time>
      </trkpt>
      <trkpt lat="48.87045" lon="2.30535">
        <ele>50.200000762939</ele>
        <time>2016-07-18T20:24:29.000Z</time>
      </trkpt>
      <trkpt lat="48.87038" lon="2.30562">
        <ele>48.599998474121</ele>
        <time>2016-07-18T20:24:36.000Z</time>
      </trkpt>
      <trkpt lat="48.87028" lon="2.30587">
        <ele>47.200000762939</ele>
        <time>2016-07-18T20:24:45.000Z</time>
      </trkpt>
      <trkpt lat="48.87022" lon="2.30603">
        <ele>48.200000762939</ele>
        <time>2016-07-18T20:24:50.000Z</time>
      </trkpt>
      <trkpt lat="48.87023" lon="2.30613">
        <ele>48.599998474121</ele>
        <time>2016-07-18T20:24:56.000Z</time>
      </trkpt>
      <trkpt lat="48.87012" lon="2.30639">
        <ele>50.400001525879</ele>
        <time>2016-07-18T20:25:06.000Z</time>
      </trkpt>
      <trkpt lat="48.87002" lon="2.30666">
        <ele>50.799999237061</ele>
        <time>2016-07-18T20:25:14.000Z</time>
      </trkpt>
      <trkpt lat="48.86992" lon="2.30688">
        <ele>50.400001525879</ele>
        <time>2016-07-18T20:25:20.000Z</time>
      </trkpt>
      <trkpt lat="48.86983" lon="2.30711">
        <ele>49.599998474121</ele>
        <time>2016-07-18T20:25:25.000Z</time>
      </trkpt>
      <trkpt lat="48.8698" lon="2.30723">
        <ele>48.400001525879</ele>
        <time>2016-07-18T20:25:27.000Z</time>
      </trkpt>
      <trkpt lat="48.8697" lon="2.30749">
        <ele>45.400001525879</ele>
        <time>2016-07-18T20:25:32.000Z</time>
      </trkpt>
      <trkpt lat="48.86964" lon="2.30765">
        <ele>43.599998474121</ele>
        <time>2016-07-18T20:25:36.000Z</time>
      </trkpt>
      <trkpt lat="48.86952" lon="2.30788">
        <ele>43.200000762939</ele>
        <time>2016-07-18T20:25:43.000Z</time>
      </trkpt>
      <trkpt lat="48.86949" lon="2.30814">
        <ele>43.200000762939</ele>
        <time>2016-07-18T20:25:49.000Z</time>
      </trkpt>
      <trkpt lat="48.86942" lon="2.3084">
        <ele>43</ele>
        <time>2016-07-18T20:25:54.000Z</time>
      </trkpt>
      <trkpt lat="48.86931" lon="2.3086">
        <ele>43.200000762939</ele>
        <time>2016-07-18T20:26:01.000Z</time>
      </trkpt>
      <trkpt lat="48.86916" lon="2.30877">
        <ele>43.200000762939</ele>
        <time>2016-07-18T20:26:43.000Z</time>
      </trkpt>
      <trkpt lat="48.86914" lon="2.30892">
        <ele>43.200000762939</ele>
        <time>2016-07-18T20:26:48.000Z</time>
      </trkpt>
      <trkpt lat="48.86928" lon="2.30903">
        <ele>43.200000762939</ele>
        <time>2016-07-18T20:26:57.000Z</time>
      </trkpt>
      <trkpt lat="48.86939" lon="2.30926">
        <ele>43.200000762939</ele>
        <time>2016-07-18T20:27:05.000Z</time>
      </trkpt>
      <trkpt lat="48.86949" lon="2.30956">
        <ele>43.799999237061</ele>
        <time>2016-07-18T20:27:13.000Z</time>
      </trkpt>
      <trkpt lat="48.86959" lon="2.30979">
        <ele>44.400001525879</ele>
        <time>2016-07-18T20:27:22.000Z</time>
      </trkpt>
      <trkpt lat="48.86959" lon="2.30988">
        <ele>44.599998474121</ele>
        <time>2016-07-18T20:27:25.000Z</time>
      </trkpt>
      <trkpt lat="48.8696" lon="2.31009">
        <ele>44.799999237061</ele>
        <time>2016-07-18T20:27:29.000Z</time>
      </trkpt>
      <trkpt lat="48.86958" lon="2.31035">
        <ele>44.799999237061</ele>
        <time>2016-07-18T20:27:34.000Z</time>
      </trkpt>
      <trkpt lat="48.86957" lon="2.3105">
        <ele>44.799999237061</ele>
        <time>2016-07-18T20:27:41.000Z</time>
      </trkpt>
      <trkpt lat="48.86954" lon="2.31079">
        <ele>44.799999237061</ele>
        <time>2016-07-18T20:27:49.000Z</time>
      </trkpt>
      <trkpt lat="48.86954" lon="2.31086">
        <ele>44.599998474121</ele>
        <time>2016-07-18T20:27:53.000Z</time>
      </trkpt>
      <trkpt lat="48.86952" lon="2.31111">
        <ele>43.200000762939</ele>
        <time>2016-07-18T20:28:15.000Z</time>
      </trkpt>
      <trkpt lat="48.86961" lon="2.31137">
        <ele>42.400001525879</ele>
        <time>2016-07-18T20:28:22.000Z</time>
      </trkpt>
      <trkpt lat="48.8697" lon="2.31164">
        <ele>41.599998474121</ele>
        <time>2016-07-18T20:28:28.000Z</time>
      </trkpt>
      <trkpt lat="48.86981" lon="2.31189">
        <ele>41.799999237061</ele>
        <time>2016-07-18T20:28:33.000Z</time>
      </trkpt>
      <trkpt lat="48.86993" lon="2.31216">
        <ele>42.200000762939</ele>
        <time>2016-07-18T20:28:38.000Z</time>
      </trkpt>
      <trkpt lat="48.87005" lon="2.31243">
        <ele>42</ele>
        <time>2016-07-18T20:28:43.000Z</time>
      </trkpt>
      <trkpt lat="48.87019" lon="2.31268">
        <ele>43.400001525879</ele>
        <time>2016-07-18T20:28:47.000Z</time>
      </trkpt>
      <trkpt lat="48.87034" lon="2.31294">
        <ele>43.799999237061</ele>
        <time>2016-07-18T20:28:51.000Z</time>
      </trkpt>
      <trkpt lat="48.87049" lon="2.31318">
        <ele>43.400001525879</ele>
        <time>2016-07-18T20:28:56.000Z</time>
      </trkpt>
      <trkpt lat="48.87059" lon="2.31326">
        <ele>43.200000762939</ele>
        <time>2016-07-18T20:28:58.000Z</time>
      </trkpt>
      <trkpt lat="48.8708" lon="2.31344">
        <ele>43</ele>
        <time>2016-07-18T20:29:02.000Z</time>
      </trkpt>
      <trkpt lat="48.87099" lon="2.31361">
        <ele>43</ele>
        <time>2016-07-18T20:29:06.000Z</time>
      </trkpt>
      <trkpt lat="48.87115" lon="2.31381">
        <ele>43</ele>
        <time>2016-07-18T20:29:10.000Z</time>
      </trkpt>
      <trkpt lat="48.87133" lon="2.31392">
        <ele>42.799999237061</ele>
        <time>2016-07-18T20:29:13.000Z</time>
      </trkpt>
      <trkpt lat="48.87154" lon="2.31406">
        <ele>42.599998474121</ele>
        <time>2016-07-18T20:29:17.000Z</time>
      </trkpt>
      <trkpt lat="48.87179" lon="2.31417">
        <ele>42.400001525879</ele>
        <time>2016-07-18T20:29:29.000Z</time>
      </trkpt>
      <trkpt lat="48.87182" lon="2.31419">
        <ele>42.400001525879</ele>
        <time>2016-07-18T20:29:30.000Z</time>
      </trkpt>
      <trkpt lat="48.872" lon="2.31427">
        <ele>42.400001525879</ele>
        <time>2016-07-18T20:29:35.000Z</time>
      </trkpt>
      <trkpt lat="48.8722" lon="2.31438">
        <ele>42.599998474121</ele>
        <time>2016-07-18T20:29:40.000Z</time>
      </trkpt>
      <trkpt lat="48.8724" lon="2.31449">
        <ele>43</ele>
        <time>2016-07-18T20:29:45.000Z</time>
      </trkpt>
      <trkpt lat="48.87257" lon="2.31465">
        <ele>43.400001525879</ele>
        <time>2016-07-18T20:29:50.000Z</time>
      </trkpt>
      <trkpt lat="48.8727" lon="2.31487">
        <ele>43.799999237061</ele>
        <time>2016-07-18T20:29:54.000Z</time>
      </trkpt>
      <trkpt lat="48.8728" lon="2.31516">
        <ele>44.400001525879</ele>
        <time>2016-07-18T20:29:58.000Z</time>
      </trkpt>
      <trkpt lat="48.87285" lon="2.3154">
        <ele>44.799999237061</ele>
        <time>2016-07-18T20:30:02.000Z</time>
      </trkpt>
      <trkpt lat="48.87289" lon="2.31568">
        <ele>45.200000762939</ele>
        <time>2016-07-18T20:30:09.000Z</time>
      </trkpt>
      <trkpt lat="48.87294" lon="2.31597">
        <ele>44.599998474121</ele>
        <time>2016-07-18T20:30:14.000Z</time>
      </trkpt>
      <trkpt lat="48.873" lon="2.31624">
        <ele>44</ele>
        <time>2016-07-18T20:30:18.000Z</time>
      </trkpt>
      <trkpt lat="48.87307" lon="2.31653">
        <ele>43.200000762939</ele>
        <time>2016-07-18T20:30:22.000Z</time>
      </trkpt>
      <trkpt lat="48.87311" lon="2.31675">
        <ele>42.799999237061</ele>
        <time>2016-07-18T20:30:25.000Z</time>
      </trkpt>
      <trkpt lat="48.87313" lon="2.3171">
        <ele>42.599998474121</ele>
        <time>2016-07-18T20:30:29.000Z</time>
      </trkpt>
      <trkpt lat="48.87319" lon="2.31741">
        <ele>42.799999237061</ele>
        <time>2016-07-18T20:30:33.000Z</time>
      </trkpt>
      <trkpt lat="48.87324" lon="2.31768">
        <ele>43.200000762939</ele>
        <time>2016-07-18T20:30:37.000Z</time>
      </trkpt>
      <trkpt lat="48.87325" lon="2.31786">
        <ele>43.599998474121</ele>
        <time>2016-07-18T20:30:41.000Z</time>
      </trkpt>
      <trkpt lat="48.87324" lon="2.31789">
        <ele>43.799999237061</ele>
        <time>2016-07-18T20:30:44.000Z</time>
      </trkpt>
      <trkpt lat="48.87325" lon="2.31811">
        <ele>44.200000762939</ele>
        <time>2016-07-18T20:31:02.000Z</time>
      </trkpt>
      <trkpt lat="48.8733" lon="2.31837">
        <ele>44.799999237061</ele>
        <time>2016-07-18T20:31:06.000Z</time>
      </trkpt>
      <trkpt lat="48.87331" lon="2.3185">
        <ele>45</ele>
        <time>2016-07-18T20:31:08.000Z</time>
      </trkpt>
      <trkpt lat="48.87336" lon="2.31877">
        <ele>45.599998474121</ele>
        <time>2016-07-18T20:31:13.000Z</time>
      </trkpt>
      <trkpt lat="48.87339" lon="2.31907">
        <ele>45.799999237061</ele>
        <time>2016-07-18T20:31:18.000Z</time>
      </trkpt>
      <trkpt lat="48.87342" lon="2.31936">
        <ele>45.200000762939</ele>
        <time>2016-07-18T20:31:22.000Z</time>
      </trkpt>
      <trkpt lat="48.87344" lon="2.31968">
        <ele>44.400001525879</ele>
        <time>2016-07-18T20:31:27.000Z</time>
      </trkpt>
      <trkpt lat="48.87345" lon="2.32003">
        <ele>43.799999237061</ele>
        <time>2016-07-18T20:31:32.000Z</time>
      </trkpt>
      <trkpt lat="48.87348" lon="2.32031">
        <ele>44.200000762939</ele>
        <time>2016-07-18T20:31:36.000Z</time>
      </trkpt>
      <trkpt lat="48.87347" lon="2.32052">
        <ele>44.400001525879</ele>
        <time>2016-07-18T20:31:39.000Z</time>
      </trkpt>
      <trkpt lat="48.87345" lon="2.32071">
        <ele>44.599998474121</ele>
        <time>2016-07-18T20:31:42.000Z</time>
      </trkpt>
      <trkpt lat="48.87345" lon="2.32101">
        <ele>45.200000762939</ele>
        <time>2016-07-18T20:31:47.000Z</time>
      </trkpt>
      <trkpt lat="48.87346" lon="2.32107">
        <ele>45.400001525879</ele>
        <time>2016-07-18T20:31:48.000Z</time>
      </trkpt>
      <trkpt lat="48.87349" lon="2.3214">
        <ele>45.799999237061</ele>
        <time>2016-07-18T20:31:53.000Z</time>
      </trkpt>
      <trkpt lat="48.87351" lon="2.32168">
        <ele>45.799999237061</ele>
        <time>2016-07-18T20:31:57.000Z</time>
      </trkpt>
      <trkpt lat="48.87351" lon="2.32201">
        <ele>44.799999237061</ele>
        <time>2016-07-18T20:32:02.000Z</time>
      </trkpt>
      <trkpt lat="48.87349" lon="2.32229">
        <ele>43.799999237061</ele>
        <time>2016-07-18T20:32:07.000Z</time>
      </trkpt>
      <trkpt lat="48.87349" lon="2.32256">
        <ele>43.400001525879</ele>
        <time>2016-07-18T20:32:11.000Z</time>
      </trkpt>
      <trkpt lat="48.87354" lon="2.32286">
        <ele>43.200000762939</ele>
        <time>2016-07-18T20:32:15.000Z</time>
      </trkpt>
      <trkpt lat="48.87354" lon="2.32294">
        <ele>43.200000762939</ele>
        <time>2016-07-18T20:32:16.000Z</time>
      </trkpt>
      <trkpt lat="48.87354" lon="2.32318">
        <ele>43.200000762939</ele>
        <time>2016-07-18T20:32:19.000Z</time>
      </trkpt>
      <trkpt lat="48.87351" lon="2.32346">
        <ele>43.599998474121</ele>
        <time>2016-07-18T20:32:23.000Z</time>
      </trkpt>
      <trkpt lat="48.87349" lon="2.32364">
        <ele>44.200000762939</ele>
        <time>2016-07-18T20:32:26.000Z</time>
      </trkpt>
      <trkpt lat="48.8735" lon="2.32396">
        <ele>45</ele>
        <time>2016-07-18T20:32:30.000Z</time>
      </trkpt>
      <trkpt lat="48.87346" lon="2.3243">
        <ele>45.799999237061</ele>
        <time>2016-07-18T20:32:35.000Z</time>
      </trkpt>
      <trkpt lat="48.87345" lon="2.32437">
        <ele>46</ele>
        <time>2016-07-18T20:32:36.000Z</time>
      </trkpt>
      <trkpt lat="48.87343" lon="2.32467">
        <ele>46.799999237061</ele>
        <time>2016-07-18T20:32:40.000Z</time>
      </trkpt>
      <trkpt lat="48.87343" lon="2.32499">
        <ele>47.400001525879</ele>
        <time>2016-07-18T20:32:44.000Z</time>
      </trkpt>
      <trkpt lat="48.87338" lon="2.32529">
        <ele>48.599998474121</ele>
        <time>2016-07-18T20:32:48.000Z</time>
      </trkpt>
      <trkpt lat="48.87336" lon="2.32535">
        <ele>48.799999237061</ele>
        <time>2016-07-18T20:32:49.000Z</time>
      </trkpt>
      <trkpt lat="48.87334" lon="2.32565">
        <ele>49.599998474121</ele>
        <time>2016-07-18T20:32:53.000Z</time>
      </trkpt>
      <trkpt lat="48.87334" lon="2.32594">
        <ele>49.200000762939</ele>
        <time>2016-07-18T20:32:57.000Z</time>
      </trkpt>
      <trkpt lat="48.87334" lon="2.32601">
        <ele>49</ele>
        <time>2016-07-18T20:32:58.000Z</time>
      </trkpt>
      <trkpt lat="48.8733" lon="2.32632">
        <ele>48.200000762939</ele>
        <time>2016-07-18T20:33:03.000Z</time>
      </trkpt>
      <trkpt lat="48.87327" lon="2.32643">
        <ele>48.200000762939</ele>
        <time>2016-07-18T20:33:05.000Z</time>
      </trkpt>
      <trkpt lat="48.87321" lon="2.32654">
        <ele>48.400001525879</ele>
        <time>2016-07-18T20:33:08.000Z</time>
      </trkpt>
      <trkpt lat="48.87314" lon="2.32664">
        <ele>48.599998474121</ele>
        <time>2016-07-18T20:33:11.000Z</time>
      </trkpt>
      <trkpt lat="48.87314" lon="2.32692">
        <ele>48.599998474121</ele>
        <time>2016-07-18T20:33:17.000Z</time>
      </trkpt>
      <trkpt lat="48.87313" lon="2.32703">
        <ele>48.599998474121</ele>
        <time>2016-07-18T20:33:19.000Z</time>
      </trkpt>
      <trkpt lat="48.87312" lon="2.32732">
        <ele>49.599998474121</ele>
        <time>2016-07-18T20:33:24.000Z</time>
      </trkpt>
      <trkpt lat="48.87309" lon="2.32763">
        <ele>50.200000762939</ele>
        <time>2016-07-18T20:33:29.000Z</time>
      </trkpt>
      <trkpt lat="48.87307" lon="2.32794">
        <ele>50</ele>
        <time>2016-07-18T20:33:34.000Z</time>
      </trkpt>
      <trkpt lat="48.87303" lon="2.32823">
        <ele>49.400001525879</ele>
        <time>2016-07-18T20:33:40.000Z</time>
      </trkpt>
      <trkpt lat="48.87297" lon="2.32852">
        <ele>50</ele>
        <time>2016-07-18T20:33:46.000Z</time>
      </trkpt>
      <trkpt lat="48.87298" lon="2.32884">
        <ele>50</ele>
        <time>2016-07-18T20:33:51.000Z</time>
      </trkpt>
      <trkpt lat="48.87302" lon="2.32914">
        <ele>50</ele>
        <time>2016-07-18T20:33:55.000Z</time>
      </trkpt>
      <trkpt lat="48.87305" lon="2.32947">
        <ele>48.799999237061</ele>
        <time>2016-07-18T20:34:00.000Z</time>
      </trkpt>
      <trkpt lat="48.87303" lon="2.32977">
        <ele>47.799999237061</ele>
        <time>2016-07-18T20:34:04.000Z</time>
      </trkpt>
      <trkpt lat="48.87302" lon="2.33008">
        <ele>46.799999237061</ele>
        <time>2016-07-18T20:34:08.000Z</time>
      </trkpt>
      <trkpt lat="48.87296" lon="2.33036">
        <ele>46</ele>
        <time>2016-07-18T20:34:12.000Z</time>
      </trkpt>
      <trkpt lat="48.87297" lon="2.33067">
        <ele>44.599998474121</ele>
        <time>2016-07-18T20:34:17.000Z</time>
      </trkpt>
      <trkpt lat="48.87296" lon="2.33078">
        <ele>44</ele>
        <time>2016-07-18T20:34:20.000Z</time>
      </trkpt>
      <trkpt lat="48.87295" lon="2.33087">
        <ele>44</ele>
        <time>2016-07-18T20:34:23.000Z</time>
      </trkpt>
      <trkpt lat="48.87295" lon="2.33099">
        <ele>44.599998474121</ele>
        <time>2016-07-18T20:34:28.000Z</time>
      </trkpt>
      <trkpt lat="48.87288" lon="2.33122">
        <ele>46.400001525879</ele>
        <time>2016-07-18T20:34:49.000Z</time>
      </trkpt>
      <trkpt lat="48.87288" lon="2.33149">
        <ele>48.799999237061</ele>
        <time>2016-07-18T20:34:56.000Z</time>
      </trkpt>
      <trkpt lat="48.87278" lon="2.33176">
        <ele>50</ele>
        <time>2016-07-18T20:35:05.000Z</time>
      </trkpt>
      <trkpt lat="48.87268" lon="2.33202">
        <ele>50.799999237061</ele>
        <time>2016-07-18T20:35:14.000Z</time>
      </trkpt>
      <trkpt lat="48.87254" lon="2.33224">
        <ele>51.799999237061</ele>
        <time>2016-07-18T20:35:22.000Z</time>
      </trkpt>
      <trkpt lat="48.8724" lon="2.33245">
        <ele>50.400001525879</ele>
        <time>2016-07-18T20:35:30.000Z</time>
      </trkpt>
      <trkpt lat="48.87225" lon="2.33256">
        <ele>49.599998474121</ele>
        <time>2016-07-18T20:35:40.000Z</time>
      </trkpt>
      <trkpt lat="48.8722" lon="2.33271">
        <ele>48.799999237061</ele>
        <time>2016-07-18T20:35:46.000Z</time>
      </trkpt>
      <trkpt lat="48.87218" lon="2.33295">
        <ele>49.400001525879</ele>
        <time>2016-07-18T20:35:52.000Z</time>
      </trkpt>
      <trkpt lat="48.87207" lon="2.33321">
        <ele>50.799999237061</ele>
        <time>2016-07-18T20:36:00.000Z</time>
      </trkpt>
      <trkpt lat="48.87194" lon="2.33343">
        <ele>51.599998474121</ele>
        <time>2016-07-18T20:36:05.000Z</time>
      </trkpt>
      <trkpt lat="48.8718" lon="2.33363">
        <ele>50</ele>
        <time>2016-07-18T20:36:10.000Z</time>
      </trkpt>
      <trkpt lat="48.87161" lon="2.33377">
        <ele>48.799999237061</ele>
        <time>2016-07-18T20:36:15.000Z</time>
      </trkpt>
      <trkpt lat="48.8714" lon="2.33389">
        <ele>48.400001525879</ele>
        <time>2016-07-18T20:36:20.000Z</time>
      </trkpt>
      <trkpt lat="48.87121" lon="2.33397">
        <ele>48.200000762939</ele>
        <time>2016-07-18T20:36:25.000Z</time>
      </trkpt>
      <trkpt lat="48.87106" lon="2.33407">
        <ele>48</ele>
        <time>2016-07-18T20:36:34.000Z</time>
      </trkpt>
      <trkpt lat="48.87104" lon="2.33434">
        <ele>48.200000762939</ele>
        <time>2016-07-18T20:36:40.000Z</time>
      </trkpt>
      <trkpt lat="48.87107" lon="2.33463">
        <ele>48.599998474121</ele>
        <time>2016-07-18T20:36:45.000Z</time>
      </trkpt>
      <trkpt lat="48.871" lon="2.33476">
        <ele>48.799999237061</ele>
        <time>2016-07-18T20:36:50.000Z</time>
      </trkpt>
      <trkpt lat="48.87079" lon="2.33476">
        <ele>49</ele>
        <time>2016-07-18T20:36:56.000Z</time>
      </trkpt>
      <trkpt lat="48.8706" lon="2.33468">
        <ele>49</ele>
        <time>2016-07-18T20:37:01.000Z</time>
      </trkpt>
      <trkpt lat="48.87041" lon="2.33466">
        <ele>49</ele>
        <time>2016-07-18T20:37:06.000Z</time>
      </trkpt>
      <trkpt lat="48.87022" lon="2.33464">
        <ele>49</ele>
        <time>2016-07-18T20:37:11.000Z</time>
      </trkpt>
      <trkpt lat="48.87008" lon="2.33459">
        <ele>48.599998474121</ele>
        <time>2016-07-18T20:37:17.000Z</time>
      </trkpt>
      <trkpt lat="48.86989" lon="2.33458">
        <ele>48.200000762939</ele>
        <time>2016-07-18T20:37:24.000Z</time>
      </trkpt>
      <trkpt lat="48.86985" lon="2.33456">
        <ele>48.200000762939</ele>
        <time>2016-07-18T20:37:25.000Z</time>
      </trkpt>
      <trkpt lat="48.86967" lon="2.33446">
        <ele>47.799999237061</ele>
        <time>2016-07-18T20:37:31.000Z</time>
      </trkpt>
      <trkpt lat="48.86946" lon="2.33446">
        <ele>47.400001525879</ele>
        <time>2016-07-18T20:37:36.000Z</time>
      </trkpt>
      <trkpt lat="48.86923" lon="2.3345">
        <ele>48.200000762939</ele>
        <time>2016-07-18T20:37:41.000Z</time>
      </trkpt>
      <trkpt lat="48.86903" lon="2.33446">
        <ele>49.200000762939</ele>
        <time>2016-07-18T20:37:46.000Z</time>
      </trkpt>
      <trkpt lat="48.86896" lon="2.33446">
        <ele>49.400001525879</ele>
        <time>2016-07-18T20:37:48.000Z</time>
      </trkpt>
      <trkpt lat="48.86892" lon="2.33471">
        <ele>49.200000762939</ele>
        <time>2016-07-18T20:37:53.000Z</time>
      </trkpt>
      <trkpt lat="48.86892" lon="2.33478">
        <ele>49</ele>
        <time>2016-07-18T20:37:54.000Z</time>
      </trkpt>
      <trkpt lat="48.86892" lon="2.33507">
        <ele>48.599998474121</ele>
        <time>2016-07-18T20:37:58.000Z</time>
      </trkpt>
      <trkpt lat="48.86894" lon="2.33539">
        <ele>48.400001525879</ele>
        <time>2016-07-18T20:38:03.000Z</time>
      </trkpt>
      <trkpt lat="48.86896" lon="2.33572">
        <ele>47.599998474121</ele>
        <time>2016-07-18T20:38:08.000Z</time>
      </trkpt>
      <trkpt lat="48.86898" lon="2.33605">
        <ele>47.799999237061</ele>
        <time>2016-07-18T20:38:13.000Z</time>
      </trkpt>
      <trkpt lat="48.86899" lon="2.33633">
        <ele>48.400001525879</ele>
        <time>2016-07-18T20:38:17.000Z</time>
      </trkpt>
      <trkpt lat="48.86895" lon="2.33661">
        <ele>50</ele>
        <time>2016-07-18T20:38:22.000Z</time>
      </trkpt>
      <trkpt lat="48.86895" lon="2.33691">
        <ele>50.400001525879</ele>
        <time>2016-07-18T20:38:27.000Z</time>
      </trkpt>
      <trkpt lat="48.86899" lon="2.33721">
        <ele>50.599998474121</ele>
        <time>2016-07-18T20:38:32.000Z</time>
      </trkpt>
      <trkpt lat="48.86898" lon="2.33754">
        <ele>51</ele>
        <time>2016-07-18T20:38:37.000Z</time>
      </trkpt>
      <trkpt lat="48.869" lon="2.33783">
        <ele>51</ele>
        <time>2016-07-18T20:38:41.000Z</time>
      </trkpt>
      <trkpt lat="48.86899" lon="2.33817">
        <ele>50.599998474121</ele>
        <time>2016-07-18T20:38:46.000Z</time>
      </trkpt>
      <trkpt lat="48.86897" lon="2.33835">
        <ele>50.400001525879</ele>
        <time>2016-07-18T20:38:49.000Z</time>
      </trkpt>
      <trkpt lat="48.86877" lon="2.33842">
        <ele>50.599998474121</ele>
        <time>2016-07-18T20:38:54.000Z</time>
      </trkpt>
      <trkpt lat="48.8687" lon="2.3384">
        <ele>50.799999237061</ele>
        <time>2016-07-18T20:38:56.000Z</time>
      </trkpt>
      <trkpt lat="48.8685" lon="2.33837">
        <ele>50.799999237061</ele>
        <time>2016-07-18T20:39:01.000Z</time>
      </trkpt>
      <trkpt lat="48.86834" lon="2.33833">
        <ele>50.400001525879</ele>
        <time>2016-07-18T20:39:06.000Z</time>
      </trkpt>
      <trkpt lat="48.86814" lon="2.33821">
        <ele>50.200000762939</ele>
        <time>2016-07-18T20:39:10.000Z</time>
      </trkpt>
      <trkpt lat="48.86806" lon="2.33816">
        <ele>50.200000762939</ele>
        <time>2016-07-18T20:39:12.000Z</time>
      </trkpt>
      <trkpt lat="48.86792" lon="2.33809">
        <ele>50</ele>
        <time>2016-07-18T20:39:15.000Z</time>
      </trkpt>
      <trkpt lat="48.86774" lon="2.33793">
        <ele>50</ele>
        <time>2016-07-18T20:39:19.000Z</time>
      </trkpt>
      <trkpt lat="48.86756" lon="2.33781">
        <ele>50.200000762939</ele>
        <time>2016-07-18T20:39:23.000Z</time>
      </trkpt>
      <trkpt lat="48.86736" lon="2.3377">
        <ele>50.400001525879</ele>
        <time>2016-07-18T20:39:27.000Z</time>
      </trkpt>
      <trkpt lat="48.86715" lon="2.33764">
        <ele>50.599998474121</ele>
        <time>2016-07-18T20:39:32.000Z</time>
      </trkpt>
      <trkpt lat="48.86696" lon="2.33753">
        <ele>50.799999237061</ele>
        <time>2016-07-18T20:39:37.000Z</time>
      </trkpt>
      <trkpt lat="48.86678" lon="2.33748">
        <ele>50.200000762939</ele>
        <time>2016-07-18T20:39:42.000Z</time>
      </trkpt>
      <trkpt lat="48.86674" lon="2.33745">
        <ele>50.200000762939</ele>
        <time>2016-07-18T20:39:43.000Z</time>
      </trkpt>
      <trkpt lat="48.86656" lon="2.33735">
        <ele>49.599998474121</ele>
        <time>2016-07-18T20:39:47.000Z</time>
      </trkpt>
      <trkpt lat="48.86634" lon="2.33724">
        <ele>48.799999237061</ele>
        <time>2016-07-18T20:39:52.000Z</time>
      </trkpt>
      <trkpt lat="48.86615" lon="2.33716">
        <ele>48</ele>
        <time>2016-07-18T20:39:56.000Z</time>
      </trkpt>
      <trkpt lat="48.86598" lon="2.33705">
        <ele>47.799999237061</ele>
        <time>2016-07-18T20:40:00.000Z</time>
      </trkpt>
      <trkpt lat="48.86591" lon="2.33702">
        <ele>47.799999237061</ele>
        <time>2016-07-18T20:40:02.000Z</time>
      </trkpt>
      <trkpt lat="48.86585" lon="2.33693">
        <ele>48.200000762939</ele>
        <time>2016-07-18T20:40:04.000Z</time>
      </trkpt>
      <trkpt lat="48.86566" lon="2.33677">
        <ele>48.400001525879</ele>
        <time>2016-07-18T20:40:08.000Z</time>
      </trkpt>
      <trkpt lat="48.8655" lon="2.33668">
        <ele>48.400001525879</ele>
        <time>2016-07-18T20:40:12.000Z</time>
      </trkpt>
      <trkpt lat="48.86531" lon="2.33656">
        <ele>48.599998474121</ele>
        <time>2016-07-18T20:40:16.000Z</time>
      </trkpt>
      <trkpt lat="48.86512" lon="2.33647">
        <ele>48</ele>
        <time>2016-07-18T20:40:20.000Z</time>
      </trkpt>
      <trkpt lat="48.86492" lon="2.33638">
        <ele>47.599998474121</ele>
        <time>2016-07-18T20:40:24.000Z</time>
      </trkpt>
      <trkpt lat="48.86475" lon="2.33628">
        <ele>47.200000762939</ele>
        <time>2016-07-18T20:40:28.000Z</time>
      </trkpt>
      <trkpt lat="48.86455" lon="2.33615">
        <ele>46.799999237061</ele>
        <time>2016-07-18T20:40:33.000Z</time>
      </trkpt>
      <trkpt lat="48.86439" lon="2.33598">
        <ele>46.599998474121</ele>
        <time>2016-07-18T20:40:38.000Z</time>
      </trkpt>
      <trkpt lat="48.86431" lon="2.33592">
        <ele>46.799999237061</ele>
        <time>2016-07-18T20:40:41.000Z</time>
      </trkpt>
      <trkpt lat="48.86413" lon="2.33588">
        <ele>46.799999237061</ele>
        <time>2016-07-18T20:40:47.000Z</time>
      </trkpt>
      <trkpt lat="48.86396" lon="2.33578">
        <ele>47</ele>
        <time>2016-07-18T20:40:52.000Z</time>
      </trkpt>
      <trkpt lat="48.86388" lon="2.33573">
        <ele>47</ele>
        <time>2016-07-18T20:40:55.000Z</time>
      </trkpt>
      <trkpt lat="48.86376" lon="2.33567">
        <ele>47.200000762939</ele>
        <time>2016-07-18T20:40:59.000Z</time>
      </trkpt>
      <trkpt lat="48.86359" lon="2.33557">
        <ele>47.200000762939</ele>
        <time>2016-07-18T20:41:04.000Z</time>
      </trkpt>
      <trkpt lat="48.86342" lon="2.33543">
        <ele>46.799999237061</ele>
        <time>2016-07-18T20:41:11.000Z</time>
      </trkpt>
      <trkpt lat="48.86324" lon="2.33552">
        <ele>46</ele>
        <time>2016-07-18T20:41:17.000Z</time>
      </trkpt>
      <trkpt lat="48.86322" lon="2.3358">
        <ele>47.400001525879</ele>
        <time>2016-07-18T20:41:22.000Z</time>
      </trkpt>
      <trkpt lat="48.86316" lon="2.33611">
        <ele>46.400001525879</ele>
        <time>2016-07-18T20:41:28.000Z</time>
      </trkpt>
      <trkpt lat="48.863" lon="2.33628">
        <ele>46.400001525879</ele>
        <time>2016-07-18T20:41:35.000Z</time>
      </trkpt>
      <trkpt lat="48.86283" lon="2.33645">
        <ele>46.799999237061</ele>
        <time>2016-07-18T20:41:42.000Z</time>
      </trkpt>
      <trkpt lat="48.8627" lon="2.33665">
        <ele>47</ele>
        <time>2016-07-18T20:41:52.000Z</time>
      </trkpt>
      <trkpt lat="48.86271" lon="2.33667">
        <ele>47</ele>
        <time>2016-07-18T20:41:53.000Z</time>
      </trkpt>
      <trkpt lat="48.86269" lon="2.33675">
        <ele>47</ele>
        <time>2016-07-18T20:41:59.000Z</time>
      </trkpt>
      <trkpt lat="48.86267" lon="2.33683">
        <ele>47</ele>
        <time>2016-07-18T20:42:03.000Z</time>
      </trkpt>
      <trkpt lat="48.86266" lon="2.33687">
        <ele>47</ele>
        <time>2016-07-18T20:42:05.000Z</time>
      </trkpt>
      <trkpt lat="48.86266" lon="2.33696">
        <ele>47</ele>
        <time>2016-07-18T20:42:10.000Z</time>
      </trkpt>
      <trkpt lat="48.86264" lon="2.33698">
        <ele>47</ele>
        <time>2016-07-18T20:42:13.000Z</time>
      </trkpt>
      <trkpt lat="48.86261" lon="2.3371">
        <ele>47</ele>
        <time>2016-07-18T20:42:57.000Z</time>
      </trkpt>
      <trkpt lat="48.86258" lon="2.3374">
        <ele>46.599998474121</ele>
        <time>2016-07-18T20:43:04.000Z</time>
      </trkpt>
      <trkpt lat="48.86253" lon="2.33769">
        <ele>46</ele>
        <time>2016-07-18T20:43:10.000Z</time>
      </trkpt>
      <trkpt lat="48.86248" lon="2.33799">
        <ele>45.599998474121</ele>
        <time>2016-07-18T20:43:16.000Z</time>
      </trkpt>
      <trkpt lat="48.86242" lon="2.33831">
        <ele>44.200000762939</ele>
        <time>2016-07-18T20:43:22.000Z</time>
      </trkpt>
      <trkpt lat="48.86238" lon="2.33863">
        <ele>45.400001525879</ele>
        <time>2016-07-18T20:43:28.000Z</time>
      </trkpt>
      <trkpt lat="48.86232" lon="2.33894">
        <ele>46</ele>
        <time>2016-07-18T20:43:34.000Z</time>
      </trkpt>
      <trkpt lat="48.86229" lon="2.33921">
        <ele>46.599998474121</ele>
        <time>2016-07-18T20:43:39.000Z</time>
      </trkpt>
      <trkpt lat="48.86224" lon="2.33952">
        <ele>47.200000762939</ele>
        <time>2016-07-18T20:43:45.000Z</time>
      </trkpt>
      <trkpt lat="48.86217" lon="2.33977">
        <ele>48.400001525879</ele>
        <time>2016-07-18T20:43:50.000Z</time>
      </trkpt>
      <trkpt lat="48.86206" lon="2.34">
        <ele>49.200000762939</ele>
        <time>2016-07-18T20:43:55.000Z</time>
      </trkpt>
      <trkpt lat="48.86197" lon="2.34025">
        <ele>49.200000762939</ele>
        <time>2016-07-18T20:44:00.000Z</time>
      </trkpt>
      <trkpt lat="48.86189" lon="2.34052">
        <ele>49</ele>
        <time>2016-07-18T20:44:05.000Z</time>
      </trkpt>
      <trkpt lat="48.86182" lon="2.34081">
        <ele>48.799999237061</ele>
        <time>2016-07-18T20:44:10.000Z</time>
      </trkpt>
      <trkpt lat="48.86177" lon="2.34108">
        <ele>48.799999237061</ele>
        <time>2016-07-18T20:44:16.000Z</time>
      </trkpt>
      <trkpt lat="48.86169" lon="2.34138">
        <ele>49</ele>
        <time>2016-07-18T20:44:24.000Z</time>
      </trkpt>
      <trkpt lat="48.86158" lon="2.34163">
        <ele>49.200000762939</ele>
        <time>2016-07-18T20:44:30.000Z</time>
      </trkpt>
      <trkpt lat="48.86151" lon="2.34193">
        <ele>49</ele>
        <time>2016-07-18T20:44:36.000Z</time>
      </trkpt>
      <trkpt lat="48.86145" lon="2.34222">
        <ele>49.200000762939</ele>
        <time>2016-07-18T20:44:42.000Z</time>
      </trkpt>
      <trkpt lat="48.86146" lon="2.3425">
        <ele>49.400001525879</ele>
        <time>2016-07-18T20:44:47.000Z</time>
      </trkpt>
      <trkpt lat="48.86141" lon="2.34281">
        <ele>49</ele>
        <time>2016-07-18T20:44:53.000Z</time>
      </trkpt>
      <trkpt lat="48.86138" lon="2.34308">
        <ele>49.599998474121</ele>
        <time>2016-07-18T20:44:59.000Z</time>
      </trkpt>
      <trkpt lat="48.86126" lon="2.34333">
        <ele>50.400001525879</ele>
        <time>2016-07-18T20:45:05.000Z</time>
      </trkpt>
      <trkpt lat="48.86118" lon="2.34359">
        <ele>50</ele>
        <time>2016-07-18T20:45:10.000Z</time>
      </trkpt>
      <trkpt lat="48.86111" lon="2.34387">
        <ele>50</ele>
        <time>2016-07-18T20:45:15.000Z</time>
      </trkpt>
      <trkpt lat="48.86107" lon="2.3442">
        <ele>49.799999237061</ele>
        <time>2016-07-18T20:45:19.000Z</time>
      </trkpt>
      <trkpt lat="48.86105" lon="2.34451">
        <ele>50.599998474121</ele>
        <time>2016-07-18T20:45:23.000Z</time>
      </trkpt>
      <trkpt lat="48.861" lon="2.3448">
        <ele>51</ele>
        <time>2016-07-18T20:45:28.000Z</time>
      </trkpt>
      <trkpt lat="48.86095" lon="2.34507">
        <ele>51.200000762939</ele>
        <time>2016-07-18T20:45:34.000Z</time>
      </trkpt>
      <trkpt lat="48.86089" lon="2.3454">
        <ele>50.799999237061</ele>
        <time>2016-07-18T20:45:40.000Z</time>
      </trkpt>
      <trkpt lat="48.86081" lon="2.34566">
        <ele>50.400001525879</ele>
        <time>2016-07-18T20:45:45.000Z</time>
      </trkpt>
      <trkpt lat="48.86068" lon="2.34586">
        <ele>49.200000762939</ele>
        <time>2016-07-18T20:45:49.000Z</time>
      </trkpt>
      <trkpt lat="48.86053" lon="2.34602">
        <ele>47.599998474121</ele>
        <time>2016-07-18T20:45:53.000Z</time>
      </trkpt>
      <trkpt lat="48.86034" lon="2.34619">
        <ele>47.200000762939</ele>
        <time>2016-07-18T20:45:57.000Z</time>
      </trkpt>
      <trkpt lat="48.86017" lon="2.34636">
        <ele>47.200000762939</ele>
        <time>2016-07-18T20:46:02.000Z</time>
      </trkpt>
      <trkpt lat="48.85998" lon="2.34649">
        <ele>47</ele>
        <time>2016-07-18T20:46:08.000Z</time>
      </trkpt>
      <trkpt lat="48.85981" lon="2.34663">
        <ele>46.599998474121</ele>
        <time>2016-07-18T20:46:14.000Z</time>
      </trkpt>
      <trkpt lat="48.85965" lon="2.34675">
        <ele>46.599998474121</ele>
        <time>2016-07-18T20:46:21.000Z</time>
      </trkpt>
      <trkpt lat="48.85961" lon="2.34684">
        <ele>46.599998474121</ele>
        <time>2016-07-18T20:46:25.000Z</time>
      </trkpt>
      <trkpt lat="48.85959" lon="2.34711">
        <ele>45.599998474121</ele>
        <time>2016-07-18T20:46:32.000Z</time>
      </trkpt>
      <trkpt lat="48.85954" lon="2.34723">
        <ele>45</ele>
        <time>2016-07-18T20:46:40.000Z</time>
      </trkpt>
      <trkpt lat="48.85957" lon="2.34724">
        <ele>45</ele>
        <time>2016-07-18T20:46:52.000Z</time>
      </trkpt>
    </trkseg>
  </trk>
  <trk>
    <name><![CDATA[Lundi 2016 07 25]]></name>
    <trkseg>
      <trkpt lat="48.85746" lon="2.34724">
        <ele>40.400001525879</ele>
        <time>2016-07-25T18:24:24.000Z</time>
      </trkpt>
      <trkpt lat="48.85745" lon="2.34703">
        <ele>39.799999237061</ele>
        <time>2016-07-25T18:24:38.000Z</time>
      </trkpt>
      <trkpt lat="48.85723" lon="2.34697">
        <ele>40.599998474121</ele>
        <time>2016-07-25T18:25:10.000Z</time>
      </trkpt>
      <trkpt lat="48.85705" lon="2.34688">
        <ele>40.799999237061</ele>
        <time>2016-07-25T18:25:16.000Z</time>
      </trkpt>
      <trkpt lat="48.85688" lon="2.34677">
        <ele>41.200000762939</ele>
        <time>2016-07-25T18:25:21.000Z</time>
      </trkpt>
      <trkpt lat="48.8567" lon="2.34665">
        <ele>42.599998474121</ele>
        <time>2016-07-25T18:25:26.000Z</time>
      </trkpt>
      <trkpt lat="48.85652" lon="2.34652">
        <ele>44</ele>
        <time>2016-07-25T18:25:31.000Z</time>
      </trkpt>
      <trkpt lat="48.85636" lon="2.34641">
        <ele>45.400001525879</ele>
        <time>2016-07-25T18:25:36.000Z</time>
      </trkpt>
      <trkpt lat="48.85618" lon="2.34631">
        <ele>47</ele>
        <time>2016-07-25T18:25:42.000Z</time>
      </trkpt>
      <trkpt lat="48.856" lon="2.34617">
        <ele>48</ele>
        <time>2016-07-25T18:25:47.000Z</time>
      </trkpt>
      <trkpt lat="48.85582" lon="2.34604">
        <ele>47.799999237061</ele>
        <time>2016-07-25T18:25:52.000Z</time>
      </trkpt>
      <trkpt lat="48.85564" lon="2.34596">
        <ele>47.400001525879</ele>
        <time>2016-07-25T18:25:56.000Z</time>
      </trkpt>
      <trkpt lat="48.85546" lon="2.34583">
        <ele>47.200000762939</ele>
        <time>2016-07-25T18:26:00.000Z</time>
      </trkpt>
      <trkpt lat="48.8553" lon="2.34565">
        <ele>46.599998474121</ele>
        <time>2016-07-25T18:26:04.000Z</time>
      </trkpt>
      <trkpt lat="48.85511" lon="2.34549">
        <ele>45.400001525879</ele>
        <time>2016-07-25T18:26:08.000Z</time>
      </trkpt>
      <trkpt lat="48.8549" lon="2.34534">
        <ele>44.200000762939</ele>
        <time>2016-07-25T18:26:12.000Z</time>
      </trkpt>
      <trkpt lat="48.85473" lon="2.34518">
        <ele>43</ele>
        <time>2016-07-25T18:26:16.000Z</time>
      </trkpt>
      <trkpt lat="48.85454" lon="2.34503">
        <ele>41.799999237061</ele>
        <time>2016-07-25T18:26:20.000Z</time>
      </trkpt>
      <trkpt lat="48.85437" lon="2.34488">
        <ele>40.799999237061</ele>
        <time>2016-07-25T18:26:24.000Z</time>
      </trkpt>
      <trkpt lat="48.85424" lon="2.34472">
        <ele>41.200000762939</ele>
        <time>2016-07-25T18:26:28.000Z</time>
      </trkpt>
      <trkpt lat="48.85407" lon="2.34453">
        <ele>41.799999237061</ele>
        <time>2016-07-25T18:26:34.000Z</time>
      </trkpt>
      <trkpt lat="48.85392" lon="2.3444">
        <ele>42.400001525879</ele>
        <time>2016-07-25T18:26:41.000Z</time>
      </trkpt>
      <trkpt lat="48.85388" lon="2.34441">
        <ele>42.599998474121</ele>
        <time>2016-07-25T18:26:44.000Z</time>
      </trkpt>
      <trkpt lat="48.85379" lon="2.3442">
        <ele>42.599998474121</ele>
        <time>2016-07-25T18:27:28.000Z</time>
      </trkpt>
      <trkpt lat="48.85359" lon="2.34408">
        <ele>44</ele>
        <time>2016-07-25T18:27:33.000Z</time>
      </trkpt>
      <trkpt lat="48.85341" lon="2.34401">
        <ele>45</ele>
        <time>2016-07-25T18:27:37.000Z</time>
      </trkpt>
      <trkpt lat="48.85321" lon="2.34394">
        <ele>46.400001525879</ele>
        <time>2016-07-25T18:27:41.000Z</time>
      </trkpt>
      <trkpt lat="48.85303" lon="2.34385">
        <ele>47.799999237061</ele>
        <time>2016-07-25T18:27:45.000Z</time>
      </trkpt>
      <trkpt lat="48.85284" lon="2.34379">
        <ele>49.200000762939</ele>
        <time>2016-07-25T18:27:49.000Z</time>
      </trkpt>
      <trkpt lat="48.8527" lon="2.34376">
        <ele>50</ele>
        <time>2016-07-25T18:27:53.000Z</time>
      </trkpt>
      <trkpt lat="48.85255" lon="2.34372">
        <ele>50</ele>
        <time>2016-07-25T18:27:56.000Z</time>
      </trkpt>
      <trkpt lat="48.85236" lon="2.3436">
        <ele>49.799999237061</ele>
        <time>2016-07-25T18:28:00.000Z</time>
      </trkpt>
      <trkpt lat="48.85226" lon="2.34355">
        <ele>49.599998474121</ele>
        <time>2016-07-25T18:28:02.000Z</time>
      </trkpt>
      <trkpt lat="48.85206" lon="2.34345">
        <ele>49.400001525879</ele>
        <time>2016-07-25T18:28:06.000Z</time>
      </trkpt>
      <trkpt lat="48.85188" lon="2.34336">
        <ele>49</ele>
        <time>2016-07-25T18:28:10.000Z</time>
      </trkpt>
      <trkpt lat="48.85168" lon="2.34329">
        <ele>48.599998474121</ele>
        <time>2016-07-25T18:28:16.000Z</time>
      </trkpt>
      <trkpt lat="48.85159" lon="2.34326">
        <ele>48.400001525879</ele>
        <time>2016-07-25T18:28:21.000Z</time>
      </trkpt>
      <trkpt lat="48.85139" lon="2.34323">
        <ele>48</ele>
        <time>2016-07-25T18:28:39.000Z</time>
      </trkpt>
      <trkpt lat="48.8512" lon="2.34316">
        <ele>47.799999237061</ele>
        <time>2016-07-25T18:28:44.000Z</time>
      </trkpt>
      <trkpt lat="48.85108" lon="2.3431">
        <ele>47.599998474121</ele>
        <time>2016-07-25T18:28:47.000Z</time>
      </trkpt>
      <trkpt lat="48.8509" lon="2.34302">
        <ele>48.400001525879</ele>
        <time>2016-07-25T18:28:51.000Z</time>
      </trkpt>
      <trkpt lat="48.85072" lon="2.34294">
        <ele>49.400001525879</ele>
        <time>2016-07-25T18:28:55.000Z</time>
      </trkpt>
      <trkpt lat="48.85052" lon="2.34282">
        <ele>51</ele>
        <time>2016-07-25T18:29:00.000Z</time>
      </trkpt>
      <trkpt lat="48.85034" lon="2.34267">
        <ele>52.200000762939</ele>
        <time>2016-07-25T18:29:06.000Z</time>
      </trkpt>
      <trkpt lat="48.85029" lon="2.34265">
        <ele>52.599998474121</ele>
        <time>2016-07-25T18:29:10.000Z</time>
      </trkpt>
      <trkpt lat="48.85023" lon="2.34292">
        <ele>53.400001525879</ele>
        <time>2016-07-25T18:29:18.000Z</time>
      </trkpt>
      <trkpt lat="48.85015" lon="2.34316">
        <ele>54.200000762939</ele>
        <time>2016-07-25T18:29:24.000Z</time>
      </trkpt>
      <trkpt lat="48.85005" lon="2.34339">
        <ele>55</ele>
        <time>2016-07-25T18:29:29.000Z</time>
      </trkpt>
      <trkpt lat="48.84993" lon="2.34363">
        <ele>55.799999237061</ele>
        <time>2016-07-25T18:29:34.000Z</time>
      </trkpt>
      <trkpt lat="48.84986" lon="2.34391">
        <ele>56.200000762939</ele>
        <time>2016-07-25T18:29:39.000Z</time>
      </trkpt>
      <trkpt lat="48.84978" lon="2.34418">
        <ele>56.799999237061</ele>
        <time>2016-07-25T18:29:44.000Z</time>
      </trkpt>
      <trkpt lat="48.84974" lon="2.34448">
        <ele>57.400001525879</ele>
        <time>2016-07-25T18:29:50.000Z</time>
      </trkpt>
      <trkpt lat="48.84965" lon="2.34473">
        <ele>56.200000762939</ele>
        <time>2016-07-25T18:29:56.000Z</time>
      </trkpt>
      <trkpt lat="48.84957" lon="2.34505">
        <ele>54.799999237061</ele>
        <time>2016-07-25T18:30:02.000Z</time>
      </trkpt>
      <trkpt lat="48.84949" lon="2.34535">
        <ele>53.400001525879</ele>
        <time>2016-07-25T18:30:07.000Z</time>
      </trkpt>
      <trkpt lat="48.84943" lon="2.34566">
        <ele>51.799999237061</ele>
        <time>2016-07-25T18:30:12.000Z</time>
      </trkpt>
      <trkpt lat="48.84932" lon="2.34594">
        <ele>52</ele>
        <time>2016-07-25T18:30:17.000Z</time>
      </trkpt>
      <trkpt lat="48.84924" lon="2.34621">
        <ele>53.400001525879</ele>
        <time>2016-07-25T18:30:21.000Z</time>
      </trkpt>
      <trkpt lat="48.84919" lon="2.34652">
        <ele>54.599998474121</ele>
        <time>2016-07-25T18:30:25.000Z</time>
      </trkpt>
      <trkpt lat="48.84911" lon="2.3468">
        <ele>54.799999237061</ele>
        <time>2016-07-25T18:30:30.000Z</time>
      </trkpt>
      <trkpt lat="48.84899" lon="2.34708">
        <ele>55</ele>
        <time>2016-07-25T18:30:34.000Z</time>
      </trkpt>
      <trkpt lat="48.84892" lon="2.34736">
        <ele>55.599998474121</ele>
        <time>2016-07-25T18:30:39.000Z</time>
      </trkpt>
      <trkpt lat="48.84892" lon="2.3474">
        <ele>55.799999237061</ele>
        <time>2016-07-25T18:30:40.000Z</time>
      </trkpt>
      <trkpt lat="48.84886" lon="2.34766">
        <ele>55.599998474121</ele>
        <time>2016-07-25T18:30:44.000Z</time>
      </trkpt>
      <trkpt lat="48.84881" lon="2.34794">
        <ele>56.200000762939</ele>
        <time>2016-07-25T18:30:48.000Z</time>
      </trkpt>
      <trkpt lat="48.84872" lon="2.34826">
        <ele>58</ele>
        <time>2016-07-25T18:30:52.000Z</time>
      </trkpt>
      <trkpt lat="48.84863" lon="2.34856">
        <ele>58.200000762939</ele>
        <time>2016-07-25T18:30:56.000Z</time>
      </trkpt>
      <trkpt lat="48.84857" lon="2.34886">
        <ele>56.599998474121</ele>
        <time>2016-07-25T18:31:00.000Z</time>
      </trkpt>
      <trkpt lat="48.84846" lon="2.34919">
        <ele>54.799999237061</ele>
        <time>2016-07-25T18:31:04.000Z</time>
      </trkpt>
      <trkpt lat="48.84836" lon="2.34943">
        <ele>53.599998474121</ele>
        <time>2016-07-25T18:31:07.000Z</time>
      </trkpt>
      <trkpt lat="48.8483" lon="2.34986">
        <ele>51.400001525879</ele>
        <time>2016-07-25T18:31:10.000Z</time>
      </trkpt>
      <trkpt lat="48.84826" lon="2.34998">
        <ele>51</ele>
        <time>2016-07-25T18:31:11.000Z</time>
      </trkpt>
      <trkpt lat="48.84815" lon="2.35028">
        <ele>50</ele>
        <time>2016-07-25T18:31:15.000Z</time>
      </trkpt>
      <trkpt lat="48.84805" lon="2.35054">
        <ele>49</ele>
        <time>2016-07-25T18:31:19.000Z</time>
      </trkpt>
      <trkpt lat="48.84796" lon="2.35084">
        <ele>48</ele>
        <time>2016-07-25T18:31:23.000Z</time>
      </trkpt>
      <trkpt lat="48.84791" lon="2.3511">
        <ele>46.400001525879</ele>
        <time>2016-07-25T18:31:26.000Z</time>
      </trkpt>
      <trkpt lat="48.84784" lon="2.35138">
        <ele>44.599998474121</ele>
        <time>2016-07-25T18:31:29.000Z</time>
      </trkpt>
      <trkpt lat="48.84774" lon="2.35168">
        <ele>42.799999237061</ele>
        <time>2016-07-25T18:31:32.000Z</time>
      </trkpt>
      <trkpt lat="48.84765" lon="2.35202">
        <ele>42.400001525879</ele>
        <time>2016-07-25T18:31:36.000Z</time>
      </trkpt>
      <trkpt lat="48.84757" lon="2.35229">
        <ele>42.200000762939</ele>
        <time>2016-07-25T18:31:40.000Z</time>
      </trkpt>
      <trkpt lat="48.84753" lon="2.35251">
        <ele>42.400001525879</ele>
        <time>2016-07-25T18:31:45.000Z</time>
      </trkpt>
      <trkpt lat="48.84747" lon="2.35269">
        <ele>42</ele>
        <time>2016-07-25T18:31:49.000Z</time>
      </trkpt>
      <trkpt lat="48.84744" lon="2.35295">
        <ele>41.400001525879</ele>
        <time>2016-07-25T18:31:53.000Z</time>
      </trkpt>
      <trkpt lat="48.84738" lon="2.35327">
        <ele>40.200000762939</ele>
        <time>2016-07-25T18:31:57.000Z</time>
      </trkpt>
      <trkpt lat="48.84729" lon="2.35359">
        <ele>40.200000762939</ele>
        <time>2016-07-25T18:32:02.000Z</time>
      </trkpt>
      <trkpt lat="48.84716" lon="2.35379">
        <ele>40.799999237061</ele>
        <time>2016-07-25T18:32:06.000Z</time>
      </trkpt>
      <trkpt lat="48.84706" lon="2.35393">
        <ele>41.200000762939</ele>
        <time>2016-07-25T18:32:09.000Z</time>
      </trkpt>
      <trkpt lat="48.84693" lon="2.35415">
        <ele>41.799999237061</ele>
        <time>2016-07-25T18:32:14.000Z</time>
      </trkpt>
      <trkpt lat="48.84689" lon="2.3542">
        <ele>42</ele>
        <time>2016-07-25T18:32:15.000Z</time>
      </trkpt>
      <trkpt lat="48.84673" lon="2.35437">
        <ele>43.599998474121</ele>
        <time>2016-07-25T18:32:18.000Z</time>
      </trkpt>
      <trkpt lat="48.84656" lon="2.35455">
        <ele>45.200000762939</ele>
        <time>2016-07-25T18:32:21.000Z</time>
      </trkpt>
      <trkpt lat="48.84651" lon="2.35459">
        <ele>45.799999237061</ele>
        <time>2016-07-25T18:32:22.000Z</time>
      </trkpt>
      <trkpt lat="48.84632" lon="2.35464">
        <ele>46.799999237061</ele>
        <time>2016-07-25T18:32:25.000Z</time>
      </trkpt>
      <trkpt lat="48.84619" lon="2.35462">
        <ele>47.599998474121</ele>
        <time>2016-07-25T18:32:27.000Z</time>
      </trkpt>
      <trkpt lat="48.84597" lon="2.35462">
        <ele>48.599998474121</ele>
        <time>2016-07-25T18:32:31.000Z</time>
      </trkpt>
      <trkpt lat="48.84588" lon="2.35464">
        <ele>48.799999237061</ele>
        <time>2016-07-25T18:32:33.000Z</time>
      </trkpt>
      <trkpt lat="48.84567" lon="2.35469">
        <ele>49.200000762939</ele>
        <time>2016-07-25T18:32:38.000Z</time>
      </trkpt>
      <trkpt lat="48.84562" lon="2.3547">
        <ele>49.200000762939</ele>
        <time>2016-07-25T18:32:39.000Z</time>
      </trkpt>
      <trkpt lat="48.8454" lon="2.35476">
        <ele>49.400001525879</ele>
        <time>2016-07-25T18:32:44.000Z</time>
      </trkpt>
      <trkpt lat="48.84521" lon="2.35478">
        <ele>49.400001525879</ele>
        <time>2016-07-25T18:32:48.000Z</time>
      </trkpt>
      <trkpt lat="48.84503" lon="2.35478">
        <ele>50.200000762939</ele>
        <time>2016-07-25T18:32:52.000Z</time>
      </trkpt>
      <trkpt lat="48.84499" lon="2.35479">
        <ele>50</ele>
        <time>2016-07-25T18:32:53.000Z</time>
      </trkpt>
      <trkpt lat="48.84482" lon="2.3548">
        <ele>49.799999237061</ele>
        <time>2016-07-25T18:32:57.000Z</time>
      </trkpt>
      <trkpt lat="48.84461" lon="2.35484">
        <ele>49.200000762939</ele>
        <time>2016-07-25T18:33:02.000Z</time>
      </trkpt>
      <trkpt lat="48.84441" lon="2.35492">
        <ele>48.400001525879</ele>
        <time>2016-07-25T18:33:07.000Z</time>
      </trkpt>
      <trkpt lat="48.84421" lon="2.35501">
        <ele>48.799999237061</ele>
        <time>2016-07-25T18:33:12.000Z</time>
      </trkpt>
      <trkpt lat="48.844" lon="2.35507">
        <ele>49.400001525879</ele>
        <time>2016-07-25T18:33:18.000Z</time>
      </trkpt>
      <trkpt lat="48.84394" lon="2.35507">
        <ele>49.799999237061</ele>
        <time>2016-07-25T18:33:20.000Z</time>
      </trkpt>
      <trkpt lat="48.84377" lon="2.35502">
        <ele>50.799999237061</ele>
        <time>2016-07-25T18:33:24.000Z</time>
      </trkpt>
      <trkpt lat="48.84368" lon="2.35505">
        <ele>51</ele>
        <time>2016-07-25T18:33:26.000Z</time>
      </trkpt>
      <trkpt lat="48.8436" lon="2.35508">
        <ele>51.400001525879</ele>
        <time>2016-07-25T18:33:30.000Z</time>
      </trkpt>
      <trkpt lat="48.84351" lon="2.35519">
        <ele>51</ele>
        <time>2016-07-25T18:33:36.000Z</time>
      </trkpt>
      <trkpt lat="48.84348" lon="2.35522">
        <ele>50.799999237061</ele>
        <time>2016-07-25T18:33:37.000Z</time>
      </trkpt>
      <trkpt lat="48.84331" lon="2.35533">
        <ele>49.599998474121</ele>
        <time>2016-07-25T18:33:41.000Z</time>
      </trkpt>
      <trkpt lat="48.84312" lon="2.35539">
        <ele>48.400001525879</ele>
        <time>2016-07-25T18:33:45.000Z</time>
      </trkpt>
      <trkpt lat="48.84288" lon="2.35546">
        <ele>47.799999237061</ele>
        <time>2016-07-25T18:33:49.000Z</time>
      </trkpt>
      <trkpt lat="48.84266" lon="2.35555">
        <ele>47</ele>
        <time>2016-07-25T18:33:53.000Z</time>
      </trkpt>
      <trkpt lat="48.84245" lon="2.35567">
        <ele>45.400001525879</ele>
        <time>2016-07-25T18:33:57.000Z</time>
      </trkpt>
      <trkpt lat="48.84223" lon="2.35578">
        <ele>43.599998474121</ele>
        <time>2016-07-25T18:34:01.000Z</time>
      </trkpt>
      <trkpt lat="48.84217" lon="2.35579">
        <ele>43</ele>
        <time>2016-07-25T18:34:02.000Z</time>
      </trkpt>
      <trkpt lat="48.842" lon="2.35586">
        <ele>41.400001525879</ele>
        <time>2016-07-25T18:34:05.000Z</time>
      </trkpt>
      <trkpt lat="48.84194" lon="2.35589">
        <ele>41</ele>
        <time>2016-07-25T18:34:06.000Z</time>
      </trkpt>
      <trkpt lat="48.84174" lon="2.356">
        <ele>40.400001525879</ele>
        <time>2016-07-25T18:34:10.000Z</time>
      </trkpt>
      <trkpt lat="48.84152" lon="2.35603">
        <ele>40.200000762939</ele>
        <time>2016-07-25T18:34:14.000Z</time>
      </trkpt>
      <trkpt lat="48.84132" lon="2.35598">
        <ele>40.400001525879</ele>
        <time>2016-07-25T18:34:18.000Z</time>
      </trkpt>
      <trkpt lat="48.84128" lon="2.35598">
        <ele>40.400001525879</ele>
        <time>2016-07-25T18:34:19.000Z</time>
      </trkpt>
      <trkpt lat="48.84124" lon="2.35599">
        <ele>40.400001525879</ele>
        <time>2016-07-25T18:34:21.000Z</time>
      </trkpt>
      <trkpt lat="48.84106" lon="2.35593">
        <ele>40.799999237061</ele>
        <time>2016-07-25T18:34:41.000Z</time>
      </trkpt>
      <trkpt lat="48.84087" lon="2.35598">
        <ele>41.599998474121</ele>
        <time>2016-07-25T18:34:46.000Z</time>
      </trkpt>
      <trkpt lat="48.84066" lon="2.3561">
        <ele>42.599998474121</ele>
        <time>2016-07-25T18:34:50.000Z</time>
      </trkpt>
      <trkpt lat="48.84048" lon="2.35621">
        <ele>43.200000762939</ele>
        <time>2016-07-25T18:34:53.000Z</time>
      </trkpt>
      <trkpt lat="48.84025" lon="2.3563">
        <ele>43.799999237061</ele>
        <time>2016-07-25T18:34:57.000Z</time>
      </trkpt>
      <trkpt lat="48.84005" lon="2.35638">
        <ele>43.400001525879</ele>
        <time>2016-07-25T18:35:02.000Z</time>
      </trkpt>
      <trkpt lat="48.8399" lon="2.3564">
        <ele>43.599998474121</ele>
        <time>2016-07-25T18:35:06.000Z</time>
      </trkpt>
      <trkpt lat="48.8398" lon="2.35641">
        <ele>44</ele>
        <time>2016-07-25T18:35:09.000Z</time>
      </trkpt>
      <trkpt lat="48.83971" lon="2.3564">
        <ele>44.200000762939</ele>
        <time>2016-07-25T18:35:17.000Z</time>
      </trkpt>
      <trkpt lat="48.8398" lon="2.35667">
        <ele>44.400001525879</ele>
        <time>2016-07-25T18:35:29.000Z</time>
      </trkpt>
      <trkpt lat="48.83985" lon="2.35697">
        <ele>43.200000762939</ele>
        <time>2016-07-25T18:35:35.000Z</time>
      </trkpt>
      <trkpt lat="48.83989" lon="2.35725">
        <ele>42.599998474121</ele>
        <time>2016-07-25T18:35:40.000Z</time>
      </trkpt>
      <trkpt lat="48.83995" lon="2.35752">
        <ele>42.400001525879</ele>
        <time>2016-07-25T18:35:45.000Z</time>
      </trkpt>
      <trkpt lat="48.84006" lon="2.35776">
        <ele>41.799999237061</ele>
        <time>2016-07-25T18:35:50.000Z</time>
      </trkpt>
      <trkpt lat="48.84011" lon="2.35805">
        <ele>41.599998474121</ele>
        <time>2016-07-25T18:35:54.000Z</time>
      </trkpt>
      <trkpt lat="48.84015" lon="2.35838">
        <ele>41.400001525879</ele>
        <time>2016-07-25T18:35:58.000Z</time>
      </trkpt>
      <trkpt lat="48.84024" lon="2.35868">
        <ele>41.799999237061</ele>
        <time>2016-07-25T18:36:02.000Z</time>
      </trkpt>
      <trkpt lat="48.84032" lon="2.35899">
        <ele>41.799999237061</ele>
        <time>2016-07-25T18:36:06.000Z</time>
      </trkpt>
      <trkpt lat="48.84042" lon="2.35924">
        <ele>41</ele>
        <time>2016-07-25T18:36:10.000Z</time>
      </trkpt>
      <trkpt lat="48.8405" lon="2.35954">
        <ele>40</ele>
        <time>2016-07-25T18:36:15.000Z</time>
      </trkpt>
      <trkpt lat="48.84053" lon="2.35988">
        <ele>40.400001525879</ele>
        <time>2016-07-25T18:36:20.000Z</time>
      </trkpt>
      <trkpt lat="48.84053" lon="2.36015">
        <ele>42.200000762939</ele>
        <time>2016-07-25T18:36:23.000Z</time>
      </trkpt>
      <trkpt lat="48.84053" lon="2.36043">
        <ele>45</ele>
        <time>2016-07-25T18:36:26.000Z</time>
      </trkpt>
      <trkpt lat="48.84049" lon="2.36077">
        <ele>48.799999237061</ele>
        <time>2016-07-25T18:36:30.000Z</time>
      </trkpt>
      <trkpt lat="48.8405" lon="2.36084">
        <ele>49.200000762939</ele>
        <time>2016-07-25T18:36:31.000Z</time>
      </trkpt>
      <trkpt lat="48.84045" lon="2.36113">
        <ele>50.400001525879</ele>
        <time>2016-07-25T18:36:33.000Z</time>
      </trkpt>
      <trkpt lat="48.84043" lon="2.36134">
        <ele>48.599998474121</ele>
        <time>2016-07-25T18:36:35.000Z</time>
      </trkpt>
      <trkpt lat="48.84043" lon="2.36158">
        <ele>46.599998474121</ele>
        <time>2016-07-25T18:36:39.000Z</time>
      </trkpt>
      <trkpt lat="48.84032" lon="2.36178">
        <ele>45.200000762939</ele>
        <time>2016-07-25T18:36:43.000Z</time>
      </trkpt>
      <trkpt lat="48.8403" lon="2.36186">
        <ele>44</ele>
        <time>2016-07-25T18:36:47.000Z</time>
      </trkpt>
      <trkpt lat="48.8403" lon="2.36192">
        <ele>43</ele>
        <time>2016-07-25T18:36:51.000Z</time>
      </trkpt>
      <trkpt lat="48.8403" lon="2.36207">
        <ele>41.200000762939</ele>
        <time>2016-07-25T18:37:02.000Z</time>
      </trkpt>
      <trkpt lat="48.84042" lon="2.36231">
        <ele>39.200000762939</ele>
        <time>2016-07-25T18:37:10.000Z</time>
      </trkpt>
      <trkpt lat="48.84056" lon="2.36255">
        <ele>37.799999237061</ele>
        <time>2016-07-25T18:37:16.000Z</time>
      </trkpt>
      <trkpt lat="48.8407" lon="2.36278">
        <ele>38.200000762939</ele>
        <time>2016-07-25T18:37:22.000Z</time>
      </trkpt>
      <trkpt lat="48.84095" lon="2.3629">
        <ele>40</ele>
        <time>2016-07-25T18:37:27.000Z</time>
      </trkpt>
      <trkpt lat="48.84112" lon="2.36302">
        <ele>40</ele>
        <time>2016-07-25T18:37:31.000Z</time>
      </trkpt>
      <trkpt lat="48.84128" lon="2.36319">
        <ele>38.200000762939</ele>
        <time>2016-07-25T18:37:35.000Z</time>
      </trkpt>
      <trkpt lat="48.84147" lon="2.36335">
        <ele>36.599998474121</ele>
        <time>2016-07-25T18:37:39.000Z</time>
      </trkpt>
      <trkpt lat="48.84166" lon="2.36343">
        <ele>35.599998474121</ele>
        <time>2016-07-25T18:37:42.000Z</time>
      </trkpt>
      <trkpt lat="48.84178" lon="2.36357">
        <ele>35</ele>
        <time>2016-07-25T18:37:45.000Z</time>
      </trkpt>
      <trkpt lat="48.84192" lon="2.36379">
        <ele>34.599998474121</ele>
        <time>2016-07-25T18:37:49.000Z</time>
      </trkpt>
      <trkpt lat="48.84211" lon="2.36396">
        <ele>35</ele>
        <time>2016-07-25T18:37:53.000Z</time>
      </trkpt>
      <trkpt lat="48.84233" lon="2.36412">
        <ele>35.400001525879</ele>
        <time>2016-07-25T18:37:57.000Z</time>
      </trkpt>
      <trkpt lat="48.84254" lon="2.36426">
        <ele>36.200000762939</ele>
        <time>2016-07-25T18:38:01.000Z</time>
      </trkpt>
      <trkpt lat="48.84258" lon="2.36429">
        <ele>36.400001525879</ele>
        <time>2016-07-25T18:38:02.000Z</time>
      </trkpt>
      <trkpt lat="48.8428" lon="2.36438">
        <ele>36.799999237061</ele>
        <time>2016-07-25T18:38:06.000Z</time>
      </trkpt>
      <trkpt lat="48.84299" lon="2.3645">
        <ele>37.200000762939</ele>
        <time>2016-07-25T18:38:10.000Z</time>
      </trkpt>
      <trkpt lat="48.84319" lon="2.36464">
        <ele>37.799999237061</ele>
        <time>2016-07-25T18:38:15.000Z</time>
      </trkpt>
      <trkpt lat="48.84336" lon="2.36474">
        <ele>38.200000762939</ele>
        <time>2016-07-25T18:38:21.000Z</time>
      </trkpt>
      <trkpt lat="48.8435" lon="2.36489">
        <ele>38.599998474121</ele>
        <time>2016-07-25T18:38:26.000Z</time>
      </trkpt>
      <trkpt lat="48.84349" lon="2.36507">
        <ele>38.599998474121</ele>
        <time>2016-07-25T18:38:30.000Z</time>
      </trkpt>
      <trkpt lat="48.8435" lon="2.36536">
        <ele>37.599998474121</ele>
        <time>2016-07-25T18:38:37.000Z</time>
      </trkpt>
      <trkpt lat="48.8435" lon="2.36541">
        <ele>37.400001525879</ele>
        <time>2016-07-25T18:38:39.000Z</time>
      </trkpt>
      <trkpt lat="48.84343" lon="2.36572">
        <ele>36.599998474121</ele>
        <time>2016-07-25T18:38:47.000Z</time>
      </trkpt>
      <trkpt lat="48.8433" lon="2.36598">
        <ele>36.599998474121</ele>
        <time>2016-07-25T18:38:52.000Z</time>
      </trkpt>
      <trkpt lat="48.84315" lon="2.36619">
        <ele>36.200000762939</ele>
        <time>2016-07-25T18:38:56.000Z</time>
      </trkpt>
      <trkpt lat="48.843" lon="2.3664">
        <ele>35.799999237061</ele>
        <time>2016-07-25T18:39:00.000Z</time>
      </trkpt>
      <trkpt lat="48.84282" lon="2.36662">
        <ele>35.599998474121</ele>
        <time>2016-07-25T18:39:04.000Z</time>
      </trkpt>
      <trkpt lat="48.84263" lon="2.3668">
        <ele>35</ele>
        <time>2016-07-25T18:39:08.000Z</time>
      </trkpt>
      <trkpt lat="48.84245" lon="2.36701">
        <ele>34</ele>
        <time>2016-07-25T18:39:12.000Z</time>
      </trkpt>
      <trkpt lat="48.84237" lon="2.36711">
        <ele>33.400001525879</ele>
        <time>2016-07-25T18:39:14.000Z</time>
      </trkpt>
      <trkpt lat="48.84222" lon="2.3673">
        <ele>33</ele>
        <time>2016-07-25T18:39:18.000Z</time>
      </trkpt>
      <trkpt lat="48.84216" lon="2.36739">
        <ele>33</ele>
        <time>2016-07-25T18:39:20.000Z</time>
      </trkpt>
      <trkpt lat="48.84206" lon="2.36752">
        <ele>33</ele>
        <time>2016-07-25T18:39:23.000Z</time>
      </trkpt>
      <trkpt lat="48.84193" lon="2.36772">
        <ele>34</ele>
        <time>2016-07-25T18:39:30.000Z</time>
      </trkpt>
      <trkpt lat="48.8419" lon="2.36776">
        <ele>34.200000762939</ele>
        <time>2016-07-25T18:39:32.000Z</time>
      </trkpt>
      <trkpt lat="48.84188" lon="2.3679">
        <ele>34.599998474121</ele>
        <time>2016-07-25T18:39:39.000Z</time>
      </trkpt>
      <trkpt lat="48.84177" lon="2.36815">
        <ele>35.200000762939</ele>
        <time>2016-07-25T18:39:45.000Z</time>
      </trkpt>
      <trkpt lat="48.84162" lon="2.36836">
        <ele>35.400001525879</ele>
        <time>2016-07-25T18:39:49.000Z</time>
      </trkpt>
      <trkpt lat="48.84145" lon="2.36856">
        <ele>34.200000762939</ele>
        <time>2016-07-25T18:39:52.000Z</time>
      </trkpt>
      <trkpt lat="48.84128" lon="2.36879">
        <ele>33.799999237061</ele>
        <time>2016-07-25T18:39:55.000Z</time>
      </trkpt>
      <trkpt lat="48.84122" lon="2.36887">
        <ele>34</ele>
        <time>2016-07-25T18:39:56.000Z</time>
      </trkpt>
      <trkpt lat="48.84103" lon="2.36912">
        <ele>34</ele>
        <time>2016-07-25T18:39:59.000Z</time>
      </trkpt>
      <trkpt lat="48.84087" lon="2.36928">
        <ele>33.599998474121</ele>
        <time>2016-07-25T18:40:01.000Z</time>
      </trkpt>
      <trkpt lat="48.84066" lon="2.36952">
        <ele>32.599998474121</ele>
        <time>2016-07-25T18:40:04.000Z</time>
      </trkpt>
      <trkpt lat="48.84047" lon="2.36978">
        <ele>32.599998474121</ele>
        <time>2016-07-25T18:40:07.000Z</time>
      </trkpt>
      <trkpt lat="48.84033" lon="2.36997">
        <ele>32.799999237061</ele>
        <time>2016-07-25T18:40:09.000Z</time>
      </trkpt>
      <trkpt lat="48.84019" lon="2.37014">
        <ele>33</ele>
        <time>2016-07-25T18:40:11.000Z</time>
      </trkpt>
      <trkpt lat="48.84002" lon="2.37029">
        <ele>33</ele>
        <time>2016-07-25T18:40:13.000Z</time>
      </trkpt>
      <trkpt lat="48.83986" lon="2.37045">
        <ele>33</ele>
        <time>2016-07-25T18:40:15.000Z</time>
      </trkpt>
      <trkpt lat="48.83978" lon="2.37054">
        <ele>33.200000762939</ele>
        <time>2016-07-25T18:40:16.000Z</time>
      </trkpt>
      <trkpt lat="48.83964" lon="2.37074">
        <ele>33.599998474121</ele>
        <time>2016-07-25T18:40:18.000Z</time>
      </trkpt>
      <trkpt lat="48.8395" lon="2.37094">
        <ele>34</ele>
        <time>2016-07-25T18:40:20.000Z</time>
      </trkpt>
      <trkpt lat="48.83935" lon="2.37113">
        <ele>33.799999237061</ele>
        <time>2016-07-25T18:40:22.000Z</time>
      </trkpt>
      <trkpt lat="48.83921" lon="2.37131">
        <ele>33.400001525879</ele>
        <time>2016-07-25T18:40:24.000Z</time>
      </trkpt>
      <trkpt lat="48.83906" lon="2.3715">
        <ele>32.799999237061</ele>
        <time>2016-07-25T18:40:26.000Z</time>
      </trkpt>
      <trkpt lat="48.83891" lon="2.37167">
        <ele>32.200000762939</ele>
        <time>2016-07-25T18:40:28.000Z</time>
      </trkpt>
      <trkpt lat="48.83877" lon="2.37186">
        <ele>31.799999237061</ele>
        <time>2016-07-25T18:40:30.000Z</time>
      </trkpt>
      <trkpt lat="48.83861" lon="2.37202">
        <ele>32</ele>
        <time>2016-07-25T18:40:32.000Z</time>
      </trkpt>
      <trkpt lat="48.83847" lon="2.3722">
        <ele>32.799999237061</ele>
        <time>2016-07-25T18:40:34.000Z</time>
      </trkpt>
      <trkpt lat="48.83828" lon="2.37247">
        <ele>34.400001525879</ele>
        <time>2016-07-25T18:40:37.000Z</time>
      </trkpt>
      <trkpt lat="48.83814" lon="2.37265">
        <ele>34.799999237061</ele>
        <time>2016-07-25T18:40:39.000Z</time>
      </trkpt>
      <trkpt lat="48.83793" lon="2.37291">
        <ele>36</ele>
        <time>2016-07-25T18:40:42.000Z</time>
      </trkpt>
      <trkpt lat="48.83774" lon="2.37316">
        <ele>37.599998474121</ele>
        <time>2016-07-25T18:40:45.000Z</time>
      </trkpt>
      <trkpt lat="48.83761" lon="2.37342">
        <ele>38.599998474121</ele>
        <time>2016-07-25T18:40:49.000Z</time>
      </trkpt>
      <trkpt lat="48.83759" lon="2.37354">
        <ele>39</ele>
        <time>2016-07-25T18:41:24.000Z</time>
      </trkpt>
      <trkpt lat="48.83751" lon="2.37355">
        <ele>39.400001525879</ele>
        <time>2016-07-25T18:41:30.000Z</time>
      </trkpt>
      <trkpt lat="48.83734" lon="2.37371">
        <ele>40.400001525879</ele>
        <time>2016-07-25T18:41:35.000Z</time>
      </trkpt>
      <trkpt lat="48.83717" lon="2.37391">
        <ele>41.400001525879</ele>
        <time>2016-07-25T18:41:39.000Z</time>
      </trkpt>
      <trkpt lat="48.83701" lon="2.37408">
        <ele>42.400001525879</ele>
        <time>2016-07-25T18:41:42.000Z</time>
      </trkpt>
      <trkpt lat="48.83696" lon="2.37413">
        <ele>42.599998474121</ele>
        <time>2016-07-25T18:41:43.000Z</time>
      </trkpt>
      <trkpt lat="48.83682" lon="2.37426">
        <ele>42.599998474121</ele>
        <time>2016-07-25T18:41:46.000Z</time>
      </trkpt>
      <trkpt lat="48.83665" lon="2.37441">
        <ele>42</ele>
        <time>2016-07-25T18:41:50.000Z</time>
      </trkpt>
      <trkpt lat="48.83643" lon="2.37465">
        <ele>41.599998474121</ele>
        <time>2016-07-25T18:41:54.000Z</time>
      </trkpt>
      <trkpt lat="48.83625" lon="2.37482">
        <ele>42.400001525879</ele>
        <time>2016-07-25T18:41:57.000Z</time>
      </trkpt>
      <trkpt lat="48.83608" lon="2.37494">
        <ele>43</ele>
        <time>2016-07-25T18:42:00.000Z</time>
      </trkpt>
      <trkpt lat="48.83591" lon="2.3751">
        <ele>41</ele>
        <time>2016-07-25T18:42:03.000Z</time>
      </trkpt>
      <trkpt lat="48.83575" lon="2.37524">
        <ele>39</ele>
        <time>2016-07-25T18:42:06.000Z</time>
      </trkpt>
      <trkpt lat="48.83555" lon="2.3754">
        <ele>37</ele>
        <time>2016-07-25T18:42:10.000Z</time>
      </trkpt>
      <trkpt lat="48.83551" lon="2.37545">
        <ele>37</ele>
        <time>2016-07-25T18:42:11.000Z</time>
      </trkpt>
      <trkpt lat="48.83536" lon="2.37567">
        <ele>37</ele>
        <time>2016-07-25T18:42:15.000Z</time>
      </trkpt>
      <trkpt lat="48.8352" lon="2.37588">
        <ele>36.599998474121</ele>
        <time>2016-07-25T18:42:19.000Z</time>
      </trkpt>
      <trkpt lat="48.83506" lon="2.37605">
        <ele>35.200000762939</ele>
        <time>2016-07-25T18:42:22.000Z</time>
      </trkpt>
      <trkpt lat="48.83489" lon="2.37627">
        <ele>33.599998474121</ele>
        <time>2016-07-25T18:42:26.000Z</time>
      </trkpt>
      <trkpt lat="48.83471" lon="2.37653">
        <ele>35.599998474121</ele>
        <time>2016-07-25T18:42:30.000Z</time>
      </trkpt>
      <trkpt lat="48.83455" lon="2.37672">
        <ele>37.200000762939</ele>
        <time>2016-07-25T18:42:33.000Z</time>
      </trkpt>
      <trkpt lat="48.8344" lon="2.37691">
        <ele>38.200000762939</ele>
        <time>2016-07-25T18:42:36.000Z</time>
      </trkpt>
      <trkpt lat="48.83422" lon="2.37712">
        <ele>39</ele>
        <time>2016-07-25T18:42:39.000Z</time>
      </trkpt>
      <trkpt lat="48.83407" lon="2.37732">
        <ele>40</ele>
        <time>2016-07-25T18:42:42.000Z</time>
      </trkpt>
      <trkpt lat="48.8339" lon="2.37752">
        <ele>41.400001525879</ele>
        <time>2016-07-25T18:42:45.000Z</time>
      </trkpt>
      <trkpt lat="48.83375" lon="2.37769">
        <ele>42.400001525879</ele>
        <time>2016-07-25T18:42:48.000Z</time>
      </trkpt>
      <trkpt lat="48.8337" lon="2.37775">
        <ele>42.400001525879</ele>
        <time>2016-07-25T18:42:49.000Z</time>
      </trkpt>
      <trkpt lat="48.83352" lon="2.37797">
        <ele>43</ele>
        <time>2016-07-25T18:42:53.000Z</time>
      </trkpt>
      <trkpt lat="48.83337" lon="2.37812">
        <ele>43</ele>
        <time>2016-07-25T18:42:56.000Z</time>
      </trkpt>
      <trkpt lat="48.83321" lon="2.37828">
        <ele>43.400001525879</ele>
        <time>2016-07-25T18:42:59.000Z</time>
      </trkpt>
      <trkpt lat="48.83302" lon="2.37848">
        <ele>44</ele>
        <time>2016-07-25T18:43:03.000Z</time>
      </trkpt>
      <trkpt lat="48.83285" lon="2.37869">
        <ele>45</ele>
        <time>2016-07-25T18:43:07.000Z</time>
      </trkpt>
      <trkpt lat="48.83271" lon="2.37889">
        <ele>46</ele>
        <time>2016-07-25T18:43:11.000Z</time>
      </trkpt>
      <trkpt lat="48.83259" lon="2.37904">
        <ele>46.599998474121</ele>
        <time>2016-07-25T18:43:14.000Z</time>
      </trkpt>
      <trkpt lat="48.83247" lon="2.37923">
        <ele>46.400001525879</ele>
        <time>2016-07-25T18:43:18.000Z</time>
      </trkpt>
      <trkpt lat="48.83233" lon="2.37942">
        <ele>45.400001525879</ele>
        <time>2016-07-25T18:43:23.000Z</time>
      </trkpt>
      <trkpt lat="48.83228" lon="2.37949">
        <ele>45</ele>
        <time>2016-07-25T18:43:26.000Z</time>
      </trkpt>
      <trkpt lat="48.83228" lon="2.37954">
        <ele>44.599998474121</ele>
        <time>2016-07-25T18:43:44.000Z</time>
      </trkpt>
      <trkpt lat="48.83232" lon="2.37958">
        <ele>44.400001525879</ele>
        <time>2016-07-25T18:43:49.000Z</time>
      </trkpt>
      <trkpt lat="48.83229" lon="2.37975">
        <ele>43.599998474121</ele>
        <time>2016-07-25T18:43:57.000Z</time>
      </trkpt>
      <trkpt lat="48.83217" lon="2.38">
        <ele>42.400001525879</ele>
        <time>2016-07-25T18:44:07.000Z</time>
      </trkpt>
      <trkpt lat="48.83201" lon="2.38017">
        <ele>41.200000762939</ele>
        <time>2016-07-25T18:44:13.000Z</time>
      </trkpt>
      <trkpt lat="48.83186" lon="2.38036">
        <ele>41.799999237061</ele>
        <time>2016-07-25T18:44:18.000Z</time>
      </trkpt>
      <trkpt lat="48.83172" lon="2.38053">
        <ele>40.200000762939</ele>
        <time>2016-07-25T18:44:22.000Z</time>
      </trkpt>
      <trkpt lat="48.83158" lon="2.38071">
        <ele>37.599998474121</ele>
        <time>2016-07-25T18:44:26.000Z</time>
      </trkpt>
      <trkpt lat="48.83143" lon="2.38088">
        <ele>34.200000762939</ele>
        <time>2016-07-25T18:44:30.000Z</time>
      </trkpt>
      <trkpt lat="48.83131" lon="2.3811">
        <ele>30.39999961853</ele>
        <time>2016-07-25T18:44:35.000Z</time>
      </trkpt>
      <trkpt lat="48.83118" lon="2.38132">
        <ele>30.60000038147</ele>
        <time>2016-07-25T18:44:40.000Z</time>
      </trkpt>
      <trkpt lat="48.83103" lon="2.38152">
        <ele>31</ele>
        <time>2016-07-25T18:44:45.000Z</time>
      </trkpt>
      <trkpt lat="48.83088" lon="2.38172">
        <ele>32.200000762939</ele>
        <time>2016-07-25T18:44:49.000Z</time>
      </trkpt>
      <trkpt lat="48.83067" lon="2.38188">
        <ele>34</ele>
        <time>2016-07-25T18:44:52.000Z</time>
      </trkpt>
      <trkpt lat="48.83049" lon="2.38199">
        <ele>34.599998474121</ele>
        <time>2016-07-25T18:44:54.000Z</time>
      </trkpt>
      <trkpt lat="48.8303" lon="2.38213">
        <ele>33</ele>
        <time>2016-07-25T18:44:57.000Z</time>
      </trkpt>
      <trkpt lat="48.83011" lon="2.38233">
        <ele>31.39999961853</ele>
        <time>2016-07-25T18:45:01.000Z</time>
      </trkpt>
      <trkpt lat="48.82994" lon="2.38252">
        <ele>31</ele>
        <time>2016-07-25T18:45:05.000Z</time>
      </trkpt>
      <trkpt lat="48.82978" lon="2.3827">
        <ele>31.200000762939</ele>
        <time>2016-07-25T18:45:09.000Z</time>
      </trkpt>
      <trkpt lat="48.82964" lon="2.38287">
        <ele>31.200000762939</ele>
        <time>2016-07-25T18:45:14.000Z</time>
      </trkpt>
      <trkpt lat="48.82958" lon="2.38294">
        <ele>31.200000762939</ele>
        <time>2016-07-25T18:45:16.000Z</time>
      </trkpt>
      <trkpt lat="48.82942" lon="2.38315">
        <ele>31</ele>
        <time>2016-07-25T18:45:21.000Z</time>
      </trkpt>
      <trkpt lat="48.82929" lon="2.38338">
        <ele>32</ele>
        <time>2016-07-25T18:45:27.000Z</time>
      </trkpt>
      <trkpt lat="48.82928" lon="2.38341">
        <ele>32.200000762939</ele>
        <time>2016-07-25T18:45:28.000Z</time>
      </trkpt>
      <trkpt lat="48.82916" lon="2.38354">
        <ele>33.400001525879</ele>
        <time>2016-07-25T18:45:31.000Z</time>
      </trkpt>
      <trkpt lat="48.82903" lon="2.38372">
        <ele>35</ele>
        <time>2016-07-25T18:45:35.000Z</time>
      </trkpt>
      <trkpt lat="48.829" lon="2.38375">
        <ele>35.400001525879</ele>
        <time>2016-07-25T18:45:36.000Z</time>
      </trkpt>
      <trkpt lat="48.82893" lon="2.38381">
        <ele>35</ele>
        <time>2016-07-25T18:45:39.000Z</time>
      </trkpt>
      <trkpt lat="48.82872" lon="2.38395">
        <ele>34.200000762939</ele>
        <time>2016-07-25T18:45:44.000Z</time>
      </trkpt>
      <trkpt lat="48.82853" lon="2.38414">
        <ele>33</ele>
        <time>2016-07-25T18:45:48.000Z</time>
      </trkpt>
      <trkpt lat="48.82836" lon="2.3843">
        <ele>31.799999237061</ele>
        <time>2016-07-25T18:45:52.000Z</time>
      </trkpt>
      <trkpt lat="48.82829" lon="2.38437">
        <ele>31.39999961853</ele>
        <time>2016-07-25T18:45:54.000Z</time>
      </trkpt>
      <trkpt lat="48.82814" lon="2.38454">
        <ele>30.200000762939</ele>
        <time>2016-07-25T18:45:58.000Z</time>
      </trkpt>
      <trkpt lat="48.82797" lon="2.38469">
        <ele>30</ele>
        <time>2016-07-25T18:46:04.000Z</time>
      </trkpt>
      <trkpt lat="48.82795" lon="2.38473">
        <ele>30</ele>
        <time>2016-07-25T18:46:05.000Z</time>
      </trkpt>
      <trkpt lat="48.82782" lon="2.38487">
        <ele>30</ele>
        <time>2016-07-25T18:46:09.000Z</time>
      </trkpt>
      <trkpt lat="48.82767" lon="2.38506">
        <ele>30.200000762939</ele>
        <time>2016-07-25T18:46:15.000Z</time>
      </trkpt>
      <trkpt lat="48.82763" lon="2.38512">
        <ele>30.200000762939</ele>
        <time>2016-07-25T18:46:16.000Z</time>
      </trkpt>
      <trkpt lat="48.82757" lon="2.38522">
        <ele>30.39999961853</ele>
        <time>2016-07-25T18:46:18.000Z</time>
      </trkpt>
      <trkpt lat="48.82749" lon="2.38539">
        <ele>30.799999237061</ele>
        <time>2016-07-25T18:46:21.000Z</time>
      </trkpt>
      <trkpt lat="48.82741" lon="2.38551">
        <ele>31</ele>
        <time>2016-07-25T18:46:24.000Z</time>
      </trkpt>
      <trkpt lat="48.82725" lon="2.38566">
        <ele>31.39999961853</ele>
        <time>2016-07-25T18:46:28.000Z</time>
      </trkpt>
      <trkpt lat="48.8271" lon="2.38586">
        <ele>31.799999237061</ele>
        <time>2016-07-25T18:46:35.000Z</time>
      </trkpt>
      <trkpt lat="48.827" lon="2.38609">
        <ele>32</ele>
        <time>2016-07-25T18:46:45.000Z</time>
      </trkpt>
      <trkpt lat="48.82687" lon="2.38629">
        <ele>32.599998474121</ele>
        <time>2016-07-25T18:46:51.000Z</time>
      </trkpt>
      <trkpt lat="48.82673" lon="2.38649">
        <ele>34</ele>
        <time>2016-07-25T18:46:56.000Z</time>
      </trkpt>
      <trkpt lat="48.82657" lon="2.38671">
        <ele>33</ele>
        <time>2016-07-25T18:47:01.000Z</time>
      </trkpt>
      <trkpt lat="48.82642" lon="2.38692">
        <ele>31.60000038147</ele>
        <time>2016-07-25T18:47:06.000Z</time>
      </trkpt>
      <trkpt lat="48.82626" lon="2.38715">
        <ele>30.60000038147</ele>
        <time>2016-07-25T18:47:11.000Z</time>
      </trkpt>
      <trkpt lat="48.82613" lon="2.38734">
        <ele>29.60000038147</ele>
        <time>2016-07-25T18:47:15.000Z</time>
      </trkpt>
      <trkpt lat="48.82598" lon="2.3875">
        <ele>29.200000762939</ele>
        <time>2016-07-25T18:47:19.000Z</time>
      </trkpt>
      <trkpt lat="48.82578" lon="2.38758">
        <ele>29.799999237061</ele>
        <time>2016-07-25T18:47:23.000Z</time>
      </trkpt>
      <trkpt lat="48.82561" lon="2.38769">
        <ele>30</ele>
        <time>2016-07-25T18:47:27.000Z</time>
      </trkpt>
      <trkpt lat="48.82548" lon="2.3879">
        <ele>30.39999961853</ele>
        <time>2016-07-25T18:47:31.000Z</time>
      </trkpt>
      <trkpt lat="48.82535" lon="2.38816">
        <ele>31.200000762939</ele>
        <time>2016-07-25T18:47:35.000Z</time>
      </trkpt>
      <trkpt lat="48.82525" lon="2.3884">
        <ele>31.799999237061</ele>
        <time>2016-07-25T18:47:39.000Z</time>
      </trkpt>
      <trkpt lat="48.82513" lon="2.38863">
        <ele>32.200000762939</ele>
        <time>2016-07-25T18:47:44.000Z</time>
      </trkpt>
      <trkpt lat="48.8251" lon="2.38874">
        <ele>32.200000762939</ele>
        <time>2016-07-25T18:47:46.000Z</time>
      </trkpt>
      <trkpt lat="48.82507" lon="2.38884">
        <ele>32.200000762939</ele>
        <time>2016-07-25T18:47:48.000Z</time>
      </trkpt>
      <trkpt lat="48.82501" lon="2.38899">
        <ele>32.400001525879</ele>
        <time>2016-07-25T18:47:51.000Z</time>
      </trkpt>
      <trkpt lat="48.8249" lon="2.38916">
        <ele>32.599998474121</ele>
        <time>2016-07-25T18:47:55.000Z</time>
      </trkpt>
      <trkpt lat="48.82476" lon="2.38935">
        <ele>31.60000038147</ele>
        <time>2016-07-25T18:47:59.000Z</time>
      </trkpt>
      <trkpt lat="48.82472" lon="2.3894">
        <ele>31.39999961853</ele>
        <time>2016-07-25T18:48:00.000Z</time>
      </trkpt>
      <trkpt lat="48.82458" lon="2.3896">
        <ele>31.60000038147</ele>
        <time>2016-07-25T18:48:04.000Z</time>
      </trkpt>
      <trkpt lat="48.82442" lon="2.38982">
        <ele>32.200000762939</ele>
        <time>2016-07-25T18:48:08.000Z</time>
      </trkpt>
      <trkpt lat="48.82426" lon="2.39006">
        <ele>32</ele>
        <time>2016-07-25T18:48:12.000Z</time>
      </trkpt>
      <trkpt lat="48.8241" lon="2.39031">
        <ele>31.60000038147</ele>
        <time>2016-07-25T18:48:16.000Z</time>
      </trkpt>
      <trkpt lat="48.82392" lon="2.39054">
        <ele>31.39999961853</ele>
        <time>2016-07-25T18:48:20.000Z</time>
      </trkpt>
      <trkpt lat="48.82375" lon="2.39077">
        <ele>31</ele>
        <time>2016-07-25T18:48:24.000Z</time>
      </trkpt>
      <trkpt lat="48.82357" lon="2.391">
        <ele>31.200000762939</ele>
        <time>2016-07-25T18:48:28.000Z</time>
      </trkpt>
      <trkpt lat="48.82342" lon="2.39118">
        <ele>31.799999237061</ele>
        <time>2016-07-25T18:48:31.000Z</time>
      </trkpt>
      <trkpt lat="48.82328" lon="2.39136">
        <ele>32.400001525879</ele>
        <time>2016-07-25T18:48:34.000Z</time>
      </trkpt>
      <trkpt lat="48.82311" lon="2.3916">
        <ele>33.400001525879</ele>
        <time>2016-07-25T18:48:38.000Z</time>
      </trkpt>
      <trkpt lat="48.82296" lon="2.39186">
        <ele>33.799999237061</ele>
        <time>2016-07-25T18:48:42.000Z</time>
      </trkpt>
      <trkpt lat="48.8228" lon="2.39212">
        <ele>34.599998474121</ele>
        <time>2016-07-25T18:48:46.000Z</time>
      </trkpt>
      <trkpt lat="48.82264" lon="2.39236">
        <ele>35</ele>
        <time>2016-07-25T18:48:50.000Z</time>
      </trkpt>
      <trkpt lat="48.82248" lon="2.39258">
        <ele>34.799999237061</ele>
        <time>2016-07-25T18:48:54.000Z</time>
      </trkpt>
      <trkpt lat="48.82233" lon="2.3928">
        <ele>34</ele>
        <time>2016-07-25T18:48:58.000Z</time>
      </trkpt>
      <trkpt lat="48.82219" lon="2.39301">
        <ele>32.799999237061</ele>
        <time>2016-07-25T18:49:02.000Z</time>
      </trkpt>
      <trkpt lat="48.82205" lon="2.39323">
        <ele>31.60000038147</ele>
        <time>2016-07-25T18:49:06.000Z</time>
      </trkpt>
      <trkpt lat="48.82198" lon="2.39333">
        <ele>31</ele>
        <time>2016-07-25T18:49:08.000Z</time>
      </trkpt>
      <trkpt lat="48.82191" lon="2.39344">
        <ele>30.799999237061</ele>
        <time>2016-07-25T18:49:10.000Z</time>
      </trkpt>
      <trkpt lat="48.82175" lon="2.39368">
        <ele>31.60000038147</ele>
        <time>2016-07-25T18:49:14.000Z</time>
      </trkpt>
      <trkpt lat="48.82159" lon="2.39391">
        <ele>32.799999237061</ele>
        <time>2016-07-25T18:49:18.000Z</time>
      </trkpt>
      <trkpt lat="48.82152" lon="2.39403">
        <ele>34.599998474121</ele>
        <time>2016-07-25T18:49:20.000Z</time>
      </trkpt>
      <trkpt lat="48.82138" lon="2.39429">
        <ele>37</ele>
        <time>2016-07-25T18:49:24.000Z</time>
      </trkpt>
      <trkpt lat="48.82125" lon="2.39455">
        <ele>36.799999237061</ele>
        <time>2016-07-25T18:49:28.000Z</time>
      </trkpt>
      <trkpt lat="48.82111" lon="2.39484">
        <ele>35</ele>
        <time>2016-07-25T18:49:32.000Z</time>
      </trkpt>
      <trkpt lat="48.821" lon="2.39503">
        <ele>34</ele>
        <time>2016-07-25T18:49:35.000Z</time>
      </trkpt>
      <trkpt lat="48.82085" lon="2.39525">
        <ele>33</ele>
        <time>2016-07-25T18:49:39.000Z</time>
      </trkpt>
      <trkpt lat="48.8208" lon="2.3953">
        <ele>33</ele>
        <time>2016-07-25T18:49:40.000Z</time>
      </trkpt>
      <trkpt lat="48.82066" lon="2.39553">
        <ele>32.200000762939</ele>
        <time>2016-07-25T18:49:44.000Z</time>
      </trkpt>
      <trkpt lat="48.82063" lon="2.39559">
        <ele>32.200000762939</ele>
        <time>2016-07-25T18:49:45.000Z</time>
      </trkpt>
      <trkpt lat="48.8205" lon="2.39584">
        <ele>32</ele>
        <time>2016-07-25T18:49:49.000Z</time>
      </trkpt>
      <trkpt lat="48.82034" lon="2.39611">
        <ele>32.599998474121</ele>
        <time>2016-07-25T18:49:53.000Z</time>
      </trkpt>
      <trkpt lat="48.82021" lon="2.3963">
        <ele>33.599998474121</ele>
        <time>2016-07-25T18:49:56.000Z</time>
      </trkpt>
      <trkpt lat="48.82005" lon="2.39656">
        <ele>35</ele>
        <time>2016-07-25T18:50:00.000Z</time>
      </trkpt>
      <trkpt lat="48.81991" lon="2.39682">
        <ele>34</ele>
        <time>2016-07-25T18:50:04.000Z</time>
      </trkpt>
      <trkpt lat="48.81988" lon="2.39689">
        <ele>33.400001525879</ele>
        <time>2016-07-25T18:50:05.000Z</time>
      </trkpt>
      <trkpt lat="48.81975" lon="2.39718">
        <ele>32.400001525879</ele>
        <time>2016-07-25T18:50:09.000Z</time>
      </trkpt>
      <trkpt lat="48.81961" lon="2.39739">
        <ele>32.200000762939</ele>
        <time>2016-07-25T18:50:13.000Z</time>
      </trkpt>
      <trkpt lat="48.81953" lon="2.39756">
        <ele>32.799999237061</ele>
        <time>2016-07-25T18:50:17.000Z</time>
      </trkpt>
      <trkpt lat="48.81951" lon="2.39772">
        <ele>33.400001525879</ele>
        <time>2016-07-25T18:50:22.000Z</time>
      </trkpt>
      <trkpt lat="48.81949" lon="2.39802">
        <ele>34</ele>
        <time>2016-07-25T18:51:27.000Z</time>
      </trkpt>
      <trkpt lat="48.81941" lon="2.39831">
        <ele>34.799999237061</ele>
        <time>2016-07-25T18:52:00.000Z</time>
      </trkpt>
      <trkpt lat="48.8193" lon="2.39855">
        <ele>33.599998474121</ele>
        <time>2016-07-25T18:52:05.000Z</time>
      </trkpt>
      <trkpt lat="48.81918" lon="2.39879">
        <ele>32.200000762939</ele>
        <time>2016-07-25T18:52:10.000Z</time>
      </trkpt>
      <trkpt lat="48.81906" lon="2.39901">
        <ele>32.200000762939</ele>
        <time>2016-07-25T18:52:16.000Z</time>
      </trkpt>
      <trkpt lat="48.81898" lon="2.39926">
        <ele>33</ele>
        <time>2016-07-25T18:52:35.000Z</time>
      </trkpt>
      <trkpt lat="48.81888" lon="2.39952">
        <ele>33.599998474121</ele>
        <time>2016-07-25T18:52:45.000Z</time>
      </trkpt>
      <trkpt lat="48.8188" lon="2.39976">
        <ele>33.400001525879</ele>
        <time>2016-07-25T18:52:51.000Z</time>
      </trkpt>
      <trkpt lat="48.81869" lon="2.40004">
        <ele>33.200000762939</ele>
        <time>2016-07-25T18:52:56.000Z</time>
      </trkpt>
      <trkpt lat="48.8186" lon="2.4003">
        <ele>32.799999237061</ele>
        <time>2016-07-25T18:53:01.000Z</time>
      </trkpt>
      <trkpt lat="48.81856" lon="2.40042">
        <ele>32.400001525879</ele>
        <time>2016-07-25T18:53:03.000Z</time>
      </trkpt>
      <trkpt lat="48.81845" lon="2.40071">
        <ele>31.39999961853</ele>
        <time>2016-07-25T18:53:08.000Z</time>
      </trkpt>
      <trkpt lat="48.81835" lon="2.401">
        <ele>30.799999237061</ele>
        <time>2016-07-25T18:53:13.000Z</time>
      </trkpt>
      <trkpt lat="48.81825" lon="2.40126">
        <ele>30.200000762939</ele>
        <time>2016-07-25T18:53:18.000Z</time>
      </trkpt>
      <trkpt lat="48.81813" lon="2.40152">
        <ele>30.60000038147</ele>
        <time>2016-07-25T18:53:24.000Z</time>
      </trkpt>
      <trkpt lat="48.81798" lon="2.40174">
        <ele>31.39999961853</ele>
        <time>2016-07-25T18:53:31.000Z</time>
      </trkpt>
      <trkpt lat="48.81787" lon="2.40199">
        <ele>31.799999237061</ele>
        <time>2016-07-25T18:53:37.000Z</time>
      </trkpt>
      <trkpt lat="48.81774" lon="2.40222">
        <ele>32.200000762939</ele>
        <time>2016-07-25T18:53:42.000Z</time>
      </trkpt>
      <trkpt lat="48.81758" lon="2.40244">
        <ele>33.200000762939</ele>
        <time>2016-07-25T18:53:47.000Z</time>
      </trkpt>
      <trkpt lat="48.81741" lon="2.40265">
        <ele>34</ele>
        <time>2016-07-25T18:53:52.000Z</time>
      </trkpt>
      <trkpt lat="48.81724" lon="2.40281">
        <ele>34.799999237061</ele>
        <time>2016-07-25T18:53:56.000Z</time>
      </trkpt>
      <trkpt lat="48.81706" lon="2.40297">
        <ele>35</ele>
        <time>2016-07-25T18:54:00.000Z</time>
      </trkpt>
      <trkpt lat="48.81686" lon="2.40314">
        <ele>34.799999237061</ele>
        <time>2016-07-25T18:54:04.000Z</time>
      </trkpt>
      <trkpt lat="48.81666" lon="2.4033">
        <ele>34</ele>
        <time>2016-07-25T18:54:08.000Z</time>
      </trkpt>
      <trkpt lat="48.81649" lon="2.40345">
        <ele>33.799999237061</ele>
        <time>2016-07-25T18:54:13.000Z</time>
      </trkpt>
      <trkpt lat="48.81644" lon="2.40354">
        <ele>33.799999237061</ele>
        <time>2016-07-25T18:54:16.000Z</time>
      </trkpt>
      <trkpt lat="48.81635" lon="2.40371">
        <ele>33.599998474121</ele>
        <time>2016-07-25T18:54:20.000Z</time>
      </trkpt>
      <trkpt lat="48.81621" lon="2.40395">
        <ele>33.799999237061</ele>
        <time>2016-07-25T18:54:25.000Z</time>
      </trkpt>
      <trkpt lat="48.81613" lon="2.40403">
        <ele>34</ele>
        <time>2016-07-25T18:54:27.000Z</time>
      </trkpt>
      <trkpt lat="48.81594" lon="2.40419">
        <ele>33.799999237061</ele>
        <time>2016-07-25T18:54:31.000Z</time>
      </trkpt>
      <trkpt lat="48.81576" lon="2.40435">
        <ele>33.599998474121</ele>
        <time>2016-07-25T18:54:35.000Z</time>
      </trkpt>
      <trkpt lat="48.8156" lon="2.40452">
        <ele>33.400001525879</ele>
        <time>2016-07-25T18:54:39.000Z</time>
      </trkpt>
      <trkpt lat="48.81543" lon="2.4047">
        <ele>33.599998474121</ele>
        <time>2016-07-25T18:54:43.000Z</time>
      </trkpt>
      <trkpt lat="48.81526" lon="2.40489">
        <ele>33.799999237061</ele>
        <time>2016-07-25T18:54:47.000Z</time>
      </trkpt>
      <trkpt lat="48.81513" lon="2.40506">
        <ele>34</ele>
        <time>2016-07-25T18:54:52.000Z</time>
      </trkpt>
      <trkpt lat="48.81508" lon="2.40513">
        <ele>33.799999237061</ele>
        <time>2016-07-25T18:54:55.000Z</time>
      </trkpt>
      <trkpt lat="48.81495" lon="2.40534">
        <ele>33.599998474121</ele>
        <time>2016-07-25T18:55:01.000Z</time>
      </trkpt>
      <trkpt lat="48.81493" lon="2.40538">
        <ele>33.599998474121</ele>
        <time>2016-07-25T18:55:02.000Z</time>
      </trkpt>
      <trkpt lat="48.81483" lon="2.40553">
        <ele>33.599998474121</ele>
        <time>2016-07-25T18:55:06.000Z</time>
      </trkpt>
      <trkpt lat="48.81477" lon="2.40557">
        <ele>33.799999237061</ele>
        <time>2016-07-25T18:55:08.000Z</time>
      </trkpt>
      <trkpt lat="48.81471" lon="2.40562">
        <ele>34</ele>
        <time>2016-07-25T18:55:10.000Z</time>
      </trkpt>
      <trkpt lat="48.81458" lon="2.40586">
        <ele>34.599998474121</ele>
        <time>2016-07-25T18:55:15.000Z</time>
      </trkpt>
      <trkpt lat="48.81456" lon="2.40593">
        <ele>34.799999237061</ele>
        <time>2016-07-25T18:55:16.000Z</time>
      </trkpt>
      <trkpt lat="48.81454" lon="2.40622">
        <ele>35.200000762939</ele>
        <time>2016-07-25T18:55:20.000Z</time>
      </trkpt>
      <trkpt lat="48.81455" lon="2.4065">
        <ele>35.400001525879</ele>
        <time>2016-07-25T18:55:24.000Z</time>
      </trkpt>
      <trkpt lat="48.81455" lon="2.40679">
        <ele>35.599998474121</ele>
        <time>2016-07-25T18:55:28.000Z</time>
      </trkpt>
      <trkpt lat="48.81454" lon="2.407">
        <ele>35.799999237061</ele>
        <time>2016-07-25T18:55:31.000Z</time>
      </trkpt>
      <trkpt lat="48.8144" lon="2.40723">
        <ele>36.599998474121</ele>
        <time>2016-07-25T18:55:36.000Z</time>
      </trkpt>
      <trkpt lat="48.81433" lon="2.4073">
        <ele>36.799999237061</ele>
        <time>2016-07-25T18:55:38.000Z</time>
      </trkpt>
      <trkpt lat="48.81421" lon="2.40746">
        <ele>36.599998474121</ele>
        <time>2016-07-25T18:55:42.000Z</time>
      </trkpt>
      <trkpt lat="48.81412" lon="2.40757">
        <ele>36.400001525879</ele>
        <time>2016-07-25T18:55:45.000Z</time>
      </trkpt>
      <trkpt lat="48.81398" lon="2.4077">
        <ele>36</ele>
        <time>2016-07-25T18:55:49.000Z</time>
      </trkpt>
      <trkpt lat="48.81388" lon="2.4078">
        <ele>35.799999237061</ele>
        <time>2016-07-25T18:55:52.000Z</time>
      </trkpt>
      <trkpt lat="48.81373" lon="2.40797">
        <ele>36.200000762939</ele>
        <time>2016-07-25T18:55:56.000Z</time>
      </trkpt>
      <trkpt lat="48.8137" lon="2.40801">
        <ele>36.200000762939</ele>
        <time>2016-07-25T18:55:57.000Z</time>
      </trkpt>
      <trkpt lat="48.81363" lon="2.40815">
        <ele>36.599998474121</ele>
        <time>2016-07-25T18:56:00.000Z</time>
      </trkpt>
      <trkpt lat="48.81353" lon="2.40845">
        <ele>35.799999237061</ele>
        <time>2016-07-25T18:56:05.000Z</time>
      </trkpt>
      <trkpt lat="48.81345" lon="2.40876">
        <ele>33</ele>
        <time>2016-07-25T18:56:10.000Z</time>
      </trkpt>
      <trkpt lat="48.81342" lon="2.40887">
        <ele>31.799999237061</ele>
        <time>2016-07-25T18:56:12.000Z</time>
      </trkpt>
      <trkpt lat="48.81326" lon="2.40902">
        <ele>30.60000038147</ele>
        <time>2016-07-25T18:56:16.000Z</time>
      </trkpt>
      <trkpt lat="48.81308" lon="2.40897">
        <ele>30.799999237061</ele>
        <time>2016-07-25T18:56:20.000Z</time>
      </trkpt>
      <trkpt lat="48.81303" lon="2.40897">
        <ele>30.799999237061</ele>
        <time>2016-07-25T18:56:21.000Z</time>
      </trkpt>
      <trkpt lat="48.81283" lon="2.4089">
        <ele>31.200000762939</ele>
        <time>2016-07-25T18:56:25.000Z</time>
      </trkpt>
      <trkpt lat="48.81261" lon="2.40885">
        <ele>31</ele>
        <time>2016-07-25T18:56:29.000Z</time>
      </trkpt>
      <trkpt lat="48.81238" lon="2.40878">
        <ele>30.60000038147</ele>
        <time>2016-07-25T18:56:33.000Z</time>
      </trkpt>
      <trkpt lat="48.81215" lon="2.40872">
        <ele>30.60000038147</ele>
        <time>2016-07-25T18:56:37.000Z</time>
      </trkpt>
      <trkpt lat="48.81191" lon="2.40865">
        <ele>30.60000038147</ele>
        <time>2016-07-25T18:56:41.000Z</time>
      </trkpt>
      <trkpt lat="48.81168" lon="2.40861">
        <ele>31</ele>
        <time>2016-07-25T18:56:45.000Z</time>
      </trkpt>
      <trkpt lat="48.81145" lon="2.40854">
        <ele>31.200000762939</ele>
        <time>2016-07-25T18:56:49.000Z</time>
      </trkpt>
      <trkpt lat="48.81123" lon="2.40845">
        <ele>31.60000038147</ele>
        <time>2016-07-25T18:56:53.000Z</time>
      </trkpt>
      <trkpt lat="48.811" lon="2.40837">
        <ele>31.799999237061</ele>
        <time>2016-07-25T18:56:57.000Z</time>
      </trkpt>
      <trkpt lat="48.81082" lon="2.40831">
        <ele>31.39999961853</ele>
        <time>2016-07-25T18:57:00.000Z</time>
      </trkpt>
      <trkpt lat="48.8106" lon="2.40825">
        <ele>31</ele>
        <time>2016-07-25T18:57:04.000Z</time>
      </trkpt>
      <trkpt lat="48.81038" lon="2.40818">
        <ele>30.799999237061</ele>
        <time>2016-07-25T18:57:08.000Z</time>
      </trkpt>
      <trkpt lat="48.81014" lon="2.40813">
        <ele>30.200000762939</ele>
        <time>2016-07-25T18:57:12.000Z</time>
      </trkpt>
      <trkpt lat="48.80997" lon="2.4081">
        <ele>29.799999237061</ele>
        <time>2016-07-25T18:57:15.000Z</time>
      </trkpt>
      <trkpt lat="48.80979" lon="2.40804">
        <ele>29.60000038147</ele>
        <time>2016-07-25T18:57:18.000Z</time>
      </trkpt>
      <trkpt lat="48.80956" lon="2.40798">
        <ele>29.60000038147</ele>
        <time>2016-07-25T18:57:22.000Z</time>
      </trkpt>
      <trkpt lat="48.80938" lon="2.40793">
        <ele>29.60000038147</ele>
        <time>2016-07-25T18:57:25.000Z</time>
      </trkpt>
      <trkpt lat="48.80915" lon="2.40787">
        <ele>30.799999237061</ele>
        <time>2016-07-25T18:57:29.000Z</time>
      </trkpt>
      <trkpt lat="48.80893" lon="2.40781">
        <ele>32.200000762939</ele>
        <time>2016-07-25T18:57:33.000Z</time>
      </trkpt>
      <trkpt lat="48.80887" lon="2.40781">
        <ele>32.400001525879</ele>
        <time>2016-07-25T18:57:34.000Z</time>
      </trkpt>
      <trkpt lat="48.80866" lon="2.40778">
        <ele>32.599998474121</ele>
        <time>2016-07-25T18:57:38.000Z</time>
      </trkpt>
      <trkpt lat="48.80844" lon="2.40778">
        <ele>32.400001525879</ele>
        <time>2016-07-25T18:57:42.000Z</time>
      </trkpt>
      <trkpt lat="48.8082" lon="2.40775">
        <ele>31.799999237061</ele>
        <time>2016-07-25T18:57:46.000Z</time>
      </trkpt>
      <trkpt lat="48.80814" lon="2.40775">
        <ele>31.799999237061</ele>
        <time>2016-07-25T18:57:47.000Z</time>
      </trkpt>
      <trkpt lat="48.80791" lon="2.40777">
        <ele>31.39999961853</ele>
        <time>2016-07-25T18:57:51.000Z</time>
      </trkpt>
      <trkpt lat="48.80769" lon="2.40778">
        <ele>31.39999961853</ele>
        <time>2016-07-25T18:57:55.000Z</time>
      </trkpt>
      <trkpt lat="48.80747" lon="2.40774">
        <ele>32</ele>
        <time>2016-07-25T18:57:59.000Z</time>
      </trkpt>
      <trkpt lat="48.80726" lon="2.40772">
        <ele>32.599998474121</ele>
        <time>2016-07-25T18:58:04.000Z</time>
      </trkpt>
      <trkpt lat="48.80717" lon="2.40775">
        <ele>32.599998474121</ele>
        <time>2016-07-25T18:58:06.000Z</time>
      </trkpt>
      <trkpt lat="48.80699" lon="2.40783">
        <ele>32.400001525879</ele>
        <time>2016-07-25T18:58:11.000Z</time>
      </trkpt>
      <trkpt lat="48.80685" lon="2.40781">
        <ele>32.400001525879</ele>
        <time>2016-07-25T18:58:17.000Z</time>
      </trkpt>
      <trkpt lat="48.80673" lon="2.4078">
        <ele>32.200000762939</ele>
        <time>2016-07-25T18:58:24.000Z</time>
      </trkpt>
      <trkpt lat="48.80666" lon="2.40779">
        <ele>32.200000762939</ele>
        <time>2016-07-25T18:58:27.000Z</time>
      </trkpt>
      <trkpt lat="48.80652" lon="2.40779">
        <ele>32.200000762939</ele>
        <time>2016-07-25T18:58:31.000Z</time>
      </trkpt>
      <trkpt lat="48.80643" lon="2.40778">
        <ele>32</ele>
        <time>2016-07-25T18:58:34.000Z</time>
      </trkpt>
      <trkpt lat="48.80638" lon="2.40778">
        <ele>32</ele>
        <time>2016-07-25T18:58:36.000Z</time>
      </trkpt>
      <trkpt lat="48.8062" lon="2.40786">
        <ele>32</ele>
        <time>2016-07-25T18:58:43.000Z</time>
      </trkpt>
      <trkpt lat="48.80599" lon="2.40788">
        <ele>32</ele>
        <time>2016-07-25T18:58:49.000Z</time>
      </trkpt>
      <trkpt lat="48.80578" lon="2.40794">
        <ele>31.60000038147</ele>
        <time>2016-07-25T18:58:54.000Z</time>
      </trkpt>
      <trkpt lat="48.80556" lon="2.40798">
        <ele>31.799999237061</ele>
        <time>2016-07-25T18:58:59.000Z</time>
      </trkpt>
      <trkpt lat="48.80535" lon="2.40805">
        <ele>32.400001525879</ele>
        <time>2016-07-25T18:59:03.000Z</time>
      </trkpt>
      <trkpt lat="48.80515" lon="2.40819">
        <ele>33.200000762939</ele>
        <time>2016-07-25T18:59:07.000Z</time>
      </trkpt>
      <trkpt lat="48.80495" lon="2.40832">
        <ele>34.200000762939</ele>
        <time>2016-07-25T18:59:11.000Z</time>
      </trkpt>
      <trkpt lat="48.80475" lon="2.40846">
        <ele>34.799999237061</ele>
        <time>2016-07-25T18:59:15.000Z</time>
      </trkpt>
      <trkpt lat="48.8047" lon="2.4085">
        <ele>34.799999237061</ele>
        <time>2016-07-25T18:59:16.000Z</time>
      </trkpt>
      <trkpt lat="48.80449" lon="2.40866">
        <ele>35.799999237061</ele>
        <time>2016-07-25T18:59:20.000Z</time>
      </trkpt>
      <trkpt lat="48.80431" lon="2.40877">
        <ele>36.200000762939</ele>
        <time>2016-07-25T18:59:23.000Z</time>
      </trkpt>
      <trkpt lat="48.80414" lon="2.40888">
        <ele>35.799999237061</ele>
        <time>2016-07-25T18:59:26.000Z</time>
      </trkpt>
      <trkpt lat="48.80396" lon="2.40901">
        <ele>35.200000762939</ele>
        <time>2016-07-25T18:59:29.000Z</time>
      </trkpt>
      <trkpt lat="48.8038" lon="2.40916">
        <ele>34.599998474121</ele>
        <time>2016-07-25T18:59:32.000Z</time>
      </trkpt>
      <trkpt lat="48.80365" lon="2.40933">
        <ele>33.400001525879</ele>
        <time>2016-07-25T18:59:35.000Z</time>
      </trkpt>
      <trkpt lat="48.80349" lon="2.40952">
        <ele>33</ele>
        <time>2016-07-25T18:59:38.000Z</time>
      </trkpt>
      <trkpt lat="48.80335" lon="2.4097">
        <ele>32.400001525879</ele>
        <time>2016-07-25T18:59:41.000Z</time>
      </trkpt>
      <trkpt lat="48.80321" lon="2.40989">
        <ele>32.200000762939</ele>
        <time>2016-07-25T18:59:44.000Z</time>
      </trkpt>
      <trkpt lat="48.80307" lon="2.41008">
        <ele>31.799999237061</ele>
        <time>2016-07-25T18:59:47.000Z</time>
      </trkpt>
      <trkpt lat="48.80292" lon="2.41027">
        <ele>31.200000762939</ele>
        <time>2016-07-25T18:59:50.000Z</time>
      </trkpt>
      <trkpt lat="48.80277" lon="2.41045">
        <ele>30.39999961853</ele>
        <time>2016-07-25T18:59:53.000Z</time>
      </trkpt>
      <trkpt lat="48.80262" lon="2.41063">
        <ele>29.60000038147</ele>
        <time>2016-07-25T18:59:56.000Z</time>
      </trkpt>
      <trkpt lat="48.80247" lon="2.41081">
        <ele>30.200000762939</ele>
        <time>2016-07-25T18:59:59.000Z</time>
      </trkpt>
      <trkpt lat="48.8023" lon="2.41098">
        <ele>31.200000762939</ele>
        <time>2016-07-25T19:00:02.000Z</time>
      </trkpt>
      <trkpt lat="48.80214" lon="2.41117">
        <ele>32.200000762939</ele>
        <time>2016-07-25T19:00:05.000Z</time>
      </trkpt>
      <trkpt lat="48.80197" lon="2.41138">
        <ele>33.200000762939</ele>
        <time>2016-07-25T19:00:08.000Z</time>
      </trkpt>
      <trkpt lat="48.80181" lon="2.41156">
        <ele>34</ele>
        <time>2016-07-25T19:00:11.000Z</time>
      </trkpt>
      <trkpt lat="48.80161" lon="2.41175">
        <ele>33.200000762939</ele>
        <time>2016-07-25T19:00:14.000Z</time>
      </trkpt>
      <trkpt lat="48.80143" lon="2.41194">
        <ele>32</ele>
        <time>2016-07-25T19:00:17.000Z</time>
      </trkpt>
      <trkpt lat="48.80125" lon="2.41217">
        <ele>33</ele>
        <time>2016-07-25T19:00:20.000Z</time>
      </trkpt>
      <trkpt lat="48.80105" lon="2.41239">
        <ele>34.799999237061</ele>
        <time>2016-07-25T19:00:23.000Z</time>
      </trkpt>
      <trkpt lat="48.8009" lon="2.41256">
        <ele>34.400001525879</ele>
        <time>2016-07-25T19:00:25.000Z</time>
      </trkpt>
      <trkpt lat="48.80075" lon="2.41271">
        <ele>33.200000762939</ele>
        <time>2016-07-25T19:00:27.000Z</time>
      </trkpt>
      <trkpt lat="48.80059" lon="2.41286">
        <ele>32.200000762939</ele>
        <time>2016-07-25T19:00:29.000Z</time>
      </trkpt>
      <trkpt lat="48.80037" lon="2.41307">
        <ele>31.200000762939</ele>
        <time>2016-07-25T19:00:32.000Z</time>
      </trkpt>
      <trkpt lat="48.80014" lon="2.41327">
        <ele>30.39999961853</ele>
        <time>2016-07-25T19:00:35.000Z</time>
      </trkpt>
      <trkpt lat="48.79991" lon="2.41345">
        <ele>31.799999237061</ele>
        <time>2016-07-25T19:00:38.000Z</time>
      </trkpt>
      <trkpt lat="48.79969" lon="2.41365">
        <ele>33.200000762939</ele>
        <time>2016-07-25T19:00:41.000Z</time>
      </trkpt>
      <trkpt lat="48.79946" lon="2.41384">
        <ele>34</ele>
        <time>2016-07-25T19:00:44.000Z</time>
      </trkpt>
      <trkpt lat="48.79926" lon="2.41405">
        <ele>34</ele>
        <time>2016-07-25T19:00:47.000Z</time>
      </trkpt>
      <trkpt lat="48.79906" lon="2.41423">
        <ele>34</ele>
        <time>2016-07-25T19:00:50.000Z</time>
      </trkpt>
      <trkpt lat="48.79886" lon="2.41441">
        <ele>33.400001525879</ele>
        <time>2016-07-25T19:00:53.000Z</time>
      </trkpt>
      <trkpt lat="48.79866" lon="2.41459">
        <ele>32.799999237061</ele>
        <time>2016-07-25T19:00:56.000Z</time>
      </trkpt>
      <trkpt lat="48.79848" lon="2.41476">
        <ele>32</ele>
        <time>2016-07-25T19:00:59.000Z</time>
      </trkpt>
      <trkpt lat="48.79829" lon="2.41494">
        <ele>32.200000762939</ele>
        <time>2016-07-25T19:01:02.000Z</time>
      </trkpt>
      <trkpt lat="48.7981" lon="2.41511">
        <ele>33</ele>
        <time>2016-07-25T19:01:05.000Z</time>
      </trkpt>
      <trkpt lat="48.79798" lon="2.41523">
        <ele>33.400001525879</ele>
        <time>2016-07-25T19:01:07.000Z</time>
      </trkpt>
      <trkpt lat="48.7978" lon="2.41541">
        <ele>34</ele>
        <time>2016-07-25T19:01:10.000Z</time>
      </trkpt>
      <trkpt lat="48.79763" lon="2.41557">
        <ele>34.599998474121</ele>
        <time>2016-07-25T19:01:13.000Z</time>
      </trkpt>
      <trkpt lat="48.79749" lon="2.41576">
        <ele>34.400001525879</ele>
        <time>2016-07-25T19:01:16.000Z</time>
      </trkpt>
      <trkpt lat="48.79736" lon="2.41589">
        <ele>34</ele>
        <time>2016-07-25T19:01:19.000Z</time>
      </trkpt>
      <trkpt lat="48.7972" lon="2.41604">
        <ele>33.599998474121</ele>
        <time>2016-07-25T19:01:23.000Z</time>
      </trkpt>
      <trkpt lat="48.79707" lon="2.41617">
        <ele>33.799999237061</ele>
        <time>2016-07-25T19:01:27.000Z</time>
      </trkpt>
      <trkpt lat="48.79689" lon="2.41628">
        <ele>35</ele>
        <time>2016-07-25T19:01:33.000Z</time>
      </trkpt>
      <trkpt lat="48.79669" lon="2.41629">
        <ele>36</ele>
        <time>2016-07-25T19:01:40.000Z</time>
      </trkpt>
      <trkpt lat="48.79658" lon="2.41631">
        <ele>36.400001525879</ele>
        <time>2016-07-25T19:01:44.000Z</time>
      </trkpt>
      <trkpt lat="48.79645" lon="2.41634">
        <ele>37</ele>
        <time>2016-07-25T19:01:49.000Z</time>
      </trkpt>
      <trkpt lat="48.79642" lon="2.41635">
        <ele>37</ele>
        <time>2016-07-25T19:01:51.000Z</time>
      </trkpt>
      <trkpt lat="48.79642" lon="2.41656">
        <ele>36.799999237061</ele>
        <time>2016-07-25T19:02:00.000Z</time>
      </trkpt>
      <trkpt lat="48.79642" lon="2.41672">
        <ele>36.200000762939</ele>
        <time>2016-07-25T19:03:40.000Z</time>
      </trkpt>
      <trkpt lat="48.79634" lon="2.41689">
        <ele>35.599998474121</ele>
        <time>2016-07-25T19:04:04.000Z</time>
      </trkpt>
      <trkpt lat="48.79623" lon="2.41709">
        <ele>36</ele>
        <time>2016-07-25T19:04:18.000Z</time>
      </trkpt>
      <trkpt lat="48.79622" lon="2.41714">
        <ele>36</ele>
        <time>2016-07-25T19:04:21.000Z</time>
      </trkpt>
      <trkpt lat="48.79632" lon="2.41724">
        <ele>35</ele>
        <time>2016-07-25T19:05:19.000Z</time>
      </trkpt>
      <trkpt lat="48.79643" lon="2.41737">
        <ele>34</ele>
        <time>2016-07-25T19:05:28.000Z</time>
      </trkpt>
      <trkpt lat="48.79637" lon="2.41737">
        <ele>34.400001525879</ele>
        <time>2016-07-25T19:06:36.000Z</time>
      </trkpt>
      <trkpt lat="48.79625" lon="2.41761">
        <ele>35.400001525879</ele>
        <time>2016-07-25T19:06:46.000Z</time>
      </trkpt>
      <trkpt lat="48.79614" lon="2.41784">
        <ele>36.200000762939</ele>
        <time>2016-07-25T19:06:51.000Z</time>
      </trkpt>
      <trkpt lat="48.79604" lon="2.4181">
        <ele>37</ele>
        <time>2016-07-25T19:06:57.000Z</time>
      </trkpt>
      <trkpt lat="48.79595" lon="2.41835">
        <ele>36.799999237061</ele>
        <time>2016-07-25T19:07:01.000Z</time>
      </trkpt>
      <trkpt lat="48.79587" lon="2.41859">
        <ele>35</ele>
        <time>2016-07-25T19:07:05.000Z</time>
      </trkpt>
      <trkpt lat="48.79575" lon="2.41883">
        <ele>33</ele>
        <time>2016-07-25T19:07:09.000Z</time>
      </trkpt>
      <trkpt lat="48.79561" lon="2.41904">
        <ele>32.599998474121</ele>
        <time>2016-07-25T19:07:13.000Z</time>
      </trkpt>
      <trkpt lat="48.79544" lon="2.41924">
        <ele>33</ele>
        <time>2016-07-25T19:07:18.000Z</time>
      </trkpt>
      <trkpt lat="48.79528" lon="2.41941">
        <ele>32.799999237061</ele>
        <time>2016-07-25T19:07:22.000Z</time>
      </trkpt>
      <trkpt lat="48.79512" lon="2.41959">
        <ele>32.200000762939</ele>
        <time>2016-07-25T19:07:26.000Z</time>
      </trkpt>
      <trkpt lat="48.79497" lon="2.41974">
        <ele>31.799999237061</ele>
        <time>2016-07-25T19:07:30.000Z</time>
      </trkpt>
      <trkpt lat="48.79481" lon="2.41992">
        <ele>32.200000762939</ele>
        <time>2016-07-25T19:07:34.000Z</time>
      </trkpt>
      <trkpt lat="48.79466" lon="2.4201">
        <ele>32.599998474121</ele>
        <time>2016-07-25T19:07:38.000Z</time>
      </trkpt>
      <trkpt lat="48.7945" lon="2.42028">
        <ele>32.599998474121</ele>
        <time>2016-07-25T19:07:42.000Z</time>
      </trkpt>
      <trkpt lat="48.79434" lon="2.42045">
        <ele>31.799999237061</ele>
        <time>2016-07-25T19:07:46.000Z</time>
      </trkpt>
      <trkpt lat="48.79418" lon="2.42062">
        <ele>31.200000762939</ele>
        <time>2016-07-25T19:07:50.000Z</time>
      </trkpt>
      <trkpt lat="48.79414" lon="2.42066">
        <ele>31.39999961853</ele>
        <time>2016-07-25T19:07:51.000Z</time>
      </trkpt>
      <trkpt lat="48.79397" lon="2.42082">
        <ele>32.400001525879</ele>
        <time>2016-07-25T19:07:55.000Z</time>
      </trkpt>
      <trkpt lat="48.79393" lon="2.42084">
        <ele>32.799999237061</ele>
        <time>2016-07-25T19:07:56.000Z</time>
      </trkpt>
      <trkpt lat="48.79373" lon="2.42096">
        <ele>34</ele>
        <time>2016-07-25T19:08:00.000Z</time>
      </trkpt>
      <trkpt lat="48.79353" lon="2.42106">
        <ele>36.400001525879</ele>
        <time>2016-07-25T19:08:04.000Z</time>
      </trkpt>
      <trkpt lat="48.79332" lon="2.42117">
        <ele>37.400001525879</ele>
        <time>2016-07-25T19:08:08.000Z</time>
      </trkpt>
      <trkpt lat="48.7931" lon="2.42128">
        <ele>37.599998474121</ele>
        <time>2016-07-25T19:08:12.000Z</time>
      </trkpt>
      <trkpt lat="48.79288" lon="2.42136">
        <ele>35.400001525879</ele>
        <time>2016-07-25T19:08:16.000Z</time>
      </trkpt>
      <trkpt lat="48.79266" lon="2.42145">
        <ele>33.599998474121</ele>
        <time>2016-07-25T19:08:20.000Z</time>
      </trkpt>
      <trkpt lat="48.79244" lon="2.4215">
        <ele>33.400001525879</ele>
        <time>2016-07-25T19:08:24.000Z</time>
      </trkpt>
      <trkpt lat="48.79223" lon="2.42155">
        <ele>33.200000762939</ele>
        <time>2016-07-25T19:08:28.000Z</time>
      </trkpt>
      <trkpt lat="48.79203" lon="2.4216">
        <ele>33.200000762939</ele>
        <time>2016-07-25T19:08:32.000Z</time>
      </trkpt>
      <trkpt lat="48.79185" lon="2.4216">
        <ele>33.200000762939</ele>
        <time>2016-07-25T19:08:36.000Z</time>
      </trkpt>
      <trkpt lat="48.79167" lon="2.42166">
        <ele>32.799999237061</ele>
        <time>2016-07-25T19:08:40.000Z</time>
      </trkpt>
      <trkpt lat="48.7915" lon="2.42175">
        <ele>32.400001525879</ele>
        <time>2016-07-25T19:08:44.000Z</time>
      </trkpt>
      <trkpt lat="48.79131" lon="2.4218">
        <ele>32.200000762939</ele>
        <time>2016-07-25T19:08:49.000Z</time>
      </trkpt>
      <trkpt lat="48.79113" lon="2.42181">
        <ele>32</ele>
        <time>2016-07-25T19:08:54.000Z</time>
      </trkpt>
      <trkpt lat="48.79094" lon="2.4218">
        <ele>32</ele>
        <time>2016-07-25T19:09:00.000Z</time>
      </trkpt>
      <trkpt lat="48.79083" lon="2.42177">
        <ele>32</ele>
        <time>2016-07-25T19:09:03.000Z</time>
      </trkpt>
      <trkpt lat="48.79076" lon="2.42175">
        <ele>32</ele>
        <time>2016-07-25T19:09:05.000Z</time>
      </trkpt>
      <trkpt lat="48.79058" lon="2.4217">
        <ele>32</ele>
        <time>2016-07-25T19:09:10.000Z</time>
      </trkpt>
      <trkpt lat="48.79045" lon="2.42168">
        <ele>32</ele>
        <time>2016-07-25T19:09:14.000Z</time>
      </trkpt>
      <trkpt lat="48.79039" lon="2.42168">
        <ele>32</ele>
        <time>2016-07-25T19:09:17.000Z</time>
      </trkpt>
      <trkpt lat="48.79041" lon="2.4217">
        <ele>32</ele>
        <time>2016-07-25T19:11:08.000Z</time>
      </trkpt>
      <trkpt lat="48.79025" lon="2.4217">
        <ele>32</ele>
        <time>2016-07-25T19:11:35.000Z</time>
      </trkpt>
      <trkpt lat="48.79007" lon="2.42169">
        <ele>32</ele>
        <time>2016-07-25T19:11:40.000Z</time>
      </trkpt>
      <trkpt lat="48.78997" lon="2.42167">
        <ele>32.200000762939</ele>
        <time>2016-07-25T19:11:42.000Z</time>
      </trkpt>
      <trkpt lat="48.78978" lon="2.4216">
        <ele>32.599998474121</ele>
        <time>2016-07-25T19:11:46.000Z</time>
      </trkpt>
      <trkpt lat="48.78959" lon="2.42152">
        <ele>32.799999237061</ele>
        <time>2016-07-25T19:11:52.000Z</time>
      </trkpt>
      <trkpt lat="48.7894" lon="2.42145">
        <ele>33</ele>
        <time>2016-07-25T19:12:00.000Z</time>
      </trkpt>
      <trkpt lat="48.7893" lon="2.42143">
        <ele>32.799999237061</ele>
        <time>2016-07-25T19:12:05.000Z</time>
      </trkpt>
      <trkpt lat="48.78921" lon="2.42138">
        <ele>32.799999237061</ele>
        <time>2016-07-25T19:12:11.000Z</time>
      </trkpt>
      <trkpt lat="48.78909" lon="2.42129">
        <ele>32.599998474121</ele>
        <time>2016-07-25T19:12:58.000Z</time>
      </trkpt>
      <trkpt lat="48.78891" lon="2.42124">
        <ele>32.400001525879</ele>
        <time>2016-07-25T19:13:05.000Z</time>
      </trkpt>
      <trkpt lat="48.78873" lon="2.42117">
        <ele>32.200000762939</ele>
        <time>2016-07-25T19:13:10.000Z</time>
      </trkpt>
      <trkpt lat="48.78852" lon="2.42108">
        <ele>32</ele>
        <time>2016-07-25T19:13:15.000Z</time>
      </trkpt>
      <trkpt lat="48.78835" lon="2.42101">
        <ele>31.799999237061</ele>
        <time>2016-07-25T19:13:19.000Z</time>
      </trkpt>
      <trkpt lat="48.78816" lon="2.42093">
        <ele>31.60000038147</ele>
        <time>2016-07-25T19:13:23.000Z</time>
      </trkpt>
      <trkpt lat="48.78799" lon="2.42085">
        <ele>31.39999961853</ele>
        <time>2016-07-25T19:13:27.000Z</time>
      </trkpt>
      <trkpt lat="48.78779" lon="2.42075">
        <ele>31.200000762939</ele>
        <time>2016-07-25T19:13:32.000Z</time>
      </trkpt>
      <trkpt lat="48.78762" lon="2.42066">
        <ele>31.200000762939</ele>
        <time>2016-07-25T19:13:36.000Z</time>
      </trkpt>
      <trkpt lat="48.78744" lon="2.42054">
        <ele>31.39999961853</ele>
        <time>2016-07-25T19:13:40.000Z</time>
      </trkpt>
      <trkpt lat="48.78725" lon="2.42042">
        <ele>31.200000762939</ele>
        <time>2016-07-25T19:13:44.000Z</time>
      </trkpt>
      <trkpt lat="48.78705" lon="2.42029">
        <ele>31</ele>
        <time>2016-07-25T19:13:48.000Z</time>
      </trkpt>
      <trkpt lat="48.78685" lon="2.42017">
        <ele>31</ele>
        <time>2016-07-25T19:13:52.000Z</time>
      </trkpt>
      <trkpt lat="48.78665" lon="2.42008">
        <ele>31.799999237061</ele>
        <time>2016-07-25T19:13:56.000Z</time>
      </trkpt>
      <trkpt lat="48.78645" lon="2.41998">
        <ele>32.599998474121</ele>
        <time>2016-07-25T19:14:00.000Z</time>
      </trkpt>
      <trkpt lat="48.78626" lon="2.41987">
        <ele>33</ele>
        <time>2016-07-25T19:14:04.000Z</time>
      </trkpt>
      <trkpt lat="48.78607" lon="2.41975">
        <ele>33.599998474121</ele>
        <time>2016-07-25T19:14:08.000Z</time>
      </trkpt>
      <trkpt lat="48.78589" lon="2.41963">
        <ele>33.200000762939</ele>
        <time>2016-07-25T19:14:12.000Z</time>
      </trkpt>
      <trkpt lat="48.78572" lon="2.41954">
        <ele>33</ele>
        <time>2016-07-25T19:14:16.000Z</time>
      </trkpt>
      <trkpt lat="48.78561" lon="2.41946">
        <ele>32.599998474121</ele>
        <time>2016-07-25T19:14:18.000Z</time>
      </trkpt>
      <trkpt lat="48.78544" lon="2.41932">
        <ele>32.400001525879</ele>
        <time>2016-07-25T19:14:21.000Z</time>
      </trkpt>
      <trkpt lat="48.78524" lon="2.41919">
        <ele>32</ele>
        <time>2016-07-25T19:14:25.000Z</time>
      </trkpt>
      <trkpt lat="48.78503" lon="2.41907">
        <ele>32.200000762939</ele>
        <time>2016-07-25T19:14:29.000Z</time>
      </trkpt>
      <trkpt lat="48.78487" lon="2.41897">
        <ele>32.200000762939</ele>
        <time>2016-07-25T19:14:32.000Z</time>
      </trkpt>
      <trkpt lat="48.78466" lon="2.41882">
        <ele>32.200000762939</ele>
        <time>2016-07-25T19:14:36.000Z</time>
      </trkpt>
      <trkpt lat="48.78446" lon="2.41869">
        <ele>32.400001525879</ele>
        <time>2016-07-25T19:14:40.000Z</time>
      </trkpt>
      <trkpt lat="48.78426" lon="2.41856">
        <ele>32.599998474121</ele>
        <time>2016-07-25T19:14:44.000Z</time>
      </trkpt>
      <trkpt lat="48.78407" lon="2.41845">
        <ele>33</ele>
        <time>2016-07-25T19:14:48.000Z</time>
      </trkpt>
      <trkpt lat="48.78388" lon="2.41833">
        <ele>33.200000762939</ele>
        <time>2016-07-25T19:14:52.000Z</time>
      </trkpt>
      <trkpt lat="48.7837" lon="2.41821">
        <ele>33.599998474121</ele>
        <time>2016-07-25T19:14:56.000Z</time>
      </trkpt>
      <trkpt lat="48.78352" lon="2.41807">
        <ele>33.799999237061</ele>
        <time>2016-07-25T19:15:00.000Z</time>
      </trkpt>
      <trkpt lat="48.78348" lon="2.41804">
        <ele>33.799999237061</ele>
        <time>2016-07-25T19:15:01.000Z</time>
      </trkpt>
      <trkpt lat="48.7833" lon="2.41789">
        <ele>34</ele>
        <time>2016-07-25T19:15:06.000Z</time>
      </trkpt>
      <trkpt lat="48.78311" lon="2.41776">
        <ele>34.400001525879</ele>
        <time>2016-07-25T19:15:11.000Z</time>
      </trkpt>
      <trkpt lat="48.78294" lon="2.41765">
        <ele>34.599998474121</ele>
        <time>2016-07-25T19:15:15.000Z</time>
      </trkpt>
      <trkpt lat="48.78277" lon="2.41753">
        <ele>35</ele>
        <time>2016-07-25T19:15:19.000Z</time>
      </trkpt>
      <trkpt lat="48.78264" lon="2.41745">
        <ele>35</ele>
        <time>2016-07-25T19:15:22.000Z</time>
      </trkpt>
      <trkpt lat="48.78245" lon="2.41735">
        <ele>34.799999237061</ele>
        <time>2016-07-25T19:15:26.000Z</time>
      </trkpt>
      <trkpt lat="48.78225" lon="2.41721">
        <ele>34.599998474121</ele>
        <time>2016-07-25T19:15:30.000Z</time>
      </trkpt>
      <trkpt lat="48.78206" lon="2.41707">
        <ele>34.599998474121</ele>
        <time>2016-07-25T19:15:34.000Z</time>
      </trkpt>
      <trkpt lat="48.78188" lon="2.41694">
        <ele>34.400001525879</ele>
        <time>2016-07-25T19:15:38.000Z</time>
      </trkpt>
      <trkpt lat="48.78169" lon="2.4168">
        <ele>34</ele>
        <time>2016-07-25T19:15:42.000Z</time>
      </trkpt>
      <trkpt lat="48.78156" lon="2.41669">
        <ele>33.599998474121</ele>
        <time>2016-07-25T19:15:45.000Z</time>
      </trkpt>
      <trkpt lat="48.78149" lon="2.41663">
        <ele>33.599998474121</ele>
        <time>2016-07-25T19:15:47.000Z</time>
      </trkpt>
      <trkpt lat="48.7813" lon="2.4165">
        <ele>33.400001525879</ele>
        <time>2016-07-25T19:15:52.000Z</time>
      </trkpt>
      <trkpt lat="48.78123" lon="2.41646">
        <ele>33.400001525879</ele>
        <time>2016-07-25T19:15:54.000Z</time>
      </trkpt>
      <trkpt lat="48.78103" lon="2.41637">
        <ele>33.400001525879</ele>
        <time>2016-07-25T19:16:00.000Z</time>
      </trkpt>
      <trkpt lat="48.78084" lon="2.41623">
        <ele>33.799999237061</ele>
        <time>2016-07-25T19:16:04.000Z</time>
      </trkpt>
      <trkpt lat="48.78066" lon="2.4161">
        <ele>34.200000762939</ele>
        <time>2016-07-25T19:16:08.000Z</time>
      </trkpt>
      <trkpt lat="48.78061" lon="2.41606">
        <ele>34.200000762939</ele>
        <time>2016-07-25T19:16:09.000Z</time>
      </trkpt>
      <trkpt lat="48.78047" lon="2.41593">
        <ele>34.599998474121</ele>
        <time>2016-07-25T19:16:12.000Z</time>
      </trkpt>
      <trkpt lat="48.78027" lon="2.41577">
        <ele>35</ele>
        <time>2016-07-25T19:16:16.000Z</time>
      </trkpt>
      <trkpt lat="48.78008" lon="2.41564">
        <ele>35.400001525879</ele>
        <time>2016-07-25T19:16:20.000Z</time>
      </trkpt>
      <trkpt lat="48.77988" lon="2.41551">
        <ele>35.799999237061</ele>
        <time>2016-07-25T19:16:24.000Z</time>
      </trkpt>
      <trkpt lat="48.77968" lon="2.41537">
        <ele>36.200000762939</ele>
        <time>2016-07-25T19:16:28.000Z</time>
      </trkpt>
      <trkpt lat="48.77948" lon="2.41522">
        <ele>36.799999237061</ele>
        <time>2016-07-25T19:16:32.000Z</time>
      </trkpt>
      <trkpt lat="48.77943" lon="2.41519">
        <ele>36.799999237061</ele>
        <time>2016-07-25T19:16:33.000Z</time>
      </trkpt>
      <trkpt lat="48.77924" lon="2.41505">
        <ele>36.400001525879</ele>
        <time>2016-07-25T19:16:37.000Z</time>
      </trkpt>
      <trkpt lat="48.77904" lon="2.41487">
        <ele>35.599998474121</ele>
        <time>2016-07-25T19:16:41.000Z</time>
      </trkpt>
      <trkpt lat="48.77884" lon="2.41475">
        <ele>35</ele>
        <time>2016-07-25T19:16:45.000Z</time>
      </trkpt>
      <trkpt lat="48.77864" lon="2.41461">
        <ele>34.400001525879</ele>
        <time>2016-07-25T19:16:49.000Z</time>
      </trkpt>
      <trkpt lat="48.77844" lon="2.41449">
        <ele>33.799999237061</ele>
        <time>2016-07-25T19:16:53.000Z</time>
      </trkpt>
      <trkpt lat="48.77825" lon="2.4144">
        <ele>33.400001525879</ele>
        <time>2016-07-25T19:16:57.000Z</time>
      </trkpt>
      <trkpt lat="48.77808" lon="2.41426">
        <ele>33</ele>
        <time>2016-07-25T19:17:01.000Z</time>
      </trkpt>
      <trkpt lat="48.77791" lon="2.41413">
        <ele>32.799999237061</ele>
        <time>2016-07-25T19:17:05.000Z</time>
      </trkpt>
      <trkpt lat="48.77787" lon="2.41411">
        <ele>32.599998474121</ele>
        <time>2016-07-25T19:17:06.000Z</time>
      </trkpt>
      <trkpt lat="48.77771" lon="2.414">
        <ele>32.200000762939</ele>
        <time>2016-07-25T19:17:10.000Z</time>
      </trkpt>
      <trkpt lat="48.77755" lon="2.41387">
        <ele>32.400001525879</ele>
        <time>2016-07-25T19:17:14.000Z</time>
      </trkpt>
      <trkpt lat="48.77739" lon="2.41372">
        <ele>32.599998474121</ele>
        <time>2016-07-25T19:17:18.000Z</time>
      </trkpt>
      <trkpt lat="48.77723" lon="2.41354">
        <ele>32.799999237061</ele>
        <time>2016-07-25T19:17:22.000Z</time>
      </trkpt>
      <trkpt lat="48.77715" lon="2.41345">
        <ele>32.799999237061</ele>
        <time>2016-07-25T19:17:24.000Z</time>
      </trkpt>
      <trkpt lat="48.77703" lon="2.4133">
        <ele>33</ele>
        <time>2016-07-25T19:17:27.000Z</time>
      </trkpt>
      <trkpt lat="48.77685" lon="2.4131">
        <ele>33</ele>
        <time>2016-07-25T19:17:31.000Z</time>
      </trkpt>
      <trkpt lat="48.77668" lon="2.4129">
        <ele>32.799999237061</ele>
        <time>2016-07-25T19:17:35.000Z</time>
      </trkpt>
      <trkpt lat="48.77651" lon="2.4127">
        <ele>32.599998474121</ele>
        <time>2016-07-25T19:17:39.000Z</time>
      </trkpt>
      <trkpt lat="48.77633" lon="2.41249">
        <ele>32.400001525879</ele>
        <time>2016-07-25T19:17:43.000Z</time>
      </trkpt>
      <trkpt lat="48.77614" lon="2.4123">
        <ele>32.200000762939</ele>
        <time>2016-07-25T19:17:47.000Z</time>
      </trkpt>
      <trkpt lat="48.77595" lon="2.41212">
        <ele>32.400001525879</ele>
        <time>2016-07-25T19:17:51.000Z</time>
      </trkpt>
      <trkpt lat="48.77576" lon="2.41195">
        <ele>33.400001525879</ele>
        <time>2016-07-25T19:17:55.000Z</time>
      </trkpt>
      <trkpt lat="48.77563" lon="2.41181">
        <ele>34</ele>
        <time>2016-07-25T19:17:58.000Z</time>
      </trkpt>
      <trkpt lat="48.77545" lon="2.41166">
        <ele>34.799999237061</ele>
        <time>2016-07-25T19:18:02.000Z</time>
      </trkpt>
      <trkpt lat="48.77528" lon="2.41156">
        <ele>35.799999237061</ele>
        <time>2016-07-25T19:18:06.000Z</time>
      </trkpt>
      <trkpt lat="48.7751" lon="2.41141">
        <ele>36.400001525879</ele>
        <time>2016-07-25T19:18:10.000Z</time>
      </trkpt>
      <trkpt lat="48.77494" lon="2.41128">
        <ele>36.799999237061</ele>
        <time>2016-07-25T19:18:14.000Z</time>
      </trkpt>
      <trkpt lat="48.77476" lon="2.41115">
        <ele>37.200000762939</ele>
        <time>2016-07-25T19:18:19.000Z</time>
      </trkpt>
      <trkpt lat="48.7747" lon="2.4111">
        <ele>37.200000762939</ele>
        <time>2016-07-25T19:18:21.000Z</time>
      </trkpt>
      <trkpt lat="48.77456" lon="2.41102">
        <ele>37.599998474121</ele>
        <time>2016-07-25T19:18:25.000Z</time>
      </trkpt>
      <trkpt lat="48.7744" lon="2.41088">
        <ele>37.799999237061</ele>
        <time>2016-07-25T19:18:30.000Z</time>
      </trkpt>
      <trkpt lat="48.77424" lon="2.41084">
        <ele>37.400001525879</ele>
        <time>2016-07-25T19:18:35.000Z</time>
      </trkpt>
      <trkpt lat="48.77417" lon="2.4108">
        <ele>37.400001525879</ele>
        <time>2016-07-25T19:18:37.000Z</time>
      </trkpt>
      <trkpt lat="48.77403" lon="2.41071">
        <ele>37.200000762939</ele>
        <time>2016-07-25T19:18:42.000Z</time>
      </trkpt>
      <trkpt lat="48.77398" lon="2.41068">
        <ele>37</ele>
        <time>2016-07-25T19:18:45.000Z</time>
      </trkpt>
      <trkpt lat="48.77396" lon="2.41067">
        <ele>37</ele>
        <time>2016-07-25T19:18:47.000Z</time>
      </trkpt>
      <trkpt lat="48.77383" lon="2.41071">
        <ele>36.400001525879</ele>
        <time>2016-07-25T19:19:53.000Z</time>
      </trkpt>
      <trkpt lat="48.77366" lon="2.41062">
        <ele>36.200000762939</ele>
        <time>2016-07-25T19:19:58.000Z</time>
      </trkpt>
      <trkpt lat="48.77356" lon="2.41059">
        <ele>35.799999237061</ele>
        <time>2016-07-25T19:20:00.000Z</time>
      </trkpt>
      <trkpt lat="48.77336" lon="2.41055">
        <ele>35.599998474121</ele>
        <time>2016-07-25T19:20:03.000Z</time>
      </trkpt>
      <trkpt lat="48.77313" lon="2.41052">
        <ele>34.799999237061</ele>
        <time>2016-07-25T19:20:06.000Z</time>
      </trkpt>
      <trkpt lat="48.77288" lon="2.41055">
        <ele>33.400001525879</ele>
        <time>2016-07-25T19:20:09.000Z</time>
      </trkpt>
      <trkpt lat="48.77264" lon="2.41058">
        <ele>32.400001525879</ele>
        <time>2016-07-25T19:20:12.000Z</time>
      </trkpt>
      <trkpt lat="48.7724" lon="2.41062">
        <ele>32.200000762939</ele>
        <time>2016-07-25T19:20:15.000Z</time>
      </trkpt>
      <trkpt lat="48.77219" lon="2.41065">
        <ele>32.599998474121</ele>
        <time>2016-07-25T19:20:18.000Z</time>
      </trkpt>
      <trkpt lat="48.77198" lon="2.4107">
        <ele>33</ele>
        <time>2016-07-25T19:20:21.000Z</time>
      </trkpt>
      <trkpt lat="48.77174" lon="2.41068">
        <ele>33.200000762939</ele>
        <time>2016-07-25T19:20:25.000Z</time>
      </trkpt>
      <trkpt lat="48.77151" lon="2.41071">
        <ele>32.599998474121</ele>
        <time>2016-07-25T19:20:29.000Z</time>
      </trkpt>
      <trkpt lat="48.77128" lon="2.4107">
        <ele>32</ele>
        <time>2016-07-25T19:20:33.000Z</time>
      </trkpt>
      <trkpt lat="48.77107" lon="2.41068">
        <ele>31.60000038147</ele>
        <time>2016-07-25T19:20:37.000Z</time>
      </trkpt>
      <trkpt lat="48.77087" lon="2.4107">
        <ele>31.799999237061</ele>
        <time>2016-07-25T19:20:41.000Z</time>
      </trkpt>
      <trkpt lat="48.77068" lon="2.41073">
        <ele>32.200000762939</ele>
        <time>2016-07-25T19:20:45.000Z</time>
      </trkpt>
      <trkpt lat="48.77045" lon="2.41075">
        <ele>32.599998474121</ele>
        <time>2016-07-25T19:20:50.000Z</time>
      </trkpt>
      <trkpt lat="48.77028" lon="2.41075">
        <ele>33</ele>
        <time>2016-07-25T19:20:54.000Z</time>
      </trkpt>
      <trkpt lat="48.77007" lon="2.41077">
        <ele>33.599998474121</ele>
        <time>2016-07-25T19:21:00.000Z</time>
      </trkpt>
      <trkpt lat="48.76989" lon="2.41079">
        <ele>34.200000762939</ele>
        <time>2016-07-25T19:21:04.000Z</time>
      </trkpt>
      <trkpt lat="48.76966" lon="2.4108">
        <ele>35</ele>
        <time>2016-07-25T19:21:08.000Z</time>
      </trkpt>
      <trkpt lat="48.76948" lon="2.41081">
        <ele>35.599998474121</ele>
        <time>2016-07-25T19:21:11.000Z</time>
      </trkpt>
      <trkpt lat="48.76925" lon="2.41084">
        <ele>35.799999237061</ele>
        <time>2016-07-25T19:21:15.000Z</time>
      </trkpt>
      <trkpt lat="48.76905" lon="2.41086">
        <ele>35.799999237061</ele>
        <time>2016-07-25T19:21:19.000Z</time>
      </trkpt>
      <trkpt lat="48.76888" lon="2.41089">
        <ele>35.400001525879</ele>
        <time>2016-07-25T19:21:23.000Z</time>
      </trkpt>
      <trkpt lat="48.76866" lon="2.41094">
        <ele>35.200000762939</ele>
        <time>2016-07-25T19:21:28.000Z</time>
      </trkpt>
      <trkpt lat="48.76852" lon="2.41094">
        <ele>35.400001525879</ele>
        <time>2016-07-25T19:21:31.000Z</time>
      </trkpt>
      <trkpt lat="48.7683" lon="2.41095">
        <ele>35.599998474121</ele>
        <time>2016-07-25T19:21:35.000Z</time>
      </trkpt>
      <trkpt lat="48.7681" lon="2.41096">
        <ele>35.799999237061</ele>
        <time>2016-07-25T19:21:39.000Z</time>
      </trkpt>
      <trkpt lat="48.76789" lon="2.41099">
        <ele>36</ele>
        <time>2016-07-25T19:21:43.000Z</time>
      </trkpt>
      <trkpt lat="48.76768" lon="2.41101">
        <ele>37.599998474121</ele>
        <time>2016-07-25T19:21:47.000Z</time>
      </trkpt>
      <trkpt lat="48.76746" lon="2.41103">
        <ele>38.400001525879</ele>
        <time>2016-07-25T19:21:51.000Z</time>
      </trkpt>
      <trkpt lat="48.76725" lon="2.41106">
        <ele>39.200000762939</ele>
        <time>2016-07-25T19:21:55.000Z</time>
      </trkpt>
      <trkpt lat="48.76704" lon="2.41109">
        <ele>39</ele>
        <time>2016-07-25T19:21:59.000Z</time>
      </trkpt>
      <trkpt lat="48.76683" lon="2.41113">
        <ele>37.599998474121</ele>
        <time>2016-07-25T19:22:03.000Z</time>
      </trkpt>
      <trkpt lat="48.76663" lon="2.41118">
        <ele>36.799999237061</ele>
        <time>2016-07-25T19:22:07.000Z</time>
      </trkpt>
      <trkpt lat="48.76645" lon="2.41125">
        <ele>35.799999237061</ele>
        <time>2016-07-25T19:22:11.000Z</time>
      </trkpt>
      <trkpt lat="48.76636" lon="2.4113">
        <ele>35.400001525879</ele>
        <time>2016-07-25T19:22:13.000Z</time>
      </trkpt>
      <trkpt lat="48.76625" lon="2.41131">
        <ele>35</ele>
        <time>2016-07-25T19:22:16.000Z</time>
      </trkpt>
      <trkpt lat="48.76607" lon="2.41143">
        <ele>33.599998474121</ele>
        <time>2016-07-25T19:22:21.000Z</time>
      </trkpt>
      <trkpt lat="48.76601" lon="2.41145">
        <ele>33.400001525879</ele>
        <time>2016-07-25T19:22:24.000Z</time>
      </trkpt>
      <trkpt lat="48.76594" lon="2.41129">
        <ele>34.400001525879</ele>
        <time>2016-07-25T19:22:39.000Z</time>
      </trkpt>
      <trkpt lat="48.76591" lon="2.41128">
        <ele>34.400001525879</ele>
        <time>2016-07-25T19:22:43.000Z</time>
      </trkpt>
      <trkpt lat="48.76582" lon="2.41129">
        <ele>34</ele>
        <time>2016-07-25T19:22:47.000Z</time>
      </trkpt>
      <trkpt lat="48.76563" lon="2.41128">
        <ele>34</ele>
        <time>2016-07-25T19:22:54.000Z</time>
      </trkpt>
      <trkpt lat="48.76556" lon="2.41134">
        <ele>34.400001525879</ele>
        <time>2016-07-25T19:22:59.000Z</time>
      </trkpt>
      <trkpt lat="48.76575" lon="2.41131">
        <ele>33.799999237061</ele>
        <time>2016-07-25T19:23:05.000Z</time>
      </trkpt>
      <trkpt lat="48.76594" lon="2.41124">
        <ele>34.799999237061</ele>
        <time>2016-07-25T19:23:13.000Z</time>
      </trkpt>
      <trkpt lat="48.76596" lon="2.41124">
        <ele>34.799999237061</ele>
        <time>2016-07-25T19:23:15.000Z</time>
      </trkpt>
      <trkpt lat="48.76599" lon="2.41132">
        <ele>34.200000762939</ele>
        <time>2016-07-25T19:23:20.000Z</time>
      </trkpt>
      <trkpt lat="48.76603" lon="2.41151">
        <ele>33</ele>
        <time>2016-07-25T19:24:15.000Z</time>
      </trkpt>
      <trkpt lat="48.76609" lon="2.41178">
        <ele>32.200000762939</ele>
        <time>2016-07-25T19:24:22.000Z</time>
      </trkpt>
      <trkpt lat="48.76618" lon="2.41207">
        <ele>32.599998474121</ele>
        <time>2016-07-25T19:24:28.000Z</time>
      </trkpt>
      <trkpt lat="48.76624" lon="2.41234">
        <ele>33</ele>
        <time>2016-07-25T19:24:33.000Z</time>
      </trkpt>
      <trkpt lat="48.7663" lon="2.41259">
        <ele>33.200000762939</ele>
        <time>2016-07-25T19:24:38.000Z</time>
      </trkpt>
      <trkpt lat="48.76636" lon="2.41285">
        <ele>33.200000762939</ele>
        <time>2016-07-25T19:24:43.000Z</time>
      </trkpt>
      <trkpt lat="48.76642" lon="2.41314">
        <ele>33.599998474121</ele>
        <time>2016-07-25T19:24:50.000Z</time>
      </trkpt>
      <trkpt lat="48.76651" lon="2.41318">
        <ele>34</ele>
        <time>2016-07-25T19:25:57.000Z</time>
      </trkpt>
      <trkpt lat="48.7665" lon="2.4131">
        <ele>33.799999237061</ele>
        <time>2016-07-25T19:26:03.000Z</time>
      </trkpt>
      <trkpt lat="48.76656" lon="2.41315">
        <ele>34</ele>
        <time>2016-07-25T19:26:12.000Z</time>
      </trkpt>
      <trkpt lat="48.76664" lon="2.41342">
        <ele>34.200000762939</ele>
        <time>2016-07-25T19:26:18.000Z</time>
      </trkpt>
      <trkpt lat="48.76673" lon="2.41369">
        <ele>34.200000762939</ele>
        <time>2016-07-25T19:26:23.000Z</time>
      </trkpt>
      <trkpt lat="48.76681" lon="2.41396">
        <ele>34</ele>
        <time>2016-07-25T19:26:28.000Z</time>
      </trkpt>
      <trkpt lat="48.76687" lon="2.41426">
        <ele>34.200000762939</ele>
        <time>2016-07-25T19:26:32.000Z</time>
      </trkpt>
      <trkpt lat="48.76695" lon="2.41456">
        <ele>34.799999237061</ele>
        <time>2016-07-25T19:26:36.000Z</time>
      </trkpt>
      <trkpt lat="48.76705" lon="2.41487">
        <ele>35.400001525879</ele>
        <time>2016-07-25T19:26:40.000Z</time>
      </trkpt>
      <trkpt lat="48.76713" lon="2.41513">
        <ele>35.400001525879</ele>
        <time>2016-07-25T19:26:43.000Z</time>
      </trkpt>
      <trkpt lat="48.76721" lon="2.41542">
        <ele>35</ele>
        <time>2016-07-25T19:26:46.000Z</time>
      </trkpt>
      <trkpt lat="48.76731" lon="2.41574">
        <ele>34.599998474121</ele>
        <time>2016-07-25T19:26:49.000Z</time>
      </trkpt>
      <trkpt lat="48.76741" lon="2.41607">
        <ele>34.599998474121</ele>
        <time>2016-07-25T19:26:52.000Z</time>
      </trkpt>
      <trkpt lat="48.76751" lon="2.41642">
        <ele>35</ele>
        <time>2016-07-25T19:26:55.000Z</time>
      </trkpt>
      <trkpt lat="48.76762" lon="2.41676">
        <ele>34.799999237061</ele>
        <time>2016-07-25T19:26:58.000Z</time>
      </trkpt>
      <trkpt lat="48.76772" lon="2.41708">
        <ele>34.400001525879</ele>
        <time>2016-07-25T19:27:01.000Z</time>
      </trkpt>
      <trkpt lat="48.76781" lon="2.41738">
        <ele>34</ele>
        <time>2016-07-25T19:27:04.000Z</time>
      </trkpt>
      <trkpt lat="48.76789" lon="2.41766">
        <ele>34</ele>
        <time>2016-07-25T19:27:07.000Z</time>
      </trkpt>
      <trkpt lat="48.76798" lon="2.41795">
        <ele>34</ele>
        <time>2016-07-25T19:27:10.000Z</time>
      </trkpt>
      <trkpt lat="48.76807" lon="2.4182">
        <ele>34</ele>
        <time>2016-07-25T19:27:13.000Z</time>
      </trkpt>
      <trkpt lat="48.76814" lon="2.41845">
        <ele>33.799999237061</ele>
        <time>2016-07-25T19:27:16.000Z</time>
      </trkpt>
      <trkpt lat="48.76822" lon="2.41871">
        <ele>33.599998474121</ele>
        <time>2016-07-25T19:27:19.000Z</time>
      </trkpt>
      <trkpt lat="48.7683" lon="2.41896">
        <ele>33.200000762939</ele>
        <time>2016-07-25T19:27:22.000Z</time>
      </trkpt>
      <trkpt lat="48.76838" lon="2.41921">
        <ele>33.200000762939</ele>
        <time>2016-07-25T19:27:25.000Z</time>
      </trkpt>
      <trkpt lat="48.76845" lon="2.41948">
        <ele>32.799999237061</ele>
        <time>2016-07-25T19:27:28.000Z</time>
      </trkpt>
      <trkpt lat="48.76853" lon="2.41974">
        <ele>32.400001525879</ele>
        <time>2016-07-25T19:27:31.000Z</time>
      </trkpt>
      <trkpt lat="48.76862" lon="2.41999">
        <ele>32</ele>
        <time>2016-07-25T19:27:34.000Z</time>
      </trkpt>
      <trkpt lat="48.76869" lon="2.42026">
        <ele>32.200000762939</ele>
        <time>2016-07-25T19:27:37.000Z</time>
      </trkpt>
      <trkpt lat="48.76872" lon="2.42035">
        <ele>32.400001525879</ele>
        <time>2016-07-25T19:27:38.000Z</time>
      </trkpt>
      <trkpt lat="48.7688" lon="2.42063">
        <ele>33</ele>
        <time>2016-07-25T19:27:41.000Z</time>
      </trkpt>
      <trkpt lat="48.76886" lon="2.4209">
        <ele>33.400001525879</ele>
        <time>2016-07-25T19:27:44.000Z</time>
      </trkpt>
      <trkpt lat="48.76894" lon="2.42116">
        <ele>33.400001525879</ele>
        <time>2016-07-25T19:27:47.000Z</time>
      </trkpt>
      <trkpt lat="48.76902" lon="2.42142">
        <ele>33.400001525879</ele>
        <time>2016-07-25T19:27:50.000Z</time>
      </trkpt>
      <trkpt lat="48.76911" lon="2.42174">
        <ele>33.200000762939</ele>
        <time>2016-07-25T19:27:54.000Z</time>
      </trkpt>
      <trkpt lat="48.76918" lon="2.42201">
        <ele>32.799999237061</ele>
        <time>2016-07-25T19:27:58.000Z</time>
      </trkpt>
      <trkpt lat="48.76926" lon="2.42225">
        <ele>32.400001525879</ele>
        <time>2016-07-25T19:28:02.000Z</time>
      </trkpt>
      <trkpt lat="48.7693" lon="2.42238">
        <ele>32.200000762939</ele>
        <time>2016-07-25T19:28:04.000Z</time>
      </trkpt>
      <trkpt lat="48.76934" lon="2.42251">
        <ele>32</ele>
        <time>2016-07-25T19:28:06.000Z</time>
      </trkpt>
      <trkpt lat="48.7694" lon="2.42272">
        <ele>32</ele>
        <time>2016-07-25T19:28:09.000Z</time>
      </trkpt>
      <trkpt lat="48.76944" lon="2.42289">
        <ele>32</ele>
        <time>2016-07-25T19:28:11.000Z</time>
      </trkpt>
      <trkpt lat="48.76953" lon="2.42313">
        <ele>31.799999237061</ele>
        <time>2016-07-25T19:28:14.000Z</time>
      </trkpt>
      <trkpt lat="48.7696" lon="2.42341">
        <ele>31.799999237061</ele>
        <time>2016-07-25T19:28:17.000Z</time>
      </trkpt>
      <trkpt lat="48.76968" lon="2.42369">
        <ele>32.200000762939</ele>
        <time>2016-07-25T19:28:20.000Z</time>
      </trkpt>
      <trkpt lat="48.76976" lon="2.42398">
        <ele>32.599998474121</ele>
        <time>2016-07-25T19:28:23.000Z</time>
      </trkpt>
      <trkpt lat="48.76985" lon="2.42428">
        <ele>33.200000762939</ele>
        <time>2016-07-25T19:28:26.000Z</time>
      </trkpt>
      <trkpt lat="48.76994" lon="2.4246">
        <ele>33.799999237061</ele>
        <time>2016-07-25T19:28:29.000Z</time>
      </trkpt>
      <trkpt lat="48.77003" lon="2.4249">
        <ele>34.200000762939</ele>
        <time>2016-07-25T19:28:32.000Z</time>
      </trkpt>
      <trkpt lat="48.77012" lon="2.42521">
        <ele>33.799999237061</ele>
        <time>2016-07-25T19:28:35.000Z</time>
      </trkpt>
      <trkpt lat="48.77022" lon="2.42553">
        <ele>33.400001525879</ele>
        <time>2016-07-25T19:28:38.000Z</time>
      </trkpt>
      <trkpt lat="48.7703" lon="2.42574">
        <ele>33</ele>
        <time>2016-07-25T19:28:40.000Z</time>
      </trkpt>
      <trkpt lat="48.77037" lon="2.42604">
        <ele>33.599998474121</ele>
        <time>2016-07-25T19:28:43.000Z</time>
      </trkpt>
      <trkpt lat="48.77047" lon="2.42634">
        <ele>34.200000762939</ele>
        <time>2016-07-25T19:28:46.000Z</time>
      </trkpt>
      <trkpt lat="48.77056" lon="2.42665">
        <ele>35</ele>
        <time>2016-07-25T19:28:49.000Z</time>
      </trkpt>
      <trkpt lat="48.77066" lon="2.42698">
        <ele>34.599998474121</ele>
        <time>2016-07-25T19:28:52.000Z</time>
      </trkpt>
      <trkpt lat="48.77075" lon="2.42731">
        <ele>34.400001525879</ele>
        <time>2016-07-25T19:28:55.000Z</time>
      </trkpt>
      <trkpt lat="48.77083" lon="2.42762">
        <ele>34.599998474121</ele>
        <time>2016-07-25T19:28:58.000Z</time>
      </trkpt>
      <trkpt lat="48.77091" lon="2.42793">
        <ele>34.799999237061</ele>
        <time>2016-07-25T19:29:01.000Z</time>
      </trkpt>
      <trkpt lat="48.771" lon="2.42823">
        <ele>35</ele>
        <time>2016-07-25T19:29:04.000Z</time>
      </trkpt>
      <trkpt lat="48.77111" lon="2.42855">
        <ele>34.400001525879</ele>
        <time>2016-07-25T19:29:07.000Z</time>
      </trkpt>
      <trkpt lat="48.77121" lon="2.42887">
        <ele>33.200000762939</ele>
        <time>2016-07-25T19:29:10.000Z</time>
      </trkpt>
      <trkpt lat="48.77129" lon="2.42919">
        <ele>32.400001525879</ele>
        <time>2016-07-25T19:29:13.000Z</time>
      </trkpt>
      <trkpt lat="48.77139" lon="2.42951">
        <ele>32.599998474121</ele>
        <time>2016-07-25T19:29:16.000Z</time>
      </trkpt>
      <trkpt lat="48.77148" lon="2.42984">
        <ele>31.799999237061</ele>
        <time>2016-07-25T19:29:19.000Z</time>
      </trkpt>
      <trkpt lat="48.77159" lon="2.43019">
        <ele>32.400001525879</ele>
        <time>2016-07-25T19:29:22.000Z</time>
      </trkpt>
      <trkpt lat="48.77167" lon="2.43043">
        <ele>33.400001525879</ele>
        <time>2016-07-25T19:29:24.000Z</time>
      </trkpt>
      <trkpt lat="48.77179" lon="2.43079">
        <ele>34.599998474121</ele>
        <time>2016-07-25T19:29:27.000Z</time>
      </trkpt>
      <trkpt lat="48.77189" lon="2.43112">
        <ele>35</ele>
        <time>2016-07-25T19:29:30.000Z</time>
      </trkpt>
      <trkpt lat="48.772" lon="2.43143">
        <ele>34.799999237061</ele>
        <time>2016-07-25T19:29:33.000Z</time>
      </trkpt>
      <trkpt lat="48.7721" lon="2.43173">
        <ele>34.799999237061</ele>
        <time>2016-07-25T19:29:36.000Z</time>
      </trkpt>
      <trkpt lat="48.7722" lon="2.43204">
        <ele>34.599998474121</ele>
        <time>2016-07-25T19:29:39.000Z</time>
      </trkpt>
      <trkpt lat="48.7723" lon="2.43235">
        <ele>34.200000762939</ele>
        <time>2016-07-25T19:29:42.000Z</time>
      </trkpt>
      <trkpt lat="48.77241" lon="2.43266">
        <ele>33.400001525879</ele>
        <time>2016-07-25T19:29:45.000Z</time>
      </trkpt>
      <trkpt lat="48.77252" lon="2.43298">
        <ele>32.200000762939</ele>
        <time>2016-07-25T19:29:48.000Z</time>
      </trkpt>
      <trkpt lat="48.77258" lon="2.43326">
        <ele>31.39999961853</ele>
        <time>2016-07-25T19:29:51.000Z</time>
      </trkpt>
      <trkpt lat="48.77267" lon="2.43353">
        <ele>31.39999961853</ele>
        <time>2016-07-25T19:29:54.000Z</time>
      </trkpt>
      <trkpt lat="48.77276" lon="2.43381">
        <ele>31.799999237061</ele>
        <time>2016-07-25T19:29:57.000Z</time>
      </trkpt>
      <trkpt lat="48.77284" lon="2.43409">
        <ele>32.200000762939</ele>
        <time>2016-07-25T19:30:00.000Z</time>
      </trkpt>
      <trkpt lat="48.77291" lon="2.43437">
        <ele>32.799999237061</ele>
        <time>2016-07-25T19:30:03.000Z</time>
      </trkpt>
      <trkpt lat="48.77299" lon="2.43467">
        <ele>33.799999237061</ele>
        <time>2016-07-25T19:30:07.000Z</time>
      </trkpt>
      <trkpt lat="48.77307" lon="2.43495">
        <ele>34.799999237061</ele>
        <time>2016-07-25T19:30:11.000Z</time>
      </trkpt>
      <trkpt lat="48.77313" lon="2.43522">
        <ele>35.200000762939</ele>
        <time>2016-07-25T19:30:16.000Z</time>
      </trkpt>
      <trkpt lat="48.77313" lon="2.43526">
        <ele>35.400001525879</ele>
        <time>2016-07-25T19:30:18.000Z</time>
      </trkpt>
      <trkpt lat="48.77312" lon="2.43525">
        <ele>35.400001525879</ele>
        <time>2016-07-25T19:32:03.000Z</time>
      </trkpt>
      <trkpt lat="48.77321" lon="2.43548">
        <ele>35.599998474121</ele>
        <time>2016-07-25T19:32:34.000Z</time>
      </trkpt>
      <trkpt lat="48.77329" lon="2.43577">
        <ele>36</ele>
        <time>2016-07-25T19:32:40.000Z</time>
      </trkpt>
      <trkpt lat="48.77338" lon="2.43607">
        <ele>35.400001525879</ele>
        <time>2016-07-25T19:32:45.000Z</time>
      </trkpt>
      <trkpt lat="48.77346" lon="2.43635">
        <ele>34.799999237061</ele>
        <time>2016-07-25T19:32:49.000Z</time>
      </trkpt>
      <trkpt lat="48.77355" lon="2.43666">
        <ele>34</ele>
        <time>2016-07-25T19:32:53.000Z</time>
      </trkpt>
      <trkpt lat="48.77363" lon="2.43692">
        <ele>34.400001525879</ele>
        <time>2016-07-25T19:32:56.000Z</time>
      </trkpt>
      <trkpt lat="48.77372" lon="2.43721">
        <ele>34.799999237061</ele>
        <time>2016-07-25T19:32:59.000Z</time>
      </trkpt>
      <trkpt lat="48.77381" lon="2.4375">
        <ele>35.400001525879</ele>
        <time>2016-07-25T19:33:02.000Z</time>
      </trkpt>
      <trkpt lat="48.77389" lon="2.43781">
        <ele>35.799999237061</ele>
        <time>2016-07-25T19:33:05.000Z</time>
      </trkpt>
      <trkpt lat="48.77397" lon="2.43809">
        <ele>36.200000762939</ele>
        <time>2016-07-25T19:33:08.000Z</time>
      </trkpt>
      <trkpt lat="48.77405" lon="2.43834">
        <ele>36.599998474121</ele>
        <time>2016-07-25T19:33:11.000Z</time>
      </trkpt>
      <trkpt lat="48.77415" lon="2.43864">
        <ele>36.799999237061</ele>
        <time>2016-07-25T19:33:15.000Z</time>
      </trkpt>
      <trkpt lat="48.77427" lon="2.43891">
        <ele>36.799999237061</ele>
        <time>2016-07-25T19:33:19.000Z</time>
      </trkpt>
      <trkpt lat="48.77442" lon="2.43916">
        <ele>37</ele>
        <time>2016-07-25T19:33:23.000Z</time>
      </trkpt>
      <trkpt lat="48.77455" lon="2.43935">
        <ele>37</ele>
        <time>2016-07-25T19:33:26.000Z</time>
      </trkpt>
      <trkpt lat="48.7747" lon="2.43952">
        <ele>37</ele>
        <time>2016-07-25T19:33:29.000Z</time>
      </trkpt>
      <trkpt lat="48.77488" lon="2.43969">
        <ele>37</ele>
        <time>2016-07-25T19:33:32.000Z</time>
      </trkpt>
      <trkpt lat="48.77508" lon="2.43987">
        <ele>37</ele>
        <time>2016-07-25T19:33:35.000Z</time>
      </trkpt>
      <trkpt lat="48.7753" lon="2.44006">
        <ele>36.799999237061</ele>
        <time>2016-07-25T19:33:38.000Z</time>
      </trkpt>
      <trkpt lat="48.77552" lon="2.44025">
        <ele>36</ele>
        <time>2016-07-25T19:33:41.000Z</time>
      </trkpt>
      <trkpt lat="48.77576" lon="2.44045">
        <ele>35.200000762939</ele>
        <time>2016-07-25T19:33:44.000Z</time>
      </trkpt>
      <trkpt lat="48.77598" lon="2.44066">
        <ele>34.400001525879</ele>
        <time>2016-07-25T19:33:47.000Z</time>
      </trkpt>
      <trkpt lat="48.77614" lon="2.44081">
        <ele>34.400001525879</ele>
        <time>2016-07-25T19:33:49.000Z</time>
      </trkpt>
      <trkpt lat="48.7763" lon="2.44095">
        <ele>35.599998474121</ele>
        <time>2016-07-25T19:33:51.000Z</time>
      </trkpt>
      <trkpt lat="48.77646" lon="2.44109">
        <ele>36.599998474121</ele>
        <time>2016-07-25T19:33:53.000Z</time>
      </trkpt>
      <trkpt lat="48.77668" lon="2.4413">
        <ele>38.200000762939</ele>
        <time>2016-07-25T19:33:56.000Z</time>
      </trkpt>
      <trkpt lat="48.77689" lon="2.44149">
        <ele>39.599998474121</ele>
        <time>2016-07-25T19:33:59.000Z</time>
      </trkpt>
      <trkpt lat="48.77709" lon="2.44165">
        <ele>39.200000762939</ele>
        <time>2016-07-25T19:34:02.000Z</time>
      </trkpt>
      <trkpt lat="48.7773" lon="2.44183">
        <ele>39.200000762939</ele>
        <time>2016-07-25T19:34:05.000Z</time>
      </trkpt>
      <trkpt lat="48.77751" lon="2.442">
        <ele>39</ele>
        <time>2016-07-25T19:34:08.000Z</time>
      </trkpt>
      <trkpt lat="48.77772" lon="2.44217">
        <ele>38.799999237061</ele>
        <time>2016-07-25T19:34:11.000Z</time>
      </trkpt>
      <trkpt lat="48.77792" lon="2.44234">
        <ele>38.799999237061</ele>
        <time>2016-07-25T19:34:14.000Z</time>
      </trkpt>
      <trkpt lat="48.77808" lon="2.4425">
        <ele>38.799999237061</ele>
        <time>2016-07-25T19:34:17.000Z</time>
      </trkpt>
      <trkpt lat="48.77827" lon="2.44267">
        <ele>39.200000762939</ele>
        <time>2016-07-25T19:34:20.000Z</time>
      </trkpt>
      <trkpt lat="48.77848" lon="2.44282">
        <ele>39.599998474121</ele>
        <time>2016-07-25T19:34:23.000Z</time>
      </trkpt>
      <trkpt lat="48.77868" lon="2.44299">
        <ele>39.400001525879</ele>
        <time>2016-07-25T19:34:26.000Z</time>
      </trkpt>
      <trkpt lat="48.77887" lon="2.44316">
        <ele>39</ele>
        <time>2016-07-25T19:34:29.000Z</time>
      </trkpt>
      <trkpt lat="48.77907" lon="2.44333">
        <ele>38.599998474121</ele>
        <time>2016-07-25T19:34:32.000Z</time>
      </trkpt>
      <trkpt lat="48.77926" lon="2.44347">
        <ele>37.400001525879</ele>
        <time>2016-07-25T19:34:35.000Z</time>
      </trkpt>
      <trkpt lat="48.77945" lon="2.44361">
        <ele>36.200000762939</ele>
        <time>2016-07-25T19:34:38.000Z</time>
      </trkpt>
      <trkpt lat="48.77963" lon="2.44376">
        <ele>35.599998474121</ele>
        <time>2016-07-25T19:34:41.000Z</time>
      </trkpt>
      <trkpt lat="48.77979" lon="2.44391">
        <ele>35</ele>
        <time>2016-07-25T19:34:44.000Z</time>
      </trkpt>
      <trkpt lat="48.77995" lon="2.44404">
        <ele>34.400001525879</ele>
        <time>2016-07-25T19:34:47.000Z</time>
      </trkpt>
      <trkpt lat="48.78011" lon="2.44416">
        <ele>33.599998474121</ele>
        <time>2016-07-25T19:34:50.000Z</time>
      </trkpt>
      <trkpt lat="48.78028" lon="2.4443">
        <ele>33.200000762939</ele>
        <time>2016-07-25T19:34:53.000Z</time>
      </trkpt>
      <trkpt lat="48.78046" lon="2.44446">
        <ele>33.200000762939</ele>
        <time>2016-07-25T19:34:56.000Z</time>
      </trkpt>
      <trkpt lat="48.78065" lon="2.44463">
        <ele>33</ele>
        <time>2016-07-25T19:34:59.000Z</time>
      </trkpt>
      <trkpt lat="48.78083" lon="2.44479">
        <ele>33</ele>
        <time>2016-07-25T19:35:02.000Z</time>
      </trkpt>
      <trkpt lat="48.78103" lon="2.44495">
        <ele>33</ele>
        <time>2016-07-25T19:35:05.000Z</time>
      </trkpt>
      <trkpt lat="48.78122" lon="2.4451">
        <ele>33</ele>
        <time>2016-07-25T19:35:08.000Z</time>
      </trkpt>
      <trkpt lat="48.78141" lon="2.44526">
        <ele>33</ele>
        <time>2016-07-25T19:35:11.000Z</time>
      </trkpt>
      <trkpt lat="48.78147" lon="2.44531">
        <ele>33</ele>
        <time>2016-07-25T19:35:12.000Z</time>
      </trkpt>
      <trkpt lat="48.78165" lon="2.44548">
        <ele>33</ele>
        <time>2016-07-25T19:35:15.000Z</time>
      </trkpt>
      <trkpt lat="48.78185" lon="2.44564">
        <ele>33</ele>
        <time>2016-07-25T19:35:18.000Z</time>
      </trkpt>
      <trkpt lat="48.78204" lon="2.44581">
        <ele>34</ele>
        <time>2016-07-25T19:35:21.000Z</time>
      </trkpt>
      <trkpt lat="48.78223" lon="2.44597">
        <ele>34.799999237061</ele>
        <time>2016-07-25T19:35:24.000Z</time>
      </trkpt>
      <trkpt lat="48.78243" lon="2.44613">
        <ele>35.599998474121</ele>
        <time>2016-07-25T19:35:27.000Z</time>
      </trkpt>
      <trkpt lat="48.78262" lon="2.4463">
        <ele>36.200000762939</ele>
        <time>2016-07-25T19:35:30.000Z</time>
      </trkpt>
      <trkpt lat="48.78281" lon="2.44646">
        <ele>36.799999237061</ele>
        <time>2016-07-25T19:35:33.000Z</time>
      </trkpt>
      <trkpt lat="48.78299" lon="2.44662">
        <ele>37</ele>
        <time>2016-07-25T19:35:36.000Z</time>
      </trkpt>
      <trkpt lat="48.78319" lon="2.44677">
        <ele>37.200000762939</ele>
        <time>2016-07-25T19:35:39.000Z</time>
      </trkpt>
      <trkpt lat="48.78336" lon="2.44693">
        <ele>37</ele>
        <time>2016-07-25T19:35:42.000Z</time>
      </trkpt>
      <trkpt lat="48.78355" lon="2.44709">
        <ele>37</ele>
        <time>2016-07-25T19:35:45.000Z</time>
      </trkpt>
      <trkpt lat="48.78375" lon="2.44725">
        <ele>35.599998474121</ele>
        <time>2016-07-25T19:35:48.000Z</time>
      </trkpt>
      <trkpt lat="48.78392" lon="2.4474">
        <ele>34.599998474121</ele>
        <time>2016-07-25T19:35:51.000Z</time>
      </trkpt>
      <trkpt lat="48.78411" lon="2.4476">
        <ele>33.799999237061</ele>
        <time>2016-07-25T19:35:55.000Z</time>
      </trkpt>
      <trkpt lat="48.7843" lon="2.44778">
        <ele>33.799999237061</ele>
        <time>2016-07-25T19:35:59.000Z</time>
      </trkpt>
      <trkpt lat="48.78434" lon="2.44782">
        <ele>34</ele>
        <time>2016-07-25T19:36:00.000Z</time>
      </trkpt>
      <trkpt lat="48.78452" lon="2.44799">
        <ele>34.599998474121</ele>
        <time>2016-07-25T19:36:04.000Z</time>
      </trkpt>
      <trkpt lat="48.78471" lon="2.44817">
        <ele>35.400001525879</ele>
        <time>2016-07-25T19:36:08.000Z</time>
      </trkpt>
      <trkpt lat="48.78488" lon="2.44833">
        <ele>36.200000762939</ele>
        <time>2016-07-25T19:36:11.000Z</time>
      </trkpt>
      <trkpt lat="48.78506" lon="2.44849">
        <ele>36.200000762939</ele>
        <time>2016-07-25T19:36:14.000Z</time>
      </trkpt>
      <trkpt lat="48.78524" lon="2.44865">
        <ele>36.400001525879</ele>
        <time>2016-07-25T19:36:17.000Z</time>
      </trkpt>
      <trkpt lat="48.78543" lon="2.44882">
        <ele>37.400001525879</ele>
        <time>2016-07-25T19:36:20.000Z</time>
      </trkpt>
      <trkpt lat="48.78563" lon="2.44898">
        <ele>38.400001525879</ele>
        <time>2016-07-25T19:36:23.000Z</time>
      </trkpt>
      <trkpt lat="48.78584" lon="2.44917">
        <ele>39.599998474121</ele>
        <time>2016-07-25T19:36:26.000Z</time>
      </trkpt>
      <trkpt lat="48.78605" lon="2.44936">
        <ele>42.599998474121</ele>
        <time>2016-07-25T19:36:29.000Z</time>
      </trkpt>
      <trkpt lat="48.78626" lon="2.44953">
        <ele>41.599998474121</ele>
        <time>2016-07-25T19:36:32.000Z</time>
      </trkpt>
      <trkpt lat="48.78644" lon="2.4497">
        <ele>41</ele>
        <time>2016-07-25T19:36:35.000Z</time>
      </trkpt>
      <trkpt lat="48.78662" lon="2.44986">
        <ele>40.200000762939</ele>
        <time>2016-07-25T19:36:38.000Z</time>
      </trkpt>
      <trkpt lat="48.78678" lon="2.45001">
        <ele>39.200000762939</ele>
        <time>2016-07-25T19:36:41.000Z</time>
      </trkpt>
      <trkpt lat="48.78697" lon="2.45016">
        <ele>37.400001525879</ele>
        <time>2016-07-25T19:36:45.000Z</time>
      </trkpt>
      <trkpt lat="48.78716" lon="2.45032">
        <ele>37</ele>
        <time>2016-07-25T19:36:50.000Z</time>
      </trkpt>
      <trkpt lat="48.78732" lon="2.45047">
        <ele>36.799999237061</ele>
        <time>2016-07-25T19:36:55.000Z</time>
      </trkpt>
      <trkpt lat="48.78749" lon="2.45062">
        <ele>36.400001525879</ele>
        <time>2016-07-25T19:37:02.000Z</time>
      </trkpt>
      <trkpt lat="48.78755" lon="2.45066">
        <ele>36.400001525879</ele>
        <time>2016-07-25T19:37:05.000Z</time>
      </trkpt>
      <trkpt lat="48.78763" lon="2.45072">
        <ele>36.200000762939</ele>
        <time>2016-07-25T19:37:09.000Z</time>
      </trkpt>
      <trkpt lat="48.78765" lon="2.45073">
        <ele>36.200000762939</ele>
        <time>2016-07-25T19:37:12.000Z</time>
      </trkpt>
      <trkpt lat="48.78768" lon="2.45068">
        <ele>36.200000762939</ele>
        <time>2016-07-25T19:39:01.000Z</time>
      </trkpt>
      <trkpt lat="48.78782" lon="2.45089">
        <ele>36</ele>
        <time>2016-07-25T19:39:19.000Z</time>
      </trkpt>
      <trkpt lat="48.78798" lon="2.45103">
        <ele>36</ele>
        <time>2016-07-25T19:39:26.000Z</time>
      </trkpt>
      <trkpt lat="48.78815" lon="2.45117">
        <ele>36</ele>
        <time>2016-07-25T19:39:33.000Z</time>
      </trkpt>
      <trkpt lat="48.78833" lon="2.45129">
        <ele>36</ele>
        <time>2016-07-25T19:39:39.000Z</time>
      </trkpt>
      <trkpt lat="48.78851" lon="2.45145">
        <ele>36.200000762939</ele>
        <time>2016-07-25T19:39:44.000Z</time>
      </trkpt>
      <trkpt lat="48.78873" lon="2.45155">
        <ele>36.200000762939</ele>
        <time>2016-07-25T19:39:49.000Z</time>
      </trkpt>
      <trkpt lat="48.78891" lon="2.45174">
        <ele>36.599998474121</ele>
        <time>2016-07-25T19:39:53.000Z</time>
      </trkpt>
      <trkpt lat="48.78906" lon="2.45194">
        <ele>36.400001525879</ele>
        <time>2016-07-25T19:39:57.000Z</time>
      </trkpt>
      <trkpt lat="48.78924" lon="2.45211">
        <ele>36.200000762939</ele>
        <time>2016-07-25T19:40:01.000Z</time>
      </trkpt>
      <trkpt lat="48.78943" lon="2.45228">
        <ele>36</ele>
        <time>2016-07-25T19:40:05.000Z</time>
      </trkpt>
      <trkpt lat="48.78957" lon="2.45238">
        <ele>36.200000762939</ele>
        <time>2016-07-25T19:40:08.000Z</time>
      </trkpt>
      <trkpt lat="48.78976" lon="2.45249">
        <ele>36.400001525879</ele>
        <time>2016-07-25T19:40:12.000Z</time>
      </trkpt>
      <trkpt lat="48.78993" lon="2.45258">
        <ele>36.599998474121</ele>
        <time>2016-07-25T19:40:16.000Z</time>
      </trkpt>
      <trkpt lat="48.79013" lon="2.4527">
        <ele>36.599998474121</ele>
        <time>2016-07-25T19:40:21.000Z</time>
      </trkpt>
      <trkpt lat="48.79029" lon="2.45285">
        <ele>36.599998474121</ele>
        <time>2016-07-25T19:40:26.000Z</time>
      </trkpt>
      <trkpt lat="48.79034" lon="2.45294">
        <ele>36.599998474121</ele>
        <time>2016-07-25T19:40:29.000Z</time>
      </trkpt>
      <trkpt lat="48.79038" lon="2.45302">
        <ele>36.599998474121</ele>
        <time>2016-07-25T19:40:31.000Z</time>
      </trkpt>
      <trkpt lat="48.79043" lon="2.45309">
        <ele>36.599998474121</ele>
        <time>2016-07-25T19:40:33.000Z</time>
      </trkpt>
      <trkpt lat="48.79053" lon="2.45326">
        <ele>36.400001525879</ele>
        <time>2016-07-25T19:40:38.000Z</time>
      </trkpt>
      <trkpt lat="48.79055" lon="2.45353">
        <ele>36</ele>
        <time>2016-07-25T19:40:46.000Z</time>
      </trkpt>
      <trkpt lat="48.79067" lon="2.45378">
        <ele>35.400001525879</ele>
        <time>2016-07-25T19:40:52.000Z</time>
      </trkpt>
      <trkpt lat="48.79076" lon="2.45404">
        <ele>35.400001525879</ele>
        <time>2016-07-25T19:40:57.000Z</time>
      </trkpt>
      <trkpt lat="48.79081" lon="2.45433">
        <ele>35.200000762939</ele>
        <time>2016-07-25T19:41:02.000Z</time>
      </trkpt>
      <trkpt lat="48.79089" lon="2.45459">
        <ele>35.200000762939</ele>
        <time>2016-07-25T19:41:06.000Z</time>
      </trkpt>
      <trkpt lat="48.79098" lon="2.45486">
        <ele>35</ele>
        <time>2016-07-25T19:41:10.000Z</time>
      </trkpt>
      <trkpt lat="48.79109" lon="2.4551">
        <ele>35.400001525879</ele>
        <time>2016-07-25T19:41:13.000Z</time>
      </trkpt>
      <trkpt lat="48.79117" lon="2.45528">
        <ele>36.200000762939</ele>
        <time>2016-07-25T19:41:15.000Z</time>
      </trkpt>
      <trkpt lat="48.7913" lon="2.45557">
        <ele>37.400001525879</ele>
        <time>2016-07-25T19:41:18.000Z</time>
      </trkpt>
      <trkpt lat="48.79143" lon="2.45583">
        <ele>38.599998474121</ele>
        <time>2016-07-25T19:41:21.000Z</time>
      </trkpt>
      <trkpt lat="48.79154" lon="2.4561">
        <ele>38</ele>
        <time>2016-07-25T19:41:24.000Z</time>
      </trkpt>
      <trkpt lat="48.79164" lon="2.45637">
        <ele>37.599998474121</ele>
        <time>2016-07-25T19:41:27.000Z</time>
      </trkpt>
      <trkpt lat="48.79172" lon="2.45663">
        <ele>37.799999237061</ele>
        <time>2016-07-25T19:41:30.000Z</time>
      </trkpt>
      <trkpt lat="48.7918" lon="2.4569">
        <ele>37.599998474121</ele>
        <time>2016-07-25T19:41:33.000Z</time>
      </trkpt>
      <trkpt lat="48.7919" lon="2.45713">
        <ele>37.599998474121</ele>
        <time>2016-07-25T19:41:36.000Z</time>
      </trkpt>
      <trkpt lat="48.79204" lon="2.45734">
        <ele>37.799999237061</ele>
        <time>2016-07-25T19:41:40.000Z</time>
      </trkpt>
      <trkpt lat="48.79209" lon="2.45744">
        <ele>38</ele>
        <time>2016-07-25T19:41:42.000Z</time>
      </trkpt>
      <trkpt lat="48.79221" lon="2.45774">
        <ele>38.799999237061</ele>
        <time>2016-07-25T19:41:47.000Z</time>
      </trkpt>
      <trkpt lat="48.7923" lon="2.458">
        <ele>39.599998474121</ele>
        <time>2016-07-25T19:41:51.000Z</time>
      </trkpt>
      <trkpt lat="48.79239" lon="2.4583">
        <ele>40.200000762939</ele>
        <time>2016-07-25T19:41:56.000Z</time>
      </trkpt>
      <trkpt lat="48.7925" lon="2.45859">
        <ele>41.200000762939</ele>
        <time>2016-07-25T19:42:01.000Z</time>
      </trkpt>
      <trkpt lat="48.7926" lon="2.45888">
        <ele>42</ele>
        <time>2016-07-25T19:42:06.000Z</time>
      </trkpt>
      <trkpt lat="48.79271" lon="2.45917">
        <ele>43</ele>
        <time>2016-07-25T19:42:11.000Z</time>
      </trkpt>
      <trkpt lat="48.79277" lon="2.45934">
        <ele>43.400001525879</ele>
        <time>2016-07-25T19:42:14.000Z</time>
      </trkpt>
      <trkpt lat="48.79288" lon="2.45959">
        <ele>44</ele>
        <time>2016-07-25T19:42:18.000Z</time>
      </trkpt>
      <trkpt lat="48.79294" lon="2.45974">
        <ele>44.200000762939</ele>
        <time>2016-07-25T19:42:20.000Z</time>
      </trkpt>
      <trkpt lat="48.79305" lon="2.46004">
        <ele>44.799999237061</ele>
        <time>2016-07-25T19:42:24.000Z</time>
      </trkpt>
      <trkpt lat="48.79311" lon="2.4602">
        <ele>45</ele>
        <time>2016-07-25T19:42:26.000Z</time>
      </trkpt>
      <trkpt lat="48.79321" lon="2.46047">
        <ele>45.200000762939</ele>
        <time>2016-07-25T19:42:30.000Z</time>
      </trkpt>
      <trkpt lat="48.79325" lon="2.46056">
        <ele>45.200000762939</ele>
        <time>2016-07-25T19:42:32.000Z</time>
      </trkpt>
      <trkpt lat="48.79334" lon="2.46081">
        <ele>45.599998474121</ele>
        <time>2016-07-25T19:42:38.000Z</time>
      </trkpt>
      <trkpt lat="48.79338" lon="2.46101">
        <ele>46.200000762939</ele>
        <time>2016-07-25T19:43:05.000Z</time>
      </trkpt>
      <trkpt lat="48.79352" lon="2.4612">
        <ele>47.200000762939</ele>
        <time>2016-07-25T19:43:44.000Z</time>
      </trkpt>
      <trkpt lat="48.79366" lon="2.46138">
        <ele>48</ele>
        <time>2016-07-25T19:43:50.000Z</time>
      </trkpt>
      <trkpt lat="48.7938" lon="2.46156">
        <ele>48.599998474121</ele>
        <time>2016-07-25T19:43:55.000Z</time>
      </trkpt>
      <trkpt lat="48.79396" lon="2.4617">
        <ele>49</ele>
        <time>2016-07-25T19:44:00.000Z</time>
      </trkpt>
      <trkpt lat="48.79414" lon="2.46184">
        <ele>49.200000762939</ele>
        <time>2016-07-25T19:44:05.000Z</time>
      </trkpt>
      <trkpt lat="48.79432" lon="2.46198">
        <ele>49.400001525879</ele>
        <time>2016-07-25T19:44:10.000Z</time>
      </trkpt>
      <trkpt lat="48.79449" lon="2.46211">
        <ele>49.400001525879</ele>
        <time>2016-07-25T19:44:15.000Z</time>
      </trkpt>
      <trkpt lat="48.79468" lon="2.46226">
        <ele>49.400001525879</ele>
        <time>2016-07-25T19:44:20.000Z</time>
      </trkpt>
      <trkpt lat="48.79487" lon="2.46242">
        <ele>49.400001525879</ele>
        <time>2016-07-25T19:44:25.000Z</time>
      </trkpt>
      <trkpt lat="48.79506" lon="2.4626">
        <ele>49.400001525879</ele>
        <time>2016-07-25T19:44:30.000Z</time>
      </trkpt>
      <trkpt lat="48.79524" lon="2.46275">
        <ele>49.400001525879</ele>
        <time>2016-07-25T19:44:34.000Z</time>
      </trkpt>
      <trkpt lat="48.79541" lon="2.46289">
        <ele>49.400001525879</ele>
        <time>2016-07-25T19:44:38.000Z</time>
      </trkpt>
      <trkpt lat="48.79559" lon="2.46308">
        <ele>49.599998474121</ele>
        <time>2016-07-25T19:44:43.000Z</time>
      </trkpt>
      <trkpt lat="48.79575" lon="2.46322">
        <ele>49.799999237061</ele>
        <time>2016-07-25T19:44:47.000Z</time>
      </trkpt>
      <trkpt lat="48.79585" lon="2.46334">
        <ele>50</ele>
        <time>2016-07-25T19:44:51.000Z</time>
      </trkpt>
      <trkpt lat="48.79589" lon="2.46339">
        <ele>50</ele>
        <time>2016-07-25T19:44:53.000Z</time>
      </trkpt>
      <trkpt lat="48.79601" lon="2.46346">
        <ele>49.799999237061</ele>
        <time>2016-07-25T19:44:58.000Z</time>
      </trkpt>
      <trkpt lat="48.79618" lon="2.46353">
        <ele>49.799999237061</ele>
        <time>2016-07-25T19:45:04.000Z</time>
      </trkpt>
      <trkpt lat="48.79637" lon="2.46362">
        <ele>49.599998474121</ele>
        <time>2016-07-25T19:45:10.000Z</time>
      </trkpt>
      <trkpt lat="48.79655" lon="2.46369">
        <ele>49.400001525879</ele>
        <time>2016-07-25T19:45:15.000Z</time>
      </trkpt>
      <trkpt lat="48.79675" lon="2.46379">
        <ele>49.200000762939</ele>
        <time>2016-07-25T19:45:22.000Z</time>
      </trkpt>
      <trkpt lat="48.79694" lon="2.46388">
        <ele>48.799999237061</ele>
        <time>2016-07-25T19:45:28.000Z</time>
      </trkpt>
      <trkpt lat="48.79713" lon="2.46398">
        <ele>48.200000762939</ele>
        <time>2016-07-25T19:45:34.000Z</time>
      </trkpt>
      <trkpt lat="48.79731" lon="2.46411">
        <ele>47.400001525879</ele>
        <time>2016-07-25T19:45:39.000Z</time>
      </trkpt>
      <trkpt lat="48.79747" lon="2.46428">
        <ele>46.799999237061</ele>
        <time>2016-07-25T19:45:44.000Z</time>
      </trkpt>
      <trkpt lat="48.79765" lon="2.46445">
        <ele>45.799999237061</ele>
        <time>2016-07-25T19:45:49.000Z</time>
      </trkpt>
      <trkpt lat="48.79784" lon="2.46461">
        <ele>44.799999237061</ele>
        <time>2016-07-25T19:45:54.000Z</time>
      </trkpt>
      <trkpt lat="48.79801" lon="2.46475">
        <ele>43.599998474121</ele>
        <time>2016-07-25T19:45:59.000Z</time>
      </trkpt>
      <trkpt lat="48.79817" lon="2.46489">
        <ele>42.400001525879</ele>
        <time>2016-07-25T19:46:03.000Z</time>
      </trkpt>
      <trkpt lat="48.79835" lon="2.46502">
        <ele>41.200000762939</ele>
        <time>2016-07-25T19:46:07.000Z</time>
      </trkpt>
      <trkpt lat="48.79851" lon="2.46517">
        <ele>39.799999237061</ele>
        <time>2016-07-25T19:46:11.000Z</time>
      </trkpt>
      <trkpt lat="48.79868" lon="2.46533">
        <ele>39.200000762939</ele>
        <time>2016-07-25T19:46:15.000Z</time>
      </trkpt>
      <trkpt lat="48.79883" lon="2.46551">
        <ele>38.799999237061</ele>
        <time>2016-07-25T19:46:19.000Z</time>
      </trkpt>
      <trkpt lat="48.79885" lon="2.46555">
        <ele>38.599998474121</ele>
        <time>2016-07-25T19:46:20.000Z</time>
      </trkpt>
      <trkpt lat="48.79894" lon="2.46574">
        <ele>38.200000762939</ele>
        <time>2016-07-25T19:46:24.000Z</time>
      </trkpt>
      <trkpt lat="48.79908" lon="2.46598">
        <ele>37.400001525879</ele>
        <time>2016-07-25T19:46:29.000Z</time>
      </trkpt>
      <trkpt lat="48.79914" lon="2.4661">
        <ele>37</ele>
        <time>2016-07-25T19:46:31.000Z</time>
      </trkpt>
      <trkpt lat="48.79919" lon="2.46627">
        <ele>36.400001525879</ele>
        <time>2016-07-25T19:46:34.000Z</time>
      </trkpt>
      <trkpt lat="48.79925" lon="2.46647">
        <ele>35.599998474121</ele>
        <time>2016-07-25T19:46:39.000Z</time>
      </trkpt>
      <trkpt lat="48.79933" lon="2.46665">
        <ele>35</ele>
        <time>2016-07-25T19:46:45.000Z</time>
      </trkpt>
      <trkpt lat="48.79936" lon="2.46691">
        <ele>34</ele>
        <time>2016-07-25T19:46:51.000Z</time>
      </trkpt>
      <trkpt lat="48.79941" lon="2.46723">
        <ele>33</ele>
        <time>2016-07-25T19:46:57.000Z</time>
      </trkpt>
      <trkpt lat="48.79943" lon="2.46751">
        <ele>32.200000762939</ele>
        <time>2016-07-25T19:47:02.000Z</time>
      </trkpt>
      <trkpt lat="48.79947" lon="2.46782">
        <ele>32.599998474121</ele>
        <time>2016-07-25T19:47:07.000Z</time>
      </trkpt>
      <trkpt lat="48.79951" lon="2.46813">
        <ele>33.200000762939</ele>
        <time>2016-07-25T19:47:12.000Z</time>
      </trkpt>
      <trkpt lat="48.79955" lon="2.4684">
        <ele>33.400001525879</ele>
        <time>2016-07-25T19:47:16.000Z</time>
      </trkpt>
      <trkpt lat="48.79958" lon="2.46872">
        <ele>32.799999237061</ele>
        <time>2016-07-25T19:47:21.000Z</time>
      </trkpt>
      <trkpt lat="48.79961" lon="2.46903">
        <ele>32.400001525879</ele>
        <time>2016-07-25T19:47:27.000Z</time>
      </trkpt>
      <trkpt lat="48.79963" lon="2.46935">
        <ele>32.200000762939</ele>
        <time>2016-07-25T19:47:33.000Z</time>
      </trkpt>
      <trkpt lat="48.79966" lon="2.46965">
        <ele>31.60000038147</ele>
        <time>2016-07-25T19:47:39.000Z</time>
      </trkpt>
      <trkpt lat="48.79971" lon="2.46996">
        <ele>30.60000038147</ele>
        <time>2016-07-25T19:47:45.000Z</time>
      </trkpt>
      <trkpt lat="48.79974" lon="2.47027">
        <ele>31.799999237061</ele>
        <time>2016-07-25T19:47:51.000Z</time>
      </trkpt>
      <trkpt lat="48.79978" lon="2.47055">
        <ele>32.400001525879</ele>
        <time>2016-07-25T19:47:57.000Z</time>
      </trkpt>
      <trkpt lat="48.79982" lon="2.47084">
        <ele>32.599998474121</ele>
        <time>2016-07-25T19:48:06.000Z</time>
      </trkpt>
      <trkpt lat="48.79982" lon="2.47089">
        <ele>32.799999237061</ele>
        <time>2016-07-25T19:48:09.000Z</time>
      </trkpt>
      <trkpt lat="48.79982" lon="2.47112">
        <ele>32.599998474121</ele>
        <time>2016-07-25T19:48:40.000Z</time>
      </trkpt>
      <trkpt lat="48.79978" lon="2.47136">
        <ele>33.200000762939</ele>
        <time>2016-07-25T19:48:44.000Z</time>
      </trkpt>
      <trkpt lat="48.79969" lon="2.4716">
        <ele>34.400001525879</ele>
        <time>2016-07-25T19:48:48.000Z</time>
      </trkpt>
      <trkpt lat="48.79956" lon="2.47184">
        <ele>34.799999237061</ele>
        <time>2016-07-25T19:48:53.000Z</time>
      </trkpt>
      <trkpt lat="48.79939" lon="2.47198">
        <ele>35.599998474121</ele>
        <time>2016-07-25T19:48:59.000Z</time>
      </trkpt>
      <trkpt lat="48.79926" lon="2.4718">
        <ele>34.599998474121</ele>
        <time>2016-07-25T19:49:03.000Z</time>
      </trkpt>
      <trkpt lat="48.79922" lon="2.47168">
        <ele>34</ele>
        <time>2016-07-25T19:49:05.000Z</time>
      </trkpt>
      <trkpt lat="48.79913" lon="2.47141">
        <ele>33</ele>
        <time>2016-07-25T19:49:10.000Z</time>
      </trkpt>
      <trkpt lat="48.79897" lon="2.47126">
        <ele>32.599998474121</ele>
        <time>2016-07-25T19:49:15.000Z</time>
      </trkpt>
      <trkpt lat="48.79876" lon="2.47123">
        <ele>32.400001525879</ele>
        <time>2016-07-25T19:49:21.000Z</time>
      </trkpt>
      <trkpt lat="48.79858" lon="2.47125">
        <ele>32.599998474121</ele>
        <time>2016-07-25T19:49:26.000Z</time>
      </trkpt>
      <trkpt lat="48.79837" lon="2.47126">
        <ele>32.400001525879</ele>
        <time>2016-07-25T19:49:31.000Z</time>
      </trkpt>
      <trkpt lat="48.79819" lon="2.47128">
        <ele>32.200000762939</ele>
        <time>2016-07-25T19:49:36.000Z</time>
      </trkpt>
      <trkpt lat="48.79797" lon="2.47134">
        <ele>32.200000762939</ele>
        <time>2016-07-25T19:49:41.000Z</time>
      </trkpt>
      <trkpt lat="48.79779" lon="2.47136">
        <ele>32</ele>
        <time>2016-07-25T19:49:45.000Z</time>
      </trkpt>
      <trkpt lat="48.79759" lon="2.47138">
        <ele>32.200000762939</ele>
        <time>2016-07-25T19:49:50.000Z</time>
      </trkpt>
      <trkpt lat="48.79754" lon="2.47138">
        <ele>32.200000762939</ele>
        <time>2016-07-25T19:49:51.000Z</time>
      </trkpt>
      <trkpt lat="48.79738" lon="2.47142">
        <ele>32.400001525879</ele>
        <time>2016-07-25T19:49:55.000Z</time>
      </trkpt>
      <trkpt lat="48.79719" lon="2.47144">
        <ele>32.200000762939</ele>
        <time>2016-07-25T19:50:00.000Z</time>
      </trkpt>
      <trkpt lat="48.79711" lon="2.47146">
        <ele>32</ele>
        <time>2016-07-25T19:50:02.000Z</time>
      </trkpt>
      <trkpt lat="48.7969" lon="2.47152">
        <ele>31.799999237061</ele>
        <time>2016-07-25T19:50:07.000Z</time>
      </trkpt>
      <trkpt lat="48.79669" lon="2.47158">
        <ele>31.60000038147</ele>
        <time>2016-07-25T19:50:12.000Z</time>
      </trkpt>
      <trkpt lat="48.79647" lon="2.47162">
        <ele>31</ele>
        <time>2016-07-25T19:50:17.000Z</time>
      </trkpt>
      <trkpt lat="48.79635" lon="2.47166">
        <ele>30.799999237061</ele>
        <time>2016-07-25T19:50:20.000Z</time>
      </trkpt>
      <trkpt lat="48.79626" lon="2.47168">
        <ele>30.60000038147</ele>
        <time>2016-07-25T19:50:22.000Z</time>
      </trkpt>
      <trkpt lat="48.79605" lon="2.47174">
        <ele>30.200000762939</ele>
        <time>2016-07-25T19:50:27.000Z</time>
      </trkpt>
      <trkpt lat="48.79589" lon="2.47181">
        <ele>31</ele>
        <time>2016-07-25T19:50:31.000Z</time>
      </trkpt>
      <trkpt lat="48.79576" lon="2.47183">
        <ele>31.39999961853</ele>
        <time>2016-07-25T19:50:34.000Z</time>
      </trkpt>
      <trkpt lat="48.79554" lon="2.47189">
        <ele>32</ele>
        <time>2016-07-25T19:50:39.000Z</time>
      </trkpt>
      <trkpt lat="48.79533" lon="2.47196">
        <ele>32.599998474121</ele>
        <time>2016-07-25T19:50:44.000Z</time>
      </trkpt>
      <trkpt lat="48.79513" lon="2.47202">
        <ele>33.200000762939</ele>
        <time>2016-07-25T19:50:49.000Z</time>
      </trkpt>
      <trkpt lat="48.79501" lon="2.47207">
        <ele>33.799999237061</ele>
        <time>2016-07-25T19:50:52.000Z</time>
      </trkpt>
      <trkpt lat="48.7948" lon="2.47214">
        <ele>34.400001525879</ele>
        <time>2016-07-25T19:50:57.000Z</time>
      </trkpt>
      <trkpt lat="48.7946" lon="2.4722">
        <ele>34</ele>
        <time>2016-07-25T19:51:01.000Z</time>
      </trkpt>
      <trkpt lat="48.79455" lon="2.47221">
        <ele>33.799999237061</ele>
        <time>2016-07-25T19:51:02.000Z</time>
      </trkpt>
      <trkpt lat="48.79446" lon="2.47223">
        <ele>33.799999237061</ele>
        <time>2016-07-25T19:51:04.000Z</time>
      </trkpt>
      <trkpt lat="48.79439" lon="2.47227">
        <ele>33.599998474121</ele>
        <time>2016-07-25T19:51:06.000Z</time>
      </trkpt>
      <trkpt lat="48.79421" lon="2.47235">
        <ele>33</ele>
        <time>2016-07-25T19:51:11.000Z</time>
      </trkpt>
      <trkpt lat="48.79402" lon="2.47242">
        <ele>33</ele>
        <time>2016-07-25T19:51:16.000Z</time>
      </trkpt>
      <trkpt lat="48.7939" lon="2.47246">
        <ele>33</ele>
        <time>2016-07-25T19:51:19.000Z</time>
      </trkpt>
      <trkpt lat="48.79369" lon="2.4725">
        <ele>33</ele>
        <time>2016-07-25T19:51:24.000Z</time>
      </trkpt>
      <trkpt lat="48.79349" lon="2.4725">
        <ele>33</ele>
        <time>2016-07-25T19:51:29.000Z</time>
      </trkpt>
      <trkpt lat="48.79332" lon="2.47249">
        <ele>33</ele>
        <time>2016-07-25T19:51:33.000Z</time>
      </trkpt>
      <trkpt lat="48.79324" lon="2.47248">
        <ele>33</ele>
        <time>2016-07-25T19:51:35.000Z</time>
      </trkpt>
      <trkpt lat="48.79303" lon="2.47245">
        <ele>32.799999237061</ele>
        <time>2016-07-25T19:51:41.000Z</time>
      </trkpt>
      <trkpt lat="48.79298" lon="2.47244">
        <ele>32.799999237061</ele>
        <time>2016-07-25T19:51:42.000Z</time>
      </trkpt>
      <trkpt lat="48.7928" lon="2.47243">
        <ele>32.799999237061</ele>
        <time>2016-07-25T19:51:46.000Z</time>
      </trkpt>
      <trkpt lat="48.79258" lon="2.47241">
        <ele>32.799999237061</ele>
        <time>2016-07-25T19:51:51.000Z</time>
      </trkpt>
      <trkpt lat="48.79245" lon="2.47241">
        <ele>33</ele>
        <time>2016-07-25T19:51:54.000Z</time>
      </trkpt>
      <trkpt lat="48.79227" lon="2.47242">
        <ele>33.200000762939</ele>
        <time>2016-07-25T19:51:58.000Z</time>
      </trkpt>
      <trkpt lat="48.79205" lon="2.47244">
        <ele>33.599998474121</ele>
        <time>2016-07-25T19:52:03.000Z</time>
      </trkpt>
      <trkpt lat="48.79186" lon="2.47246">
        <ele>33.799999237061</ele>
        <time>2016-07-25T19:52:07.000Z</time>
      </trkpt>
      <trkpt lat="48.79166" lon="2.47249">
        <ele>33.400001525879</ele>
        <time>2016-07-25T19:52:12.000Z</time>
      </trkpt>
      <trkpt lat="48.79146" lon="2.47252">
        <ele>33</ele>
        <time>2016-07-25T19:52:16.000Z</time>
      </trkpt>
      <trkpt lat="48.79128" lon="2.47255">
        <ele>32.599998474121</ele>
        <time>2016-07-25T19:52:20.000Z</time>
      </trkpt>
      <trkpt lat="48.7911" lon="2.47258">
        <ele>32.200000762939</ele>
        <time>2016-07-25T19:52:24.000Z</time>
      </trkpt>
      <trkpt lat="48.79096" lon="2.47263">
        <ele>32.200000762939</ele>
        <time>2016-07-25T19:52:27.000Z</time>
      </trkpt>
      <trkpt lat="48.79075" lon="2.47276">
        <ele>32</ele>
        <time>2016-07-25T19:52:32.000Z</time>
      </trkpt>
      <trkpt lat="48.7906" lon="2.4729">
        <ele>32</ele>
        <time>2016-07-25T19:52:36.000Z</time>
      </trkpt>
      <trkpt lat="48.79042" lon="2.47308">
        <ele>31.799999237061</ele>
        <time>2016-07-25T19:52:41.000Z</time>
      </trkpt>
      <trkpt lat="48.79024" lon="2.47325">
        <ele>31.799999237061</ele>
        <time>2016-07-25T19:52:46.000Z</time>
      </trkpt>
      <trkpt lat="48.79008" lon="2.47342">
        <ele>32.200000762939</ele>
        <time>2016-07-25T19:52:51.000Z</time>
      </trkpt>
      <trkpt lat="48.78992" lon="2.47358">
        <ele>32.400001525879</ele>
        <time>2016-07-25T19:52:57.000Z</time>
      </trkpt>
      <trkpt lat="48.78986" lon="2.47364">
        <ele>32.400001525879</ele>
        <time>2016-07-25T19:52:59.000Z</time>
      </trkpt>
      <trkpt lat="48.78968" lon="2.47377">
        <ele>32.599998474121</ele>
        <time>2016-07-25T19:53:04.000Z</time>
      </trkpt>
      <trkpt lat="48.78952" lon="2.47393">
        <ele>32.799999237061</ele>
        <time>2016-07-25T19:53:09.000Z</time>
      </trkpt>
      <trkpt lat="48.78944" lon="2.47402">
        <ele>32.799999237061</ele>
        <time>2016-07-25T19:53:12.000Z</time>
      </trkpt>
      <trkpt lat="48.7893" lon="2.47413">
        <ele>33</ele>
        <time>2016-07-25T19:53:16.000Z</time>
      </trkpt>
      <trkpt lat="48.78919" lon="2.47423">
        <ele>32.799999237061</ele>
        <time>2016-07-25T19:53:19.000Z</time>
      </trkpt>
      <trkpt lat="48.78911" lon="2.4743">
        <ele>32.799999237061</ele>
        <time>2016-07-25T19:53:21.000Z</time>
      </trkpt>
      <trkpt lat="48.78893" lon="2.47449">
        <ele>32.799999237061</ele>
        <time>2016-07-25T19:53:26.000Z</time>
      </trkpt>
      <trkpt lat="48.78877" lon="2.47465">
        <ele>33.400001525879</ele>
        <time>2016-07-25T19:53:30.000Z</time>
      </trkpt>
      <trkpt lat="48.78861" lon="2.47481">
        <ele>34.200000762939</ele>
        <time>2016-07-25T19:53:34.000Z</time>
      </trkpt>
      <trkpt lat="48.78845" lon="2.47498">
        <ele>35</ele>
        <time>2016-07-25T19:53:38.000Z</time>
      </trkpt>
      <trkpt lat="48.78829" lon="2.47514">
        <ele>34.400001525879</ele>
        <time>2016-07-25T19:53:42.000Z</time>
      </trkpt>
      <trkpt lat="48.78822" lon="2.47523">
        <ele>34</ele>
        <time>2016-07-25T19:53:44.000Z</time>
      </trkpt>
      <trkpt lat="48.78815" lon="2.47531">
        <ele>33.799999237061</ele>
        <time>2016-07-25T19:53:46.000Z</time>
      </trkpt>
      <trkpt lat="48.78799" lon="2.47551">
        <ele>33.599998474121</ele>
        <time>2016-07-25T19:53:51.000Z</time>
      </trkpt>
      <trkpt lat="48.78787" lon="2.47573">
        <ele>33.799999237061</ele>
        <time>2016-07-25T19:53:56.000Z</time>
      </trkpt>
      <trkpt lat="48.78784" lon="2.47578">
        <ele>33.799999237061</ele>
        <time>2016-07-25T19:53:57.000Z</time>
      </trkpt>
      <trkpt lat="48.78772" lon="2.47601">
        <ele>34</ele>
        <time>2016-07-25T19:54:01.000Z</time>
      </trkpt>
      <trkpt lat="48.7876" lon="2.47624">
        <ele>34</ele>
        <time>2016-07-25T19:54:05.000Z</time>
      </trkpt>
      <trkpt lat="48.78749" lon="2.47651">
        <ele>34</ele>
        <time>2016-07-25T19:54:09.000Z</time>
      </trkpt>
      <trkpt lat="48.78737" lon="2.47679">
        <ele>34.200000762939</ele>
        <time>2016-07-25T19:54:13.000Z</time>
      </trkpt>
      <trkpt lat="48.78725" lon="2.47708">
        <ele>33.599998474121</ele>
        <time>2016-07-25T19:54:17.000Z</time>
      </trkpt>
      <trkpt lat="48.78714" lon="2.47735">
        <ele>33.599998474121</ele>
        <time>2016-07-25T19:54:21.000Z</time>
      </trkpt>
      <trkpt lat="48.78704" lon="2.47761">
        <ele>33.799999237061</ele>
        <time>2016-07-25T19:54:25.000Z</time>
      </trkpt>
      <trkpt lat="48.78693" lon="2.47788">
        <ele>34</ele>
        <time>2016-07-25T19:54:29.000Z</time>
      </trkpt>
      <trkpt lat="48.78681" lon="2.47812">
        <ele>34.400001525879</ele>
        <time>2016-07-25T19:54:33.000Z</time>
      </trkpt>
      <trkpt lat="48.78671" lon="2.47838">
        <ele>35.200000762939</ele>
        <time>2016-07-25T19:54:37.000Z</time>
      </trkpt>
      <trkpt lat="48.78664" lon="2.47857">
        <ele>35.799999237061</ele>
        <time>2016-07-25T19:54:40.000Z</time>
      </trkpt>
      <trkpt lat="48.78657" lon="2.47885">
        <ele>36.200000762939</ele>
        <time>2016-07-25T19:54:44.000Z</time>
      </trkpt>
      <trkpt lat="48.78654" lon="2.47892">
        <ele>36.200000762939</ele>
        <time>2016-07-25T19:54:45.000Z</time>
      </trkpt>
      <trkpt lat="48.78645" lon="2.47921">
        <ele>36.200000762939</ele>
        <time>2016-07-25T19:54:49.000Z</time>
      </trkpt>
      <trkpt lat="48.78635" lon="2.47946">
        <ele>37.200000762939</ele>
        <time>2016-07-25T19:54:53.000Z</time>
      </trkpt>
      <trkpt lat="48.78633" lon="2.47953">
        <ele>37</ele>
        <time>2016-07-25T19:54:54.000Z</time>
      </trkpt>
      <trkpt lat="48.78624" lon="2.4798">
        <ele>35.400001525879</ele>
        <time>2016-07-25T19:54:58.000Z</time>
      </trkpt>
      <trkpt lat="48.78622" lon="2.47987">
        <ele>35</ele>
        <time>2016-07-25T19:54:59.000Z</time>
      </trkpt>
      <trkpt lat="48.78613" lon="2.48017">
        <ele>34.400001525879</ele>
        <time>2016-07-25T19:55:03.000Z</time>
      </trkpt>
      <trkpt lat="48.78605" lon="2.48047">
        <ele>34</ele>
        <time>2016-07-25T19:55:07.000Z</time>
      </trkpt>
      <trkpt lat="48.78596" lon="2.48076">
        <ele>33.400001525879</ele>
        <time>2016-07-25T19:55:11.000Z</time>
      </trkpt>
      <trkpt lat="48.78588" lon="2.48107">
        <ele>33.599998474121</ele>
        <time>2016-07-25T19:55:15.000Z</time>
      </trkpt>
      <trkpt lat="48.78583" lon="2.48135">
        <ele>33.400001525879</ele>
        <time>2016-07-25T19:55:19.000Z</time>
      </trkpt>
      <trkpt lat="48.78581" lon="2.48143">
        <ele>33.400001525879</ele>
        <time>2016-07-25T19:55:20.000Z</time>
      </trkpt>
      <trkpt lat="48.78576" lon="2.48173">
        <ele>33.200000762939</ele>
        <time>2016-07-25T19:55:24.000Z</time>
      </trkpt>
      <trkpt lat="48.78572" lon="2.48204">
        <ele>32.799999237061</ele>
        <time>2016-07-25T19:55:28.000Z</time>
      </trkpt>
      <trkpt lat="48.7857" lon="2.4822">
        <ele>32.599998474121</ele>
        <time>2016-07-25T19:55:30.000Z</time>
      </trkpt>
      <trkpt lat="48.78565" lon="2.48252">
        <ele>32.599998474121</ele>
        <time>2016-07-25T19:55:34.000Z</time>
      </trkpt>
      <trkpt lat="48.7856" lon="2.4828">
        <ele>32.799999237061</ele>
        <time>2016-07-25T19:55:38.000Z</time>
      </trkpt>
      <trkpt lat="48.78554" lon="2.4831">
        <ele>33.200000762939</ele>
        <time>2016-07-25T19:55:42.000Z</time>
      </trkpt>
      <trkpt lat="48.78548" lon="2.48341">
        <ele>33.400001525879</ele>
        <time>2016-07-25T19:55:46.000Z</time>
      </trkpt>
      <trkpt lat="48.78546" lon="2.48356">
        <ele>33.200000762939</ele>
        <time>2016-07-25T19:55:48.000Z</time>
      </trkpt>
      <trkpt lat="48.7854" lon="2.48379">
        <ele>33.200000762939</ele>
        <time>2016-07-25T19:55:51.000Z</time>
      </trkpt>
      <trkpt lat="48.78532" lon="2.48409">
        <ele>33.200000762939</ele>
        <time>2016-07-25T19:55:55.000Z</time>
      </trkpt>
      <trkpt lat="48.78528" lon="2.48433">
        <ele>33.400001525879</ele>
        <time>2016-07-25T19:55:58.000Z</time>
      </trkpt>
      <trkpt lat="48.7852" lon="2.48465">
        <ele>34.200000762939</ele>
        <time>2016-07-25T19:56:02.000Z</time>
      </trkpt>
      <trkpt lat="48.78511" lon="2.48498">
        <ele>34.799999237061</ele>
        <time>2016-07-25T19:56:06.000Z</time>
      </trkpt>
      <trkpt lat="48.78501" lon="2.48527">
        <ele>34.400001525879</ele>
        <time>2016-07-25T19:56:10.000Z</time>
      </trkpt>
      <trkpt lat="48.78496" lon="2.48542">
        <ele>34.200000762939</ele>
        <time>2016-07-25T19:56:12.000Z</time>
      </trkpt>
      <trkpt lat="48.78488" lon="2.4857">
        <ele>33.799999237061</ele>
        <time>2016-07-25T19:56:16.000Z</time>
      </trkpt>
      <trkpt lat="48.78486" lon="2.48578">
        <ele>33.599998474121</ele>
        <time>2016-07-25T19:56:17.000Z</time>
      </trkpt>
      <trkpt lat="48.78479" lon="2.48605">
        <ele>33.400001525879</ele>
        <time>2016-07-25T19:56:21.000Z</time>
      </trkpt>
      <trkpt lat="48.78473" lon="2.48632">
        <ele>33.400001525879</ele>
        <time>2016-07-25T19:56:25.000Z</time>
      </trkpt>
      <trkpt lat="48.78472" lon="2.4864">
        <ele>33.400001525879</ele>
        <time>2016-07-25T19:56:26.000Z</time>
      </trkpt>
      <trkpt lat="48.78469" lon="2.4867">
        <ele>33.400001525879</ele>
        <time>2016-07-25T19:56:30.000Z</time>
      </trkpt>
      <trkpt lat="48.78469" lon="2.48698">
        <ele>33.799999237061</ele>
        <time>2016-07-25T19:56:34.000Z</time>
      </trkpt>
      <trkpt lat="48.78468" lon="2.48717">
        <ele>33.400001525879</ele>
        <time>2016-07-25T19:56:37.000Z</time>
      </trkpt>
      <trkpt lat="48.78466" lon="2.4873">
        <ele>33.200000762939</ele>
        <time>2016-07-25T19:56:39.000Z</time>
      </trkpt>
      <trkpt lat="48.78464" lon="2.48759">
        <ele>33</ele>
        <time>2016-07-25T19:56:43.000Z</time>
      </trkpt>
      <trkpt lat="48.78464" lon="2.48765">
        <ele>33</ele>
        <time>2016-07-25T19:56:44.000Z</time>
      </trkpt>
      <trkpt lat="48.78464" lon="2.48798">
        <ele>33</ele>
        <time>2016-07-25T19:56:49.000Z</time>
      </trkpt>
      <trkpt lat="48.78463" lon="2.48828">
        <ele>33</ele>
        <time>2016-07-25T19:56:53.000Z</time>
      </trkpt>
      <trkpt lat="48.78462" lon="2.48857">
        <ele>32.599998474121</ele>
        <time>2016-07-25T19:56:57.000Z</time>
      </trkpt>
      <trkpt lat="48.78461" lon="2.48887">
        <ele>33.200000762939</ele>
        <time>2016-07-25T19:57:01.000Z</time>
      </trkpt>
      <trkpt lat="48.78458" lon="2.48917">
        <ele>34</ele>
        <time>2016-07-25T19:57:05.000Z</time>
      </trkpt>
      <trkpt lat="48.78457" lon="2.48946">
        <ele>34.200000762939</ele>
        <time>2016-07-25T19:57:09.000Z</time>
      </trkpt>
      <trkpt lat="48.78455" lon="2.48974">
        <ele>34.400001525879</ele>
        <time>2016-07-25T19:57:13.000Z</time>
      </trkpt>
      <trkpt lat="48.78454" lon="2.49003">
        <ele>34.799999237061</ele>
        <time>2016-07-25T19:57:17.000Z</time>
      </trkpt>
      <trkpt lat="48.78454" lon="2.4903">
        <ele>34.400001525879</ele>
        <time>2016-07-25T19:57:21.000Z</time>
      </trkpt>
      <trkpt lat="48.78454" lon="2.49043">
        <ele>34.200000762939</ele>
        <time>2016-07-25T19:57:23.000Z</time>
      </trkpt>
      <trkpt lat="48.78455" lon="2.49072">
        <ele>33.400001525879</ele>
        <time>2016-07-25T19:57:27.000Z</time>
      </trkpt>
      <trkpt lat="48.78455" lon="2.49101">
        <ele>33.200000762939</ele>
        <time>2016-07-25T19:57:31.000Z</time>
      </trkpt>
      <trkpt lat="48.78455" lon="2.49129">
        <ele>33.599998474121</ele>
        <time>2016-07-25T19:57:35.000Z</time>
      </trkpt>
      <trkpt lat="48.78457" lon="2.49158">
        <ele>33.799999237061</ele>
        <time>2016-07-25T19:57:39.000Z</time>
      </trkpt>
      <trkpt lat="48.78456" lon="2.49185">
        <ele>34</ele>
        <time>2016-07-25T19:57:43.000Z</time>
      </trkpt>
      <trkpt lat="48.78457" lon="2.49214">
        <ele>33.599998474121</ele>
        <time>2016-07-25T19:57:47.000Z</time>
      </trkpt>
      <trkpt lat="48.7846" lon="2.4925">
        <ele>33.200000762939</ele>
        <time>2016-07-25T19:57:51.000Z</time>
      </trkpt>
      <trkpt lat="48.7846" lon="2.49277">
        <ele>33.400001525879</ele>
        <time>2016-07-25T19:57:54.000Z</time>
      </trkpt>
      <trkpt lat="48.7846" lon="2.49287">
        <ele>33.400001525879</ele>
        <time>2016-07-25T19:57:55.000Z</time>
      </trkpt>
      <trkpt lat="48.78461" lon="2.49318">
        <ele>33</ele>
        <time>2016-07-25T19:57:58.000Z</time>
      </trkpt>
      <trkpt lat="48.78463" lon="2.49351">
        <ele>33.400001525879</ele>
        <time>2016-07-25T19:58:01.000Z</time>
      </trkpt>
      <trkpt lat="48.78466" lon="2.49384">
        <ele>34</ele>
        <time>2016-07-25T19:58:04.000Z</time>
      </trkpt>
      <trkpt lat="48.78469" lon="2.49415">
        <ele>34.400001525879</ele>
        <time>2016-07-25T19:58:07.000Z</time>
      </trkpt>
      <trkpt lat="48.78473" lon="2.49444">
        <ele>34.400001525879</ele>
        <time>2016-07-25T19:58:10.000Z</time>
      </trkpt>
      <trkpt lat="48.78475" lon="2.4946">
        <ele>34.200000762939</ele>
        <time>2016-07-25T19:58:12.000Z</time>
      </trkpt>
      <trkpt lat="48.78477" lon="2.49475">
        <ele>34</ele>
        <time>2016-07-25T19:58:14.000Z</time>
      </trkpt>
      <trkpt lat="48.78482" lon="2.49497">
        <ele>33.599998474121</ele>
        <time>2016-07-25T19:58:18.000Z</time>
      </trkpt>
      <trkpt lat="48.78484" lon="2.49514">
        <ele>33.200000762939</ele>
        <time>2016-07-25T19:58:23.000Z</time>
      </trkpt>
      <trkpt lat="48.78485" lon="2.49522">
        <ele>33</ele>
        <time>2016-07-25T19:58:28.000Z</time>
      </trkpt>
      <trkpt lat="48.78489" lon="2.49531">
        <ele>33</ele>
        <time>2016-07-25T20:00:05.000Z</time>
      </trkpt>
      <trkpt lat="48.78489" lon="2.49561">
        <ele>32.400001525879</ele>
        <time>2016-07-25T20:00:13.000Z</time>
      </trkpt>
      <trkpt lat="48.78486" lon="2.49594">
        <ele>33.200000762939</ele>
        <time>2016-07-25T20:00:18.000Z</time>
      </trkpt>
      <trkpt lat="48.78487" lon="2.49628">
        <ele>34</ele>
        <time>2016-07-25T20:00:22.000Z</time>
      </trkpt>
      <trkpt lat="48.7849" lon="2.49656">
        <ele>34.799999237061</ele>
        <time>2016-07-25T20:00:25.000Z</time>
      </trkpt>
      <trkpt lat="48.78493" lon="2.49683">
        <ele>35.200000762939</ele>
        <time>2016-07-25T20:00:28.000Z</time>
      </trkpt>
      <trkpt lat="48.78496" lon="2.4971">
        <ele>35.599998474121</ele>
        <time>2016-07-25T20:00:31.000Z</time>
      </trkpt>
      <trkpt lat="48.78498" lon="2.49738">
        <ele>35.799999237061</ele>
        <time>2016-07-25T20:00:34.000Z</time>
      </trkpt>
      <trkpt lat="48.785" lon="2.49771">
        <ele>35.200000762939</ele>
        <time>2016-07-25T20:00:38.000Z</time>
      </trkpt>
      <trkpt lat="48.78501" lon="2.49804">
        <ele>34.400001525879</ele>
        <time>2016-07-25T20:00:42.000Z</time>
      </trkpt>
      <trkpt lat="48.78503" lon="2.49834">
        <ele>34</ele>
        <time>2016-07-25T20:00:46.000Z</time>
      </trkpt>
      <trkpt lat="48.78505" lon="2.49859">
        <ele>34.400001525879</ele>
        <time>2016-07-25T20:00:49.000Z</time>
      </trkpt>
      <trkpt lat="48.78506" lon="2.49891">
        <ele>34.599998474121</ele>
        <time>2016-07-25T20:00:53.000Z</time>
      </trkpt>
      <trkpt lat="48.78507" lon="2.49899">
        <ele>34.799999237061</ele>
        <time>2016-07-25T20:00:54.000Z</time>
      </trkpt>
      <trkpt lat="48.78509" lon="2.49923">
        <ele>35.400001525879</ele>
        <time>2016-07-25T20:00:57.000Z</time>
      </trkpt>
      <trkpt lat="48.7851" lon="2.49955">
        <ele>36.200000762939</ele>
        <time>2016-07-25T20:01:01.000Z</time>
      </trkpt>
      <trkpt lat="48.7851" lon="2.49979">
        <ele>36.799999237061</ele>
        <time>2016-07-25T20:01:04.000Z</time>
      </trkpt>
      <trkpt lat="48.7851" lon="2.50011">
        <ele>36.599998474121</ele>
        <time>2016-07-25T20:01:08.000Z</time>
      </trkpt>
      <trkpt lat="48.7851" lon="2.50038">
        <ele>35.599998474121</ele>
        <time>2016-07-25T20:01:12.000Z</time>
      </trkpt>
      <trkpt lat="48.78509" lon="2.50051">
        <ele>35.200000762939</ele>
        <time>2016-07-25T20:01:14.000Z</time>
      </trkpt>
      <trkpt lat="48.78506" lon="2.50083">
        <ele>34</ele>
        <time>2016-07-25T20:01:18.000Z</time>
      </trkpt>
      <trkpt lat="48.78503" lon="2.50117">
        <ele>34</ele>
        <time>2016-07-25T20:01:22.000Z</time>
      </trkpt>
      <trkpt lat="48.785" lon="2.50153">
        <ele>34</ele>
        <time>2016-07-25T20:01:26.000Z</time>
      </trkpt>
      <trkpt lat="48.785" lon="2.50185">
        <ele>34.200000762939</ele>
        <time>2016-07-25T20:01:29.000Z</time>
      </trkpt>
      <trkpt lat="48.78499" lon="2.50214">
        <ele>34.799999237061</ele>
        <time>2016-07-25T20:01:32.000Z</time>
      </trkpt>
      <trkpt lat="48.78496" lon="2.50243">
        <ele>35.200000762939</ele>
        <time>2016-07-25T20:01:35.000Z</time>
      </trkpt>
      <trkpt lat="48.78494" lon="2.50279">
        <ele>35</ele>
        <time>2016-07-25T20:01:39.000Z</time>
      </trkpt>
      <trkpt lat="48.78492" lon="2.50306">
        <ele>34.599998474121</ele>
        <time>2016-07-25T20:01:42.000Z</time>
      </trkpt>
      <trkpt lat="48.7849" lon="2.50323">
        <ele>34.400001525879</ele>
        <time>2016-07-25T20:01:44.000Z</time>
      </trkpt>
      <trkpt lat="48.78487" lon="2.5035">
        <ele>34.200000762939</ele>
        <time>2016-07-25T20:01:47.000Z</time>
      </trkpt>
      <trkpt lat="48.78485" lon="2.50377">
        <ele>34.200000762939</ele>
        <time>2016-07-25T20:01:50.000Z</time>
      </trkpt>
      <trkpt lat="48.78482" lon="2.50406">
        <ele>34</ele>
        <time>2016-07-25T20:01:53.000Z</time>
      </trkpt>
      <trkpt lat="48.78481" lon="2.50436">
        <ele>34.200000762939</ele>
        <time>2016-07-25T20:01:56.000Z</time>
      </trkpt>
      <trkpt lat="48.78477" lon="2.50468">
        <ele>34.599998474121</ele>
        <time>2016-07-25T20:02:00.000Z</time>
      </trkpt>
      <trkpt lat="48.78476" lon="2.50475">
        <ele>34.599998474121</ele>
        <time>2016-07-25T20:02:01.000Z</time>
      </trkpt>
      <trkpt lat="48.78474" lon="2.50504">
        <ele>34.799999237061</ele>
        <time>2016-07-25T20:02:04.000Z</time>
      </trkpt>
      <trkpt lat="48.78472" lon="2.5054">
        <ele>34.400001525879</ele>
        <time>2016-07-25T20:02:08.000Z</time>
      </trkpt>
      <trkpt lat="48.7847" lon="2.50575">
        <ele>34.400001525879</ele>
        <time>2016-07-25T20:02:12.000Z</time>
      </trkpt>
      <trkpt lat="48.78468" lon="2.50603">
        <ele>34.200000762939</ele>
        <time>2016-07-25T20:02:15.000Z</time>
      </trkpt>
      <trkpt lat="48.78465" lon="2.5063">
        <ele>33.599998474121</ele>
        <time>2016-07-25T20:02:18.000Z</time>
      </trkpt>
      <trkpt lat="48.78462" lon="2.50662">
        <ele>32.799999237061</ele>
        <time>2016-07-25T20:02:21.000Z</time>
      </trkpt>
      <trkpt lat="48.78462" lon="2.5067">
        <ele>32.599998474121</ele>
        <time>2016-07-25T20:02:22.000Z</time>
      </trkpt>
      <trkpt lat="48.78461" lon="2.50704">
        <ele>33.200000762939</ele>
        <time>2016-07-25T20:02:27.000Z</time>
      </trkpt>
      <trkpt lat="48.78461" lon="2.50708">
        <ele>33.400001525879</ele>
        <time>2016-07-25T20:02:28.000Z</time>
      </trkpt>
      <trkpt lat="48.78462" lon="2.50727">
        <ele>33.599998474121</ele>
        <time>2016-07-25T20:02:32.000Z</time>
      </trkpt>
      <trkpt lat="48.78469" lon="2.50752">
        <ele>34</ele>
        <time>2016-07-25T20:02:52.000Z</time>
      </trkpt>
      <trkpt lat="48.78468" lon="2.5078">
        <ele>33.799999237061</ele>
        <time>2016-07-25T20:02:58.000Z</time>
      </trkpt>
      <trkpt lat="48.78469" lon="2.50811">
        <ele>34.400001525879</ele>
        <time>2016-07-25T20:03:04.000Z</time>
      </trkpt>
      <trkpt lat="48.78467" lon="2.50838">
        <ele>35</ele>
        <time>2016-07-25T20:03:08.000Z</time>
      </trkpt>
      <trkpt lat="48.78465" lon="2.50869">
        <ele>35.400001525879</ele>
        <time>2016-07-25T20:03:12.000Z</time>
      </trkpt>
      <trkpt lat="48.78463" lon="2.50899">
        <ele>35.400001525879</ele>
        <time>2016-07-25T20:03:16.000Z</time>
      </trkpt>
      <trkpt lat="48.78464" lon="2.50929">
        <ele>35.400001525879</ele>
        <time>2016-07-25T20:03:20.000Z</time>
      </trkpt>
      <trkpt lat="48.78465" lon="2.50947">
        <ele>35.599998474121</ele>
        <time>2016-07-25T20:03:23.000Z</time>
      </trkpt>
      <trkpt lat="48.78463" lon="2.50967">
        <ele>35.599998474121</ele>
        <time>2016-07-25T20:03:26.000Z</time>
      </trkpt>
      <trkpt lat="48.78463" lon="2.50982">
        <ele>35.599998474121</ele>
        <time>2016-07-25T20:03:28.000Z</time>
      </trkpt>
      <trkpt lat="48.78464" lon="2.51016">
        <ele>35.400001525879</ele>
        <time>2016-07-25T20:03:32.000Z</time>
      </trkpt>
      <trkpt lat="48.78469" lon="2.51047">
        <ele>35.200000762939</ele>
        <time>2016-07-25T20:03:36.000Z</time>
      </trkpt>
      <trkpt lat="48.78477" lon="2.51079">
        <ele>35</ele>
        <time>2016-07-25T20:03:40.000Z</time>
      </trkpt>
      <trkpt lat="48.78488" lon="2.51107">
        <ele>34.599998474121</ele>
        <time>2016-07-25T20:03:44.000Z</time>
      </trkpt>
      <trkpt lat="48.78501" lon="2.51132">
        <ele>34.400001525879</ele>
        <time>2016-07-25T20:03:48.000Z</time>
      </trkpt>
      <trkpt lat="48.78515" lon="2.51158">
        <ele>34</ele>
        <time>2016-07-25T20:03:52.000Z</time>
      </trkpt>
      <trkpt lat="48.78522" lon="2.51171">
        <ele>34</ele>
        <time>2016-07-25T20:03:54.000Z</time>
      </trkpt>
      <trkpt lat="48.78535" lon="2.51196">
        <ele>33.799999237061</ele>
        <time>2016-07-25T20:03:58.000Z</time>
      </trkpt>
      <trkpt lat="48.78549" lon="2.51224">
        <ele>33.599998474121</ele>
        <time>2016-07-25T20:04:02.000Z</time>
      </trkpt>
      <trkpt lat="48.78566" lon="2.51249">
        <ele>33.599998474121</ele>
        <time>2016-07-25T20:04:06.000Z</time>
      </trkpt>
      <trkpt lat="48.78582" lon="2.51275">
        <ele>34.400001525879</ele>
        <time>2016-07-25T20:04:10.000Z</time>
      </trkpt>
      <trkpt lat="48.78585" lon="2.51282">
        <ele>34.599998474121</ele>
        <time>2016-07-25T20:04:11.000Z</time>
      </trkpt>
      <trkpt lat="48.78598" lon="2.51304">
        <ele>35.400001525879</ele>
        <time>2016-07-25T20:04:14.000Z</time>
      </trkpt>
      <trkpt lat="48.78612" lon="2.51328">
        <ele>36</ele>
        <time>2016-07-25T20:04:17.000Z</time>
      </trkpt>
      <trkpt lat="48.78625" lon="2.5135">
        <ele>36.400001525879</ele>
        <time>2016-07-25T20:04:20.000Z</time>
      </trkpt>
      <trkpt lat="48.78637" lon="2.51371">
        <ele>36.799999237061</ele>
        <time>2016-07-25T20:04:23.000Z</time>
      </trkpt>
      <trkpt lat="48.7864" lon="2.51379">
        <ele>36.799999237061</ele>
        <time>2016-07-25T20:04:24.000Z</time>
      </trkpt>
      <trkpt lat="48.78646" lon="2.51406">
        <ele>37</ele>
        <time>2016-07-25T20:04:27.000Z</time>
      </trkpt>
      <trkpt lat="48.78651" lon="2.51441">
        <ele>36.200000762939</ele>
        <time>2016-07-25T20:04:31.000Z</time>
      </trkpt>
      <trkpt lat="48.78655" lon="2.51476">
        <ele>35.200000762939</ele>
        <time>2016-07-25T20:04:35.000Z</time>
      </trkpt>
      <trkpt lat="48.78656" lon="2.5151">
        <ele>35</ele>
        <time>2016-07-25T20:04:39.000Z</time>
      </trkpt>
      <trkpt lat="48.78658" lon="2.51538">
        <ele>35</ele>
        <time>2016-07-25T20:04:42.000Z</time>
      </trkpt>
      <trkpt lat="48.78665" lon="2.51573">
        <ele>35.200000762939</ele>
        <time>2016-07-25T20:04:45.000Z</time>
      </trkpt>
      <trkpt lat="48.78674" lon="2.51606">
        <ele>35.599998474121</ele>
        <time>2016-07-25T20:04:48.000Z</time>
      </trkpt>
      <trkpt lat="48.78684" lon="2.51636">
        <ele>35.799999237061</ele>
        <time>2016-07-25T20:04:51.000Z</time>
      </trkpt>
      <trkpt lat="48.78694" lon="2.51665">
        <ele>36</ele>
        <time>2016-07-25T20:04:54.000Z</time>
      </trkpt>
      <trkpt lat="48.78704" lon="2.51696">
        <ele>35.799999237061</ele>
        <time>2016-07-25T20:04:57.000Z</time>
      </trkpt>
      <trkpt lat="48.78715" lon="2.51725">
        <ele>35.599998474121</ele>
        <time>2016-07-25T20:05:00.000Z</time>
      </trkpt>
      <trkpt lat="48.78729" lon="2.51751">
        <ele>35.599998474121</ele>
        <time>2016-07-25T20:05:03.000Z</time>
      </trkpt>
      <trkpt lat="48.78744" lon="2.51776">
        <ele>35.400001525879</ele>
        <time>2016-07-25T20:05:06.000Z</time>
      </trkpt>
      <trkpt lat="48.78754" lon="2.5179">
        <ele>35.200000762939</ele>
        <time>2016-07-25T20:05:08.000Z</time>
      </trkpt>
      <trkpt lat="48.7877" lon="2.51808">
        <ele>35</ele>
        <time>2016-07-25T20:05:11.000Z</time>
      </trkpt>
      <trkpt lat="48.78784" lon="2.51829">
        <ele>35.200000762939</ele>
        <time>2016-07-25T20:05:14.000Z</time>
      </trkpt>
      <trkpt lat="48.78793" lon="2.51843">
        <ele>35.400001525879</ele>
        <time>2016-07-25T20:05:16.000Z</time>
      </trkpt>
      <trkpt lat="48.78811" lon="2.51862">
        <ele>36.200000762939</ele>
        <time>2016-07-25T20:05:19.000Z</time>
      </trkpt>
      <trkpt lat="48.78828" lon="2.5188">
        <ele>36.799999237061</ele>
        <time>2016-07-25T20:05:22.000Z</time>
      </trkpt>
      <trkpt lat="48.78847" lon="2.51903">
        <ele>37.599998474121</ele>
        <time>2016-07-25T20:05:25.000Z</time>
      </trkpt>
      <trkpt lat="48.78865" lon="2.51923">
        <ele>37.799999237061</ele>
        <time>2016-07-25T20:05:28.000Z</time>
      </trkpt>
      <trkpt lat="48.78871" lon="2.51927">
        <ele>37.599998474121</ele>
        <time>2016-07-25T20:05:29.000Z</time>
      </trkpt>
      <trkpt lat="48.78882" lon="2.51938">
        <ele>37.400001525879</ele>
        <time>2016-07-25T20:05:31.000Z</time>
      </trkpt>
      <trkpt lat="48.78899" lon="2.51963">
        <ele>37</ele>
        <time>2016-07-25T20:05:35.000Z</time>
      </trkpt>
      <trkpt lat="48.78917" lon="2.51981">
        <ele>36.400001525879</ele>
        <time>2016-07-25T20:05:38.000Z</time>
      </trkpt>
      <trkpt lat="48.78935" lon="2.52">
        <ele>36</ele>
        <time>2016-07-25T20:05:41.000Z</time>
      </trkpt>
      <trkpt lat="48.78953" lon="2.52018">
        <ele>35.799999237061</ele>
        <time>2016-07-25T20:05:44.000Z</time>
      </trkpt>
      <trkpt lat="48.78965" lon="2.52029">
        <ele>35.599998474121</ele>
        <time>2016-07-25T20:05:46.000Z</time>
      </trkpt>
      <trkpt lat="48.78988" lon="2.52047">
        <ele>35.400001525879</ele>
        <time>2016-07-25T20:05:49.000Z</time>
      </trkpt>
      <trkpt lat="48.79009" lon="2.52062">
        <ele>35.200000762939</ele>
        <time>2016-07-25T20:05:52.000Z</time>
      </trkpt>
      <trkpt lat="48.79031" lon="2.52079">
        <ele>35</ele>
        <time>2016-07-25T20:05:55.000Z</time>
      </trkpt>
      <trkpt lat="48.79047" lon="2.52084">
        <ele>35</ele>
        <time>2016-07-25T20:05:57.000Z</time>
      </trkpt>
      <trkpt lat="48.79069" lon="2.5208">
        <ele>35</ele>
        <time>2016-07-25T20:06:00.000Z</time>
      </trkpt>
      <trkpt lat="48.79084" lon="2.52077">
        <ele>35</ele>
        <time>2016-07-25T20:06:03.000Z</time>
      </trkpt>
      <trkpt lat="48.79092" lon="2.52084">
        <ele>35</ele>
        <time>2016-07-25T20:06:08.000Z</time>
      </trkpt>
      <trkpt lat="48.79091" lon="2.52087">
        <ele>35</ele>
        <time>2016-07-25T20:07:43.000Z</time>
      </trkpt>
      <trkpt lat="48.79112" lon="2.52096">
        <ele>34.599998474121</ele>
        <time>2016-07-25T20:07:51.000Z</time>
      </trkpt>
      <trkpt lat="48.79128" lon="2.52102">
        <ele>34.200000762939</ele>
        <time>2016-07-25T20:07:55.000Z</time>
      </trkpt>
      <trkpt lat="48.79146" lon="2.52094">
        <ele>34.200000762939</ele>
        <time>2016-07-25T20:07:59.000Z</time>
      </trkpt>
      <trkpt lat="48.79153" lon="2.52085">
        <ele>34.400001525879</ele>
        <time>2016-07-25T20:08:01.000Z</time>
      </trkpt>
      <trkpt lat="48.7916" lon="2.52072">
        <ele>34.599998474121</ele>
        <time>2016-07-25T20:08:03.000Z</time>
      </trkpt>
      <trkpt lat="48.79174" lon="2.52051">
        <ele>35</ele>
        <time>2016-07-25T20:08:07.000Z</time>
      </trkpt>
      <trkpt lat="48.79192" lon="2.52046">
        <ele>35</ele>
        <time>2016-07-25T20:08:11.000Z</time>
      </trkpt>
      <trkpt lat="48.79203" lon="2.52067">
        <ele>34.799999237061</ele>
        <time>2016-07-25T20:08:16.000Z</time>
      </trkpt>
      <trkpt lat="48.792" lon="2.52099">
        <ele>34</ele>
        <time>2016-07-25T20:08:21.000Z</time>
      </trkpt>
      <trkpt lat="48.79198" lon="2.52113">
        <ele>33.599998474121</ele>
        <time>2016-07-25T20:08:23.000Z</time>
      </trkpt>
      <trkpt lat="48.79207" lon="2.52143">
        <ele>33.200000762939</ele>
        <time>2016-07-25T20:08:28.000Z</time>
      </trkpt>
      <trkpt lat="48.79221" lon="2.52153">
        <ele>33.599998474121</ele>
        <time>2016-07-25T20:08:31.000Z</time>
      </trkpt>
      <trkpt lat="48.7924" lon="2.52162">
        <ele>34</ele>
        <time>2016-07-25T20:08:35.000Z</time>
      </trkpt>
      <trkpt lat="48.79263" lon="2.52172">
        <ele>34.799999237061</ele>
        <time>2016-07-25T20:08:39.000Z</time>
      </trkpt>
      <trkpt lat="48.79281" lon="2.52178">
        <ele>35</ele>
        <time>2016-07-25T20:08:42.000Z</time>
      </trkpt>
      <trkpt lat="48.793" lon="2.52184">
        <ele>35.200000762939</ele>
        <time>2016-07-25T20:08:45.000Z</time>
      </trkpt>
      <trkpt lat="48.79313" lon="2.52185">
        <ele>35.599998474121</ele>
        <time>2016-07-25T20:08:47.000Z</time>
      </trkpt>
      <trkpt lat="48.79332" lon="2.52187">
        <ele>36</ele>
        <time>2016-07-25T20:08:50.000Z</time>
      </trkpt>
      <trkpt lat="48.79351" lon="2.52188">
        <ele>36.400001525879</ele>
        <time>2016-07-25T20:08:53.000Z</time>
      </trkpt>
      <trkpt lat="48.79371" lon="2.5219">
        <ele>36.799999237061</ele>
        <time>2016-07-25T20:08:56.000Z</time>
      </trkpt>
      <trkpt lat="48.79389" lon="2.52189">
        <ele>37</ele>
        <time>2016-07-25T20:08:59.000Z</time>
      </trkpt>
      <trkpt lat="48.794" lon="2.52188">
        <ele>37</ele>
        <time>2016-07-25T20:09:01.000Z</time>
      </trkpt>
      <trkpt lat="48.79418" lon="2.52192">
        <ele>37</ele>
        <time>2016-07-25T20:09:06.000Z</time>
      </trkpt>
      <trkpt lat="48.7943" lon="2.52196">
        <ele>37</ele>
        <time>2016-07-25T20:09:10.000Z</time>
      </trkpt>
      <trkpt lat="48.79449" lon="2.52198">
        <ele>36.799999237061</ele>
        <time>2016-07-25T20:09:14.000Z</time>
      </trkpt>
      <trkpt lat="48.79471" lon="2.52202">
        <ele>36.599998474121</ele>
        <time>2016-07-25T20:09:18.000Z</time>
      </trkpt>
      <trkpt lat="48.79492" lon="2.52206">
        <ele>36.400001525879</ele>
        <time>2016-07-25T20:09:22.000Z</time>
      </trkpt>
      <trkpt lat="48.79514" lon="2.52208">
        <ele>36</ele>
        <time>2016-07-25T20:09:26.000Z</time>
      </trkpt>
      <trkpt lat="48.79529" lon="2.52209">
        <ele>35.799999237061</ele>
        <time>2016-07-25T20:09:29.000Z</time>
      </trkpt>
      <trkpt lat="48.79552" lon="2.52212">
        <ele>35.200000762939</ele>
        <time>2016-07-25T20:09:33.000Z</time>
      </trkpt>
      <trkpt lat="48.7957" lon="2.52215">
        <ele>34.799999237061</ele>
        <time>2016-07-25T20:09:36.000Z</time>
      </trkpt>
      <trkpt lat="48.79592" lon="2.52219">
        <ele>34.599998474121</ele>
        <time>2016-07-25T20:09:40.000Z</time>
      </trkpt>
      <trkpt lat="48.79613" lon="2.52222">
        <ele>34.599998474121</ele>
        <time>2016-07-25T20:09:44.000Z</time>
      </trkpt>
      <trkpt lat="48.79634" lon="2.52227">
        <ele>35</ele>
        <time>2016-07-25T20:09:48.000Z</time>
      </trkpt>
      <trkpt lat="48.79645" lon="2.52229">
        <ele>35.200000762939</ele>
        <time>2016-07-25T20:09:50.000Z</time>
      </trkpt>
      <trkpt lat="48.79666" lon="2.52233">
        <ele>35.599998474121</ele>
        <time>2016-07-25T20:09:54.000Z</time>
      </trkpt>
      <trkpt lat="48.79685" lon="2.52235">
        <ele>36</ele>
        <time>2016-07-25T20:09:58.000Z</time>
      </trkpt>
      <trkpt lat="48.79703" lon="2.5224">
        <ele>35.799999237061</ele>
        <time>2016-07-25T20:10:02.000Z</time>
      </trkpt>
      <trkpt lat="48.79708" lon="2.5224">
        <ele>35.799999237061</ele>
        <time>2016-07-25T20:10:03.000Z</time>
      </trkpt>
      <trkpt lat="48.79728" lon="2.52238">
        <ele>35.599998474121</ele>
        <time>2016-07-25T20:10:07.000Z</time>
      </trkpt>
      <trkpt lat="48.79749" lon="2.52235">
        <ele>35.200000762939</ele>
        <time>2016-07-25T20:10:12.000Z</time>
      </trkpt>
      <trkpt lat="48.79769" lon="2.52231">
        <ele>35.200000762939</ele>
        <time>2016-07-25T20:10:17.000Z</time>
      </trkpt>
      <trkpt lat="48.79791" lon="2.52225">
        <ele>35.799999237061</ele>
        <time>2016-07-25T20:10:22.000Z</time>
      </trkpt>
      <trkpt lat="48.79812" lon="2.5222">
        <ele>36.400001525879</ele>
        <time>2016-07-25T20:10:26.000Z</time>
      </trkpt>
      <trkpt lat="48.79822" lon="2.52219">
        <ele>36.599998474121</ele>
        <time>2016-07-25T20:10:28.000Z</time>
      </trkpt>
      <trkpt lat="48.79844" lon="2.52213">
        <ele>36.799999237061</ele>
        <time>2016-07-25T20:10:32.000Z</time>
      </trkpt>
      <trkpt lat="48.79867" lon="2.52206">
        <ele>36.799999237061</ele>
        <time>2016-07-25T20:10:36.000Z</time>
      </trkpt>
      <trkpt lat="48.79873" lon="2.52204">
        <ele>36.599998474121</ele>
        <time>2016-07-25T20:10:37.000Z</time>
      </trkpt>
      <trkpt lat="48.79891" lon="2.52201">
        <ele>36.200000762939</ele>
        <time>2016-07-25T20:10:40.000Z</time>
      </trkpt>
      <trkpt lat="48.79912" lon="2.52201">
        <ele>36</ele>
        <time>2016-07-25T20:10:43.000Z</time>
      </trkpt>
      <trkpt lat="48.79926" lon="2.52201">
        <ele>35.799999237061</ele>
        <time>2016-07-25T20:10:45.000Z</time>
      </trkpt>
      <trkpt lat="48.79947" lon="2.522">
        <ele>35.599998474121</ele>
        <time>2016-07-25T20:10:48.000Z</time>
      </trkpt>
      <trkpt lat="48.79966" lon="2.52201">
        <ele>35.599998474121</ele>
        <time>2016-07-25T20:10:51.000Z</time>
      </trkpt>
      <trkpt lat="48.79989" lon="2.52196">
        <ele>35.599998474121</ele>
        <time>2016-07-25T20:10:55.000Z</time>
      </trkpt>
      <trkpt lat="48.79995" lon="2.52194">
        <ele>35.599998474121</ele>
        <time>2016-07-25T20:10:56.000Z</time>
      </trkpt>
      <trkpt lat="48.80014" lon="2.52197">
        <ele>35.599998474121</ele>
        <time>2016-07-25T20:10:59.000Z</time>
      </trkpt>
      <trkpt lat="48.8002" lon="2.52199">
        <ele>35.599998474121</ele>
        <time>2016-07-25T20:11:00.000Z</time>
      </trkpt>
      <trkpt lat="48.80034" lon="2.52202">
        <ele>35.200000762939</ele>
        <time>2016-07-25T20:11:02.000Z</time>
      </trkpt>
      <trkpt lat="48.80053" lon="2.52204">
        <ele>34.799999237061</ele>
        <time>2016-07-25T20:11:05.000Z</time>
      </trkpt>
      <trkpt lat="48.80072" lon="2.52206">
        <ele>34.400001525879</ele>
        <time>2016-07-25T20:11:08.000Z</time>
      </trkpt>
      <trkpt lat="48.80092" lon="2.52209">
        <ele>34.200000762939</ele>
        <time>2016-07-25T20:11:11.000Z</time>
      </trkpt>
      <trkpt lat="48.80111" lon="2.52215">
        <ele>34</ele>
        <time>2016-07-25T20:11:14.000Z</time>
      </trkpt>
      <trkpt lat="48.80133" lon="2.52218">
        <ele>34.200000762939</ele>
        <time>2016-07-25T20:11:17.000Z</time>
      </trkpt>
      <trkpt lat="48.80153" lon="2.52222">
        <ele>34.200000762939</ele>
        <time>2016-07-25T20:11:20.000Z</time>
      </trkpt>
      <trkpt lat="48.80173" lon="2.52226">
        <ele>34.200000762939</ele>
        <time>2016-07-25T20:11:23.000Z</time>
      </trkpt>
      <trkpt lat="48.80193" lon="2.52227">
        <ele>34.400001525879</ele>
        <time>2016-07-25T20:11:26.000Z</time>
      </trkpt>
      <trkpt lat="48.80213" lon="2.52228">
        <ele>34.799999237061</ele>
        <time>2016-07-25T20:11:29.000Z</time>
      </trkpt>
      <trkpt lat="48.80234" lon="2.52228">
        <ele>35.400001525879</ele>
        <time>2016-07-25T20:11:32.000Z</time>
      </trkpt>
      <trkpt lat="48.80256" lon="2.52224">
        <ele>36</ele>
        <time>2016-07-25T20:11:35.000Z</time>
      </trkpt>
      <trkpt lat="48.80277" lon="2.52218">
        <ele>36.400001525879</ele>
        <time>2016-07-25T20:11:38.000Z</time>
      </trkpt>
      <trkpt lat="48.80291" lon="2.52215">
        <ele>36.599998474121</ele>
        <time>2016-07-25T20:11:40.000Z</time>
      </trkpt>
      <trkpt lat="48.80311" lon="2.52211">
        <ele>37</ele>
        <time>2016-07-25T20:11:43.000Z</time>
      </trkpt>
      <trkpt lat="48.8033" lon="2.52206">
        <ele>36.799999237061</ele>
        <time>2016-07-25T20:11:46.000Z</time>
      </trkpt>
      <trkpt lat="48.80352" lon="2.522">
        <ele>36.400001525879</ele>
        <time>2016-07-25T20:11:49.000Z</time>
      </trkpt>
      <trkpt lat="48.80372" lon="2.52195">
        <ele>36.200000762939</ele>
        <time>2016-07-25T20:11:52.000Z</time>
      </trkpt>
      <trkpt lat="48.80392" lon="2.52189">
        <ele>35.799999237061</ele>
        <time>2016-07-25T20:11:55.000Z</time>
      </trkpt>
      <trkpt lat="48.80411" lon="2.52181">
        <ele>35.599998474121</ele>
        <time>2016-07-25T20:11:58.000Z</time>
      </trkpt>
      <trkpt lat="48.80432" lon="2.52176">
        <ele>35.200000762939</ele>
        <time>2016-07-25T20:12:02.000Z</time>
      </trkpt>
      <trkpt lat="48.80453" lon="2.52171">
        <ele>35.200000762939</ele>
        <time>2016-07-25T20:12:06.000Z</time>
      </trkpt>
      <trkpt lat="48.80466" lon="2.52151">
        <ele>35.799999237061</ele>
        <time>2016-07-25T20:12:11.000Z</time>
      </trkpt>
      <trkpt lat="48.8047" lon="2.52148">
        <ele>36</ele>
        <time>2016-07-25T20:12:12.000Z</time>
      </trkpt>
      <trkpt lat="48.80486" lon="2.52137">
        <ele>36.599998474121</ele>
        <time>2016-07-25T20:12:16.000Z</time>
      </trkpt>
      <trkpt lat="48.80503" lon="2.52124">
        <ele>36.799999237061</ele>
        <time>2016-07-25T20:12:20.000Z</time>
      </trkpt>
      <trkpt lat="48.80516" lon="2.52114">
        <ele>37</ele>
        <time>2016-07-25T20:12:24.000Z</time>
      </trkpt>
      <trkpt lat="48.80536" lon="2.52099">
        <ele>36.799999237061</ele>
        <time>2016-07-25T20:12:39.000Z</time>
      </trkpt>
      <trkpt lat="48.80549" lon="2.52086">
        <ele>36.599998474121</ele>
        <time>2016-07-25T20:12:42.000Z</time>
      </trkpt>
      <trkpt lat="48.80567" lon="2.52067">
        <ele>36.400001525879</ele>
        <time>2016-07-25T20:12:46.000Z</time>
      </trkpt>
      <trkpt lat="48.80588" lon="2.5205">
        <ele>36.599998474121</ele>
        <time>2016-07-25T20:12:50.000Z</time>
      </trkpt>
      <trkpt lat="48.80604" lon="2.52033">
        <ele>37.200000762939</ele>
        <time>2016-07-25T20:12:53.000Z</time>
      </trkpt>
      <trkpt lat="48.80622" lon="2.52015">
        <ele>37</ele>
        <time>2016-07-25T20:12:56.000Z</time>
      </trkpt>
      <trkpt lat="48.8064" lon="2.51997">
        <ele>36.799999237061</ele>
        <time>2016-07-25T20:12:59.000Z</time>
      </trkpt>
      <trkpt lat="48.80656" lon="2.51981">
        <ele>36.200000762939</ele>
        <time>2016-07-25T20:13:02.000Z</time>
      </trkpt>
      <trkpt lat="48.80672" lon="2.51964">
        <ele>36.400001525879</ele>
        <time>2016-07-25T20:13:05.000Z</time>
      </trkpt>
      <trkpt lat="48.80688" lon="2.51946">
        <ele>37</ele>
        <time>2016-07-25T20:13:08.000Z</time>
      </trkpt>
      <trkpt lat="48.80704" lon="2.51928">
        <ele>37.599998474121</ele>
        <time>2016-07-25T20:13:11.000Z</time>
      </trkpt>
      <trkpt lat="48.8072" lon="2.51908">
        <ele>37.200000762939</ele>
        <time>2016-07-25T20:13:14.000Z</time>
      </trkpt>
      <trkpt lat="48.80737" lon="2.51888">
        <ele>36.400001525879</ele>
        <time>2016-07-25T20:13:17.000Z</time>
      </trkpt>
      <trkpt lat="48.80752" lon="2.51867">
        <ele>36.599998474121</ele>
        <time>2016-07-25T20:13:20.000Z</time>
      </trkpt>
      <trkpt lat="48.80756" lon="2.5186">
        <ele>36.599998474121</ele>
        <time>2016-07-25T20:13:21.000Z</time>
      </trkpt>
      <trkpt lat="48.80771" lon="2.51838">
        <ele>37</ele>
        <time>2016-07-25T20:13:24.000Z</time>
      </trkpt>
      <trkpt lat="48.80783" lon="2.51815">
        <ele>37.200000762939</ele>
        <time>2016-07-25T20:13:27.000Z</time>
      </trkpt>
      <trkpt lat="48.80794" lon="2.51792">
        <ele>37.200000762939</ele>
        <time>2016-07-25T20:13:30.000Z</time>
      </trkpt>
      <trkpt lat="48.80807" lon="2.51772">
        <ele>37.400001525879</ele>
        <time>2016-07-25T20:13:33.000Z</time>
      </trkpt>
      <trkpt lat="48.80818" lon="2.5175">
        <ele>37.599998474121</ele>
        <time>2016-07-25T20:13:36.000Z</time>
      </trkpt>
      <trkpt lat="48.80827" lon="2.51724">
        <ele>38.200000762939</ele>
        <time>2016-07-25T20:13:39.000Z</time>
      </trkpt>
      <trkpt lat="48.80831" lon="2.51717">
        <ele>38</ele>
        <time>2016-07-25T20:13:40.000Z</time>
      </trkpt>
      <trkpt lat="48.80842" lon="2.51692">
        <ele>37</ele>
        <time>2016-07-25T20:13:43.000Z</time>
      </trkpt>
      <trkpt lat="48.80851" lon="2.51666">
        <ele>36.200000762939</ele>
        <time>2016-07-25T20:13:46.000Z</time>
      </trkpt>
      <trkpt lat="48.80859" lon="2.51638">
        <ele>36.400001525879</ele>
        <time>2016-07-25T20:13:49.000Z</time>
      </trkpt>
      <trkpt lat="48.80866" lon="2.51609">
        <ele>36.799999237061</ele>
        <time>2016-07-25T20:13:52.000Z</time>
      </trkpt>
      <trkpt lat="48.8087" lon="2.51592">
        <ele>37</ele>
        <time>2016-07-25T20:13:54.000Z</time>
      </trkpt>
      <trkpt lat="48.80877" lon="2.51564">
        <ele>37.799999237061</ele>
        <time>2016-07-25T20:13:57.000Z</time>
      </trkpt>
      <trkpt lat="48.80884" lon="2.51537">
        <ele>38.400001525879</ele>
        <time>2016-07-25T20:14:00.000Z</time>
      </trkpt>
      <trkpt lat="48.80891" lon="2.51509">
        <ele>38.200000762939</ele>
        <time>2016-07-25T20:14:03.000Z</time>
      </trkpt>
      <trkpt lat="48.80897" lon="2.5148">
        <ele>38.200000762939</ele>
        <time>2016-07-25T20:14:06.000Z</time>
      </trkpt>
      <trkpt lat="48.80903" lon="2.51451">
        <ele>38</ele>
        <time>2016-07-25T20:14:09.000Z</time>
      </trkpt>
      <trkpt lat="48.80909" lon="2.51421">
        <ele>36.799999237061</ele>
        <time>2016-07-25T20:14:12.000Z</time>
      </trkpt>
      <trkpt lat="48.80913" lon="2.51389">
        <ele>36.799999237061</ele>
        <time>2016-07-25T20:14:15.000Z</time>
      </trkpt>
      <trkpt lat="48.80916" lon="2.51356">
        <ele>36.200000762939</ele>
        <time>2016-07-25T20:14:18.000Z</time>
      </trkpt>
      <trkpt lat="48.8092" lon="2.51322">
        <ele>35.599998474121</ele>
        <time>2016-07-25T20:14:21.000Z</time>
      </trkpt>
      <trkpt lat="48.80922" lon="2.51292">
        <ele>36.200000762939</ele>
        <time>2016-07-25T20:14:24.000Z</time>
      </trkpt>
      <trkpt lat="48.80925" lon="2.51257">
        <ele>37.400001525879</ele>
        <time>2016-07-25T20:14:27.000Z</time>
      </trkpt>
      <trkpt lat="48.80929" lon="2.51223">
        <ele>37.599998474121</ele>
        <time>2016-07-25T20:14:30.000Z</time>
      </trkpt>
      <trkpt lat="48.80932" lon="2.51188">
        <ele>38</ele>
        <time>2016-07-25T20:14:33.000Z</time>
      </trkpt>
      <trkpt lat="48.80935" lon="2.51152">
        <ele>38</ele>
        <time>2016-07-25T20:14:36.000Z</time>
      </trkpt>
      <trkpt lat="48.80937" lon="2.51118">
        <ele>38</ele>
        <time>2016-07-25T20:14:39.000Z</time>
      </trkpt>
      <trkpt lat="48.80941" lon="2.51089">
        <ele>37.799999237061</ele>
        <time>2016-07-25T20:14:42.000Z</time>
      </trkpt>
      <trkpt lat="48.80946" lon="2.51061">
        <ele>38</ele>
        <time>2016-07-25T20:14:45.000Z</time>
      </trkpt>
      <trkpt lat="48.80947" lon="2.51054">
        <ele>38.200000762939</ele>
        <time>2016-07-25T20:14:46.000Z</time>
      </trkpt>
      <trkpt lat="48.8095" lon="2.51027">
        <ele>38.400001525879</ele>
        <time>2016-07-25T20:14:50.000Z</time>
      </trkpt>
      <trkpt lat="48.80952" lon="2.51">
        <ele>38.799999237061</ele>
        <time>2016-07-25T20:14:55.000Z</time>
      </trkpt>
      <trkpt lat="48.80951" lon="2.50982">
        <ele>39.200000762939</ele>
        <time>2016-07-25T20:15:00.000Z</time>
      </trkpt>
      <trkpt lat="48.80951" lon="2.50976">
        <ele>39.400001525879</ele>
        <time>2016-07-25T20:15:03.000Z</time>
      </trkpt>
      <trkpt lat="48.80956" lon="2.50986">
        <ele>39.200000762939</ele>
        <time>2016-07-25T20:16:05.000Z</time>
      </trkpt>
      <trkpt lat="48.80957" lon="2.50975">
        <ele>39.400001525879</ele>
        <time>2016-07-25T20:18:14.000Z</time>
      </trkpt>
      <trkpt lat="48.80952" lon="2.50946">
        <ele>40.200000762939</ele>
        <time>2016-07-25T20:18:29.000Z</time>
      </trkpt>
      <trkpt lat="48.80956" lon="2.50915">
        <ele>40.200000762939</ele>
        <time>2016-07-25T20:18:36.000Z</time>
      </trkpt>
      <trkpt lat="48.80962" lon="2.50889">
        <ele>40.200000762939</ele>
        <time>2016-07-25T20:18:40.000Z</time>
      </trkpt>
      <trkpt lat="48.80972" lon="2.50857">
        <ele>39.799999237061</ele>
        <time>2016-07-25T20:18:44.000Z</time>
      </trkpt>
      <trkpt lat="48.80979" lon="2.5083">
        <ele>39.200000762939</ele>
        <time>2016-07-25T20:18:47.000Z</time>
      </trkpt>
      <trkpt lat="48.80983" lon="2.50812">
        <ele>39.599998474121</ele>
        <time>2016-07-25T20:18:49.000Z</time>
      </trkpt>
      <trkpt lat="48.80989" lon="2.50786">
        <ele>39.799999237061</ele>
        <time>2016-07-25T20:18:52.000Z</time>
      </trkpt>
      <trkpt lat="48.80994" lon="2.50753">
        <ele>39.599998474121</ele>
        <time>2016-07-25T20:18:56.000Z</time>
      </trkpt>
      <trkpt lat="48.80995" lon="2.50744">
        <ele>39.599998474121</ele>
        <time>2016-07-25T20:18:57.000Z</time>
      </trkpt>
      <trkpt lat="48.80997" lon="2.50719">
        <ele>40</ele>
        <time>2016-07-25T20:19:00.000Z</time>
      </trkpt>
      <trkpt lat="48.80998" lon="2.50686">
        <ele>41</ele>
        <time>2016-07-25T20:19:04.000Z</time>
      </trkpt>
      <trkpt lat="48.80998" lon="2.50671">
        <ele>41.599998474121</ele>
        <time>2016-07-25T20:19:06.000Z</time>
      </trkpt>
      <trkpt lat="48.80993" lon="2.50643">
        <ele>42.400001525879</ele>
        <time>2016-07-25T20:19:10.000Z</time>
      </trkpt>
      <trkpt lat="48.80994" lon="2.50623">
        <ele>42.400001525879</ele>
        <time>2016-07-25T20:19:13.000Z</time>
      </trkpt>
      <trkpt lat="48.80999" lon="2.50596">
        <ele>42</ele>
        <time>2016-07-25T20:19:17.000Z</time>
      </trkpt>
      <trkpt lat="48.81001" lon="2.50567">
        <ele>41.599998474121</ele>
        <time>2016-07-25T20:19:21.000Z</time>
      </trkpt>
      <trkpt lat="48.81005" lon="2.50539">
        <ele>41</ele>
        <time>2016-07-25T20:19:25.000Z</time>
      </trkpt>
      <trkpt lat="48.81005" lon="2.50525">
        <ele>40.799999237061</ele>
        <time>2016-07-25T20:19:27.000Z</time>
      </trkpt>
      <trkpt lat="48.81008" lon="2.50497">
        <ele>40.200000762939</ele>
        <time>2016-07-25T20:19:31.000Z</time>
      </trkpt>
      <trkpt lat="48.81012" lon="2.50468">
        <ele>40</ele>
        <time>2016-07-25T20:19:35.000Z</time>
      </trkpt>
      <trkpt lat="48.81015" lon="2.50441">
        <ele>39.799999237061</ele>
        <time>2016-07-25T20:19:39.000Z</time>
      </trkpt>
      <trkpt lat="48.81016" lon="2.50426">
        <ele>39.599998474121</ele>
        <time>2016-07-25T20:19:41.000Z</time>
      </trkpt>
      <trkpt lat="48.81016" lon="2.50411">
        <ele>39.799999237061</ele>
        <time>2016-07-25T20:19:43.000Z</time>
      </trkpt>
      <trkpt lat="48.8102" lon="2.50379">
        <ele>39.599998474121</ele>
        <time>2016-07-25T20:19:47.000Z</time>
      </trkpt>
      <trkpt lat="48.81021" lon="2.50372">
        <ele>39.599998474121</ele>
        <time>2016-07-25T20:19:48.000Z</time>
      </trkpt>
      <trkpt lat="48.81023" lon="2.50349">
        <ele>39.799999237061</ele>
        <time>2016-07-25T20:19:51.000Z</time>
      </trkpt>
      <trkpt lat="48.81023" lon="2.50316">
        <ele>40</ele>
        <time>2016-07-25T20:19:55.000Z</time>
      </trkpt>
      <trkpt lat="48.81025" lon="2.50287">
        <ele>40</ele>
        <time>2016-07-25T20:19:59.000Z</time>
      </trkpt>
      <trkpt lat="48.81024" lon="2.50279">
        <ele>40</ele>
        <time>2016-07-25T20:20:00.000Z</time>
      </trkpt>
      <trkpt lat="48.81024" lon="2.50247">
        <ele>39.799999237061</ele>
        <time>2016-07-25T20:20:04.000Z</time>
      </trkpt>
      <trkpt lat="48.81023" lon="2.50217">
        <ele>39.599998474121</ele>
        <time>2016-07-25T20:20:08.000Z</time>
      </trkpt>
      <trkpt lat="48.81023" lon="2.50184">
        <ele>39.200000762939</ele>
        <time>2016-07-25T20:20:12.000Z</time>
      </trkpt>
      <trkpt lat="48.81022" lon="2.50168">
        <ele>39</ele>
        <time>2016-07-25T20:20:14.000Z</time>
      </trkpt>
      <trkpt lat="48.8102" lon="2.50153">
        <ele>39.200000762939</ele>
        <time>2016-07-25T20:20:16.000Z</time>
      </trkpt>
      <trkpt lat="48.81021" lon="2.50124">
        <ele>39.599998474121</ele>
        <time>2016-07-25T20:20:20.000Z</time>
      </trkpt>
      <trkpt lat="48.8102" lon="2.50116">
        <ele>39.799999237061</ele>
        <time>2016-07-25T20:20:21.000Z</time>
      </trkpt>
      <trkpt lat="48.81016" lon="2.50086">
        <ele>40.400001525879</ele>
        <time>2016-07-25T20:20:25.000Z</time>
      </trkpt>
      <trkpt lat="48.81014" lon="2.50051">
        <ele>41.400001525879</ele>
        <time>2016-07-25T20:20:29.000Z</time>
      </trkpt>
      <trkpt lat="48.81012" lon="2.50024">
        <ele>42.200000762939</ele>
        <time>2016-07-25T20:20:32.000Z</time>
      </trkpt>
      <trkpt lat="48.81009" lon="2.49988">
        <ele>43</ele>
        <time>2016-07-25T20:20:36.000Z</time>
      </trkpt>
      <trkpt lat="48.81006" lon="2.49954">
        <ele>42.799999237061</ele>
        <time>2016-07-25T20:20:40.000Z</time>
      </trkpt>
      <trkpt lat="48.81003" lon="2.49923">
        <ele>42.599998474121</ele>
        <time>2016-07-25T20:20:44.000Z</time>
      </trkpt>
      <trkpt lat="48.81002" lon="2.49916">
        <ele>42.599998474121</ele>
        <time>2016-07-25T20:20:45.000Z</time>
      </trkpt>
      <trkpt lat="48.80999" lon="2.49885">
        <ele>43.400001525879</ele>
        <time>2016-07-25T20:20:49.000Z</time>
      </trkpt>
      <trkpt lat="48.80997" lon="2.49855">
        <ele>43.200000762939</ele>
        <time>2016-07-25T20:20:53.000Z</time>
      </trkpt>
      <trkpt lat="48.80997" lon="2.49827">
        <ele>42.799999237061</ele>
        <time>2016-07-25T20:20:57.000Z</time>
      </trkpt>
      <trkpt lat="48.80997" lon="2.49821">
        <ele>42.799999237061</ele>
        <time>2016-07-25T20:20:58.000Z</time>
      </trkpt>
      <trkpt lat="48.80996" lon="2.49796">
        <ele>42.799999237061</ele>
        <time>2016-07-25T20:21:02.000Z</time>
      </trkpt>
      <trkpt lat="48.80995" lon="2.49769">
        <ele>42.400001525879</ele>
        <time>2016-07-25T20:21:07.000Z</time>
      </trkpt>
      <trkpt lat="48.80996" lon="2.4974">
        <ele>42.200000762939</ele>
        <time>2016-07-25T20:21:11.000Z</time>
      </trkpt>
      <trkpt lat="48.81" lon="2.49713">
        <ele>41.799999237061</ele>
        <time>2016-07-25T20:21:15.000Z</time>
      </trkpt>
      <trkpt lat="48.81005" lon="2.49683">
        <ele>41.599998474121</ele>
        <time>2016-07-25T20:21:19.000Z</time>
      </trkpt>
      <trkpt lat="48.81008" lon="2.49661">
        <ele>41.400001525879</ele>
        <time>2016-07-25T20:21:22.000Z</time>
      </trkpt>
      <trkpt lat="48.81012" lon="2.49632">
        <ele>41.400001525879</ele>
        <time>2016-07-25T20:21:26.000Z</time>
      </trkpt>
      <trkpt lat="48.81013" lon="2.49625">
        <ele>41.599998474121</ele>
        <time>2016-07-25T20:21:27.000Z</time>
      </trkpt>
      <trkpt lat="48.81015" lon="2.49596">
        <ele>42.200000762939</ele>
        <time>2016-07-25T20:21:31.000Z</time>
      </trkpt>
      <trkpt lat="48.81018" lon="2.49567">
        <ele>42.200000762939</ele>
        <time>2016-07-25T20:21:35.000Z</time>
      </trkpt>
      <trkpt lat="48.81021" lon="2.49539">
        <ele>42</ele>
        <time>2016-07-25T20:21:39.000Z</time>
      </trkpt>
      <trkpt lat="48.81023" lon="2.49525">
        <ele>42</ele>
        <time>2016-07-25T20:21:41.000Z</time>
      </trkpt>
      <trkpt lat="48.81025" lon="2.49498">
        <ele>41.799999237061</ele>
        <time>2016-07-25T20:21:45.000Z</time>
      </trkpt>
      <trkpt lat="48.81026" lon="2.49476">
        <ele>41.599998474121</ele>
        <time>2016-07-25T20:21:48.000Z</time>
      </trkpt>
      <trkpt lat="48.8103" lon="2.49447">
        <ele>41.400001525879</ele>
        <time>2016-07-25T20:21:52.000Z</time>
      </trkpt>
      <trkpt lat="48.81036" lon="2.49417">
        <ele>41</ele>
        <time>2016-07-25T20:21:56.000Z</time>
      </trkpt>
      <trkpt lat="48.81042" lon="2.49389">
        <ele>39.799999237061</ele>
        <time>2016-07-25T20:22:00.000Z</time>
      </trkpt>
      <trkpt lat="48.81052" lon="2.49362">
        <ele>38.599998474121</ele>
        <time>2016-07-25T20:22:04.000Z</time>
      </trkpt>
      <trkpt lat="48.8106" lon="2.49328">
        <ele>38</ele>
        <time>2016-07-25T20:22:08.000Z</time>
      </trkpt>
      <trkpt lat="48.81067" lon="2.49301">
        <ele>37.400001525879</ele>
        <time>2016-07-25T20:22:11.000Z</time>
      </trkpt>
      <trkpt lat="48.81071" lon="2.49273">
        <ele>37.599998474121</ele>
        <time>2016-07-25T20:22:14.000Z</time>
      </trkpt>
      <trkpt lat="48.81076" lon="2.49243">
        <ele>37.799999237061</ele>
        <time>2016-07-25T20:22:17.000Z</time>
      </trkpt>
      <trkpt lat="48.81081" lon="2.49213">
        <ele>38.400001525879</ele>
        <time>2016-07-25T20:22:20.000Z</time>
      </trkpt>
      <trkpt lat="48.81086" lon="2.49183">
        <ele>38.400001525879</ele>
        <time>2016-07-25T20:22:23.000Z</time>
      </trkpt>
      <trkpt lat="48.81094" lon="2.49152">
        <ele>38.400001525879</ele>
        <time>2016-07-25T20:22:26.000Z</time>
      </trkpt>
      <trkpt lat="48.811" lon="2.49122">
        <ele>37.799999237061</ele>
        <time>2016-07-25T20:22:29.000Z</time>
      </trkpt>
      <trkpt lat="48.81102" lon="2.49102">
        <ele>37.400001525879</ele>
        <time>2016-07-25T20:22:31.000Z</time>
      </trkpt>
      <trkpt lat="48.81104" lon="2.49086">
        <ele>37</ele>
        <time>2016-07-25T20:22:33.000Z</time>
      </trkpt>
      <trkpt lat="48.81115" lon="2.49059">
        <ele>37</ele>
        <time>2016-07-25T20:22:37.000Z</time>
      </trkpt>
      <trkpt lat="48.81119" lon="2.49042">
        <ele>37.200000762939</ele>
        <time>2016-07-25T20:22:39.000Z</time>
      </trkpt>
      <trkpt lat="48.81125" lon="2.49017">
        <ele>37.400001525879</ele>
        <time>2016-07-25T20:22:42.000Z</time>
      </trkpt>
      <trkpt lat="48.81131" lon="2.48989">
        <ele>37.599998474121</ele>
        <time>2016-07-25T20:22:45.000Z</time>
      </trkpt>
      <trkpt lat="48.81137" lon="2.48962">
        <ele>37.599998474121</ele>
        <time>2016-07-25T20:22:48.000Z</time>
      </trkpt>
      <trkpt lat="48.81143" lon="2.48935">
        <ele>37.599998474121</ele>
        <time>2016-07-25T20:22:51.000Z</time>
      </trkpt>
      <trkpt lat="48.81148" lon="2.48907">
        <ele>37.799999237061</ele>
        <time>2016-07-25T20:22:54.000Z</time>
      </trkpt>
      <trkpt lat="48.81154" lon="2.48881">
        <ele>38.400001525879</ele>
        <time>2016-07-25T20:22:57.000Z</time>
      </trkpt>
      <trkpt lat="48.8116" lon="2.48855">
        <ele>38</ele>
        <time>2016-07-25T20:23:00.000Z</time>
      </trkpt>
      <trkpt lat="48.81167" lon="2.48827">
        <ele>37.400001525879</ele>
        <time>2016-07-25T20:23:03.000Z</time>
      </trkpt>
      <trkpt lat="48.81175" lon="2.48797">
        <ele>36.400001525879</ele>
        <time>2016-07-25T20:23:06.000Z</time>
      </trkpt>
      <trkpt lat="48.81183" lon="2.48768">
        <ele>36.200000762939</ele>
        <time>2016-07-25T20:23:09.000Z</time>
      </trkpt>
      <trkpt lat="48.81191" lon="2.48728">
        <ele>36</ele>
        <time>2016-07-25T20:23:12.000Z</time>
      </trkpt>
      <trkpt lat="48.81193" lon="2.48717">
        <ele>35.799999237061</ele>
        <time>2016-07-25T20:23:13.000Z</time>
      </trkpt>
      <trkpt lat="48.81199" lon="2.48688">
        <ele>35.799999237061</ele>
        <time>2016-07-25T20:23:16.000Z</time>
      </trkpt>
      <trkpt lat="48.81203" lon="2.4867">
        <ele>35.599998474121</ele>
        <time>2016-07-25T20:23:18.000Z</time>
      </trkpt>
      <trkpt lat="48.81207" lon="2.48634">
        <ele>35.200000762939</ele>
        <time>2016-07-25T20:23:22.000Z</time>
      </trkpt>
      <trkpt lat="48.8121" lon="2.48599">
        <ele>34.799999237061</ele>
        <time>2016-07-25T20:23:26.000Z</time>
      </trkpt>
      <trkpt lat="48.81211" lon="2.48591">
        <ele>35</ele>
        <time>2016-07-25T20:23:27.000Z</time>
      </trkpt>
      <trkpt lat="48.81217" lon="2.48556">
        <ele>35.400001525879</ele>
        <time>2016-07-25T20:23:31.000Z</time>
      </trkpt>
      <trkpt lat="48.81219" lon="2.48525">
        <ele>35.799999237061</ele>
        <time>2016-07-25T20:23:34.000Z</time>
      </trkpt>
      <trkpt lat="48.81221" lon="2.48498">
        <ele>36.400001525879</ele>
        <time>2016-07-25T20:23:37.000Z</time>
      </trkpt>
      <trkpt lat="48.81222" lon="2.48469">
        <ele>36</ele>
        <time>2016-07-25T20:23:40.000Z</time>
      </trkpt>
      <trkpt lat="48.81228" lon="2.48441">
        <ele>35.799999237061</ele>
        <time>2016-07-25T20:23:43.000Z</time>
      </trkpt>
      <trkpt lat="48.81235" lon="2.48406">
        <ele>36</ele>
        <time>2016-07-25T20:23:47.000Z</time>
      </trkpt>
      <trkpt lat="48.81237" lon="2.48386">
        <ele>36.599998474121</ele>
        <time>2016-07-25T20:23:49.000Z</time>
      </trkpt>
      <trkpt lat="48.81241" lon="2.48356">
        <ele>36.799999237061</ele>
        <time>2016-07-25T20:23:52.000Z</time>
      </trkpt>
      <trkpt lat="48.81245" lon="2.48329">
        <ele>36.599998474121</ele>
        <time>2016-07-25T20:23:55.000Z</time>
      </trkpt>
      <trkpt lat="48.8125" lon="2.48296">
        <ele>36.200000762939</ele>
        <time>2016-07-25T20:23:59.000Z</time>
      </trkpt>
      <trkpt lat="48.81258" lon="2.48263">
        <ele>36.200000762939</ele>
        <time>2016-07-25T20:24:03.000Z</time>
      </trkpt>
      <trkpt lat="48.8126" lon="2.48246">
        <ele>36.200000762939</ele>
        <time>2016-07-25T20:24:05.000Z</time>
      </trkpt>
      <trkpt lat="48.81266" lon="2.48212">
        <ele>36.200000762939</ele>
        <time>2016-07-25T20:24:09.000Z</time>
      </trkpt>
      <trkpt lat="48.81272" lon="2.48177">
        <ele>36</ele>
        <time>2016-07-25T20:24:13.000Z</time>
      </trkpt>
      <trkpt lat="48.81276" lon="2.4815">
        <ele>36</ele>
        <time>2016-07-25T20:24:16.000Z</time>
      </trkpt>
      <trkpt lat="48.81281" lon="2.48115">
        <ele>36</ele>
        <time>2016-07-25T20:24:20.000Z</time>
      </trkpt>
      <trkpt lat="48.81286" lon="2.4808">
        <ele>36.200000762939</ele>
        <time>2016-07-25T20:24:24.000Z</time>
      </trkpt>
      <trkpt lat="48.81287" lon="2.48072">
        <ele>36.599998474121</ele>
        <time>2016-07-25T20:24:25.000Z</time>
      </trkpt>
      <trkpt lat="48.8129" lon="2.48046">
        <ele>38.200000762939</ele>
        <time>2016-07-25T20:24:28.000Z</time>
      </trkpt>
      <trkpt lat="48.81295" lon="2.48013">
        <ele>39.400001525879</ele>
        <time>2016-07-25T20:24:32.000Z</time>
      </trkpt>
      <trkpt lat="48.81299" lon="2.47982">
        <ele>39</ele>
        <time>2016-07-25T20:24:37.000Z</time>
      </trkpt>
      <trkpt lat="48.81301" lon="2.47975">
        <ele>38.799999237061</ele>
        <time>2016-07-25T20:24:40.000Z</time>
      </trkpt>
      <trkpt lat="48.81302" lon="2.47977">
        <ele>38.799999237061</ele>
        <time>2016-07-25T20:26:44.000Z</time>
      </trkpt>
      <trkpt lat="48.81308" lon="2.47947">
        <ele>38.599998474121</ele>
        <time>2016-07-25T20:26:52.000Z</time>
      </trkpt>
      <trkpt lat="48.81319" lon="2.47921">
        <ele>37.400001525879</ele>
        <time>2016-07-25T20:26:56.000Z</time>
      </trkpt>
      <trkpt lat="48.81329" lon="2.47898">
        <ele>36.400001525879</ele>
        <time>2016-07-25T20:26:59.000Z</time>
      </trkpt>
      <trkpt lat="48.8134" lon="2.47874">
        <ele>36</ele>
        <time>2016-07-25T20:27:02.000Z</time>
      </trkpt>
      <trkpt lat="48.8135" lon="2.47852">
        <ele>35.799999237061</ele>
        <time>2016-07-25T20:27:05.000Z</time>
      </trkpt>
      <trkpt lat="48.8136" lon="2.47828">
        <ele>36.400001525879</ele>
        <time>2016-07-25T20:27:08.000Z</time>
      </trkpt>
      <trkpt lat="48.81372" lon="2.47798">
        <ele>37.599998474121</ele>
        <time>2016-07-25T20:27:12.000Z</time>
      </trkpt>
      <trkpt lat="48.81384" lon="2.47768">
        <ele>38.200000762939</ele>
        <time>2016-07-25T20:27:16.000Z</time>
      </trkpt>
      <trkpt lat="48.81397" lon="2.47739">
        <ele>37.200000762939</ele>
        <time>2016-07-25T20:27:20.000Z</time>
      </trkpt>
      <trkpt lat="48.81407" lon="2.4771">
        <ele>37.400001525879</ele>
        <time>2016-07-25T20:27:24.000Z</time>
      </trkpt>
      <trkpt lat="48.81415" lon="2.47683">
        <ele>36.599998474121</ele>
        <time>2016-07-25T20:27:28.000Z</time>
      </trkpt>
      <trkpt lat="48.81418" lon="2.47677">
        <ele>36.400001525879</ele>
        <time>2016-07-25T20:27:29.000Z</time>
      </trkpt>
      <trkpt lat="48.81423" lon="2.47659">
        <ele>36</ele>
        <time>2016-07-25T20:27:32.000Z</time>
      </trkpt>
      <trkpt lat="48.81432" lon="2.47632">
        <ele>36</ele>
        <time>2016-07-25T20:27:36.000Z</time>
      </trkpt>
      <trkpt lat="48.81436" lon="2.47618">
        <ele>36.200000762939</ele>
        <time>2016-07-25T20:27:38.000Z</time>
      </trkpt>
      <trkpt lat="48.81442" lon="2.47592">
        <ele>36.799999237061</ele>
        <time>2016-07-25T20:27:41.000Z</time>
      </trkpt>
      <trkpt lat="48.81451" lon="2.47566">
        <ele>37</ele>
        <time>2016-07-25T20:27:44.000Z</time>
      </trkpt>
      <trkpt lat="48.81462" lon="2.4754">
        <ele>37.200000762939</ele>
        <time>2016-07-25T20:27:47.000Z</time>
      </trkpt>
      <trkpt lat="48.81472" lon="2.47516">
        <ele>37.799999237061</ele>
        <time>2016-07-25T20:27:50.000Z</time>
      </trkpt>
      <trkpt lat="48.81482" lon="2.47492">
        <ele>38.799999237061</ele>
        <time>2016-07-25T20:27:53.000Z</time>
      </trkpt>
      <trkpt lat="48.8149" lon="2.47476">
        <ele>39.200000762939</ele>
        <time>2016-07-25T20:27:55.000Z</time>
      </trkpt>
      <trkpt lat="48.81502" lon="2.47451">
        <ele>38.599998474121</ele>
        <time>2016-07-25T20:27:58.000Z</time>
      </trkpt>
      <trkpt lat="48.81515" lon="2.47425">
        <ele>37.400001525879</ele>
        <time>2016-07-25T20:28:01.000Z</time>
      </trkpt>
      <trkpt lat="48.81528" lon="2.47398">
        <ele>37</ele>
        <time>2016-07-25T20:28:04.000Z</time>
      </trkpt>
      <trkpt lat="48.81538" lon="2.47372">
        <ele>37</ele>
        <time>2016-07-25T20:28:07.000Z</time>
      </trkpt>
      <trkpt lat="48.81545" lon="2.47356">
        <ele>37</ele>
        <time>2016-07-25T20:28:09.000Z</time>
      </trkpt>
      <trkpt lat="48.81555" lon="2.4733">
        <ele>36.200000762939</ele>
        <time>2016-07-25T20:28:12.000Z</time>
      </trkpt>
      <trkpt lat="48.81563" lon="2.47314">
        <ele>36</ele>
        <time>2016-07-25T20:28:14.000Z</time>
      </trkpt>
      <trkpt lat="48.81575" lon="2.47287">
        <ele>36</ele>
        <time>2016-07-25T20:28:17.000Z</time>
      </trkpt>
      <trkpt lat="48.81586" lon="2.47266">
        <ele>36.599998474121</ele>
        <time>2016-07-25T20:28:20.000Z</time>
      </trkpt>
      <trkpt lat="48.81598" lon="2.47243">
        <ele>37.200000762939</ele>
        <time>2016-07-25T20:28:23.000Z</time>
      </trkpt>
      <trkpt lat="48.81612" lon="2.47221">
        <ele>37.400001525879</ele>
        <time>2016-07-25T20:28:26.000Z</time>
      </trkpt>
      <trkpt lat="48.81626" lon="2.47202">
        <ele>37.599998474121</ele>
        <time>2016-07-25T20:28:29.000Z</time>
      </trkpt>
      <trkpt lat="48.81644" lon="2.47182">
        <ele>37.200000762939</ele>
        <time>2016-07-25T20:28:33.000Z</time>
      </trkpt>
      <trkpt lat="48.81658" lon="2.47165">
        <ele>36.799999237061</ele>
        <time>2016-07-25T20:28:36.000Z</time>
      </trkpt>
      <trkpt lat="48.81676" lon="2.47142">
        <ele>36.799999237061</ele>
        <time>2016-07-25T20:28:40.000Z</time>
      </trkpt>
      <trkpt lat="48.8169" lon="2.47124">
        <ele>37</ele>
        <time>2016-07-25T20:28:43.000Z</time>
      </trkpt>
      <trkpt lat="48.817" lon="2.47113">
        <ele>37.200000762939</ele>
        <time>2016-07-25T20:28:45.000Z</time>
      </trkpt>
      <trkpt lat="48.81709" lon="2.47102">
        <ele>37.599998474121</ele>
        <time>2016-07-25T20:28:47.000Z</time>
      </trkpt>
      <trkpt lat="48.81727" lon="2.4708">
        <ele>37.599998474121</ele>
        <time>2016-07-25T20:28:51.000Z</time>
      </trkpt>
      <trkpt lat="48.81742" lon="2.47062">
        <ele>37.599998474121</ele>
        <time>2016-07-25T20:28:54.000Z</time>
      </trkpt>
      <trkpt lat="48.81757" lon="2.47046">
        <ele>37.599998474121</ele>
        <time>2016-07-25T20:28:57.000Z</time>
      </trkpt>
      <trkpt lat="48.81772" lon="2.4703">
        <ele>37.599998474121</ele>
        <time>2016-07-25T20:29:00.000Z</time>
      </trkpt>
      <trkpt lat="48.81777" lon="2.47024">
        <ele>37.599998474121</ele>
        <time>2016-07-25T20:29:01.000Z</time>
      </trkpt>
      <trkpt lat="48.81788" lon="2.47003">
        <ele>37.799999237061</ele>
        <time>2016-07-25T20:29:04.000Z</time>
      </trkpt>
      <trkpt lat="48.81791" lon="2.46995">
        <ele>37.799999237061</ele>
        <time>2016-07-25T20:29:05.000Z</time>
      </trkpt>
      <trkpt lat="48.81793" lon="2.46988">
        <ele>38</ele>
        <time>2016-07-25T20:29:06.000Z</time>
      </trkpt>
      <trkpt lat="48.81797" lon="2.46958">
        <ele>38.799999237061</ele>
        <time>2016-07-25T20:29:10.000Z</time>
      </trkpt>
      <trkpt lat="48.81797" lon="2.46949">
        <ele>39</ele>
        <time>2016-07-25T20:29:11.000Z</time>
      </trkpt>
      <trkpt lat="48.81791" lon="2.46922">
        <ele>39.200000762939</ele>
        <time>2016-07-25T20:29:15.000Z</time>
      </trkpt>
      <trkpt lat="48.81783" lon="2.46896">
        <ele>41</ele>
        <time>2016-07-25T20:29:19.000Z</time>
      </trkpt>
      <trkpt lat="48.81773" lon="2.46868">
        <ele>43.400001525879</ele>
        <time>2016-07-25T20:29:24.000Z</time>
      </trkpt>
      <trkpt lat="48.81772" lon="2.46864">
        <ele>43.799999237061</ele>
        <time>2016-07-25T20:29:25.000Z</time>
      </trkpt>
      <trkpt lat="48.81768" lon="2.4685">
        <ele>45.200000762939</ele>
        <time>2016-07-25T20:29:29.000Z</time>
      </trkpt>
      <trkpt lat="48.81771" lon="2.46831">
        <ele>46.200000762939</ele>
        <time>2016-07-25T20:29:34.000Z</time>
      </trkpt>
      <trkpt lat="48.81772" lon="2.46828">
        <ele>46.400001525879</ele>
        <time>2016-07-25T20:29:35.000Z</time>
      </trkpt>
      <trkpt lat="48.81778" lon="2.46819">
        <ele>46.799999237061</ele>
        <time>2016-07-25T20:29:39.000Z</time>
      </trkpt>
      <trkpt lat="48.81787" lon="2.46811">
        <ele>47.200000762939</ele>
        <time>2016-07-25T20:29:45.000Z</time>
      </trkpt>
      <trkpt lat="48.81799" lon="2.46799">
        <ele>47.599998474121</ele>
        <time>2016-07-25T20:30:37.000Z</time>
      </trkpt>
      <trkpt lat="48.81791" lon="2.46784">
        <ele>49.200000762939</ele>
        <time>2016-07-25T20:31:07.000Z</time>
      </trkpt>
      <trkpt lat="48.81779" lon="2.46771">
        <ele>50.799999237061</ele>
        <time>2016-07-25T20:31:15.000Z</time>
      </trkpt>
      <trkpt lat="48.81767" lon="2.4675">
        <ele>53</ele>
        <time>2016-07-25T20:31:25.000Z</time>
      </trkpt>
      <trkpt lat="48.81753" lon="2.4673">
        <ele>53</ele>
        <time>2016-07-25T20:31:38.000Z</time>
      </trkpt>
      <trkpt lat="48.81744" lon="2.46715">
        <ele>53</ele>
        <time>2016-07-25T20:31:51.000Z</time>
      </trkpt>
      <trkpt lat="48.8173" lon="2.46702">
        <ele>53</ele>
        <time>2016-07-25T20:32:03.000Z</time>
      </trkpt>
      <trkpt lat="48.81724" lon="2.46693">
        <ele>53.200000762939</ele>
        <time>2016-07-25T20:32:08.000Z</time>
      </trkpt>
      <trkpt lat="48.81717" lon="2.4668">
        <ele>53.200000762939</ele>
        <time>2016-07-25T20:32:13.000Z</time>
      </trkpt>
      <trkpt lat="48.8171" lon="2.46662">
        <ele>53.400001525879</ele>
        <time>2016-07-25T20:32:34.000Z</time>
      </trkpt>
      <trkpt lat="48.81697" lon="2.4664">
        <ele>54.400001525879</ele>
        <time>2016-07-25T20:32:38.000Z</time>
      </trkpt>
      <trkpt lat="48.81682" lon="2.46617">
        <ele>55.400001525879</ele>
        <time>2016-07-25T20:32:42.000Z</time>
      </trkpt>
      <trkpt lat="48.81665" lon="2.46592">
        <ele>56.599998474121</ele>
        <time>2016-07-25T20:32:46.000Z</time>
      </trkpt>
      <trkpt lat="48.81649" lon="2.46568">
        <ele>56.599998474121</ele>
        <time>2016-07-25T20:32:50.000Z</time>
      </trkpt>
      <trkpt lat="48.81633" lon="2.46542">
        <ele>56</ele>
        <time>2016-07-25T20:32:54.000Z</time>
      </trkpt>
      <trkpt lat="48.81618" lon="2.46515">
        <ele>55.400001525879</ele>
        <time>2016-07-25T20:32:58.000Z</time>
      </trkpt>
      <trkpt lat="48.81605" lon="2.46494">
        <ele>55</ele>
        <time>2016-07-25T20:33:01.000Z</time>
      </trkpt>
      <trkpt lat="48.81594" lon="2.46472">
        <ele>54.599998474121</ele>
        <time>2016-07-25T20:33:04.000Z</time>
      </trkpt>
      <trkpt lat="48.81582" lon="2.46449">
        <ele>53.799999237061</ele>
        <time>2016-07-25T20:33:07.000Z</time>
      </trkpt>
      <trkpt lat="48.81569" lon="2.46428">
        <ele>53.200000762939</ele>
        <time>2016-07-25T20:33:10.000Z</time>
      </trkpt>
      <trkpt lat="48.81556" lon="2.46408">
        <ele>52.400001525879</ele>
        <time>2016-07-25T20:33:13.000Z</time>
      </trkpt>
      <trkpt lat="48.81545" lon="2.46386">
        <ele>51.599998474121</ele>
        <time>2016-07-25T20:33:16.000Z</time>
      </trkpt>
      <trkpt lat="48.81538" lon="2.46372">
        <ele>51.200000762939</ele>
        <time>2016-07-25T20:33:18.000Z</time>
      </trkpt>
      <trkpt lat="48.81525" lon="2.4635">
        <ele>50.200000762939</ele>
        <time>2016-07-25T20:33:22.000Z</time>
      </trkpt>
      <trkpt lat="48.81517" lon="2.4634">
        <ele>49.599998474121</ele>
        <time>2016-07-25T20:33:25.000Z</time>
      </trkpt>
      <trkpt lat="48.81512" lon="2.46333">
        <ele>49.200000762939</ele>
        <time>2016-07-25T20:33:27.000Z</time>
      </trkpt>
      <trkpt lat="48.81506" lon="2.46319">
        <ele>48.599998474121</ele>
        <time>2016-07-25T20:33:31.000Z</time>
      </trkpt>
      <trkpt lat="48.81504" lon="2.46309">
        <ele>48.599998474121</ele>
        <time>2016-07-25T20:33:37.000Z</time>
      </trkpt>
      <trkpt lat="48.81495" lon="2.46289">
        <ele>48</ele>
        <time>2016-07-25T20:33:47.000Z</time>
      </trkpt>
      <trkpt lat="48.81479" lon="2.4627">
        <ele>46.599998474121</ele>
        <time>2016-07-25T20:33:54.000Z</time>
      </trkpt>
      <trkpt lat="48.81466" lon="2.46248">
        <ele>45.599998474121</ele>
        <time>2016-07-25T20:33:59.000Z</time>
      </trkpt>
      <trkpt lat="48.81458" lon="2.46232">
        <ele>44.400001525879</ele>
        <time>2016-07-25T20:34:04.000Z</time>
      </trkpt>
      <trkpt lat="48.81465" lon="2.46213">
        <ele>44.599998474121</ele>
        <time>2016-07-25T20:34:08.000Z</time>
      </trkpt>
      <trkpt lat="48.81478" lon="2.46192">
        <ele>44.799999237061</ele>
        <time>2016-07-25T20:34:13.000Z</time>
      </trkpt>
      <trkpt lat="48.81494" lon="2.46168">
        <ele>43.799999237061</ele>
        <time>2016-07-25T20:34:18.000Z</time>
      </trkpt>
      <trkpt lat="48.81507" lon="2.46149">
        <ele>44.400001525879</ele>
        <time>2016-07-25T20:34:22.000Z</time>
      </trkpt>
      <trkpt lat="48.81522" lon="2.46127">
        <ele>44</ele>
        <time>2016-07-25T20:34:27.000Z</time>
      </trkpt>
      <trkpt lat="48.81538" lon="2.46102">
        <ele>45.200000762939</ele>
        <time>2016-07-25T20:34:32.000Z</time>
      </trkpt>
      <trkpt lat="48.81551" lon="2.46079">
        <ele>45.599998474121</ele>
        <time>2016-07-25T20:34:37.000Z</time>
      </trkpt>
      <trkpt lat="48.81566" lon="2.46054">
        <ele>47</ele>
        <time>2016-07-25T20:34:42.000Z</time>
      </trkpt>
      <trkpt lat="48.81578" lon="2.46028">
        <ele>47</ele>
        <time>2016-07-25T20:34:47.000Z</time>
      </trkpt>
      <trkpt lat="48.81579" lon="2.46024">
        <ele>47</ele>
        <time>2016-07-25T20:34:48.000Z</time>
      </trkpt>
      <trkpt lat="48.81581" lon="2.4602">
        <ele>46.799999237061</ele>
        <time>2016-07-25T20:34:50.000Z</time>
      </trkpt>
      <trkpt lat="48.81591" lon="2.45996">
        <ele>46.400001525879</ele>
        <time>2016-07-25T20:35:00.000Z</time>
      </trkpt>
      <trkpt lat="48.816" lon="2.4597">
        <ele>46.200000762939</ele>
        <time>2016-07-25T20:35:06.000Z</time>
      </trkpt>
      <trkpt lat="48.81604" lon="2.45959">
        <ele>46</ele>
        <time>2016-07-25T20:35:11.000Z</time>
      </trkpt>
      <trkpt lat="48.81607" lon="2.45928">
        <ele>45.599998474121</ele>
        <time>2016-07-25T20:35:31.000Z</time>
      </trkpt>
      <trkpt lat="48.81609" lon="2.459">
        <ele>44.200000762939</ele>
        <time>2016-07-25T20:35:36.000Z</time>
      </trkpt>
      <trkpt lat="48.81616" lon="2.4587">
        <ele>42.599998474121</ele>
        <time>2016-07-25T20:35:42.000Z</time>
      </trkpt>
      <trkpt lat="48.81619" lon="2.45866">
        <ele>42.599998474121</ele>
        <time>2016-07-25T20:35:44.000Z</time>
      </trkpt>
      <trkpt lat="48.81614" lon="2.45877">
        <ele>42.799999237061</ele>
        <time>2016-07-25T20:35:53.000Z</time>
      </trkpt>
      <trkpt lat="48.81613" lon="2.45884">
        <ele>43.400001525879</ele>
        <time>2016-07-25T20:35:57.000Z</time>
      </trkpt>
      <trkpt lat="48.81613" lon="2.45885">
        <ele>43.599998474121</ele>
        <time>2016-07-25T20:35:59.000Z</time>
      </trkpt>
      <trkpt lat="48.81608" lon="2.45889">
        <ele>43</ele>
        <time>2016-07-25T20:37:13.000Z</time>
      </trkpt>
      <trkpt lat="48.81609" lon="2.45888">
        <ele>43</ele>
        <time>2016-07-25T20:37:15.000Z</time>
      </trkpt>
      <trkpt lat="48.81609" lon="2.45888">
        <ele>43.200000762939</ele>
        <time>2016-07-25T20:39:06.000Z</time>
      </trkpt>
      <trkpt lat="48.81606" lon="2.4589">
        <ele>43</ele>
        <time>2016-07-25T20:41:39.000Z</time>
      </trkpt>
      <trkpt lat="48.81612" lon="2.45873">
        <ele>42.200000762939</ele>
        <time>2016-07-25T20:42:27.000Z</time>
      </trkpt>
      <trkpt lat="48.8162" lon="2.45844">
        <ele>40.799999237061</ele>
        <time>2016-07-25T20:42:34.000Z</time>
      </trkpt>
      <trkpt lat="48.81629" lon="2.4582">
        <ele>40.200000762939</ele>
        <time>2016-07-25T20:42:39.000Z</time>
      </trkpt>
      <trkpt lat="48.81638" lon="2.45789">
        <ele>40.599998474121</ele>
        <time>2016-07-25T20:42:44.000Z</time>
      </trkpt>
      <trkpt lat="48.81642" lon="2.45772">
        <ele>39.799999237061</ele>
        <time>2016-07-25T20:42:46.000Z</time>
      </trkpt>
      <trkpt lat="48.81649" lon="2.4574">
        <ele>38.799999237061</ele>
        <time>2016-07-25T20:42:50.000Z</time>
      </trkpt>
      <trkpt lat="48.81654" lon="2.45707">
        <ele>39.200000762939</ele>
        <time>2016-07-25T20:42:54.000Z</time>
      </trkpt>
      <trkpt lat="48.8166" lon="2.45673">
        <ele>39</ele>
        <time>2016-07-25T20:42:58.000Z</time>
      </trkpt>
      <trkpt lat="48.81663" lon="2.45657">
        <ele>39.400001525879</ele>
        <time>2016-07-25T20:43:00.000Z</time>
      </trkpt>
      <trkpt lat="48.81671" lon="2.45625">
        <ele>39.799999237061</ele>
        <time>2016-07-25T20:43:04.000Z</time>
      </trkpt>
      <trkpt lat="48.81677" lon="2.45591">
        <ele>39.799999237061</ele>
        <time>2016-07-25T20:43:08.000Z</time>
      </trkpt>
      <trkpt lat="48.81683" lon="2.45559">
        <ele>39.799999237061</ele>
        <time>2016-07-25T20:43:12.000Z</time>
      </trkpt>
      <trkpt lat="48.81686" lon="2.45543">
        <ele>39.599998474121</ele>
        <time>2016-07-25T20:43:14.000Z</time>
      </trkpt>
      <trkpt lat="48.81693" lon="2.45513">
        <ele>40</ele>
        <time>2016-07-25T20:43:18.000Z</time>
      </trkpt>
      <trkpt lat="48.81699" lon="2.45484">
        <ele>41</ele>
        <time>2016-07-25T20:43:22.000Z</time>
      </trkpt>
      <trkpt lat="48.81701" lon="2.45451">
        <ele>42.200000762939</ele>
        <time>2016-07-25T20:43:27.000Z</time>
      </trkpt>
      <trkpt lat="48.817" lon="2.45421">
        <ele>42.400001525879</ele>
        <time>2016-07-25T20:43:31.000Z</time>
      </trkpt>
      <trkpt lat="48.81702" lon="2.45389">
        <ele>43.599998474121</ele>
        <time>2016-07-25T20:43:35.000Z</time>
      </trkpt>
      <trkpt lat="48.8171" lon="2.45357">
        <ele>45.599998474121</ele>
        <time>2016-07-25T20:43:38.000Z</time>
      </trkpt>
      <trkpt lat="48.81718" lon="2.45329">
        <ele>45.400001525879</ele>
        <time>2016-07-25T20:43:41.000Z</time>
      </trkpt>
      <trkpt lat="48.81723" lon="2.45301">
        <ele>46</ele>
        <time>2016-07-25T20:43:45.000Z</time>
      </trkpt>
      <trkpt lat="48.81724" lon="2.45269">
        <ele>45.400001525879</ele>
        <time>2016-07-25T20:43:49.000Z</time>
      </trkpt>
      <trkpt lat="48.81732" lon="2.45242">
        <ele>43.200000762939</ele>
        <time>2016-07-25T20:43:53.000Z</time>
      </trkpt>
      <trkpt lat="48.8174" lon="2.45211">
        <ele>40.400001525879</ele>
        <time>2016-07-25T20:43:57.000Z</time>
      </trkpt>
      <trkpt lat="48.8175" lon="2.45182">
        <ele>39.200000762939</ele>
        <time>2016-07-25T20:44:01.000Z</time>
      </trkpt>
      <trkpt lat="48.81758" lon="2.45149">
        <ele>37.799999237061</ele>
        <time>2016-07-25T20:44:05.000Z</time>
      </trkpt>
      <trkpt lat="48.8176" lon="2.4514">
        <ele>37.599998474121</ele>
        <time>2016-07-25T20:44:06.000Z</time>
      </trkpt>
      <trkpt lat="48.81769" lon="2.45107">
        <ele>36.799999237061</ele>
        <time>2016-07-25T20:44:10.000Z</time>
      </trkpt>
      <trkpt lat="48.8177" lon="2.45098">
        <ele>36.400001525879</ele>
        <time>2016-07-25T20:44:11.000Z</time>
      </trkpt>
      <trkpt lat="48.81776" lon="2.45064">
        <ele>36.400001525879</ele>
        <time>2016-07-25T20:44:15.000Z</time>
      </trkpt>
      <trkpt lat="48.81779" lon="2.45045">
        <ele>36.599998474121</ele>
        <time>2016-07-25T20:44:17.000Z</time>
      </trkpt>
      <trkpt lat="48.81783" lon="2.45017">
        <ele>37</ele>
        <time>2016-07-25T20:44:20.000Z</time>
      </trkpt>
      <trkpt lat="48.81786" lon="2.44998">
        <ele>37.200000762939</ele>
        <time>2016-07-25T20:44:22.000Z</time>
      </trkpt>
      <trkpt lat="48.8179" lon="2.44969">
        <ele>38.400001525879</ele>
        <time>2016-07-25T20:44:25.000Z</time>
      </trkpt>
      <trkpt lat="48.81793" lon="2.44938">
        <ele>39.599998474121</ele>
        <time>2016-07-25T20:44:28.000Z</time>
      </trkpt>
      <trkpt lat="48.81796" lon="2.44906">
        <ele>39.599998474121</ele>
        <time>2016-07-25T20:44:31.000Z</time>
      </trkpt>
      <trkpt lat="48.81797" lon="2.44874">
        <ele>40.599998474121</ele>
        <time>2016-07-25T20:44:34.000Z</time>
      </trkpt>
      <trkpt lat="48.81799" lon="2.44843">
        <ele>41.200000762939</ele>
        <time>2016-07-25T20:44:37.000Z</time>
      </trkpt>
      <trkpt lat="48.81799" lon="2.44833">
        <ele>41.200000762939</ele>
        <time>2016-07-25T20:44:38.000Z</time>
      </trkpt>
      <trkpt lat="48.81798" lon="2.44804">
        <ele>41.200000762939</ele>
        <time>2016-07-25T20:44:41.000Z</time>
      </trkpt>
      <trkpt lat="48.81799" lon="2.44773">
        <ele>41.200000762939</ele>
        <time>2016-07-25T20:44:44.000Z</time>
      </trkpt>
      <trkpt lat="48.81799" lon="2.44741">
        <ele>40.799999237061</ele>
        <time>2016-07-25T20:44:47.000Z</time>
      </trkpt>
      <trkpt lat="48.81797" lon="2.44709">
        <ele>39.799999237061</ele>
        <time>2016-07-25T20:44:50.000Z</time>
      </trkpt>
      <trkpt lat="48.81796" lon="2.44677">
        <ele>39</ele>
        <time>2016-07-25T20:44:53.000Z</time>
      </trkpt>
      <trkpt lat="48.81797" lon="2.44666">
        <ele>39</ele>
        <time>2016-07-25T20:44:54.000Z</time>
      </trkpt>
      <trkpt lat="48.81797" lon="2.44634">
        <ele>39.599998474121</ele>
        <time>2016-07-25T20:44:57.000Z</time>
      </trkpt>
      <trkpt lat="48.81797" lon="2.44601">
        <ele>40.200000762939</ele>
        <time>2016-07-25T20:45:00.000Z</time>
      </trkpt>
      <trkpt lat="48.81797" lon="2.44567">
        <ele>40.400001525879</ele>
        <time>2016-07-25T20:45:03.000Z</time>
      </trkpt>
      <trkpt lat="48.81795" lon="2.44533">
        <ele>40.599998474121</ele>
        <time>2016-07-25T20:45:06.000Z</time>
      </trkpt>
      <trkpt lat="48.81795" lon="2.44499">
        <ele>41.599998474121</ele>
        <time>2016-07-25T20:45:09.000Z</time>
      </trkpt>
      <trkpt lat="48.81794" lon="2.44465">
        <ele>40.200000762939</ele>
        <time>2016-07-25T20:45:12.000Z</time>
      </trkpt>
      <trkpt lat="48.81793" lon="2.4443">
        <ele>39</ele>
        <time>2016-07-25T20:45:15.000Z</time>
      </trkpt>
      <trkpt lat="48.81794" lon="2.44396">
        <ele>39.599998474121</ele>
        <time>2016-07-25T20:45:18.000Z</time>
      </trkpt>
      <trkpt lat="48.81795" lon="2.44362">
        <ele>40.599998474121</ele>
        <time>2016-07-25T20:45:21.000Z</time>
      </trkpt>
      <trkpt lat="48.81795" lon="2.44327">
        <ele>40.799999237061</ele>
        <time>2016-07-25T20:45:24.000Z</time>
      </trkpt>
      <trkpt lat="48.81793" lon="2.44292">
        <ele>40</ele>
        <time>2016-07-25T20:45:27.000Z</time>
      </trkpt>
      <trkpt lat="48.81793" lon="2.4426">
        <ele>39.599998474121</ele>
        <time>2016-07-25T20:45:30.000Z</time>
      </trkpt>
      <trkpt lat="48.81792" lon="2.4423">
        <ele>39.400001525879</ele>
        <time>2016-07-25T20:45:33.000Z</time>
      </trkpt>
      <trkpt lat="48.81794" lon="2.442">
        <ele>39.799999237061</ele>
        <time>2016-07-25T20:45:36.000Z</time>
      </trkpt>
      <trkpt lat="48.81798" lon="2.44171">
        <ele>40.400001525879</ele>
        <time>2016-07-25T20:45:39.000Z</time>
      </trkpt>
      <trkpt lat="48.81802" lon="2.44142">
        <ele>40.400001525879</ele>
        <time>2016-07-25T20:45:42.000Z</time>
      </trkpt>
      <trkpt lat="48.81807" lon="2.44112">
        <ele>40.599998474121</ele>
        <time>2016-07-25T20:45:45.000Z</time>
      </trkpt>
      <trkpt lat="48.8181" lon="2.44093">
        <ele>41</ele>
        <time>2016-07-25T20:45:47.000Z</time>
      </trkpt>
      <trkpt lat="48.81815" lon="2.44065">
        <ele>42.200000762939</ele>
        <time>2016-07-25T20:45:50.000Z</time>
      </trkpt>
      <trkpt lat="48.81819" lon="2.4404">
        <ele>43.200000762939</ele>
        <time>2016-07-25T20:45:53.000Z</time>
      </trkpt>
      <trkpt lat="48.81825" lon="2.44012">
        <ele>43.400001525879</ele>
        <time>2016-07-25T20:45:56.000Z</time>
      </trkpt>
      <trkpt lat="48.81828" lon="2.4398">
        <ele>43.200000762939</ele>
        <time>2016-07-25T20:46:00.000Z</time>
      </trkpt>
      <trkpt lat="48.8183" lon="2.43951">
        <ele>43</ele>
        <time>2016-07-25T20:46:04.000Z</time>
      </trkpt>
      <trkpt lat="48.81829" lon="2.43919">
        <ele>42.599998474121</ele>
        <time>2016-07-25T20:46:08.000Z</time>
      </trkpt>
      <trkpt lat="48.81826" lon="2.43884">
        <ele>41.799999237061</ele>
        <time>2016-07-25T20:46:12.000Z</time>
      </trkpt>
      <trkpt lat="48.81825" lon="2.43855">
        <ele>41.200000762939</ele>
        <time>2016-07-25T20:46:15.000Z</time>
      </trkpt>
      <trkpt lat="48.81822" lon="2.43824">
        <ele>40.599998474121</ele>
        <time>2016-07-25T20:46:18.000Z</time>
      </trkpt>
      <trkpt lat="48.81821" lon="2.43804">
        <ele>40.200000762939</ele>
        <time>2016-07-25T20:46:20.000Z</time>
      </trkpt>
      <trkpt lat="48.81819" lon="2.43773">
        <ele>39</ele>
        <time>2016-07-25T20:46:23.000Z</time>
      </trkpt>
      <trkpt lat="48.81818" lon="2.43741">
        <ele>37.799999237061</ele>
        <time>2016-07-25T20:46:26.000Z</time>
      </trkpt>
      <trkpt lat="48.81819" lon="2.43708">
        <ele>37.599998474121</ele>
        <time>2016-07-25T20:46:29.000Z</time>
      </trkpt>
      <trkpt lat="48.81821" lon="2.43676">
        <ele>37</ele>
        <time>2016-07-25T20:46:32.000Z</time>
      </trkpt>
      <trkpt lat="48.81821" lon="2.43646">
        <ele>37.200000762939</ele>
        <time>2016-07-25T20:46:35.000Z</time>
      </trkpt>
      <trkpt lat="48.81823" lon="2.43619">
        <ele>38</ele>
        <time>2016-07-25T20:46:38.000Z</time>
      </trkpt>
      <trkpt lat="48.81822" lon="2.4359">
        <ele>38.599998474121</ele>
        <time>2016-07-25T20:46:41.000Z</time>
      </trkpt>
      <trkpt lat="48.81822" lon="2.43562">
        <ele>39</ele>
        <time>2016-07-25T20:46:44.000Z</time>
      </trkpt>
      <trkpt lat="48.8182" lon="2.43526">
        <ele>38.599998474121</ele>
        <time>2016-07-25T20:46:48.000Z</time>
      </trkpt>
      <trkpt lat="48.8182" lon="2.43497">
        <ele>37.799999237061</ele>
        <time>2016-07-25T20:46:51.000Z</time>
      </trkpt>
      <trkpt lat="48.8182" lon="2.43467">
        <ele>38.200000762939</ele>
        <time>2016-07-25T20:46:54.000Z</time>
      </trkpt>
      <trkpt lat="48.81819" lon="2.43437">
        <ele>38.799999237061</ele>
        <time>2016-07-25T20:46:57.000Z</time>
      </trkpt>
      <trkpt lat="48.81819" lon="2.43407">
        <ele>39.400001525879</ele>
        <time>2016-07-25T20:47:00.000Z</time>
      </trkpt>
      <trkpt lat="48.81819" lon="2.43377">
        <ele>39</ele>
        <time>2016-07-25T20:47:03.000Z</time>
      </trkpt>
      <trkpt lat="48.81818" lon="2.43346">
        <ele>39.200000762939</ele>
        <time>2016-07-25T20:47:06.000Z</time>
      </trkpt>
      <trkpt lat="48.81817" lon="2.43316">
        <ele>39.599998474121</ele>
        <time>2016-07-25T20:47:09.000Z</time>
      </trkpt>
      <trkpt lat="48.81817" lon="2.43288">
        <ele>39.599998474121</ele>
        <time>2016-07-25T20:47:12.000Z</time>
      </trkpt>
      <trkpt lat="48.81817" lon="2.43255">
        <ele>38.799999237061</ele>
        <time>2016-07-25T20:47:16.000Z</time>
      </trkpt>
      <trkpt lat="48.81818" lon="2.43225">
        <ele>38.400001525879</ele>
        <time>2016-07-25T20:47:21.000Z</time>
      </trkpt>
      <trkpt lat="48.81817" lon="2.43216">
        <ele>38.400001525879</ele>
        <time>2016-07-25T20:49:04.000Z</time>
      </trkpt>
      <trkpt lat="48.81816" lon="2.43189">
        <ele>38</ele>
        <time>2016-07-25T20:49:12.000Z</time>
      </trkpt>
      <trkpt lat="48.81815" lon="2.43157">
        <ele>37.599998474121</ele>
        <time>2016-07-25T20:49:19.000Z</time>
      </trkpt>
      <trkpt lat="48.81812" lon="2.43136">
        <ele>37.400001525879</ele>
        <time>2016-07-25T20:49:22.000Z</time>
      </trkpt>
      <trkpt lat="48.81811" lon="2.43107">
        <ele>37.599998474121</ele>
        <time>2016-07-25T20:49:26.000Z</time>
      </trkpt>
      <trkpt lat="48.8181" lon="2.43075">
        <ele>37.599998474121</ele>
        <time>2016-07-25T20:49:30.000Z</time>
      </trkpt>
      <trkpt lat="48.8181" lon="2.43043">
        <ele>37.200000762939</ele>
        <time>2016-07-25T20:49:34.000Z</time>
      </trkpt>
      <trkpt lat="48.81808" lon="2.4301">
        <ele>37</ele>
        <time>2016-07-25T20:49:38.000Z</time>
      </trkpt>
      <trkpt lat="48.81806" lon="2.42977">
        <ele>36.799999237061</ele>
        <time>2016-07-25T20:49:42.000Z</time>
      </trkpt>
      <trkpt lat="48.81804" lon="2.42943">
        <ele>36.799999237061</ele>
        <time>2016-07-25T20:49:46.000Z</time>
      </trkpt>
      <trkpt lat="48.81803" lon="2.42922">
        <ele>36.799999237061</ele>
        <time>2016-07-25T20:49:48.000Z</time>
      </trkpt>
      <trkpt lat="48.81802" lon="2.42891">
        <ele>37</ele>
        <time>2016-07-25T20:49:51.000Z</time>
      </trkpt>
      <trkpt lat="48.81801" lon="2.4287">
        <ele>36.799999237061</ele>
        <time>2016-07-25T20:49:53.000Z</time>
      </trkpt>
      <trkpt lat="48.818" lon="2.42837">
        <ele>36.599998474121</ele>
        <time>2016-07-25T20:49:56.000Z</time>
      </trkpt>
      <trkpt lat="48.81799" lon="2.42826">
        <ele>36.599998474121</ele>
        <time>2016-07-25T20:49:57.000Z</time>
      </trkpt>
      <trkpt lat="48.81798" lon="2.42794">
        <ele>36</ele>
        <time>2016-07-25T20:50:00.000Z</time>
      </trkpt>
      <trkpt lat="48.81798" lon="2.42761">
        <ele>36</ele>
        <time>2016-07-25T20:50:03.000Z</time>
      </trkpt>
      <trkpt lat="48.81798" lon="2.42729">
        <ele>36.799999237061</ele>
        <time>2016-07-25T20:50:06.000Z</time>
      </trkpt>
      <trkpt lat="48.81797" lon="2.42695">
        <ele>38</ele>
        <time>2016-07-25T20:50:09.000Z</time>
      </trkpt>
      <trkpt lat="48.81796" lon="2.42664">
        <ele>37.200000762939</ele>
        <time>2016-07-25T20:50:12.000Z</time>
      </trkpt>
      <trkpt lat="48.81795" lon="2.42634">
        <ele>36.400001525879</ele>
        <time>2016-07-25T20:50:15.000Z</time>
      </trkpt>
      <trkpt lat="48.81795" lon="2.42603">
        <ele>35.599998474121</ele>
        <time>2016-07-25T20:50:18.000Z</time>
      </trkpt>
      <trkpt lat="48.81794" lon="2.42571">
        <ele>35.599998474121</ele>
        <time>2016-07-25T20:50:21.000Z</time>
      </trkpt>
      <trkpt lat="48.81793" lon="2.42542">
        <ele>35.200000762939</ele>
        <time>2016-07-25T20:50:24.000Z</time>
      </trkpt>
      <trkpt lat="48.81795" lon="2.42516">
        <ele>35.599998474121</ele>
        <time>2016-07-25T20:50:27.000Z</time>
      </trkpt>
      <trkpt lat="48.81799" lon="2.42495">
        <ele>36.799999237061</ele>
        <time>2016-07-25T20:50:30.000Z</time>
      </trkpt>
      <trkpt lat="48.81807" lon="2.42468">
        <ele>37.599998474121</ele>
        <time>2016-07-25T20:50:34.000Z</time>
      </trkpt>
      <trkpt lat="48.81812" lon="2.42444">
        <ele>37.400001525879</ele>
        <time>2016-07-25T20:50:39.000Z</time>
      </trkpt>
      <trkpt lat="48.81816" lon="2.42432">
        <ele>37</ele>
        <time>2016-07-25T20:51:47.000Z</time>
      </trkpt>
      <trkpt lat="48.81816" lon="2.42402">
        <ele>35.799999237061</ele>
        <time>2016-07-25T20:51:55.000Z</time>
      </trkpt>
      <trkpt lat="48.81815" lon="2.4238">
        <ele>36</ele>
        <time>2016-07-25T20:51:58.000Z</time>
      </trkpt>
      <trkpt lat="48.81813" lon="2.42348">
        <ele>35.599998474121</ele>
        <time>2016-07-25T20:52:02.000Z</time>
      </trkpt>
      <trkpt lat="48.81813" lon="2.4234">
        <ele>35.599998474121</ele>
        <time>2016-07-25T20:52:03.000Z</time>
      </trkpt>
      <trkpt lat="48.81814" lon="2.4233">
        <ele>35.599998474121</ele>
        <time>2016-07-25T20:52:04.000Z</time>
      </trkpt>
      <trkpt lat="48.81814" lon="2.42299">
        <ele>35.799999237061</ele>
        <time>2016-07-25T20:52:08.000Z</time>
      </trkpt>
      <trkpt lat="48.81812" lon="2.42269">
        <ele>36.799999237061</ele>
        <time>2016-07-25T20:52:12.000Z</time>
      </trkpt>
      <trkpt lat="48.81812" lon="2.42238">
        <ele>38.200000762939</ele>
        <time>2016-07-25T20:52:16.000Z</time>
      </trkpt>
      <trkpt lat="48.81813" lon="2.42207">
        <ele>39.400001525879</ele>
        <time>2016-07-25T20:52:20.000Z</time>
      </trkpt>
      <trkpt lat="48.81816" lon="2.42176">
        <ele>41.599998474121</ele>
        <time>2016-07-25T20:52:24.000Z</time>
      </trkpt>
      <trkpt lat="48.81816" lon="2.42161">
        <ele>42.400001525879</ele>
        <time>2016-07-25T20:52:26.000Z</time>
      </trkpt>
      <trkpt lat="48.81818" lon="2.42129">
        <ele>42.400001525879</ele>
        <time>2016-07-25T20:52:30.000Z</time>
      </trkpt>
      <trkpt lat="48.81818" lon="2.42101">
        <ele>42.599998474121</ele>
        <time>2016-07-25T20:52:34.000Z</time>
      </trkpt>
      <trkpt lat="48.81818" lon="2.42081">
        <ele>42.599998474121</ele>
        <time>2016-07-25T20:52:37.000Z</time>
      </trkpt>
      <trkpt lat="48.81824" lon="2.42051">
        <ele>42.799999237061</ele>
        <time>2016-07-25T20:52:41.000Z</time>
      </trkpt>
      <trkpt lat="48.8183" lon="2.42028">
        <ele>43</ele>
        <time>2016-07-25T20:52:44.000Z</time>
      </trkpt>
      <trkpt lat="48.81829" lon="2.41999">
        <ele>42.200000762939</ele>
        <time>2016-07-25T20:52:51.000Z</time>
      </trkpt>
      <trkpt lat="48.81829" lon="2.41993">
        <ele>42</ele>
        <time>2016-07-25T20:52:54.000Z</time>
      </trkpt>
      <trkpt lat="48.8183" lon="2.4199">
        <ele>42</ele>
        <time>2016-07-25T20:52:57.000Z</time>
      </trkpt>
      <trkpt lat="48.81831" lon="2.41983">
        <ele>42</ele>
        <time>2016-07-25T20:53:00.000Z</time>
      </trkpt>
      <trkpt lat="48.81826" lon="2.41968">
        <ele>41</ele>
        <time>2016-07-25T20:53:21.000Z</time>
      </trkpt>
      <trkpt lat="48.81816" lon="2.41971">
        <ele>40.200000762939</ele>
        <time>2016-07-25T20:53:25.000Z</time>
      </trkpt>
      <trkpt lat="48.818" lon="2.41975">
        <ele>38.400001525879</ele>
        <time>2016-07-25T20:53:37.000Z</time>
      </trkpt>
      <trkpt lat="48.81786" lon="2.41969">
        <ele>36.799999237061</ele>
        <time>2016-07-25T20:53:44.000Z</time>
      </trkpt>
      <trkpt lat="48.81785" lon="2.41941">
        <ele>36</ele>
        <time>2016-07-25T20:53:51.000Z</time>
      </trkpt>
      <trkpt lat="48.81783" lon="2.4191">
        <ele>35.200000762939</ele>
        <time>2016-07-25T20:53:57.000Z</time>
      </trkpt>
      <trkpt lat="48.81782" lon="2.4188">
        <ele>35</ele>
        <time>2016-07-25T20:54:02.000Z</time>
      </trkpt>
      <trkpt lat="48.8178" lon="2.41848">
        <ele>35</ele>
        <time>2016-07-25T20:54:07.000Z</time>
      </trkpt>
      <trkpt lat="48.8178" lon="2.4182">
        <ele>34.799999237061</ele>
        <time>2016-07-25T20:54:11.000Z</time>
      </trkpt>
      <trkpt lat="48.8178" lon="2.4179">
        <ele>34.799999237061</ele>
        <time>2016-07-25T20:54:15.000Z</time>
      </trkpt>
      <trkpt lat="48.81781" lon="2.41756">
        <ele>35</ele>
        <time>2016-07-25T20:54:19.000Z</time>
      </trkpt>
      <trkpt lat="48.81782" lon="2.41728">
        <ele>35.799999237061</ele>
        <time>2016-07-25T20:54:22.000Z</time>
      </trkpt>
      <trkpt lat="48.81782" lon="2.41694">
        <ele>37</ele>
        <time>2016-07-25T20:54:26.000Z</time>
      </trkpt>
      <trkpt lat="48.81783" lon="2.41662">
        <ele>38.200000762939</ele>
        <time>2016-07-25T20:54:30.000Z</time>
      </trkpt>
      <trkpt lat="48.81791" lon="2.41607">
        <ele>41</ele>
        <time>2016-07-25T20:54:34.000Z</time>
      </trkpt>
      <trkpt lat="48.81797" lon="2.41577">
        <ele>40.400001525879</ele>
        <time>2016-07-25T20:54:37.000Z</time>
      </trkpt>
      <trkpt lat="48.818" lon="2.41567">
        <ele>40</ele>
        <time>2016-07-25T20:54:38.000Z</time>
      </trkpt>
      <trkpt lat="48.81805" lon="2.41538">
        <ele>38.599998474121</ele>
        <time>2016-07-25T20:54:42.000Z</time>
      </trkpt>
      <trkpt lat="48.81809" lon="2.41507">
        <ele>37.400001525879</ele>
        <time>2016-07-25T20:54:46.000Z</time>
      </trkpt>
      <trkpt lat="48.81821" lon="2.4148">
        <ele>36.799999237061</ele>
        <time>2016-07-25T20:54:51.000Z</time>
      </trkpt>
      <trkpt lat="48.81823" lon="2.41466">
        <ele>36.400001525879</ele>
        <time>2016-07-25T20:54:53.000Z</time>
      </trkpt>
      <trkpt lat="48.81819" lon="2.41434">
        <ele>36.200000762939</ele>
        <time>2016-07-25T20:54:57.000Z</time>
      </trkpt>
      <trkpt lat="48.81819" lon="2.41428">
        <ele>36.200000762939</ele>
        <time>2016-07-25T20:54:58.000Z</time>
      </trkpt>
      <trkpt lat="48.81821" lon="2.41412">
        <ele>36.400001525879</ele>
        <time>2016-07-25T20:55:01.000Z</time>
      </trkpt>
      <trkpt lat="48.81823" lon="2.4138">
        <ele>36</ele>
        <time>2016-07-25T20:55:07.000Z</time>
      </trkpt>
      <trkpt lat="48.81825" lon="2.41365">
        <ele>35.799999237061</ele>
        <time>2016-07-25T20:55:10.000Z</time>
      </trkpt>
      <trkpt lat="48.81828" lon="2.41338">
        <ele>35.200000762939</ele>
        <time>2016-07-25T20:55:15.000Z</time>
      </trkpt>
      <trkpt lat="48.8183" lon="2.41311">
        <ele>34.799999237061</ele>
        <time>2016-07-25T20:55:19.000Z</time>
      </trkpt>
      <trkpt lat="48.81831" lon="2.41303">
        <ele>34.799999237061</ele>
        <time>2016-07-25T20:55:20.000Z</time>
      </trkpt>
      <trkpt lat="48.81834" lon="2.41274">
        <ele>34.599998474121</ele>
        <time>2016-07-25T20:55:24.000Z</time>
      </trkpt>
      <trkpt lat="48.81837" lon="2.41254">
        <ele>34.400001525879</ele>
        <time>2016-07-25T20:55:27.000Z</time>
      </trkpt>
      <trkpt lat="48.81837" lon="2.41239">
        <ele>34.799999237061</ele>
        <time>2016-07-25T20:55:29.000Z</time>
      </trkpt>
      <trkpt lat="48.81839" lon="2.41218">
        <ele>35.400001525879</ele>
        <time>2016-07-25T20:55:32.000Z</time>
      </trkpt>
      <trkpt lat="48.81841" lon="2.41189">
        <ele>35.400001525879</ele>
        <time>2016-07-25T20:55:36.000Z</time>
      </trkpt>
      <trkpt lat="48.81841" lon="2.41167">
        <ele>35.400001525879</ele>
        <time>2016-07-25T20:55:39.000Z</time>
      </trkpt>
      <trkpt lat="48.81844" lon="2.41134">
        <ele>34.799999237061</ele>
        <time>2016-07-25T20:55:44.000Z</time>
      </trkpt>
      <trkpt lat="48.81849" lon="2.41104">
        <ele>35</ele>
        <time>2016-07-25T20:55:49.000Z</time>
      </trkpt>
      <trkpt lat="48.81851" lon="2.41099">
        <ele>35</ele>
        <time>2016-07-25T20:55:50.000Z</time>
      </trkpt>
      <trkpt lat="48.81862" lon="2.41084">
        <ele>35.599998474121</ele>
        <time>2016-07-25T20:55:55.000Z</time>
      </trkpt>
      <trkpt lat="48.81863" lon="2.4108">
        <ele>35.599998474121</ele>
        <time>2016-07-25T20:55:56.000Z</time>
      </trkpt>
      <trkpt lat="48.81865" lon="2.41065">
        <ele>36</ele>
        <time>2016-07-25T20:55:59.000Z</time>
      </trkpt>
      <trkpt lat="48.81863" lon="2.41042">
        <ele>36</ele>
        <time>2016-07-25T20:56:03.000Z</time>
      </trkpt>
      <trkpt lat="48.81865" lon="2.41009">
        <ele>36.599998474121</ele>
        <time>2016-07-25T20:56:08.000Z</time>
      </trkpt>
      <trkpt lat="48.81871" lon="2.40983">
        <ele>36.400001525879</ele>
        <time>2016-07-25T20:56:12.000Z</time>
      </trkpt>
      <trkpt lat="48.81877" lon="2.40957">
        <ele>35.799999237061</ele>
        <time>2016-07-25T20:56:16.000Z</time>
      </trkpt>
      <trkpt lat="48.81881" lon="2.4094">
        <ele>35.400001525879</ele>
        <time>2016-07-25T20:56:19.000Z</time>
      </trkpt>
      <trkpt lat="48.81889" lon="2.40909">
        <ele>36.200000762939</ele>
        <time>2016-07-25T20:56:24.000Z</time>
      </trkpt>
      <trkpt lat="48.81891" lon="2.40903">
        <ele>36.200000762939</ele>
        <time>2016-07-25T20:56:25.000Z</time>
      </trkpt>
      <trkpt lat="48.81897" lon="2.40871">
        <ele>36</ele>
        <time>2016-07-25T20:56:30.000Z</time>
      </trkpt>
      <trkpt lat="48.81898" lon="2.40857">
        <ele>36.200000762939</ele>
        <time>2016-07-25T20:56:32.000Z</time>
      </trkpt>
      <trkpt lat="48.81904" lon="2.40828">
        <ele>37</ele>
        <time>2016-07-25T20:56:36.000Z</time>
      </trkpt>
      <trkpt lat="48.81912" lon="2.408">
        <ele>38.599998474121</ele>
        <time>2016-07-25T20:56:40.000Z</time>
      </trkpt>
      <trkpt lat="48.81919" lon="2.40776">
        <ele>38.799999237061</ele>
        <time>2016-07-25T20:56:44.000Z</time>
      </trkpt>
      <trkpt lat="48.81925" lon="2.40754">
        <ele>39</ele>
        <time>2016-07-25T20:56:48.000Z</time>
      </trkpt>
      <trkpt lat="48.81932" lon="2.40724">
        <ele>37.799999237061</ele>
        <time>2016-07-25T20:56:53.000Z</time>
      </trkpt>
      <trkpt lat="48.81939" lon="2.40692">
        <ele>36</ele>
        <time>2016-07-25T20:56:58.000Z</time>
      </trkpt>
      <trkpt lat="48.8194" lon="2.40675">
        <ele>34.799999237061</ele>
        <time>2016-07-25T20:57:01.000Z</time>
      </trkpt>
      <trkpt lat="48.81943" lon="2.40647">
        <ele>33.400001525879</ele>
        <time>2016-07-25T20:57:06.000Z</time>
      </trkpt>
      <trkpt lat="48.81943" lon="2.40642">
        <ele>33</ele>
        <time>2016-07-25T20:57:07.000Z</time>
      </trkpt>
      <trkpt lat="48.81945" lon="2.40622">
        <ele>32.200000762939</ele>
        <time>2016-07-25T20:57:10.000Z</time>
      </trkpt>
      <trkpt lat="48.81951" lon="2.40594">
        <ele>31.200000762939</ele>
        <time>2016-07-25T20:57:14.000Z</time>
      </trkpt>
      <trkpt lat="48.81957" lon="2.40565">
        <ele>31.799999237061</ele>
        <time>2016-07-25T20:57:18.000Z</time>
      </trkpt>
      <trkpt lat="48.81966" lon="2.40539">
        <ele>32.799999237061</ele>
        <time>2016-07-25T20:57:21.000Z</time>
      </trkpt>
      <trkpt lat="48.81986" lon="2.40503">
        <ele>37.400001525879</ele>
        <time>2016-07-25T20:57:23.000Z</time>
      </trkpt>
      <trkpt lat="48.81998" lon="2.40472">
        <ele>40</ele>
        <time>2016-07-25T20:57:26.000Z</time>
      </trkpt>
      <trkpt lat="48.82005" lon="2.40442">
        <ele>38</ele>
        <time>2016-07-25T20:57:29.000Z</time>
      </trkpt>
      <trkpt lat="48.82009" lon="2.40432">
        <ele>37.400001525879</ele>
        <time>2016-07-25T20:57:30.000Z</time>
      </trkpt>
      <trkpt lat="48.8202" lon="2.404">
        <ele>36.599998474121</ele>
        <time>2016-07-25T20:57:34.000Z</time>
      </trkpt>
      <trkpt lat="48.82029" lon="2.40368">
        <ele>36.200000762939</ele>
        <time>2016-07-25T20:57:38.000Z</time>
      </trkpt>
      <trkpt lat="48.82037" lon="2.40342">
        <ele>36</ele>
        <time>2016-07-25T20:57:41.000Z</time>
      </trkpt>
      <trkpt lat="48.82044" lon="2.40316">
        <ele>36</ele>
        <time>2016-07-25T20:57:44.000Z</time>
      </trkpt>
      <trkpt lat="48.82049" lon="2.40288">
        <ele>35.599998474121</ele>
        <time>2016-07-25T20:57:47.000Z</time>
      </trkpt>
      <trkpt lat="48.82056" lon="2.40263">
        <ele>35.799999237061</ele>
        <time>2016-07-25T20:57:50.000Z</time>
      </trkpt>
      <trkpt lat="48.82065" lon="2.40228">
        <ele>36.599998474121</ele>
        <time>2016-07-25T20:57:54.000Z</time>
      </trkpt>
      <trkpt lat="48.82073" lon="2.40195">
        <ele>36.200000762939</ele>
        <time>2016-07-25T20:57:58.000Z</time>
      </trkpt>
      <trkpt lat="48.82083" lon="2.40168">
        <ele>35.400001525879</ele>
        <time>2016-07-25T20:58:02.000Z</time>
      </trkpt>
      <trkpt lat="48.82092" lon="2.40142">
        <ele>34.799999237061</ele>
        <time>2016-07-25T20:58:07.000Z</time>
      </trkpt>
      <trkpt lat="48.82102" lon="2.40115">
        <ele>33.599998474121</ele>
        <time>2016-07-25T20:58:12.000Z</time>
      </trkpt>
      <trkpt lat="48.82109" lon="2.40103">
        <ele>33</ele>
        <time>2016-07-25T20:58:14.000Z</time>
      </trkpt>
      <trkpt lat="48.82117" lon="2.40082">
        <ele>32</ele>
        <time>2016-07-25T20:58:17.000Z</time>
      </trkpt>
      <trkpt lat="48.82128" lon="2.40055">
        <ele>31</ele>
        <time>2016-07-25T20:58:21.000Z</time>
      </trkpt>
      <trkpt lat="48.82137" lon="2.40029">
        <ele>30.200000762939</ele>
        <time>2016-07-25T20:58:25.000Z</time>
      </trkpt>
      <trkpt lat="48.82149" lon="2.40001">
        <ele>30</ele>
        <time>2016-07-25T20:58:29.000Z</time>
      </trkpt>
      <trkpt lat="48.82157" lon="2.39987">
        <ele>30</ele>
        <time>2016-07-25T20:58:31.000Z</time>
      </trkpt>
      <trkpt lat="48.8217" lon="2.39962">
        <ele>29.60000038147</ele>
        <time>2016-07-25T20:58:35.000Z</time>
      </trkpt>
      <trkpt lat="48.82173" lon="2.39952">
        <ele>29.60000038147</ele>
        <time>2016-07-25T20:58:37.000Z</time>
      </trkpt>
      <trkpt lat="48.82183" lon="2.3994">
        <ele>29.39999961853</ele>
        <time>2016-07-25T20:58:43.000Z</time>
      </trkpt>
      <trkpt lat="48.82187" lon="2.39939">
        <ele>29.60000038147</ele>
        <time>2016-07-25T20:58:46.000Z</time>
      </trkpt>
      <trkpt lat="48.82193" lon="2.39914">
        <ele>29</ele>
        <time>2016-07-25T20:59:22.000Z</time>
      </trkpt>
      <trkpt lat="48.82203" lon="2.39888">
        <ele>28</ele>
        <time>2016-07-25T20:59:26.000Z</time>
      </trkpt>
      <trkpt lat="48.82216" lon="2.39864">
        <ele>27.200000762939</ele>
        <time>2016-07-25T20:59:30.000Z</time>
      </trkpt>
      <trkpt lat="48.8223" lon="2.39839">
        <ele>28.799999237061</ele>
        <time>2016-07-25T20:59:34.000Z</time>
      </trkpt>
      <trkpt lat="48.8224" lon="2.39811">
        <ele>29.799999237061</ele>
        <time>2016-07-25T20:59:38.000Z</time>
      </trkpt>
      <trkpt lat="48.82253" lon="2.39788">
        <ele>30</ele>
        <time>2016-07-25T20:59:42.000Z</time>
      </trkpt>
      <trkpt lat="48.82262" lon="2.3977">
        <ele>30</ele>
        <time>2016-07-25T20:59:46.000Z</time>
      </trkpt>
      <trkpt lat="48.82277" lon="2.39779">
        <ele>31.200000762939</ele>
        <time>2016-07-25T21:00:03.000Z</time>
      </trkpt>
      <trkpt lat="48.82293" lon="2.39799">
        <ele>32.599998474121</ele>
        <time>2016-07-25T21:00:13.000Z</time>
      </trkpt>
      <trkpt lat="48.82309" lon="2.39818">
        <ele>34.400001525879</ele>
        <time>2016-07-25T21:00:21.000Z</time>
      </trkpt>
      <trkpt lat="48.82326" lon="2.39831">
        <ele>35.799999237061</ele>
        <time>2016-07-25T21:00:26.000Z</time>
      </trkpt>
      <trkpt lat="48.8234" lon="2.39855">
        <ele>36</ele>
        <time>2016-07-25T21:00:32.000Z</time>
      </trkpt>
      <trkpt lat="48.82354" lon="2.39869">
        <ele>36.599998474121</ele>
        <time>2016-07-25T21:00:38.000Z</time>
      </trkpt>
      <trkpt lat="48.82364" lon="2.39856">
        <ele>37.599998474121</ele>
        <time>2016-07-25T21:00:42.000Z</time>
      </trkpt>
      <trkpt lat="48.82382" lon="2.3984">
        <ele>38.400001525879</ele>
        <time>2016-07-25T21:00:48.000Z</time>
      </trkpt>
      <trkpt lat="48.82395" lon="2.39819">
        <ele>37.400001525879</ele>
        <time>2016-07-25T21:00:52.000Z</time>
      </trkpt>
      <trkpt lat="48.8241" lon="2.39796">
        <ele>36.200000762939</ele>
        <time>2016-07-25T21:00:57.000Z</time>
      </trkpt>
      <trkpt lat="48.82416" lon="2.39778">
        <ele>36.799999237061</ele>
        <time>2016-07-25T21:01:04.000Z</time>
      </trkpt>
      <trkpt lat="48.82404" lon="2.39756">
        <ele>35.599998474121</ele>
        <time>2016-07-25T21:01:15.000Z</time>
      </trkpt>
      <trkpt lat="48.8239" lon="2.39737">
        <ele>34.799999237061</ele>
        <time>2016-07-25T21:01:21.000Z</time>
      </trkpt>
      <trkpt lat="48.82375" lon="2.39719">
        <ele>34.400001525879</ele>
        <time>2016-07-25T21:01:26.000Z</time>
      </trkpt>
      <trkpt lat="48.82363" lon="2.39698">
        <ele>34.200000762939</ele>
        <time>2016-07-25T21:01:31.000Z</time>
      </trkpt>
      <trkpt lat="48.82357" lon="2.39691">
        <ele>33.799999237061</ele>
        <time>2016-07-25T21:01:34.000Z</time>
      </trkpt>
      <trkpt lat="48.82357" lon="2.39692">
        <ele>33.799999237061</ele>
        <time>2016-07-25T21:01:36.000Z</time>
      </trkpt>
      <trkpt lat="48.82383" lon="2.39663">
        <ele>36.400001525879</ele>
        <time>2016-07-25T21:01:43.000Z</time>
      </trkpt>
      <trkpt lat="48.82388" lon="2.39656">
        <ele>36.599998474121</ele>
        <time>2016-07-25T21:01:44.000Z</time>
      </trkpt>
      <trkpt lat="48.82401" lon="2.39636">
        <ele>37.200000762939</ele>
        <time>2016-07-25T21:01:47.000Z</time>
      </trkpt>
      <trkpt lat="48.82409" lon="2.39623">
        <ele>38.200000762939</ele>
        <time>2016-07-25T21:01:49.000Z</time>
      </trkpt>
      <trkpt lat="48.82422" lon="2.39597">
        <ele>41.200000762939</ele>
        <time>2016-07-25T21:01:53.000Z</time>
      </trkpt>
      <trkpt lat="48.82435" lon="2.39575">
        <ele>43.599998474121</ele>
        <time>2016-07-25T21:01:57.000Z</time>
      </trkpt>
      <trkpt lat="48.8245" lon="2.39551">
        <ele>45.200000762939</ele>
        <time>2016-07-25T21:02:01.000Z</time>
      </trkpt>
      <trkpt lat="48.82459" lon="2.39533">
        <ele>45.799999237061</ele>
        <time>2016-07-25T21:02:04.000Z</time>
      </trkpt>
      <trkpt lat="48.82474" lon="2.39511">
        <ele>44.400001525879</ele>
        <time>2016-07-25T21:02:08.000Z</time>
      </trkpt>
      <trkpt lat="48.82489" lon="2.39487">
        <ele>40.599998474121</ele>
        <time>2016-07-25T21:02:13.000Z</time>
      </trkpt>
      <trkpt lat="48.82503" lon="2.39461">
        <ele>38.599998474121</ele>
        <time>2016-07-25T21:02:18.000Z</time>
      </trkpt>
      <trkpt lat="48.82509" lon="2.39446">
        <ele>39</ele>
        <time>2016-07-25T21:02:21.000Z</time>
      </trkpt>
      <trkpt lat="48.82513" lon="2.3942">
        <ele>39.599998474121</ele>
        <time>2016-07-25T21:02:26.000Z</time>
      </trkpt>
      <trkpt lat="48.8251" lon="2.39404">
        <ele>38.400001525879</ele>
        <time>2016-07-25T21:02:32.000Z</time>
      </trkpt>
      <trkpt lat="48.82509" lon="2.39401">
        <ele>38.200000762939</ele>
        <time>2016-07-25T21:02:33.000Z</time>
      </trkpt>
      <trkpt lat="48.82506" lon="2.39395">
        <ele>37.599998474121</ele>
        <time>2016-07-25T21:02:35.000Z</time>
      </trkpt>
      <trkpt lat="48.82505" lon="2.3938">
        <ele>36.799999237061</ele>
        <time>2016-07-25T21:02:40.000Z</time>
      </trkpt>
      <trkpt lat="48.82514" lon="2.39368">
        <ele>37</ele>
        <time>2016-07-25T21:02:46.000Z</time>
      </trkpt>
      <trkpt lat="48.82523" lon="2.39363">
        <ele>37.599998474121</ele>
        <time>2016-07-25T21:02:50.000Z</time>
      </trkpt>
      <trkpt lat="48.82538" lon="2.39346">
        <ele>37.400001525879</ele>
        <time>2016-07-25T21:02:57.000Z</time>
      </trkpt>
      <trkpt lat="48.8255" lon="2.39324">
        <ele>36.200000762939</ele>
        <time>2016-07-25T21:03:03.000Z</time>
      </trkpt>
      <trkpt lat="48.82563" lon="2.39304">
        <ele>34.200000762939</ele>
        <time>2016-07-25T21:03:09.000Z</time>
      </trkpt>
      <trkpt lat="48.82579" lon="2.39284">
        <ele>32.599998474121</ele>
        <time>2016-07-25T21:03:15.000Z</time>
      </trkpt>
      <trkpt lat="48.82594" lon="2.39268">
        <ele>31.60000038147</ele>
        <time>2016-07-25T21:03:20.000Z</time>
      </trkpt>
      <trkpt lat="48.82609" lon="2.39248">
        <ele>30.39999961853</ele>
        <time>2016-07-25T21:03:26.000Z</time>
      </trkpt>
      <trkpt lat="48.82629" lon="2.39234">
        <ele>31.39999961853</ele>
        <time>2016-07-25T21:03:32.000Z</time>
      </trkpt>
      <trkpt lat="48.82648" lon="2.3922">
        <ele>32.400001525879</ele>
        <time>2016-07-25T21:03:39.000Z</time>
      </trkpt>
      <trkpt lat="48.82665" lon="2.39228">
        <ele>34.599998474121</ele>
        <time>2016-07-25T21:03:44.000Z</time>
      </trkpt>
      <trkpt lat="48.82678" lon="2.39247">
        <ele>37</ele>
        <time>2016-07-25T21:03:49.000Z</time>
      </trkpt>
      <trkpt lat="48.82691" lon="2.39267">
        <ele>39.799999237061</ele>
        <time>2016-07-25T21:03:55.000Z</time>
      </trkpt>
      <trkpt lat="48.82704" lon="2.39291">
        <ele>40.799999237061</ele>
        <time>2016-07-25T21:04:02.000Z</time>
      </trkpt>
      <trkpt lat="48.82712" lon="2.39319">
        <ele>42.799999237061</ele>
        <time>2016-07-25T21:04:08.000Z</time>
      </trkpt>
      <trkpt lat="48.82718" lon="2.39328">
        <ele>43.200000762939</ele>
        <time>2016-07-25T21:04:12.000Z</time>
      </trkpt>
      <trkpt lat="48.82729" lon="2.39331">
        <ele>42.200000762939</ele>
        <time>2016-07-25T21:04:19.000Z</time>
      </trkpt>
      <trkpt lat="48.82742" lon="2.3932">
        <ele>39.400001525879</ele>
        <time>2016-07-25T21:04:25.000Z</time>
      </trkpt>
      <trkpt lat="48.82756" lon="2.39304">
        <ele>37</ele>
        <time>2016-07-25T21:04:47.000Z</time>
      </trkpt>
      <trkpt lat="48.82771" lon="2.39284">
        <ele>35.799999237061</ele>
        <time>2016-07-25T21:04:56.000Z</time>
      </trkpt>
      <trkpt lat="48.82784" lon="2.39263">
        <ele>35</ele>
        <time>2016-07-25T21:05:00.000Z</time>
      </trkpt>
      <trkpt lat="48.82796" lon="2.39238">
        <ele>35.200000762939</ele>
        <time>2016-07-25T21:05:05.000Z</time>
      </trkpt>
      <trkpt lat="48.8281" lon="2.39213">
        <ele>35.400001525879</ele>
        <time>2016-07-25T21:05:10.000Z</time>
      </trkpt>
      <trkpt lat="48.82821" lon="2.39192">
        <ele>35</ele>
        <time>2016-07-25T21:05:14.000Z</time>
      </trkpt>
      <trkpt lat="48.82833" lon="2.39168">
        <ele>34.400001525879</ele>
        <time>2016-07-25T21:05:19.000Z</time>
      </trkpt>
      <trkpt lat="48.82848" lon="2.39146">
        <ele>34</ele>
        <time>2016-07-25T21:05:24.000Z</time>
      </trkpt>
      <trkpt lat="48.82864" lon="2.39127">
        <ele>35.200000762939</ele>
        <time>2016-07-25T21:05:28.000Z</time>
      </trkpt>
      <trkpt lat="48.82882" lon="2.39108">
        <ele>36</ele>
        <time>2016-07-25T21:05:33.000Z</time>
      </trkpt>
      <trkpt lat="48.82899" lon="2.39092">
        <ele>36.799999237061</ele>
        <time>2016-07-25T21:05:38.000Z</time>
      </trkpt>
      <trkpt lat="48.82917" lon="2.39078">
        <ele>37.400001525879</ele>
        <time>2016-07-25T21:05:44.000Z</time>
      </trkpt>
      <trkpt lat="48.82928" lon="2.39072">
        <ele>37.400001525879</ele>
        <time>2016-07-25T21:05:50.000Z</time>
      </trkpt>
      <trkpt lat="48.82933" lon="2.39059">
        <ele>37.799999237061</ele>
        <time>2016-07-25T21:06:31.000Z</time>
      </trkpt>
      <trkpt lat="48.82941" lon="2.39032">
        <ele>38.599998474121</ele>
        <time>2016-07-25T21:06:48.000Z</time>
      </trkpt>
      <trkpt lat="48.82935" lon="2.39005">
        <ele>38.599998474121</ele>
        <time>2016-07-25T21:06:55.000Z</time>
      </trkpt>
      <trkpt lat="48.82931" lon="2.38985">
        <ele>38</ele>
        <time>2016-07-25T21:07:01.000Z</time>
      </trkpt>
      <trkpt lat="48.82935" lon="2.38982">
        <ele>38.400001525879</ele>
        <time>2016-07-25T21:07:05.000Z</time>
      </trkpt>
      <trkpt lat="48.82936" lon="2.38979">
        <ele>38.400001525879</ele>
        <time>2016-07-25T21:07:07.000Z</time>
      </trkpt>
      <trkpt lat="48.82927" lon="2.38955">
        <ele>37</ele>
        <time>2016-07-25T21:07:14.000Z</time>
      </trkpt>
      <trkpt lat="48.82917" lon="2.3893">
        <ele>35.599998474121</ele>
        <time>2016-07-25T21:07:20.000Z</time>
      </trkpt>
      <trkpt lat="48.82906" lon="2.38906">
        <ele>34.200000762939</ele>
        <time>2016-07-25T21:07:26.000Z</time>
      </trkpt>
      <trkpt lat="48.82896" lon="2.38882">
        <ele>33.400001525879</ele>
        <time>2016-07-25T21:07:32.000Z</time>
      </trkpt>
      <trkpt lat="48.82885" lon="2.38858">
        <ele>32.400001525879</ele>
        <time>2016-07-25T21:07:39.000Z</time>
      </trkpt>
      <trkpt lat="48.82885" lon="2.38856">
        <ele>32.400001525879</ele>
        <time>2016-07-25T21:07:40.000Z</time>
      </trkpt>
      <trkpt lat="48.829" lon="2.38839">
        <ele>32.799999237061</ele>
        <time>2016-07-25T21:07:51.000Z</time>
      </trkpt>
      <trkpt lat="48.82916" lon="2.38815">
        <ele>33.400001525879</ele>
        <time>2016-07-25T21:07:57.000Z</time>
      </trkpt>
      <trkpt lat="48.82931" lon="2.38793">
        <ele>34.400001525879</ele>
        <time>2016-07-25T21:08:02.000Z</time>
      </trkpt>
      <trkpt lat="48.82944" lon="2.3877">
        <ele>35.400001525879</ele>
        <time>2016-07-25T21:08:08.000Z</time>
      </trkpt>
      <trkpt lat="48.82957" lon="2.38744">
        <ele>36.400001525879</ele>
        <time>2016-07-25T21:08:14.000Z</time>
      </trkpt>
      <trkpt lat="48.82974" lon="2.38726">
        <ele>36.799999237061</ele>
        <time>2016-07-25T21:08:19.000Z</time>
      </trkpt>
      <trkpt lat="48.82987" lon="2.38717">
        <ele>37.599998474121</ele>
        <time>2016-07-25T21:08:25.000Z</time>
      </trkpt>
      <trkpt lat="48.82992" lon="2.38721">
        <ele>38.200000762939</ele>
        <time>2016-07-25T21:08:31.000Z</time>
      </trkpt>
      <trkpt lat="48.82995" lon="2.38719">
        <ele>38.400001525879</ele>
        <time>2016-07-25T21:08:35.000Z</time>
      </trkpt>
      <trkpt lat="48.83008" lon="2.38712">
        <ele>39</ele>
        <time>2016-07-25T21:09:21.000Z</time>
      </trkpt>
      <trkpt lat="48.83025" lon="2.38697">
        <ele>39.799999237061</ele>
        <time>2016-07-25T21:09:30.000Z</time>
      </trkpt>
      <trkpt lat="48.83031" lon="2.38691">
        <ele>40</ele>
        <time>2016-07-25T21:09:34.000Z</time>
      </trkpt>
      <trkpt lat="48.83039" lon="2.38681">
        <ele>40.200000762939</ele>
        <time>2016-07-25T21:09:40.000Z</time>
      </trkpt>
      <trkpt lat="48.83049" lon="2.38671">
        <ele>40.599998474121</ele>
        <time>2016-07-25T21:09:50.000Z</time>
      </trkpt>
      <trkpt lat="48.83055" lon="2.3867">
        <ele>41</ele>
        <time>2016-07-25T21:09:55.000Z</time>
      </trkpt>
      <trkpt lat="48.83065" lon="2.38679">
        <ele>42.200000762939</ele>
        <time>2016-07-25T21:10:08.000Z</time>
      </trkpt>
      <trkpt lat="48.8308" lon="2.38687">
        <ele>44</ele>
        <time>2016-07-25T21:10:46.000Z</time>
      </trkpt>
      <trkpt lat="48.83096" lon="2.38701">
        <ele>46</ele>
        <time>2016-07-25T21:10:52.000Z</time>
      </trkpt>
      <trkpt lat="48.83113" lon="2.38718">
        <ele>46.599998474121</ele>
        <time>2016-07-25T21:10:57.000Z</time>
      </trkpt>
      <trkpt lat="48.83118" lon="2.38722">
        <ele>46.200000762939</ele>
        <time>2016-07-25T21:10:58.000Z</time>
      </trkpt>
      <trkpt lat="48.83134" lon="2.38742">
        <ele>45.400001525879</ele>
        <time>2016-07-25T21:11:02.000Z</time>
      </trkpt>
      <trkpt lat="48.83138" lon="2.38747">
        <ele>45</ele>
        <time>2016-07-25T21:11:03.000Z</time>
      </trkpt>
      <trkpt lat="48.83151" lon="2.38763">
        <ele>44.599998474121</ele>
        <time>2016-07-25T21:11:06.000Z</time>
      </trkpt>
      <trkpt lat="48.83168" lon="2.38788">
        <ele>44.400001525879</ele>
        <time>2016-07-25T21:11:10.000Z</time>
      </trkpt>
      <trkpt lat="48.83181" lon="2.38807">
        <ele>44.200000762939</ele>
        <time>2016-07-25T21:11:13.000Z</time>
      </trkpt>
      <trkpt lat="48.83191" lon="2.38839">
        <ele>45.400001525879</ele>
        <time>2016-07-25T21:11:17.000Z</time>
      </trkpt>
      <trkpt lat="48.83207" lon="2.38866">
        <ele>46</ele>
        <time>2016-07-25T21:11:21.000Z</time>
      </trkpt>
      <trkpt lat="48.83221" lon="2.38892">
        <ele>46.599998474121</ele>
        <time>2016-07-25T21:11:25.000Z</time>
      </trkpt>
      <trkpt lat="48.83235" lon="2.38918">
        <ele>47.200000762939</ele>
        <time>2016-07-25T21:11:29.000Z</time>
      </trkpt>
      <trkpt lat="48.83248" lon="2.38948">
        <ele>46</ele>
        <time>2016-07-25T21:11:33.000Z</time>
      </trkpt>
      <trkpt lat="48.83258" lon="2.38972">
        <ele>45.200000762939</ele>
        <time>2016-07-25T21:11:36.000Z</time>
      </trkpt>
      <trkpt lat="48.83261" lon="2.3898">
        <ele>45</ele>
        <time>2016-07-25T21:11:37.000Z</time>
      </trkpt>
      <trkpt lat="48.83275" lon="2.39005">
        <ele>43.599998474121</ele>
        <time>2016-07-25T21:11:40.000Z</time>
      </trkpt>
      <trkpt lat="48.83281" lon="2.39017">
        <ele>43</ele>
        <time>2016-07-25T21:11:42.000Z</time>
      </trkpt>
      <trkpt lat="48.83293" lon="2.3904">
        <ele>41.799999237061</ele>
        <time>2016-07-25T21:11:47.000Z</time>
      </trkpt>
      <trkpt lat="48.83295" lon="2.39044">
        <ele>41.599998474121</ele>
        <time>2016-07-25T21:11:49.000Z</time>
      </trkpt>
      <trkpt lat="48.83305" lon="2.39017">
        <ele>41.799999237061</ele>
        <time>2016-07-25T21:12:00.000Z</time>
      </trkpt>
      <trkpt lat="48.83319" lon="2.38995">
        <ele>40</ele>
        <time>2016-07-25T21:12:05.000Z</time>
      </trkpt>
      <trkpt lat="48.83333" lon="2.38978">
        <ele>39</ele>
        <time>2016-07-25T21:12:09.000Z</time>
      </trkpt>
      <trkpt lat="48.83346" lon="2.38959">
        <ele>38.599998474121</ele>
        <time>2016-07-25T21:12:13.000Z</time>
      </trkpt>
      <trkpt lat="48.83362" lon="2.3894">
        <ele>38.599998474121</ele>
        <time>2016-07-25T21:12:17.000Z</time>
      </trkpt>
      <trkpt lat="48.8338" lon="2.38923">
        <ele>39.200000762939</ele>
        <time>2016-07-25T21:12:21.000Z</time>
      </trkpt>
      <trkpt lat="48.83396" lon="2.38904">
        <ele>39.400001525879</ele>
        <time>2016-07-25T21:12:25.000Z</time>
      </trkpt>
      <trkpt lat="48.83412" lon="2.38884">
        <ele>39.400001525879</ele>
        <time>2016-07-25T21:12:29.000Z</time>
      </trkpt>
      <trkpt lat="48.83428" lon="2.38864">
        <ele>40.599998474121</ele>
        <time>2016-07-25T21:12:33.000Z</time>
      </trkpt>
      <trkpt lat="48.83444" lon="2.38847">
        <ele>41.599998474121</ele>
        <time>2016-07-25T21:12:37.000Z</time>
      </trkpt>
      <trkpt lat="48.83458" lon="2.38828">
        <ele>42.200000762939</ele>
        <time>2016-07-25T21:12:41.000Z</time>
      </trkpt>
      <trkpt lat="48.83473" lon="2.38808">
        <ele>42.200000762939</ele>
        <time>2016-07-25T21:12:45.000Z</time>
      </trkpt>
      <trkpt lat="48.83491" lon="2.38787">
        <ele>42.599998474121</ele>
        <time>2016-07-25T21:12:49.000Z</time>
      </trkpt>
      <trkpt lat="48.83506" lon="2.38763">
        <ele>43.799999237061</ele>
        <time>2016-07-25T21:12:54.000Z</time>
      </trkpt>
      <trkpt lat="48.83509" lon="2.38759">
        <ele>44.200000762939</ele>
        <time>2016-07-25T21:12:55.000Z</time>
      </trkpt>
      <trkpt lat="48.83524" lon="2.38737">
        <ele>44.200000762939</ele>
        <time>2016-07-25T21:13:00.000Z</time>
      </trkpt>
      <trkpt lat="48.83537" lon="2.38717">
        <ele>42</ele>
        <time>2016-07-25T21:13:04.000Z</time>
      </trkpt>
      <trkpt lat="48.8355" lon="2.38698">
        <ele>40</ele>
        <time>2016-07-25T21:13:09.000Z</time>
      </trkpt>
      <trkpt lat="48.83567" lon="2.38681">
        <ele>38.799999237061</ele>
        <time>2016-07-25T21:13:15.000Z</time>
      </trkpt>
      <trkpt lat="48.83572" lon="2.38676">
        <ele>38.599998474121</ele>
        <time>2016-07-25T21:13:18.000Z</time>
      </trkpt>
      <trkpt lat="48.83578" lon="2.38664">
        <ele>38.400001525879</ele>
        <time>2016-07-25T21:13:26.000Z</time>
      </trkpt>
      <trkpt lat="48.83579" lon="2.38663">
        <ele>38.200000762939</ele>
        <time>2016-07-25T21:13:27.000Z</time>
      </trkpt>
      <trkpt lat="48.83583" lon="2.38649">
        <ele>38</ele>
        <time>2016-07-25T21:13:55.000Z</time>
      </trkpt>
      <trkpt lat="48.83582" lon="2.38625">
        <ele>38.599998474121</ele>
        <time>2016-07-25T21:14:03.000Z</time>
      </trkpt>
      <trkpt lat="48.83579" lon="2.38598">
        <ele>39.200000762939</ele>
        <time>2016-07-25T21:14:09.000Z</time>
      </trkpt>
      <trkpt lat="48.83592" lon="2.38577">
        <ele>39.400001525879</ele>
        <time>2016-07-25T21:14:15.000Z</time>
      </trkpt>
      <trkpt lat="48.83603" lon="2.38558">
        <ele>38.799999237061</ele>
        <time>2016-07-25T21:14:19.000Z</time>
      </trkpt>
      <trkpt lat="48.83618" lon="2.38537">
        <ele>38.200000762939</ele>
        <time>2016-07-25T21:14:23.000Z</time>
      </trkpt>
      <trkpt lat="48.83634" lon="2.38513">
        <ele>37.599998474121</ele>
        <time>2016-07-25T21:14:27.000Z</time>
      </trkpt>
      <trkpt lat="48.83646" lon="2.38492">
        <ele>37.799999237061</ele>
        <time>2016-07-25T21:14:30.000Z</time>
      </trkpt>
      <trkpt lat="48.83658" lon="2.38466">
        <ele>38.599998474121</ele>
        <time>2016-07-25T21:14:33.000Z</time>
      </trkpt>
      <trkpt lat="48.83673" lon="2.38443">
        <ele>39.599998474121</ele>
        <time>2016-07-25T21:14:36.000Z</time>
      </trkpt>
      <trkpt lat="48.83687" lon="2.38419">
        <ele>40.799999237061</ele>
        <time>2016-07-25T21:14:39.000Z</time>
      </trkpt>
      <trkpt lat="48.83701" lon="2.38396">
        <ele>41.400001525879</ele>
        <time>2016-07-25T21:14:42.000Z</time>
      </trkpt>
      <trkpt lat="48.83714" lon="2.38373">
        <ele>42</ele>
        <time>2016-07-25T21:14:45.000Z</time>
      </trkpt>
      <trkpt lat="48.83727" lon="2.38352">
        <ele>42.200000762939</ele>
        <time>2016-07-25T21:14:48.000Z</time>
      </trkpt>
      <trkpt lat="48.83742" lon="2.38327">
        <ele>42.200000762939</ele>
        <time>2016-07-25T21:14:52.000Z</time>
      </trkpt>
      <trkpt lat="48.83755" lon="2.38305">
        <ele>41.599998474121</ele>
        <time>2016-07-25T21:14:56.000Z</time>
      </trkpt>
      <trkpt lat="48.83766" lon="2.38283">
        <ele>41.799999237061</ele>
        <time>2016-07-25T21:15:00.000Z</time>
      </trkpt>
      <trkpt lat="48.83779" lon="2.38259">
        <ele>41.799999237061</ele>
        <time>2016-07-25T21:15:04.000Z</time>
      </trkpt>
      <trkpt lat="48.83794" lon="2.38241">
        <ele>41.799999237061</ele>
        <time>2016-07-25T21:15:07.000Z</time>
      </trkpt>
      <trkpt lat="48.83809" lon="2.38216">
        <ele>41.599998474121</ele>
        <time>2016-07-25T21:15:11.000Z</time>
      </trkpt>
      <trkpt lat="48.83824" lon="2.38192">
        <ele>41.599998474121</ele>
        <time>2016-07-25T21:15:16.000Z</time>
      </trkpt>
      <trkpt lat="48.8383" lon="2.38182">
        <ele>41.799999237061</ele>
        <time>2016-07-25T21:15:18.000Z</time>
      </trkpt>
      <trkpt lat="48.83843" lon="2.38161">
        <ele>42.200000762939</ele>
        <time>2016-07-25T21:15:23.000Z</time>
      </trkpt>
      <trkpt lat="48.83846" lon="2.3815">
        <ele>42.200000762939</ele>
        <time>2016-07-25T21:15:25.000Z</time>
      </trkpt>
      <trkpt lat="48.83856" lon="2.3815">
        <ele>41.599998474121</ele>
        <time>2016-07-25T21:15:31.000Z</time>
      </trkpt>
      <trkpt lat="48.83859" lon="2.38153">
        <ele>41.799999237061</ele>
        <time>2016-07-25T21:15:33.000Z</time>
      </trkpt>
      <trkpt lat="48.83869" lon="2.38127">
        <ele>41.799999237061</ele>
        <time>2016-07-25T21:15:48.000Z</time>
      </trkpt>
      <trkpt lat="48.83882" lon="2.38105">
        <ele>41.799999237061</ele>
        <time>2016-07-25T21:15:58.000Z</time>
      </trkpt>
      <trkpt lat="48.83894" lon="2.38084">
        <ele>41.799999237061</ele>
        <time>2016-07-25T21:16:06.000Z</time>
      </trkpt>
      <trkpt lat="48.83898" lon="2.3807">
        <ele>42.799999237061</ele>
        <time>2016-07-25T21:16:14.000Z</time>
      </trkpt>
      <trkpt lat="48.83911" lon="2.38049">
        <ele>44.400001525879</ele>
        <time>2016-07-25T21:16:21.000Z</time>
      </trkpt>
      <trkpt lat="48.83923" lon="2.38028">
        <ele>44.200000762939</ele>
        <time>2016-07-25T21:16:27.000Z</time>
      </trkpt>
      <trkpt lat="48.83939" lon="2.38009">
        <ele>44</ele>
        <time>2016-07-25T21:16:33.000Z</time>
      </trkpt>
      <trkpt lat="48.83946" lon="2.37997">
        <ele>44</ele>
        <time>2016-07-25T21:16:37.000Z</time>
      </trkpt>
      <trkpt lat="48.83964" lon="2.3798">
        <ele>45.200000762939</ele>
        <time>2016-07-25T21:16:43.000Z</time>
      </trkpt>
      <trkpt lat="48.83975" lon="2.37963">
        <ele>46.599998474121</ele>
        <time>2016-07-25T21:16:50.000Z</time>
      </trkpt>
      <trkpt lat="48.83987" lon="2.37943">
        <ele>47</ele>
        <time>2016-07-25T21:17:14.000Z</time>
      </trkpt>
      <trkpt lat="48.83986" lon="2.37946">
        <ele>47</ele>
        <time>2016-07-25T21:17:26.000Z</time>
      </trkpt>
      <trkpt lat="48.84" lon="2.37931">
        <ele>46.599998474121</ele>
        <time>2016-07-25T21:17:43.000Z</time>
      </trkpt>
      <trkpt lat="48.8401" lon="2.37922">
        <ele>46.400001525879</ele>
        <time>2016-07-25T21:17:49.000Z</time>
      </trkpt>
      <trkpt lat="48.84022" lon="2.37932">
        <ele>45.599998474121</ele>
        <time>2016-07-25T21:17:54.000Z</time>
      </trkpt>
      <trkpt lat="48.84039" lon="2.3794">
        <ele>44.599998474121</ele>
        <time>2016-07-25T21:18:04.000Z</time>
      </trkpt>
      <trkpt lat="48.84053" lon="2.37923">
        <ele>45.400001525879</ele>
        <time>2016-07-25T21:18:13.000Z</time>
      </trkpt>
      <trkpt lat="48.84057" lon="2.3791">
        <ele>46</ele>
        <time>2016-07-25T21:18:18.000Z</time>
      </trkpt>
      <trkpt lat="48.84063" lon="2.37899">
        <ele>45.799999237061</ele>
        <time>2016-07-25T21:18:23.000Z</time>
      </trkpt>
      <trkpt lat="48.84065" lon="2.3789">
        <ele>45.799999237061</ele>
        <time>2016-07-25T21:18:27.000Z</time>
      </trkpt>
      <trkpt lat="48.84069" lon="2.37886">
        <ele>45.599998474121</ele>
        <time>2016-07-25T21:18:32.000Z</time>
      </trkpt>
      <trkpt lat="48.84085" lon="2.37878">
        <ele>44.400001525879</ele>
        <time>2016-07-25T21:19:26.000Z</time>
      </trkpt>
      <trkpt lat="48.84098" lon="2.37857">
        <ele>41.799999237061</ele>
        <time>2016-07-25T21:19:32.000Z</time>
      </trkpt>
      <trkpt lat="48.84114" lon="2.3784">
        <ele>39</ele>
        <time>2016-07-25T21:19:40.000Z</time>
      </trkpt>
      <trkpt lat="48.84127" lon="2.37819">
        <ele>38.799999237061</ele>
        <time>2016-07-25T21:19:45.000Z</time>
      </trkpt>
      <trkpt lat="48.84139" lon="2.37795">
        <ele>38.599998474121</ele>
        <time>2016-07-25T21:19:50.000Z</time>
      </trkpt>
      <trkpt lat="48.84151" lon="2.37774">
        <ele>38.400001525879</ele>
        <time>2016-07-25T21:19:54.000Z</time>
      </trkpt>
      <trkpt lat="48.84165" lon="2.37754">
        <ele>38.200000762939</ele>
        <time>2016-07-25T21:19:59.000Z</time>
      </trkpt>
      <trkpt lat="48.84175" lon="2.37729">
        <ele>39.599998474121</ele>
        <time>2016-07-25T21:20:03.000Z</time>
      </trkpt>
      <trkpt lat="48.84189" lon="2.37706">
        <ele>38</ele>
        <time>2016-07-25T21:20:08.000Z</time>
      </trkpt>
      <trkpt lat="48.84201" lon="2.37678">
        <ele>37.799999237061</ele>
        <time>2016-07-25T21:20:13.000Z</time>
      </trkpt>
      <trkpt lat="48.8421" lon="2.37652">
        <ele>38</ele>
        <time>2016-07-25T21:20:23.000Z</time>
      </trkpt>
      <trkpt lat="48.84211" lon="2.37652">
        <ele>38</ele>
        <time>2016-07-25T21:20:24.000Z</time>
      </trkpt>
      <trkpt lat="48.84219" lon="2.37625">
        <ele>39.200000762939</ele>
        <time>2016-07-25T21:20:35.000Z</time>
      </trkpt>
      <trkpt lat="48.84234" lon="2.37602">
        <ele>39.400001525879</ele>
        <time>2016-07-25T21:20:41.000Z</time>
      </trkpt>
      <trkpt lat="48.84246" lon="2.37582">
        <ele>39.200000762939</ele>
        <time>2016-07-25T21:20:46.000Z</time>
      </trkpt>
      <trkpt lat="48.84257" lon="2.37555">
        <ele>39.400001525879</ele>
        <time>2016-07-25T21:20:52.000Z</time>
      </trkpt>
      <trkpt lat="48.84256" lon="2.37536">
        <ele>40.599998474121</ele>
        <time>2016-07-25T21:21:00.000Z</time>
      </trkpt>
      <trkpt lat="48.84237" lon="2.37543">
        <ele>39.400001525879</ele>
        <time>2016-07-25T21:21:08.000Z</time>
      </trkpt>
      <trkpt lat="48.84218" lon="2.37557">
        <ele>40.400001525879</ele>
        <time>2016-07-25T21:21:14.000Z</time>
      </trkpt>
      <trkpt lat="48.84202" lon="2.37574">
        <ele>41.200000762939</ele>
        <time>2016-07-25T21:21:24.000Z</time>
      </trkpt>
      <trkpt lat="48.842" lon="2.37579">
        <ele>41.400001525879</ele>
        <time>2016-07-25T21:21:28.000Z</time>
      </trkpt>
      <trkpt lat="48.84219" lon="2.37562">
        <ele>40.400001525879</ele>
        <time>2016-07-25T21:21:39.000Z</time>
      </trkpt>
      <trkpt lat="48.84236" lon="2.37548">
        <ele>39.400001525879</ele>
        <time>2016-07-25T21:21:44.000Z</time>
      </trkpt>
      <trkpt lat="48.84253" lon="2.37529">
        <ele>41</ele>
        <time>2016-07-25T21:21:49.000Z</time>
      </trkpt>
      <trkpt lat="48.84258" lon="2.37501">
        <ele>43.200000762939</ele>
        <time>2016-07-25T21:21:53.000Z</time>
      </trkpt>
      <trkpt lat="48.84264" lon="2.37473">
        <ele>43.799999237061</ele>
        <time>2016-07-25T21:21:57.000Z</time>
      </trkpt>
      <trkpt lat="48.8427" lon="2.37456">
        <ele>44.400001525879</ele>
        <time>2016-07-25T21:22:00.000Z</time>
      </trkpt>
      <trkpt lat="48.84286" lon="2.37438">
        <ele>45</ele>
        <time>2016-07-25T21:22:07.000Z</time>
      </trkpt>
      <trkpt lat="48.84302" lon="2.3742">
        <ele>45.599998474121</ele>
        <time>2016-07-25T21:22:12.000Z</time>
      </trkpt>
      <trkpt lat="48.84317" lon="2.37399">
        <ele>45.599998474121</ele>
        <time>2016-07-25T21:22:17.000Z</time>
      </trkpt>
      <trkpt lat="48.84335" lon="2.37381">
        <ele>46</ele>
        <time>2016-07-25T21:22:22.000Z</time>
      </trkpt>
      <trkpt lat="48.84351" lon="2.37363">
        <ele>46.799999237061</ele>
        <time>2016-07-25T21:22:26.000Z</time>
      </trkpt>
      <trkpt lat="48.84367" lon="2.37341">
        <ele>46.400001525879</ele>
        <time>2016-07-25T21:22:30.000Z</time>
      </trkpt>
      <trkpt lat="48.84383" lon="2.37322">
        <ele>45.200000762939</ele>
        <time>2016-07-25T21:22:34.000Z</time>
      </trkpt>
      <trkpt lat="48.84397" lon="2.37304">
        <ele>43.799999237061</ele>
        <time>2016-07-25T21:22:39.000Z</time>
      </trkpt>
      <trkpt lat="48.84401" lon="2.37295">
        <ele>43.400001525879</ele>
        <time>2016-07-25T21:22:41.000Z</time>
      </trkpt>
      <trkpt lat="48.84409" lon="2.37284">
        <ele>43.200000762939</ele>
        <time>2016-07-25T21:22:44.000Z</time>
      </trkpt>
      <trkpt lat="48.84423" lon="2.37266">
        <ele>43.200000762939</ele>
        <time>2016-07-25T21:22:49.000Z</time>
      </trkpt>
      <trkpt lat="48.84431" lon="2.37239">
        <ele>43</ele>
        <time>2016-07-25T21:22:53.000Z</time>
      </trkpt>
      <trkpt lat="48.84443" lon="2.37228">
        <ele>42.200000762939</ele>
        <time>2016-07-25T21:22:58.000Z</time>
      </trkpt>
      <trkpt lat="48.84448" lon="2.37226">
        <ele>42.200000762939</ele>
        <time>2016-07-25T21:23:00.000Z</time>
      </trkpt>
      <trkpt lat="48.84462" lon="2.37208">
        <ele>41.200000762939</ele>
        <time>2016-07-25T21:23:06.000Z</time>
      </trkpt>
      <trkpt lat="48.84476" lon="2.37186">
        <ele>40.799999237061</ele>
        <time>2016-07-25T21:23:11.000Z</time>
      </trkpt>
      <trkpt lat="48.84487" lon="2.3716">
        <ele>41</ele>
        <time>2016-07-25T21:23:17.000Z</time>
      </trkpt>
      <trkpt lat="48.845" lon="2.37138">
        <ele>40.200000762939</ele>
        <time>2016-07-25T21:23:24.000Z</time>
      </trkpt>
      <trkpt lat="48.84515" lon="2.37121">
        <ele>40.200000762939</ele>
        <time>2016-07-25T21:23:32.000Z</time>
      </trkpt>
      <trkpt lat="48.84516" lon="2.37121">
        <ele>40.200000762939</ele>
        <time>2016-07-25T21:23:33.000Z</time>
      </trkpt>
      <trkpt lat="48.84521" lon="2.37129">
        <ele>40.599998474121</ele>
        <time>2016-07-25T21:23:52.000Z</time>
      </trkpt>
      <trkpt lat="48.84523" lon="2.37121">
        <ele>40.400001525879</ele>
        <time>2016-07-25T21:24:43.000Z</time>
      </trkpt>
      <trkpt lat="48.84539" lon="2.37104">
        <ele>39.599998474121</ele>
        <time>2016-07-25T21:24:51.000Z</time>
      </trkpt>
      <trkpt lat="48.8455" lon="2.37094">
        <ele>40</ele>
        <time>2016-07-25T21:24:54.000Z</time>
      </trkpt>
      <trkpt lat="48.84567" lon="2.37077">
        <ele>41.200000762939</ele>
        <time>2016-07-25T21:24:59.000Z</time>
      </trkpt>
      <trkpt lat="48.84586" lon="2.37061">
        <ele>41.799999237061</ele>
        <time>2016-07-25T21:25:04.000Z</time>
      </trkpt>
      <trkpt lat="48.84602" lon="2.37042">
        <ele>42.400001525879</ele>
        <time>2016-07-25T21:25:09.000Z</time>
      </trkpt>
      <trkpt lat="48.84622" lon="2.37025">
        <ele>42.200000762939</ele>
        <time>2016-07-25T21:25:14.000Z</time>
      </trkpt>
      <trkpt lat="48.84635" lon="2.37005">
        <ele>42.200000762939</ele>
        <time>2016-07-25T21:25:18.000Z</time>
      </trkpt>
      <trkpt lat="48.84654" lon="2.36988">
        <ele>42.599998474121</ele>
        <time>2016-07-25T21:25:23.000Z</time>
      </trkpt>
      <trkpt lat="48.84662" lon="2.36977">
        <ele>43</ele>
        <time>2016-07-25T21:25:26.000Z</time>
      </trkpt>
      <trkpt lat="48.84667" lon="2.36956">
        <ele>43</ele>
        <time>2016-07-25T21:25:31.000Z</time>
      </trkpt>
      <trkpt lat="48.84669" lon="2.36953">
        <ele>43</ele>
        <time>2016-07-25T21:25:32.000Z</time>
      </trkpt>
      <trkpt lat="48.84679" lon="2.36944">
        <ele>43</ele>
        <time>2016-07-25T21:25:38.000Z</time>
      </trkpt>
      <trkpt lat="48.84693" lon="2.36925">
        <ele>43</ele>
        <time>2016-07-25T21:25:43.000Z</time>
      </trkpt>
      <trkpt lat="48.84709" lon="2.36905">
        <ele>42.599998474121</ele>
        <time>2016-07-25T21:25:48.000Z</time>
      </trkpt>
      <trkpt lat="48.84724" lon="2.3688">
        <ele>41.799999237061</ele>
        <time>2016-07-25T21:25:53.000Z</time>
      </trkpt>
      <trkpt lat="48.84739" lon="2.36858">
        <ele>41</ele>
        <time>2016-07-25T21:25:57.000Z</time>
      </trkpt>
      <trkpt lat="48.84756" lon="2.36836">
        <ele>40.400001525879</ele>
        <time>2016-07-25T21:26:01.000Z</time>
      </trkpt>
      <trkpt lat="48.84769" lon="2.36816">
        <ele>39.200000762939</ele>
        <time>2016-07-25T21:26:05.000Z</time>
      </trkpt>
      <trkpt lat="48.84786" lon="2.36795">
        <ele>37</ele>
        <time>2016-07-25T21:26:09.000Z</time>
      </trkpt>
      <trkpt lat="48.84789" lon="2.36791">
        <ele>36.799999237061</ele>
        <time>2016-07-25T21:26:10.000Z</time>
      </trkpt>
      <trkpt lat="48.84797" lon="2.36778">
        <ele>35.599998474121</ele>
        <time>2016-07-25T21:26:14.000Z</time>
      </trkpt>
      <trkpt lat="48.84798" lon="2.36775">
        <ele>35.400001525879</ele>
        <time>2016-07-25T21:26:16.000Z</time>
      </trkpt>
      <trkpt lat="48.84801" lon="2.36773">
        <ele>35.400001525879</ele>
        <time>2016-07-25T21:26:20.000Z</time>
      </trkpt>
      <trkpt lat="48.84811" lon="2.36756">
        <ele>36.200000762939</ele>
        <time>2016-07-25T21:26:35.000Z</time>
      </trkpt>
      <trkpt lat="48.8483" lon="2.36759">
        <ele>37.400001525879</ele>
        <time>2016-07-25T21:26:42.000Z</time>
      </trkpt>
      <trkpt lat="48.8485" lon="2.36768">
        <ele>38.400001525879</ele>
        <time>2016-07-25T21:26:47.000Z</time>
      </trkpt>
      <trkpt lat="48.8487" lon="2.36785">
        <ele>39.400001525879</ele>
        <time>2016-07-25T21:26:52.000Z</time>
      </trkpt>
      <trkpt lat="48.84887" lon="2.36797">
        <ele>40.200000762939</ele>
        <time>2016-07-25T21:26:56.000Z</time>
      </trkpt>
      <trkpt lat="48.84896" lon="2.36801">
        <ele>40.799999237061</ele>
        <time>2016-07-25T21:27:01.000Z</time>
      </trkpt>
      <trkpt lat="48.84898" lon="2.36792">
        <ele>41</ele>
        <time>2016-07-25T21:27:11.000Z</time>
      </trkpt>
      <trkpt lat="48.84908" lon="2.36765">
        <ele>38.200000762939</ele>
        <time>2016-07-25T21:27:18.000Z</time>
      </trkpt>
      <trkpt lat="48.84916" lon="2.36737">
        <ele>35.799999237061</ele>
        <time>2016-07-25T21:27:25.000Z</time>
      </trkpt>
      <trkpt lat="48.84917" lon="2.36731">
        <ele>35.599998474121</ele>
        <time>2016-07-25T21:27:27.000Z</time>
      </trkpt>
      <trkpt lat="48.8492" lon="2.36713">
        <ele>36</ele>
        <time>2016-07-25T21:27:32.000Z</time>
      </trkpt>
      <trkpt lat="48.84928" lon="2.36688">
        <ele>37</ele>
        <time>2016-07-25T21:27:40.000Z</time>
      </trkpt>
      <trkpt lat="48.8494" lon="2.36665">
        <ele>38</ele>
        <time>2016-07-25T21:27:54.000Z</time>
      </trkpt>
      <trkpt lat="48.84941" lon="2.36658">
        <ele>38.799999237061</ele>
        <time>2016-07-25T21:27:56.000Z</time>
      </trkpt>
      <trkpt lat="48.84942" lon="2.3663">
        <ele>42</ele>
        <time>2016-07-25T21:28:03.000Z</time>
      </trkpt>
      <trkpt lat="48.84949" lon="2.36602">
        <ele>45.799999237061</ele>
        <time>2016-07-25T21:28:09.000Z</time>
      </trkpt>
      <trkpt lat="48.84956" lon="2.36571">
        <ele>45.799999237061</ele>
        <time>2016-07-25T21:28:15.000Z</time>
      </trkpt>
      <trkpt lat="48.84963" lon="2.36542">
        <ele>44</ele>
        <time>2016-07-25T21:28:20.000Z</time>
      </trkpt>
      <trkpt lat="48.84972" lon="2.36516">
        <ele>42.799999237061</ele>
        <time>2016-07-25T21:28:24.000Z</time>
      </trkpt>
      <trkpt lat="48.84977" lon="2.36486">
        <ele>42.200000762939</ele>
        <time>2016-07-25T21:28:28.000Z</time>
      </trkpt>
      <trkpt lat="48.84979" lon="2.36458">
        <ele>41</ele>
        <time>2016-07-25T21:28:33.000Z</time>
      </trkpt>
      <trkpt lat="48.84977" lon="2.36454">
        <ele>41</ele>
        <time>2016-07-25T21:28:34.000Z</time>
      </trkpt>
      <trkpt lat="48.84971" lon="2.3643">
        <ele>40.200000762939</ele>
        <time>2016-07-25T21:28:41.000Z</time>
      </trkpt>
      <trkpt lat="48.84971" lon="2.36414">
        <ele>39.599998474121</ele>
        <time>2016-07-25T21:28:45.000Z</time>
      </trkpt>
      <trkpt lat="48.8498" lon="2.36387">
        <ele>39.599998474121</ele>
        <time>2016-07-25T21:28:50.000Z</time>
      </trkpt>
      <trkpt lat="48.84994" lon="2.36367">
        <ele>38.400001525879</ele>
        <time>2016-07-25T21:28:55.000Z</time>
      </trkpt>
      <trkpt lat="48.85006" lon="2.36343">
        <ele>36.599998474121</ele>
        <time>2016-07-25T21:28:59.000Z</time>
      </trkpt>
      <trkpt lat="48.8502" lon="2.36319">
        <ele>35.200000762939</ele>
        <time>2016-07-25T21:29:03.000Z</time>
      </trkpt>
      <trkpt lat="48.85034" lon="2.36297">
        <ele>36</ele>
        <time>2016-07-25T21:29:07.000Z</time>
      </trkpt>
      <trkpt lat="48.85042" lon="2.36285">
        <ele>36.400001525879</ele>
        <time>2016-07-25T21:29:09.000Z</time>
      </trkpt>
      <trkpt lat="48.85059" lon="2.36265">
        <ele>37</ele>
        <time>2016-07-25T21:29:13.000Z</time>
      </trkpt>
      <trkpt lat="48.85074" lon="2.36247">
        <ele>37.200000762939</ele>
        <time>2016-07-25T21:29:17.000Z</time>
      </trkpt>
      <trkpt lat="48.85086" lon="2.36237">
        <ele>37.799999237061</ele>
        <time>2016-07-25T21:29:20.000Z</time>
      </trkpt>
      <trkpt lat="48.851" lon="2.36236">
        <ele>37.799999237061</ele>
        <time>2016-07-25T21:29:25.000Z</time>
      </trkpt>
      <trkpt lat="48.85101" lon="2.36238">
        <ele>37.799999237061</ele>
        <time>2016-07-25T21:29:26.000Z</time>
      </trkpt>
      <trkpt lat="48.8511" lon="2.36238">
        <ele>37.799999237061</ele>
        <time>2016-07-25T21:30:10.000Z</time>
      </trkpt>
      <trkpt lat="48.85121" lon="2.36227">
        <ele>37.799999237061</ele>
        <time>2016-07-25T21:30:15.000Z</time>
      </trkpt>
      <trkpt lat="48.85136" lon="2.36206">
        <ele>37.599998474121</ele>
        <time>2016-07-25T21:30:20.000Z</time>
      </trkpt>
      <trkpt lat="48.85152" lon="2.36187">
        <ele>38.799999237061</ele>
        <time>2016-07-25T21:30:24.000Z</time>
      </trkpt>
      <trkpt lat="48.85167" lon="2.36163">
        <ele>41</ele>
        <time>2016-07-25T21:30:29.000Z</time>
      </trkpt>
      <trkpt lat="48.85181" lon="2.36136">
        <ele>41.599998474121</ele>
        <time>2016-07-25T21:30:34.000Z</time>
      </trkpt>
      <trkpt lat="48.85194" lon="2.36117">
        <ele>41.400001525879</ele>
        <time>2016-07-25T21:30:38.000Z</time>
      </trkpt>
      <trkpt lat="48.85209" lon="2.36097">
        <ele>40.799999237061</ele>
        <time>2016-07-25T21:30:42.000Z</time>
      </trkpt>
      <trkpt lat="48.85221" lon="2.36076">
        <ele>40.200000762939</ele>
        <time>2016-07-25T21:30:46.000Z</time>
      </trkpt>
      <trkpt lat="48.8523" lon="2.36063">
        <ele>39.599998474121</ele>
        <time>2016-07-25T21:30:49.000Z</time>
      </trkpt>
      <trkpt lat="48.85242" lon="2.36042">
        <ele>39</ele>
        <time>2016-07-25T21:30:55.000Z</time>
      </trkpt>
      <trkpt lat="48.85245" lon="2.36033">
        <ele>38.799999237061</ele>
        <time>2016-07-25T21:30:57.000Z</time>
      </trkpt>
      <trkpt lat="48.85253" lon="2.36015">
        <ele>38.799999237061</ele>
        <time>2016-07-25T21:31:03.000Z</time>
      </trkpt>
      <trkpt lat="48.85265" lon="2.3599">
        <ele>39.400001525879</ele>
        <time>2016-07-25T21:31:11.000Z</time>
      </trkpt>
      <trkpt lat="48.85274" lon="2.35962">
        <ele>38.200000762939</ele>
        <time>2016-07-25T21:31:15.000Z</time>
      </trkpt>
      <trkpt lat="48.85284" lon="2.35938">
        <ele>37.599998474121</ele>
        <time>2016-07-25T21:31:19.000Z</time>
      </trkpt>
      <trkpt lat="48.85297" lon="2.35909">
        <ele>37</ele>
        <time>2016-07-25T21:31:24.000Z</time>
      </trkpt>
      <trkpt lat="48.85309" lon="2.35882">
        <ele>36.599998474121</ele>
        <time>2016-07-25T21:31:29.000Z</time>
      </trkpt>
      <trkpt lat="48.85319" lon="2.35857">
        <ele>36.599998474121</ele>
        <time>2016-07-25T21:31:34.000Z</time>
      </trkpt>
      <trkpt lat="48.85328" lon="2.3583">
        <ele>36.599998474121</ele>
        <time>2016-07-25T21:31:40.000Z</time>
      </trkpt>
      <trkpt lat="48.85339" lon="2.35804">
        <ele>37.400001525879</ele>
        <time>2016-07-25T21:31:46.000Z</time>
      </trkpt>
      <trkpt lat="48.85348" lon="2.35777">
        <ele>37.599998474121</ele>
        <time>2016-07-25T21:31:53.000Z</time>
      </trkpt>
      <trkpt lat="48.85355" lon="2.3575">
        <ele>38</ele>
        <time>2016-07-25T21:31:58.000Z</time>
      </trkpt>
      <trkpt lat="48.85365" lon="2.35724">
        <ele>38.599998474121</ele>
        <time>2016-07-25T21:32:02.000Z</time>
      </trkpt>
      <trkpt lat="48.85375" lon="2.357">
        <ele>39</ele>
        <time>2016-07-25T21:32:06.000Z</time>
      </trkpt>
      <trkpt lat="48.85386" lon="2.35675">
        <ele>39.400001525879</ele>
        <time>2016-07-25T21:32:11.000Z</time>
      </trkpt>
      <trkpt lat="48.85393" lon="2.35649">
        <ele>39</ele>
        <time>2016-07-25T21:32:15.000Z</time>
      </trkpt>
      <trkpt lat="48.85403" lon="2.35623">
        <ele>38.599998474121</ele>
        <time>2016-07-25T21:32:19.000Z</time>
      </trkpt>
      <trkpt lat="48.85415" lon="2.35597">
        <ele>38</ele>
        <time>2016-07-25T21:32:23.000Z</time>
      </trkpt>
      <trkpt lat="48.85423" lon="2.35569">
        <ele>38.599998474121</ele>
        <time>2016-07-25T21:32:27.000Z</time>
      </trkpt>
      <trkpt lat="48.85432" lon="2.35544">
        <ele>37.400001525879</ele>
        <time>2016-07-25T21:32:31.000Z</time>
      </trkpt>
      <trkpt lat="48.85441" lon="2.35519">
        <ele>35.799999237061</ele>
        <time>2016-07-25T21:32:35.000Z</time>
      </trkpt>
      <trkpt lat="48.85448" lon="2.35493">
        <ele>35.200000762939</ele>
        <time>2016-07-25T21:32:39.000Z</time>
      </trkpt>
      <trkpt lat="48.8545" lon="2.35486">
        <ele>35</ele>
        <time>2016-07-25T21:32:40.000Z</time>
      </trkpt>
      <trkpt lat="48.85462" lon="2.35457">
        <ele>34.200000762939</ele>
        <time>2016-07-25T21:32:44.000Z</time>
      </trkpt>
      <trkpt lat="48.85471" lon="2.35426">
        <ele>34.799999237061</ele>
        <time>2016-07-25T21:32:48.000Z</time>
      </trkpt>
      <trkpt lat="48.85481" lon="2.35397">
        <ele>35.200000762939</ele>
        <time>2016-07-25T21:32:52.000Z</time>
      </trkpt>
      <trkpt lat="48.85489" lon="2.35369">
        <ele>34.400001525879</ele>
        <time>2016-07-25T21:32:56.000Z</time>
      </trkpt>
      <trkpt lat="48.855" lon="2.35341">
        <ele>34.400001525879</ele>
        <time>2016-07-25T21:33:01.000Z</time>
      </trkpt>
      <trkpt lat="48.8551" lon="2.35314">
        <ele>34.599998474121</ele>
        <time>2016-07-25T21:33:06.000Z</time>
      </trkpt>
      <trkpt lat="48.85514" lon="2.35303">
        <ele>33.599998474121</ele>
        <time>2016-07-25T21:33:08.000Z</time>
      </trkpt>
      <trkpt lat="48.8553" lon="2.35292">
        <ele>33.400001525879</ele>
        <time>2016-07-25T21:33:14.000Z</time>
      </trkpt>
      <trkpt lat="48.85536" lon="2.35291">
        <ele>34</ele>
        <time>2016-07-25T21:33:16.000Z</time>
      </trkpt>
      <trkpt lat="48.85544" lon="2.35289">
        <ele>34.599998474121</ele>
        <time>2016-07-25T21:33:18.000Z</time>
      </trkpt>
      <trkpt lat="48.85554" lon="2.35292">
        <ele>35.799999237061</ele>
        <time>2016-07-25T21:33:21.000Z</time>
      </trkpt>
      <trkpt lat="48.85574" lon="2.35302">
        <ele>38.799999237061</ele>
        <time>2016-07-25T21:33:26.000Z</time>
      </trkpt>
      <trkpt lat="48.8559" lon="2.35318">
        <ele>42</ele>
        <time>2016-07-25T21:33:30.000Z</time>
      </trkpt>
      <trkpt lat="48.85606" lon="2.35328">
        <ele>44.799999237061</ele>
        <time>2016-07-25T21:33:34.000Z</time>
      </trkpt>
      <trkpt lat="48.85623" lon="2.35337">
        <ele>45.400001525879</ele>
        <time>2016-07-25T21:33:39.000Z</time>
      </trkpt>
      <trkpt lat="48.85643" lon="2.35346">
        <ele>45.799999237061</ele>
        <time>2016-07-25T21:33:44.000Z</time>
      </trkpt>
      <trkpt lat="48.85664" lon="2.35354">
        <ele>46.200000762939</ele>
        <time>2016-07-25T21:33:48.000Z</time>
      </trkpt>
      <trkpt lat="48.85682" lon="2.3536">
        <ele>46.599998474121</ele>
        <time>2016-07-25T21:33:52.000Z</time>
      </trkpt>
      <trkpt lat="48.85692" lon="2.35366">
        <ele>46.799999237061</ele>
        <time>2016-07-25T21:33:55.000Z</time>
      </trkpt>
      <trkpt lat="48.85704" lon="2.3537">
        <ele>47.599998474121</ele>
        <time>2016-07-25T21:34:34.000Z</time>
      </trkpt>
      <trkpt lat="48.85712" lon="2.35343">
        <ele>49</ele>
        <time>2016-07-25T21:34:42.000Z</time>
      </trkpt>
      <trkpt lat="48.85719" lon="2.35316">
        <ele>49.200000762939</ele>
        <time>2016-07-25T21:34:47.000Z</time>
      </trkpt>
      <trkpt lat="48.85724" lon="2.35287">
        <ele>49.200000762939</ele>
        <time>2016-07-25T21:34:52.000Z</time>
      </trkpt>
      <trkpt lat="48.85734" lon="2.3526">
        <ele>47.400001525879</ele>
        <time>2016-07-25T21:34:57.000Z</time>
      </trkpt>
      <trkpt lat="48.85729" lon="2.35223">
        <ele>44.200000762939</ele>
        <time>2016-07-25T21:35:02.000Z</time>
      </trkpt>
      <trkpt lat="48.8573" lon="2.35195">
        <ele>41.799999237061</ele>
        <time>2016-07-25T21:35:07.000Z</time>
      </trkpt>
      <trkpt lat="48.85737" lon="2.35166">
        <ele>40.200000762939</ele>
        <time>2016-07-25T21:35:14.000Z</time>
      </trkpt>
      <trkpt lat="48.85747" lon="2.35151">
        <ele>40</ele>
        <time>2016-07-25T21:35:23.000Z</time>
      </trkpt>
      <trkpt lat="48.85749" lon="2.3515">
        <ele>40.200000762939</ele>
        <time>2016-07-25T21:35:26.000Z</time>
      </trkpt>
      <trkpt lat="48.85756" lon="2.35127">
        <ele>41.200000762939</ele>
        <time>2016-07-25T21:35:33.000Z</time>
      </trkpt>
      <trkpt lat="48.85765" lon="2.35101">
        <ele>43.200000762939</ele>
        <time>2016-07-25T21:35:38.000Z</time>
      </trkpt>
      <trkpt lat="48.85775" lon="2.35074">
        <ele>45.400001525879</ele>
        <time>2016-07-25T21:35:43.000Z</time>
      </trkpt>
      <trkpt lat="48.85785" lon="2.35047">
        <ele>46.799999237061</ele>
        <time>2016-07-25T21:35:48.000Z</time>
      </trkpt>
      <trkpt lat="48.85795" lon="2.35024">
        <ele>48.200000762939</ele>
        <time>2016-07-25T21:35:53.000Z</time>
      </trkpt>
      <trkpt lat="48.85805" lon="2.35">
        <ele>47.599998474121</ele>
        <time>2016-07-25T21:35:59.000Z</time>
      </trkpt>
      <trkpt lat="48.85814" lon="2.34969">
        <ele>45.200000762939</ele>
        <time>2016-07-25T21:36:05.000Z</time>
      </trkpt>
      <trkpt lat="48.85822" lon="2.34943">
        <ele>44.799999237061</ele>
        <time>2016-07-25T21:36:09.000Z</time>
      </trkpt>
      <trkpt lat="48.85833" lon="2.34917">
        <ele>46</ele>
        <time>2016-07-25T21:36:13.000Z</time>
      </trkpt>
      <trkpt lat="48.85839" lon="2.34887">
        <ele>46</ele>
        <time>2016-07-25T21:36:17.000Z</time>
      </trkpt>
      <trkpt lat="48.85846" lon="2.3486">
        <ele>46.799999237061</ele>
        <time>2016-07-25T21:36:21.000Z</time>
      </trkpt>
      <trkpt lat="48.85856" lon="2.34832">
        <ele>48</ele>
        <time>2016-07-25T21:36:26.000Z</time>
      </trkpt>
      <trkpt lat="48.85864" lon="2.34803">
        <ele>47.599998474121</ele>
        <time>2016-07-25T21:36:30.000Z</time>
      </trkpt>
      <trkpt lat="48.85874" lon="2.34777">
        <ele>47.400001525879</ele>
        <time>2016-07-25T21:36:34.000Z</time>
      </trkpt>
      <trkpt lat="48.85883" lon="2.34756">
        <ele>46.400001525879</ele>
        <time>2016-07-25T21:36:39.000Z</time>
      </trkpt>
      <trkpt lat="48.85898" lon="2.3474">
        <ele>45.599998474121</ele>
        <time>2016-07-25T21:36:45.000Z</time>
      </trkpt>
      <trkpt lat="48.85914" lon="2.34721">
        <ele>45.599998474121</ele>
        <time>2016-07-25T21:36:51.000Z</time>
      </trkpt>
      <trkpt lat="48.8593" lon="2.34706">
        <ele>45.599998474121</ele>
        <time>2016-07-25T21:36:57.000Z</time>
      </trkpt>
      <trkpt lat="48.85944" lon="2.34703">
        <ele>45.599998474121</ele>
        <time>2016-07-25T21:37:05.000Z</time>
      </trkpt>
      <trkpt lat="48.85933" lon="2.34714">
        <ele>45.400001525879</ele>
        <time>2016-07-25T21:37:09.000Z</time>
      </trkpt>
      <trkpt lat="48.85933" lon="2.34717">
        <ele>45.200000762939</ele>
        <time>2016-07-25T21:37:21.000Z</time>
      </trkpt>
      <trkpt lat="48.85939" lon="2.34714">
        <ele>45.200000762939</ele>
        <time>2016-07-25T21:37:27.000Z</time>
      </trkpt>
      <trkpt lat="48.85943" lon="2.34715">
        <ele>45.200000762939</ele>
        <time>2016-07-25T21:37:28.000Z</time>
      </trkpt>
    </trkseg>
  </trk>
</gpx>